<?xml version='1.0' encoding='UTF-8'?><gpx version="1.1" creator="JPX - https://github.com/jenetics/jpx" xmlns="http://www.topografix.com/GPX/1/1"><trk><trkseg><trkpt lat="14.558057066420918" lon="120.99538564152368"><ele>9.0</ele><time>2026-04-10T04:26:14.932Z</time></trkpt><trkpt lat="14.558049797114561" lon="120.99545133814432"><ele>9.0</ele><time>2026-04-10T04:26:16.932Z</time></trkpt><trkpt lat="14.558081159568227" lon="120.99551575963588"><ele>9.0</ele><time>2026-04-10T04:26:20.932Z</time></trkpt><trkpt lat="14.558073316528557" lon="120.99559110990124"><ele>9.0</ele><time>2026-04-10T04:26:25.932Z</time></trkpt><trkpt lat="14.55809904507998" lon="120.99565144014491"><ele>9.0</ele><time>2026-04-10T04:26:28.017Z</time></trkpt><trkpt lat="14.557779600579046" lon="120.99564745290272"><ele>9.0</ele><time>2026-04-10T04:26:31.97Z</time></trkpt><trkpt lat="14.557783175412238" lon="120.99554980404139"><ele>9.0</ele><time>2026-04-10T04:26:33.965Z</time></trkpt><trkpt lat="14.557720807208389" lon="120.99552848072655"><ele>9.0</ele><time>2026-04-10T04:26:36.965Z</time></trkpt><trkpt lat="14.55804599237473" lon="120.99608495940323"><ele>9.0</ele><time>2026-04-10T04:27:30.932Z</time></trkpt><trkpt lat="14.558154429687175" lon="120.99612598458324"><ele>9.0</ele><time>2026-04-10T04:27:34.932Z</time></trkpt><trkpt lat="14.558213915355113" lon="120.9961861384673"><ele>9.0</ele><time>2026-04-10T04:27:39Z</time></trkpt><trkpt lat="14.558290176923807" lon="120.99624268741817"><ele>9.0</ele><time>2026-04-10T04:27:44Z</time></trkpt><trkpt lat="14.558361494511637" lon="120.99623154685433"><ele>9.0</ele><time>2026-04-10T04:27:45Z</time></trkpt><trkpt lat="14.558469816028618" lon="120.9961722295208"><ele>9.0</ele><time>2026-04-10T04:27:46Z</time></trkpt><trkpt lat="14.558566568731427" lon="120.99613990431371"><ele>9.0</ele><time>2026-04-10T04:27:47Z</time></trkpt><trkpt lat="14.55865939058106" lon="120.99612100960712"><ele>9.0</ele><time>2026-04-10T04:27:48Z</time></trkpt><trkpt lat="14.558766389467344" lon="120.99612050407548"><ele>9.0</ele><time>2026-04-10T04:27:49Z</time></trkpt><trkpt lat="14.558873669783438" lon="120.99610801792235"><ele>9.0</ele><time>2026-04-10T04:27:50Z</time></trkpt><trkpt lat="14.558989479220225" lon="120.99608964097264"><ele>9.0</ele><time>2026-04-10T04:27:51Z</time></trkpt><trkpt lat="14.55909233714153" lon="120.99606890462222"><ele>9.0</ele><time>2026-04-10T04:27:52.001Z</time></trkpt><trkpt lat="14.55919276546329" lon="120.9960507274014"><ele>9.0</ele><time>2026-04-10T04:27:53.001Z</time></trkpt><trkpt lat="14.559281507460698" lon="120.99603501217092"><ele>9.0</ele><time>2026-04-10T04:27:54.001Z</time></trkpt><trkpt lat="14.559363346027522" lon="120.99601440707525"><ele>9.0</ele><time>2026-04-10T04:27:55.001Z</time></trkpt><trkpt lat="14.559448273489453" lon="120.9959854618805"><ele>9.0</ele><time>2026-04-10T04:27:56.001Z</time></trkpt><trkpt lat="14.559528190857709" lon="120.995964354897"><ele>9.0</ele><time>2026-04-10T04:27:57.001Z</time></trkpt><trkpt lat="14.559603557791402" lon="120.99594621058013"><ele>9.0</ele><time>2026-04-10T04:27:58.001Z</time></trkpt><trkpt lat="14.559689572527384" lon="120.9959281143568"><ele>9.0</ele><time>2026-04-10T04:27:59.001Z</time></trkpt><trkpt lat="14.55977211174833" lon="120.99591492260579"><ele>9.0</ele><time>2026-04-10T04:28:00.001Z</time></trkpt><trkpt lat="14.559852455325998" lon="120.99589518939486"><ele>9.0</ele><time>2026-04-10T04:28:01.001Z</time></trkpt><trkpt lat="14.559936386454476" lon="120.99587893251092"><ele>8.833333333333334</ele><time>2026-04-10T04:28:02.001Z</time></trkpt><trkpt lat="14.56002256419259" lon="120.99586632480822"><ele>8.666666666666666</ele><time>2026-04-10T04:28:03.001Z</time></trkpt><trkpt lat="14.560095666220988" lon="120.99584775772941"><ele>8.5</ele><time>2026-04-10T04:28:04.001Z</time></trkpt><trkpt lat="14.560164920093323" lon="120.99583438671203"><ele>8.333333333333332</ele><time>2026-04-10T04:28:05.001Z</time></trkpt><trkpt lat="14.560239687049798" lon="120.99582077183402"><ele>8.166666666666666</ele><time>2026-04-10T04:28:06.001Z</time></trkpt><trkpt lat="14.56032367170549" lon="120.99580378274545"><ele>8.0</ele><time>2026-04-10T04:28:07.001Z</time></trkpt><trkpt lat="14.560421612425971" lon="120.99578132217918"><ele>7.800000000000001</ele><time>2026-04-10T04:28:08.001Z</time></trkpt><trkpt lat="14.560518307063965" lon="120.9957609420406"><ele>7.6000000000000005</ele><time>2026-04-10T04:28:09.001Z</time></trkpt><trkpt lat="14.560626629866698" lon="120.99573852337367"><ele>7.3999999999999995</ele><time>2026-04-10T04:28:10.001Z</time></trkpt><trkpt lat="14.560729434546914" lon="120.99571634002966"><ele>7.199999999999999</ele><time>2026-04-10T04:28:11.001Z</time></trkpt><trkpt lat="14.560844142373842" lon="120.99568978211461"><ele>7.0</ele><time>2026-04-10T04:28:12.001Z</time></trkpt><trkpt lat="14.560955038799696" lon="120.9956628087573"><ele>7.0</ele><time>2026-04-10T04:28:13.001Z</time></trkpt><trkpt lat="14.561071538973872" lon="120.99563574659732"><ele>6.999999999999999</ele><time>2026-04-10T04:28:14.001Z</time></trkpt><trkpt lat="14.561167732307096" lon="120.99562168335255"><ele>6.999999999999999</ele><time>2026-04-10T04:28:15.001Z</time></trkpt><trkpt lat="14.561262082956858" lon="120.99558430700817"><ele>7.0</ele><time>2026-04-10T04:28:16.001Z</time></trkpt><trkpt lat="14.56136006399978" lon="120.99556035925967"><ele>7.0</ele><time>2026-04-10T04:28:17.001Z</time></trkpt><trkpt lat="14.561461345433813" lon="120.99554477303668"><ele>7.3999999999999995</ele><time>2026-04-10T04:28:18.001Z</time></trkpt><trkpt lat="14.561558806674372" lon="120.99550442221954"><ele>7.799999999999999</ele><time>2026-04-10T04:28:19.001Z</time></trkpt><trkpt lat="14.561640983184144" lon="120.99548183471853"><ele>8.2</ele><time>2026-04-10T04:28:20.001Z</time></trkpt><trkpt lat="14.561737885361234" lon="120.99545823130784"><ele>8.6</ele><time>2026-04-10T04:28:22.001Z</time></trkpt><trkpt lat="14.561814565462237" lon="120.99542805145784"><ele>9.0</ele><time>2026-04-10T04:28:27.001Z</time></trkpt><trkpt lat="14.561895817443132" lon="120.99540678573928"><ele>9.0</ele><time>2026-04-10T04:28:31.001Z</time></trkpt><trkpt lat="14.561959927765962" lon="120.99540501544827"><ele>9.0</ele><time>2026-04-10T04:28:48.002Z</time></trkpt><trkpt lat="14.562021771767757" lon="120.9953765589509"><ele>9.0</ele><time>2026-04-10T04:28:51.002Z</time></trkpt><trkpt lat="14.562102395986887" lon="120.99535307494399"><ele>9.0</ele><time>2026-04-10T04:28:55.002Z</time></trkpt><trkpt lat="14.562177277520354" lon="120.9953335823147"><ele>9.0</ele><time>2026-04-10T04:28:57.002Z</time></trkpt><trkpt lat="14.562240931663833" lon="120.99532034271553"><ele>9.0</ele><time>2026-04-10T04:28:59.002Z</time></trkpt><trkpt lat="14.562344051655653" lon="120.99531610297622"><ele>9.25</ele><time>2026-04-10T04:29:01.002Z</time></trkpt><trkpt lat="14.562456088817276" lon="120.99528755642831"><ele>9.5</ele><time>2026-04-10T04:29:03.002Z</time></trkpt><trkpt lat="14.562586755614575" lon="120.99531874655841"><ele>9.75</ele><time>2026-04-10T04:29:05.002Z</time></trkpt><trkpt lat="14.562686983677317" lon="120.99537372471322"><ele>10.0</ele><time>2026-04-10T04:29:07.002Z</time></trkpt><trkpt lat="14.562734862187899" lon="120.99545671794719"><ele>10.0</ele><time>2026-04-10T04:29:08.002Z</time></trkpt><trkpt lat="14.56276235556735" lon="120.99552251419784"><ele>10.0</ele><time>2026-04-10T04:29:10.002Z</time></trkpt><trkpt lat="14.562779754016141" lon="120.99558814380042"><ele>10.0</ele><time>2026-04-10T04:29:11.002Z</time></trkpt><trkpt lat="14.562820809267501" lon="120.99564894740381"><ele>10.0</ele><time>2026-04-10T04:29:13.002Z</time></trkpt><trkpt lat="14.5628537218576" lon="120.99571295701567"><ele>10.0</ele><time>2026-04-10T04:29:16.002Z</time></trkpt><trkpt lat="14.562890096100979" lon="120.9957765926793"><ele>10.0</ele><time>2026-04-10T04:29:26.002Z</time></trkpt><trkpt lat="14.562917796705836" lon="120.99584184622248"><ele>10.0</ele><time>2026-04-10T04:29:30.002Z</time></trkpt><trkpt lat="14.562963778779704" lon="120.99592929582671"><ele>9.833333333333334</ele><time>2026-04-10T04:29:33.002Z</time></trkpt><trkpt lat="14.562980848168493" lon="120.99599439700013"><ele>9.666666666666668</ele><time>2026-04-10T04:29:35.002Z</time></trkpt><trkpt lat="14.562992827262715" lon="120.99606041195895"><ele>9.5</ele><time>2026-04-10T04:29:39.002Z</time></trkpt><trkpt lat="14.563032533944629" lon="120.99613260384236"><ele>9.333333333333334</ele><time>2026-04-10T04:29:41.002Z</time></trkpt><trkpt lat="14.5630800017112" lon="120.9962429845563"><ele>9.166666666666666</ele><time>2026-04-10T04:29:43.002Z</time></trkpt><trkpt lat="14.563102739067466" lon="120.99630410288496"><ele>9.0</ele><time>2026-04-10T04:29:44.002Z</time></trkpt><trkpt lat="14.563144249830028" lon="120.996425296271"><ele>9.0</ele><time>2026-04-10T04:29:46.002Z</time></trkpt><trkpt lat="14.563201001896077" lon="120.99651381674254"><ele>9.0</ele><time>2026-04-10T04:29:48.002Z</time></trkpt><trkpt lat="14.56323073242567" lon="120.99658114783281"><ele>9.0</ele><time>2026-04-10T04:29:56.001Z</time></trkpt><trkpt lat="14.56325767239953" lon="120.99664244731596"><ele>9.0</ele><time>2026-04-10T04:29:59.001Z</time></trkpt><trkpt lat="14.563291890688058" lon="120.99672030794042"><ele>9.0</ele><time>2026-04-10T04:30:02.001Z</time></trkpt><trkpt lat="14.56331989133772" lon="120.99678402088614"><ele>9.0</ele><time>2026-04-10T04:30:09.001Z</time></trkpt><trkpt lat="14.563342594994399" lon="120.99686464527718"><ele>8.666666666666666</ele><time>2026-04-10T04:30:15.001Z</time></trkpt><trkpt lat="14.563382609144067" lon="120.99695844023529"><ele>8.333333333333334</ele><time>2026-04-10T04:30:17.001Z</time></trkpt><trkpt lat="14.563408791394693" lon="120.99702470466812"><ele>8.0</ele><time>2026-04-10T04:30:18.001Z</time></trkpt><trkpt lat="14.563457259352855" lon="120.99709655148472"><ele>7.666666666666667</ele><time>2026-04-10T04:30:19.001Z</time></trkpt><trkpt lat="14.563489405619908" lon="120.99716757358995"><ele>7.333333333333334</ele><time>2026-04-10T04:30:20.001Z</time></trkpt><trkpt lat="14.56351946045196" lon="120.99723364112673"><ele>7.0</ele><time>2026-04-10T04:30:21.001Z</time></trkpt><trkpt lat="14.56354047203092" lon="120.99730482334567"><ele>7.0</ele><time>2026-04-10T04:30:22.001Z</time></trkpt><trkpt lat="14.563577049557555" lon="120.9973789164469"><ele>7.0</ele><time>2026-04-10T04:30:23.001Z</time></trkpt><trkpt lat="14.563616018892812" lon="120.99745092983872"><ele>7.0</ele><time>2026-04-10T04:30:24.001Z</time></trkpt><trkpt lat="14.563652351473195" lon="120.99752838766267"><ele>7.0</ele><time>2026-04-10T04:30:25.001Z</time></trkpt><trkpt lat="14.563680571082099" lon="120.99759616456271"><ele>7.0</ele><time>2026-04-10T04:30:26.001Z</time></trkpt><trkpt lat="14.563707158413107" lon="120.99765846712206"><ele>7.0</ele><time>2026-04-10T04:30:27.001Z</time></trkpt><trkpt lat="14.563742381198743" lon="120.99771450120647"><ele>7.0</ele><time>2026-04-10T04:30:28.001Z</time></trkpt><trkpt lat="14.563782826896386" lon="120.99779251752881"><ele>7.000000000000001</ele><time>2026-04-10T04:30:30.001Z</time></trkpt><trkpt lat="14.563813363126897" lon="120.99785059738139"><ele>7.0</ele><time>2026-04-10T04:30:32.001Z</time></trkpt><trkpt lat="14.563861473946142" lon="120.99794210403459"><ele>7.0</ele><time>2026-04-10T04:30:34.001Z</time></trkpt><trkpt lat="14.563913225614947" lon="120.99804041258463"><ele>7.0</ele><time>2026-04-10T04:30:36.001Z</time></trkpt><trkpt lat="14.563960304894554" lon="120.998130571405"><ele>7.000000000000001</ele><time>2026-04-10T04:30:38.001Z</time></trkpt><trkpt lat="14.56399172985466" lon="120.9981912660155"><ele>7.0</ele><time>2026-04-10T04:30:40.001Z</time></trkpt><trkpt lat="14.563857864999218" lon="120.99831102374064"><ele>7.0</ele><time>2026-04-10T04:30:45.001Z</time></trkpt><trkpt lat="14.563795777051508" lon="120.99832980016839"><ele>7.0</ele><time>2026-04-10T04:30:46.001Z</time></trkpt><trkpt lat="14.563734203827725" lon="120.99835039708023"><ele>7.0</ele><time>2026-04-10T04:30:47.001Z</time></trkpt><trkpt lat="14.56366523428779" lon="120.99837850079999"><ele>7.0</ele><time>2026-04-10T04:30:48.001Z</time></trkpt><trkpt lat="14.563588982235654" lon="120.99839837812625"><ele>7.0</ele><time>2026-04-10T04:30:49.001Z</time></trkpt><trkpt lat="14.563513634458586" lon="120.99842005304866"><ele>7.0</ele><time>2026-04-10T04:30:50.001Z</time></trkpt><trkpt lat="14.563440645058444" lon="120.99843999289774"><ele>7.0</ele><time>2026-04-10T04:30:51.001Z</time></trkpt><trkpt lat="14.563361333208157" lon="120.99847021943717"><ele>7.0</ele><time>2026-04-10T04:30:52.001Z</time></trkpt><trkpt lat="14.563292318050973" lon="120.99848690292761"><ele>7.0</ele><time>2026-04-10T04:30:53.001Z</time></trkpt><trkpt lat="14.563215089294744" lon="120.99850762701638"><ele>7.0</ele><time>2026-04-10T04:30:54.001Z</time></trkpt><trkpt lat="14.563142321157423" lon="120.99852642823338"><ele>7.0</ele><time>2026-04-10T04:30:55.001Z</time></trkpt><trkpt lat="14.563070895677495" lon="120.99854767163146"><ele>7.0</ele><time>2026-04-10T04:30:56.001Z</time></trkpt><trkpt lat="14.562993850615088" lon="120.99857369987474"><ele>7.0</ele><time>2026-04-10T04:30:57.002Z</time></trkpt><trkpt lat="14.562932932184221" lon="120.99859421220118"><ele>7.0</ele><time>2026-04-10T04:30:58.002Z</time></trkpt><trkpt lat="14.5628210445923" lon="120.99863886163497"><ele>7.3999999999999995</ele><time>2026-04-10T04:31:00.002Z</time></trkpt><trkpt lat="14.562725639805057" lon="120.99866010434194"><ele>7.799999999999999</ele><time>2026-04-10T04:31:02.002Z</time></trkpt><trkpt lat="14.562618271749598" lon="120.99870429782658"><ele>8.2</ele><time>2026-04-10T04:31:04.002Z</time></trkpt><trkpt lat="14.562554977716687" lon="120.99872837775239"><ele>8.6</ele><time>2026-04-10T04:31:05.002Z</time></trkpt><trkpt lat="14.56248708354616" lon="120.99875959437159"><ele>9.0</ele><time>2026-04-10T04:31:06.002Z</time></trkpt><trkpt lat="14.56237174187107" lon="120.99879427050172"><ele>9.0</ele><time>2026-04-10T04:31:08.002Z</time></trkpt><trkpt lat="14.562256720141127" lon="120.9988600118843"><ele>9.0</ele><time>2026-04-10T04:31:10.002Z</time></trkpt><trkpt lat="14.562152221369244" lon="120.99891280452452"><ele>9.0</ele><time>2026-04-10T04:31:12.002Z</time></trkpt><trkpt lat="14.562092221106862" lon="120.99893918565975"><ele>9.0</ele><time>2026-04-10T04:31:13.002Z</time></trkpt><trkpt lat="14.561991614235419" lon="120.9989884224368"><ele>9.0</ele><time>2026-04-10T04:31:15.002Z</time></trkpt><trkpt lat="14.561963348693565" lon="120.99906568375216"><ele>8.833333333333334</ele><time>2026-04-10T04:31:18.002Z</time></trkpt><trkpt lat="14.56202330607477" lon="120.99914223465672"><ele>8.666666666666666</ele><time>2026-04-10T04:31:20.002Z</time></trkpt><trkpt lat="14.562084321540933" lon="120.99918535704984"><ele>8.5</ele><time>2026-04-10T04:31:21.002Z</time></trkpt><trkpt lat="14.562137476777789" lon="120.99924074985233"><ele>8.333333333333332</ele><time>2026-04-10T04:31:22.002Z</time></trkpt><trkpt lat="14.562190136972616" lon="120.99930096667467"><ele>8.166666666666666</ele><time>2026-04-10T04:31:23.002Z</time></trkpt><trkpt lat="14.56225437298396" lon="120.99936452464492"><ele>8.0</ele><time>2026-04-10T04:31:24.002Z</time></trkpt><trkpt lat="14.562321873249358" lon="120.99943168138265"><ele>7.999999999999999</ele><time>2026-04-10T04:31:25.002Z</time></trkpt><trkpt lat="14.562378131713896" lon="120.9994879911865"><ele>8.0</ele><time>2026-04-10T04:31:26.002Z</time></trkpt><trkpt lat="14.562431434292987" lon="120.99953557152344"><ele>8.0</ele><time>2026-04-10T04:31:27.002Z</time></trkpt><trkpt lat="14.562485180566856" lon="120.99958762027626"><ele>8.0</ele><time>2026-04-10T04:31:28.002Z</time></trkpt><trkpt lat="14.562535873041373" lon="120.99963517440321"><ele>7.999999999999999</ele><time>2026-04-10T04:31:29.002Z</time></trkpt><trkpt lat="14.562585512604498" lon="120.99969165793568"><ele>8.0</ele><time>2026-04-10T04:31:30.002Z</time></trkpt><trkpt lat="14.56266722735212" lon="120.99978262221607"><ele>8.0</ele><time>2026-04-10T04:31:32.002Z</time></trkpt><trkpt lat="14.56270402381008" lon="120.999837296883"><ele>8.0</ele><time>2026-04-10T04:31:33.002Z</time></trkpt><trkpt lat="14.562757020336793" lon="120.99987775816669"><ele>8.0</ele><time>2026-04-10T04:31:34.002Z</time></trkpt><trkpt lat="14.562846334376216" lon="120.99996415341815"><ele>8.0</ele><time>2026-04-10T04:31:36.002Z</time></trkpt><trkpt lat="14.562921374679384" lon="121.0000484107087"><ele>8.0</ele><time>2026-04-10T04:31:38.002Z</time></trkpt><trkpt lat="14.56297686234385" lon="121.00011982111599"><ele>7.833333333333333</ele><time>2026-04-10T04:31:40.002Z</time></trkpt><trkpt lat="14.563044848776169" lon="121.00017459993542"><ele>7.666666666666666</ele><time>2026-04-10T04:31:42.002Z</time></trkpt><trkpt lat="14.56309934532187" lon="121.0002273934933"><ele>7.5</ele><time>2026-04-10T04:31:43.002Z</time></trkpt><trkpt lat="14.563159113319893" lon="121.00027661334758"><ele>7.333333333333334</ele><time>2026-04-10T04:31:44.002Z</time></trkpt><trkpt lat="14.563230298276553" lon="121.00034200727926"><ele>7.166666666666667</ele><time>2026-04-10T04:31:45.002Z</time></trkpt><trkpt lat="14.563299181480327" lon="121.00040992112146"><ele>7.0</ele><time>2026-04-10T04:31:46.002Z</time></trkpt><trkpt lat="14.56337716564118" lon="121.00048285660577"><ele>7.0</ele><time>2026-04-10T04:31:47.002Z</time></trkpt><trkpt lat="14.56345680000233" lon="121.00055826898587"><ele>6.999999999999999</ele><time>2026-04-10T04:31:48.002Z</time></trkpt><trkpt lat="14.56352853144721" lon="121.00063999715087"><ele>6.999999999999999</ele><time>2026-04-10T04:31:49.001Z</time></trkpt><trkpt lat="14.563594695736676" lon="121.00071220978289"><ele>7.0</ele><time>2026-04-10T04:31:50.001Z</time></trkpt><trkpt lat="14.563655495600328" lon="121.00077698891879"><ele>7.0</ele><time>2026-04-10T04:31:51.002Z</time></trkpt><trkpt lat="14.563707725410259" lon="121.00083305153399"><ele>7.166666666666667</ele><time>2026-04-10T04:31:52.001Z</time></trkpt><trkpt lat="14.563749737389958" lon="121.0008880198909"><ele>7.333333333333334</ele><time>2026-04-10T04:31:53.001Z</time></trkpt><trkpt lat="14.563795931267592" lon="121.00093853759002"><ele>7.5</ele><time>2026-04-10T04:31:54.001Z</time></trkpt><trkpt lat="14.563845216817406" lon="121.00099702497033"><ele>7.666666666666666</ele><time>2026-04-10T04:31:55.001Z</time></trkpt><trkpt lat="14.563892943386945" lon="121.00104986480373"><ele>7.833333333333333</ele><time>2026-04-10T04:31:56.001Z</time></trkpt><trkpt lat="14.563946030395757" lon="121.00111405444275"><ele>8.0</ele><time>2026-04-10T04:31:57.001Z</time></trkpt><trkpt lat="14.564005336266272" lon="121.00118359947665"><ele>8.0</ele><time>2026-04-10T04:31:58.001Z</time></trkpt><trkpt lat="14.564101596912248" lon="121.001252216359"><ele>8.0</ele><time>2026-04-10T04:31:59.001Z</time></trkpt><trkpt lat="14.564173390159525" lon="121.00132411813433"><ele>8.0</ele><time>2026-04-10T04:32:00.001Z</time></trkpt><trkpt lat="14.564251525633003" lon="121.00140071483553"><ele>8.0</ele><time>2026-04-10T04:32:01.001Z</time></trkpt><trkpt lat="14.564322692028563" lon="121.00147047970758"><ele>8.0</ele><time>2026-04-10T04:32:02.001Z</time></trkpt><trkpt lat="14.564382806186984" lon="121.00152940995787"><ele>8.0</ele><time>2026-04-10T04:32:03.001Z</time></trkpt><trkpt lat="14.564457928342746" lon="121.0016038453446"><ele>8.0</ele><time>2026-04-10T04:32:04.001Z</time></trkpt><trkpt lat="14.56452300682639" lon="121.00166814503253"><ele>8.0</ele><time>2026-04-10T04:32:05.001Z</time></trkpt><trkpt lat="14.564597348834155" lon="121.00174159738174"><ele>8.0</ele><time>2026-04-10T04:32:06.001Z</time></trkpt><trkpt lat="14.564674605539269" lon="121.00181510488304"><ele>8.0</ele><time>2026-04-10T04:32:07.001Z</time></trkpt><trkpt lat="14.564747945540768" lon="121.00188794207628"><ele>7.6000000000000005</ele><time>2026-04-10T04:32:08.001Z</time></trkpt><trkpt lat="14.564827356439135" lon="121.00196663744683"><ele>7.200000000000001</ele><time>2026-04-10T04:32:09.001Z</time></trkpt><trkpt lat="14.564905283211587" lon="121.00203995503442"><ele>6.8</ele><time>2026-04-10T04:32:10.001Z</time></trkpt><trkpt lat="14.564979995497207" lon="121.00211536297277"><ele>6.4</ele><time>2026-04-10T04:32:11.001Z</time></trkpt><trkpt lat="14.565058434264254" lon="121.002193123413"><ele>6.0</ele><time>2026-04-10T04:32:12.001Z</time></trkpt><trkpt lat="14.565139110046852" lon="121.00227292374173"><ele>6.0</ele><time>2026-04-10T04:32:13.001Z</time></trkpt><trkpt lat="14.565215427066654" lon="121.0023463552813"><ele>6.0</ele><time>2026-04-10T04:32:14.001Z</time></trkpt><trkpt lat="14.565286866202081" lon="121.00241509335608"><ele>6.0</ele><time>2026-04-10T04:32:15.001Z</time></trkpt><trkpt lat="14.565350408284111" lon="121.00247623296659"><ele>6.0</ele><time>2026-04-10T04:32:16.001Z</time></trkpt><trkpt lat="14.565406140252367" lon="121.00252985774932"><ele>6.0</ele><time>2026-04-10T04:32:17.001Z</time></trkpt><trkpt lat="14.565460205145179" lon="121.00257987981864"><ele>6.0</ele><time>2026-04-10T04:32:18.001Z</time></trkpt><trkpt lat="14.565518136246396" lon="121.00263297913477"><ele>6.4</ele><time>2026-04-10T04:32:19.001Z</time></trkpt><trkpt lat="14.565576093223848" lon="121.00268610216453"><ele>6.8</ele><time>2026-04-10T04:32:20.001Z</time></trkpt><trkpt lat="14.565632703656213" lon="121.00273799096014"><ele>7.200000000000001</ele><time>2026-04-10T04:32:21.001Z</time></trkpt><trkpt lat="14.56568115633707" lon="121.0027824024088"><ele>7.6000000000000005</ele><time>2026-04-10T04:32:22.001Z</time></trkpt><trkpt lat="14.565757982149467" lon="121.00285282051132"><ele>8.0</ele><time>2026-04-10T04:32:24.001Z</time></trkpt><trkpt lat="14.565775187928487" lon="121.00300030784298"><ele>8.0</ele><time>2026-04-10T04:32:27.001Z</time></trkpt><trkpt lat="14.565782848791393" lon="121.00309020512925"><ele>8.0</ele><time>2026-04-10T04:32:30.001Z</time></trkpt><trkpt lat="14.5656559638436" lon="121.00315592286186"><ele>8.0</ele><time>2026-04-10T04:32:31.001Z</time></trkpt><trkpt lat="14.565587659008692" lon="121.00319895845723"><ele>8.0</ele><time>2026-04-10T04:32:32.001Z</time></trkpt><trkpt lat="14.565516172611169" lon="121.00324399858906"><ele>8.0</ele><time>2026-04-10T04:32:33.001Z</time></trkpt><trkpt lat="14.565431456546593" lon="121.00328874685772"><ele>7.999999999999999</ele><time>2026-04-10T04:32:34.001Z</time></trkpt><trkpt lat="14.565366374493527" lon="121.00331895779213"><ele>8.0</ele><time>2026-04-10T04:32:35.001Z</time></trkpt><trkpt lat="14.56530273559275" lon="121.00337185776522"><ele>8.0</ele><time>2026-04-10T04:32:36.001Z</time></trkpt><trkpt lat="14.565256507598443" lon="121.00342971244031"><ele>8.0</ele><time>2026-04-10T04:32:37.001Z</time></trkpt><trkpt lat="14.565137030490453" lon="121.00348600503794"><ele>7.999999999999999</ele><time>2026-04-10T04:32:38.001Z</time></trkpt><trkpt lat="14.565058667903351" lon="121.00353381565803"><ele>8.0</ele><time>2026-04-10T04:32:39.001Z</time></trkpt><trkpt lat="14.564947995942568" lon="121.00360465838693"><ele>7.5</ele><time>2026-04-10T04:32:40.001Z</time></trkpt><trkpt lat="14.56483928451824" lon="121.003690618284"><ele>7.0</ele><time>2026-04-10T04:32:41.001Z</time></trkpt><trkpt lat="14.564717546248767" lon="121.00375928138911"><ele>6.5</ele><time>2026-04-10T04:32:42.001Z</time></trkpt><trkpt lat="14.564588973778907" lon="121.00382258072092"><ele>6.0</ele><time>2026-04-10T04:32:43.001Z</time></trkpt><trkpt lat="14.564452713825474" lon="121.00389275462382"><ele>6.0</ele><time>2026-04-10T04:32:44.001Z</time></trkpt><trkpt lat="14.564316492514907" lon="121.00396103872482"><ele>6.0</ele><time>2026-04-10T04:32:45.001Z</time></trkpt><trkpt lat="14.564195094557656" lon="121.00404086592823"><ele>6.0</ele><time>2026-04-10T04:32:46.001Z</time></trkpt><trkpt lat="14.564078961390218" lon="121.00410616365947"><ele>6.0</ele><time>2026-04-10T04:32:47.001Z</time></trkpt><trkpt lat="14.563958897048696" lon="121.00417152761348"><ele>6.0</ele><time>2026-04-10T04:32:48.001Z</time></trkpt><trkpt lat="14.563844900085805" lon="121.00423967459847"><ele>6.0</ele><time>2026-04-10T04:32:49.001Z</time></trkpt><trkpt lat="14.563724429188468" lon="121.00431566832178"><ele>6.0</ele><time>2026-04-10T04:32:50.001Z</time></trkpt><trkpt lat="14.563618548533244" lon="121.00437868306464"><ele>6.0</ele><time>2026-04-10T04:32:51.001Z</time></trkpt><trkpt lat="14.563505072874168" lon="121.00443609936252"><ele>6.25</ele><time>2026-04-10T04:32:52.001Z</time></trkpt><trkpt lat="14.563373263973071" lon="121.00445300689269"><ele>6.5</ele><time>2026-04-10T04:32:53.001Z</time></trkpt><trkpt lat="14.563281343972978" lon="121.0045612925462"><ele>6.75</ele><time>2026-04-10T04:32:54.001Z</time></trkpt><trkpt lat="14.56318211356209" lon="121.00461733634255"><ele>7.0</ele><time>2026-04-10T04:32:55.001Z</time></trkpt><trkpt lat="14.563080410191644" lon="121.00466781341468"><ele>7.0</ele><time>2026-04-10T04:32:56.001Z</time></trkpt><trkpt lat="14.562985599923715" lon="121.00471321663265"><ele>6.999999999999999</ele><time>2026-04-10T04:32:57.001Z</time></trkpt><trkpt lat="14.562897779393007" lon="121.00475889092554"><ele>6.999999999999999</ele><time>2026-04-10T04:32:58.001Z</time></trkpt><trkpt lat="14.562814258543291" lon="121.0048085164199"><ele>7.0</ele><time>2026-04-10T04:32:59.001Z</time></trkpt><trkpt lat="14.562722075631813" lon="121.00484906356944"><ele>7.0</ele><time>2026-04-10T04:33:00.001Z</time></trkpt><trkpt lat="14.562596612844715" lon="121.00481799993611"><ele>6.6</ele><time>2026-04-10T04:33:01.001Z</time></trkpt><trkpt lat="14.562521249239678" lon="121.00485786102358"><ele>6.199999999999999</ele><time>2026-04-10T04:33:02.001Z</time></trkpt><trkpt lat="14.56240694911328" lon="121.00490094572831"><ele>5.8</ele><time>2026-04-10T04:33:04.001Z</time></trkpt><trkpt lat="14.562319214561885" lon="121.00493949026894"><ele>5.4</ele><time>2026-04-10T04:33:05.001Z</time></trkpt><trkpt lat="14.562228540869523" lon="121.00498817929116"><ele>5.0</ele><time>2026-04-10T04:33:06.001Z</time></trkpt><trkpt lat="14.562139487600941" lon="121.00503851689439"><ele>5.0</ele><time>2026-04-10T04:33:07.001Z</time></trkpt><trkpt lat="14.562035904460716" lon="121.00509014177676"><ele>5.0</ele><time>2026-04-10T04:33:08.001Z</time></trkpt><trkpt lat="14.56194672598906" lon="121.0051324748345"><ele>5.0</ele><time>2026-04-10T04:33:09.001Z</time></trkpt><trkpt lat="14.561846248325697" lon="121.00517751309282"><ele>5.0</ele><time>2026-04-10T04:33:10.001Z</time></trkpt><trkpt lat="14.561752971875817" lon="121.00523562490149"><ele>5.0</ele><time>2026-04-10T04:33:11.001Z</time></trkpt><trkpt lat="14.561647413920493" lon="121.0052923911699"><ele>5.25</ele><time>2026-04-10T04:33:12.001Z</time></trkpt><trkpt lat="14.561551370339023" lon="121.0053446715276"><ele>5.5</ele><time>2026-04-10T04:33:13.001Z</time></trkpt><trkpt lat="14.561444142078727" lon="121.00540241248794"><ele>5.75</ele><time>2026-04-10T04:33:14.001Z</time></trkpt><trkpt lat="14.56132461169775" lon="121.0054663491269"><ele>6.0</ele><time>2026-04-10T04:33:15.001Z</time></trkpt><trkpt lat="14.56119873884491" lon="121.00554238982187"><ele>6.333333333333334</ele><time>2026-04-10T04:33:16.001Z</time></trkpt><trkpt lat="14.561053940577562" lon="121.00562183564779"><ele>6.666666666666667</ele><time>2026-04-10T04:33:17.001Z</time></trkpt><trkpt lat="14.560902915242384" lon="121.00568199603187"><ele>7.0</ele><time>2026-04-10T04:33:18.001Z</time></trkpt><trkpt lat="14.560766318526886" lon="121.00575949484856"><ele>6.75</ele><time>2026-04-10T04:33:19.001Z</time></trkpt><trkpt lat="14.560649799850783" lon="121.00582964722359"><ele>6.5</ele><time>2026-04-10T04:33:20.001Z</time></trkpt><trkpt lat="14.560524493631522" lon="121.00590424886535"><ele>6.25</ele><time>2026-04-10T04:33:21.001Z</time></trkpt><trkpt lat="14.560426924663158" lon="121.00593802195672"><ele>6.0</ele><time>2026-04-10T04:33:22.001Z</time></trkpt><trkpt lat="14.560323684504494" lon="121.00600214180716"><ele>6.0</ele><time>2026-04-10T04:33:23.001Z</time></trkpt><trkpt lat="14.56018758723315" lon="121.00608266988765"><ele>6.0</ele><time>2026-04-10T04:33:24.001Z</time></trkpt><trkpt lat="14.560091894881575" lon="121.00613387665655"><ele>6.0</ele><time>2026-04-10T04:33:25.001Z</time></trkpt><trkpt lat="14.559991773098167" lon="121.00619258081329"><ele>6.0</ele><time>2026-04-10T04:33:26.001Z</time></trkpt><trkpt lat="14.559889504605541" lon="121.00625388122526"><ele>6.0</ele><time>2026-04-10T04:33:27.001Z</time></trkpt><trkpt lat="14.55979617267376" lon="121.00629763166174"><ele>6.0</ele><time>2026-04-10T04:33:28.001Z</time></trkpt><trkpt lat="14.559691170141598" lon="121.0063577442331"><ele>6.0</ele><time>2026-04-10T04:33:29.001Z</time></trkpt><trkpt lat="14.559597831693221" lon="121.00641602957516"><ele>6.0</ele><time>2026-04-10T04:33:30.001Z</time></trkpt><trkpt lat="14.559496957085532" lon="121.00647481638472"><ele>6.0</ele><time>2026-04-10T04:33:31.001Z</time></trkpt><trkpt lat="14.559392652353697" lon="121.00653314038743"><ele>6.199999999999999</ele><time>2026-04-10T04:33:32.001Z</time></trkpt><trkpt lat="14.559293808222707" lon="121.0065853464019"><ele>6.3999999999999995</ele><time>2026-04-10T04:33:33.001Z</time></trkpt><trkpt lat="14.559197927500207" lon="121.00664101178569"><ele>6.6</ele><time>2026-04-10T04:33:34.001Z</time></trkpt><trkpt lat="14.55910365249329" lon="121.00669569671929"><ele>6.8</ele><time>2026-04-10T04:33:35.001Z</time></trkpt><trkpt lat="14.55900872305552" lon="121.0067491804361"><ele>7.0</ele><time>2026-04-10T04:33:36.001Z</time></trkpt><trkpt lat="14.558908220212226" lon="121.00680270521572"><ele>7.0</ele><time>2026-04-10T04:33:37.001Z</time></trkpt><trkpt lat="14.558812164681799" lon="121.00685369485105"><ele>6.999999999999999</ele><time>2026-04-10T04:33:38.001Z</time></trkpt><trkpt lat="14.558719025305221" lon="121.00690965748718"><ele>6.999999999999999</ele><time>2026-04-10T04:33:39.001Z</time></trkpt><trkpt lat="14.558625734019678" lon="121.00696104018394"><ele>7.0</ele><time>2026-04-10T04:33:40.001Z</time></trkpt><trkpt lat="14.558537212474162" lon="121.00701266729504"><ele>7.0</ele><time>2026-04-10T04:33:41.001Z</time></trkpt><trkpt lat="14.558453039921153" lon="121.00704670406749"><ele>7.3999999999999995</ele><time>2026-04-10T04:33:42.002Z</time></trkpt><trkpt lat="14.55837622525308" lon="121.00711056522205"><ele>7.799999999999999</ele><time>2026-04-10T04:33:43.002Z</time></trkpt><trkpt lat="14.558299188056694" lon="121.00715761851136"><ele>8.2</ele><time>2026-04-10T04:33:44.002Z</time></trkpt><trkpt lat="14.55820665461223" lon="121.00720051800462"><ele>8.6</ele><time>2026-04-10T04:33:45.002Z</time></trkpt><trkpt lat="14.558115319067774" lon="121.00724441996914"><ele>9.0</ele><time>2026-04-10T04:33:46.002Z</time></trkpt><trkpt lat="14.558024021966382" lon="121.00729468068607"><ele>9.0</ele><time>2026-04-10T04:33:47.002Z</time></trkpt><trkpt lat="14.557935543408906" lon="121.00734439224736"><ele>9.0</ele><time>2026-04-10T04:33:48.002Z</time></trkpt><trkpt lat="14.557840159702536" lon="121.00739112736068"><ele>9.0</ele><time>2026-04-10T04:33:49.002Z</time></trkpt><trkpt lat="14.557746272103076" lon="121.00744371077636"><ele>9.0</ele><time>2026-04-10T04:33:50.002Z</time></trkpt><trkpt lat="14.557652136158357" lon="121.00749306761453"><ele>9.0</ele><time>2026-04-10T04:33:51.002Z</time></trkpt><trkpt lat="14.557551597713092" lon="121.00754908725409"><ele>8.6</ele><time>2026-04-10T04:33:52.002Z</time></trkpt><trkpt lat="14.557458274662386" lon="121.00759629729414"><ele>8.2</ele><time>2026-04-10T04:33:53.002Z</time></trkpt><trkpt lat="14.557361567057352" lon="121.00763771369112"><ele>7.799999999999999</ele><time>2026-04-10T04:33:54.002Z</time></trkpt><trkpt lat="14.55726268803513" lon="121.00769564241057"><ele>7.3999999999999995</ele><time>2026-04-10T04:33:55.001Z</time></trkpt><trkpt lat="14.557167230125774" lon="121.00775273829129"><ele>7.0</ele><time>2026-04-10T04:33:56.001Z</time></trkpt><trkpt lat="14.557068813526335" lon="121.00780123752632"><ele>6.5</ele><time>2026-04-10T04:33:57.001Z</time></trkpt><trkpt lat="14.556961998712179" lon="121.00784471496397"><ele>6.0</ele><time>2026-04-10T04:33:58.001Z</time></trkpt><trkpt lat="14.556860942929758" lon="121.00791505537005"><ele>5.5</ele><time>2026-04-10T04:33:59.001Z</time></trkpt><trkpt lat="14.556761228594402" lon="121.00797489732044"><ele>5.0</ele><time>2026-04-10T04:34:00.001Z</time></trkpt><trkpt lat="14.556655077015474" lon="121.00802987549164"><ele>5.0</ele><time>2026-04-10T04:34:01.001Z</time></trkpt><trkpt lat="14.556544235686824" lon="121.00808761985988"><ele>5.0</ele><time>2026-04-10T04:34:02.001Z</time></trkpt><trkpt lat="14.556438300653932" lon="121.00815137598718"><ele>5.0</ele><time>2026-04-10T04:34:03.001Z</time></trkpt><trkpt lat="14.556332684399868" lon="121.00821147906592"><ele>5.0</ele><time>2026-04-10T04:34:04.001Z</time></trkpt><trkpt lat="14.556231798563447" lon="121.00825966912424"><ele>5.5</ele><time>2026-04-10T04:34:05.001Z</time></trkpt><trkpt lat="14.55612844470455" lon="121.00831871953245"><ele>6.0</ele><time>2026-04-10T04:34:06.001Z</time></trkpt><trkpt lat="14.556023472228496" lon="121.0083755039759"><ele>6.5</ele><time>2026-04-10T04:34:07.001Z</time></trkpt><trkpt lat="14.555913760080845" lon="121.0084337034518"><ele>7.0</ele><time>2026-04-10T04:34:08.001Z</time></trkpt><trkpt lat="14.555795655994563" lon="121.00849215471014"><ele>7.25</ele><time>2026-04-10T04:34:09.001Z</time></trkpt><trkpt lat="14.555688530685483" lon="121.00855533275336"><ele>7.5</ele><time>2026-04-10T04:34:10.001Z</time></trkpt><trkpt lat="14.555578303818969" lon="121.00862065026097"><ele>7.75</ele><time>2026-04-10T04:34:11.001Z</time></trkpt><trkpt lat="14.55547929308296" lon="121.00867442504352"><ele>8.0</ele><time>2026-04-10T04:34:12.001Z</time></trkpt><trkpt lat="14.555371303590336" lon="121.00872856958463"><ele>7.25</ele><time>2026-04-10T04:34:13.001Z</time></trkpt><trkpt lat="14.555274147672995" lon="121.00878587985417"><ele>6.5</ele><time>2026-04-10T04:34:14.001Z</time></trkpt><trkpt lat="14.555167678072912" lon="121.00885466950727"><ele>5.75</ele><time>2026-04-10T04:34:15.001Z</time></trkpt><trkpt lat="14.55506536786061" lon="121.00890681388593"><ele>5.0</ele><time>2026-04-10T04:34:16.001Z</time></trkpt><trkpt lat="14.55496449758213" lon="121.00895836677401"><ele>5.0</ele><time>2026-04-10T04:34:17.001Z</time></trkpt><trkpt lat="14.554867844401773" lon="121.0090110578051"><ele>5.0</ele><time>2026-04-10T04:34:18.001Z</time></trkpt><trkpt lat="14.554771659191925" lon="121.00905154464778"><ele>5.0</ele><time>2026-04-10T04:34:19.001Z</time></trkpt><trkpt lat="14.554665064619481" lon="121.00911181805017"><ele>5.0</ele><time>2026-04-10T04:34:20.001Z</time></trkpt><trkpt lat="14.554554414774975" lon="121.00917042799512"><ele>5.5</ele><time>2026-04-10T04:34:21.001Z</time></trkpt><trkpt lat="14.55443767194959" lon="121.00924649411411"><ele>6.0</ele><time>2026-04-10T04:34:22.001Z</time></trkpt><trkpt lat="14.554307162604779" lon="121.00932017813967"><ele>6.5</ele><time>2026-04-10T04:34:23.001Z</time></trkpt><trkpt lat="14.554170326901676" lon="121.00940433716178"><ele>7.0</ele><time>2026-04-10T04:34:24.001Z</time></trkpt><trkpt lat="14.554019887663372" lon="121.00949079862816"><ele>7.0</ele><time>2026-04-10T04:34:25.001Z</time></trkpt><trkpt lat="14.553877488231658" lon="121.00957074894076"><ele>7.0</ele><time>2026-04-10T04:34:26.001Z</time></trkpt><trkpt lat="14.55373551522518" lon="121.00964808846719"><ele>7.0</ele><time>2026-04-10T04:34:27.001Z</time></trkpt><trkpt lat="14.55358779035303" lon="121.00973195845457"><ele>7.0</ele><time>2026-04-10T04:34:28.001Z</time></trkpt><trkpt lat="14.55343956501612" lon="121.00981473898572"><ele>7.0</ele><time>2026-04-10T04:34:29.001Z</time></trkpt><trkpt lat="14.553293143114889" lon="121.00990457797181"><ele>7.0</ele><time>2026-04-10T04:34:30.001Z</time></trkpt><trkpt lat="14.553138238292263" lon="121.01000134703766"><ele>7.0</ele><time>2026-04-10T04:34:31.001Z</time></trkpt><trkpt lat="14.553003114344763" lon="121.01008883808485"><ele>7.0</ele><time>2026-04-10T04:34:32.001Z</time></trkpt><trkpt lat="14.55287821417481" lon="121.01016794936967"><ele>7.0</ele><time>2026-04-10T04:34:33.001Z</time></trkpt><trkpt lat="14.552759206707783" lon="121.0102228536615"><ele>7.0</ele><time>2026-04-10T04:34:34.001Z</time></trkpt><trkpt lat="14.552636569952599" lon="121.01026610493045"><ele>7.0</ele><time>2026-04-10T04:34:35.001Z</time></trkpt><trkpt lat="14.552513932406457" lon="121.01032221719619"><ele>7.0</ele><time>2026-04-10T04:34:36.001Z</time></trkpt><trkpt lat="14.552395918834923" lon="121.01037890552341"><ele>7.0</ele><time>2026-04-10T04:34:37.001Z</time></trkpt><trkpt lat="14.552243770875442" lon="121.01046057070249"><ele>7.0</ele><time>2026-04-10T04:34:38.001Z</time></trkpt><trkpt lat="14.552121898397234" lon="121.01052873088213"><ele>7.25</ele><time>2026-04-10T04:34:39.001Z</time></trkpt><trkpt lat="14.551993423213576" lon="121.01059314192653"><ele>7.5</ele><time>2026-04-10T04:34:40.001Z</time></trkpt><trkpt lat="14.551874727004327" lon="121.01066387138657"><ele>7.75</ele><time>2026-04-10T04:34:41.001Z</time></trkpt><trkpt lat="14.551760121094008" lon="121.0107185988503"><ele>8.0</ele><time>2026-04-10T04:34:42.001Z</time></trkpt><trkpt lat="14.551671945078889" lon="121.01076508060352"><ele>7.999999999999999</ele><time>2026-04-10T04:34:43.001Z</time></trkpt><trkpt lat="14.551598959831583" lon="121.01083082378794"><ele>8.0</ele><time>2026-04-10T04:34:44.001Z</time></trkpt><trkpt lat="14.551547775147387" lon="121.01087124986469"><ele>8.0</ele><time>2026-04-10T04:34:45.001Z</time></trkpt><trkpt lat="14.55147357821532" lon="121.01087540128138"><ele>8.0</ele><time>2026-04-10T04:34:49.001Z</time></trkpt><trkpt lat="14.551409272063928" lon="121.01085870372638"><ele>7.999999999999999</ele><time>2026-04-10T04:34:57.001Z</time></trkpt><trkpt lat="14.551352877743192" lon="121.01080936704366"><ele>8.0</ele><time>2026-04-10T04:35:04.001Z</time></trkpt><trkpt lat="14.551306771673913" lon="121.01071106889098"><ele>7.999999999999999</ele><time>2026-04-10T04:36:06.001Z</time></trkpt><trkpt lat="14.551259998943603" lon="121.01063579842507"><ele>8.0</ele><time>2026-04-10T04:36:08.001Z</time></trkpt><trkpt lat="14.551205089895202" lon="121.01058383502811"><ele>8.0</ele><time>2026-04-10T04:36:09.001Z</time></trkpt><trkpt lat="14.551154024761441" lon="121.01051692314867"><ele>8.0</ele><time>2026-04-10T04:36:10.001Z</time></trkpt><trkpt lat="14.551132922209293" lon="121.0104344364141"><ele>7.999999999999999</ele><time>2026-04-10T04:36:11.001Z</time></trkpt><trkpt lat="14.551107063146393" lon="121.01033670841808"><ele>8.0</ele><time>2026-04-10T04:36:12.001Z</time></trkpt><trkpt lat="14.551077774990103" lon="121.01022424763974"><ele>8.0</ele><time>2026-04-10T04:36:13.001Z</time></trkpt><trkpt lat="14.551042974402423" lon="121.01009040466568"><ele>8.0</ele><time>2026-04-10T04:36:14.001Z</time></trkpt><trkpt lat="14.551009365752222" lon="121.00996114587487"><ele>8.0</ele><time>2026-04-10T04:36:15.001Z</time></trkpt><trkpt lat="14.550457119572023" lon="121.0112726235585"><ele>8.0</ele><time>2026-04-10T04:36:16.001Z</time></trkpt><trkpt lat="14.550327235754773" lon="121.01136226042351"><ele>8.0</ele><time>2026-04-10T04:36:17.001Z</time></trkpt><trkpt lat="14.550187556719482" lon="121.01143726161722"><ele>8.0</ele><time>2026-04-10T04:36:18.001Z</time></trkpt><trkpt lat="14.550049099173728" lon="121.01152816792433"><ele>8.0</ele><time>2026-04-10T04:36:19.001Z</time></trkpt><trkpt lat="14.549897885718872" lon="121.01161325044298"><ele>8.0</ele><time>2026-04-10T04:36:20.001Z</time></trkpt><trkpt lat="14.549716498782528" lon="121.01171168845437"><ele>8.0</ele><time>2026-04-10T04:36:21.001Z</time></trkpt><trkpt lat="14.549551182421853" lon="121.01181071913312"><ele>8.666666666666666</ele><time>2026-04-10T04:36:22.001Z</time></trkpt><trkpt lat="14.549368569859235" lon="121.0119213682011"><ele>9.333333333333334</ele><time>2026-04-10T04:36:23.001Z</time></trkpt><trkpt lat="14.549182945933312" lon="121.0120333118304"><ele>10.0</ele><time>2026-04-10T04:36:24.001Z</time></trkpt><trkpt lat="14.548995984679031" lon="121.01213110168959"><ele>10.0</ele><time>2026-04-10T04:36:25.001Z</time></trkpt><trkpt lat="14.548815669653363" lon="121.01223116680663"><ele>10.0</ele><time>2026-04-10T04:36:26.001Z</time></trkpt><trkpt lat="14.548639035117485" lon="121.01232314477208"><ele>10.0</ele><time>2026-04-10T04:36:27.001Z</time></trkpt><trkpt lat="14.548472756878347" lon="121.012420300498"><ele>9.0</ele><time>2026-04-10T04:36:28.001Z</time></trkpt><trkpt lat="14.54827417609029" lon="121.01254461284573"><ele>8.0</ele><time>2026-04-10T04:36:29.001Z</time></trkpt><trkpt lat="14.548079129397856" lon="121.01265759832495"><ele>8.333333333333332</ele><time>2026-04-10T04:36:30.001Z</time></trkpt><trkpt lat="14.547871471410037" lon="121.01276024567363"><ele>8.666666666666666</ele><time>2026-04-10T04:36:31.001Z</time></trkpt><trkpt lat="14.547685654262802" lon="121.01285827678818"><ele>9.0</ele><time>2026-04-10T04:36:32.001Z</time></trkpt><trkpt lat="14.547491557650298" lon="121.01295918653065"><ele>9.0</ele><time>2026-04-10T04:36:33.001Z</time></trkpt><trkpt lat="14.547307984010486" lon="121.0130326107616"><ele>9.0</ele><time>2026-04-10T04:36:34.001Z</time></trkpt><trkpt lat="14.547143571306421" lon="121.01309095620836"><ele>9.0</ele><time>2026-04-10T04:36:35.001Z</time></trkpt><trkpt lat="14.54682983921949" lon="121.0131736623083"><ele>11.0</ele><time>2026-04-10T04:36:36.001Z</time></trkpt><trkpt lat="14.546605182167717" lon="121.01332751545357"><ele>13.0</ele><time>2026-04-10T04:36:37.001Z</time></trkpt><trkpt lat="14.54638770718283" lon="121.01344100326732"><ele>11.5</ele><time>2026-04-10T04:36:38.001Z</time></trkpt><trkpt lat="14.546149937141486" lon="121.01356252561845"><ele>10.0</ele><time>2026-04-10T04:36:39.001Z</time></trkpt><trkpt lat="14.545971410647686" lon="121.01366690281401"><ele>10.0</ele><time>2026-04-10T04:36:40.001Z</time></trkpt><trkpt lat="14.545781449923007" lon="121.01380125483502"><ele>10.0</ele><time>2026-04-10T04:36:41.001Z</time></trkpt><trkpt lat="14.54562492850695" lon="121.0139013979965"><ele>10.0</ele><time>2026-04-10T04:36:42.001Z</time></trkpt><trkpt lat="14.545383476370235" lon="121.01402076676102"><ele>11.0</ele><time>2026-04-10T04:36:43.001Z</time></trkpt><trkpt lat="14.545157366623835" lon="121.01412803276044"><ele>12.0</ele><time>2026-04-10T04:36:44.001Z</time></trkpt><trkpt lat="14.544938471738138" lon="121.01425718824659"><ele>12.0</ele><time>2026-04-10T04:36:45.001Z</time></trkpt><trkpt lat="14.544721683520121" lon="121.01438286356175"><ele>12.0</ele><time>2026-04-10T04:36:46.001Z</time></trkpt><trkpt lat="14.54449486558751" lon="121.01451278233779"><ele>12.0</ele><time>2026-04-10T04:36:47.001Z</time></trkpt><trkpt lat="14.54429889501526" lon="121.01462474463086"><ele>12.0</ele><time>2026-04-10T04:36:48.001Z</time></trkpt><trkpt lat="14.544107889832834" lon="121.01475508541924"><ele>12.0</ele><time>2026-04-10T04:36:49.001Z</time></trkpt><trkpt lat="14.543904776348864" lon="121.01488425333943"><ele>12.0</ele><time>2026-04-10T04:36:50.001Z</time></trkpt><trkpt lat="14.543692143994033" lon="121.0149884948185"><ele>12.0</ele><time>2026-04-10T04:36:51.001Z</time></trkpt><trkpt lat="14.543512839646251" lon="121.01511156413014"><ele>12.0</ele><time>2026-04-10T04:36:52.001Z</time></trkpt><trkpt lat="14.54332403689905" lon="121.01522125362818"><ele>12.0</ele><time>2026-04-10T04:36:53.001Z</time></trkpt><trkpt lat="14.543129785025004" lon="121.01532425385639"><ele>12.0</ele><time>2026-04-10T04:36:54.001Z</time></trkpt><trkpt lat="14.542924827782" lon="121.01542061774403"><ele>12.0</ele><time>2026-04-10T04:36:55.001Z</time></trkpt><trkpt lat="14.542723560080931" lon="121.01552697126091"><ele>14.5</ele><time>2026-04-10T04:36:56.001Z</time></trkpt><trkpt lat="14.542522019163615" lon="121.01563833052772"><ele>17.0</ele><time>2026-04-10T04:36:57.001Z</time></trkpt><trkpt lat="14.542316549326117" lon="121.0157522298725"><ele>15.0</ele><time>2026-04-10T04:36:58.001Z</time></trkpt><trkpt lat="14.54212201373993" lon="121.01584791110265"><ele>13.0</ele><time>2026-04-10T04:36:59.001Z</time></trkpt><trkpt lat="14.541925243117348" lon="121.01594462523693"><ele>11.0</ele><time>2026-04-10T04:37:00.001Z</time></trkpt><trkpt lat="14.541731311832352" lon="121.0160241053237"><ele>11.0</ele><time>2026-04-10T04:37:01.001Z</time></trkpt><trkpt lat="14.541530226641953" lon="121.01610301407409"><ele>11.0</ele><time>2026-04-10T04:37:02.001Z</time></trkpt><trkpt lat="14.541325441277777" lon="121.01615617283689"><ele>11.0</ele><time>2026-04-10T04:37:03.001Z</time></trkpt><trkpt lat="14.541136899265348" lon="121.01620102737337"><ele>11.333333333333332</ele><time>2026-04-10T04:37:04.001Z</time></trkpt><trkpt lat="14.540954672626428" lon="121.0162584220671"><ele>11.666666666666666</ele><time>2026-04-10T04:37:05.001Z</time></trkpt><trkpt lat="14.54076887757274" lon="121.01631940049876"><ele>12.0</ele><time>2026-04-10T04:37:06.001Z</time></trkpt><trkpt lat="14.540599711276021" lon="121.01638554662865"><ele>12.0</ele><time>2026-04-10T04:37:07.001Z</time></trkpt><trkpt lat="14.540444975262364" lon="121.01646594478893"><ele>12.0</ele><time>2026-04-10T04:37:08.001Z</time></trkpt><trkpt lat="14.540286656714112" lon="121.01655469887454"><ele>12.0</ele><time>2026-04-10T04:37:09.001Z</time></trkpt><trkpt lat="14.540135417478245" lon="121.01664489671869"><ele>11.666666666666666</ele><time>2026-04-10T04:37:10.001Z</time></trkpt><trkpt lat="14.53998676995458" lon="121.01673411429967"><ele>11.333333333333332</ele><time>2026-04-10T04:37:11.001Z</time></trkpt><trkpt lat="14.539829682032252" lon="121.0168063217473"><ele>11.0</ele><time>2026-04-10T04:37:12.001Z</time></trkpt><trkpt lat="14.539713354218199" lon="121.01692240744946"><ele>11.0</ele><time>2026-04-10T04:37:13.001Z</time></trkpt><trkpt lat="14.539570650384528" lon="121.01703572211927"><ele>11.0</ele><time>2026-04-10T04:37:14.001Z</time></trkpt><trkpt lat="14.539436741239966" lon="121.01715049254463"><ele>11.0</ele><time>2026-04-10T04:37:15.001Z</time></trkpt><trkpt lat="14.539313827901276" lon="121.01725885398352"><ele>10.75</ele><time>2026-04-10T04:37:16.001Z</time></trkpt><trkpt lat="14.539200131787533" lon="121.01736754583881"><ele>10.5</ele><time>2026-04-10T04:37:17.001Z</time></trkpt><trkpt lat="14.53908552981213" lon="121.0174625804029"><ele>10.25</ele><time>2026-04-10T04:37:18.001Z</time></trkpt><trkpt lat="14.53898300549098" lon="121.01753499110447"><ele>10.0</ele><time>2026-04-10T04:37:19.001Z</time></trkpt><trkpt lat="14.538860701509543" lon="121.01760523247204"><ele>10.0</ele><time>2026-04-10T04:37:20.001Z</time></trkpt><trkpt lat="14.538751611480599" lon="121.01767360369583"><ele>10.0</ele><time>2026-04-10T04:37:21.001Z</time></trkpt><trkpt lat="14.53863178768331" lon="121.01773381231868"><ele>10.0</ele><time>2026-04-10T04:37:22.001Z</time></trkpt><trkpt lat="14.538499527270893" lon="121.01779627427516"><ele>10.0</ele><time>2026-04-10T04:37:23.001Z</time></trkpt><trkpt lat="14.538376061181362" lon="121.0178613740108"><ele>10.25</ele><time>2026-04-10T04:37:24.001Z</time></trkpt><trkpt lat="14.538251411542916" lon="121.01792391448119"><ele>10.5</ele><time>2026-04-10T04:37:25.001Z</time></trkpt><trkpt lat="14.53813028274312" lon="121.01798958642252"><ele>10.75</ele><time>2026-04-10T04:37:26.001Z</time></trkpt><trkpt lat="14.538006374650791" lon="121.0180572207791"><ele>11.0</ele><time>2026-04-10T04:37:27.001Z</time></trkpt><trkpt lat="14.53788203244638" lon="121.01812211008007"><ele>11.0</ele><time>2026-04-10T04:37:28.001Z</time></trkpt><trkpt lat="14.53775605069183" lon="121.01819440062351"><ele>11.0</ele><time>2026-04-10T04:37:29.001Z</time></trkpt><trkpt lat="14.537634153966449" lon="121.01828033762102"><ele>11.0</ele><time>2026-04-10T04:37:30.001Z</time></trkpt><trkpt lat="14.537508654462973" lon="121.01835317753314"><ele>11.0</ele><time>2026-04-10T04:37:31.001Z</time></trkpt><trkpt lat="14.53738172861895" lon="121.0184184906457"><ele>11.0</ele><time>2026-04-10T04:37:32.001Z</time></trkpt><trkpt lat="14.537260756738398" lon="121.0184861505228"><ele>11.0</ele><time>2026-04-10T04:37:33.001Z</time></trkpt><trkpt lat="14.53713851681495" lon="121.0185576929133"><ele>11.0</ele><time>2026-04-10T04:37:34.001Z</time></trkpt><trkpt lat="14.53701101242405" lon="121.01862855732814"><ele>11.0</ele><time>2026-04-10T04:37:35.001Z</time></trkpt><trkpt lat="14.53687780750739" lon="121.0187015410562"><ele>11.0</ele><time>2026-04-10T04:37:36.001Z</time></trkpt><trkpt lat="14.536743161338666" lon="121.01877579714473"><ele>11.0</ele><time>2026-04-10T04:37:37.001Z</time></trkpt><trkpt lat="14.536604120391589" lon="121.0188508459843"><ele>11.0</ele><time>2026-04-10T04:37:38.001Z</time></trkpt><trkpt lat="14.53646395840715" lon="121.01892861220023"><ele>11.0</ele><time>2026-04-10T04:37:39.001Z</time></trkpt><trkpt lat="14.536319824581836" lon="121.01900856023934"><ele>11.0</ele><time>2026-04-10T04:37:40.001Z</time></trkpt><trkpt lat="14.536169521087656" lon="121.01908979319748"><ele>11.0</ele><time>2026-04-10T04:37:41.001Z</time></trkpt><trkpt lat="14.536013689119667" lon="121.01917846045966"><ele>12.333333333333332</ele><time>2026-04-10T04:37:42.001Z</time></trkpt><trkpt lat="14.535860400961429" lon="121.01926892562908"><ele>13.666666666666666</ele><time>2026-04-10T04:37:43.001Z</time></trkpt><trkpt lat="14.535698641165759" lon="121.01935239505076"><ele>15.0</ele><time>2026-04-10T04:37:44.001Z</time></trkpt><trkpt lat="14.535525192862234" lon="121.01944045323182"><ele>14.333333333333332</ele><time>2026-04-10T04:37:45.001Z</time></trkpt><trkpt lat="14.53534548138124" lon="121.01953751720667"><ele>13.666666666666666</ele><time>2026-04-10T04:37:46.001Z</time></trkpt><trkpt lat="14.535163843709027" lon="121.01963614424825"><ele>13.0</ele><time>2026-04-10T04:37:47.001Z</time></trkpt><trkpt lat="14.534977286526395" lon="121.01973759025594"><ele>13.0</ele><time>2026-04-10T04:37:48.001Z</time></trkpt><trkpt lat="14.534786195438208" lon="121.01983942157138"><ele>13.0</ele><time>2026-04-10T04:37:49.001Z</time></trkpt><trkpt lat="14.534594906921516" lon="121.01993466069617"><ele>13.0</ele><time>2026-04-10T04:37:50.001Z</time></trkpt><trkpt lat="14.53439939680655" lon="121.02002194805186"><ele>14.0</ele><time>2026-04-10T04:37:51.001Z</time></trkpt><trkpt lat="14.534203635866632" lon="121.02012690940536"><ele>15.0</ele><time>2026-04-10T04:37:52.001Z</time></trkpt><trkpt lat="14.534004149973873" lon="121.02023294414779"><ele>16.0</ele><time>2026-04-10T04:37:53.001Z</time></trkpt><trkpt lat="14.533806041518899" lon="121.0203448273073"><ele>16.5</ele><time>2026-04-10T04:37:54.001Z</time></trkpt><trkpt lat="14.533609012028878" lon="121.0204527165641"><ele>17.0</ele><time>2026-04-10T04:37:55.001Z</time></trkpt><trkpt lat="14.533410236793763" lon="121.02056617591788"><ele>17.0</ele><time>2026-04-10T04:37:56.001Z</time></trkpt><trkpt lat="14.533207741282853" lon="121.02067543687575"><ele>17.0</ele><time>2026-04-10T04:37:57.001Z</time></trkpt><trkpt lat="14.533008865167783" lon="121.02078505908759"><ele>15.333333333333334</ele><time>2026-04-10T04:37:58.001Z</time></trkpt><trkpt lat="14.532821842613398" lon="121.02089330702128"><ele>13.666666666666668</ele><time>2026-04-10T04:37:59.001Z</time></trkpt><trkpt lat="14.53263706903529" lon="121.02099636490158"><ele>12.0</ele><time>2026-04-10T04:38:00.001Z</time></trkpt><trkpt lat="14.532452378521219" lon="121.02109536141867"><ele>12.0</ele><time>2026-04-10T04:38:01.001Z</time></trkpt><trkpt lat="14.532271693305267" lon="121.02119224446915"><ele>12.0</ele><time>2026-04-10T04:38:02.001Z</time></trkpt><trkpt lat="14.532097348195514" lon="121.02128251623556"><ele>12.0</ele><time>2026-04-10T04:38:03.001Z</time></trkpt><trkpt lat="14.531918435228418" lon="121.02137849386509"><ele>12.0</ele><time>2026-04-10T04:38:04.001Z</time></trkpt><trkpt lat="14.531728415568795" lon="121.0214774808389"><ele>12.0</ele><time>2026-04-10T04:38:05.001Z</time></trkpt><trkpt lat="14.531539720142346" lon="121.02157211920837"><ele>12.0</ele><time>2026-04-10T04:38:06.001Z</time></trkpt><trkpt lat="14.531349568435424" lon="121.02168172427811"><ele>11.0</ele><time>2026-04-10T04:38:07.001Z</time></trkpt><trkpt lat="14.531165287334039" lon="121.02179418553223"><ele>10.0</ele><time>2026-04-10T04:38:08.001Z</time></trkpt><trkpt lat="14.53097620169741" lon="121.02189018722983"><ele>9.0</ele><time>2026-04-10T04:38:09.001Z</time></trkpt><trkpt lat="14.530797399103154" lon="121.02199400906748"><ele>9.0</ele><time>2026-04-10T04:38:10.001Z</time></trkpt><trkpt lat="14.530618777662811" lon="121.02208979958542"><ele>9.0</ele><time>2026-04-10T04:38:11.001Z</time></trkpt><trkpt lat="14.530431460688723" lon="121.02219355650145"><ele>9.0</ele><time>2026-04-10T04:38:12.001Z</time></trkpt><trkpt lat="14.530246709267573" lon="121.02229044068672"><ele>8.666666666666666</ele><time>2026-04-10T04:38:13.001Z</time></trkpt><trkpt lat="14.530078866213787" lon="121.02238470415162"><ele>8.333333333333332</ele><time>2026-04-10T04:38:14.001Z</time></trkpt><trkpt lat="14.52991643840067" lon="121.02247021938324"><ele>8.0</ele><time>2026-04-10T04:38:15.001Z</time></trkpt><trkpt lat="14.529753724716679" lon="121.02256152519301"><ele>8.666666666666666</ele><time>2026-04-10T04:38:16.001Z</time></trkpt><trkpt lat="14.529612914962737" lon="121.02262878911482"><ele>9.333333333333334</ele><time>2026-04-10T04:38:17.001Z</time></trkpt><trkpt lat="14.529475775793342" lon="121.02270416734581"><ele>10.0</ele><time>2026-04-10T04:38:18.001Z</time></trkpt><trkpt lat="14.529340596738908" lon="121.02277669283728"><ele>10.0</ele><time>2026-04-10T04:38:19.001Z</time></trkpt><trkpt lat="14.529204154759167" lon="121.02285651973034"><ele>10.0</ele><time>2026-04-10T04:38:20.001Z</time></trkpt><trkpt lat="14.529064003718364" lon="121.02292838025852"><ele>10.0</ele><time>2026-04-10T04:38:21.001Z</time></trkpt><trkpt lat="14.52892150313179" lon="121.02300306242238"><ele>10.0</ele><time>2026-04-10T04:38:22.001Z</time></trkpt><trkpt lat="14.528775818798717" lon="121.02307674458473"><ele>10.0</ele><time>2026-04-10T04:38:23.001Z</time></trkpt><trkpt lat="14.52862847825119" lon="121.02315848603759"><ele>10.0</ele><time>2026-04-10T04:38:24.001Z</time></trkpt><trkpt lat="14.528483280532159" lon="121.02323933533913"><ele>10.0</ele><time>2026-04-10T04:38:25.001Z</time></trkpt><trkpt lat="14.528344959606569" lon="121.02331250588544"><ele>10.0</ele><time>2026-04-10T04:38:26.001Z</time></trkpt><trkpt lat="14.528205067641363" lon="121.02337860053926"><ele>10.0</ele><time>2026-04-10T04:38:27.001Z</time></trkpt><trkpt lat="14.52807251573101" lon="121.02345168753489"><ele>10.0</ele><time>2026-04-10T04:38:28.001Z</time></trkpt><trkpt lat="14.527938405497565" lon="121.02352635251914"><ele>10.0</ele><time>2026-04-10T04:38:29.001Z</time></trkpt><trkpt lat="14.527803185348223" lon="121.02359396132175"><ele>10.0</ele><time>2026-04-10T04:38:30.001Z</time></trkpt><trkpt lat="14.527668224592935" lon="121.02365973513126"><ele>10.333333333333334</ele><time>2026-04-10T04:38:31.001Z</time></trkpt><trkpt lat="14.527536805598702" lon="121.0237360602885"><ele>10.666666666666666</ele><time>2026-04-10T04:38:32.001Z</time></trkpt><trkpt lat="14.52740055964843" lon="121.02381351455743"><ele>11.0</ele><time>2026-04-10T04:38:33.001Z</time></trkpt><trkpt lat="14.527250750144256" lon="121.02388810828802"><ele>11.0</ele><time>2026-04-10T04:38:34.001Z</time></trkpt><trkpt lat="14.527098110793728" lon="121.02396376155552"><ele>11.0</ele><time>2026-04-10T04:38:35.001Z</time></trkpt><trkpt lat="14.526945095791005" lon="121.02402126763283"><ele>11.0</ele><time>2026-04-10T04:38:36.001Z</time></trkpt><trkpt lat="14.526775396401463" lon="121.02412371791671"><ele>11.333333333333332</ele><time>2026-04-10T04:38:37.001Z</time></trkpt><trkpt lat="14.526604050056092" lon="121.02422603928797"><ele>11.666666666666666</ele><time>2026-04-10T04:38:38.001Z</time></trkpt><trkpt lat="14.526429009769709" lon="121.02432196502751"><ele>12.0</ele><time>2026-04-10T04:38:39.001Z</time></trkpt><trkpt lat="14.526253197799376" lon="121.02442380998824"><ele>10.333333333333334</ele><time>2026-04-10T04:38:40.001Z</time></trkpt><trkpt lat="14.526092528285844" lon="121.02451998574342"><ele>8.666666666666668</ele><time>2026-04-10T04:38:41.001Z</time></trkpt><trkpt lat="14.525914230816095" lon="121.02461066417769"><ele>7.0</ele><time>2026-04-10T04:38:42.001Z</time></trkpt><trkpt lat="14.52573990367665" lon="121.02470595766782"><ele>7.0</ele><time>2026-04-10T04:38:43.001Z</time></trkpt><trkpt lat="14.525578406362595" lon="121.02480046786744"><ele>7.0</ele><time>2026-04-10T04:38:44.001Z</time></trkpt><trkpt lat="14.525409236414008" lon="121.02488924618567"><ele>7.0</ele><time>2026-04-10T04:38:45.001Z</time></trkpt><trkpt lat="14.525239133520522" lon="121.02497772678551"><ele>8.333333333333334</ele><time>2026-04-10T04:38:46.001Z</time></trkpt><trkpt lat="14.525065122028678" lon="121.02506837365624"><ele>9.666666666666666</ele><time>2026-04-10T04:38:47.001Z</time></trkpt><trkpt lat="14.524895424254915" lon="121.02515572852165"><ele>11.0</ele><time>2026-04-10T04:38:48.001Z</time></trkpt><trkpt lat="14.52473589096056" lon="121.02523731634855"><ele>11.0</ele><time>2026-04-10T04:38:49.001Z</time></trkpt><trkpt lat="14.524591317255028" lon="121.0253129840393"><ele>11.0</ele><time>2026-04-10T04:38:50.001Z</time></trkpt><trkpt lat="14.524454258870898" lon="121.02538697126703"><ele>11.0</ele><time>2026-04-10T04:38:51.001Z</time></trkpt><trkpt lat="14.524320910049813" lon="121.0254540823046"><ele>12.0</ele><time>2026-04-10T04:38:52.001Z</time></trkpt><trkpt lat="14.52419651046311" lon="121.02551753065052"><ele>13.0</ele><time>2026-04-10T04:38:53.001Z</time></trkpt><trkpt lat="14.524084308747527" lon="121.02557448040598"><ele>14.0</ele><time>2026-04-10T04:38:54.001Z</time></trkpt><trkpt lat="14.523972444931735" lon="121.02563242482492"><ele>15.0</ele><time>2026-04-10T04:38:55.001Z</time></trkpt><trkpt lat="14.523850351042032" lon="121.02568340910875"><ele>15.0</ele><time>2026-04-10T04:38:56.001Z</time></trkpt><trkpt lat="14.523736972674222" lon="121.0256806369297"><ele>15.0</ele><time>2026-04-10T04:38:57.001Z</time></trkpt><trkpt lat="14.523641680073093" lon="121.02570407273593"><ele>15.0</ele><time>2026-04-10T04:38:58.001Z</time></trkpt><trkpt lat="14.523553066153875" lon="121.02574213454574"><ele>15.0</ele><time>2026-04-10T04:38:59.001Z</time></trkpt><trkpt lat="14.52347082527544" lon="121.02579401186574"><ele>15.0</ele><time>2026-04-10T04:39:00.001Z</time></trkpt><trkpt lat="14.523394804445843" lon="121.02583556239789"><ele>15.2</ele><time>2026-04-10T04:39:01.001Z</time></trkpt><trkpt lat="14.52332274501017" lon="121.02586011379513"><ele>15.4</ele><time>2026-04-10T04:39:02.001Z</time></trkpt><trkpt lat="14.523257326987691" lon="121.02584091199077"><ele>15.600000000000001</ele><time>2026-04-10T04:39:03.001Z</time></trkpt><trkpt lat="14.523177495006792" lon="121.02573161686428"><ele>15.8</ele><time>2026-04-10T04:39:05.001Z</time></trkpt><trkpt lat="14.523217381209374" lon="121.02560357901582"><ele>16.0</ele><time>2026-04-10T04:39:07.001Z</time></trkpt><trkpt lat="14.523297497113477" lon="121.02549615149204"><ele>15.857142857142856</ele><time>2026-04-10T04:39:09.001Z</time></trkpt><trkpt lat="14.523351602702574" lon="121.02544068736024"><ele>15.714285714285712</ele><time>2026-04-10T04:39:10.001Z</time></trkpt><trkpt lat="14.523401938379543" lon="121.02539498906178"><ele>15.571428571428571</ele><time>2026-04-10T04:39:11.001Z</time></trkpt><trkpt lat="14.523456589751131" lon="121.02536104992423"><ele>15.428571428571427</ele><time>2026-04-10T04:39:12.001Z</time></trkpt><trkpt lat="14.523519955071627" lon="121.02533577702587"><ele>15.285714285714285</ele><time>2026-04-10T04:39:13.001Z</time></trkpt><trkpt lat="14.523581195963416" lon="121.0253147549457"><ele>15.142857142857142</ele><time>2026-04-10T04:39:14.001Z</time></trkpt><trkpt lat="14.523677519716031" lon="121.02534298267008"><ele>15.0</ele><time>2026-04-10T04:39:16.001Z</time></trkpt><trkpt lat="14.52374642999518" lon="121.02539564994191"><ele>15.0</ele><time>2026-04-10T04:39:18.001Z</time></trkpt><trkpt lat="14.52380680224293" lon="121.02543128604192"><ele>15.0</ele><time>2026-04-10T04:39:20.001Z</time></trkpt><trkpt lat="14.523900665397708" lon="121.02549959255475"><ele>15.0</ele><time>2026-04-10T04:39:23.001Z</time></trkpt><trkpt lat="14.524005637053754" lon="121.02555850419506"><ele>15.0</ele><time>2026-04-10T04:39:25.001Z</time></trkpt><trkpt lat="14.524085711725105" lon="121.02561789353541"><ele>15.0</ele><time>2026-04-10T04:39:27.001Z</time></trkpt><trkpt lat="14.52417240894307" lon="121.02568711984156"><ele>15.0</ele><time>2026-04-10T04:39:29.001Z</time></trkpt><trkpt lat="14.524238547491814" lon="121.0257476245135"><ele>15.0</ele><time>2026-04-10T04:39:31.001Z</time></trkpt><trkpt lat="14.524294433791134" lon="121.0258003987057"><ele>15.0</ele><time>2026-04-10T04:39:33.001Z</time></trkpt><trkpt lat="14.524368390321793" lon="121.02585537391249"><ele>15.0</ele><time>2026-04-10T04:39:35.001Z</time></trkpt><trkpt lat="14.52441593313419" lon="121.02590661667833"><ele>15.0</ele><time>2026-04-10T04:39:37.001Z</time></trkpt><trkpt lat="14.524477953087171" lon="121.02596328306083"><ele>15.0</ele><time>2026-04-10T04:39:39.001Z</time></trkpt><trkpt lat="14.524552096387085" lon="121.02601096837267"><ele>14.666666666666666</ele><time>2026-04-10T04:39:41.001Z</time></trkpt><trkpt lat="14.524606363530161" lon="121.02607832359327"><ele>14.333333333333332</ele><time>2026-04-10T04:39:43.001Z</time></trkpt><trkpt lat="14.52466942288081" lon="121.02611681140432"><ele>14.0</ele><time>2026-04-10T04:39:45.001Z</time></trkpt><trkpt lat="14.52473721870284" lon="121.02615125339159"><ele>13.666666666666666</ele><time>2026-04-10T04:39:47.001Z</time></trkpt><trkpt lat="14.524822568095578" lon="121.02622273895939"><ele>13.333333333333332</ele><time>2026-04-10T04:39:49.001Z</time></trkpt><trkpt lat="14.524869693214596" lon="121.02627830735763"><ele>13.0</ele><time>2026-04-10T04:39:50.001Z</time></trkpt><trkpt lat="14.524921782206384" lon="121.02633671587118"><ele>12.999999999999998</ele><time>2026-04-10T04:39:51.001Z</time></trkpt><trkpt lat="14.524984713113728" lon="121.02638707733941"><ele>13.0</ele><time>2026-04-10T04:39:52.001Z</time></trkpt><trkpt lat="14.525027603364055" lon="121.02645901012525"><ele>13.0</ele><time>2026-04-10T04:39:53.001Z</time></trkpt><trkpt lat="14.52507788070767" lon="121.026521558523"><ele>13.0</ele><time>2026-04-10T04:39:54.001Z</time></trkpt><trkpt lat="14.52514432035903" lon="121.02656427522626"><ele>12.999999999999998</ele><time>2026-04-10T04:39:55.001Z</time></trkpt><trkpt lat="14.525195181279079" lon="121.02662708988228"><ele>13.0</ele><time>2026-04-10T04:39:56.001Z</time></trkpt><trkpt lat="14.525267376417027" lon="121.02671625287424"><ele>12.999999999999998</ele><time>2026-04-10T04:39:58.001Z</time></trkpt><trkpt lat="14.52532017700735" lon="121.02678163025837"><ele>13.0</ele><time>2026-04-10T04:39:59.001Z</time></trkpt><trkpt lat="14.525379497857669" lon="121.0268551902645"><ele>13.0</ele><time>2026-04-10T04:40:00.001Z</time></trkpt><trkpt lat="14.525433675426958" lon="121.02692273635287"><ele>13.0</ele><time>2026-04-10T04:40:01.001Z</time></trkpt><trkpt lat="14.525486123116158" lon="121.02698798098947"><ele>12.999999999999998</ele><time>2026-04-10T04:40:02.001Z</time></trkpt><trkpt lat="14.52553722088083" lon="121.02705127113141"><ele>13.0</ele><time>2026-04-10T04:40:03.001Z</time></trkpt><trkpt lat="14.525582337250492" lon="121.02710780763542"><ele>12.666666666666666</ele><time>2026-04-10T04:40:04.001Z</time></trkpt><trkpt lat="14.525626298754139" lon="121.02716322672218"><ele>12.333333333333332</ele><time>2026-04-10T04:40:05.001Z</time></trkpt><trkpt lat="14.525639859499046" lon="121.02723213322993"><ele>12.0</ele><time>2026-04-10T04:40:06.001Z</time></trkpt><trkpt lat="14.525721094168697" lon="121.02731628076396"><ele>11.666666666666666</ele><time>2026-04-10T04:40:08.001Z</time></trkpt><trkpt lat="14.525768190314801" lon="121.02736860078086"><ele>11.333333333333332</ele><time>2026-04-10T04:40:09.001Z</time></trkpt><trkpt lat="14.52582103112377" lon="121.02742676718374"><ele>11.0</ele><time>2026-04-10T04:40:10.001Z</time></trkpt><trkpt lat="14.525887060809476" lon="121.02748880781684"><ele>11.0</ele><time>2026-04-10T04:40:11.001Z</time></trkpt><trkpt lat="14.525956602813523" lon="121.02756270847378"><ele>11.0</ele><time>2026-04-10T04:40:12.001Z</time></trkpt><trkpt lat="14.526033360574774" lon="121.0276473613484"><ele>11.0</ele><time>2026-04-10T04:40:13.001Z</time></trkpt><trkpt lat="14.526116402332054" lon="121.02773796218503"><ele>11.0</ele><time>2026-04-10T04:40:14.001Z</time></trkpt><trkpt lat="14.52620124980555" lon="121.02783168854737"><ele>11.75</ele><time>2026-04-10T04:40:15.001Z</time></trkpt><trkpt lat="14.526289549623714" lon="121.02793229082434"><ele>12.5</ele><time>2026-04-10T04:40:16.001Z</time></trkpt><trkpt lat="14.526378258776166" lon="121.0280378116761"><ele>13.25</ele><time>2026-04-10T04:40:17.001Z</time></trkpt><trkpt lat="14.526469924494709" lon="121.02814554857454"><ele>14.0</ele><time>2026-04-10T04:40:18.001Z</time></trkpt><trkpt lat="14.526583919890728" lon="121.02824138492278"><ele>14.5</ele><time>2026-04-10T04:40:19.001Z</time></trkpt><trkpt lat="14.526679005853518" lon="121.02835532378755"><ele>15.0</ele><time>2026-04-10T04:40:20.001Z</time></trkpt><trkpt lat="14.526764035407897" lon="121.02848079677278"><ele>15.5</ele><time>2026-04-10T04:40:21.001Z</time></trkpt><trkpt lat="14.526840317043527" lon="121.02861839593471"><ele>16.0</ele><time>2026-04-10T04:40:22.001Z</time></trkpt><trkpt lat="14.526912533165897" lon="121.028766431753"><ele>16.0</ele><time>2026-04-10T04:40:23.001Z</time></trkpt><trkpt lat="14.526979631266402" lon="121.02892201271287"><ele>16.0</ele><time>2026-04-10T04:40:24.001Z</time></trkpt><trkpt lat="14.527039201647288" lon="121.02906831307232"><ele>16.0</ele><time>2026-04-10T04:40:25.001Z</time></trkpt><trkpt lat="14.527096188042725" lon="121.02919997945601"><ele>17.25</ele><time>2026-04-10T04:40:26.001Z</time></trkpt><trkpt lat="14.527150661709582" lon="121.02932723340744"><ele>18.5</ele><time>2026-04-10T04:40:27.001Z</time></trkpt><trkpt lat="14.52720365570261" lon="121.02944600642101"><ele>19.75</ele><time>2026-04-10T04:40:28.001Z</time></trkpt><trkpt lat="14.527247061726353" lon="121.02955582037657"><ele>21.0</ele><time>2026-04-10T04:40:29.001Z</time></trkpt><trkpt lat="14.527286038245167" lon="121.02965612209937"><ele>21.0</ele><time>2026-04-10T04:40:30.001Z</time></trkpt><trkpt lat="14.527323702366111" lon="121.02974761384527"><ele>21.0</ele><time>2026-04-10T04:40:31.001Z</time></trkpt><trkpt lat="14.527356652363313" lon="121.02983050449622"><ele>21.0</ele><time>2026-04-10T04:40:32.001Z</time></trkpt><trkpt lat="14.52738600795413" lon="121.02990456919045"><ele>21.0</ele><time>2026-04-10T04:40:33.001Z</time></trkpt><trkpt lat="14.527412552526682" lon="121.02997599722671"><ele>21.0</ele><time>2026-04-10T04:40:34.001Z</time></trkpt><trkpt lat="14.527442606403282" lon="121.03004822504785"><ele>21.0</ele><time>2026-04-10T04:40:35.001Z</time></trkpt><trkpt lat="14.527470358970918" lon="121.03011652727592"><ele>21.333333333333332</ele><time>2026-04-10T04:40:36.001Z</time></trkpt><trkpt lat="14.527497488527676" lon="121.03018451029419"><ele>21.666666666666668</ele><time>2026-04-10T04:40:37.001Z</time></trkpt><trkpt lat="14.527523331891262" lon="121.03025101197774"><ele>22.0</ele><time>2026-04-10T04:40:38.001Z</time></trkpt><trkpt lat="14.527549601373144" lon="121.03031535093413"><ele>22.333333333333336</ele><time>2026-04-10T04:40:39.001Z</time></trkpt><trkpt lat="14.527592412932313" lon="121.03042323722045"><ele>22.666666666666668</ele><time>2026-04-10T04:40:41.001Z</time></trkpt><trkpt lat="14.527622915316805" lon="121.0304943398498"><ele>23.0</ele><time>2026-04-10T04:40:43.001Z</time></trkpt><trkpt lat="14.527658355728688" lon="121.03056841096954"><ele>23.0</ele><time>2026-04-10T04:40:45.001Z</time></trkpt><trkpt lat="14.527692762788602" lon="121.03063266174321"><ele>23.0</ele><time>2026-04-10T04:40:46.001Z</time></trkpt><trkpt lat="14.527725128341274" lon="121.03072125627777"><ele>23.0</ele><time>2026-04-10T04:40:47.001Z</time></trkpt><trkpt lat="14.52776499520548" lon="121.03082322439514"><ele>23.0</ele><time>2026-04-10T04:40:48.001Z</time></trkpt><trkpt lat="14.527805950047558" lon="121.03091969217442"><ele>23.0</ele><time>2026-04-10T04:40:49.001Z</time></trkpt><trkpt lat="14.527856491177198" lon="121.03102585382763"><ele>22.0</ele><time>2026-04-10T04:40:50.001Z</time></trkpt><trkpt lat="14.527923179045718" lon="121.03114204920948"><ele>21.0</ele><time>2026-04-10T04:40:51.001Z</time></trkpt><trkpt lat="14.527989313406632" lon="121.03126429213017"><ele>20.0</ele><time>2026-04-10T04:40:52.001Z</time></trkpt><trkpt lat="14.528063397242603" lon="121.03138440604974"><ele>19.0</ele><time>2026-04-10T04:40:53.001Z</time></trkpt><trkpt lat="14.528144217297978" lon="121.03150892230586"><ele>20.333333333333332</ele><time>2026-04-10T04:40:54.001Z</time></trkpt><trkpt lat="14.528226602944477" lon="121.03164037224215"><ele>21.666666666666668</ele><time>2026-04-10T04:40:55.001Z</time></trkpt><trkpt lat="14.52830860299685" lon="121.03177008815126"><ele>23.0</ele><time>2026-04-10T04:40:56.001Z</time></trkpt><trkpt lat="14.528394313460824" lon="121.03189920751191"><ele>23.0</ele><time>2026-04-10T04:40:57.001Z</time></trkpt><trkpt lat="14.528479649394423" lon="121.03202592594694"><ele>23.0</ele><time>2026-04-10T04:40:58.001Z</time></trkpt><trkpt lat="14.528567251677256" lon="121.03215438014114"><ele>23.0</ele><time>2026-04-10T04:40:59.001Z</time></trkpt><trkpt lat="14.528651972080992" lon="121.03228013275876"><ele>23.0</ele><time>2026-04-10T04:41:00.001Z</time></trkpt><trkpt lat="14.528740990287947" lon="121.03240335396413"><ele>23.0</ele><time>2026-04-10T04:41:01.001Z</time></trkpt><trkpt lat="14.52883951787035" lon="121.03251148973449"><ele>23.0</ele><time>2026-04-10T04:41:02.001Z</time></trkpt><trkpt lat="14.528946375572083" lon="121.03260852006068"><ele>23.0</ele><time>2026-04-10T04:41:03.001Z</time></trkpt><trkpt lat="14.529057815937387" lon="121.03269065264425"><ele>23.0</ele><time>2026-04-10T04:41:04.001Z</time></trkpt><trkpt lat="14.529179830707994" lon="121.03276965879733"><ele>23.0</ele><time>2026-04-10T04:41:05.001Z</time></trkpt><trkpt lat="14.529311354937487" lon="121.03283725763707"><ele>23.0</ele><time>2026-04-10T04:41:06.001Z</time></trkpt><trkpt lat="14.529450005486822" lon="121.03290399934342"><ele>23.0</ele><time>2026-04-10T04:41:07.001Z</time></trkpt><trkpt lat="14.529592942987275" lon="121.03297047754063"><ele>23.0</ele><time>2026-04-10T04:41:08.001Z</time></trkpt><trkpt lat="14.52973837393027" lon="121.03303716834561"><ele>23.0</ele><time>2026-04-10T04:41:09.001Z</time></trkpt><trkpt lat="14.529882885773583" lon="121.0331063102953"><ele>23.0</ele><time>2026-04-10T04:41:10.001Z</time></trkpt><trkpt lat="14.530026273793395" lon="121.03317628414317"><ele>23.0</ele><time>2026-04-10T04:41:11.001Z</time></trkpt><trkpt lat="14.530171487552899" lon="121.0332491827164"><ele>23.0</ele><time>2026-04-10T04:41:12.001Z</time></trkpt><trkpt lat="14.530311848296087" lon="121.03332767999572"><ele>23.0</ele><time>2026-04-10T04:41:13.001Z</time></trkpt><trkpt lat="14.530444065093597" lon="121.03342247554626"><ele>23.666666666666668</ele><time>2026-04-10T04:41:14.001Z</time></trkpt><trkpt lat="14.530572581166991" lon="121.03352869369023"><ele>24.333333333333336</ele><time>2026-04-10T04:41:15.001Z</time></trkpt><trkpt lat="14.53069879894461" lon="121.03364204831922"><ele>25.0</ele><time>2026-04-10T04:41:16.001Z</time></trkpt><trkpt lat="14.530833725749643" lon="121.0337672195231"><ele>25.0</ele><time>2026-04-10T04:41:17.001Z</time></trkpt><trkpt lat="14.53096161297157" lon="121.03389832983864"><ele>25.0</ele><time>2026-04-10T04:41:18.001Z</time></trkpt><trkpt lat="14.531094020776617" lon="121.03403656043491"><ele>25.0</ele><time>2026-04-10T04:41:19.001Z</time></trkpt><trkpt lat="14.531231721433468" lon="121.03417824422094"><ele>25.333333333333336</ele><time>2026-04-10T04:41:20.001Z</time></trkpt><trkpt lat="14.531366748209463" lon="121.03432258399766"><ele>25.666666666666664</ele><time>2026-04-10T04:41:21.001Z</time></trkpt><trkpt lat="14.531497660507492" lon="121.03445617470432"><ele>26.0</ele><time>2026-04-10T04:41:22.001Z</time></trkpt><trkpt lat="14.53162281941789" lon="121.03457588010826"><ele>26.0</ele><time>2026-04-10T04:41:23.001Z</time></trkpt><trkpt lat="14.531717720783492" lon="121.03467207844184"><ele>26.0</ele><time>2026-04-10T04:41:24.001Z</time></trkpt><trkpt lat="14.531804696037495" lon="121.03476232568025"><ele>26.0</ele><time>2026-04-10T04:41:25.001Z</time></trkpt><trkpt lat="14.53188493971475" lon="121.03484547260605"><ele>26.0</ele><time>2026-04-10T04:41:26.001Z</time></trkpt><trkpt lat="14.531952996603803" lon="121.03490785258103"><ele>26.0</ele><time>2026-04-10T04:41:27.001Z</time></trkpt><trkpt lat="14.53203656141125" lon="121.03498819781427"><ele>26.0</ele><time>2026-04-10T04:41:28.001Z</time></trkpt><trkpt lat="14.532114566079517" lon="121.03509785507595"><ele>26.0</ele><time>2026-04-10T04:41:29.001Z</time></trkpt><trkpt lat="14.532207497875747" lon="121.03520178834026"><ele>26.0</ele><time>2026-04-10T04:41:30.001Z</time></trkpt><trkpt lat="14.532310210657998" lon="121.03531666049386"><ele>25.333333333333332</ele><time>2026-04-10T04:41:31.001Z</time></trkpt><trkpt lat="14.532415149414984" lon="121.03543407724034"><ele>24.666666666666664</ele><time>2026-04-10T04:41:32.001Z</time></trkpt><trkpt lat="14.532524888657717" lon="121.03555726730713"><ele>24.0</ele><time>2026-04-10T04:41:33.001Z</time></trkpt><trkpt lat="14.532639126672004" lon="121.0356817693774"><ele>24.333333333333336</ele><time>2026-04-10T04:41:34.001Z</time></trkpt><trkpt lat="14.532756534343031" lon="121.03580932552714"><ele>24.666666666666668</ele><time>2026-04-10T04:41:35.001Z</time></trkpt><trkpt lat="14.532881221446013" lon="121.03592136724258"><ele>25.0</ele><time>2026-04-10T04:41:36.001Z</time></trkpt><trkpt lat="14.532994662452891" lon="121.03604826597218"><ele>24.333333333333336</ele><time>2026-04-10T04:41:37.001Z</time></trkpt><trkpt lat="14.533102435041" lon="121.03617829645042"><ele>23.666666666666668</ele><time>2026-04-10T04:41:38.001Z</time></trkpt><trkpt lat="14.533221966920197" lon="121.03631430567019"><ele>23.0</ele><time>2026-04-10T04:41:39.001Z</time></trkpt><trkpt lat="14.533344167575757" lon="121.03645059668285"><ele>23.0</ele><time>2026-04-10T04:41:40.001Z</time></trkpt><trkpt lat="14.533472592237224" lon="121.03658944180421"><ele>23.0</ele><time>2026-04-10T04:41:41.001Z</time></trkpt><trkpt lat="14.533597529996152" lon="121.03673158916483"><ele>23.0</ele><time>2026-04-10T04:41:42.001Z</time></trkpt><trkpt lat="14.533726505390018" lon="121.03687886662853"><ele>22.666666666666668</ele><time>2026-04-10T04:41:43.001Z</time></trkpt><trkpt lat="14.533859540729795" lon="121.0370220251713"><ele>22.333333333333332</ele><time>2026-04-10T04:41:44.001Z</time></trkpt><trkpt lat="14.53399102863606" lon="121.03717852534184"><ele>22.0</ele><time>2026-04-10T04:41:45.001Z</time></trkpt><trkpt lat="14.53411097421918" lon="121.03735018991858"><ele>24.666666666666664</ele><time>2026-04-10T04:41:46.001Z</time></trkpt><trkpt lat="14.534216702440014" lon="121.03753400524845"><ele>27.333333333333332</ele><time>2026-04-10T04:41:47.001Z</time></trkpt><trkpt lat="14.534322853464229" lon="121.0377147509359"><ele>30.0</ele><time>2026-04-10T04:41:48.001Z</time></trkpt><trkpt lat="14.534422192531487" lon="121.0379017106726"><ele>30.0</ele><time>2026-04-10T04:41:49.001Z</time></trkpt><trkpt lat="14.534506058602329" lon="121.03808868382991"><ele>30.0</ele><time>2026-04-10T04:41:50.001Z</time></trkpt><trkpt lat="14.534572008710699" lon="121.03826567226805"><ele>30.0</ele><time>2026-04-10T04:41:51.001Z</time></trkpt><trkpt lat="14.53463055229862" lon="121.03844380902085"><ele>28.0</ele><time>2026-04-10T04:41:52.001Z</time></trkpt><trkpt lat="14.534679701929045" lon="121.03862216835505"><ele>26.0</ele><time>2026-04-10T04:41:53.001Z</time></trkpt><trkpt lat="14.534721500361764" lon="121.03880316397085"><ele>24.0</ele><time>2026-04-10T04:41:54.001Z</time></trkpt><trkpt lat="14.534754598290004" lon="121.03896999989601"><ele>24.0</ele><time>2026-04-10T04:41:55.001Z</time></trkpt><trkpt lat="14.534779446199702" lon="121.0391325753796"><ele>24.0</ele><time>2026-04-10T04:41:56.001Z</time></trkpt><trkpt lat="14.534798113896292" lon="121.03929214311377"><ele>24.0</ele><time>2026-04-10T04:41:57.001Z</time></trkpt><trkpt lat="14.534808877382956" lon="121.03944371858057"><ele>24.25</ele><time>2026-04-10T04:41:58.001Z</time></trkpt><trkpt lat="14.534820992697492" lon="121.03958120749725"><ele>24.5</ele><time>2026-04-10T04:41:59.001Z</time></trkpt><trkpt lat="14.534827978948378" lon="121.03971247681052"><ele>24.75</ele><time>2026-04-10T04:42:00.001Z</time></trkpt><trkpt lat="14.53482686757633" lon="121.03982392937431"><ele>25.0</ele><time>2026-04-10T04:42:01.001Z</time></trkpt><trkpt lat="14.534821276558397" lon="121.0399197650446"><ele>25.666666666666668</ele><time>2026-04-10T04:42:02.001Z</time></trkpt><trkpt lat="14.534820040783085" lon="121.04001621014201"><ele>26.333333333333336</ele><time>2026-04-10T04:42:03.001Z</time></trkpt><trkpt lat="14.534812031064273" lon="121.04010154117827"><ele>27.0</ele><time>2026-04-10T04:42:04.001Z</time></trkpt><trkpt lat="14.534805993925868" lon="121.0401940334685"><ele>27.666666666666664</ele><time>2026-04-10T04:42:05.001Z</time></trkpt><trkpt lat="14.534797450297424" lon="121.04028247348317"><ele>28.333333333333332</ele><time>2026-04-10T04:42:06.001Z</time></trkpt><trkpt lat="14.534792497283599" lon="121.04036072623687"><ele>29.0</ele><time>2026-04-10T04:42:07.001Z</time></trkpt><trkpt lat="14.534786724915117" lon="121.04042976845088"><ele>29.0</ele><time>2026-04-10T04:42:08.001Z</time></trkpt><trkpt lat="14.534778532114414" lon="121.0405560513996"><ele>29.0</ele><time>2026-04-10T04:42:10.001Z</time></trkpt><trkpt lat="14.53476746291259" lon="121.04068497845608"><ele>29.0</ele><time>2026-04-10T04:42:12.001Z</time></trkpt><trkpt lat="14.534746320811397" lon="121.04076880276286"><ele>29.0</ele><time>2026-04-10T04:42:14.001Z</time></trkpt><trkpt lat="14.53467587186619" lon="121.04082789613595"><ele>29.0</ele><time>2026-04-10T04:42:16.001Z</time></trkpt><trkpt lat="14.534559497758346" lon="121.0408625266694"><ele>28.6</ele><time>2026-04-10T04:42:18Z</time></trkpt><trkpt lat="14.534468792650113" lon="121.04086849011063"><ele>28.2</ele><time>2026-04-10T04:42:19Z</time></trkpt><trkpt lat="14.534362542410681" lon="121.04086958483633"><ele>27.800000000000004</ele><time>2026-04-10T04:42:20Z</time></trkpt><trkpt lat="14.534244357844722" lon="121.04087634115521"><ele>27.400000000000002</ele><time>2026-04-10T04:42:21Z</time></trkpt><trkpt lat="14.534119672137367" lon="121.04088414707229"><ele>27.0</ele><time>2026-04-10T04:42:22Z</time></trkpt><trkpt lat="14.533992921055287" lon="121.040897506865"><ele>27.0</ele><time>2026-04-10T04:42:23Z</time></trkpt><trkpt lat="14.533863499192822" lon="121.04090492828941"><ele>27.0</ele><time>2026-04-10T04:42:24Z</time></trkpt><trkpt lat="14.533731659573501" lon="121.04090992785756"><ele>27.0</ele><time>2026-04-10T04:42:25Z</time></trkpt><trkpt lat="14.533585862861575" lon="121.04092094848606"><ele>27.0</ele><time>2026-04-10T04:42:26Z</time></trkpt><trkpt lat="14.53343414580452" lon="121.04093426008399"><ele>27.5</ele><time>2026-04-10T04:42:27Z</time></trkpt><trkpt lat="14.533287779380714" lon="121.04094970786872"><ele>28.0</ele><time>2026-04-10T04:42:28Z</time></trkpt><trkpt lat="14.53314592882124" lon="121.0409598164105"><ele>28.5</ele><time>2026-04-10T04:42:29Z</time></trkpt><trkpt lat="14.533006719279994" lon="121.04096956749899"><ele>29.0</ele><time>2026-04-10T04:42:30Z</time></trkpt><trkpt lat="14.532870238553496" lon="121.04097944379535"><ele>27.5</ele><time>2026-04-10T04:42:31Z</time></trkpt><trkpt lat="14.532732322183492" lon="121.04099183307684"><ele>26.0</ele><time>2026-04-10T04:42:32Z</time></trkpt><trkpt lat="14.532596785591481" lon="121.04100108876855"><ele>24.5</ele><time>2026-04-10T04:42:33Z</time></trkpt><trkpt lat="14.53247178634452" lon="121.04100765681768"><ele>23.0</ele><time>2026-04-10T04:42:34Z</time></trkpt><trkpt lat="14.53234857582824" lon="121.04101023550677"><ele>23.0</ele><time>2026-04-10T04:42:35Z</time></trkpt><trkpt lat="14.53222351805954" lon="121.04101878953823"><ele>23.0</ele><time>2026-04-10T04:42:36Z</time></trkpt><trkpt lat="14.532097024945042" lon="121.04102693631857"><ele>23.0</ele><time>2026-04-10T04:42:37Z</time></trkpt><trkpt lat="14.531965508769877" lon="121.04103331624583"><ele>23.0</ele><time>2026-04-10T04:42:38Z</time></trkpt><trkpt lat="14.531825619136624" lon="121.04104029967236"><ele>21.75</ele><time>2026-04-10T04:42:39Z</time></trkpt><trkpt lat="14.53168706020194" lon="121.04105393260433"><ele>20.5</ele><time>2026-04-10T04:42:40Z</time></trkpt><trkpt lat="14.531551913998731" lon="121.04106789685927"><ele>19.25</ele><time>2026-04-10T04:42:41Z</time></trkpt><trkpt lat="14.53143157645839" lon="121.04107849234856"><ele>18.0</ele><time>2026-04-10T04:42:42Z</time></trkpt><trkpt lat="14.531315571403068" lon="121.04109354480403"><ele>19.25</ele><time>2026-04-10T04:42:43Z</time></trkpt><trkpt lat="14.53119989651801" lon="121.04110586858798"><ele>20.5</ele><time>2026-04-10T04:42:44Z</time></trkpt><trkpt lat="14.531084913215542" lon="121.04111133823132"><ele>21.75</ele><time>2026-04-10T04:42:45Z</time></trkpt><trkpt lat="14.530968693436037" lon="121.04111416761214"><ele>23.0</ele><time>2026-04-10T04:42:46Z</time></trkpt><trkpt lat="14.530851360861774" lon="121.04111971556792"><ele>23.0</ele><time>2026-04-10T04:42:47Z</time></trkpt><trkpt lat="14.530747145488247" lon="121.04112945138446"><ele>23.0</ele><time>2026-04-10T04:42:48Z</time></trkpt><trkpt lat="14.530664857911091" lon="121.04113744724526"><ele>23.0</ele><time>2026-04-10T04:42:49Z</time></trkpt><trkpt lat="14.530578636217575" lon="121.04115364412004"><ele>23.0</ele><time>2026-04-10T04:42:50Z</time></trkpt><trkpt lat="14.530499550247118" lon="121.04116500718455"><ele>23.0</ele><time>2026-04-10T04:42:51Z</time></trkpt><trkpt lat="14.530428616195413" lon="121.04118502735996"><ele>23.0</ele><time>2026-04-10T04:42:52.001Z</time></trkpt><trkpt lat="14.530360235779678" lon="121.04120638646835"><ele>23.833333333333336</ele><time>2026-04-10T04:42:53.001Z</time></trkpt><trkpt lat="14.530290769848882" lon="121.04122657714004"><ele>24.666666666666668</ele><time>2026-04-10T04:42:54.001Z</time></trkpt><trkpt lat="14.530212701934978" lon="121.0412480555229"><ele>25.5</ele><time>2026-04-10T04:42:55.001Z</time></trkpt><trkpt lat="14.53013602649435" lon="121.04127062539793"><ele>26.333333333333336</ele><time>2026-04-10T04:42:56.001Z</time></trkpt><trkpt lat="14.530056561605614" lon="121.041297718064"><ele>27.166666666666668</ele><time>2026-04-10T04:42:57.001Z</time></trkpt><trkpt lat="14.529980482767789" lon="121.04133003413213"><ele>28.0</ele><time>2026-04-10T04:42:58.001Z</time></trkpt><trkpt lat="14.529898655477204" lon="121.04136008268469"><ele>28.000000000000004</ele><time>2026-04-10T04:42:59.001Z</time></trkpt><trkpt lat="14.529819454132046" lon="121.0413945447914"><ele>28.0</ele><time>2026-04-10T04:43:00.001Z</time></trkpt><trkpt lat="14.529740399785945" lon="121.04142784519566"><ele>28.0</ele><time>2026-04-10T04:43:01.001Z</time></trkpt><trkpt lat="14.529658830738793" lon="121.04146098693477"><ele>28.0</ele><time>2026-04-10T04:43:02.001Z</time></trkpt><trkpt lat="14.529586665316113" lon="121.04148591435194"><ele>28.000000000000004</ele><time>2026-04-10T04:43:03.001Z</time></trkpt><trkpt lat="14.529509027985588" lon="121.04152004106096"><ele>28.0</ele><time>2026-04-10T04:43:04.001Z</time></trkpt><trkpt lat="14.529438610817579" lon="121.04155000850628"><ele>28.500000000000004</ele><time>2026-04-10T04:43:05.001Z</time></trkpt><trkpt lat="14.529365766294259" lon="121.04158170827924"><ele>29.0</ele><time>2026-04-10T04:43:06.001Z</time></trkpt><trkpt lat="14.529284366577185" lon="121.04161872171744"><ele>29.5</ele><time>2026-04-10T04:43:07.001Z</time></trkpt><trkpt lat="14.52920261762204" lon="121.04165211600731"><ele>30.0</ele><time>2026-04-10T04:43:08.001Z</time></trkpt><trkpt lat="14.529123952331844" lon="121.04168528896915"><ele>30.500000000000004</ele><time>2026-04-10T04:43:09.001Z</time></trkpt><trkpt lat="14.529036699646744" lon="121.04171827263292"><ele>31.0</ele><time>2026-04-10T04:43:10.001Z</time></trkpt><trkpt lat="14.528952128037936" lon="121.04174898858592"><ele>31.0</ele><time>2026-04-10T04:43:11.001Z</time></trkpt><trkpt lat="14.52886034004516" lon="121.04178705654857"><ele>31.0</ele><time>2026-04-10T04:43:12.001Z</time></trkpt><trkpt lat="14.528767750446086" lon="121.04183112053937"><ele>31.0</ele><time>2026-04-10T04:43:13.001Z</time></trkpt><trkpt lat="14.528670904219398" lon="121.04187455283295"><ele>31.0</ele><time>2026-04-10T04:43:14.001Z</time></trkpt><trkpt lat="14.528575759581502" lon="121.04191423124878"><ele>31.0</ele><time>2026-04-10T04:43:15.001Z</time></trkpt><trkpt lat="14.528476983937027" lon="121.04195802011172"><ele>30.8</ele><time>2026-04-10T04:43:16.001Z</time></trkpt><trkpt lat="14.52838231629133" lon="121.04199852434458"><ele>30.6</ele><time>2026-04-10T04:43:17.001Z</time></trkpt><trkpt lat="14.528282932679664" lon="121.04203569801912"><ele>30.4</ele><time>2026-04-10T04:43:18.001Z</time></trkpt><trkpt lat="14.52818004570921" lon="121.04207113486127"><ele>30.2</ele><time>2026-04-10T04:43:19.001Z</time></trkpt><trkpt lat="14.528082228641178" lon="121.04210089557668"><ele>30.0</ele><time>2026-04-10T04:43:20.001Z</time></trkpt><trkpt lat="14.527980148680077" lon="121.04214448749451"><ele>30.0</ele><time>2026-04-10T04:43:21.001Z</time></trkpt><trkpt lat="14.527877910390798" lon="121.04218778035998"><ele>30.0</ele><time>2026-04-10T04:43:22.001Z</time></trkpt><trkpt lat="14.527777321090065" lon="121.0422272125412"><ele>30.0</ele><time>2026-04-10T04:43:23.001Z</time></trkpt><trkpt lat="14.527678087079243" lon="121.04227159656698"><ele>30.0</ele><time>2026-04-10T04:43:24.001Z</time></trkpt><trkpt lat="14.527576397260676" lon="121.04231935365347"><ele>30.0</ele><time>2026-04-10T04:43:25.001Z</time></trkpt><trkpt lat="14.527476319427079" lon="121.0423530799586"><ele>30.0</ele><time>2026-04-10T04:43:26.001Z</time></trkpt><trkpt lat="14.527373073796019" lon="121.04239761535659"><ele>30.0</ele><time>2026-04-10T04:43:27.001Z</time></trkpt><trkpt lat="14.52727418051454" lon="121.04244349892953"><ele>30.0</ele><time>2026-04-10T04:43:28.001Z</time></trkpt><trkpt lat="14.527171529780578" lon="121.04248376211271"><ele>30.0</ele><time>2026-04-10T04:43:29.001Z</time></trkpt><trkpt lat="14.527072537899208" lon="121.04252459240078"><ele>30.0</ele><time>2026-04-10T04:43:30.001Z</time></trkpt><trkpt lat="14.526972422877876" lon="121.04256453634062"><ele>30.166666666666668</ele><time>2026-04-10T04:43:31.001Z</time></trkpt><trkpt lat="14.52687675034851" lon="121.04260391938"><ele>30.333333333333336</ele><time>2026-04-10T04:43:32.001Z</time></trkpt><trkpt lat="14.526812553559317" lon="121.04263015486698"><ele>30.5</ele><time>2026-04-10T04:43:33.001Z</time></trkpt><trkpt lat="14.526746261601398" lon="121.04263992191278"><ele>30.666666666666668</ele><time>2026-04-10T04:43:35.001Z</time></trkpt><trkpt lat="14.526817650982457" lon="121.0426101978562"><ele>30.833333333333336</ele><time>2026-04-10T04:43:50.001Z</time></trkpt><trkpt lat="14.526809758606348" lon="121.04250159262283"><ele>31.0</ele><time>2026-04-10T04:44:06.001Z</time></trkpt><trkpt lat="14.526863724063979" lon="121.04256800247722"><ele>31.000000000000004</ele><time>2026-04-10T04:45:52.001Z</time></trkpt><trkpt lat="14.526908274014502" lon="121.042619123676"><ele>31.0</ele><time>2026-04-10T04:46:10.001Z</time></trkpt><trkpt lat="14.52688129134825" lon="121.04253361894484"><ele>31.0</ele><time>2026-04-10T04:46:18.001Z</time></trkpt><trkpt lat="14.526838781082393" lon="121.04246629643627"><ele>31.0</ele><time>2026-04-10T04:46:21.001Z</time></trkpt><trkpt lat="14.526883426444268" lon="121.04253190955062"><ele>31.000000000000004</ele><time>2026-04-10T04:49:39Z</time></trkpt><trkpt lat="14.526814471985162" lon="121.04259735799323"><ele>31.0</ele><time>2026-04-10T04:49:42Z</time></trkpt><trkpt lat="14.526754885173334" lon="121.04262226243254"><ele>31.000000000000004</ele><time>2026-04-10T04:49:43Z</time></trkpt><trkpt lat="14.526692052634333" lon="121.04266672196513"><ele>31.0</ele><time>2026-04-10T04:49:45.001Z</time></trkpt><trkpt lat="14.526605014021422" lon="121.04269861320299"><ele>31.0</ele><time>2026-04-10T04:49:47.001Z</time></trkpt><trkpt lat="14.526512103439494" lon="121.04277551230788"><ele>31.0</ele><time>2026-04-10T04:49:49.001Z</time></trkpt><trkpt lat="14.526461795600978" lon="121.04281611637249"><ele>31.000000000000004</ele><time>2026-04-10T04:49:50.001Z</time></trkpt><trkpt lat="14.52640270123291" lon="121.04286022079162"><ele>31.0</ele><time>2026-04-10T04:49:51.001Z</time></trkpt><trkpt lat="14.526337453154369" lon="121.04290855301322"><ele>31.0</ele><time>2026-04-10T04:49:52.001Z</time></trkpt><trkpt lat="14.526265782603458" lon="121.04295730854021"><ele>31.0</ele><time>2026-04-10T04:49:53.001Z</time></trkpt><trkpt lat="14.52618730408849" lon="121.04300694376592"><ele>31.0</ele><time>2026-04-10T04:49:54.001Z</time></trkpt><trkpt lat="14.5261056884452" lon="121.04306075524117"><ele>31.0</ele><time>2026-04-10T04:49:55.001Z</time></trkpt><trkpt lat="14.526023615207338" lon="121.04311412445897"><ele>31.0</ele><time>2026-04-10T04:49:56.001Z</time></trkpt><trkpt lat="14.525947117904696" lon="121.04316065296875"><ele>31.166666666666668</ele><time>2026-04-10T04:49:57.001Z</time></trkpt><trkpt lat="14.525866999689304" lon="121.04321245617174"><ele>31.333333333333336</ele><time>2026-04-10T04:49:58.001Z</time></trkpt><trkpt lat="14.525799863719728" lon="121.04325456602265"><ele>31.5</ele><time>2026-04-10T04:49:59.001Z</time></trkpt><trkpt lat="14.525732545940786" lon="121.04329898376089"><ele>31.666666666666664</ele><time>2026-04-10T04:50:00.001Z</time></trkpt><trkpt lat="14.525661257323888" lon="121.04334621419194"><ele>31.833333333333332</ele><time>2026-04-10T04:50:01.001Z</time></trkpt><trkpt lat="14.525589577175042" lon="121.0433895257065"><ele>32.0</ele><time>2026-04-10T04:50:02.001Z</time></trkpt><trkpt lat="14.525512857537882" lon="121.04343633113696"><ele>31.999999999999996</ele><time>2026-04-10T04:50:03.001Z</time></trkpt><trkpt lat="14.525438762228767" lon="121.04348153221028"><ele>32.0</ele><time>2026-04-10T04:50:04.001Z</time></trkpt><trkpt lat="14.525365841757653" lon="121.04353449538235"><ele>32.0</ele><time>2026-04-10T04:50:05.001Z</time></trkpt><trkpt lat="14.525289974773155" lon="121.04358257030289"><ele>32.0</ele><time>2026-04-10T04:50:06.001Z</time></trkpt><trkpt lat="14.525227254467135" lon="121.04364067574247"><ele>31.999999999999996</ele><time>2026-04-10T04:50:07.001Z</time></trkpt><trkpt lat="14.525182557006744" lon="121.04370694738417"><ele>32.0</ele><time>2026-04-10T04:50:08.001Z</time></trkpt><trkpt lat="14.525143261076497" lon="121.04378387161846"><ele>31.999999999999996</ele><time>2026-04-10T04:50:09.001Z</time></trkpt><trkpt lat="14.525112896905524" lon="121.04386052910593"><ele>32.0</ele><time>2026-04-10T04:50:10.001Z</time></trkpt><trkpt lat="14.52508718024151" lon="121.04394527190931"><ele>32.0</ele><time>2026-04-10T04:50:11.001Z</time></trkpt><trkpt lat="14.52506360102918" lon="121.04403024993884"><ele>32.0</ele><time>2026-04-10T04:50:12.001Z</time></trkpt><trkpt lat="14.525046456734461" lon="121.04413148349207"><ele>31.999999999999996</ele><time>2026-04-10T04:50:13.001Z</time></trkpt><trkpt lat="14.525019276180494" lon="121.04422305446138"><ele>32.0</ele><time>2026-04-10T04:50:14.001Z</time></trkpt><trkpt lat="14.524993465335601" lon="121.04433312028424"><ele>32.0</ele><time>2026-04-10T04:50:15.001Z</time></trkpt><trkpt lat="14.524968132196099" lon="121.04445987840249"><ele>32.0</ele><time>2026-04-10T04:50:16.001Z</time></trkpt><trkpt lat="14.524939940818467" lon="121.044598388068"><ele>32.0</ele><time>2026-04-10T04:50:17.001Z</time></trkpt><trkpt lat="14.524908355275173" lon="121.04474483950993"><ele>32.0</ele><time>2026-04-10T04:50:18.001Z</time></trkpt><trkpt lat="14.524871649005725" lon="121.04490788005296"><ele>30.333333333333332</ele><time>2026-04-10T04:50:19.001Z</time></trkpt><trkpt lat="14.524826144622944" lon="121.04506981136639"><ele>28.666666666666664</ele><time>2026-04-10T04:50:20.001Z</time></trkpt><trkpt lat="14.524789095088359" lon="121.04524588868472"><ele>27.0</ele><time>2026-04-10T04:50:21.001Z</time></trkpt><trkpt lat="14.52474792158946" lon="121.04541335408763"><ele>27.0</ele><time>2026-04-10T04:50:22.001Z</time></trkpt><trkpt lat="14.524707738555243" lon="121.04557938354186"><ele>27.0</ele><time>2026-04-10T04:50:23.001Z</time></trkpt><trkpt lat="14.524666287497693" lon="121.04573482668268"><ele>27.0</ele><time>2026-04-10T04:50:24.001Z</time></trkpt><trkpt lat="14.524626698617077" lon="121.04587672576348"><ele>27.25</ele><time>2026-04-10T04:50:25.001Z</time></trkpt><trkpt lat="14.524566572038443" lon="121.04601465277014"><ele>27.5</ele><time>2026-04-10T04:50:26.001Z</time></trkpt><trkpt lat="14.524481035167867" lon="121.0461308141077"><ele>27.75</ele><time>2026-04-10T04:50:27.001Z</time></trkpt><trkpt lat="14.524381269380935" lon="121.04623365194095"><ele>28.0</ele><time>2026-04-10T04:50:28.001Z</time></trkpt><trkpt lat="14.524264676536458" lon="121.04632002376906"><ele>28.0</ele><time>2026-04-10T04:50:29.001Z</time></trkpt><trkpt lat="14.524139650440759" lon="121.04639314225992"><ele>28.0</ele><time>2026-04-10T04:50:30.001Z</time></trkpt><trkpt lat="14.524008068586367" lon="121.04644324366241"><ele>28.0</ele><time>2026-04-10T04:50:31.001Z</time></trkpt><trkpt lat="14.523865727383187" lon="121.04648041607851"><ele>28.0</ele><time>2026-04-10T04:50:32.001Z</time></trkpt><trkpt lat="14.523721982769876" lon="121.0465018213545"><ele>29.333333333333336</ele><time>2026-04-10T04:50:33.001Z</time></trkpt><trkpt lat="14.523571584686435" lon="121.04651393674025"><ele>30.666666666666664</ele><time>2026-04-10T04:50:34.001Z</time></trkpt><trkpt lat="14.523417500255531" lon="121.04652826770277"><ele>32.0</ele><time>2026-04-10T04:50:35.001Z</time></trkpt><trkpt lat="14.52325905512929" lon="121.04654450285699"><ele>32.0</ele><time>2026-04-10T04:50:36.001Z</time></trkpt><trkpt lat="14.523098396676236" lon="121.04656274012095"><ele>32.0</ele><time>2026-04-10T04:50:37.001Z</time></trkpt><trkpt lat="14.52293016386991" lon="121.04658099867075"><ele>32.0</ele><time>2026-04-10T04:50:38.001Z</time></trkpt><trkpt lat="14.522761375702943" lon="121.0465942694145"><ele>30.333333333333332</ele><time>2026-04-10T04:50:39.001Z</time></trkpt><trkpt lat="14.522599738274035" lon="121.0466063958252"><ele>28.666666666666664</ele><time>2026-04-10T04:50:40.001Z</time></trkpt><trkpt lat="14.522443188463228" lon="121.04661644719161"><ele>27.0</ele><time>2026-04-10T04:50:41.001Z</time></trkpt><trkpt lat="14.522284442120094" lon="121.04662981540977"><ele>25.333333333333332</ele><time>2026-04-10T04:50:42Z</time></trkpt><trkpt lat="14.522125285452269" lon="121.04664177252793"><ele>23.666666666666664</ele><time>2026-04-10T04:50:43Z</time></trkpt><trkpt lat="14.52196295973395" lon="121.0466559505343"><ele>22.0</ele><time>2026-04-10T04:50:44Z</time></trkpt><trkpt lat="14.521802733801374" lon="121.04667015514218"><ele>22.0</ele><time>2026-04-10T04:50:45Z</time></trkpt><trkpt lat="14.521631513859576" lon="121.04669139672623"><ele>22.0</ele><time>2026-04-10T04:50:46Z</time></trkpt><trkpt lat="14.52145750026426" lon="121.04670800838515"><ele>22.0</ele><time>2026-04-10T04:50:47Z</time></trkpt><trkpt lat="14.521282240450114" lon="121.04672426045535"><ele>21.666666666666664</ele><time>2026-04-10T04:50:48Z</time></trkpt><trkpt lat="14.521103302810962" lon="121.04674007502018"><ele>21.333333333333332</ele><time>2026-04-10T04:50:49Z</time></trkpt><trkpt lat="14.520926344361818" lon="121.04675723922166"><ele>21.0</ele><time>2026-04-10T04:50:50Z</time></trkpt><trkpt lat="14.520752840011713" lon="121.04677838189642"><ele>21.0</ele><time>2026-04-10T04:50:51Z</time></trkpt><trkpt lat="14.520583566239344" lon="121.04680749678417"><ele>21.0</ele><time>2026-04-10T04:50:52Z</time></trkpt><trkpt lat="14.520414516020729" lon="121.04685145632888"><ele>21.0</ele><time>2026-04-10T04:50:53Z</time></trkpt><trkpt lat="14.520255190184482" lon="121.04690548082127"><ele>22.0</ele><time>2026-04-10T04:50:54Z</time></trkpt><trkpt lat="14.520093770930993" lon="121.04697622135103"><ele>23.0</ele><time>2026-04-10T04:50:55Z</time></trkpt><trkpt lat="14.519946309121634" lon="121.04706034366835"><ele>24.0</ele><time>2026-04-10T04:50:56Z</time></trkpt><trkpt lat="14.519808137843956" lon="121.04716161295876"><ele>24.0</ele><time>2026-04-10T04:50:57Z</time></trkpt><trkpt lat="14.519683925425461" lon="121.04727429164868"><ele>24.0</ele><time>2026-04-10T04:50:58Z</time></trkpt><trkpt lat="14.519567541775999" lon="121.04739835598389"><ele>24.0</ele><time>2026-04-10T04:50:59Z</time></trkpt><trkpt lat="14.519464593209031" lon="121.04753801994359"><ele>23.0</ele><time>2026-04-10T04:51:00Z</time></trkpt><trkpt lat="14.519377124308235" lon="121.04768454015844"><ele>22.0</ele><time>2026-04-10T04:51:01Z</time></trkpt><trkpt lat="14.51929513600224" lon="121.04784168201047"><ele>21.0</ele><time>2026-04-10T04:51:02Z</time></trkpt><trkpt lat="14.519242373576175" lon="121.04800221413637"><ele>21.0</ele><time>2026-04-10T04:51:03Z</time></trkpt><trkpt lat="14.519206381785775" lon="121.04817182056856"><ele>21.0</ele><time>2026-04-10T04:51:04Z</time></trkpt><trkpt lat="14.519181515713058" lon="121.04833926174281"><ele>21.0</ele><time>2026-04-10T04:51:05Z</time></trkpt><trkpt lat="14.519163844343685" lon="121.04851228671873"><ele>19.0</ele><time>2026-04-10T04:51:06Z</time></trkpt><trkpt lat="14.519167541171667" lon="121.04867746266171"><ele>17.0</ele><time>2026-04-10T04:51:07Z</time></trkpt><trkpt lat="14.519186063790853" lon="121.04884658213463"><ele>15.0</ele><time>2026-04-10T04:51:08Z</time></trkpt><trkpt lat="14.519213256606205" lon="121.04901962923223"><ele>16.333333333333332</ele><time>2026-04-10T04:51:09Z</time></trkpt><trkpt lat="14.51923738468024" lon="121.04918909281149"><ele>17.666666666666664</ele><time>2026-04-10T04:51:10Z</time></trkpt><trkpt lat="14.519261713660004" lon="121.04935988519833"><ele>19.0</ele><time>2026-04-10T04:51:11Z</time></trkpt><trkpt lat="14.519285259779018" lon="121.04953068414785"><ele>19.0</ele><time>2026-04-10T04:51:12Z</time></trkpt><trkpt lat="14.519292528444819" lon="121.04969333316728"><ele>19.0</ele><time>2026-04-10T04:51:13Z</time></trkpt><trkpt lat="14.519275845201278" lon="121.0498467153505"><ele>19.0</ele><time>2026-04-10T04:51:14Z</time></trkpt><trkpt lat="14.519241526303436" lon="121.04998301622241"><ele>19.0</ele><time>2026-04-10T04:51:15Z</time></trkpt><trkpt lat="14.519187163620405" lon="121.05010697004444"><ele>18.75</ele><time>2026-04-10T04:51:16Z</time></trkpt><trkpt lat="14.519121904600372" lon="121.05021117538833"><ele>18.5</ele><time>2026-04-10T04:51:17Z</time></trkpt><trkpt lat="14.519044446879851" lon="121.05030248794434"><ele>18.25</ele><time>2026-04-10T04:51:18Z</time></trkpt><trkpt lat="14.51895105127703" lon="121.05038182996809"><ele>18.0</ele><time>2026-04-10T04:51:19Z</time></trkpt><trkpt lat="14.518842907330637" lon="121.05045736926704"><ele>18.0</ele><time>2026-04-10T04:51:20Z</time></trkpt><trkpt lat="14.51873453633595" lon="121.05051034746882"><ele>18.0</ele><time>2026-04-10T04:51:21Z</time></trkpt><trkpt lat="14.518623204062054" lon="121.05056239974633"><ele>18.0</ele><time>2026-04-10T04:51:22Z</time></trkpt><trkpt lat="14.51852564259306" lon="121.05059998086568"><ele>18.0</ele><time>2026-04-10T04:51:23Z</time></trkpt><trkpt lat="14.51843889093471" lon="121.05062647154304"><ele>18.0</ele><time>2026-04-10T04:51:24Z</time></trkpt><trkpt lat="14.518365439258085" lon="121.05065673524766"><ele>18.333333333333332</ele><time>2026-04-10T04:51:25Z</time></trkpt><trkpt lat="14.518294527408369" lon="121.05068284291801"><ele>18.666666666666668</ele><time>2026-04-10T04:51:26Z</time></trkpt><trkpt lat="14.518226851740737" lon="121.05070745404085"><ele>19.0</ele><time>2026-04-10T04:51:27Z</time></trkpt><trkpt lat="14.518119069830833" lon="121.050731956808"><ele>19.333333333333336</ele><time>2026-04-10T04:51:29Z</time></trkpt><trkpt lat="14.518021875013085" lon="121.05076355065357"><ele>19.666666666666668</ele><time>2026-04-10T04:51:31Z</time></trkpt><trkpt lat="14.517952716590864" lon="121.05077187944876"><ele>20.0</ele><time>2026-04-10T04:52:00.001Z</time></trkpt><trkpt lat="14.517842263834957" lon="121.05081522601566"><ele>20.0</ele><time>2026-04-10T04:52:03.001Z</time></trkpt><trkpt lat="14.517735564076336" lon="121.05086524670531"><ele>20.0</ele><time>2026-04-10T04:52:05.001Z</time></trkpt><trkpt lat="14.517670235133437" lon="121.05089850312353"><ele>20.0</ele><time>2026-04-10T04:52:06.001Z</time></trkpt><trkpt lat="14.517600849695699" lon="121.05092779673434"><ele>20.0</ele><time>2026-04-10T04:52:07.001Z</time></trkpt><trkpt lat="14.517533145958069" lon="121.0509456049352"><ele>20.0</ele><time>2026-04-10T04:52:08.001Z</time></trkpt><trkpt lat="14.51741695841892" lon="121.05100062097586"><ele>20.0</ele><time>2026-04-10T04:52:10.001Z</time></trkpt><trkpt lat="14.517341557678778" lon="121.05103092197561"><ele>20.0</ele><time>2026-04-10T04:52:12.001Z</time></trkpt><trkpt lat="14.51725123156317" lon="121.05107190786448"><ele>20.0</ele><time>2026-04-10T04:52:14.001Z</time></trkpt><trkpt lat="14.517187937138141" lon="121.05110374728423"><ele>20.0</ele><time>2026-04-10T04:52:15.001Z</time></trkpt><trkpt lat="14.517119965046591" lon="121.0511418003062"><ele>20.0</ele><time>2026-04-10T04:52:16.001Z</time></trkpt><trkpt lat="14.517037048893467" lon="121.05117877186622"><ele>20.0</ele><time>2026-04-10T04:52:17.001Z</time></trkpt><trkpt lat="14.516963236339015" lon="121.05121539290677"><ele>20.857142857142858</ele><time>2026-04-10T04:52:18.001Z</time></trkpt><trkpt lat="14.516891489943715" lon="121.05124597968805"><ele>21.714285714285715</ele><time>2026-04-10T04:52:19.001Z</time></trkpt><trkpt lat="14.516829008129024" lon="121.05127984263412"><ele>22.57142857142857</ele><time>2026-04-10T04:52:20.001Z</time></trkpt><trkpt lat="14.516759111259216" lon="121.05131443658104"><ele>23.42857142857143</ele><time>2026-04-10T04:52:21.001Z</time></trkpt><trkpt lat="14.516693222630144" lon="121.05134914076956"><ele>24.28571428571429</ele><time>2026-04-10T04:52:22.001Z</time></trkpt><trkpt lat="14.51663104486924" lon="121.05138234482818"><ele>25.142857142857142</ele><time>2026-04-10T04:52:23.001Z</time></trkpt><trkpt lat="14.516570730256442" lon="121.05141485804891"><ele>26.0</ele><time>2026-04-10T04:52:24.001Z</time></trkpt><trkpt lat="14.516507971646588" lon="121.051446054995"><ele>25.999999999999996</ele><time>2026-04-10T04:52:25.001Z</time></trkpt><trkpt lat="14.516445793359686" lon="121.05148368233866"><ele>26.0</ele><time>2026-04-10T04:52:27.001Z</time></trkpt><trkpt lat="14.516355485414547" lon="121.0515343425255"><ele>26.0</ele><time>2026-04-10T04:52:30.001Z</time></trkpt><trkpt lat="14.516255910624487" lon="121.05158104142062"><ele>26.0</ele><time>2026-04-10T04:52:32.001Z</time></trkpt><trkpt lat="14.516194888263609" lon="121.05160989829935"><ele>25.999999999999996</ele><time>2026-04-10T04:52:33.001Z</time></trkpt><trkpt lat="14.51612628461524" lon="121.05163934363789"><ele>26.0</ele><time>2026-04-10T04:52:34.001Z</time></trkpt><trkpt lat="14.516055497506198" lon="121.05167284447118"><ele>25.666666666666664</ele><time>2026-04-10T04:52:35.001Z</time></trkpt><trkpt lat="14.515985581136428" lon="121.05171103352752"><ele>25.333333333333332</ele><time>2026-04-10T04:52:36.001Z</time></trkpt><trkpt lat="14.515908312931954" lon="121.05173388124034"><ele>25.0</ele><time>2026-04-10T04:52:37.001Z</time></trkpt><trkpt lat="14.51582969902252" lon="121.05176204056774"><ele>24.666666666666664</ele><time>2026-04-10T04:52:38.001Z</time></trkpt><trkpt lat="14.515748576654108" lon="121.05180018409185"><ele>24.333333333333332</ele><time>2026-04-10T04:52:39.001Z</time></trkpt><trkpt lat="14.515673729961465" lon="121.05183826932486"><ele>24.0</ele><time>2026-04-10T04:52:40.001Z</time></trkpt><trkpt lat="14.515603172081427" lon="121.05187199215976"><ele>24.0</ele><time>2026-04-10T04:52:41.001Z</time></trkpt><trkpt lat="14.515536372489226" lon="121.0519017837166"><ele>24.0</ele><time>2026-04-10T04:52:42.001Z</time></trkpt><trkpt lat="14.515467083401168" lon="121.05193355247536"><ele>24.0</ele><time>2026-04-10T04:52:43.001Z</time></trkpt><trkpt lat="14.515394520537594" lon="121.05196917496436"><ele>24.0</ele><time>2026-04-10T04:52:44.001Z</time></trkpt><trkpt lat="14.515323475873688" lon="121.0520104917199"><ele>24.0</ele><time>2026-04-10T04:52:45.001Z</time></trkpt><trkpt lat="14.515248098521198" lon="121.05205106582308"><ele>24.0</ele><time>2026-04-10T04:52:46.001Z</time></trkpt><trkpt lat="14.515170195954608" lon="121.05209052630391"><ele>24.2</ele><time>2026-04-10T04:52:47.001Z</time></trkpt><trkpt lat="14.515089470971304" lon="121.0521345901424"><ele>24.4</ele><time>2026-04-10T04:52:48Z</time></trkpt><trkpt lat="14.515008557726285" lon="121.05216748462058"><ele>24.6</ele><time>2026-04-10T04:52:49Z</time></trkpt><trkpt lat="14.514928410258758" lon="121.05220753935882"><ele>24.8</ele><time>2026-04-10T04:52:50Z</time></trkpt><trkpt lat="14.514845245791236" lon="121.05225148454652"><ele>25.0</ele><time>2026-04-10T04:52:51Z</time></trkpt><trkpt lat="14.514761837214689" lon="121.05230726501347"><ele>25.000000000000004</ele><time>2026-04-10T04:52:52Z</time></trkpt><trkpt lat="14.514694594439458" lon="121.0523548025697"><ele>25.0</ele><time>2026-04-10T04:52:53Z</time></trkpt><trkpt lat="14.514630290178333" lon="121.05241309422568"><ele>25.0</ele><time>2026-04-10T04:52:54Z</time></trkpt><trkpt lat="14.514576603078272" lon="121.05246422338503"><ele>25.0</ele><time>2026-04-10T04:52:55Z</time></trkpt><trkpt lat="14.514526402959255" lon="121.05253743228036"><ele>25.000000000000004</ele><time>2026-04-10T04:52:56Z</time></trkpt><trkpt lat="14.514478602843893" lon="121.05259900860837"><ele>25.0</ele><time>2026-04-10T04:52:57Z</time></trkpt><trkpt lat="14.51444289809637" lon="121.05267049838888"><ele>24.000000000000004</ele><time>2026-04-10T04:52:58Z</time></trkpt><trkpt lat="14.51440776022253" lon="121.05273066785917"><ele>23.0</ele><time>2026-04-10T04:52:59Z</time></trkpt><trkpt lat="14.514376245738937" lon="121.05280407755492"><ele>22.0</ele><time>2026-04-10T04:53:00Z</time></trkpt><trkpt lat="14.514332481381235" lon="121.05287664958698"><ele>21.0</ele><time>2026-04-10T04:53:01Z</time></trkpt><trkpt lat="14.51428825333726" lon="121.05294773989223"><ele>20.0</ele><time>2026-04-10T04:53:02Z</time></trkpt><trkpt lat="14.514241499225504" lon="121.05300381833467"><ele>19.0</ele><time>2026-04-10T04:53:03Z</time></trkpt><trkpt lat="14.514187695502539" lon="121.05305942292814"><ele>19.0</ele><time>2026-04-10T04:53:04Z</time></trkpt><trkpt lat="14.514120492053376" lon="121.05309281969632"><ele>19.0</ele><time>2026-04-10T04:53:05Z</time></trkpt><trkpt lat="14.514062143628738" lon="121.05313524993616"><ele>19.0</ele><time>2026-04-10T04:53:06Z</time></trkpt><trkpt lat="14.513966565378448" lon="121.053201130529"><ele>19.0</ele><time>2026-04-10T04:53:08Z</time></trkpt><trkpt lat="14.513902432309596" lon="121.05324581972755"><ele>19.0</ele><time>2026-04-10T04:53:10Z</time></trkpt><trkpt lat="14.513833262814291" lon="121.05330092950827"><ele>19.0</ele><time>2026-04-10T04:53:12Z</time></trkpt><trkpt lat="14.513745841045441" lon="121.05334847162912"><ele>18.333333333333332</ele><time>2026-04-10T04:53:14Z</time></trkpt><trkpt lat="14.5136692214506" lon="121.05339153188581"><ele>17.666666666666664</ele><time>2026-04-10T04:53:16Z</time></trkpt><trkpt lat="14.513582589770529" lon="121.05344492875577"><ele>17.0</ele><time>2026-04-10T04:53:18Z</time></trkpt><trkpt lat="14.513531621909825" lon="121.05348338512536"><ele>16.333333333333332</ele><time>2026-04-10T04:53:19Z</time></trkpt><trkpt lat="14.513475203571778" lon="121.05352219135035"><ele>15.666666666666666</ele><time>2026-04-10T04:53:20Z</time></trkpt><trkpt lat="14.513420541427445" lon="121.0535633945623"><ele>15.0</ele><time>2026-04-10T04:53:21Z</time></trkpt><trkpt lat="14.513370463873061" lon="121.0536106088609"><ele>15.0</ele><time>2026-04-10T04:53:22Z</time></trkpt><trkpt lat="14.513276452758145" lon="121.0536977974307"><ele>15.0</ele><time>2026-04-10T04:53:24Z</time></trkpt><trkpt lat="14.513199480754498" lon="121.0537805101046"><ele>15.0</ele><time>2026-04-10T04:53:26Z</time></trkpt><trkpt lat="14.513162726305708" lon="121.05383502820537"><ele>15.0</ele><time>2026-04-10T04:53:27Z</time></trkpt><trkpt lat="14.513122687497319" lon="121.05389344449911"><ele>15.0</ele><time>2026-04-10T04:53:28Z</time></trkpt><trkpt lat="14.513084185245368" lon="121.05395798188138"><ele>15.0</ele><time>2026-04-10T04:53:29Z</time></trkpt><trkpt lat="14.513025345851515" lon="121.05407517961217"><ele>15.0</ele><time>2026-04-10T04:53:31Z</time></trkpt><trkpt lat="14.512992035996888" lon="121.05420709461166"><ele>15.0</ele><time>2026-04-10T04:53:33Z</time></trkpt><trkpt lat="14.512977426645458" lon="121.05427261538547"><ele>15.0</ele><time>2026-04-10T04:53:34Z</time></trkpt><trkpt lat="14.512951916933938" lon="121.05439961990353"><ele>15.0</ele><time>2026-04-10T04:53:36Z</time></trkpt><trkpt lat="14.51292705780975" lon="121.05452590768942"><ele>15.0</ele><time>2026-04-10T04:53:38Z</time></trkpt><trkpt lat="14.512910940014669" lon="121.05459913347688"><ele>15.0</ele><time>2026-04-10T04:53:39Z</time></trkpt><trkpt lat="14.512895902041084" lon="121.05470339595023"><ele>15.0</ele><time>2026-04-10T04:53:41.001Z</time></trkpt><trkpt lat="14.512886467014475" lon="121.05478080719394"><ele>15.0</ele><time>2026-04-10T04:53:44.001Z</time></trkpt><trkpt lat="14.512966068521035" lon="121.05478771648167"><ele>15.0</ele><time>2026-04-10T04:59:17.999Z</time></trkpt><trkpt lat="14.51299436002591" lon="121.05485061515083"><ele>15.0</ele><time>2026-04-10T05:00:36.001Z</time></trkpt><trkpt lat="14.51295890942915" lon="121.05478139518785"><ele>15.0</ele><time>2026-04-10T06:25:01.001Z</time></trkpt><trkpt lat="14.512882811007724" lon="121.05480234379193"><ele>15.166666666666666</ele><time>2026-04-10T06:25:32Z</time></trkpt><trkpt lat="14.512848020222252" lon="121.05486642195348"><ele>15.333333333333332</ele><time>2026-04-10T06:25:35Z</time></trkpt><trkpt lat="14.512843145462515" lon="121.05493883310443"><ele>15.5</ele><time>2026-04-10T06:25:38Z</time></trkpt><trkpt lat="14.512832346373132" lon="121.05502411911299"><ele>15.666666666666666</ele><time>2026-04-10T06:25:41Z</time></trkpt><trkpt lat="14.512818678935147" lon="121.05509700807141"><ele>15.833333333333332</ele><time>2026-04-10T06:25:44Z</time></trkpt><trkpt lat="14.512806666158799" lon="121.05518865685666"><ele>16.0</ele><time>2026-04-10T06:25:48Z</time></trkpt><trkpt lat="14.51279031984759" lon="121.05526893008489"><ele>17.200000000000003</ele><time>2026-04-10T06:25:50Z</time></trkpt><trkpt lat="14.512772937973104" lon="121.05535576497002"><ele>18.400000000000002</ele><time>2026-04-10T06:25:52Z</time></trkpt><trkpt lat="14.512756980548446" lon="121.05545024107559"><ele>19.6</ele><time>2026-04-10T06:25:54Z</time></trkpt><trkpt lat="14.512749301431484" lon="121.05555229933559"><ele>20.8</ele><time>2026-04-10T06:25:56Z</time></trkpt><trkpt lat="14.512736540561198" lon="121.05566029944735"><ele>22.0</ele><time>2026-04-10T06:25:58Z</time></trkpt><trkpt lat="14.512727913096747" lon="121.05576349380841"><ele>22.8</ele><time>2026-04-10T06:26:00Z</time></trkpt><trkpt lat="14.512722878249496" lon="121.05587787913478"><ele>23.6</ele><time>2026-04-10T06:26:02Z</time></trkpt><trkpt lat="14.512705481323989" lon="121.05599171904773"><ele>24.400000000000002</ele><time>2026-04-10T06:26:04.001Z</time></trkpt><trkpt lat="14.512699562361" lon="121.05606123103648"><ele>25.200000000000003</ele><time>2026-04-10T06:26:05.001Z</time></trkpt><trkpt lat="14.512700115679172" lon="121.05614338668715"><ele>26.0</ele><time>2026-04-10T06:26:07.001Z</time></trkpt><trkpt lat="14.512693708657265" lon="121.05623611048372"><ele>26.0</ele><time>2026-04-10T06:26:09.001Z</time></trkpt><trkpt lat="14.51269454460001" lon="121.05634764592764"><ele>26.0</ele><time>2026-04-10T06:26:11.001Z</time></trkpt><trkpt lat="14.512688675525814" lon="121.05645392275723"><ele>26.0</ele><time>2026-04-10T06:26:13.001Z</time></trkpt><trkpt lat="14.512684402283716" lon="121.05656434471709"><ele>26.0</ele><time>2026-04-10T06:26:15.001Z</time></trkpt><trkpt lat="14.512674520442685" lon="121.05668514655471"><ele>26.0</ele><time>2026-04-10T06:26:17.001Z</time></trkpt><trkpt lat="14.512670998690577" lon="121.05675053932357"><ele>25.4</ele><time>2026-04-10T06:26:18.001Z</time></trkpt><trkpt lat="14.512661600540788" lon="121.0568751816548"><ele>24.8</ele><time>2026-04-10T06:26:20.001Z</time></trkpt><trkpt lat="14.512657887542888" lon="121.05694600591572"><ele>24.2</ele><time>2026-04-10T06:26:21.001Z</time></trkpt><trkpt lat="14.512656005972952" lon="121.05701672070789"><ele>23.599999999999998</ele><time>2026-04-10T06:26:22.001Z</time></trkpt><trkpt lat="14.512647984119045" lon="121.05713025418699"><ele>23.0</ele><time>2026-04-10T06:26:24.001Z</time></trkpt><trkpt lat="14.512641626365635" lon="121.05724490646078"><ele>23.0</ele><time>2026-04-10T06:26:26.001Z</time></trkpt><trkpt lat="14.512628177503752" lon="121.05735137173764"><ele>23.0</ele><time>2026-04-10T06:26:28.001Z</time></trkpt><trkpt lat="14.512621207501555" lon="121.05746341635546"><ele>23.0</ele><time>2026-04-10T06:26:30.001Z</time></trkpt><trkpt lat="14.51260305152888" lon="121.05755616664695"><ele>23.0</ele><time>2026-04-10T06:26:32.001Z</time></trkpt><trkpt lat="14.512596310684208" lon="121.05762332074501"><ele>23.0</ele><time>2026-04-10T06:26:34.001Z</time></trkpt><trkpt lat="14.512589374148385" lon="121.05772680218817"><ele>22.5</ele><time>2026-04-10T06:26:36.001Z</time></trkpt><trkpt lat="14.512580316500669" lon="121.05779580829869"><ele>22.0</ele><time>2026-04-10T06:26:37.001Z</time></trkpt><trkpt lat="14.51256901502583" lon="121.05787765377849"><ele>21.5</ele><time>2026-04-10T06:26:38.001Z</time></trkpt><trkpt lat="14.512554444593208" lon="121.05795944054226"><ele>21.0</ele><time>2026-04-10T06:26:39.001Z</time></trkpt><trkpt lat="14.51254902605762" lon="121.05804589542355"><ele>20.5</ele><time>2026-04-10T06:26:40.001Z</time></trkpt><trkpt lat="14.51255107637446" lon="121.05813974410806"><ele>20.0</ele><time>2026-04-10T06:26:41.001Z</time></trkpt><trkpt lat="14.512550750280303" lon="121.05823957656392"><ele>19.8</ele><time>2026-04-10T06:26:42.001Z</time></trkpt><trkpt lat="14.512553190728314" lon="121.05834260729524"><ele>19.6</ele><time>2026-04-10T06:26:43.001Z</time></trkpt><trkpt lat="14.51256141686843" lon="121.05845155631559"><ele>19.4</ele><time>2026-04-10T06:26:44.001Z</time></trkpt><trkpt lat="14.512565016876364" lon="121.05856030943197"><ele>19.2</ele><time>2026-04-10T06:26:45.001Z</time></trkpt><trkpt lat="14.512569834377002" lon="121.05867278188143"><ele>19.0</ele><time>2026-04-10T06:26:46.001Z</time></trkpt><trkpt lat="14.51257408285117" lon="121.05878373342082"><ele>19.0</ele><time>2026-04-10T06:26:47.001Z</time></trkpt><trkpt lat="14.512581505172545" lon="121.0588990110404"><ele>19.0</ele><time>2026-04-10T06:26:48.001Z</time></trkpt><trkpt lat="14.51258255653045" lon="121.05901386873039"><ele>19.0</ele><time>2026-04-10T06:26:49.001Z</time></trkpt><trkpt lat="14.512579614455133" lon="121.05912525964169"><ele>19.0</ele><time>2026-04-10T06:26:50.001Z</time></trkpt><trkpt lat="14.51257541589709" lon="121.05922721509168"><ele>19.0</ele><time>2026-04-10T06:26:51.001Z</time></trkpt><trkpt lat="14.512572247504334" lon="121.05931949900118"><ele>19.0</ele><time>2026-04-10T06:26:52.001Z</time></trkpt><trkpt lat="14.51257242581711" lon="121.059419952575"><ele>19.0</ele><time>2026-04-10T06:26:53.001Z</time></trkpt><trkpt lat="14.512565763224774" lon="121.05949985467151"><ele>19.0</ele><time>2026-04-10T06:26:54.001Z</time></trkpt><trkpt lat="14.51256003476831" lon="121.05957440424005"><ele>19.0</ele><time>2026-04-10T06:26:55.001Z</time></trkpt><trkpt lat="14.51255362389907" lon="121.05964238123687"><ele>19.0</ele><time>2026-04-10T06:26:56.001Z</time></trkpt><trkpt lat="14.512546481432542" lon="121.05971277070392"><ele>19.0</ele><time>2026-04-10T06:26:57.001Z</time></trkpt><trkpt lat="14.5125381089206" lon="121.05978613112752"><ele>19.0</ele><time>2026-04-10T06:26:58.001Z</time></trkpt><trkpt lat="14.51252507912883" lon="121.05985862366212"><ele>19.0</ele><time>2026-04-10T06:26:59.001Z</time></trkpt><trkpt lat="14.51250983556071" lon="121.05993054693263"><ele>19.0</ele><time>2026-04-10T06:27:00.001Z</time></trkpt><trkpt lat="14.512495744318711" lon="121.06000501382172"><ele>19.0</ele><time>2026-04-10T06:27:01.002Z</time></trkpt><trkpt lat="14.512475641732948" lon="121.06008643622273"><ele>19.0</ele><time>2026-04-10T06:27:02.002Z</time></trkpt><trkpt lat="14.512449144818609" lon="121.06016409379498"><ele>19.0</ele><time>2026-04-10T06:27:03.002Z</time></trkpt><trkpt lat="14.512430638020339" lon="121.06023620833264"><ele>19.0</ele><time>2026-04-10T06:27:04.002Z</time></trkpt><trkpt lat="14.51240391650431" lon="121.06030160325483"><ele>19.0</ele><time>2026-04-10T06:27:05.002Z</time></trkpt><trkpt lat="14.512369288882976" lon="121.06036772390776"><ele>19.0</ele><time>2026-04-10T06:27:06.002Z</time></trkpt><trkpt lat="14.51233190545862" lon="121.06043285351437"><ele>19.0</ele><time>2026-04-10T06:27:07.002Z</time></trkpt><trkpt lat="14.512296647857521" lon="121.06049878405572"><ele>19.0</ele><time>2026-04-10T06:27:08.002Z</time></trkpt><trkpt lat="14.512266966965615" lon="121.06055890036895"><ele>19.0</ele><time>2026-04-10T06:27:09.002Z</time></trkpt><trkpt lat="14.512196790123738" lon="121.06065715976963"><ele>19.0</ele><time>2026-04-10T06:27:11.002Z</time></trkpt><trkpt lat="14.51216383014566" lon="121.06071830542832"><ele>18.333333333333332</ele><time>2026-04-10T06:27:12.002Z</time></trkpt><trkpt lat="14.512130466530747" lon="121.0607828908533"><ele>17.666666666666664</ele><time>2026-04-10T06:27:13.002Z</time></trkpt><trkpt lat="14.512095347301102" lon="121.06084973433167"><ele>17.0</ele><time>2026-04-10T06:27:14.002Z</time></trkpt><trkpt lat="14.512051647083105" lon="121.060922267381"><ele>16.333333333333332</ele><time>2026-04-10T06:27:15.002Z</time></trkpt><trkpt lat="14.512009402268484" lon="121.06099611735866"><ele>15.666666666666666</ele><time>2026-04-10T06:27:16.002Z</time></trkpt><trkpt lat="14.511972140264227" lon="121.06106125667216"><ele>15.0</ele><time>2026-04-10T06:27:16.999Z</time></trkpt><trkpt lat="14.511928569823539" lon="121.06111783845994"><ele>15.0</ele><time>2026-04-10T06:27:17.999Z</time></trkpt><trkpt lat="14.511883060075238" lon="121.06117726884521"><ele>15.0</ele><time>2026-04-10T06:27:18.999Z</time></trkpt><trkpt lat="14.511779756940424" lon="121.06125855466561"><ele>15.0</ele><time>2026-04-10T06:27:20.999Z</time></trkpt><trkpt lat="14.511720341265999" lon="121.06130594979982"><ele>15.0</ele><time>2026-04-10T06:27:21.999Z</time></trkpt><trkpt lat="14.511666368172717" lon="121.0613490369198"><ele>15.0</ele><time>2026-04-10T06:27:22.999Z</time></trkpt><trkpt lat="14.511613138476768" lon="121.06139153057823"><ele>15.0</ele><time>2026-04-10T06:27:23.999Z</time></trkpt><trkpt lat="14.511521360377026" lon="121.06146479772144"><ele>15.0</ele><time>2026-04-10T06:27:25.999Z</time></trkpt><trkpt lat="14.511449337039947" lon="121.06153707582757"><ele>15.0</ele><time>2026-04-10T06:27:28Z</time></trkpt><trkpt lat="14.51138245041086" lon="121.06157569074811"><ele>15.0</ele><time>2026-04-10T06:27:29.999Z</time></trkpt><trkpt lat="14.51137520925122" lon="121.06164268911908"><ele>15.0</ele><time>2026-04-10T06:27:31Z</time></trkpt><trkpt lat="14.511340003364209" lon="121.06174288628142"><ele>15.0</ele><time>2026-04-10T06:27:33Z</time></trkpt><trkpt lat="14.511326912088574" lon="121.06181411609491"><ele>15.0</ele><time>2026-04-10T06:27:34Z</time></trkpt><trkpt lat="14.511309824199934" lon="121.06187997909277"><ele>13.6</ele><time>2026-04-10T06:27:35Z</time></trkpt><trkpt lat="14.511264380957138" lon="121.06200285748956"><ele>12.2</ele><time>2026-04-10T06:27:37Z</time></trkpt><trkpt lat="14.511232471171603" lon="121.06211003004476"><ele>10.8</ele><time>2026-04-10T06:27:39Z</time></trkpt><trkpt lat="14.511200535751527" lon="121.06219447394153"><ele>9.4</ele><time>2026-04-10T06:27:41Z</time></trkpt><trkpt lat="14.511181863034917" lon="121.06225923205473"><ele>8.0</ele><time>2026-04-10T06:27:43Z</time></trkpt><trkpt lat="14.511153259049381" lon="121.06235084584138"><ele>7.999999999999999</ele><time>2026-04-10T06:27:46Z</time></trkpt><trkpt lat="14.511132857098575" lon="121.06242468027845"><ele>8.0</ele><time>2026-04-10T06:27:49Z</time></trkpt><trkpt lat="14.511117064895892" lon="121.06250385753174"><ele>8.0</ele><time>2026-04-10T06:27:53Z</time></trkpt><trkpt lat="14.511080832830416" lon="121.0625956877954"><ele>8.0</ele><time>2026-04-10T06:27:56Z</time></trkpt><trkpt lat="14.511057105832379" lon="121.06267557584351"><ele>7.999999999999999</ele><time>2026-04-10T06:27:58Z</time></trkpt><trkpt lat="14.511040503147031" lon="121.06274287623317"><ele>8.0</ele><time>2026-04-10T06:28:00Z</time></trkpt><trkpt lat="14.511014785024246" lon="121.06281428769924"><ele>7.999999999999999</ele><time>2026-04-10T06:28:02Z</time></trkpt><trkpt lat="14.510985946855241" lon="121.06290936535281"><ele>8.0</ele><time>2026-04-10T06:28:04Z</time></trkpt><trkpt lat="14.510957948081826" lon="121.0629888352526"><ele>8.0</ele><time>2026-04-10T06:28:06Z</time></trkpt><trkpt lat="14.51091932363621" lon="121.06305026697065"><ele>8.0</ele><time>2026-04-10T06:28:08Z</time></trkpt><trkpt lat="14.510891766933204" lon="121.06311436871113"><ele>7.999999999999999</ele><time>2026-04-10T06:28:10Z</time></trkpt><trkpt lat="14.510856747944564" lon="121.06317756333391"><ele>8.0</ele><time>2026-04-10T06:28:12Z</time></trkpt><trkpt lat="14.5108307601484" lon="121.06325389030826"><ele>7.857142857142857</ele><time>2026-04-10T06:28:14Z</time></trkpt><trkpt lat="14.510792051345437" lon="121.06331367516725"><ele>7.7142857142857135</ele><time>2026-04-10T06:28:16Z</time></trkpt><trkpt lat="14.510731701405943" lon="121.06334102293366"><ele>7.571428571428571</ele><time>2026-04-10T06:28:18Z</time></trkpt><trkpt lat="14.510683372898797" lon="121.06338433621461"><ele>7.428571428571429</ele><time>2026-04-10T06:28:20.001Z</time></trkpt><trkpt lat="14.51062380440744" lon="121.0634350412236"><ele>7.285714285714286</ele><time>2026-04-10T06:28:22.001Z</time></trkpt><trkpt lat="14.51056046332978" lon="121.06348839749707"><ele>7.142857142857142</ele><time>2026-04-10T06:28:24.001Z</time></trkpt><trkpt lat="14.5105012926532" lon="121.06353824082403"><ele>7.0</ele><time>2026-04-10T06:28:26.001Z</time></trkpt><trkpt lat="14.510444360955569" lon="121.06358891935773"><ele>6.833333333333334</ele><time>2026-04-10T06:28:28.001Z</time></trkpt><trkpt lat="14.510386293756039" lon="121.0636401957899"><ele>6.666666666666667</ele><time>2026-04-10T06:28:30.001Z</time></trkpt><trkpt lat="14.510318321141261" lon="121.06370021922883"><ele>6.5</ele><time>2026-04-10T06:28:32.001Z</time></trkpt><trkpt lat="14.510243810369662" lon="121.06376601620146"><ele>6.333333333333334</ele><time>2026-04-10T06:28:34.001Z</time></trkpt><trkpt lat="14.510171291337741" lon="121.0638300225336"><ele>6.166666666666667</ele><time>2026-04-10T06:28:36.001Z</time></trkpt><trkpt lat="14.510104057443723" lon="121.06388766742747"><ele>6.0</ele><time>2026-04-10T06:28:38.001Z</time></trkpt><trkpt lat="14.51005310100801" lon="121.0639331613653"><ele>6.0</ele><time>2026-04-10T06:28:40.001Z</time></trkpt><trkpt lat="14.509991175853985" lon="121.06398779664396"><ele>6.0</ele><time>2026-04-10T06:28:43.001Z</time></trkpt><trkpt lat="14.509941622493361" lon="121.06403151665485"><ele>6.0</ele><time>2026-04-10T06:28:45.001Z</time></trkpt><trkpt lat="14.509878597199823" lon="121.06408555278344"><ele>6.0</ele><time>2026-04-10T06:28:47.001Z</time></trkpt><trkpt lat="14.509800931693274" lon="121.06415553848352"><ele>6.0</ele><time>2026-04-10T06:28:49.001Z</time></trkpt><trkpt lat="14.509753539655092" lon="121.0641987235337"><ele>6.0</ele><time>2026-04-10T06:28:50.001Z</time></trkpt><trkpt lat="14.50968017769674" lon="121.06426557313965"><ele>6.4</ele><time>2026-04-10T06:28:52.001Z</time></trkpt><trkpt lat="14.509625740431625" lon="121.06433444397275"><ele>6.8</ele><time>2026-04-10T06:28:54.001Z</time></trkpt><trkpt lat="14.509551970036691" lon="121.06441227649124"><ele>7.200000000000001</ele><time>2026-04-10T06:28:56.001Z</time></trkpt><trkpt lat="14.509481805480473" lon="121.06448277391199"><ele>7.6000000000000005</ele><time>2026-04-10T06:28:58.001Z</time></trkpt><trkpt lat="14.509400780348711" lon="121.06455866432206"><ele>8.0</ele><time>2026-04-10T06:29:00.001Z</time></trkpt><trkpt lat="14.509327384142228" lon="121.06465135171058"><ele>8.0</ele><time>2026-04-10T06:29:02.001Z</time></trkpt><trkpt lat="14.509269941105083" lon="121.06475006697961"><ele>8.0</ele><time>2026-04-10T06:29:04.001Z</time></trkpt><trkpt lat="14.509190580412682" lon="121.06484063121914"><ele>8.0</ele><time>2026-04-10T06:29:06.001Z</time></trkpt><trkpt lat="14.509108911740576" lon="121.06493705263313"><ele>8.0</ele><time>2026-04-10T06:29:08.001Z</time></trkpt><trkpt lat="14.50906343958453" lon="121.06498344155952"><ele>8.0</ele><time>2026-04-10T06:29:09.001Z</time></trkpt><trkpt lat="14.509012217447408" lon="121.06503725091088"><ele>7.999999999999999</ele><time>2026-04-10T06:29:10.001Z</time></trkpt><trkpt lat="14.508963143606449" lon="121.06509258622326"><ele>8.0</ele><time>2026-04-10T06:29:11.001Z</time></trkpt><trkpt lat="14.508912562045502" lon="121.06515056203386"><ele>8.0</ele><time>2026-04-10T06:29:12.001Z</time></trkpt><trkpt lat="14.508871743841745" lon="121.06520512603444"><ele>8.0</ele><time>2026-04-10T06:29:13.001Z</time></trkpt><trkpt lat="14.508835915453353" lon="121.06526934343957"><ele>7.999999999999999</ele><time>2026-04-10T06:29:14.001Z</time></trkpt><trkpt lat="14.508786703386573" lon="121.06538493916194"><ele>8.0</ele><time>2026-04-10T06:29:16.002Z</time></trkpt><trkpt lat="14.508739543321175" lon="121.06550767219447"><ele>7.800000000000001</ele><time>2026-04-10T06:29:18.002Z</time></trkpt><trkpt lat="14.508703409571424" lon="121.06561594553243"><ele>7.6000000000000005</ele><time>2026-04-10T06:29:20.002Z</time></trkpt><trkpt lat="14.508661889481479" lon="121.06571097623616"><ele>7.3999999999999995</ele><time>2026-04-10T06:29:22.002Z</time></trkpt><trkpt lat="14.508613402562695" lon="121.06581320065823"><ele>7.199999999999999</ele><time>2026-04-10T06:29:24Z</time></trkpt><trkpt lat="14.508561655713905" lon="121.06591150997814"><ele>7.0</ele><time>2026-04-10T06:29:26Z</time></trkpt><trkpt lat="14.50851405746808" lon="121.06600366020582"><ele>7.000000000000001</ele><time>2026-04-10T06:29:28Z</time></trkpt><trkpt lat="14.508477489031467" lon="121.06607740962347"><ele>7.0</ele><time>2026-04-10T06:29:30Z</time></trkpt><trkpt lat="14.50840670263826" lon="121.06613163345547"><ele>7.0</ele><time>2026-04-10T06:29:33Z</time></trkpt><trkpt lat="14.50832010304665" lon="121.06609118114142"><ele>7.0</ele><time>2026-04-10T06:29:36Z</time></trkpt><trkpt lat="14.508241829341932" lon="121.06609150789555"><ele>7.000000000000001</ele><time>2026-04-10T06:29:38Z</time></trkpt><trkpt lat="14.508173510165138" lon="121.06610656581478"><ele>7.0</ele><time>2026-04-10T06:29:40Z</time></trkpt><trkpt lat="14.50809559621339" lon="121.0660968086778"><ele>7.000000000000001</ele><time>2026-04-10T06:29:42Z</time></trkpt><trkpt lat="14.507998394386346" lon="121.06608640353821"><ele>7.0</ele><time>2026-04-10T06:29:44Z</time></trkpt><trkpt lat="14.50792601246163" lon="121.06608488582906"><ele>7.0</ele><time>2026-04-10T06:29:46Z</time></trkpt><trkpt lat="14.507852726472466" lon="121.06608334916301"><ele>7.0</ele><time>2026-04-10T06:29:48Z</time></trkpt><trkpt lat="14.50776089326893" lon="121.06608142359283"><ele>7.000000000000001</ele><time>2026-04-10T06:29:50Z</time></trkpt><trkpt lat="14.507656617328497" lon="121.0660748704548"><ele>7.0</ele><time>2026-04-10T06:29:52Z</time></trkpt><trkpt lat="14.507543856730422" lon="121.06606646271727"><ele>7.000000000000001</ele><time>2026-04-10T06:29:54Z</time></trkpt><trkpt lat="14.507417153956327" lon="121.0660862920136"><ele>7.0</ele><time>2026-04-10T06:29:56Z</time></trkpt><trkpt lat="14.507355445818792" lon="121.06606712680805"><ele>7.0</ele><time>2026-04-10T06:29:57Z</time></trkpt><trkpt lat="14.507294494093744" lon="121.06604715720236"><ele>7.0</ele><time>2026-04-10T06:29:58Z</time></trkpt><trkpt lat="14.507229494597347" lon="121.06602976931192"><ele>7.000000000000001</ele><time>2026-04-10T06:29:59Z</time></trkpt><trkpt lat="14.50716661225023" lon="121.06601418624184"><ele>7.0</ele><time>2026-04-10T06:30:00Z</time></trkpt><trkpt lat="14.507103803916651" lon="121.065997127179"><ele>7.285714285714286</ele><time>2026-04-10T06:30:01Z</time></trkpt><trkpt lat="14.50703688629371" lon="121.06599211880562"><ele>7.571428571428571</ele><time>2026-04-10T06:30:02Z</time></trkpt><trkpt lat="14.506971541633623" lon="121.06596892778776"><ele>7.857142857142858</ele><time>2026-04-10T06:30:03Z</time></trkpt><trkpt lat="14.506906670108076" lon="121.06594797247024"><ele>8.142857142857142</ele><time>2026-04-10T06:30:04Z</time></trkpt><trkpt lat="14.506841837566482" lon="121.06592482884125"><ele>8.428571428571429</ele><time>2026-04-10T06:30:05Z</time></trkpt><trkpt lat="14.506774859218838" lon="121.06590129007384"><ele>8.714285714285715</ele><time>2026-04-10T06:30:06Z</time></trkpt><trkpt lat="14.506706876136365" lon="121.06587398488745"><ele>9.0</ele><time>2026-04-10T06:30:07Z</time></trkpt><trkpt lat="14.506636662875584" lon="121.06584770464777"><ele>9.0</ele><time>2026-04-10T06:30:08Z</time></trkpt><trkpt lat="14.506563912869076" lon="121.06582108047459"><ele>9.0</ele><time>2026-04-10T06:30:09Z</time></trkpt><trkpt lat="14.506496907510336" lon="121.06579975194242"><ele>9.0</ele><time>2026-04-10T06:30:10Z</time></trkpt><trkpt lat="14.506381149466971" lon="121.06574867432971"><ele>9.0</ele><time>2026-04-10T06:30:12Z</time></trkpt><trkpt lat="14.50631932519416" lon="121.06572310707686"><ele>9.0</ele><time>2026-04-10T06:30:13Z</time></trkpt><trkpt lat="14.50626070398492" lon="121.06569927587415"><ele>9.0</ele><time>2026-04-10T06:30:14Z</time></trkpt><trkpt lat="14.506156774272116" lon="121.06566027618226"><ele>8.4</ele><time>2026-04-10T06:30:16Z</time></trkpt><trkpt lat="14.506054110644172" lon="121.06563010641906"><ele>7.800000000000001</ele><time>2026-04-10T06:30:18Z</time></trkpt><trkpt lat="14.50594907008914" lon="121.06559092554023"><ele>7.199999999999999</ele><time>2026-04-10T06:30:20Z</time></trkpt><trkpt lat="14.505832479319977" lon="121.0655479240003"><ele>6.6</ele><time>2026-04-10T06:30:22Z</time></trkpt><trkpt lat="14.505730698278668" lon="121.06551439842659"><ele>6.0</ele><time>2026-04-10T06:30:24Z</time></trkpt><trkpt lat="14.505660034691527" lon="121.06549958214408"><ele>5.999999999999999</ele><time>2026-04-10T06:30:34.001Z</time></trkpt><trkpt lat="14.505584532167255" lon="121.06549050510534"><ele>6.0</ele><time>2026-04-10T06:30:36.001Z</time></trkpt><trkpt lat="14.505526996756481" lon="121.06546212128579"><ele>6.0</ele><time>2026-04-10T06:30:38.001Z</time></trkpt><trkpt lat="14.50544797331222" lon="121.06543805808508"><ele>6.0</ele><time>2026-04-10T06:30:43.001Z</time></trkpt><trkpt lat="14.505384468759598" lon="121.06541912202985"><ele>6.0</ele><time>2026-04-10T06:30:45.001Z</time></trkpt><trkpt lat="14.50530758292113" lon="121.06539579058739"><ele>5.999999999999999</ele><time>2026-04-10T06:30:47.001Z</time></trkpt><trkpt lat="14.505240710013528" lon="121.06537229804312"><ele>6.0</ele><time>2026-04-10T06:30:49.001Z</time></trkpt><trkpt lat="14.505164889378001" lon="121.06535265447128"><ele>6.199999999999999</ele><time>2026-04-10T06:30:51.001Z</time></trkpt><trkpt lat="14.505106293806273" lon="121.06532349337675"><ele>6.3999999999999995</ele><time>2026-04-10T06:30:54.001Z</time></trkpt><trkpt lat="14.505014502333704" lon="121.06528895527931"><ele>6.6</ele><time>2026-04-10T06:30:56.001Z</time></trkpt><trkpt lat="14.504884967455434" lon="121.06526067227637"><ele>6.8</ele><time>2026-04-10T06:30:58.001Z</time></trkpt><trkpt lat="14.504799340549752" lon="121.06523269926484"><ele>7.0</ele><time>2026-04-10T06:30:59.001Z</time></trkpt><trkpt lat="14.504713499154096" lon="121.06520451333584"><ele>7.000000000000001</ele><time>2026-04-10T06:31:00.001Z</time></trkpt><trkpt lat="14.504603620436958" lon="121.06517308978923"><ele>7.0</ele><time>2026-04-10T06:31:01.001Z</time></trkpt><trkpt lat="14.504530285025268" lon="121.06514578999763"><ele>7.0</ele><time>2026-04-10T06:31:02.001Z</time></trkpt><trkpt lat="14.504454359496176" lon="121.06511426855928"><ele>7.0</ele><time>2026-04-10T06:31:03.001Z</time></trkpt><trkpt lat="14.5043770896623" lon="121.0650897314631"><ele>7.000000000000001</ele><time>2026-04-10T06:31:04.001Z</time></trkpt><trkpt lat="14.504309009688463" lon="121.06506508361959"><ele>7.0</ele><time>2026-04-10T06:31:05.001Z</time></trkpt><trkpt lat="14.504209536923884" lon="121.06502941854875"><ele>6.833333333333334</ele><time>2026-04-10T06:31:07.001Z</time></trkpt><trkpt lat="14.50413789061868" lon="121.0650064429253"><ele>6.666666666666667</ele><time>2026-04-10T06:31:10.001Z</time></trkpt><trkpt lat="14.504059711199766" lon="121.06498296819603"><ele>6.5</ele><time>2026-04-10T06:31:13.001Z</time></trkpt><trkpt lat="14.503997452010926" lon="121.0649671431499"><ele>6.333333333333334</ele><time>2026-04-10T06:31:27.002Z</time></trkpt><trkpt lat="14.5039204022457" lon="121.06497028752156"><ele>6.166666666666667</ele><time>2026-04-10T06:31:49Z</time></trkpt><trkpt lat="14.503869883883514" lon="121.06504881295933"><ele>6.0</ele><time>2026-04-10T06:31:53Z</time></trkpt><trkpt lat="14.503838982192729" lon="121.06513530712861"><ele>6.0</ele><time>2026-04-10T06:32:02Z</time></trkpt><trkpt lat="14.50379696161168" lon="121.06521711964493"><ele>6.0</ele><time>2026-04-10T06:32:04Z</time></trkpt><trkpt lat="14.503764890312796" lon="121.06528904980911"><ele>6.0</ele><time>2026-04-10T06:32:06Z</time></trkpt><trkpt lat="14.503723458810024" lon="121.06534646122881"><ele>6.0</ele><time>2026-04-10T06:32:09Z</time></trkpt><trkpt lat="14.503695512135469" lon="121.06542052967401"><ele>6.0</ele><time>2026-04-10T06:32:12Z</time></trkpt><trkpt lat="14.503665994034657" lon="121.06549046533034"><ele>6.0</ele><time>2026-04-10T06:32:14Z</time></trkpt><trkpt lat="14.503619048704175" lon="121.06558256894975"><ele>6.0</ele><time>2026-04-10T06:32:16Z</time></trkpt><trkpt lat="14.503571540933699" lon="121.06566768843963"><ele>6.0</ele><time>2026-04-10T06:32:18Z</time></trkpt><trkpt lat="14.50353097005581" lon="121.06575994754222"><ele>6.0</ele><time>2026-04-10T06:32:20Z</time></trkpt><trkpt lat="14.503490321312007" lon="121.06583358880086"><ele>6.0</ele><time>2026-04-10T06:32:22Z</time></trkpt><trkpt lat="14.503445457815628" lon="121.065928835241"><ele>6.0</ele><time>2026-04-10T06:32:24.001Z</time></trkpt><trkpt lat="14.503405870836827" lon="121.0659883131847"><ele>6.0</ele><time>2026-04-10T06:32:25.001Z</time></trkpt><trkpt lat="14.503369978414272" lon="121.06604389357554"><ele>6.0</ele><time>2026-04-10T06:32:26.001Z</time></trkpt><trkpt lat="14.503321187845936" lon="121.06614752150114"><ele>6.0</ele><time>2026-04-10T06:32:28.001Z</time></trkpt><trkpt lat="14.503282790293182" lon="121.06624577186766"><ele>6.0</ele><time>2026-04-10T06:32:30.001Z</time></trkpt><trkpt lat="14.503241804107576" lon="121.06634267041535"><ele>6.0</ele><time>2026-04-10T06:32:32.001Z</time></trkpt><trkpt lat="14.503209382785935" lon="121.06642240116591"><ele>6.0</ele><time>2026-04-10T06:32:36.001Z</time></trkpt><trkpt lat="14.503166056480605" lon="121.0665117334752"><ele>6.0</ele><time>2026-04-10T06:32:38.001Z</time></trkpt><trkpt lat="14.50312854105985" lon="121.06658517390657"><ele>6.0</ele><time>2026-04-10T06:32:40.001Z</time></trkpt><trkpt lat="14.50311537228463" lon="121.06665624366055"><ele>6.0</ele><time>2026-04-10T06:32:44.001Z</time></trkpt><trkpt lat="14.503150702779203" lon="121.0667171905782"><ele>6.0</ele><time>2026-04-10T06:32:46.001Z</time></trkpt><trkpt lat="14.503263572050717" lon="121.0667625841021"><ele>6.0</ele><time>2026-04-10T06:32:48.001Z</time></trkpt><trkpt lat="14.503334733416613" lon="121.06678183951016"><ele>6.0</ele><time>2026-04-10T06:32:49.001Z</time></trkpt><trkpt lat="14.503399259947695" lon="121.06680507396798"><ele>6.0</ele><time>2026-04-10T06:32:50.001Z</time></trkpt><trkpt lat="14.503465520540155" lon="121.06683589163363"><ele>6.0</ele><time>2026-04-10T06:32:51.001Z</time></trkpt><trkpt lat="14.503530558464481" lon="121.0668658814576"><ele>6.0</ele><time>2026-04-10T06:32:52.001Z</time></trkpt><trkpt lat="14.50358516501732" lon="121.06689903233999"><ele>6.0</ele><time>2026-04-10T06:32:53.001Z</time></trkpt><trkpt lat="14.50370090848076" lon="121.06694576066205"><ele>6.0</ele><time>2026-04-10T06:32:55.001Z</time></trkpt><trkpt lat="14.503754245614786" lon="121.06698310916049"><ele>6.0</ele><time>2026-04-10T06:32:56.001Z</time></trkpt><trkpt lat="14.503816342018634" lon="121.06700647296138"><ele>5.5</ele><time>2026-04-10T06:32:57.001Z</time></trkpt><trkpt lat="14.503884815694283" lon="121.06703584224564"><ele>5.0</ele><time>2026-04-10T06:32:58.001Z</time></trkpt><trkpt lat="14.503955416229383" lon="121.06707195951421"><ele>4.5</ele><time>2026-04-10T06:32:59.001Z</time></trkpt><trkpt lat="14.504026427127265" lon="121.06710811093794"><ele>4.0</ele><time>2026-04-10T06:33:00.001Z</time></trkpt><trkpt lat="14.504105287798883" lon="121.06714843429238"><ele>3.5</ele><time>2026-04-10T06:33:01.001Z</time></trkpt><trkpt lat="14.504182584305799" lon="121.06718580982631"><ele>3.0</ele><time>2026-04-10T06:33:02.001Z</time></trkpt><trkpt lat="14.504257498852864" lon="121.0672256295514"><ele>3.0</ele><time>2026-04-10T06:33:03.001Z</time></trkpt><trkpt lat="14.504329125046796" lon="121.06726564794626"><ele>3.0</ele><time>2026-04-10T06:33:04.001Z</time></trkpt><trkpt lat="14.504398059541039" lon="121.06730773439874"><ele>3.0</ele><time>2026-04-10T06:33:05.001Z</time></trkpt><trkpt lat="14.504475612482693" lon="121.06735255319504"><ele>3.0</ele><time>2026-04-10T06:33:06.001Z</time></trkpt><trkpt lat="14.504549617084116" lon="121.06739205497527"><ele>3.0</ele><time>2026-04-10T06:33:07.001Z</time></trkpt><trkpt lat="14.504624581839675" lon="121.06743730999337"><ele>3.0</ele><time>2026-04-10T06:33:08.001Z</time></trkpt><trkpt lat="14.50470042352242" lon="121.06748263798549"><ele>2.8</ele><time>2026-04-10T06:33:09.001Z</time></trkpt><trkpt lat="14.50477897636185" lon="121.0675277585802"><ele>2.5999999999999996</ele><time>2026-04-10T06:33:10.001Z</time></trkpt><trkpt lat="14.504861081261918" lon="121.06757183427905"><ele>2.4000000000000004</ele><time>2026-04-10T06:33:11.001Z</time></trkpt><trkpt lat="14.504945594865287" lon="121.06761692498725"><ele>2.2</ele><time>2026-04-10T06:33:12.001Z</time></trkpt><trkpt lat="14.505025926232854" lon="121.06766827254854"><ele>2.0</ele><time>2026-04-10T06:33:13.001Z</time></trkpt><trkpt lat="14.505108362265055" lon="121.06771362927756"><ele>1.9999999999999998</ele><time>2026-04-10T06:33:14.001Z</time></trkpt><trkpt lat="14.505178112557331" lon="121.06775711674246"><ele>2.0</ele><time>2026-04-10T06:33:15.001Z</time></trkpt><trkpt lat="14.505237482368702" lon="121.06779684607946"><ele>2.0</ele><time>2026-04-10T06:33:16.001Z</time></trkpt><trkpt lat="14.505296010567477" lon="121.06782798944887"><ele>2.0</ele><time>2026-04-10T06:33:17.002Z</time></trkpt><trkpt lat="14.505354276864217" lon="121.06785859983626"><ele>1.9999999999999998</ele><time>2026-04-10T06:33:18.002Z</time></trkpt><trkpt lat="14.505455544172264" lon="121.067915086676"><ele>2.0</ele><time>2026-04-10T06:33:20.002Z</time></trkpt><trkpt lat="14.505538348824281" lon="121.06796152884993"><ele>1.9999999999999998</ele><time>2026-04-10T06:33:22.002Z</time></trkpt><trkpt lat="14.50559942051498" lon="121.06800302110003"><ele>2.0</ele><time>2026-04-10T06:33:24.002Z</time></trkpt><trkpt lat="14.505602588870126" lon="121.06809877687515"><ele>2.0</ele><time>2026-04-10T06:33:27.002Z</time></trkpt><trkpt lat="14.505540424186531" lon="121.06817772348"><ele>2.0</ele><time>2026-04-10T06:33:29.002Z</time></trkpt><trkpt lat="14.505528829288508" lon="121.06825413608102"><ele>1.9999999999999998</ele><time>2026-04-10T06:33:32.002Z</time></trkpt><trkpt lat="14.505537500496496" lon="121.06832319845591"><ele>2.0</ele><time>2026-04-10T06:33:34.002Z</time></trkpt><trkpt lat="14.505569799100979" lon="121.06839095775138"><ele>2.0</ele><time>2026-04-10T06:33:37Z</time></trkpt><trkpt lat="14.505640691339195" lon="121.06843235207022"><ele>2.0</ele><time>2026-04-10T06:33:38Z</time></trkpt><trkpt lat="14.505714316570193" lon="121.068470673101"><ele>2.0</ele><time>2026-04-10T06:33:39Z</time></trkpt><trkpt lat="14.505801511673083" lon="121.06852280951357"><ele>2.0</ele><time>2026-04-10T06:33:40Z</time></trkpt><trkpt lat="14.505891428110084" lon="121.06857890398386"><ele>2.0</ele><time>2026-04-10T06:33:41Z</time></trkpt><trkpt lat="14.505992572999329" lon="121.06863791761303"><ele>2.0</ele><time>2026-04-10T06:33:42Z</time></trkpt><trkpt lat="14.506096948904272" lon="121.06869664614608"><ele>2.0</ele><time>2026-04-10T06:33:43Z</time></trkpt><trkpt lat="14.506210529650097" lon="121.06876058610491"><ele>2.0</ele><time>2026-04-10T06:33:44Z</time></trkpt><trkpt lat="14.506332520651583" lon="121.06882826076637"><ele>2.0</ele><time>2026-04-10T06:33:45Z</time></trkpt><trkpt lat="14.506459764737718" lon="121.06889738476849"><ele>2.0</ele><time>2026-04-10T06:33:46Z</time></trkpt><trkpt lat="14.506587894069494" lon="121.06897303742191"><ele>2.0</ele><time>2026-04-10T06:33:47Z</time></trkpt><trkpt lat="14.506718607992264" lon="121.06905157090729"><ele>2.0</ele><time>2026-04-10T06:33:48Z</time></trkpt><trkpt lat="14.506853998314416" lon="121.06913100339747"><ele>2.0</ele><time>2026-04-10T06:33:49Z</time></trkpt><trkpt lat="14.50699457062563" lon="121.06921122853836"><ele>2.0</ele><time>2026-04-10T06:33:50Z</time></trkpt><trkpt lat="14.507139731685776" lon="121.06929511857102"><ele>2.0</ele><time>2026-04-10T06:33:51Z</time></trkpt><trkpt lat="14.507283046547444" lon="121.06937919668536"><ele>2.0</ele><time>2026-04-10T06:33:52Z</time></trkpt><trkpt lat="14.507432051831149" lon="121.06946703488468"><ele>2.0</ele><time>2026-04-10T06:33:53Z</time></trkpt><trkpt lat="14.507576240628165" lon="121.06955591749333"><ele>2.0</ele><time>2026-04-10T06:33:54Z</time></trkpt><trkpt lat="14.507735415706158" lon="121.06964732141566"><ele>2.0</ele><time>2026-04-10T06:33:55Z</time></trkpt><trkpt lat="14.50788851375394" lon="121.06973564864687"><ele>2.0</ele><time>2026-04-10T06:33:56Z</time></trkpt><trkpt lat="14.508048259357704" lon="121.06982908686035"><ele>2.0</ele><time>2026-04-10T06:33:57Z</time></trkpt><trkpt lat="14.50820907882366" lon="121.06991919093097"><ele>2.0</ele><time>2026-04-10T06:33:58Z</time></trkpt><trkpt lat="14.508369240039972" lon="121.07000903819086"><ele>2.0</ele><time>2026-04-10T06:33:59Z</time></trkpt><trkpt lat="14.50853846444811" lon="121.07010530399877"><ele>2.0</ele><time>2026-04-10T06:34:00Z</time></trkpt><trkpt lat="14.50869946591872" lon="121.07020141720649"><ele>2.0</ele><time>2026-04-10T06:34:01Z</time></trkpt><trkpt lat="14.50886311498063" lon="121.07029874725116"><ele>2.0</ele><time>2026-04-10T06:34:02Z</time></trkpt><trkpt lat="14.50903041553184" lon="121.0703998852902"><ele>2.0</ele><time>2026-04-10T06:34:03Z</time></trkpt><trkpt lat="14.509195609983053" lon="121.070501371958"><ele>2.0</ele><time>2026-04-10T06:34:04Z</time></trkpt><trkpt lat="14.509363651893219" lon="121.07060109681673"><ele>2.0</ele><time>2026-04-10T06:34:05Z</time></trkpt><trkpt lat="14.509533038725078" lon="121.0706959691677"><ele>2.0</ele><time>2026-04-10T06:34:06Z</time></trkpt><trkpt lat="14.50970659353209" lon="121.07079541325824"><ele>2.333333333333333</ele><time>2026-04-10T06:34:07Z</time></trkpt><trkpt lat="14.509883180775804" lon="121.07090312641037"><ele>2.6666666666666665</ele><time>2026-04-10T06:34:08Z</time></trkpt><trkpt lat="14.510056844231082" lon="121.0709973702127"><ele>3.0</ele><time>2026-04-10T06:34:09Z</time></trkpt><trkpt lat="14.51023618307792" lon="121.07109924325556"><ele>3.0</ele><time>2026-04-10T06:34:10Z</time></trkpt><trkpt lat="14.510416042103385" lon="121.07120637764218"><ele>3.0</ele><time>2026-04-10T06:34:11Z</time></trkpt><trkpt lat="14.510593983424293" lon="121.07130748871684"><ele>3.0</ele><time>2026-04-10T06:34:12Z</time></trkpt><trkpt lat="14.510769396694776" lon="121.07141833968727"><ele>3.0</ele><time>2026-04-10T06:34:13Z</time></trkpt><trkpt lat="14.510946128310508" lon="121.07150856195594"><ele>3.0</ele><time>2026-04-10T06:34:14Z</time></trkpt><trkpt lat="14.511117466108704" lon="121.07161404146237"><ele>3.0</ele><time>2026-04-10T06:34:15Z</time></trkpt><trkpt lat="14.511287629865143" lon="121.07170601572528"><ele>3.666666666666667</ele><time>2026-04-10T06:34:16Z</time></trkpt><trkpt lat="14.511461419703988" lon="121.0718074930863"><ele>4.333333333333334</ele><time>2026-04-10T06:34:17Z</time></trkpt><trkpt lat="14.511632292222972" lon="121.07190330411463"><ele>5.0</ele><time>2026-04-10T06:34:18Z</time></trkpt><trkpt lat="14.511806579579526" lon="121.07200584906516"><ele>5.0</ele><time>2026-04-10T06:34:19Z</time></trkpt><trkpt lat="14.511976832206123" lon="121.07210646680335"><ele>5.0</ele><time>2026-04-10T06:34:20Z</time></trkpt><trkpt lat="14.5121473666074" lon="121.07220375486816"><ele>5.0</ele><time>2026-04-10T06:34:21Z</time></trkpt><trkpt lat="14.512315240569428" lon="121.07230785264281"><ele>5.666666666666667</ele><time>2026-04-10T06:34:22Z</time></trkpt><trkpt lat="14.512484134711046" lon="121.07241884374261"><ele>6.333333333333334</ele><time>2026-04-10T06:34:23Z</time></trkpt><trkpt lat="14.512649369773465" lon="121.07253145325727"><ele>7.0</ele><time>2026-04-10T06:34:24Z</time></trkpt><trkpt lat="14.51281323013215" lon="121.07264457963349"><ele>6.0</ele><time>2026-04-10T06:34:25.001Z</time></trkpt><trkpt lat="14.51297914245114" lon="121.07276009544195"><ele>5.0</ele><time>2026-04-10T06:34:26.001Z</time></trkpt><trkpt lat="14.51314142145525" lon="121.07286991990574"><ele>4.0</ele><time>2026-04-10T06:34:27.001Z</time></trkpt><trkpt lat="14.513307380198802" lon="121.07298252829737"><ele>4.0</ele><time>2026-04-10T06:34:28.001Z</time></trkpt><trkpt lat="14.513468521468916" lon="121.07310914997359"><ele>4.0</ele><time>2026-04-10T06:34:29.001Z</time></trkpt><trkpt lat="14.513625682854844" lon="121.07323456699882"><ele>4.0</ele><time>2026-04-10T06:34:30.001Z</time></trkpt><trkpt lat="14.513784928165062" lon="121.07336203100691"><ele>4.0</ele><time>2026-04-10T06:34:31.001Z</time></trkpt><trkpt lat="14.51393706290058" lon="121.07348944175801"><ele>4.0</ele><time>2026-04-10T06:34:32.001Z</time></trkpt><trkpt lat="14.514092645591786" lon="121.07362163688492"><ele>4.0</ele><time>2026-04-10T06:34:33.001Z</time></trkpt><trkpt lat="14.514246231333198" lon="121.07375355812725"><ele>4.0</ele><time>2026-04-10T06:34:34.001Z</time></trkpt><trkpt lat="14.514399083545223" lon="121.0738869314093"><ele>4.0</ele><time>2026-04-10T06:34:35.001Z</time></trkpt><trkpt lat="14.514553525722809" lon="121.07403500197836"><ele>4.0</ele><time>2026-04-10T06:34:36.001Z</time></trkpt><trkpt lat="14.514700822794907" lon="121.0741746679677"><ele>4.666666666666666</ele><time>2026-04-10T06:34:37.001Z</time></trkpt><trkpt lat="14.514853620810921" lon="121.07432289328032"><ele>5.333333333333333</ele><time>2026-04-10T06:34:38.001Z</time></trkpt><trkpt lat="14.515001520080588" lon="121.074472563143"><ele>6.0</ele><time>2026-04-10T06:34:39.001Z</time></trkpt><trkpt lat="14.515150100952637" lon="121.07461650471727"><ele>6.0</ele><time>2026-04-10T06:34:40.001Z</time></trkpt><trkpt lat="14.515296850906914" lon="121.07474962110174"><ele>6.0</ele><time>2026-04-10T06:34:41.001Z</time></trkpt><trkpt lat="14.515446428896052" lon="121.07489395364281"><ele>6.0</ele><time>2026-04-10T06:34:42.001Z</time></trkpt><trkpt lat="14.51558311931251" lon="121.07502350690545"><ele>6.333333333333334</ele><time>2026-04-10T06:34:43.001Z</time></trkpt><trkpt lat="14.515721318701393" lon="121.07514321646917"><ele>6.666666666666667</ele><time>2026-04-10T06:34:44.001Z</time></trkpt><trkpt lat="14.515853895622719" lon="121.07526052008876"><ele>7.0</ele><time>2026-04-10T06:34:45.001Z</time></trkpt><trkpt lat="14.515972728561845" lon="121.07538590274523"><ele>7.0</ele><time>2026-04-10T06:34:46.001Z</time></trkpt><trkpt lat="14.516097237495275" lon="121.07549988159757"><ele>7.0</ele><time>2026-04-10T06:34:47.001Z</time></trkpt><trkpt lat="14.516224446320365" lon="121.07562237158079"><ele>7.0</ele><time>2026-04-10T06:34:48.001Z</time></trkpt><trkpt lat="14.516349054704332" lon="121.07573111787244"><ele>6.5</ele><time>2026-04-10T06:34:49.001Z</time></trkpt><trkpt lat="14.516463017365268" lon="121.07584086360372"><ele>6.0</ele><time>2026-04-10T06:34:50.001Z</time></trkpt><trkpt lat="14.516566716361266" lon="121.07593656458839"><ele>5.5</ele><time>2026-04-10T06:34:51.001Z</time></trkpt><trkpt lat="14.51665099946967" lon="121.07601902900062"><ele>5.0</ele><time>2026-04-10T06:34:52.001Z</time></trkpt><trkpt lat="14.516727467285781" lon="121.07609455351422"><ele>5.0</ele><time>2026-04-10T06:34:53.001Z</time></trkpt><trkpt lat="14.516789853145733" lon="121.07615546333236"><ele>5.0</ele><time>2026-04-10T06:34:54.001Z</time></trkpt><trkpt lat="14.516838080594328" lon="121.07619853466025"><ele>5.0</ele><time>2026-04-10T06:34:55.001Z</time></trkpt><trkpt lat="14.51692863933583" lon="121.07626354378428"><ele>5.0</ele><time>2026-04-10T06:34:57.001Z</time></trkpt><trkpt lat="14.51698704195133" lon="121.07630780920772"><ele>5.0</ele><time>2026-04-10T06:34:58.001Z</time></trkpt><trkpt lat="14.517050060800322" lon="121.07637121107365"><ele>5.0</ele><time>2026-04-10T06:34:59.001Z</time></trkpt><trkpt lat="14.517110469036288" lon="121.07643062393694"><ele>5.333333333333334</ele><time>2026-04-10T06:35:00.001Z</time></trkpt><trkpt lat="14.517171848374035" lon="121.07649475402776"><ele>5.666666666666667</ele><time>2026-04-10T06:35:01.001Z</time></trkpt><trkpt lat="14.517217135134082" lon="121.07654688655782"><ele>6.0</ele><time>2026-04-10T06:35:02.001Z</time></trkpt><trkpt lat="14.517275104300545" lon="121.0766113722682"><ele>6.333333333333334</ele><time>2026-04-10T06:35:03.001Z</time></trkpt><trkpt lat="14.517325316360612" lon="121.07666161905648"><ele>6.666666666666667</ele><time>2026-04-10T06:35:04.001Z</time></trkpt><trkpt lat="14.517387474513443" lon="121.07672489249909"><ele>7.0</ele><time>2026-04-10T06:35:05.001Z</time></trkpt><trkpt lat="14.517455744411441" lon="121.07679120307535"><ele>6.199999999999999</ele><time>2026-04-10T06:35:06.001Z</time></trkpt><trkpt lat="14.517528833514627" lon="121.0768656480075"><ele>5.3999999999999995</ele><time>2026-04-10T06:35:07.001Z</time></trkpt><trkpt lat="14.517610289367173" lon="121.07694134440506"><ele>4.6</ele><time>2026-04-10T06:35:08.001Z</time></trkpt><trkpt lat="14.517689060324939" lon="121.07701720626717"><ele>3.8</ele><time>2026-04-10T06:35:09.001Z</time></trkpt><trkpt lat="14.517775534134195" lon="121.07709862782421"><ele>3.0</ele><time>2026-04-10T06:35:10.001Z</time></trkpt><trkpt lat="14.517868123668679" lon="121.077183512303"><ele>3.0</ele><time>2026-04-10T06:35:11.001Z</time></trkpt><trkpt lat="14.51797488440333" lon="121.07727580569554"><ele>3.0</ele><time>2026-04-10T06:35:12.001Z</time></trkpt><trkpt lat="14.518087178286434" lon="121.07736977615389"><ele>3.0</ele><time>2026-04-10T06:35:13.001Z</time></trkpt><trkpt lat="14.518201721300642" lon="121.07748125091446"><ele>3.0</ele><time>2026-04-10T06:35:14.001Z</time></trkpt><trkpt lat="14.51831635931749" lon="121.07759585518193"><ele>3.333333333333333</ele><time>2026-04-10T06:35:15.001Z</time></trkpt><trkpt lat="14.51843038255658" lon="121.07771212672318"><ele>3.6666666666666665</ele><time>2026-04-10T06:35:16.001Z</time></trkpt><trkpt lat="14.518550577336224" lon="121.0778358364288"><ele>4.0</ele><time>2026-04-10T06:35:17.001Z</time></trkpt><trkpt lat="14.51866883654475" lon="121.07795484425853"><ele>4.333333333333333</ele><time>2026-04-10T06:35:18.001Z</time></trkpt><trkpt lat="14.518779864845463" lon="121.07807952439791"><ele>4.666666666666667</ele><time>2026-04-10T06:35:19.001Z</time></trkpt><trkpt lat="14.518891360910784" lon="121.07819944259917"><ele>5.0</ele><time>2026-04-10T06:35:20.001Z</time></trkpt><trkpt lat="14.518992250162807" lon="121.07831924138618"><ele>5.0</ele><time>2026-04-10T06:35:21.002Z</time></trkpt><trkpt lat="14.519084558044495" lon="121.07842428016468"><ele>5.0</ele><time>2026-04-10T06:35:22.002Z</time></trkpt><trkpt lat="14.51917954089716" lon="121.07853763544415"><ele>5.0</ele><time>2026-04-10T06:35:23.002Z</time></trkpt><trkpt lat="14.519273732069518" lon="121.0786535938491"><ele>5.0</ele><time>2026-04-10T06:35:24.002Z</time></trkpt><trkpt lat="14.51937273052818" lon="121.07877881298408"><ele>5.0</ele><time>2026-04-10T06:35:25.002Z</time></trkpt><trkpt lat="14.519467932457415" lon="121.07890983921908"><ele>5.0</ele><time>2026-04-10T06:35:26.002Z</time></trkpt><trkpt lat="14.519561591527518" lon="121.07903755904509"><ele>5.0</ele><time>2026-04-10T06:35:27.002Z</time></trkpt><trkpt lat="14.519655729718366" lon="121.07916662756014"><ele>5.0</ele><time>2026-04-10T06:35:28.002Z</time></trkpt><trkpt lat="14.519740022883884" lon="121.07928521541545"><ele>5.0</ele><time>2026-04-10T06:35:29.002Z</time></trkpt><trkpt lat="14.519804323689996" lon="121.07938300791159"><ele>5.0</ele><time>2026-04-10T06:35:30.002Z</time></trkpt><trkpt lat="14.51985762595512" lon="121.07947412262938"><ele>5.0</ele><time>2026-04-10T06:35:31.002Z</time></trkpt><trkpt lat="14.519915612734582" lon="121.07955343937049"><ele>5.0</ele><time>2026-04-10T06:35:32.002Z</time></trkpt><trkpt lat="14.519972683081452" lon="121.07963323761263"><ele>5.0</ele><time>2026-04-10T06:35:33.002Z</time></trkpt><trkpt lat="14.520034965919793" lon="121.07971995647576"><ele>5.0</ele><time>2026-04-10T06:35:34.002Z</time></trkpt><trkpt lat="14.520088572283598" lon="121.0797988431332"><ele>5.0</ele><time>2026-04-10T06:35:35.002Z</time></trkpt><trkpt lat="14.520149290131128" lon="121.07988502181877"><ele>5.0</ele><time>2026-04-10T06:35:36.002Z</time></trkpt><trkpt lat="14.520212762111235" lon="121.07997407346292"><ele>4.8</ele><time>2026-04-10T06:35:37.002Z</time></trkpt><trkpt lat="14.520266699570021" lon="121.08006047178604"><ele>4.6</ele><time>2026-04-10T06:35:38.002Z</time></trkpt><trkpt lat="14.520322128229028" lon="121.0801420780912"><ele>4.4</ele><time>2026-04-10T06:35:39.002Z</time></trkpt><trkpt lat="14.520377036826105" lon="121.080223999541"><ele>4.2</ele><time>2026-04-10T06:35:40.002Z</time></trkpt><trkpt lat="14.520433124838885" lon="121.08030667066208"><ele>4.0</ele><time>2026-04-10T06:35:41Z</time></trkpt><trkpt lat="14.52048693506303" lon="121.08039267789601"><ele>3.8000000000000003</ele><time>2026-04-10T06:35:42Z</time></trkpt><trkpt lat="14.520553050944129" lon="121.08049071751691"><ele>3.6000000000000005</ele><time>2026-04-10T06:35:43Z</time></trkpt><trkpt lat="14.520620855867778" lon="121.0805873414081"><ele>3.4</ele><time>2026-04-10T06:35:44Z</time></trkpt><trkpt lat="14.520679024313722" lon="121.08067807387259"><ele>3.2</ele><time>2026-04-10T06:35:45Z</time></trkpt><trkpt lat="14.520729618819706" lon="121.08075628990863"><ele>3.0</ele><time>2026-04-10T06:35:46Z</time></trkpt><trkpt lat="14.520777262811272" lon="121.08082736665321"><ele>2.6</ele><time>2026-04-10T06:35:47Z</time></trkpt><trkpt lat="14.520823776423327" lon="121.08090416362042"><ele>2.1999999999999997</ele><time>2026-04-10T06:35:48Z</time></trkpt><trkpt lat="14.520880869649982" lon="121.08099773794571"><ele>1.8</ele><time>2026-04-10T06:35:49Z</time></trkpt><trkpt lat="14.520931484086827" lon="121.08108022940442"><ele>1.4</ele><time>2026-04-10T06:35:50Z</time></trkpt><trkpt lat="14.5209865410059" lon="121.08115375554047"><ele>1.0</ele><time>2026-04-10T06:35:51Z</time></trkpt><trkpt lat="14.52104130211644" lon="121.08122154652928"><ele>0.9999999999999999</ele><time>2026-04-10T06:35:52Z</time></trkpt><trkpt lat="14.521080542097547" lon="121.08127831955154"><ele>1.0</ele><time>2026-04-10T06:35:53Z</time></trkpt><trkpt lat="14.521134045731882" lon="121.08136983879943"><ele>1.0</ele><time>2026-04-10T06:35:55Z</time></trkpt><trkpt lat="14.521188333295013" lon="121.08147016466178"><ele>1.0</ele><time>2026-04-10T06:35:57Z</time></trkpt><trkpt lat="14.521231841944761" lon="121.08153182157608"><ele>0.9999999999999999</ele><time>2026-04-10T06:35:58Z</time></trkpt><trkpt lat="14.521289310901228" lon="121.08159720953276"><ele>1.0</ele><time>2026-04-10T06:35:59Z</time></trkpt><trkpt lat="14.521340954280006" lon="121.08168058156086"><ele>1.0</ele><time>2026-04-10T06:36:00Z</time></trkpt><trkpt lat="14.521384046124759" lon="121.08176785956041"><ele>1.0</ele><time>2026-04-10T06:36:01Z</time></trkpt><trkpt lat="14.521447143858644" lon="121.08186057715585"><ele>1.0</ele><time>2026-04-10T06:36:02Z</time></trkpt><trkpt lat="14.521508485277147" lon="121.08194850671129"><ele>1.0</ele><time>2026-04-10T06:36:03Z</time></trkpt><trkpt lat="14.52157420925353" lon="121.08204557346963"><ele>1.0</ele><time>2026-04-10T06:36:04Z</time></trkpt><trkpt lat="14.521647888132696" lon="121.08215618950757"><ele>1.0</ele><time>2026-04-10T06:36:05Z</time></trkpt><trkpt lat="14.52171984912705" lon="121.0822719692681"><ele>1.0</ele><time>2026-04-10T06:36:06Z</time></trkpt><trkpt lat="14.521802420969157" lon="121.08239341890352"><ele>1.0</ele><time>2026-04-10T06:36:07Z</time></trkpt><trkpt lat="14.521880879217694" lon="121.08251504142015"><ele>1.0</ele><time>2026-04-10T06:36:08Z</time></trkpt><trkpt lat="14.521963694614092" lon="121.08263919907566"><ele>1.5</ele><time>2026-04-10T06:36:09Z</time></trkpt><trkpt lat="14.522049063998287" lon="121.08276868397665"><ele>2.0</ele><time>2026-04-10T06:36:10Z</time></trkpt><trkpt lat="14.522131284275694" lon="121.08289531975106"><ele>2.5</ele><time>2026-04-10T06:36:11Z</time></trkpt><trkpt lat="14.52221736752332" lon="121.08301844078167"><ele>3.0</ele><time>2026-04-10T06:36:12Z</time></trkpt><trkpt lat="14.522292642063654" lon="121.08312763875762"><ele>3.25</ele><time>2026-04-10T06:36:13Z</time></trkpt><trkpt lat="14.52236802732849" lon="121.08323940385226"><ele>3.5</ele><time>2026-04-10T06:36:14Z</time></trkpt><trkpt lat="14.522440153373813" lon="121.08335138641652"><ele>3.75</ele><time>2026-04-10T06:36:15Z</time></trkpt><trkpt lat="14.522512300470872" lon="121.08345941958662"><ele>4.0</ele><time>2026-04-10T06:36:16Z</time></trkpt><trkpt lat="14.522582181175189" lon="121.08356240549817"><ele>4.0</ele><time>2026-04-10T06:36:17Z</time></trkpt><trkpt lat="14.522647079469705" lon="121.0836612921087"><ele>4.0</ele><time>2026-04-10T06:36:18Z</time></trkpt><trkpt lat="14.522704013022704" lon="121.08375637886229"><ele>4.0</ele><time>2026-04-10T06:36:19Z</time></trkpt><trkpt lat="14.522768966579944" lon="121.08385814689785"><ele>4.0</ele><time>2026-04-10T06:36:20Z</time></trkpt><trkpt lat="14.522839455389848" lon="121.08396306890117"><ele>3.75</ele><time>2026-04-10T06:36:21Z</time></trkpt><trkpt lat="14.522908891147972" lon="121.08407040792927"><ele>3.5</ele><time>2026-04-10T06:36:22Z</time></trkpt><trkpt lat="14.522977915294817" lon="121.08417245359125"><ele>3.25</ele><time>2026-04-10T06:36:23Z</time></trkpt><trkpt lat="14.52304465946257" lon="121.08427805631487"><ele>3.0</ele><time>2026-04-10T06:36:24.001Z</time></trkpt><trkpt lat="14.523116143245321" lon="121.08438087897827"><ele>3.0</ele><time>2026-04-10T06:36:25.001Z</time></trkpt><trkpt lat="14.523186866838032" lon="121.08448519932277"><ele>3.0</ele><time>2026-04-10T06:36:26.001Z</time></trkpt><trkpt lat="14.523254895961813" lon="121.08459033278999"><ele>3.0</ele><time>2026-04-10T06:36:27.001Z</time></trkpt><trkpt lat="14.523314576144797" lon="121.08469481494826"><ele>3.0</ele><time>2026-04-10T06:36:28.001Z</time></trkpt><trkpt lat="14.52338550858327" lon="121.08479821228413"><ele>3.0</ele><time>2026-04-10T06:36:29.001Z</time></trkpt><trkpt lat="14.523458456017602" lon="121.08490724385726"><ele>3.0</ele><time>2026-04-10T06:36:30.001Z</time></trkpt><trkpt lat="14.52353130908537" lon="121.0850170991697"><ele>3.0</ele><time>2026-04-10T06:36:31.001Z</time></trkpt><trkpt lat="14.523595796148783" lon="121.0851215069924"><ele>3.0</ele><time>2026-04-10T06:36:32.001Z</time></trkpt><trkpt lat="14.523669703381026" lon="121.08522976201377"><ele>3.25</ele><time>2026-04-10T06:36:33.001Z</time></trkpt><trkpt lat="14.52374479668211" lon="121.08533983837727"><ele>3.5</ele><time>2026-04-10T06:36:34.001Z</time></trkpt><trkpt lat="14.523816949001361" lon="121.08544898207668"><ele>3.75</ele><time>2026-04-10T06:36:35.001Z</time></trkpt><trkpt lat="14.52389184926308" lon="121.0855647052713"><ele>4.0</ele><time>2026-04-10T06:36:36.001Z</time></trkpt><trkpt lat="14.523970786693562" lon="121.08569050366364"><ele>4.0</ele><time>2026-04-10T06:36:37.001Z</time></trkpt><trkpt lat="14.524057313258472" lon="121.0858179465361"><ele>4.0</ele><time>2026-04-10T06:36:38.001Z</time></trkpt><trkpt lat="14.524147138666835" lon="121.08595099132978"><ele>4.0</ele><time>2026-04-10T06:36:39.001Z</time></trkpt><trkpt lat="14.524235929784727" lon="121.0860876575344"><ele>4.0</ele><time>2026-04-10T06:36:40.001Z</time></trkpt><trkpt lat="14.524330756850574" lon="121.08623160995808"><ele>4.0</ele><time>2026-04-10T06:36:41.001Z</time></trkpt><trkpt lat="14.524420433682097" lon="121.08636868689916"><ele>4.0</ele><time>2026-04-10T06:36:42.001Z</time></trkpt><trkpt lat="14.524519047985525" lon="121.08651267292458"><ele>4.333333333333333</ele><time>2026-04-10T06:36:43.001Z</time></trkpt><trkpt lat="14.524612363931888" lon="121.08665358624164"><ele>4.666666666666667</ele><time>2026-04-10T06:36:44.001Z</time></trkpt><trkpt lat="14.524708084193147" lon="121.08679457679234"><ele>5.0</ele><time>2026-04-10T06:36:45.001Z</time></trkpt><trkpt lat="14.524797231157688" lon="121.08693164702451"><ele>5.0</ele><time>2026-04-10T06:36:46.001Z</time></trkpt><trkpt lat="14.52488560615199" lon="121.08706835819912"><ele>5.0</ele><time>2026-04-10T06:36:47.001Z</time></trkpt><trkpt lat="14.52497439306732" lon="121.08719928535328"><ele>5.0</ele><time>2026-04-10T06:36:48.001Z</time></trkpt><trkpt lat="14.52506051371229" lon="121.08732569524216"><ele>4.5</ele><time>2026-04-10T06:36:49.001Z</time></trkpt><trkpt lat="14.525142390809599" lon="121.08745031401038"><ele>4.0</ele><time>2026-04-10T06:36:50.001Z</time></trkpt><trkpt lat="14.525218900006488" lon="121.08756592190105"><ele>3.5</ele><time>2026-04-10T06:36:51.001Z</time></trkpt><trkpt lat="14.525294317670447" lon="121.08767835322394"><ele>3.0</ele><time>2026-04-10T06:36:52.001Z</time></trkpt><trkpt lat="14.525375637517953" lon="121.08780008861685"><ele>3.666666666666667</ele><time>2026-04-10T06:36:53.001Z</time></trkpt><trkpt lat="14.525457926925965" lon="121.087925232777"><ele>4.333333333333334</ele><time>2026-04-10T06:36:54.001Z</time></trkpt><trkpt lat="14.52554121695395" lon="121.0880538940221"><ele>5.0</ele><time>2026-04-10T06:36:55.001Z</time></trkpt><trkpt lat="14.525627260046894" lon="121.08818865420571"><ele>4.666666666666667</ele><time>2026-04-10T06:36:56.001Z</time></trkpt><trkpt lat="14.525715885119965" lon="121.08832187511514"><ele>4.333333333333333</ele><time>2026-04-10T06:36:57.001Z</time></trkpt><trkpt lat="14.525810429701426" lon="121.08846280616893"><ele>4.0</ele><time>2026-04-10T06:36:58.001Z</time></trkpt><trkpt lat="14.525903054488777" lon="121.08859943811345"><ele>4.0</ele><time>2026-04-10T06:36:59.001Z</time></trkpt><trkpt lat="14.526003988866401" lon="121.08874823241696"><ele>4.0</ele><time>2026-04-10T06:37:00.001Z</time></trkpt><trkpt lat="14.526107296395919" lon="121.08890131708901"><ele>4.0</ele><time>2026-04-10T06:37:01.001Z</time></trkpt><trkpt lat="14.52620573605564" lon="121.08905093197995"><ele>3.333333333333333</ele><time>2026-04-10T06:37:02.001Z</time></trkpt><trkpt lat="14.526303565625616" lon="121.08919770044376"><ele>2.6666666666666665</ele><time>2026-04-10T06:37:03.001Z</time></trkpt><trkpt lat="14.52640834484572" lon="121.08935626722135"><ele>2.0</ele><time>2026-04-10T06:37:04.001Z</time></trkpt><trkpt lat="14.526507683448628" lon="121.08950788059235"><ele>2.0</ele><time>2026-04-10T06:37:05.001Z</time></trkpt><trkpt lat="14.526610742356953" lon="121.08966091712158"><ele>2.0</ele><time>2026-04-10T06:37:06.001Z</time></trkpt><trkpt lat="14.526712185384012" lon="121.08981014877074"><ele>2.0</ele><time>2026-04-10T06:37:07.001Z</time></trkpt><trkpt lat="14.526816680832628" lon="121.08996338333512"><ele>2.6666666666666665</ele><time>2026-04-10T06:37:08.001Z</time></trkpt><trkpt lat="14.526919095590122" lon="121.09012326739735"><ele>3.333333333333333</ele><time>2026-04-10T06:37:09.001Z</time></trkpt><trkpt lat="14.527023616712015" lon="121.09028026328856"><ele>4.0</ele><time>2026-04-10T06:37:10.001Z</time></trkpt><trkpt lat="14.527128912326006" lon="121.0904369361499"><ele>4.333333333333333</ele><time>2026-04-10T06:37:11.001Z</time></trkpt><trkpt lat="14.527241167603114" lon="121.09059313728366"><ele>4.666666666666667</ele><time>2026-04-10T06:37:12.001Z</time></trkpt><trkpt lat="14.527347619114856" lon="121.09074790840835"><ele>5.0</ele><time>2026-04-10T06:37:13.001Z</time></trkpt><trkpt lat="14.527460873638386" lon="121.09091361762941"><ele>4.333333333333334</ele><time>2026-04-10T06:37:14.001Z</time></trkpt><trkpt lat="14.527565579436482" lon="121.09106592872719"><ele>3.666666666666667</ele><time>2026-04-10T06:37:15.001Z</time></trkpt><trkpt lat="14.527673433274309" lon="121.09122620416055"><ele>3.0</ele><time>2026-04-10T06:37:16.001Z</time></trkpt><trkpt lat="14.527765722098197" lon="121.09136914604272"><ele>3.0</ele><time>2026-04-10T06:37:17.001Z</time></trkpt><trkpt lat="14.52785823478064" lon="121.09151936376423"><ele>3.0</ele><time>2026-04-10T06:37:18.001Z</time></trkpt><trkpt lat="14.527946102192736" lon="121.09164971733094"><ele>3.0</ele><time>2026-04-10T06:37:19.001Z</time></trkpt><trkpt lat="14.528026208208056" lon="121.09177459373895"><ele>3.25</ele><time>2026-04-10T06:37:20.001Z</time></trkpt><trkpt lat="14.52810393374551" lon="121.09188970716683"><ele>3.5</ele><time>2026-04-10T06:37:21.001Z</time></trkpt><trkpt lat="14.528176885136142" lon="121.09199171366598"><ele>3.75</ele><time>2026-04-10T06:37:22.001Z</time></trkpt><trkpt lat="14.528252717039386" lon="121.09210075497313"><ele>4.0</ele><time>2026-04-10T06:37:23.002Z</time></trkpt><trkpt lat="14.52833505928349" lon="121.09221580595722"><ele>4.0</ele><time>2026-04-10T06:37:24.002Z</time></trkpt><trkpt lat="14.528412579965647" lon="121.09233385910946"><ele>4.0</ele><time>2026-04-10T06:37:25.002Z</time></trkpt><trkpt lat="14.52849086200241" lon="121.09245487539677"><ele>4.0</ele><time>2026-04-10T06:37:26.002Z</time></trkpt><trkpt lat="14.528570521657379" lon="121.09257045890072"><ele>4.0</ele><time>2026-04-10T06:37:27.002Z</time></trkpt><trkpt lat="14.528649023192877" lon="121.09270096969139"><ele>4.25</ele><time>2026-04-10T06:37:28.002Z</time></trkpt><trkpt lat="14.528731425884272" lon="121.09282685859358"><ele>4.5</ele><time>2026-04-10T06:37:29.002Z</time></trkpt><trkpt lat="14.528812205025323" lon="121.09294898362242"><ele>4.75</ele><time>2026-04-10T06:37:30.002Z</time></trkpt><trkpt lat="14.528893163291817" lon="121.09306481544779"><ele>5.0</ele><time>2026-04-10T06:37:31.002Z</time></trkpt><trkpt lat="14.528971509958668" lon="121.09318288814374"><ele>4.75</ele><time>2026-04-10T06:37:32.002Z</time></trkpt><trkpt lat="14.529050954380098" lon="121.09330001764614"><ele>4.5</ele><time>2026-04-10T06:37:33.002Z</time></trkpt><trkpt lat="14.529129462569552" lon="121.09341842853517"><ele>4.25</ele><time>2026-04-10T06:37:34.002Z</time></trkpt><trkpt lat="14.529208053525393" lon="121.09353849372735"><ele>4.0</ele><time>2026-04-10T06:37:35.002Z</time></trkpt><trkpt lat="14.529289681904597" lon="121.09365549464478"><ele>4.0</ele><time>2026-04-10T06:37:36.002Z</time></trkpt><trkpt lat="14.529370888986596" lon="121.09377924206957"><ele>4.0</ele><time>2026-04-10T06:37:37.002Z</time></trkpt><trkpt lat="14.52944873042795" lon="121.0939048508229"><ele>4.0</ele><time>2026-04-10T06:37:38.002Z</time></trkpt><trkpt lat="14.529530037341164" lon="121.09401339658669"><ele>4.0</ele><time>2026-04-10T06:37:39.002Z</time></trkpt><trkpt lat="14.529611394700542" lon="121.09412836476966"><ele>4.25</ele><time>2026-04-10T06:37:40.002Z</time></trkpt><trkpt lat="14.52968389974644" lon="121.09424422367834"><ele>4.5</ele><time>2026-04-10T06:37:41.002Z</time></trkpt><trkpt lat="14.529748348993524" lon="121.09433609382542"><ele>4.75</ele><time>2026-04-10T06:37:42.002Z</time></trkpt><trkpt lat="14.529809929911142" lon="121.09443550524982"><ele>5.0</ele><time>2026-04-10T06:37:43.002Z</time></trkpt><trkpt lat="14.529868884918038" lon="121.0945350611958"><ele>5.0</ele><time>2026-04-10T06:37:44.002Z</time></trkpt><trkpt lat="14.5299303615581" lon="121.09464495916771"><ele>5.0</ele><time>2026-04-10T06:37:45.002Z</time></trkpt><trkpt lat="14.52999873532693" lon="121.09474971950816"><ele>5.0</ele><time>2026-04-10T06:37:46.002Z</time></trkpt><trkpt lat="14.530068922546969" lon="121.09485278261177"><ele>5.0</ele><time>2026-04-10T06:37:47Z</time></trkpt><trkpt lat="14.530143362485564" lon="121.09496145275244"><ele>5.25</ele><time>2026-04-10T06:37:48Z</time></trkpt><trkpt lat="14.53021788821074" lon="121.09507622263203"><ele>5.5</ele><time>2026-04-10T06:37:49Z</time></trkpt><trkpt lat="14.530297274461711" lon="121.09519173150943"><ele>5.75</ele><time>2026-04-10T06:37:50Z</time></trkpt><trkpt lat="14.530374597384352" lon="121.0953047014963"><ele>6.0</ele><time>2026-04-10T06:37:51Z</time></trkpt><trkpt lat="14.530453787438347" lon="121.09542541160093"><ele>6.0</ele><time>2026-04-10T06:37:52Z</time></trkpt><trkpt lat="14.530533471366093" lon="121.09554700798614"><ele>6.0</ele><time>2026-04-10T06:37:53Z</time></trkpt><trkpt lat="14.53061495502443" lon="121.0956683691095"><ele>6.0</ele><time>2026-04-10T06:37:54Z</time></trkpt><trkpt lat="14.530700778579876" lon="121.0957938895225"><ele>6.0</ele><time>2026-04-10T06:37:55Z</time></trkpt><trkpt lat="14.530784613548786" lon="121.09591973903368"><ele>6.0</ele><time>2026-04-10T06:37:56Z</time></trkpt><trkpt lat="14.530866938998413" lon="121.09604192828928"><ele>6.0</ele><time>2026-04-10T06:37:57Z</time></trkpt><trkpt lat="14.530952176982584" lon="121.0961695983111"><ele>6.0</ele><time>2026-04-10T06:37:58Z</time></trkpt><trkpt lat="14.531033895503096" lon="121.09628999881471"><ele>6.0</ele><time>2026-04-10T06:37:59Z</time></trkpt><trkpt lat="14.531118112579815" lon="121.09641427669102"><ele>6.0</ele><time>2026-04-10T06:38:00Z</time></trkpt><trkpt lat="14.531194861330304" lon="121.096536702582"><ele>6.0</ele><time>2026-04-10T06:38:01Z</time></trkpt><trkpt lat="14.531280348317253" lon="121.0966677085658"><ele>6.0</ele><time>2026-04-10T06:38:02Z</time></trkpt><trkpt lat="14.531365030229175" lon="121.09679482815898"><ele>6.0</ele><time>2026-04-10T06:38:03Z</time></trkpt><trkpt lat="14.531450956846106" lon="121.09692317954722"><ele>3.0</ele><time>2026-04-10T06:38:04Z</time></trkpt><trkpt lat="14.531537149874046" lon="121.09704504969423"><ele>0.0</ele><time>2026-04-10T06:38:05Z</time></trkpt><trkpt lat="14.531625241263443" lon="121.09717756101247"><ele>-3.0</ele><time>2026-04-10T06:38:06Z</time></trkpt><trkpt lat="14.531708261665061" lon="121.09730636306129"><ele>-0.6666666666666667</ele><time>2026-04-10T06:38:07Z</time></trkpt><trkpt lat="14.531801219601975" lon="121.09744357687109"><ele>1.6666666666666665</ele><time>2026-04-10T06:38:08Z</time></trkpt><trkpt lat="14.53189131689511" lon="121.09758254610016"><ele>4.0</ele><time>2026-04-10T06:38:09Z</time></trkpt><trkpt lat="14.53197812912006" lon="121.09772231356719"><ele>4.0</ele><time>2026-04-10T06:38:10Z</time></trkpt><trkpt lat="14.532074038020786" lon="121.09786545751895"><ele>4.0</ele><time>2026-04-10T06:38:11Z</time></trkpt><trkpt lat="14.532165682869163" lon="121.09801324206472"><ele>4.0</ele><time>2026-04-10T06:38:12Z</time></trkpt><trkpt lat="14.532260457114921" lon="121.09815866142254"><ele>4.666666666666666</ele><time>2026-04-10T06:38:13Z</time></trkpt><trkpt lat="14.532358386923635" lon="121.09830608563928"><ele>5.333333333333333</ele><time>2026-04-10T06:38:14Z</time></trkpt><trkpt lat="14.5324568531122" lon="121.09845481413107"><ele>6.0</ele><time>2026-04-10T06:38:15Z</time></trkpt><trkpt lat="14.532552019569405" lon="121.09860507843258"><ele>6.0</ele><time>2026-04-10T06:38:16Z</time></trkpt><trkpt lat="14.532645400961442" lon="121.09874956409462"><ele>6.0</ele><time>2026-04-10T06:38:17Z</time></trkpt><trkpt lat="14.532736249842726" lon="121.09889377756465"><ele>6.0</ele><time>2026-04-10T06:38:18Z</time></trkpt><trkpt lat="14.532828959805855" lon="121.09904096800275"><ele>6.0</ele><time>2026-04-10T06:38:19Z</time></trkpt><trkpt lat="14.532928888206756" lon="121.09917876158657"><ele>6.0</ele><time>2026-04-10T06:38:20Z</time></trkpt><trkpt lat="14.533023941684162" lon="121.0993196823305"><ele>6.0</ele><time>2026-04-10T06:38:21Z</time></trkpt><trkpt lat="14.533115691290693" lon="121.09946770886532"><ele>6.0</ele><time>2026-04-10T06:38:22Z</time></trkpt><trkpt lat="14.533212664093803" lon="121.09960582144251"><ele>6.0</ele><time>2026-04-10T06:38:23Z</time></trkpt><trkpt lat="14.533305887901372" lon="121.099744493557"><ele>6.0</ele><time>2026-04-10T06:38:24Z</time></trkpt><trkpt lat="14.533392790708026" lon="121.09988541353697"><ele>6.0</ele><time>2026-04-10T06:38:25Z</time></trkpt><trkpt lat="14.533482375016968" lon="121.10002453581784"><ele>6.0</ele><time>2026-04-10T06:38:26Z</time></trkpt><trkpt lat="14.533577461189449" lon="121.10016106848772"><ele>6.0</ele><time>2026-04-10T06:38:27Z</time></trkpt><trkpt lat="14.533665088370274" lon="121.10029406758576"><ele>6.25</ele><time>2026-04-10T06:38:28Z</time></trkpt><trkpt lat="14.53375458369229" lon="121.10040827129858"><ele>6.5</ele><time>2026-04-10T06:38:29Z</time></trkpt><trkpt lat="14.533828049894845" lon="121.10054242039985"><ele>6.75</ele><time>2026-04-10T06:38:30Z</time></trkpt><trkpt lat="14.533906828818063" lon="121.10065714144484"><ele>7.0</ele><time>2026-04-10T06:38:31Z</time></trkpt><trkpt lat="14.533980453239222" lon="121.10076551712763"><ele>6.25</ele><time>2026-04-10T06:38:32Z</time></trkpt><trkpt lat="14.534052429292771" lon="121.10087558114222"><ele>5.5</ele><time>2026-04-10T06:38:33Z</time></trkpt><trkpt lat="14.534131489731315" lon="121.10098866983735"><ele>4.75</ele><time>2026-04-10T06:38:34Z</time></trkpt><trkpt lat="14.534207797059235" lon="121.1010973982455"><ele>4.0</ele><time>2026-04-10T06:38:35Z</time></trkpt><trkpt lat="14.534291950078476" lon="121.10121371245907"><ele>4.0</ele><time>2026-04-10T06:38:36Z</time></trkpt><trkpt lat="14.534370721356753" lon="121.10133271354765"><ele>4.0</ele><time>2026-04-10T06:38:37Z</time></trkpt><trkpt lat="14.534454621545407" lon="121.10144923641562"><ele>4.0</ele><time>2026-04-10T06:38:38.001Z</time></trkpt><trkpt lat="14.534535062207393" lon="121.10156275984015"><ele>4.0</ele><time>2026-04-10T06:38:39.001Z</time></trkpt><trkpt lat="14.534617760765967" lon="121.10168391785074"><ele>4.25</ele><time>2026-04-10T06:38:40.001Z</time></trkpt><trkpt lat="14.53469604154674" lon="121.10181609775171"><ele>4.5</ele><time>2026-04-10T06:38:41.001Z</time></trkpt><trkpt lat="14.53476997833971" lon="121.10192526567667"><ele>4.75</ele><time>2026-04-10T06:38:42.001Z</time></trkpt><trkpt lat="14.534838755523104" lon="121.10203338281416"><ele>5.0</ele><time>2026-04-10T06:38:43.001Z</time></trkpt><trkpt lat="14.534916144358798" lon="121.10214543123921"><ele>5.0</ele><time>2026-04-10T06:38:44.001Z</time></trkpt><trkpt lat="14.534992758113466" lon="121.10225746241203"><ele>5.0</ele><time>2026-04-10T06:38:45.001Z</time></trkpt><trkpt lat="14.535072801571845" lon="121.10237752621082"><ele>5.0</ele><time>2026-04-10T06:38:46.001Z</time></trkpt><trkpt lat="14.535153670628583" lon="121.10250032529788"><ele>5.0</ele><time>2026-04-10T06:38:47.001Z</time></trkpt><trkpt lat="14.535233562043265" lon="121.10262724881856"><ele>3.75</ele><time>2026-04-10T06:38:48.001Z</time></trkpt><trkpt lat="14.535315355612054" lon="121.10275268316634"><ele>2.5</ele><time>2026-04-10T06:38:49.001Z</time></trkpt><trkpt lat="14.53538956817044" lon="121.10286678139502"><ele>1.25</ele><time>2026-04-10T06:38:50.001Z</time></trkpt><trkpt lat="14.53545954717995" lon="121.10296732773176"><ele>0.0</ele><time>2026-04-10T06:38:51.001Z</time></trkpt><trkpt lat="14.53551488145081" lon="121.10304854964804"><ele>0.0</ele><time>2026-04-10T06:38:52.001Z</time></trkpt><trkpt lat="14.535572957641996" lon="121.1031443220029"><ele>0.0</ele><time>2026-04-10T06:38:54.001Z</time></trkpt><trkpt lat="14.53559966435274" lon="121.10324430767193"><ele>0.0</ele><time>2026-04-10T06:38:56.001Z</time></trkpt><trkpt lat="14.535593435473723" lon="121.10332398270032"><ele>0.0</ele><time>2026-04-10T06:38:57.001Z</time></trkpt><trkpt lat="14.535557070505458" lon="121.10338652025837"><ele>0.0</ele><time>2026-04-10T06:38:58.001Z</time></trkpt><trkpt lat="14.535495058356933" lon="121.10345074302157"><ele>0.0</ele><time>2026-04-10T06:38:59.001Z</time></trkpt><trkpt lat="14.535417982824656" lon="121.10349244977716"><ele>1.2</ele><time>2026-04-10T06:39:00.001Z</time></trkpt><trkpt lat="14.53533237479086" lon="121.10351996487174"><ele>2.4</ele><time>2026-04-10T06:39:01.001Z</time></trkpt><trkpt lat="14.535253302199717" lon="121.10355633246913"><ele>3.5999999999999996</ele><time>2026-04-10T06:39:02.001Z</time></trkpt><trkpt lat="14.535176508337722" lon="121.10361186325058"><ele>4.8</ele><time>2026-04-10T06:39:03.001Z</time></trkpt><trkpt lat="14.535100975349067" lon="121.10368072683967"><ele>6.0</ele><time>2026-04-10T06:39:04.001Z</time></trkpt><trkpt lat="14.535025574592279" lon="121.10374351684196"><ele>6.0</ele><time>2026-04-10T06:39:05.001Z</time></trkpt><trkpt lat="14.534958998983697" lon="121.10381718791035"><ele>6.0</ele><time>2026-04-10T06:39:06.001Z</time></trkpt><trkpt lat="14.534899959609472" lon="121.10388390195384"><ele>6.0</ele><time>2026-04-10T06:39:07.001Z</time></trkpt><trkpt lat="14.534852651846611" lon="121.10394703882959"><ele>6.0</ele><time>2026-04-10T06:39:08.001Z</time></trkpt><trkpt lat="14.53480454374816" lon="121.10402640604909"><ele>6.0</ele><time>2026-04-10T06:39:09.001Z</time></trkpt><trkpt lat="14.53476180039343" lon="121.10411522605611"><ele>6.0</ele><time>2026-04-10T06:39:10.001Z</time></trkpt><trkpt lat="14.534717892053928" lon="121.10420076954695"><ele>5.8</ele><time>2026-04-10T06:39:11.001Z</time></trkpt><trkpt lat="14.53466526509502" lon="121.10428714587617"><ele>5.6</ele><time>2026-04-10T06:39:12.001Z</time></trkpt><trkpt lat="14.53460419804718" lon="121.10437388508258"><ele>5.4</ele><time>2026-04-10T06:39:13.001Z</time></trkpt><trkpt lat="14.534538447201612" lon="121.10446317398322"><ele>5.2</ele><time>2026-04-10T06:39:14.001Z</time></trkpt><trkpt lat="14.534471873005653" lon="121.10455821702935"><ele>5.0</ele><time>2026-04-10T06:39:15.001Z</time></trkpt><trkpt lat="14.53440554711292" lon="121.10465711047874"><ele>5.0</ele><time>2026-04-10T06:39:16.001Z</time></trkpt><trkpt lat="14.53433892367161" lon="121.10476099514527"><ele>5.0</ele><time>2026-04-10T06:39:17.001Z</time></trkpt><trkpt lat="14.534265883629889" lon="121.10486332811512"><ele>5.0</ele><time>2026-04-10T06:39:18.001Z</time></trkpt><trkpt lat="14.534189138383757" lon="121.10496742858724"><ele>5.0</ele><time>2026-04-10T06:39:19.001Z</time></trkpt><trkpt lat="14.534112668827902" lon="121.10507167978555"><ele>5.0</ele><time>2026-04-10T06:39:20.001Z</time></trkpt><trkpt lat="14.534032264676997" lon="121.1051789050973"><ele>5.0</ele><time>2026-04-10T06:39:21.001Z</time></trkpt><trkpt lat="14.533957086488153" lon="121.10528577879212"><ele>5.0</ele><time>2026-04-10T06:39:22.001Z</time></trkpt><trkpt lat="14.533880702117274" lon="121.1053952577027"><ele>5.0</ele><time>2026-04-10T06:39:23.001Z</time></trkpt><trkpt lat="14.533805666399022" lon="121.1055018246574"><ele>5.0</ele><time>2026-04-10T06:39:24.001Z</time></trkpt><trkpt lat="14.533723778483923" lon="121.1056064847658"><ele>5.0</ele><time>2026-04-10T06:39:25.001Z</time></trkpt><trkpt lat="14.533642425722649" lon="121.10570458324916"><ele>5.0</ele><time>2026-04-10T06:39:26.001Z</time></trkpt><trkpt lat="14.533569779773629" lon="121.10579140796489"><ele>5.0</ele><time>2026-04-10T06:39:27.001Z</time></trkpt><trkpt lat="14.533500773758444" lon="121.1058728290982"><ele>4.0</ele><time>2026-04-10T06:39:28.001Z</time></trkpt><trkpt lat="14.533438748488352" lon="121.10595753686238"><ele>3.0</ele><time>2026-04-10T06:39:29.001Z</time></trkpt><trkpt lat="14.53339431046012" lon="121.1060504964397"><ele>2.0</ele><time>2026-04-10T06:39:30.001Z</time></trkpt><trkpt lat="14.533359265360113" lon="121.10615461224067"><ele>1.0</ele><time>2026-04-10T06:39:31.001Z</time></trkpt><trkpt lat="14.533342242873136" lon="121.10627039957849"><ele>0.0</ele><time>2026-04-10T06:39:32.001Z</time></trkpt><trkpt lat="14.533332788108357" lon="121.10640495364177"><ele>0.0</ele><time>2026-04-10T06:39:33.001Z</time></trkpt><trkpt lat="14.533334590362733" lon="121.10652223152121"><ele>0.0</ele><time>2026-04-10T06:39:34.001Z</time></trkpt><trkpt lat="14.533334258943166" lon="121.10665156842781"><ele>0.0</ele><time>2026-04-10T06:39:35.001Z</time></trkpt><trkpt lat="14.533324447267907" lon="121.10677394468706"><ele>0.0</ele><time>2026-04-10T06:39:36.001Z</time></trkpt><trkpt lat="14.533313863266375" lon="121.106901917786"><ele>0.75</ele><time>2026-04-10T06:39:37.001Z</time></trkpt><trkpt lat="14.533292921518507" lon="121.10702629186417"><ele>1.5</ele><time>2026-04-10T06:39:38.001Z</time></trkpt><trkpt lat="14.533262818347302" lon="121.10714671293864"><ele>2.25</ele><time>2026-04-10T06:39:39.002Z</time></trkpt><trkpt lat="14.533227971035657" lon="121.10727368302717"><ele>3.0</ele><time>2026-04-10T06:39:40.002Z</time></trkpt><trkpt lat="14.53318619669009" lon="121.10740122042422"><ele>3.5</ele><time>2026-04-10T06:39:41.002Z</time></trkpt><trkpt lat="14.533142692674627" lon="121.10752824896755"><ele>4.0</ele><time>2026-04-10T06:39:42.002Z</time></trkpt><trkpt lat="14.533096939820979" lon="121.10765815972712"><ele>4.5</ele><time>2026-04-10T06:39:43.002Z</time></trkpt><trkpt lat="14.533049760910668" lon="121.10778458512111"><ele>5.0</ele><time>2026-04-10T06:39:44.002Z</time></trkpt><trkpt lat="14.533006707351602" lon="121.10790670831557"><ele>5.0</ele><time>2026-04-10T06:39:45.002Z</time></trkpt><trkpt lat="14.532953609691681" lon="121.10801891614759"><ele>5.0</ele><time>2026-04-10T06:39:46.002Z</time></trkpt><trkpt lat="14.532898824121938" lon="121.1081302098283"><ele>5.0</ele><time>2026-04-10T06:39:47.002Z</time></trkpt><trkpt lat="14.532833162934816" lon="121.10824041091338"><ele>5.0</ele><time>2026-04-10T06:39:48.002Z</time></trkpt><trkpt lat="14.532751482625255" lon="121.10834202364622"><ele>4.75</ele><time>2026-04-10T06:39:49.002Z</time></trkpt><trkpt lat="14.532651812865353" lon="121.10842745606071"><ele>4.5</ele><time>2026-04-10T06:39:50.002Z</time></trkpt><trkpt lat="14.532539197474026" lon="121.10850755896249"><ele>4.25</ele><time>2026-04-10T06:39:51.002Z</time></trkpt><trkpt lat="14.532422059679975" lon="121.10857889743473"><ele>4.0</ele><time>2026-04-10T06:39:52.002Z</time></trkpt><trkpt lat="14.532303475411311" lon="121.10865572474592"><ele>4.0</ele><time>2026-04-10T06:39:53Z</time></trkpt><trkpt lat="14.532184009423313" lon="121.10873616737423"><ele>4.0</ele><time>2026-04-10T06:39:54Z</time></trkpt><trkpt lat="14.532064411247275" lon="121.10881584535088"><ele>4.0</ele><time>2026-04-10T06:39:55Z</time></trkpt><trkpt lat="14.531939651635858" lon="121.10890052806074"><ele>4.0</ele><time>2026-04-10T06:39:56Z</time></trkpt><trkpt lat="14.531817177446344" lon="121.10898476741566"><ele>4.0</ele><time>2026-04-10T06:39:57Z</time></trkpt><trkpt lat="14.531694735089566" lon="121.10906961290799"><ele>4.0</ele><time>2026-04-10T06:39:58Z</time></trkpt><trkpt lat="14.531585991055039" lon="121.10914762393566"><ele>4.0</ele><time>2026-04-10T06:39:59Z</time></trkpt><trkpt lat="14.531483473745345" lon="121.10923242277316"><ele>4.0</ele><time>2026-04-10T06:40:00Z</time></trkpt><trkpt lat="14.531396562899161" lon="121.10932618802906"><ele>4.0</ele><time>2026-04-10T06:40:01Z</time></trkpt><trkpt lat="14.531332525558284" lon="121.10941799347985"><ele>4.0</ele><time>2026-04-10T06:40:02Z</time></trkpt><trkpt lat="14.5312843825812" lon="121.10951273058255"><ele>4.0</ele><time>2026-04-10T06:40:03Z</time></trkpt><trkpt lat="14.53126427579674" lon="121.10959550940105"><ele>4.0</ele><time>2026-04-10T06:40:04Z</time></trkpt><trkpt lat="14.531260406494653" lon="121.10968019534492"><ele>4.0</ele><time>2026-04-10T06:40:05Z</time></trkpt><trkpt lat="14.531277170541522" lon="121.10976634524218"><ele>4.0</ele><time>2026-04-10T06:40:06Z</time></trkpt><trkpt lat="14.53131922845312" lon="121.10985293503424"><ele>4.0</ele><time>2026-04-10T06:40:07Z</time></trkpt><trkpt lat="14.531378831836015" lon="121.10993047807014"><ele>4.0</ele><time>2026-04-10T06:40:08Z</time></trkpt><trkpt lat="14.53145402716896" lon="121.10999676786156"><ele>4.0</ele><time>2026-04-10T06:40:09Z</time></trkpt><trkpt lat="14.5315424607972" lon="121.11005517669511"><ele>4.0</ele><time>2026-04-10T06:40:10Z</time></trkpt><trkpt lat="14.531643617286596" lon="121.11011938802869"><ele>4.0</ele><time>2026-04-10T06:40:11Z</time></trkpt><trkpt lat="14.531744670926118" lon="121.1101894834602"><ele>4.0</ele><time>2026-04-10T06:40:12Z</time></trkpt><trkpt lat="14.53185139842541" lon="121.11026996470999"><ele>4.0</ele><time>2026-04-10T06:40:13Z</time></trkpt><trkpt lat="14.531958702116933" lon="121.11035010108219"><ele>4.0</ele><time>2026-04-10T06:40:14Z</time></trkpt><trkpt lat="14.532071965761121" lon="121.1104352469795"><ele>4.0</ele><time>2026-04-10T06:40:15Z</time></trkpt><trkpt lat="14.532185588633833" lon="121.11052172250994"><ele>4.0</ele><time>2026-04-10T06:40:16Z</time></trkpt><trkpt lat="14.53230252447643" lon="121.11061484910607"><ele>4.0</ele><time>2026-04-10T06:40:17Z</time></trkpt><trkpt lat="14.532416948746508" lon="121.11070567367129"><ele>4.0</ele><time>2026-04-10T06:40:18Z</time></trkpt><trkpt lat="14.53253013149825" lon="121.11079782824875"><ele>4.25</ele><time>2026-04-10T06:40:19Z</time></trkpt><trkpt lat="14.532645999753893" lon="121.11088868587008"><ele>4.5</ele><time>2026-04-10T06:40:20Z</time></trkpt><trkpt lat="14.532759906173478" lon="121.1109750242944"><ele>4.75</ele><time>2026-04-10T06:40:21Z</time></trkpt><trkpt lat="14.532871710013522" lon="121.1110667840367"><ele>5.0</ele><time>2026-04-10T06:40:22Z</time></trkpt><trkpt lat="14.5329882023756" lon="121.11116248274817"><ele>5.0</ele><time>2026-04-10T06:40:23Z</time></trkpt><trkpt lat="14.533096714425959" lon="121.11126193233314"><ele>5.0</ele><time>2026-04-10T06:40:24Z</time></trkpt><trkpt lat="14.533198773908854" lon="121.1113693847763"><ele>5.0</ele><time>2026-04-10T06:40:25Z</time></trkpt><trkpt lat="14.53329617901968" lon="121.11147708278253"><ele>5.0</ele><time>2026-04-10T06:40:26Z</time></trkpt><trkpt lat="14.533382367595602" lon="121.11157831124392"><ele>5.25</ele><time>2026-04-10T06:40:27Z</time></trkpt><trkpt lat="14.533466180079714" lon="121.11167295667626"><ele>5.5</ele><time>2026-04-10T06:40:28Z</time></trkpt><trkpt lat="14.533551361030831" lon="121.11176965031386"><ele>5.75</ele><time>2026-04-10T06:40:29Z</time></trkpt><trkpt lat="14.53363829547535" lon="121.1118636891267"><ele>6.0</ele><time>2026-04-10T06:40:30Z</time></trkpt><trkpt lat="14.533735514347713" lon="121.11195707500168"><ele>5.5</ele><time>2026-04-10T06:40:31Z</time></trkpt><trkpt lat="14.533843992237209" lon="121.11204399884461"><ele>5.0</ele><time>2026-04-10T06:40:32Z</time></trkpt><trkpt lat="14.533964329951369" lon="121.11211730223903"><ele>4.5</ele><time>2026-04-10T06:40:33Z</time></trkpt><trkpt lat="14.534083553623399" lon="121.11218392940977"><ele>4.0</ele><time>2026-04-10T06:40:34Z</time></trkpt><trkpt lat="14.534223095312162" lon="121.11226151526503"><ele>4.0</ele><time>2026-04-10T06:40:35Z</time></trkpt><trkpt lat="14.534351163534557" lon="121.11233811134288"><ele>4.0</ele><time>2026-04-10T06:40:36Z</time></trkpt><trkpt lat="14.534467331509186" lon="121.11240431083718"><ele>4.0</ele><time>2026-04-10T06:40:37Z</time></trkpt><trkpt lat="14.534562156579197" lon="121.1124577463233"><ele>4.0</ele><time>2026-04-10T06:40:38Z</time></trkpt><trkpt lat="14.53464386921037" lon="121.11250129653074"><ele>4.2</ele><time>2026-04-10T06:40:39Z</time></trkpt><trkpt lat="14.534713559241789" lon="121.11253986747298"><ele>4.4</ele><time>2026-04-10T06:40:40Z</time></trkpt><trkpt lat="14.534799707825325" lon="121.11257989731189"><ele>4.6</ele><time>2026-04-10T06:40:41Z</time></trkpt><trkpt lat="14.534896512160564" lon="121.11261217592566"><ele>4.8</ele><time>2026-04-10T06:40:42Z</time></trkpt><trkpt lat="14.534997235034263" lon="121.11262915666772"><ele>5.0</ele><time>2026-04-10T06:40:43Z</time></trkpt><trkpt lat="14.535070036552549" lon="121.11263212046373"><ele>5.0</ele><time>2026-04-10T06:40:44Z</time></trkpt><trkpt lat="14.53514512736487" lon="121.11261942207165"><ele>5.0</ele><time>2026-04-10T06:40:45Z</time></trkpt><trkpt lat="14.535231105687465" lon="121.11258329734241"><ele>5.0</ele><time>2026-04-10T06:40:46Z</time></trkpt><trkpt lat="14.535315749000883" lon="121.11253847649016"><ele>5.0</ele><time>2026-04-10T06:40:47Z</time></trkpt><trkpt lat="14.535403054615886" lon="121.11248141501149"><ele>5.0</ele><time>2026-04-10T06:40:48Z</time></trkpt><trkpt lat="14.535495248002006" lon="121.1124319971466"><ele>5.0</ele><time>2026-04-10T06:40:49Z</time></trkpt><trkpt lat="14.535594703513983" lon="121.11239014254774"><ele>5.0</ele><time>2026-04-10T06:40:50Z</time></trkpt><trkpt lat="14.535675476729352" lon="121.11234863732761"><ele>5.0</ele><time>2026-04-10T06:40:51.001Z</time></trkpt><trkpt lat="14.535752457094922" lon="121.1123065355214"><ele>5.0</ele><time>2026-04-10T06:40:52.001Z</time></trkpt><trkpt lat="14.535832458102664" lon="121.11226070296011"><ele>5.0</ele><time>2026-04-10T06:40:53.001Z</time></trkpt><trkpt lat="14.535917708420449" lon="121.11219659108218"><ele>5.0</ele><time>2026-04-10T06:40:54.001Z</time></trkpt><trkpt lat="14.53599678095498" lon="121.11215038853076"><ele>5.0</ele><time>2026-04-10T06:40:55.001Z</time></trkpt><trkpt lat="14.536083175796936" lon="121.11211052055434"><ele>5.0</ele><time>2026-04-10T06:40:56.001Z</time></trkpt><trkpt lat="14.536168790788835" lon="121.11207604867532"><ele>5.0</ele><time>2026-04-10T06:40:57.001Z</time></trkpt><trkpt lat="14.53625910525627" lon="121.11204555750558"><ele>5.0</ele><time>2026-04-10T06:40:58.001Z</time></trkpt><trkpt lat="14.536347382235261" lon="121.11202626114391"><ele>4.833333333333334</ele><time>2026-04-10T06:40:59.001Z</time></trkpt><trkpt lat="14.536428388379727" lon="121.11201381185965"><ele>4.666666666666667</ele><time>2026-04-10T06:41:00.001Z</time></trkpt><trkpt lat="14.536503702445" lon="121.11200837393855"><ele>4.5</ele><time>2026-04-10T06:41:01.001Z</time></trkpt><trkpt lat="14.536579073619182" lon="121.11201649795922"><ele>4.333333333333333</ele><time>2026-04-10T06:41:02.001Z</time></trkpt><trkpt lat="14.536662445103113" lon="121.11203129052743"><ele>4.166666666666666</ele><time>2026-04-10T06:41:03.001Z</time></trkpt><trkpt lat="14.536748590768232" lon="121.11204567444453"><ele>4.0</ele><time>2026-04-10T06:41:04.001Z</time></trkpt><trkpt lat="14.536848692876342" lon="121.11205500625515"><ele>4.0</ele><time>2026-04-10T06:41:05.001Z</time></trkpt><trkpt lat="14.536951813025173" lon="121.11206446484951"><ele>4.0</ele><time>2026-04-10T06:41:06.001Z</time></trkpt><trkpt lat="14.537070245760646" lon="121.11207561585522"><ele>4.0</ele><time>2026-04-10T06:41:07.001Z</time></trkpt><trkpt lat="14.537182764520832" lon="121.11209545438417"><ele>4.0</ele><time>2026-04-10T06:41:08.001Z</time></trkpt><trkpt lat="14.537298781944951" lon="121.11211842662928"><ele>3.75</ele><time>2026-04-10T06:41:09.001Z</time></trkpt><trkpt lat="14.537413978815485" lon="121.11215078524928"><ele>3.5</ele><time>2026-04-10T06:41:10.001Z</time></trkpt><trkpt lat="14.537528284131458" lon="121.11219648782561"><ele>3.25</ele><time>2026-04-10T06:41:11.001Z</time></trkpt><trkpt lat="14.537632578064938" lon="121.11224153748049"><ele>3.0</ele><time>2026-04-10T06:41:12.001Z</time></trkpt><trkpt lat="14.537724042969739" lon="121.11228442251664"><ele>3.0</ele><time>2026-04-10T06:41:13.001Z</time></trkpt><trkpt lat="14.537814673728343" lon="121.11232861937057"><ele>3.0</ele><time>2026-04-10T06:41:14.001Z</time></trkpt><trkpt lat="14.53789983619783" lon="121.11237414631559"><ele>3.0</ele><time>2026-04-10T06:41:15.001Z</time></trkpt><trkpt lat="14.537978375013395" lon="121.11241570777021"><ele>3.0</ele><time>2026-04-10T06:41:16.001Z</time></trkpt><trkpt lat="14.538048904454287" lon="121.11244851134583"><ele>3.0</ele><time>2026-04-10T06:41:17.001Z</time></trkpt><trkpt lat="14.538131797494259" lon="121.11248713116088"><ele>3.0</ele><time>2026-04-10T06:41:18.001Z</time></trkpt><trkpt lat="14.538213907828089" lon="121.11252284682173"><ele>3.0</ele><time>2026-04-10T06:41:19.001Z</time></trkpt><trkpt lat="14.538302662835921" lon="121.1125630897551"><ele>3.0</ele><time>2026-04-10T06:41:20.001Z</time></trkpt><trkpt lat="14.538394871699726" lon="121.11260817329817"><ele>3.0</ele><time>2026-04-10T06:41:21.001Z</time></trkpt><trkpt lat="14.538492124194487" lon="121.11265672641095"><ele>3.0</ele><time>2026-04-10T06:41:22.001Z</time></trkpt><trkpt lat="14.538595133198408" lon="121.11271158533148"><ele>3.0</ele><time>2026-04-10T06:41:23.001Z</time></trkpt><trkpt lat="14.53869562296233" lon="121.11276222584837"><ele>3.0</ele><time>2026-04-10T06:41:24.001Z</time></trkpt><trkpt lat="14.538789102647689" lon="121.11280461407668"><ele>3.0</ele><time>2026-04-10T06:41:25.001Z</time></trkpt><trkpt lat="14.538882231315549" lon="121.11284306752782"><ele>3.0</ele><time>2026-04-10T06:41:26.001Z</time></trkpt><trkpt lat="14.538976635895068" lon="121.11287636057052"><ele>3.0</ele><time>2026-04-10T06:41:27.001Z</time></trkpt><trkpt lat="14.53906780817578" lon="121.11290568380304"><ele>3.1666666666666665</ele><time>2026-04-10T06:41:28.001Z</time></trkpt><trkpt lat="14.539144015607862" lon="121.1129334116504"><ele>3.333333333333333</ele><time>2026-04-10T06:41:29.001Z</time></trkpt><trkpt lat="14.539212040443271" lon="121.11296131515908"><ele>3.5</ele><time>2026-04-10T06:41:30.001Z</time></trkpt><trkpt lat="14.539284834327313" lon="121.11299147117595"><ele>3.6666666666666665</ele><time>2026-04-10T06:41:31.001Z</time></trkpt><trkpt lat="14.539363735159258" lon="121.11302664283961"><ele>3.833333333333333</ele><time>2026-04-10T06:41:32.001Z</time></trkpt><trkpt lat="14.539443892202973" lon="121.11306223440805"><ele>4.0</ele><time>2026-04-10T06:41:33.001Z</time></trkpt><trkpt lat="14.539528429864296" lon="121.1131057945128"><ele>4.0</ele><time>2026-04-10T06:41:34.001Z</time></trkpt><trkpt lat="14.539599218784005" lon="121.11316012995559"><ele>4.0</ele><time>2026-04-10T06:41:35.001Z</time></trkpt><trkpt lat="14.53966941795346" lon="121.11323165142898"><ele>4.0</ele><time>2026-04-10T06:41:36.001Z</time></trkpt><trkpt lat="14.539727347356664" lon="121.11331522614103"><ele>4.0</ele><time>2026-04-10T06:41:37.001Z</time></trkpt><trkpt lat="14.539781046941298" lon="121.11341021219694"><ele>4.0</ele><time>2026-04-10T06:41:38.001Z</time></trkpt><trkpt lat="14.539831387854552" lon="121.11350760469975"><ele>4.0</ele><time>2026-04-10T06:41:39.001Z</time></trkpt><trkpt lat="14.539882358987578" lon="121.11359987290487"><ele>4.0</ele><time>2026-04-10T06:41:40.001Z</time></trkpt><trkpt lat="14.53992780123438" lon="121.11368427225052"><ele>4.0</ele><time>2026-04-10T06:41:41.001Z</time></trkpt><trkpt lat="14.539985093832257" lon="121.11377326406704"><ele>4.0</ele><time>2026-04-10T06:41:42.001Z</time></trkpt><trkpt lat="14.540043444910197" lon="121.11384291482219"><ele>4.0</ele><time>2026-04-10T06:41:43.001Z</time></trkpt><trkpt lat="14.540119930477209" lon="121.11390737769463"><ele>4.0</ele><time>2026-04-10T06:41:44.001Z</time></trkpt><trkpt lat="14.540201024668775" lon="121.11396233959039"><ele>4.0</ele><time>2026-04-10T06:41:45.001Z</time></trkpt><trkpt lat="14.540281859533529" lon="121.11401186049648"><ele>4.0</ele><time>2026-04-10T06:41:46.001Z</time></trkpt><trkpt lat="14.540367260881174" lon="121.11406455251445"><ele>4.0</ele><time>2026-04-10T06:41:47.001Z</time></trkpt><trkpt lat="14.54044072604666" lon="121.11411477161049"><ele>4.0</ele><time>2026-04-10T06:41:48.001Z</time></trkpt><trkpt lat="14.540524959028541" lon="121.1141638876848"><ele>3.8000000000000003</ele><time>2026-04-10T06:41:49.001Z</time></trkpt><trkpt lat="14.540602837277989" lon="121.11421415262387"><ele>3.6000000000000005</ele><time>2026-04-10T06:41:50.001Z</time></trkpt><trkpt lat="14.54068386165868" lon="121.11426901339622"><ele>3.4</ele><time>2026-04-10T06:41:51.001Z</time></trkpt><trkpt lat="14.540765937401812" lon="121.11432481907507"><ele>3.2</ele><time>2026-04-10T06:41:52.001Z</time></trkpt><trkpt lat="14.540845234160054" lon="121.11438556032057"><ele>3.0</ele><time>2026-04-10T06:41:53.002Z</time></trkpt><trkpt lat="14.54091975136205" lon="121.11443837464252"><ele>3.0</ele><time>2026-04-10T06:41:54.002Z</time></trkpt><trkpt lat="14.540995654849233" lon="121.11448995617289"><ele>3.0</ele><time>2026-04-10T06:41:55.002Z</time></trkpt><trkpt lat="14.541065263764802" lon="121.11453646999921"><ele>3.0</ele><time>2026-04-10T06:41:56.002Z</time></trkpt><trkpt lat="14.541138354879912" lon="121.11458349658352"><ele>3.0</ele><time>2026-04-10T06:41:57.002Z</time></trkpt><trkpt lat="14.541210254676615" lon="121.11462557533437"><ele>3.0</ele><time>2026-04-10T06:41:58.002Z</time></trkpt><trkpt lat="14.541293928466468" lon="121.11467349357606"><ele>3.0</ele><time>2026-04-10T06:41:59Z</time></trkpt><trkpt lat="14.541385121522959" lon="121.11471275244558"><ele>3.0</ele><time>2026-04-10T06:42:00Z</time></trkpt><trkpt lat="14.54147402113111" lon="121.11474471228775"><ele>3.0</ele><time>2026-04-10T06:42:01Z</time></trkpt><trkpt lat="14.54157494694746" lon="121.11477337131635"><ele>3.0</ele><time>2026-04-10T06:42:02Z</time></trkpt><trkpt lat="14.54166747722542" lon="121.11479538528383"><ele>3.0</ele><time>2026-04-10T06:42:03Z</time></trkpt><trkpt lat="14.541753872698996" lon="121.11482038290568"><ele>3.0</ele><time>2026-04-10T06:42:04Z</time></trkpt><trkpt lat="14.5418437205697" lon="121.11483515611319"><ele>3.0</ele><time>2026-04-10T06:42:05Z</time></trkpt><trkpt lat="14.54193652232103" lon="121.11484629228961"><ele>3.0</ele><time>2026-04-10T06:42:06Z</time></trkpt><trkpt lat="14.542024994182581" lon="121.11485109131775"><ele>3.0</ele><time>2026-04-10T06:42:07Z</time></trkpt><trkpt lat="14.542113109508808" lon="121.11484598726155"><ele>3.0</ele><time>2026-04-10T06:42:08Z</time></trkpt><trkpt lat="14.5422044318204" lon="121.11483388116845"><ele>3.0</ele><time>2026-04-10T06:42:09Z</time></trkpt><trkpt lat="14.542283085179099" lon="121.11481527218251"><ele>3.0</ele><time>2026-04-10T06:42:10Z</time></trkpt><trkpt lat="14.542362821251388" lon="121.11479105820233"><ele>3.0</ele><time>2026-04-10T06:42:11Z</time></trkpt><trkpt lat="14.542436148483803" lon="121.11476630990232"><ele>3.0</ele><time>2026-04-10T06:42:12Z</time></trkpt><trkpt lat="14.542526922419748" lon="121.11474326496855"><ele>3.0</ele><time>2026-04-10T06:42:13Z</time></trkpt><trkpt lat="14.542596886427832" lon="121.11472061561382"><ele>3.0</ele><time>2026-04-10T06:42:14Z</time></trkpt><trkpt lat="14.542666356894348" lon="121.11469096647757"><ele>3.0</ele><time>2026-04-10T06:42:15Z</time></trkpt><trkpt lat="14.542775143022018" lon="121.11462942264275"><ele>3.0</ele><time>2026-04-10T06:42:17Z</time></trkpt><trkpt lat="14.542832724307287" lon="121.1145971018533"><ele>3.2</ele><time>2026-04-10T06:42:18Z</time></trkpt><trkpt lat="14.542923693307696" lon="121.1145364656111"><ele>3.4</ele><time>2026-04-10T06:42:20Z</time></trkpt><trkpt lat="14.54300432659489" lon="121.11450096357116"><ele>3.6000000000000005</ele><time>2026-04-10T06:42:22Z</time></trkpt><trkpt lat="14.543088957099371" lon="121.11454035732693"><ele>3.8000000000000003</ele><time>2026-04-10T06:42:24Z</time></trkpt><trkpt lat="14.543132497738158" lon="121.11462838021762"><ele>4.0</ele><time>2026-04-10T06:42:26Z</time></trkpt><trkpt lat="14.54318569302193" lon="121.11474637180454"><ele>3.9999999999999996</ele><time>2026-04-10T06:42:28Z</time></trkpt><trkpt lat="14.543245936515024" lon="121.1148601361627"><ele>4.0</ele><time>2026-04-10T06:42:30Z</time></trkpt><trkpt lat="14.54328142681954" lon="121.11492826827657"><ele>4.0</ele><time>2026-04-10T06:42:31Z</time></trkpt><trkpt lat="14.54331392079327" lon="121.11500083720965"><ele>4.0</ele><time>2026-04-10T06:42:32Z</time></trkpt><trkpt lat="14.543351726637946" lon="121.11507677556598"><ele>3.9999999999999996</ele><time>2026-04-10T06:42:33Z</time></trkpt><trkpt lat="14.543392578978306" lon="121.11515494973162"><ele>4.0</ele><time>2026-04-10T06:42:34Z</time></trkpt><trkpt lat="14.543439366762845" lon="121.1152391798276"><ele>3.2</ele><time>2026-04-10T06:42:35Z</time></trkpt><trkpt lat="14.54348293671684" lon="121.11532433343443"><ele>2.4000000000000004</ele><time>2026-04-10T06:42:36Z</time></trkpt><trkpt lat="14.543528483238763" lon="121.1154065012788"><ele>1.6</ele><time>2026-04-10T06:42:37Z</time></trkpt><trkpt lat="14.543583045673582" lon="121.11549444319495"><ele>0.8</ele><time>2026-04-10T06:42:38Z</time></trkpt><trkpt lat="14.543643099863155" lon="121.11557623063081"><ele>0.0</ele><time>2026-04-10T06:42:39Z</time></trkpt><trkpt lat="14.543711071928414" lon="121.11566038719008"><ele>0.5</ele><time>2026-04-10T06:42:40Z</time></trkpt><trkpt lat="14.543781224737407" lon="121.11574270164732"><ele>1.0</ele><time>2026-04-10T06:42:41Z</time></trkpt><trkpt lat="14.543844330633405" lon="121.11580974172519"><ele>1.5</ele><time>2026-04-10T06:42:42Z</time></trkpt><trkpt lat="14.543903599082645" lon="121.11586933577867"><ele>2.0</ele><time>2026-04-10T06:42:43Z</time></trkpt><trkpt lat="14.543957798033945" lon="121.11593178043921"><ele>2.5</ele><time>2026-04-10T06:42:44Z</time></trkpt><trkpt lat="14.544019597519453" lon="121.11599702645873"><ele>3.0</ele><time>2026-04-10T06:42:45Z</time></trkpt><trkpt lat="14.544084598841819" lon="121.11606591871359"><ele>3.0</ele><time>2026-04-10T06:42:46Z</time></trkpt><trkpt lat="14.544154664311721" lon="121.11613074694499"><ele>3.0</ele><time>2026-04-10T06:42:47Z</time></trkpt><trkpt lat="14.544226911820068" lon="121.11619355942925"><ele>3.0</ele><time>2026-04-10T06:42:48Z</time></trkpt><trkpt lat="14.544301667838482" lon="121.11625559599233"><ele>3.0</ele><time>2026-04-10T06:42:49Z</time></trkpt><trkpt lat="14.54437617683917" lon="121.1163128926944"><ele>3.0</ele><time>2026-04-10T06:42:50Z</time></trkpt><trkpt lat="14.544453059733417" lon="121.11636017470988"><ele>3.0</ele><time>2026-04-10T06:42:51Z</time></trkpt><trkpt lat="14.544529288859305" lon="121.1164050124445"><ele>3.0</ele><time>2026-04-10T06:42:52Z</time></trkpt><trkpt lat="14.54461682193638" lon="121.11645480966365"><ele>3.0</ele><time>2026-04-10T06:42:53Z</time></trkpt><trkpt lat="14.544697040866728" lon="121.11650320382866"><ele>3.0</ele><time>2026-04-10T06:42:54.001Z</time></trkpt><trkpt lat="14.54476263206165" lon="121.11654570401329"><ele>3.0</ele><time>2026-04-10T06:42:55.001Z</time></trkpt><trkpt lat="14.544822945908601" lon="121.11658061583191"><ele>3.0</ele><time>2026-04-10T06:42:56.001Z</time></trkpt><trkpt lat="14.544880715544364" lon="121.1166148125381"><ele>3.1666666666666665</ele><time>2026-04-10T06:42:57.001Z</time></trkpt><trkpt lat="14.544943489828919" lon="121.1166554564625"><ele>3.333333333333333</ele><time>2026-04-10T06:42:58.001Z</time></trkpt><trkpt lat="14.545010396651593" lon="121.11669844939382"><ele>3.5</ele><time>2026-04-10T06:42:59.001Z</time></trkpt><trkpt lat="14.545089714345302" lon="121.11674585845257"><ele>3.6666666666666665</ele><time>2026-04-10T06:43:00.001Z</time></trkpt><trkpt lat="14.545173972549991" lon="121.11679720758822"><ele>3.833333333333333</ele><time>2026-04-10T06:43:01.001Z</time></trkpt><trkpt lat="14.545257899584213" lon="121.11684713563274"><ele>4.0</ele><time>2026-04-10T06:43:02.001Z</time></trkpt><trkpt lat="14.545349903261107" lon="121.11690339574969"><ele>3.2</ele><time>2026-04-10T06:43:03.001Z</time></trkpt><trkpt lat="14.545443831481942" lon="121.1169575180791"><ele>2.4000000000000004</ele><time>2026-04-10T06:43:04.001Z</time></trkpt><trkpt lat="14.545538134801962" lon="121.11701582947853"><ele>1.6</ele><time>2026-04-10T06:43:05.001Z</time></trkpt><trkpt lat="14.545623680132818" lon="121.11707252731739"><ele>0.8</ele><time>2026-04-10T06:43:06.001Z</time></trkpt><trkpt lat="14.545701664010352" lon="121.11712764167262"><ele>0.0</ele><time>2026-04-10T06:43:07.001Z</time></trkpt><trkpt lat="14.545789828911516" lon="121.1171870442761"><ele>0.0</ele><time>2026-04-10T06:43:08.001Z</time></trkpt><trkpt lat="14.545876586790957" lon="121.1172523778619"><ele>0.0</ele><time>2026-04-10T06:43:09.001Z</time></trkpt><trkpt lat="14.54596389427544" lon="121.1173145212234"><ele>0.0</ele><time>2026-04-10T06:43:10.001Z</time></trkpt><trkpt lat="14.546050598343115" lon="121.11736563178056"><ele>0.0</ele><time>2026-04-10T06:43:11.001Z</time></trkpt><trkpt lat="14.546124063262845" lon="121.11740633250969"><ele>0.0</ele><time>2026-04-10T06:43:12.001Z</time></trkpt><trkpt lat="14.546205411391554" lon="121.11745125780095"><ele>0.8</ele><time>2026-04-10T06:43:13.001Z</time></trkpt><trkpt lat="14.546285439976682" lon="121.11750990910392"><ele>1.6</ele><time>2026-04-10T06:43:14.001Z</time></trkpt><trkpt lat="14.546372590174958" lon="121.11757081914897"><ele>2.4000000000000004</ele><time>2026-04-10T06:43:15.001Z</time></trkpt><trkpt lat="14.546472007779085" lon="121.11763392792957"><ele>3.2</ele><time>2026-04-10T06:43:16.001Z</time></trkpt><trkpt lat="14.546575227297888" lon="121.11769687076982"><ele>4.0</ele><time>2026-04-10T06:43:17.001Z</time></trkpt><trkpt lat="14.546686173084057" lon="121.11776260373513"><ele>4.0</ele><time>2026-04-10T06:43:18.001Z</time></trkpt><trkpt lat="14.546798996107752" lon="121.11782285646619"><ele>4.0</ele><time>2026-04-10T06:43:19.001Z</time></trkpt><trkpt lat="14.54690378902243" lon="121.11788005057119"><ele>4.0</ele><time>2026-04-10T06:43:20.001Z</time></trkpt><trkpt lat="14.547007474798809" lon="121.11794156152504"><ele>4.0</ele><time>2026-04-10T06:43:21.001Z</time></trkpt><trkpt lat="14.54710876259709" lon="121.11799913676344"><ele>4.2</ele><time>2026-04-10T06:43:22.001Z</time></trkpt><trkpt lat="14.54721166690653" lon="121.11805888095904"><ele>4.4</ele><time>2026-04-10T06:43:23.001Z</time></trkpt><trkpt lat="14.54731078945644" lon="121.11811740733263"><ele>4.6</ele><time>2026-04-10T06:43:24.001Z</time></trkpt><trkpt lat="14.547397657427833" lon="121.11817665218705"><ele>4.8</ele><time>2026-04-10T06:43:25.001Z</time></trkpt><trkpt lat="14.547486693371955" lon="121.11823475951327"><ele>5.0</ele><time>2026-04-10T06:43:26.001Z</time></trkpt><trkpt lat="14.547573528762827" lon="121.11828891092607"><ele>5.2</ele><time>2026-04-10T06:43:27.001Z</time></trkpt><trkpt lat="14.547659702926566" lon="121.11835534033486"><ele>5.4</ele><time>2026-04-10T06:43:28.001Z</time></trkpt><trkpt lat="14.547735019510917" lon="121.11842246480542"><ele>5.6</ele><time>2026-04-10T06:43:29.001Z</time></trkpt><trkpt lat="14.547799978058817" lon="121.11849687313376"><ele>5.8</ele><time>2026-04-10T06:43:30.001Z</time></trkpt><trkpt lat="14.547857286281642" lon="121.1185765661555"><ele>6.0</ele><time>2026-04-10T06:43:31.001Z</time></trkpt><trkpt lat="14.54792632360448" lon="121.11867595896484"><ele>6.0</ele><time>2026-04-10T06:43:33.001Z</time></trkpt><trkpt lat="14.547995786311429" lon="121.11876615188785"><ele>6.0</ele><time>2026-04-10T06:43:35.001Z</time></trkpt><trkpt lat="14.548041688488134" lon="121.11882869850186"><ele>6.0</ele><time>2026-04-10T06:43:36.001Z</time></trkpt><trkpt lat="14.548091834229202" lon="121.11889400762077"><ele>6.0</ele><time>2026-04-10T06:43:37.001Z</time></trkpt><trkpt lat="14.548140306804434" lon="121.11895557764741"><ele>6.0</ele><time>2026-04-10T06:43:38.001Z</time></trkpt><trkpt lat="14.548187894107254" lon="121.11902205705768"><ele>6.0</ele><time>2026-04-10T06:43:39.001Z</time></trkpt><trkpt lat="14.548235089541606" lon="121.11908395751581"><ele>5.6</ele><time>2026-04-10T06:43:40.001Z</time></trkpt><trkpt lat="14.548303233406545" lon="121.11918706701219"><ele>5.199999999999999</ele><time>2026-04-10T06:43:42.001Z</time></trkpt><trkpt lat="14.54833612624656" lon="121.1192428741537"><ele>4.800000000000001</ele><time>2026-04-10T06:43:43.001Z</time></trkpt><trkpt lat="14.5484136676273" lon="121.1193416105132"><ele>4.4</ele><time>2026-04-10T06:43:45.001Z</time></trkpt><trkpt lat="14.548476287842762" lon="121.11943575292413"><ele>4.0</ele><time>2026-04-10T06:43:47.001Z</time></trkpt><trkpt lat="14.548547199787539" lon="121.1195259794349"><ele>4.0</ele><time>2026-04-10T06:43:49.001Z</time></trkpt><trkpt lat="14.54862018376602" lon="121.119617265975"><ele>4.0</ele><time>2026-04-10T06:43:51.001Z</time></trkpt><trkpt lat="14.548686942198898" lon="121.11971122566892"><ele>4.0</ele><time>2026-04-10T06:43:53.001Z</time></trkpt><trkpt lat="14.54875749689665" lon="121.11979949133793"><ele>4.0</ele><time>2026-04-10T06:43:55.001Z</time></trkpt><trkpt lat="14.548833530107892" lon="121.11989278625124"><ele>3.8000000000000003</ele><time>2026-04-10T06:43:57.002Z</time></trkpt><trkpt lat="14.548893809119454" lon="121.11997327747395"><ele>3.6000000000000005</ele><time>2026-04-10T06:43:59.002Z</time></trkpt><trkpt lat="14.548943147358251" lon="121.12003617035988"><ele>3.4</ele><time>2026-04-10T06:44:01.002Z</time></trkpt><trkpt lat="14.549002344773443" lon="121.12012105131356"><ele>3.2</ele><time>2026-04-10T06:44:03.002Z</time></trkpt><trkpt lat="14.549062218449851" lon="121.12019398813378"><ele>3.0</ele><time>2026-04-10T06:44:05Z</time></trkpt><trkpt lat="14.549122954064188" lon="121.12027285575918"><ele>3.0</ele><time>2026-04-10T06:44:07Z</time></trkpt><trkpt lat="14.549196642214163" lon="121.1203594369783"><ele>3.0</ele><time>2026-04-10T06:44:09Z</time></trkpt><trkpt lat="14.549265364519847" lon="121.1204540328473"><ele>3.0</ele><time>2026-04-10T06:44:11Z</time></trkpt><trkpt lat="14.549335116322549" lon="121.12054387326417"><ele>3.0</ele><time>2026-04-10T06:44:13Z</time></trkpt><trkpt lat="14.549399621326163" lon="121.12063434276152"><ele>3.0</ele><time>2026-04-10T06:44:15Z</time></trkpt><trkpt lat="14.549454340164502" lon="121.120686464762"><ele>3.4</ele><time>2026-04-10T06:44:16Z</time></trkpt><trkpt lat="14.54951075882299" lon="121.12075514085403"><ele>3.8</ele><time>2026-04-10T06:44:17Z</time></trkpt><trkpt lat="14.549567260559883" lon="121.12083485303401"><ele>4.2</ele><time>2026-04-10T06:44:18Z</time></trkpt><trkpt lat="14.549624979208257" lon="121.12091323494296"><ele>4.6</ele><time>2026-04-10T06:44:19Z</time></trkpt><trkpt lat="14.54968606664762" lon="121.12100208301267"><ele>5.0</ele><time>2026-04-10T06:44:20Z</time></trkpt><trkpt lat="14.549744323416277" lon="121.12108992572762"><ele>5.333333333333334</ele><time>2026-04-10T06:44:21Z</time></trkpt><trkpt lat="14.549794052643477" lon="121.12116334911276"><ele>5.666666666666667</ele><time>2026-04-10T06:44:22Z</time></trkpt><trkpt lat="14.54984320154755" lon="121.12123299066295"><ele>6.0</ele><time>2026-04-10T06:44:23Z</time></trkpt><trkpt lat="14.54989286182139" lon="121.12131120145861"><ele>6.333333333333334</ele><time>2026-04-10T06:44:24Z</time></trkpt><trkpt lat="14.549943793368401" lon="121.1213769470125"><ele>6.666666666666667</ele><time>2026-04-10T06:44:25Z</time></trkpt><trkpt lat="14.54999202146" lon="121.12144179329499"><ele>7.0</ele><time>2026-04-10T06:44:26Z</time></trkpt><trkpt lat="14.550035626286617" lon="121.12149833584901"><ele>7.000000000000001</ele><time>2026-04-10T06:44:27Z</time></trkpt><trkpt lat="14.550081679741739" lon="121.121553293477"><ele>7.0</ele><time>2026-04-10T06:44:28Z</time></trkpt><trkpt lat="14.55013352367282" lon="121.12160236173247"><ele>7.0</ele><time>2026-04-10T06:44:29Z</time></trkpt><trkpt lat="14.550182685164993" lon="121.12164931625829"><ele>7.0</ele><time>2026-04-10T06:44:30Z</time></trkpt><trkpt lat="14.550230578978834" lon="121.12169391112592"><ele>7.000000000000001</ele><time>2026-04-10T06:44:31Z</time></trkpt><trkpt lat="14.550313693331464" lon="121.12178475144304"><ele>7.0</ele><time>2026-04-10T06:44:33Z</time></trkpt><trkpt lat="14.550391984721683" lon="121.1218845151581"><ele>6.0</ele><time>2026-04-10T06:44:35Z</time></trkpt><trkpt lat="14.550462760827399" lon="121.1219824061072"><ele>4.999999999999999</ele><time>2026-04-10T06:44:37Z</time></trkpt><trkpt lat="14.550532403519087" lon="121.12207914217285"><ele>4.0</ele><time>2026-04-10T06:44:39Z</time></trkpt><trkpt lat="14.550589867604689" lon="121.12219103317841"><ele>3.0</ele><time>2026-04-10T06:44:41Z</time></trkpt><trkpt lat="14.550640991463048" lon="121.122237155653"><ele>2.0</ele><time>2026-04-10T06:44:42Z</time></trkpt><trkpt lat="14.55069532814352" lon="121.12234507368717"><ele>2.5</ele><time>2026-04-10T06:44:44Z</time></trkpt><trkpt lat="14.550732045777721" lon="121.1223987917754"><ele>3.0</ele><time>2026-04-10T06:44:45Z</time></trkpt><trkpt lat="14.550781694927007" lon="121.1224433944245"><ele>3.5</ele><time>2026-04-10T06:44:46Z</time></trkpt><trkpt lat="14.550808505034487" lon="121.12251065203098"><ele>4.0</ele><time>2026-04-10T06:44:47Z</time></trkpt><trkpt lat="14.550887546920604" lon="121.12260065888768"><ele>4.5</ele><time>2026-04-10T06:44:49Z</time></trkpt><trkpt lat="14.550955615518934" lon="121.1227064700875"><ele>5.0</ele><time>2026-04-10T06:44:51Z</time></trkpt><trkpt lat="14.551023860875441" lon="121.12281361790629"><ele>5.0</ele><time>2026-04-10T06:44:53Z</time></trkpt><trkpt lat="14.551061399621759" lon="121.12287147885613"><ele>5.0</ele><time>2026-04-10T06:44:54Z</time></trkpt><trkpt lat="14.551103472573674" lon="121.12292894738513"><ele>5.0</ele><time>2026-04-10T06:44:55Z</time></trkpt><trkpt lat="14.551130701999016" lon="121.12299744800637"><ele>5.0</ele><time>2026-04-10T06:44:56Z</time></trkpt><trkpt lat="14.55117087256028" lon="121.1230570514295"><ele>5.0</ele><time>2026-04-10T06:44:57Z</time></trkpt><trkpt lat="14.55121494542046" lon="121.12312149517464"><ele>5.0</ele><time>2026-04-10T06:44:58Z</time></trkpt><trkpt lat="14.551255509429538" lon="121.12318618897996"><ele>5.0</ele><time>2026-04-10T06:44:59Z</time></trkpt><trkpt lat="14.551297711039021" lon="121.12325447491523"><ele>4.833333333333334</ele><time>2026-04-10T06:45:00Z</time></trkpt><trkpt lat="14.551338674783526" lon="121.12331351118037"><ele>4.666666666666667</ele><time>2026-04-10T06:45:01Z</time></trkpt><trkpt lat="14.551377961269974" lon="121.1233721739133"><ele>4.5</ele><time>2026-04-10T06:45:02Z</time></trkpt><trkpt lat="14.551424701034685" lon="121.12344196590398"><ele>4.333333333333333</ele><time>2026-04-10T06:45:03Z</time></trkpt><trkpt lat="14.55148323348036" lon="121.12349957259973"><ele>4.166666666666666</ele><time>2026-04-10T06:45:04Z</time></trkpt><trkpt lat="14.551525968019321" lon="121.1235716476848"><ele>4.0</ele><time>2026-04-10T06:45:05Z</time></trkpt><trkpt lat="14.551569349702506" lon="121.12364104493423"><ele>3.9999999999999996</ele><time>2026-04-10T06:45:06.001Z</time></trkpt><trkpt lat="14.5516507048349" lon="121.12375934562671"><ele>4.0</ele><time>2026-04-10T06:45:08.001Z</time></trkpt><trkpt lat="14.551688997430128" lon="121.12381726081406"><ele>4.0</ele><time>2026-04-10T06:45:09.001Z</time></trkpt><trkpt lat="14.551731648043306" lon="121.12388415287595"><ele>4.0</ele><time>2026-04-10T06:45:10.001Z</time></trkpt><trkpt lat="14.551772752403044" lon="121.12394738641305"><ele>3.9999999999999996</ele><time>2026-04-10T06:45:11.001Z</time></trkpt><trkpt lat="14.551817702383381" lon="121.1240214955381"><ele>4.0</ele><time>2026-04-10T06:45:12.001Z</time></trkpt><trkpt lat="14.551864355075098" lon="121.12408627432663"><ele>4.166666666666666</ele><time>2026-04-10T06:45:13.001Z</time></trkpt><trkpt lat="14.551903740217368" lon="121.12414350812324"><ele>4.333333333333333</ele><time>2026-04-10T06:45:14.001Z</time></trkpt><trkpt lat="14.55194856849299" lon="121.12421671903846"><ele>4.5</ele><time>2026-04-10T06:45:15.001Z</time></trkpt><trkpt lat="14.55198570201647" lon="121.12427114526271"><ele>4.666666666666667</ele><time>2026-04-10T06:45:16.001Z</time></trkpt><trkpt lat="14.552027911542826" lon="121.12433045968129"><ele>4.833333333333334</ele><time>2026-04-10T06:45:17.001Z</time></trkpt><trkpt lat="14.552082433624268" lon="121.1244397734277"><ele>5.0</ele><time>2026-04-10T06:45:19.001Z</time></trkpt><trkpt lat="14.552152151714159" lon="121.12450826597123"><ele>5.0</ele><time>2026-04-10T06:45:21.001Z</time></trkpt><trkpt lat="14.552191131064237" lon="121.12456889332722"><ele>5.0</ele><time>2026-04-10T06:45:23.001Z</time></trkpt><trkpt lat="14.552224578829742" lon="121.12465856259496"><ele>5.0</ele><time>2026-04-10T06:45:26.001Z</time></trkpt><trkpt lat="14.552271913290449" lon="121.12473551832804"><ele>5.0</ele><time>2026-04-10T06:45:28.001Z</time></trkpt><trkpt lat="14.55232340060162" lon="121.12481054209537"><ele>5.0</ele><time>2026-04-10T06:45:30.001Z</time></trkpt><trkpt lat="14.552362133443307" lon="121.12486748228041"><ele>5.0</ele><time>2026-04-10T06:45:32.001Z</time></trkpt><trkpt lat="14.55241370963124" lon="121.1249400910773"><ele>5.666666666666667</ele><time>2026-04-10T06:45:35.001Z</time></trkpt><trkpt lat="14.552469424759567" lon="121.12502593461629"><ele>6.333333333333334</ele><time>2026-04-10T06:45:37.001Z</time></trkpt><trkpt lat="14.552512398801237" lon="121.12508300853602"><ele>7.0</ele><time>2026-04-10T06:45:38.001Z</time></trkpt><trkpt lat="14.552553737777087" lon="121.12514134241144"><ele>7.666666666666667</ele><time>2026-04-10T06:45:39.001Z</time></trkpt><trkpt lat="14.552587475049668" lon="121.12519670639185"><ele>8.333333333333334</ele><time>2026-04-10T06:45:40.001Z</time></trkpt><trkpt lat="14.552655356183328" lon="121.1252991933785"><ele>9.0</ele><time>2026-04-10T06:45:42.001Z</time></trkpt><trkpt lat="14.552690488520815" lon="121.12535810897307"><ele>9.0</ele><time>2026-04-10T06:45:43.001Z</time></trkpt><trkpt lat="14.552761449211518" lon="121.12545876049116"><ele>9.0</ele><time>2026-04-10T06:45:45.001Z</time></trkpt><trkpt lat="14.5528253488437" lon="121.12555531292155"><ele>9.0</ele><time>2026-04-10T06:45:47.001Z</time></trkpt><trkpt lat="14.552895732201176" lon="121.1256628506199"><ele>9.0</ele><time>2026-04-10T06:45:49.001Z</time></trkpt><trkpt lat="14.552968052284564" lon="121.1257663556167"><ele>8.5</ele><time>2026-04-10T06:45:51.001Z</time></trkpt><trkpt lat="14.553034283207511" lon="121.12586414913629"><ele>8.0</ele><time>2026-04-10T06:45:53.001Z</time></trkpt><trkpt lat="14.553065859804116" lon="121.12592737653266"><ele>7.5</ele><time>2026-04-10T06:45:55.001Z</time></trkpt><trkpt lat="14.553102320094201" lon="121.12598154025497"><ele>7.0</ele><time>2026-04-10T06:45:57.001Z</time></trkpt><trkpt lat="14.553155729774387" lon="121.12603173652045"><ele>6.5</ele><time>2026-04-10T06:45:59.001Z</time></trkpt><trkpt lat="14.553199735346697" lon="121.12610217581516"><ele>6.0</ele><time>2026-04-10T06:46:01.001Z</time></trkpt><trkpt lat="14.55326237100697" lon="121.12619832321673"><ele>6.0</ele><time>2026-04-10T06:46:03.001Z</time></trkpt><trkpt lat="14.553328637923677" lon="121.12629967750114"><ele>6.0</ele><time>2026-04-10T06:46:05.001Z</time></trkpt><trkpt lat="14.553403558060928" lon="121.12640935834844"><ele>6.0</ele><time>2026-04-10T06:46:07.001Z</time></trkpt><trkpt lat="14.553478216931905" lon="121.12651888562026"><ele>6.0</ele><time>2026-04-10T06:46:09.001Z</time></trkpt><trkpt lat="14.55350754130775" lon="121.12659254250292"><ele>5.666666666666667</ele><time>2026-04-10T06:46:10.002Z</time></trkpt><trkpt lat="14.55356665072497" lon="121.12665704362905"><ele>5.333333333333333</ele><time>2026-04-10T06:46:11Z</time></trkpt><trkpt lat="14.553605214226213" lon="121.12671692372935"><ele>5.0</ele><time>2026-04-10T06:46:12Z</time></trkpt><trkpt lat="14.553632585563225" lon="121.12679651457164"><ele>4.666666666666666</ele><time>2026-04-10T06:46:13Z</time></trkpt><trkpt lat="14.55367133382631" lon="121.12686085020977"><ele>4.333333333333333</ele><time>2026-04-10T06:46:14Z</time></trkpt><trkpt lat="14.553720867640072" lon="121.12692123959019"><ele>4.0</ele><time>2026-04-10T06:46:15Z</time></trkpt><trkpt lat="14.553778613732907" lon="121.12700158194714"><ele>3.6666666666666665</ele><time>2026-04-10T06:46:17Z</time></trkpt><trkpt lat="14.553876312393731" lon="121.126973094254"><ele>3.333333333333333</ele><time>2026-04-10T06:46:20Z</time></trkpt><trkpt lat="14.553950866519155" lon="121.12695392184963"><ele>3.0</ele><time>2026-04-10T06:46:23Z</time></trkpt><trkpt lat="14.5540177304475" lon="121.12700200504159"><ele>2.6666666666666665</ele><time>2026-04-10T06:49:56.001Z</time></trkpt><trkpt lat="14.554052196818134" lon="121.12694703138712"><ele>2.333333333333333</ele><time>2026-04-10T06:50:07.001Z</time></trkpt><trkpt lat="14.554035639797084" lon="121.12686975459465"><ele>2.0</ele><time>2026-04-10T06:50:13.001Z</time></trkpt><trkpt lat="14.55406036743048" lon="121.12679551835642"><ele>2.0</ele><time>2026-04-10T06:50:35Z</time></trkpt><trkpt lat="14.554061242128453" lon="121.1267194742078"><ele>2.0</ele><time>2026-04-10T06:50:40Z</time></trkpt><trkpt lat="14.554125496875809" lon="121.12672516408244"><ele>2.0</ele><time>2026-04-10T06:51:19.026Z</time></trkpt><trkpt lat="14.554316470671512" lon="121.12678399019298"><ele>2.0</ele><time>2026-04-10T06:51:26.026Z</time></trkpt><trkpt lat="14.554213669653038" lon="121.12675160075774"><ele>2.0</ele><time>2026-04-10T06:51:28.029Z</time></trkpt><trkpt lat="14.554104433495263" lon="121.12677008828838"><ele>2.0</ele><time>2026-04-10T06:51:30.029Z</time></trkpt><trkpt lat="14.55403705745325" lon="121.12684704432283"><ele>2.0</ele><time>2026-04-10T06:52:04.001Z</time></trkpt><trkpt lat="14.553956344443288" lon="121.12687234029731"><ele>2.0</ele><time>2026-04-10T06:52:42Z</time></trkpt><trkpt lat="14.553892137213591" lon="121.12694504674782"><ele>2.0</ele><time>2026-04-10T06:52:45Z</time></trkpt><trkpt lat="14.553850364102518" lon="121.12699925669037"><ele>2.0</ele><time>2026-04-10T06:52:49Z</time></trkpt><trkpt lat="14.553872338240385" lon="121.12710497474902"><ele>2.0</ele><time>2026-04-10T06:52:52Z</time></trkpt><trkpt lat="14.553927790134152" lon="121.12721150303939"><ele>2.0</ele><time>2026-04-10T06:52:54Z</time></trkpt><trkpt lat="14.553971895211856" lon="121.12726894429328"><ele>2.0</ele><time>2026-04-10T06:52:55Z</time></trkpt><trkpt lat="14.554017780111424" lon="121.12733674851059"><ele>2.0</ele><time>2026-04-10T06:52:56Z</time></trkpt><trkpt lat="14.554065464133917" lon="121.12741312980022"><ele>2.0</ele><time>2026-04-10T06:52:57Z</time></trkpt><trkpt lat="14.554115408145034" lon="121.12749584848964"><ele>2.4000000000000004</ele><time>2026-04-10T06:52:58Z</time></trkpt><trkpt lat="14.554170501714584" lon="121.12758295300452"><ele>2.8000000000000003</ele><time>2026-04-10T06:52:59Z</time></trkpt><trkpt lat="14.554223528438586" lon="121.1276709063938"><ele>3.2</ele><time>2026-04-10T06:53:00Z</time></trkpt><trkpt lat="14.554274263993257" lon="121.12776178230533"><ele>3.6</ele><time>2026-04-10T06:53:01Z</time></trkpt><trkpt lat="14.55433645408035" lon="121.12785286744327"><ele>4.0</ele><time>2026-04-10T06:53:02Z</time></trkpt><trkpt lat="14.554388800720915" lon="121.12793783147598"><ele>4.0</ele><time>2026-04-10T06:53:03Z</time></trkpt><trkpt lat="14.554441511752652" lon="121.12801325885934"><ele>4.0</ele><time>2026-04-10T06:53:04Z</time></trkpt><trkpt lat="14.55449467135793" lon="121.12809458237095"><ele>4.0</ele><time>2026-04-10T06:53:05Z</time></trkpt><trkpt lat="14.554553828939556" lon="121.12817509363602"><ele>4.0</ele><time>2026-04-10T06:53:06Z</time></trkpt><trkpt lat="14.554605053075088" lon="121.12826368488648"><ele>4.0</ele><time>2026-04-10T06:53:07Z</time></trkpt><trkpt lat="14.55466028791776" lon="121.1283545052092"><ele>4.2</ele><time>2026-04-10T06:53:08Z</time></trkpt><trkpt lat="14.554712762884447" lon="121.12845188985303"><ele>4.4</ele><time>2026-04-10T06:53:09Z</time></trkpt><trkpt lat="14.5547668246467" lon="121.12854863432358"><ele>4.6</ele><time>2026-04-10T06:53:10Z</time></trkpt><trkpt lat="14.554831227041744" lon="121.12864612441125"><ele>4.8</ele><time>2026-04-10T06:53:11Z</time></trkpt><trkpt lat="14.554899787507575" lon="121.1287439777315"><ele>5.0</ele><time>2026-04-10T06:53:12Z</time></trkpt><trkpt lat="14.554969166322746" lon="121.1288471534769"><ele>5.0</ele><time>2026-04-10T06:53:13Z</time></trkpt><trkpt lat="14.55503588789353" lon="121.12895094297166"><ele>5.0</ele><time>2026-04-10T06:53:14Z</time></trkpt><trkpt lat="14.555102821700123" lon="121.12905759067354"><ele>5.0</ele><time>2026-04-10T06:53:15Z</time></trkpt><trkpt lat="14.55516401457117" lon="121.12915256703097"><ele>5.0</ele><time>2026-04-10T06:53:16Z</time></trkpt><trkpt lat="14.555222005516136" lon="121.12924408599282"><ele>5.0</ele><time>2026-04-10T06:53:17Z</time></trkpt><trkpt lat="14.55527774836235" lon="121.12933314129192"><ele>5.0</ele><time>2026-04-10T06:53:18Z</time></trkpt><trkpt lat="14.55533300639271" lon="121.12942708224736"><ele>5.0</ele><time>2026-04-10T06:53:19Z</time></trkpt><trkpt lat="14.555391910490412" lon="121.12952033675946"><ele>5.0</ele><time>2026-04-10T06:53:20Z</time></trkpt><trkpt lat="14.555449258063463" lon="121.12961340934501"><ele>5.0</ele><time>2026-04-10T06:53:21Z</time></trkpt><trkpt lat="14.555504563116239" lon="121.12970069038535"><ele>5.0</ele><time>2026-04-10T06:53:22Z</time></trkpt><trkpt lat="14.555557101377216" lon="121.12978006683706"><ele>5.0</ele><time>2026-04-10T06:53:23Z</time></trkpt><trkpt lat="14.555605374685745" lon="121.12985329485963"><ele>5.0</ele><time>2026-04-10T06:53:24Z</time></trkpt><trkpt lat="14.555652875999" lon="121.12992876834308"><ele>5.0</ele><time>2026-04-10T06:53:25Z</time></trkpt><trkpt lat="14.555693100025572" lon="121.12999559027205"><ele>5.0</ele><time>2026-04-10T06:53:26Z</time></trkpt><trkpt lat="14.55573674130367" lon="121.13005711987475"><ele>5.0</ele><time>2026-04-10T06:53:27Z</time></trkpt><trkpt lat="14.555773046200068" lon="121.13012292012976"><ele>5.333333333333334</ele><time>2026-04-10T06:53:28Z</time></trkpt><trkpt lat="14.55581598509055" lon="121.13019329516817"><ele>5.666666666666667</ele><time>2026-04-10T06:53:29Z</time></trkpt><trkpt lat="14.555858473141251" lon="121.13026282193503"><ele>6.0</ele><time>2026-04-10T06:53:30Z</time></trkpt><trkpt lat="14.555897191785961" lon="121.13033464716942"><ele>6.333333333333334</ele><time>2026-04-10T06:53:31Z</time></trkpt><trkpt lat="14.555933868756572" lon="121.1303978805069"><ele>6.666666666666667</ele><time>2026-04-10T06:53:32Z</time></trkpt><trkpt lat="14.555970199343623" lon="121.13046140594336"><ele>7.0</ele><time>2026-04-10T06:53:33.001Z</time></trkpt><trkpt lat="14.55602085357407" lon="121.13053275880507"><ele>7.000000000000001</ele><time>2026-04-10T06:53:34.001Z</time></trkpt><trkpt lat="14.556066439441025" lon="121.13059835902722"><ele>7.0</ele><time>2026-04-10T06:53:35.001Z</time></trkpt><trkpt lat="14.556104070493294" lon="121.1306512424058"><ele>7.0</ele><time>2026-04-10T06:53:36.001Z</time></trkpt><trkpt lat="14.556145351023622" lon="121.13071046132254"><ele>7.0</ele><time>2026-04-10T06:53:37.001Z</time></trkpt><trkpt lat="14.556202824754424" lon="121.13080113971705"><ele>7.000000000000001</ele><time>2026-04-10T06:53:39.001Z</time></trkpt><trkpt lat="14.556257432144236" lon="121.13089067254658"><ele>7.0</ele><time>2026-04-10T06:53:41.001Z</time></trkpt><trkpt lat="14.556314815184555" lon="121.13096264031829"><ele>6.6</ele><time>2026-04-10T06:53:43.001Z</time></trkpt><trkpt lat="14.556351504427772" lon="121.13101784319316"><ele>6.199999999999999</ele><time>2026-04-10T06:53:45.001Z</time></trkpt><trkpt lat="14.55641146153191" lon="121.13109108865481"><ele>5.8</ele><time>2026-04-10T06:53:52.001Z</time></trkpt><trkpt lat="14.556506212071042" lon="121.13117513003017"><ele>5.4</ele><time>2026-04-10T06:53:54.001Z</time></trkpt><trkpt lat="14.556563528835825" lon="121.1312365667352"><ele>5.0</ele><time>2026-04-10T06:53:55.001Z</time></trkpt><trkpt lat="14.55662061625976" lon="121.13130191248197"><ele>5.0</ele><time>2026-04-10T06:53:56.001Z</time></trkpt><trkpt lat="14.556696078379588" lon="121.13137203468565"><ele>5.0</ele><time>2026-04-10T06:53:57.001Z</time></trkpt><trkpt lat="14.5567784332686" lon="121.13144652362115"><ele>5.0</ele><time>2026-04-10T06:53:58.001Z</time></trkpt><trkpt lat="14.556862214968774" lon="121.13152388164596"><ele>5.0</ele><time>2026-04-10T06:53:59.001Z</time></trkpt><trkpt lat="14.55696142824411" lon="121.13160671498807"><ele>5.25</ele><time>2026-04-10T06:54:00.001Z</time></trkpt><trkpt lat="14.55706174114541" lon="121.13169048159746"><ele>5.5</ele><time>2026-04-10T06:54:01.001Z</time></trkpt><trkpt lat="14.557161060732891" lon="121.13177435509996"><ele>5.75</ele><time>2026-04-10T06:54:02.001Z</time></trkpt><trkpt lat="14.557257801405878" lon="121.131864556393"><ele>6.0</ele><time>2026-04-10T06:54:03.001Z</time></trkpt><trkpt lat="14.55734888138179" lon="121.1319540870125"><ele>6.0</ele><time>2026-04-10T06:54:04.001Z</time></trkpt><trkpt lat="14.557451119869185" lon="121.13204578944305"><ele>6.0</ele><time>2026-04-10T06:54:05.001Z</time></trkpt><trkpt lat="14.557539701960119" lon="121.13213185347546"><ele>6.0</ele><time>2026-04-10T06:54:06.001Z</time></trkpt><trkpt lat="14.55762027941312" lon="121.1322120387562"><ele>6.0</ele><time>2026-04-10T06:54:07.001Z</time></trkpt><trkpt lat="14.557697019741125" lon="121.13229500588457"><ele>6.0</ele><time>2026-04-10T06:54:08.001Z</time></trkpt><trkpt lat="14.557757086652892" lon="121.13236953427996"><ele>6.0</ele><time>2026-04-10T06:54:09.001Z</time></trkpt><trkpt lat="14.557796569622758" lon="121.132429502271"><ele>6.0</ele><time>2026-04-10T06:54:10.001Z</time></trkpt><trkpt lat="14.5578415010606" lon="121.13255059099991"><ele>6.0</ele><time>2026-04-10T06:54:12.001Z</time></trkpt><trkpt lat="14.557842580308147" lon="121.13268980628062"><ele>6.0</ele><time>2026-04-10T06:54:14.001Z</time></trkpt><trkpt lat="14.557829144466215" lon="121.13275435725542"><ele>6.4</ele><time>2026-04-10T06:54:15.001Z</time></trkpt><trkpt lat="14.557764402289461" lon="121.13284650424626"><ele>6.8</ele><time>2026-04-10T06:54:17.001Z</time></trkpt><trkpt lat="14.557675781671245" lon="121.13290827083013"><ele>7.200000000000001</ele><time>2026-04-10T06:54:19.001Z</time></trkpt><trkpt lat="14.557619502234973" lon="121.13295502471601"><ele>7.6000000000000005</ele><time>2026-04-10T06:54:20.001Z</time></trkpt><trkpt lat="14.557537228389615" lon="121.13303578374314"><ele>8.0</ele><time>2026-04-10T06:54:22.001Z</time></trkpt><trkpt lat="14.557489662051088" lon="121.1331242142113"><ele>8.0</ele><time>2026-04-10T06:54:24.001Z</time></trkpt><trkpt lat="14.557455301221703" lon="121.13320275591214"><ele>8.0</ele><time>2026-04-10T06:54:26.001Z</time></trkpt><trkpt lat="14.557544638561547" lon="121.13327274978735"><ele>8.0</ele><time>2026-04-10T06:54:27.001Z</time></trkpt><trkpt lat="14.557608557076305" lon="121.1333776992661"><ele>8.0</ele><time>2026-04-10T06:54:29.001Z</time></trkpt><trkpt lat="14.5576430697164" lon="121.13343587976055"><ele>8.0</ele><time>2026-04-10T06:54:30.001Z</time></trkpt><trkpt lat="14.557675095759828" lon="121.13350457433191"><ele>7.75</ele><time>2026-04-10T06:54:31.001Z</time></trkpt><trkpt lat="14.557722242775919" lon="121.13361699497399"><ele>7.5</ele><time>2026-04-10T06:54:33.001Z</time></trkpt><trkpt lat="14.557780064180248" lon="121.13373192963397"><ele>7.25</ele><time>2026-04-10T06:54:35Z</time></trkpt><trkpt lat="14.55784856782716" lon="121.13384196617403"><ele>7.0</ele><time>2026-04-10T06:54:37Z</time></trkpt><trkpt lat="14.557882501740778" lon="121.13391751536435"><ele>7.333333333333334</ele><time>2026-04-10T06:54:38Z</time></trkpt><trkpt lat="14.557916959379376" lon="121.13399077803369"><ele>7.666666666666667</ele><time>2026-04-10T06:54:39Z</time></trkpt><trkpt lat="14.55794105103569" lon="121.13405888286064"><ele>8.0</ele><time>2026-04-10T06:54:40Z</time></trkpt><trkpt lat="14.55798697755985" lon="121.1341393882224"><ele>8.333333333333334</ele><time>2026-04-10T06:54:42Z</time></trkpt><trkpt lat="14.558054335659905" lon="121.13424838856673"><ele>8.666666666666666</ele><time>2026-04-10T06:54:44Z</time></trkpt><trkpt lat="14.558091347597198" lon="121.13431089221616"><ele>9.0</ele><time>2026-04-10T06:54:45Z</time></trkpt><trkpt lat="14.558124056505815" lon="121.13438004505691"><ele>9.0</ele><time>2026-04-10T06:54:46Z</time></trkpt><trkpt lat="14.55815862648622" lon="121.1344560485022"><ele>9.0</ele><time>2026-04-10T06:54:47Z</time></trkpt><trkpt lat="14.558196673809194" lon="121.13452776927268"><ele>9.0</ele><time>2026-04-10T06:54:48Z</time></trkpt><trkpt lat="14.558248555713845" lon="121.13463520874255"><ele>9.0</ele><time>2026-04-10T06:54:50Z</time></trkpt><trkpt lat="14.558288205742901" lon="121.13471669578725"><ele>9.0</ele><time>2026-04-10T06:54:53Z</time></trkpt><trkpt lat="14.558340131165963" lon="121.13480266705344"><ele>9.0</ele><time>2026-04-10T06:54:55Z</time></trkpt><trkpt lat="14.55836865128781" lon="121.13486428833949"><ele>9.0</ele><time>2026-04-10T06:54:56Z</time></trkpt><trkpt lat="14.558395935183427" lon="121.13492377095496"><ele>9.0</ele><time>2026-04-10T06:54:57Z</time></trkpt><trkpt lat="14.558449721564827" lon="121.13503043389271"><ele>9.0</ele><time>2026-04-10T06:54:59Z</time></trkpt><trkpt lat="14.558482511203328" lon="121.13508947281453"><ele>9.0</ele><time>2026-04-10T06:55:00Z</time></trkpt><trkpt lat="14.558536084797675" lon="121.1351960407797"><ele>9.0</ele><time>2026-04-10T06:55:02Z</time></trkpt><trkpt lat="14.55859084825009" lon="121.13528595156332"><ele>8.8</ele><time>2026-04-10T06:55:04Z</time></trkpt><trkpt lat="14.5586466012699" lon="121.13538158795345"><ele>8.600000000000001</ele><time>2026-04-10T06:55:06Z</time></trkpt><trkpt lat="14.558694324865325" lon="121.13549627748465"><ele>8.4</ele><time>2026-04-10T06:55:08Z</time></trkpt><trkpt lat="14.558723894405375" lon="121.13556414270049"><ele>8.200000000000001</ele><time>2026-04-10T06:55:10Z</time></trkpt><trkpt lat="14.55876785207202" lon="121.13563530208286"><ele>8.0</ele><time>2026-04-10T06:55:14Z</time></trkpt><trkpt lat="14.558889810208418" lon="121.13562096745932"><ele>7.999999999999999</ele><time>2026-04-10T06:55:17Z</time></trkpt><trkpt lat="14.558958983783121" lon="121.13558622984456"><ele>8.0</ele><time>2026-04-10T06:55:18Z</time></trkpt><trkpt lat="14.55903666551213" lon="121.13555586049645"><ele>8.0</ele><time>2026-04-10T06:55:19Z</time></trkpt><trkpt lat="14.559118810049647" lon="121.13552432316932"><ele>8.0</ele><time>2026-04-10T06:55:20Z</time></trkpt><trkpt lat="14.559203396920118" lon="121.1354899851158"><ele>7.999999999999999</ele><time>2026-04-10T06:55:21Z</time></trkpt><trkpt lat="14.559283619614025" lon="121.1354495006008"><ele>8.0</ele><time>2026-04-10T06:55:22Z</time></trkpt><trkpt lat="14.55936963612704" lon="121.13540069665595"><ele>7.999999999999999</ele><time>2026-04-10T06:55:23Z</time></trkpt><trkpt lat="14.559455659005366" lon="121.13535690613291"><ele>8.0</ele><time>2026-04-10T06:55:24Z</time></trkpt><trkpt lat="14.559525568970647" lon="121.13532664155458"><ele>8.0</ele><time>2026-04-10T06:55:25Z</time></trkpt><trkpt lat="14.559599706949731" lon="121.13528262240432"><ele>8.0</ele><time>2026-04-10T06:55:26Z</time></trkpt><trkpt lat="14.559667319245937" lon="121.13524415287294"><ele>7.999999999999999</ele><time>2026-04-10T06:55:27Z</time></trkpt><trkpt lat="14.559744078457054" lon="121.13520274680974"><ele>8.0</ele><time>2026-04-10T06:55:28Z</time></trkpt><trkpt lat="14.559830410287956" lon="121.13516058684559"><ele>8.0</ele><time>2026-04-10T06:55:29Z</time></trkpt><trkpt lat="14.559902035047356" lon="121.13512437397034"><ele>8.0</ele><time>2026-04-10T06:55:30Z</time></trkpt><trkpt lat="14.559984402200463" lon="121.13507875303523"><ele>8.0</ele><time>2026-04-10T06:55:31Z</time></trkpt><trkpt lat="14.56007189145757" lon="121.13502892129334"><ele>8.0</ele><time>2026-04-10T06:55:32Z</time></trkpt><trkpt lat="14.5601617315918" lon="121.13498119266411"><ele>8.0</ele><time>2026-04-10T06:55:33Z</time></trkpt><trkpt lat="14.560250865461656" lon="121.1349329645169"><ele>8.4</ele><time>2026-04-10T06:55:34Z</time></trkpt><trkpt lat="14.560344059154316" lon="121.13488156184476"><ele>8.8</ele><time>2026-04-10T06:55:35Z</time></trkpt><trkpt lat="14.56043827096469" lon="121.13482926274914"><ele>9.2</ele><time>2026-04-10T06:55:36Z</time></trkpt><trkpt lat="14.56053451794332" lon="121.13477662769087"><ele>9.6</ele><time>2026-04-10T06:55:37Z</time></trkpt><trkpt lat="14.560636214781882" lon="121.13472034368154"><ele>10.0</ele><time>2026-04-10T06:55:38Z</time></trkpt><trkpt lat="14.560738872833713" lon="121.13466629056344"><ele>10.4</ele><time>2026-04-10T06:55:39Z</time></trkpt><trkpt lat="14.560836151311936" lon="121.13461375349696"><ele>10.8</ele><time>2026-04-10T06:55:40Z</time></trkpt><trkpt lat="14.560935612846558" lon="121.13456322365077"><ele>11.2</ele><time>2026-04-10T06:55:41Z</time></trkpt><trkpt lat="14.56102666119889" lon="121.13451486957038"><ele>11.6</ele><time>2026-04-10T06:55:42Z</time></trkpt><trkpt lat="14.56111898896627" lon="121.13446575911273"><ele>12.0</ele><time>2026-04-10T06:55:43Z</time></trkpt><trkpt lat="14.561212081351757" lon="121.13441658011583"><ele>12.166666666666666</ele><time>2026-04-10T06:55:44Z</time></trkpt><trkpt lat="14.561299569657171" lon="121.13436973353521"><ele>12.333333333333332</ele><time>2026-04-10T06:55:45Z</time></trkpt><trkpt lat="14.561372836287777" lon="121.13433143870665"><ele>12.5</ele><time>2026-04-10T06:55:46Z</time></trkpt><trkpt lat="14.56143638256078" lon="121.13429797931371"><ele>12.666666666666666</ele><time>2026-04-10T06:55:47Z</time></trkpt><trkpt lat="14.561529866650993" lon="121.13424634286588"><ele>12.833333333333332</ele><time>2026-04-10T06:55:49Z</time></trkpt><trkpt lat="14.561596100433903" lon="121.13420837517069"><ele>13.0</ele><time>2026-04-10T06:55:51.001Z</time></trkpt><trkpt lat="14.56166109095721" lon="121.13417148365777"><ele>12.999999999999998</ele><time>2026-04-10T06:55:53.001Z</time></trkpt><trkpt lat="14.561728230398415" lon="121.13413317798721"><ele>13.0</ele><time>2026-04-10T06:55:55.001Z</time></trkpt><trkpt lat="14.561798390607793" lon="121.1340944785327"><ele>13.0</ele><time>2026-04-10T06:55:57.001Z</time></trkpt><trkpt lat="14.561881549946264" lon="121.13404269124746"><ele>13.0</ele><time>2026-04-10T06:55:59.001Z</time></trkpt><trkpt lat="14.561982483019664" lon="121.13398193248081"><ele>12.999999999999998</ele><time>2026-04-10T06:56:01.001Z</time></trkpt><trkpt lat="14.562038570245347" lon="121.13395006646707"><ele>13.0</ele><time>2026-04-10T06:56:02.001Z</time></trkpt><trkpt lat="14.562096557912406" lon="121.13391837251818"><ele>12.833333333333332</ele><time>2026-04-10T06:56:03.001Z</time></trkpt><trkpt lat="14.56216058352723" lon="121.1338816153174"><ele>12.666666666666666</ele><time>2026-04-10T06:56:04.001Z</time></trkpt><trkpt lat="14.562215887495423" lon="121.13385054135763"><ele>12.5</ele><time>2026-04-10T06:56:05.001Z</time></trkpt><trkpt lat="14.562315913761745" lon="121.13379357928451"><ele>12.333333333333332</ele><time>2026-04-10T06:56:07.001Z</time></trkpt><trkpt lat="14.562372048628989" lon="121.13376051172848"><ele>12.166666666666666</ele><time>2026-04-10T06:56:08.001Z</time></trkpt><trkpt lat="14.562435510960917" lon="121.13372613294115"><ele>12.0</ele><time>2026-04-10T06:56:09.001Z</time></trkpt><trkpt lat="14.562499393739857" lon="121.13369646013848"><ele>11.999999999999998</ele><time>2026-04-10T06:56:10.001Z</time></trkpt><trkpt lat="14.562566041455156" lon="121.13366764572577"><ele>12.0</ele><time>2026-04-10T06:56:11.001Z</time></trkpt><trkpt lat="14.562631043919453" lon="121.13363539848294"><ele>12.0</ele><time>2026-04-10T06:56:12.001Z</time></trkpt><trkpt lat="14.562694465382432" lon="121.13360187958764"><ele>12.0</ele><time>2026-04-10T06:56:13.001Z</time></trkpt><trkpt lat="14.562759024726631" lon="121.13356723997306"><ele>12.0</ele><time>2026-04-10T06:56:14.001Z</time></trkpt><trkpt lat="14.56282004213039" lon="121.13353393358335"><ele>11.999999999999998</ele><time>2026-04-10T06:56:15.001Z</time></trkpt><trkpt lat="14.562885367765757" lon="121.13349632662826"><ele>12.0</ele><time>2026-04-10T06:56:16.001Z</time></trkpt><trkpt lat="14.56295212300461" lon="121.13346768360957"><ele>11.8</ele><time>2026-04-10T06:56:17.001Z</time></trkpt><trkpt lat="14.563024973077852" lon="121.13344038224007"><ele>11.6</ele><time>2026-04-10T06:56:18.001Z</time></trkpt><trkpt lat="14.563106919629565" lon="121.13340266115438"><ele>11.4</ele><time>2026-04-10T06:56:19.001Z</time></trkpt><trkpt lat="14.563191018566991" lon="121.1333506250547"><ele>11.200000000000001</ele><time>2026-04-10T06:56:20.001Z</time></trkpt><trkpt lat="14.563287505715035" lon="121.13329698951708"><ele>11.0</ele><time>2026-04-10T06:56:21.001Z</time></trkpt><trkpt lat="14.563387014902714" lon="121.13323953173966"><ele>10.8</ele><time>2026-04-10T06:56:22.001Z</time></trkpt><trkpt lat="14.56349073858016" lon="121.13317958021393"><ele>10.600000000000001</ele><time>2026-04-10T06:56:23.001Z</time></trkpt><trkpt lat="14.563586910472702" lon="121.13311774921645"><ele>10.4</ele><time>2026-04-10T06:56:24.001Z</time></trkpt><trkpt lat="14.56367763698639" lon="121.13305850624876"><ele>10.2</ele><time>2026-04-10T06:56:25.001Z</time></trkpt><trkpt lat="14.563771968898216" lon="121.13300365573625"><ele>10.0</ele><time>2026-04-10T06:56:26.001Z</time></trkpt><trkpt lat="14.563867470264244" lon="121.13295702941741"><ele>10.0</ele><time>2026-04-10T06:56:27.001Z</time></trkpt><trkpt lat="14.563965726894018" lon="121.13291287619008"><ele>10.0</ele><time>2026-04-10T06:56:28.001Z</time></trkpt><trkpt lat="14.56405104620488" lon="121.13287340412086"><ele>10.0</ele><time>2026-04-10T06:56:29.001Z</time></trkpt><trkpt lat="14.564124619931897" lon="121.13284046366552"><ele>10.0</ele><time>2026-04-10T06:56:30.001Z</time></trkpt><trkpt lat="14.564188236454656" lon="121.13280410020263"><ele>10.0</ele><time>2026-04-10T06:56:31.001Z</time></trkpt><trkpt lat="14.564250411576662" lon="121.1327671477688"><ele>10.0</ele><time>2026-04-10T06:56:32.001Z</time></trkpt><trkpt lat="14.564316198069328" lon="121.13273202658357"><ele>10.0</ele><time>2026-04-10T06:56:33.001Z</time></trkpt><trkpt lat="14.56438539019187" lon="121.13269268668898"><ele>10.0</ele><time>2026-04-10T06:56:34.001Z</time></trkpt><trkpt lat="14.564457324872867" lon="121.1326562322302"><ele>10.0</ele><time>2026-04-10T06:56:35.001Z</time></trkpt><trkpt lat="14.564520663852775" lon="121.13262352252049"><ele>10.0</ele><time>2026-04-10T06:56:36.001Z</time></trkpt><trkpt lat="14.564580269728594" lon="121.1325891470585"><ele>10.0</ele><time>2026-04-10T06:56:37.001Z</time></trkpt><trkpt lat="14.564637171967869" lon="121.13255419318938"><ele>10.0</ele><time>2026-04-10T06:56:38.001Z</time></trkpt><trkpt lat="14.564698011283706" lon="121.13252184971347"><ele>10.0</ele><time>2026-04-10T06:56:39.001Z</time></trkpt><trkpt lat="14.564762137075352" lon="121.13248898914975"><ele>10.0</ele><time>2026-04-10T06:56:40.001Z</time></trkpt><trkpt lat="14.56483810768507" lon="121.13245243215123"><ele>10.0</ele><time>2026-04-10T06:56:40.999Z</time></trkpt><trkpt lat="14.564948192859621" lon="121.1323924035867"><ele>10.0</ele><time>2026-04-10T06:56:42.999Z</time></trkpt><trkpt lat="14.565049234736357" lon="121.13234003055423"><ele>10.0</ele><time>2026-04-10T06:56:44.999Z</time></trkpt><trkpt lat="14.565110100997073" lon="121.13230844567079"><ele>10.0</ele><time>2026-04-10T06:56:45.999Z</time></trkpt><trkpt lat="14.565178076325155" lon="121.13227315566469"><ele>10.2</ele><time>2026-04-10T06:56:46.999Z</time></trkpt><trkpt lat="14.565259918464822" lon="121.13222924494134"><ele>10.4</ele><time>2026-04-10T06:56:47.999Z</time></trkpt><trkpt lat="14.565346675305616" lon="121.13217749539015"><ele>10.600000000000001</ele><time>2026-04-10T06:56:48.999Z</time></trkpt><trkpt lat="14.56543459393797" lon="121.13212653593398"><ele>10.8</ele><time>2026-04-10T06:56:49.999Z</time></trkpt><trkpt lat="14.565509710011932" lon="121.13208399781699"><ele>11.0</ele><time>2026-04-10T06:56:50.999Z</time></trkpt><trkpt lat="14.565579011472998" lon="121.13203769239132"><ele>11.0</ele><time>2026-04-10T06:56:51.999Z</time></trkpt><trkpt lat="14.565642004518317" lon="121.13200804511357"><ele>11.0</ele><time>2026-04-10T06:56:52.999Z</time></trkpt><trkpt lat="14.565708660133287" lon="121.1319841658909"><ele>11.0</ele><time>2026-04-10T06:56:53.999Z</time></trkpt><trkpt lat="14.565799575604888" lon="121.13194670157098"><ele>11.0</ele><time>2026-04-10T06:56:55.999Z</time></trkpt><trkpt lat="14.565887000557897" lon="121.13192650514956"><ele>11.0</ele><time>2026-04-10T06:56:57.999Z</time></trkpt><trkpt lat="14.565987719836244" lon="121.13193466201228"><ele>11.0</ele><time>2026-04-10T06:56:59.999Z</time></trkpt><trkpt lat="14.566087227788653" lon="121.1319661216778"><ele>11.0</ele><time>2026-04-10T06:57:01.999Z</time></trkpt><trkpt lat="14.566186305418617" lon="121.13201157529406"><ele>11.0</ele><time>2026-04-10T06:57:04Z</time></trkpt><trkpt lat="14.566265271098745" lon="121.13205160692476"><ele>11.0</ele><time>2026-04-10T06:57:06Z</time></trkpt><trkpt lat="14.566346105890071" lon="121.13206605225862"><ele>11.0</ele><time>2026-04-10T06:57:08Z</time></trkpt><trkpt lat="14.56642680441828" lon="121.13207616696336"><ele>11.0</ele><time>2026-04-10T06:57:10Z</time></trkpt><trkpt lat="14.566453281835052" lon="121.13198161691776"><ele>11.0</ele><time>2026-04-10T06:57:11Z</time></trkpt><trkpt lat="14.566501419912157" lon="121.13190167870366"><ele>11.0</ele><time>2026-04-10T06:57:13Z</time></trkpt><trkpt lat="14.566562884924922" lon="121.1317902472781"><ele>11.0</ele><time>2026-04-10T06:57:15Z</time></trkpt><trkpt lat="14.566626011867283" lon="121.13168395391591"><ele>11.0</ele><time>2026-04-10T06:57:17Z</time></trkpt><trkpt lat="14.566678949809885" lon="121.13158818878726"><ele>11.0</ele><time>2026-04-10T06:57:19Z</time></trkpt><trkpt lat="14.566723777738323" lon="121.13150946310014"><ele>11.0</ele><time>2026-04-10T06:57:21Z</time></trkpt><trkpt lat="14.566762352187348" lon="121.13144884130571"><ele>11.0</ele><time>2026-04-10T06:57:23Z</time></trkpt><trkpt lat="14.566808537675154" lon="121.13137058121758"><ele>11.0</ele><time>2026-04-10T06:57:26Z</time></trkpt><trkpt lat="14.566846646124903" lon="121.1313118101549"><ele>11.0</ele><time>2026-04-10T06:57:28Z</time></trkpt><trkpt lat="14.566886398914198" lon="121.13124571297722"><ele>11.0</ele><time>2026-04-10T06:57:30Z</time></trkpt><trkpt lat="14.566919972397075" lon="121.13118889285055"><ele>11.0</ele><time>2026-04-10T06:57:34Z</time></trkpt><trkpt lat="14.566971655431379" lon="121.13110506825329"><ele>11.0</ele><time>2026-04-10T06:57:39Z</time></trkpt><trkpt lat="14.567028896575053" lon="121.1310026320904"><ele>11.0</ele><time>2026-04-10T06:57:41Z</time></trkpt><trkpt lat="14.5670811665617" lon="121.13092340553267"><ele>11.0</ele><time>2026-04-10T06:57:43Z</time></trkpt><trkpt lat="14.567143113588779" lon="121.13082686291365"><ele>11.0</ele><time>2026-04-10T06:57:45Z</time></trkpt><trkpt lat="14.567177829449935" lon="121.13077181924184"><ele>11.0</ele><time>2026-04-10T06:57:46Z</time></trkpt><trkpt lat="14.567218507105862" lon="121.13069125783811"><ele>11.0</ele><time>2026-04-10T06:57:48Z</time></trkpt><trkpt lat="14.567257129091123" lon="121.13061304160009"><ele>11.0</ele><time>2026-04-10T06:57:51Z</time></trkpt><trkpt lat="14.567302681997635" lon="121.13053098049171"><ele>11.0</ele><time>2026-04-10T06:57:54Z</time></trkpt><trkpt lat="14.567343430982332" lon="121.13045867451636"><ele>11.0</ele><time>2026-04-10T06:57:56Z</time></trkpt><trkpt lat="14.567407655356858" lon="121.13037441221577"><ele>11.0</ele><time>2026-04-10T06:57:58Z</time></trkpt><trkpt lat="14.567446177476494" lon="121.13027380353"><ele>11.0</ele><time>2026-04-10T06:58:00.001Z</time></trkpt><trkpt lat="14.56750355035987" lon="121.13017472531251"><ele>11.0</ele><time>2026-04-10T06:58:02.001Z</time></trkpt><trkpt lat="14.56755630062405" lon="121.13008002859162"><ele>11.0</ele><time>2026-04-10T06:58:04.001Z</time></trkpt><trkpt lat="14.567611119445303" lon="121.12999695933003"><ele>11.0</ele><time>2026-04-10T06:58:06.001Z</time></trkpt><trkpt lat="14.567691741918441" lon="121.12997684473648"><ele>11.0</ele><time>2026-04-10T06:58:08.001Z</time></trkpt><trkpt lat="14.567727954020041" lon="121.13006868728137"><ele>11.0</ele><time>2026-04-10T06:58:09.001Z</time></trkpt><trkpt lat="14.567782871512135" lon="121.13010292971695"><ele>11.0</ele><time>2026-04-10T06:58:10.001Z</time></trkpt><trkpt lat="14.567882718981634" lon="121.13016518714613"><ele>11.0</ele><time>2026-04-10T06:58:12.001Z</time></trkpt><trkpt lat="14.567986211951096" lon="121.13021879870355"><ele>11.0</ele><time>2026-04-10T06:58:14.001Z</time></trkpt><trkpt lat="14.568084589702982" lon="121.13027988369059"><ele>11.0</ele><time>2026-04-10T06:58:16.001Z</time></trkpt><trkpt lat="14.568174336360718" lon="121.13033569753114"><ele>10.600000000000001</ele><time>2026-04-10T06:58:18.001Z</time></trkpt><trkpt lat="14.568256921074704" lon="121.13038981776715"><ele>10.200000000000001</ele><time>2026-04-10T06:58:20.001Z</time></trkpt><trkpt lat="14.568347320217356" lon="121.13045669029785"><ele>9.8</ele><time>2026-04-10T06:58:22.001Z</time></trkpt><trkpt lat="14.568456846643484" lon="121.13052778434155"><ele>9.4</ele><time>2026-04-10T06:58:24.001Z</time></trkpt><trkpt lat="14.568520438575739" lon="121.1305690621183"><ele>9.0</ele><time>2026-04-10T06:58:25.001Z</time></trkpt><trkpt lat="14.568587021722598" lon="121.13061228150357"><ele>9.0</ele><time>2026-04-10T06:58:26.001Z</time></trkpt><trkpt lat="14.568659087913032" lon="121.13064795398179"><ele>9.0</ele><time>2026-04-10T06:58:27.001Z</time></trkpt><trkpt lat="14.568726604801872" lon="121.13069157422981"><ele>9.0</ele><time>2026-04-10T06:58:28.001Z</time></trkpt><trkpt lat="14.568781007247495" lon="121.13072686663038"><ele>9.0</ele><time>2026-04-10T06:58:29.001Z</time></trkpt><trkpt lat="14.568835341446675" lon="121.13076396513532"><ele>9.0</ele><time>2026-04-10T06:58:30.001Z</time></trkpt><trkpt lat="14.568920691916464" lon="121.13081819991847"><ele>9.0</ele><time>2026-04-10T06:58:32.001Z</time></trkpt><trkpt lat="14.568982878962842" lon="121.13086193310896"><ele>9.0</ele><time>2026-04-10T06:58:34.001Z</time></trkpt><trkpt lat="14.569050942615496" lon="121.13090863799675"><ele>9.0</ele><time>2026-04-10T06:58:37.001Z</time></trkpt><trkpt lat="14.569106835282208" lon="121.13096272537585"><ele>9.0</ele><time>2026-04-10T06:58:41.001Z</time></trkpt><trkpt lat="14.56916039825399" lon="121.13090930099226"><ele>9.0</ele><time>2026-04-10T06:58:43.001Z</time></trkpt><trkpt lat="14.569201433653118" lon="121.13083312170984"><ele>9.0</ele><time>2026-04-10T06:58:46.001Z</time></trkpt><trkpt lat="14.569231739909496" lon="121.1307750240321"><ele>9.0</ele><time>2026-04-10T06:58:47.999Z</time></trkpt><trkpt lat="14.56927852895031" lon="121.13070170822566"><ele>9.0</ele><time>2026-04-10T06:58:50.999Z</time></trkpt><trkpt lat="14.569332997367123" lon="121.13065343227949"><ele>9.0</ele><time>2026-04-10T06:58:54.999Z</time></trkpt><trkpt lat="14.569441227278771" lon="121.13070383008566"><ele>9.0</ele><time>2026-04-10T06:58:59.999Z</time></trkpt><trkpt lat="14.56950644314636" lon="121.13075806260765"><ele>9.0</ele><time>2026-04-10T06:59:03Z</time></trkpt><trkpt lat="14.56957225610889" lon="121.13080207073286"><ele>9.0</ele><time>2026-04-10T06:59:07Z</time></trkpt><trkpt lat="14.569629151571789" lon="121.13084559736356"><ele>9.0</ele><time>2026-04-10T06:59:09Z</time></trkpt><trkpt lat="14.569685362939081" lon="121.1308905024375"><ele>9.333333333333334</ele><time>2026-04-10T06:59:11Z</time></trkpt><trkpt lat="14.569751879070825" lon="121.13093914141669"><ele>9.666666666666666</ele><time>2026-04-10T06:59:14Z</time></trkpt><trkpt lat="14.569826724240286" lon="121.13099695864187"><ele>10.0</ele><time>2026-04-10T06:59:17Z</time></trkpt><trkpt lat="14.56989710932288" lon="121.1310513194186"><ele>10.333333333333332</ele><time>2026-04-10T06:59:19Z</time></trkpt><trkpt lat="14.569961654423201" lon="121.13108820780695"><ele>10.666666666666666</ele><time>2026-04-10T06:59:22Z</time></trkpt><trkpt lat="14.570016070672736" lon="121.13113281289048"><ele>11.0</ele><time>2026-04-10T06:59:25Z</time></trkpt><trkpt lat="14.570094200669734" lon="121.13118386057207"><ele>11.0</ele><time>2026-04-10T06:59:27Z</time></trkpt><trkpt lat="14.570145191149606" lon="121.13122520323802"><ele>11.0</ele><time>2026-04-10T06:59:29Z</time></trkpt><trkpt lat="14.570206646879901" lon="121.13127344589925"><ele>11.0</ele><time>2026-04-10T06:59:32Z</time></trkpt><trkpt lat="14.57010292539328" lon="121.13137769526108"><ele>11.0</ele><time>2026-04-10T06:59:37Z</time></trkpt><trkpt lat="14.570003149450521" lon="121.13140952291593"><ele>11.0</ele><time>2026-04-10T06:59:39Z</time></trkpt><trkpt lat="14.569994880787155" lon="121.13150981851054"><ele>11.8</ele><time>2026-04-10T06:59:43Z</time></trkpt><trkpt lat="14.570081525186048" lon="121.13156528415155"><ele>12.600000000000001</ele><time>2026-04-10T06:59:45Z</time></trkpt><trkpt lat="14.570171285830224" lon="121.13161308494482"><ele>13.4</ele><time>2026-04-10T06:59:47Z</time></trkpt><trkpt lat="14.570256668345602" lon="121.131690733834"><ele>14.2</ele><time>2026-04-10T06:59:49Z</time></trkpt><trkpt lat="14.570358417427924" lon="121.1317537866798"><ele>15.0</ele><time>2026-04-10T06:59:51Z</time></trkpt><trkpt lat="14.5704372302185" lon="121.13182193319494"><ele>15.5</ele><time>2026-04-10T06:59:53Z</time></trkpt><trkpt lat="14.570525551846634" lon="121.13188439657124"><ele>16.0</ele><time>2026-04-10T06:59:55Z</time></trkpt><trkpt lat="14.57060675973985" lon="121.13188363442327"><ele>16.5</ele><time>2026-04-10T06:59:58Z</time></trkpt><trkpt lat="14.570663665617804" lon="121.13184240667657"><ele>17.0</ele><time>2026-04-10T07:00:00Z</time></trkpt><trkpt lat="14.570729865345932" lon="121.13183443383325"><ele>17.5</ele><time>2026-04-10T07:00:03.001Z</time></trkpt><trkpt lat="14.570812027291954" lon="121.13183973460444"><ele>18.0</ele><time>2026-04-10T07:00:05.001Z</time></trkpt><trkpt lat="14.570907107597176" lon="121.13184586881832"><ele>18.0</ele><time>2026-04-10T07:00:07.001Z</time></trkpt><trkpt lat="14.570972839882701" lon="121.13185010961048"><ele>18.0</ele><time>2026-04-10T07:00:08.001Z</time></trkpt><trkpt lat="14.571090992524846" lon="121.1318589319359"><ele>18.0</ele><time>2026-04-10T07:00:10.001Z</time></trkpt><trkpt lat="14.57116240098519" lon="121.131866098793"><ele>18.0</ele><time>2026-04-10T07:00:11.001Z</time></trkpt><trkpt lat="14.571228102197633" lon="121.1318890630697"><ele>18.0</ele><time>2026-04-10T07:00:12.001Z</time></trkpt><trkpt lat="14.571325682813175" lon="121.13195489054077"><ele>18.0</ele><time>2026-04-10T07:00:14.001Z</time></trkpt><trkpt lat="14.571358399805415" lon="121.13201504180824"><ele>17.833333333333332</ele><time>2026-04-10T07:00:15.001Z</time></trkpt><trkpt lat="14.571403172792769" lon="121.13209049352393"><ele>17.666666666666668</ele><time>2026-04-10T07:00:17.001Z</time></trkpt><trkpt lat="14.571437248693911" lon="121.13217153854266"><ele>17.5</ele><time>2026-04-10T07:00:20.001Z</time></trkpt><trkpt lat="14.571477245827651" lon="121.13223487739171"><ele>17.333333333333336</ele><time>2026-04-10T07:00:23.001Z</time></trkpt><trkpt lat="14.571526442370997" lon="121.13230868881429"><ele>17.166666666666668</ele><time>2026-04-10T07:19:32.003Z</time></trkpt><trkpt lat="14.57157135679656" lon="121.132370670701"><ele>17.0</ele><time>2026-04-10T07:19:34.003Z</time></trkpt><trkpt lat="14.57163193545186" lon="121.13243757298017"><ele>17.0</ele><time>2026-04-10T07:19:37.003Z</time></trkpt><trkpt lat="14.571703357340809" lon="121.132441444766"><ele>17.0</ele><time>2026-04-10T07:19:43.003Z</time></trkpt><trkpt lat="14.571747619222165" lon="121.13236698052314"><ele>17.0</ele><time>2026-04-10T07:19:45.003Z</time></trkpt><trkpt lat="14.571768252282554" lon="121.13227488757134"><ele>17.0</ele><time>2026-04-10T07:19:47.001Z</time></trkpt><trkpt lat="14.571811907556118" lon="121.13215027923576"><ele>17.0</ele><time>2026-04-10T07:19:49.001Z</time></trkpt><trkpt lat="14.571834454859315" lon="121.13208137623141"><ele>17.0</ele><time>2026-04-10T07:19:50.001Z</time></trkpt><trkpt lat="14.571875610722417" lon="121.13201680967873"><ele>16.666666666666668</ele><time>2026-04-10T07:19:51.001Z</time></trkpt><trkpt lat="14.571902733995088" lon="121.13194241062125"><ele>16.333333333333336</ele><time>2026-04-10T07:19:52.001Z</time></trkpt><trkpt lat="14.571930526390531" lon="121.13186596673174"><ele>16.0</ele><time>2026-04-10T07:19:53.001Z</time></trkpt><trkpt lat="14.571945432607343" lon="121.13178256677917"><ele>15.666666666666668</ele><time>2026-04-10T07:19:54.001Z</time></trkpt><trkpt lat="14.571973597387927" lon="121.13170747614748"><ele>15.333333333333334</ele><time>2026-04-10T07:19:55.001Z</time></trkpt><trkpt lat="14.571995046221602" lon="121.13163535312923"><ele>15.0</ele><time>2026-04-10T07:19:56.001Z</time></trkpt><trkpt lat="14.572022693739832" lon="121.13156153186802"><ele>14.285714285714286</ele><time>2026-04-10T07:19:57.001Z</time></trkpt><trkpt lat="14.572047835587403" lon="121.13148846739921"><ele>13.571428571428571</ele><time>2026-04-10T07:19:58.001Z</time></trkpt><trkpt lat="14.572090789835025" lon="121.13141580264599"><ele>12.857142857142858</ele><time>2026-04-10T07:19:59.001Z</time></trkpt><trkpt lat="14.57211765436792" lon="121.13134061698295"><ele>12.142857142857142</ele><time>2026-04-10T07:20:00.001Z</time></trkpt><trkpt lat="14.572141464747414" lon="121.13127397896677"><ele>11.428571428571429</ele><time>2026-04-10T07:20:01.001Z</time></trkpt><trkpt lat="14.572164710794333" lon="121.13120892035133"><ele>10.714285714285714</ele><time>2026-04-10T07:20:02.001Z</time></trkpt><trkpt lat="14.572189892275839" lon="121.1311384450516"><ele>10.0</ele><time>2026-04-10T07:20:03.001Z</time></trkpt><trkpt lat="14.572212902862109" lon="121.13107404541802"><ele>10.0</ele><time>2026-04-10T07:20:04.001Z</time></trkpt><trkpt lat="14.57223689619345" lon="121.13100691139283"><ele>10.0</ele><time>2026-04-10T07:20:05.001Z</time></trkpt><trkpt lat="14.572258937586907" lon="121.13094266696892"><ele>10.0</ele><time>2026-04-10T07:20:06.001Z</time></trkpt><trkpt lat="14.572280533593807" lon="121.13087972067821"><ele>10.0</ele><time>2026-04-10T07:20:07.001Z</time></trkpt><trkpt lat="14.57230183557984" lon="121.1308176314083"><ele>10.0</ele><time>2026-04-10T07:20:08.001Z</time></trkpt><trkpt lat="14.572334743473576" lon="121.13072171416532"><ele>10.0</ele><time>2026-04-10T07:20:10.001Z</time></trkpt><trkpt lat="14.572356860207778" lon="121.13065725012537"><ele>10.0</ele><time>2026-04-10T07:20:12.001Z</time></trkpt><trkpt lat="14.572427580653406" lon="121.13060043579561"><ele>10.0</ele><time>2026-04-10T07:20:15.001Z</time></trkpt><trkpt lat="14.572517300407668" lon="121.1306460823221"><ele>10.0</ele><time>2026-04-10T07:20:17.001Z</time></trkpt><trkpt lat="14.572628340733427" lon="121.13070312827728"><ele>10.0</ele><time>2026-04-10T07:20:19.001Z</time></trkpt><trkpt lat="14.57269499410858" lon="121.13073995257032"><ele>10.0</ele><time>2026-04-10T07:20:20.001Z</time></trkpt><trkpt lat="14.572767618664338" lon="121.13078517368628"><ele>10.0</ele><time>2026-04-10T07:20:21.001Z</time></trkpt><trkpt lat="14.57284888621525" lon="121.13082871844384"><ele>10.0</ele><time>2026-04-10T07:20:22.001Z</time></trkpt><trkpt lat="14.572946743345197" lon="121.13087321926093"><ele>10.0</ele><time>2026-04-10T07:20:23.001Z</time></trkpt><trkpt lat="14.573035379537963" lon="121.13091714849978"><ele>10.0</ele><time>2026-04-10T07:20:24.001Z</time></trkpt><trkpt lat="14.573119648052016" lon="121.13095987214228"><ele>10.0</ele><time>2026-04-10T07:20:25.001Z</time></trkpt><trkpt lat="14.573191172176097" lon="121.13099626879104"><ele>10.0</ele><time>2026-04-10T07:20:26.001Z</time></trkpt><trkpt lat="14.573274126557283" lon="121.1310369910289"><ele>10.0</ele><time>2026-04-10T07:20:28.001Z</time></trkpt><trkpt lat="14.573359997137905" lon="121.13107640912258"><ele>10.0</ele><time>2026-04-10T07:20:32.001Z</time></trkpt><trkpt lat="14.57347004552011" lon="121.1311377718674"><ele>10.0</ele><time>2026-04-10T07:20:34.001Z</time></trkpt><trkpt lat="14.573535019664908" lon="121.13117876102866"><ele>10.0</ele><time>2026-04-10T07:20:35.001Z</time></trkpt><trkpt lat="14.573599276324169" lon="121.13121573287813"><ele>10.0</ele><time>2026-04-10T07:20:36.001Z</time></trkpt><trkpt lat="14.57367624153176" lon="121.13125549670495"><ele>10.333333333333334</ele><time>2026-04-10T07:20:37.001Z</time></trkpt><trkpt lat="14.573752276731865" lon="121.13129575586689"><ele>10.666666666666668</ele><time>2026-04-10T07:20:38.001Z</time></trkpt><trkpt lat="14.573831488222414" lon="121.13133912226283"><ele>11.0</ele><time>2026-04-10T07:20:39.001Z</time></trkpt><trkpt lat="14.573907933660951" lon="121.13138075875904"><ele>11.333333333333334</ele><time>2026-04-10T07:20:40.001Z</time></trkpt><trkpt lat="14.573987400014168" lon="121.13142366795735"><ele>11.666666666666666</ele><time>2026-04-10T07:20:41.001Z</time></trkpt><trkpt lat="14.574062983800806" lon="121.13146180507589"><ele>12.0</ele><time>2026-04-10T07:20:42.001Z</time></trkpt><trkpt lat="14.574136226938558" lon="121.1315060523289"><ele>12.0</ele><time>2026-04-10T07:20:43.001Z</time></trkpt><trkpt lat="14.574212587705496" lon="121.13154830421404"><ele>12.0</ele><time>2026-04-10T07:20:44.001Z</time></trkpt><trkpt lat="14.57429454660416" lon="121.13159305247224"><ele>12.0</ele><time>2026-04-10T07:20:45.002Z</time></trkpt><trkpt lat="14.574362394733438" lon="121.13163205111819"><ele>12.0</ele><time>2026-04-10T07:20:46.002Z</time></trkpt><trkpt lat="14.57443780090212" lon="121.1316737953652"><ele>12.0</ele><time>2026-04-10T07:20:47.002Z</time></trkpt><trkpt lat="14.57449747159664" lon="121.13170807891201"><ele>12.0</ele><time>2026-04-10T07:20:48.002Z</time></trkpt><trkpt lat="14.574566365345092" lon="121.13174701838479"><ele>12.0</ele><time>2026-04-10T07:20:49.002Z</time></trkpt><trkpt lat="14.57462919221609" lon="121.13177779258388"><ele>12.0</ele><time>2026-04-10T07:20:50.002Z</time></trkpt><trkpt lat="14.574728141889464" lon="121.13183155921557"><ele>12.0</ele><time>2026-04-10T07:20:52.002Z</time></trkpt><trkpt lat="14.574782840288524" lon="121.13186664152818"><ele>12.0</ele><time>2026-04-10T07:20:53.002Z</time></trkpt><trkpt lat="14.574846106224406" lon="121.1318984112331"><ele>12.0</ele><time>2026-04-10T07:20:54.002Z</time></trkpt><trkpt lat="14.574903872394154" lon="121.13193783016192"><ele>12.0</ele><time>2026-04-10T07:20:55.002Z</time></trkpt><trkpt lat="14.574962435198909" lon="121.13197297078848"><ele>12.0</ele><time>2026-04-10T07:20:56.002Z</time></trkpt><trkpt lat="14.575026193065051" lon="121.13200813955856"><ele>12.0</ele><time>2026-04-10T07:20:57.002Z</time></trkpt><trkpt lat="14.57509122104218" lon="121.13204372014334"><ele>12.0</ele><time>2026-04-10T07:20:58.002Z</time></trkpt><trkpt lat="14.57516055190776" lon="121.13208042538281"><ele>12.0</ele><time>2026-04-10T07:20:59.002Z</time></trkpt><trkpt lat="14.575247419501352" lon="121.13212454530449"><ele>12.0</ele><time>2026-04-10T07:21:00.002Z</time></trkpt><trkpt lat="14.575329986991713" lon="121.13217846798128"><ele>12.0</ele><time>2026-04-10T07:21:01.002Z</time></trkpt><trkpt lat="14.575418926300173" lon="121.13223106862502"><ele>12.25</ele><time>2026-04-10T07:21:02.002Z</time></trkpt><trkpt lat="14.575519993725482" lon="121.132291360715"><ele>12.5</ele><time>2026-04-10T07:21:03.002Z</time></trkpt><trkpt lat="14.575620411739145" lon="121.13235666171539"><ele>12.75</ele><time>2026-04-10T07:21:04.002Z</time></trkpt><trkpt lat="14.57572229983424" lon="121.13242628931928"><ele>13.0</ele><time>2026-04-10T07:21:05.002Z</time></trkpt><trkpt lat="14.575828665115234" lon="121.1325009467549"><ele>14.0</ele><time>2026-04-10T07:21:06.002Z</time></trkpt><trkpt lat="14.575931499217443" lon="121.13257379105458"><ele>15.0</ele><time>2026-04-10T07:21:07.002Z</time></trkpt><trkpt lat="14.57602645713138" lon="121.13265056880147"><ele>16.0</ele><time>2026-04-10T07:21:08.002Z</time></trkpt><trkpt lat="14.576112244842419" lon="121.13272975604815"><ele>17.0</ele><time>2026-04-10T07:21:09.002Z</time></trkpt><trkpt lat="14.57620170788375" lon="121.13281137136278"><ele>17.8</ele><time>2026-04-10T07:21:10.002Z</time></trkpt><trkpt lat="14.576292393017825" lon="121.13288070887975"><ele>18.6</ele><time>2026-04-10T07:21:11.002Z</time></trkpt><trkpt lat="14.57637646138799" lon="121.13294978206942"><ele>19.400000000000002</ele><time>2026-04-10T07:21:12.002Z</time></trkpt><trkpt lat="14.576458294397108" lon="121.13300966042524"><ele>20.2</ele><time>2026-04-10T07:21:13.002Z</time></trkpt><trkpt lat="14.576536227980018" lon="121.13306880920138"><ele>21.0</ele><time>2026-04-10T07:21:14.002Z</time></trkpt><trkpt lat="14.576594947708935" lon="121.1331173594606"><ele>21.0</ele><time>2026-04-10T07:21:15.002Z</time></trkpt><trkpt lat="14.576647771072492" lon="121.13316129333434"><ele>21.0</ele><time>2026-04-10T07:21:16.002Z</time></trkpt><trkpt lat="14.576701273212416" lon="121.133202664729"><ele>21.0</ele><time>2026-04-10T07:21:17.002Z</time></trkpt><trkpt lat="14.576766298997182" lon="121.13324380896726"><ele>21.0</ele><time>2026-04-10T07:21:18.002Z</time></trkpt><trkpt lat="14.576833935618087" lon="121.1332863964945"><ele>21.0</ele><time>2026-04-10T07:21:19.002Z</time></trkpt><trkpt lat="14.576895493552371" lon="121.13333758118863"><ele>21.0</ele><time>2026-04-10T07:21:20.002Z</time></trkpt><trkpt lat="14.576957744663387" lon="121.13338512640969"><ele>21.0</ele><time>2026-04-10T07:21:21.002Z</time></trkpt><trkpt lat="14.577022887473426" lon="121.13343565022676"><ele>22.0</ele><time>2026-04-10T07:21:22.002Z</time></trkpt><trkpt lat="14.577086147611295" lon="121.13347944674783"><ele>23.0</ele><time>2026-04-10T07:21:23.002Z</time></trkpt><trkpt lat="14.577143336664989" lon="121.1335129784339"><ele>24.0</ele><time>2026-04-10T07:21:24.002Z</time></trkpt><trkpt lat="14.577236880109579" lon="121.1335745101979"><ele>25.0</ele><time>2026-04-10T07:21:26.002Z</time></trkpt><trkpt lat="14.577326102295709" lon="121.13363985929215"><ele>26.0</ele><time>2026-04-10T07:21:28.002Z</time></trkpt><trkpt lat="14.577393819245602" lon="121.13368543653074"><ele>27.0</ele><time>2026-04-10T07:21:29.002Z</time></trkpt><trkpt lat="14.577462878009268" lon="121.13373166090174"><ele>27.0</ele><time>2026-04-10T07:21:30.002Z</time></trkpt><trkpt lat="14.577539900884345" lon="121.13378158278697"><ele>27.000000000000004</ele><time>2026-04-10T07:21:31.002Z</time></trkpt><trkpt lat="14.57762339034559" lon="121.13383696987259"><ele>27.000000000000004</ele><time>2026-04-10T07:21:32.002Z</time></trkpt><trkpt lat="14.57770708018527" lon="121.13389546413464"><ele>27.0</ele><time>2026-04-10T07:21:33.002Z</time></trkpt><trkpt lat="14.577794335771102" lon="121.13395296670723"><ele>27.0</ele><time>2026-04-10T07:21:34.003Z</time></trkpt><trkpt lat="14.577879797992935" lon="121.13400958340286"><ele>27.0</ele><time>2026-04-10T07:21:35.003Z</time></trkpt><trkpt lat="14.577968430516954" lon="121.13406925868291"><ele>27.000000000000004</ele><time>2026-04-10T07:21:36.003Z</time></trkpt><trkpt lat="14.57805053825457" lon="121.13412508648854"><ele>27.000000000000004</ele><time>2026-04-10T07:21:37.003Z</time></trkpt><trkpt lat="14.578127821217182" lon="121.13418542797494"><ele>27.0</ele><time>2026-04-10T07:21:38.003Z</time></trkpt><trkpt lat="14.578210397229276" lon="121.13423553716666"><ele>27.0</ele><time>2026-04-10T07:21:39.003Z</time></trkpt><trkpt lat="14.578286192923239" lon="121.134285823145"><ele>27.0</ele><time>2026-04-10T07:21:40.003Z</time></trkpt><trkpt lat="14.57835613396769" lon="121.13434059259974"><ele>27.0</ele><time>2026-04-10T07:21:41.003Z</time></trkpt><trkpt lat="14.57843451500984" lon="121.1343922432052"><ele>27.0</ele><time>2026-04-10T07:21:42.003Z</time></trkpt><trkpt lat="14.578510997651232" lon="121.13444498389674"><ele>27.0</ele><time>2026-04-10T07:21:43.003Z</time></trkpt><trkpt lat="14.578576218677785" lon="121.13450334125078"><ele>27.0</ele><time>2026-04-10T07:21:44.003Z</time></trkpt><trkpt lat="14.578639129344982" lon="121.13454743222769"><ele>27.0</ele><time>2026-04-10T07:21:45.003Z</time></trkpt><trkpt lat="14.578707351179844" lon="121.13459524546856"><ele>27.0</ele><time>2026-04-10T07:21:46.003Z</time></trkpt><trkpt lat="14.578774249268632" lon="121.13464147612157"><ele>27.0</ele><time>2026-04-10T07:21:47.003Z</time></trkpt><trkpt lat="14.578846720925513" lon="121.13468177445965"><ele>27.0</ele><time>2026-04-10T07:21:48.003Z</time></trkpt><trkpt lat="14.578915711042619" lon="121.13473518526081"><ele>27.0</ele><time>2026-04-10T07:21:49.003Z</time></trkpt><trkpt lat="14.57899304909346" lon="121.1347799625682"><ele>27.0</ele><time>2026-04-10T07:21:50.003Z</time></trkpt><trkpt lat="14.579077372991161" lon="121.13483196658392"><ele>27.0</ele><time>2026-04-10T07:21:51.001Z</time></trkpt><trkpt lat="14.579156197031786" lon="121.13489206150412"><ele>27.0</ele><time>2026-04-10T07:21:52.001Z</time></trkpt><trkpt lat="14.579231326600706" lon="121.13494529229634"><ele>27.0</ele><time>2026-04-10T07:21:53.001Z</time></trkpt><trkpt lat="14.579299681053532" lon="121.13499213469035"><ele>27.0</ele><time>2026-04-10T07:21:54.001Z</time></trkpt><trkpt lat="14.579367654739276" lon="121.13504105156652"><ele>27.0</ele><time>2026-04-10T07:21:55.001Z</time></trkpt><trkpt lat="14.579444887359056" lon="121.13509048755336"><ele>27.0</ele><time>2026-04-10T07:21:56.001Z</time></trkpt><trkpt lat="14.57951779684398" lon="121.13513382190199"><ele>27.0</ele><time>2026-04-10T07:21:57.001Z</time></trkpt><trkpt lat="14.579579208992685" lon="121.13517562610659"><ele>26.833333333333332</ele><time>2026-04-10T07:21:58.001Z</time></trkpt><trkpt lat="14.57964389525184" lon="121.13521542146238"><ele>26.666666666666664</ele><time>2026-04-10T07:21:59.001Z</time></trkpt><trkpt lat="14.579705331056612" lon="121.13525989931057"><ele>26.5</ele><time>2026-04-10T07:22:00.001Z</time></trkpt><trkpt lat="14.579767167486038" lon="121.13530542096616"><ele>26.333333333333332</ele><time>2026-04-10T07:22:01.001Z</time></trkpt><trkpt lat="14.579865303634241" lon="121.13536483095962"><ele>26.166666666666664</ele><time>2026-04-10T07:22:03.001Z</time></trkpt><trkpt lat="14.579923040128756" lon="121.13539649951576"><ele>26.0</ele><time>2026-04-10T07:22:06.001Z</time></trkpt><trkpt lat="14.579982478320531" lon="121.13543608142703"><ele>25.999999999999996</ele><time>2026-04-10T07:22:10.001Z</time></trkpt><trkpt lat="14.580049098966406" lon="121.13545450304997"><ele>26.0</ele><time>2026-04-10T07:23:47.003Z</time></trkpt><trkpt lat="14.580121739629917" lon="121.13546750903751"><ele>26.0</ele><time>2026-04-10T07:23:49.003Z</time></trkpt><trkpt lat="14.580189380543333" lon="121.13537458336438"><ele>26.0</ele><time>2026-04-10T07:23:51.003Z</time></trkpt><trkpt lat="14.58021461670373" lon="121.13529889290386"><ele>25.999999999999996</ele><time>2026-04-10T07:23:52.003Z</time></trkpt><trkpt lat="14.580230756376045" lon="121.13521416023141"><ele>26.0</ele><time>2026-04-10T07:23:53.003Z</time></trkpt><trkpt lat="14.580252009789016" lon="121.13511956897322"><ele>26.0</ele><time>2026-04-10T07:23:54.003Z</time></trkpt><trkpt lat="14.580277035126429" lon="121.1350202182318"><ele>26.0</ele><time>2026-04-10T07:23:55.003Z</time></trkpt><trkpt lat="14.580301216854604" lon="121.1349140403975"><ele>26.0</ele><time>2026-04-10T07:23:56.003Z</time></trkpt><trkpt lat="14.580329681568005" lon="121.13480300799256"><ele>26.0</ele><time>2026-04-10T07:23:57.001Z</time></trkpt><trkpt lat="14.580365111921289" lon="121.13469230863299"><ele>26.0</ele><time>2026-04-10T07:23:58.001Z</time></trkpt><trkpt lat="14.580407710188297" lon="121.13457441179096"><ele>25.25</ele><time>2026-04-10T07:23:59.001Z</time></trkpt><trkpt lat="14.580453284958022" lon="121.13445864888725"><ele>24.5</ele><time>2026-04-10T07:24:00.001Z</time></trkpt><trkpt lat="14.580493549918746" lon="121.1343379693094"><ele>23.75</ele><time>2026-04-10T07:24:01.001Z</time></trkpt><trkpt lat="14.580532951767552" lon="121.13422175717025"><ele>23.0</ele><time>2026-04-10T07:24:02.001Z</time></trkpt><trkpt lat="14.580567033373638" lon="121.1341163979995"><ele>22.599999999999998</ele><time>2026-04-10T07:24:03.001Z</time></trkpt><trkpt lat="14.580597179705125" lon="121.1340156636173"><ele>22.2</ele><time>2026-04-10T07:24:04.001Z</time></trkpt><trkpt lat="14.580633454127618" lon="121.13391161932518"><ele>21.8</ele><time>2026-04-10T07:24:05.001Z</time></trkpt><trkpt lat="14.580667446507471" lon="121.13380797865699"><ele>21.4</ele><time>2026-04-10T07:24:06.001Z</time></trkpt><trkpt lat="14.580693361720868" lon="121.13370987878422"><ele>21.0</ele><time>2026-04-10T07:24:07.001Z</time></trkpt><trkpt lat="14.580717604192834" lon="121.13360967098876"><ele>21.0</ele><time>2026-04-10T07:24:08.001Z</time></trkpt><trkpt lat="14.58073216218243" lon="121.13350277494757"><ele>21.0</ele><time>2026-04-10T07:24:09.001Z</time></trkpt><trkpt lat="14.580766705981375" lon="121.13340052399906"><ele>21.0</ele><time>2026-04-10T07:24:10.001Z</time></trkpt><trkpt lat="14.580801722345223" lon="121.13329314689113"><ele>21.0</ele><time>2026-04-10T07:24:11.001Z</time></trkpt><trkpt lat="14.580837552505733" lon="121.13318609831268"><ele>21.0</ele><time>2026-04-10T07:24:12.001Z</time></trkpt><trkpt lat="14.580868295245955" lon="121.13307182008516"><ele>20.400000000000002</ele><time>2026-04-10T07:24:13.001Z</time></trkpt><trkpt lat="14.580902894560744" lon="121.13296061876416"><ele>19.8</ele><time>2026-04-10T07:24:14.001Z</time></trkpt><trkpt lat="14.580933889950414" lon="121.13286161494217"><ele>19.200000000000003</ele><time>2026-04-10T07:24:15.001Z</time></trkpt><trkpt lat="14.580963359894081" lon="121.1327708404224"><ele>18.6</ele><time>2026-04-10T07:24:16.001Z</time></trkpt><trkpt lat="14.580990500496053" lon="121.13268699051665"><ele>18.0</ele><time>2026-04-10T07:24:17.001Z</time></trkpt><trkpt lat="14.58101158855658" lon="121.13261893476805"><ele>18.0</ele><time>2026-04-10T07:24:18.001Z</time></trkpt><trkpt lat="14.581044342500673" lon="121.13252664342798"><ele>18.0</ele><time>2026-04-10T07:24:20.001Z</time></trkpt><trkpt lat="14.581078659423813" lon="121.13241704028457"><ele>18.0</ele><time>2026-04-10T07:24:22.001Z</time></trkpt><trkpt lat="14.581109045674058" lon="121.13231826261413"><ele>18.0</ele><time>2026-04-10T07:24:24.001Z</time></trkpt><trkpt lat="14.581136755176948" lon="121.1322320556009"><ele>18.0</ele><time>2026-04-10T07:24:26.001Z</time></trkpt><trkpt lat="14.58116244847291" lon="121.13213919062065"><ele>18.166666666666668</ele><time>2026-04-10T07:24:28.001Z</time></trkpt><trkpt lat="14.581187734542508" lon="121.13205112705276"><ele>18.333333333333332</ele><time>2026-04-10T07:24:30.001Z</time></trkpt><trkpt lat="14.581222784466535" lon="121.13193825330231"><ele>18.5</ele><time>2026-04-10T07:24:32.001Z</time></trkpt><trkpt lat="14.581246786362975" lon="121.13186508549592"><ele>18.666666666666664</ele><time>2026-04-10T07:24:33.001Z</time></trkpt><trkpt lat="14.581269652145748" lon="121.13178252795045"><ele>18.833333333333332</ele><time>2026-04-10T07:24:34.001Z</time></trkpt><trkpt lat="14.581294173190974" lon="121.13170320378757"><ele>19.0</ele><time>2026-04-10T07:24:35.001Z</time></trkpt><trkpt lat="14.581324511336977" lon="121.13160828291089"><ele>19.0</ele><time>2026-04-10T07:24:36.001Z</time></trkpt><trkpt lat="14.581354195395672" lon="121.13152764199708"><ele>19.0</ele><time>2026-04-10T07:24:37.001Z</time></trkpt><trkpt lat="14.581380607436714" lon="121.13146525447517"><ele>19.0</ele><time>2026-04-10T07:24:38.001Z</time></trkpt><trkpt lat="14.581422728004743" lon="121.13136235777306"><ele>19.0</ele><time>2026-04-10T07:24:40.001Z</time></trkpt><trkpt lat="14.581462363222927" lon="121.13124552172943"><ele>19.0</ele><time>2026-04-10T07:24:42.001Z</time></trkpt><trkpt lat="14.581486245456777" lon="121.13115026265864"><ele>19.0</ele><time>2026-04-10T07:24:43.001Z</time></trkpt><trkpt lat="14.581507691621695" lon="121.13105377931616"><ele>19.0</ele><time>2026-04-10T07:24:44.001Z</time></trkpt><trkpt lat="14.581529356273641" lon="121.13095696022776"><ele>19.0</ele><time>2026-04-10T07:24:45.001Z</time></trkpt><trkpt lat="14.581562188170548" lon="121.13084093411838"><ele>19.0</ele><time>2026-04-10T07:24:46.001Z</time></trkpt><trkpt lat="14.58159723029206" lon="121.13072785310176"><ele>19.0</ele><time>2026-04-10T07:24:47.001Z</time></trkpt><trkpt lat="14.58163326872548" lon="121.13060440578205"><ele>18.5</ele><time>2026-04-10T07:24:48.001Z</time></trkpt><trkpt lat="14.581673027087744" lon="121.13047648032887"><ele>18.0</ele><time>2026-04-10T07:24:49.001Z</time></trkpt><trkpt lat="14.581712617074999" lon="121.13034660274727"><ele>17.5</ele><time>2026-04-10T07:24:50.001Z</time></trkpt><trkpt lat="14.581751225609423" lon="121.1302286383146"><ele>17.0</ele><time>2026-04-10T07:24:51.001Z</time></trkpt><trkpt lat="14.581785175865788" lon="121.13011529866218"><ele>17.0</ele><time>2026-04-10T07:24:52.002Z</time></trkpt><trkpt lat="14.581812378373614" lon="121.1300135542578"><ele>17.0</ele><time>2026-04-10T07:24:53.002Z</time></trkpt><trkpt lat="14.581843328841941" lon="121.12991309065997"><ele>17.0</ele><time>2026-04-10T07:24:54.002Z</time></trkpt><trkpt lat="14.581868945557781" lon="121.12982334341257"><ele>17.0</ele><time>2026-04-10T07:24:55.002Z</time></trkpt><trkpt lat="14.581902801321995" lon="121.1297270479396"><ele>17.0</ele><time>2026-04-10T07:24:56.002Z</time></trkpt><trkpt lat="14.581940658156919" lon="121.12962718690305"><ele>17.0</ele><time>2026-04-10T07:24:57.002Z</time></trkpt><trkpt lat="14.581977677957932" lon="121.12951799673517"><ele>17.0</ele><time>2026-04-10T07:24:58.002Z</time></trkpt><trkpt lat="14.58201696103446" lon="121.12939976372951"><ele>17.0</ele><time>2026-04-10T07:24:59.002Z</time></trkpt><trkpt lat="14.582054450323362" lon="121.12928355444512"><ele>17.0</ele><time>2026-04-10T07:25:00.002Z</time></trkpt><trkpt lat="14.582090994852964" lon="121.12916086885399"><ele>17.25</ele><time>2026-04-10T07:25:01.002Z</time></trkpt><trkpt lat="14.582131418936747" lon="121.12903621656801"><ele>17.5</ele><time>2026-04-10T07:25:02.002Z</time></trkpt><trkpt lat="14.582171325323742" lon="121.1289103266245"><ele>17.75</ele><time>2026-04-10T07:25:03.002Z</time></trkpt><trkpt lat="14.582208072323981" lon="121.12877753441671"><ele>18.0</ele><time>2026-04-10T07:25:04.002Z</time></trkpt><trkpt lat="14.58224507971608" lon="121.12865643702168"><ele>18.0</ele><time>2026-04-10T07:25:05.002Z</time></trkpt><trkpt lat="14.582279204036404" lon="121.12853154867908"><ele>18.0</ele><time>2026-04-10T07:25:06.002Z</time></trkpt><trkpt lat="14.582313652660748" lon="121.12841156163104"><ele>18.0</ele><time>2026-04-10T07:25:07.002Z</time></trkpt><trkpt lat="14.58234990468134" lon="121.12830452512996"><ele>18.0</ele><time>2026-04-10T07:25:08.002Z</time></trkpt><trkpt lat="14.582383947274739" lon="121.12821708855061"><ele>18.0</ele><time>2026-04-10T07:25:09.002Z</time></trkpt><trkpt lat="14.582405004983565" lon="121.12814744088205"><ele>18.2</ele><time>2026-04-10T07:25:10.002Z</time></trkpt><trkpt lat="14.582425961281851" lon="121.12805454297441"><ele>18.4</ele><time>2026-04-10T07:25:13.002Z</time></trkpt><trkpt lat="14.58246554323023" lon="121.12797764631694"><ele>18.599999999999998</ele><time>2026-04-10T07:25:16.002Z</time></trkpt><trkpt lat="14.58250022184349" lon="121.12788718557438"><ele>18.8</ele><time>2026-04-10T07:25:18.002Z</time></trkpt><trkpt lat="14.582533665276612" lon="121.12778173412678"><ele>19.0</ele><time>2026-04-10T07:25:20.002Z</time></trkpt><trkpt lat="14.582563493053671" lon="121.12769238194997"><ele>19.0</ele><time>2026-04-10T07:25:22.002Z</time></trkpt><trkpt lat="14.58259165951326" lon="121.12762537967991"><ele>19.0</ele><time>2026-04-10T07:25:24.002Z</time></trkpt><trkpt lat="14.582624818055827" lon="121.1275524227527"><ele>19.0</ele><time>2026-04-10T07:25:26.002Z</time></trkpt><trkpt lat="14.582660021125307" lon="121.12743987044453"><ele>19.0</ele><time>2026-04-10T07:25:28.002Z</time></trkpt><trkpt lat="14.58268211359664" lon="121.12737543732986"><ele>19.0</ele><time>2026-04-10T07:25:29.002Z</time></trkpt><trkpt lat="14.582712301523859" lon="121.12730512942295"><ele>19.0</ele><time>2026-04-10T07:25:30.002Z</time></trkpt><trkpt lat="14.582745559773375" lon="121.12722390015189"><ele>18.4</ele><time>2026-04-10T07:25:31.002Z</time></trkpt><trkpt lat="14.582778169565444" lon="121.12713728096486"><ele>17.799999999999997</ele><time>2026-04-10T07:25:32.002Z</time></trkpt><trkpt lat="14.582810355777871" lon="121.1270459033483"><ele>17.200000000000003</ele><time>2026-04-10T07:25:33.002Z</time></trkpt><trkpt lat="14.582848353966877" lon="121.1269459638118"><ele>16.6</ele><time>2026-04-10T07:25:34.002Z</time></trkpt><trkpt lat="14.582882495725151" lon="121.12684139161544"><ele>16.0</ele><time>2026-04-10T07:25:35.002Z</time></trkpt><trkpt lat="14.582915730454745" lon="121.12673928233039"><ele>15.25</ele><time>2026-04-10T07:25:36.002Z</time></trkpt><trkpt lat="14.582949392953184" lon="121.12663294312185"><ele>14.5</ele><time>2026-04-10T07:25:37.002Z</time></trkpt><trkpt lat="14.582984367780892" lon="121.12652326014371"><ele>13.75</ele><time>2026-04-10T07:25:38.002Z</time></trkpt><trkpt lat="14.583017868784824" lon="121.1264066245334"><ele>13.0</ele><time>2026-04-10T07:25:39.002Z</time></trkpt><trkpt lat="14.583046198379725" lon="121.12629103579927"><ele>13.0</ele><time>2026-04-10T07:25:40.002Z</time></trkpt><trkpt lat="14.583083868749792" lon="121.12617385808888"><ele>13.0</ele><time>2026-04-10T07:25:41.002Z</time></trkpt><trkpt lat="14.583126984982863" lon="121.12606050143746"><ele>13.0</ele><time>2026-04-10T07:25:42.002Z</time></trkpt><trkpt lat="14.583163707335657" lon="121.12593401767343"><ele>13.0</ele><time>2026-04-10T07:25:43.002Z</time></trkpt><trkpt lat="14.583198607138515" lon="121.12581009179137"><ele>13.25</ele><time>2026-04-10T07:25:44.002Z</time></trkpt><trkpt lat="14.5832349396133" lon="121.12568304529545"><ele>13.5</ele><time>2026-04-10T07:25:45.003Z</time></trkpt><trkpt lat="14.583272617923397" lon="121.12555772909232"><ele>13.75</ele><time>2026-04-10T07:25:46.003Z</time></trkpt><trkpt lat="14.583309664855497" lon="121.1254250864988"><ele>14.0</ele><time>2026-04-10T07:25:47.003Z</time></trkpt><trkpt lat="14.583345034284148" lon="121.12529021482456"><ele>14.0</ele><time>2026-04-10T07:25:48.003Z</time></trkpt><trkpt lat="14.583377421907967" lon="121.12517138682082"><ele>14.0</ele><time>2026-04-10T07:25:49.003Z</time></trkpt><trkpt lat="14.583408744010272" lon="121.12505678630842"><ele>14.0</ele><time>2026-04-10T07:25:50.003Z</time></trkpt><trkpt lat="14.583444886317741" lon="121.12493283939007"><ele>14.0</ele><time>2026-04-10T07:25:51.003Z</time></trkpt><trkpt lat="14.583480230364778" lon="121.12480985037087"><ele>13.25</ele><time>2026-04-10T07:25:52.003Z</time></trkpt><trkpt lat="14.583518313947764" lon="121.12468316345155"><ele>12.5</ele><time>2026-04-10T07:25:53.003Z</time></trkpt><trkpt lat="14.583559508934181" lon="121.12455538770342"><ele>11.75</ele><time>2026-04-10T07:25:54.003Z</time></trkpt><trkpt lat="14.583602586534186" lon="121.12443188707243"><ele>11.0</ele><time>2026-04-10T07:25:55.003Z</time></trkpt><trkpt lat="14.58363945508771" lon="121.12431068943995"><ele>11.0</ele><time>2026-04-10T07:25:56.003Z</time></trkpt><trkpt lat="14.583673710190139" lon="121.12420374302017"><ele>11.0</ele><time>2026-04-10T07:25:57.003Z</time></trkpt><trkpt lat="14.583702700219819" lon="121.1241084582168"><ele>11.0</ele><time>2026-04-10T07:25:58.003Z</time></trkpt><trkpt lat="14.583722561363604" lon="121.12403830289833"><ele>11.0</ele><time>2026-04-10T07:25:59.003Z</time></trkpt><trkpt lat="14.583758271681829" lon="121.12395024161637"><ele>11.0</ele><time>2026-04-10T07:26:01.003Z</time></trkpt><trkpt lat="14.583792764490832" lon="121.12387039558597"><ele>11.5</ele><time>2026-04-10T07:26:03.001Z</time></trkpt><trkpt lat="14.583828626832364" lon="121.12375790349527"><ele>12.0</ele><time>2026-04-10T07:26:05.001Z</time></trkpt><trkpt lat="14.583841473587983" lon="121.12368090045278"><ele>12.5</ele><time>2026-04-10T07:26:06.001Z</time></trkpt><trkpt lat="14.58386225353468" lon="121.12360790264422"><ele>13.0</ele><time>2026-04-10T07:26:07.001Z</time></trkpt><trkpt lat="14.583888487138562" lon="121.12352980730903"><ele>13.500000000000002</ele><time>2026-04-10T07:26:08.001Z</time></trkpt><trkpt lat="14.583914009776388" lon="121.1234484190767"><ele>14.0</ele><time>2026-04-10T07:26:09.001Z</time></trkpt><trkpt lat="14.583939798886803" lon="121.12336950926651"><ele>14.000000000000002</ele><time>2026-04-10T07:26:10.001Z</time></trkpt><trkpt lat="14.5839675165617" lon="121.12329519729286"><ele>14.0</ele><time>2026-04-10T07:26:11.001Z</time></trkpt><trkpt lat="14.58399252689313" lon="121.12322043655777"><ele>14.0</ele><time>2026-04-10T07:26:12.001Z</time></trkpt><trkpt lat="14.584033053284184" lon="121.12309514345243"><ele>14.0</ele><time>2026-04-10T07:26:14.001Z</time></trkpt><trkpt lat="14.584049878672111" lon="121.12303075007614"><ele>14.000000000000002</ele><time>2026-04-10T07:26:15.001Z</time></trkpt><trkpt lat="14.584072694305638" lon="121.12296425208426"><ele>14.0</ele><time>2026-04-10T07:26:16.001Z</time></trkpt><trkpt lat="14.58409549109706" lon="121.12289969430113"><ele>13.666666666666668</ele><time>2026-04-10T07:26:17.001Z</time></trkpt><trkpt lat="14.584114474631482" lon="121.12283744453376"><ele>13.333333333333334</ele><time>2026-04-10T07:26:18.001Z</time></trkpt><trkpt lat="14.58414840953181" lon="121.12272235576586"><ele>13.0</ele><time>2026-04-10T07:26:20.001Z</time></trkpt><trkpt lat="14.584169743441521" lon="121.12264873264945"><ele>12.666666666666668</ele><time>2026-04-10T07:26:21.001Z</time></trkpt><trkpt lat="14.584194701249302" lon="121.12257498957247"><ele>12.333333333333334</ele><time>2026-04-10T07:26:22.001Z</time></trkpt><trkpt lat="14.584221132147144" lon="121.12248515164335"><ele>12.0</ele><time>2026-04-10T07:26:23.001Z</time></trkpt><trkpt lat="14.584252531260685" lon="121.12238945177077"><ele>12.0</ele><time>2026-04-10T07:26:24.001Z</time></trkpt><trkpt lat="14.584288377400823" lon="121.1222883753895"><ele>12.0</ele><time>2026-04-10T07:26:25.001Z</time></trkpt><trkpt lat="14.58431966209704" lon="121.12218469345754"><ele>12.0</ele><time>2026-04-10T07:26:26.001Z</time></trkpt><trkpt lat="14.584351268479574" lon="121.12207308485056"><ele>12.0</ele><time>2026-04-10T07:26:27.001Z</time></trkpt><trkpt lat="14.584384703915948" lon="121.12195830172803"><ele>12.0</ele><time>2026-04-10T07:26:28.001Z</time></trkpt><trkpt lat="14.58442370045949" lon="121.12183397296177"><ele>12.0</ele><time>2026-04-10T07:26:29.001Z</time></trkpt><trkpt lat="14.584460315274804" lon="121.12171510539929"><ele>12.0</ele><time>2026-04-10T07:26:30.001Z</time></trkpt><trkpt lat="14.584498941421081" lon="121.12158716400391"><ele>12.0</ele><time>2026-04-10T07:26:31.001Z</time></trkpt><trkpt lat="14.58453702395599" lon="121.12145235065238"><ele>12.0</ele><time>2026-04-10T07:26:32.001Z</time></trkpt><trkpt lat="14.584580704901908" lon="121.12131247710347"><ele>12.0</ele><time>2026-04-10T07:26:33.001Z</time></trkpt><trkpt lat="14.584623393784778" lon="121.12117236603075"><ele>12.0</ele><time>2026-04-10T07:26:34.001Z</time></trkpt><trkpt lat="14.58466385412725" lon="121.12102803374799"><ele>12.0</ele><time>2026-04-10T07:26:35.001Z</time></trkpt><trkpt lat="14.584703417735605" lon="121.12089334479357"><ele>12.0</ele><time>2026-04-10T07:26:36.001Z</time></trkpt><trkpt lat="14.58473811052946" lon="121.1207687457565"><ele>11.666666666666666</ele><time>2026-04-10T07:26:37.001Z</time></trkpt><trkpt lat="14.584765711555482" lon="121.12066967460488"><ele>11.333333333333334</ele><time>2026-04-10T07:26:38.001Z</time></trkpt><trkpt lat="14.58479303683067" lon="121.12057815240344"><ele>11.0</ele><time>2026-04-10T07:26:40.001Z</time></trkpt><trkpt lat="14.584813531231221" lon="121.1204923905542"><ele>10.666666666666668</ele><time>2026-04-10T07:26:43.001Z</time></trkpt><trkpt lat="14.5848411639061" lon="121.12041264572231"><ele>10.333333333333334</ele><time>2026-04-10T07:26:47.001Z</time></trkpt><trkpt lat="14.584868460757198" lon="121.12032587720613"><ele>10.0</ele><time>2026-04-10T07:26:49.001Z</time></trkpt><trkpt lat="14.584892908775641" lon="121.12026155246103"><ele>10.0</ele><time>2026-04-10T07:26:50.001Z</time></trkpt><trkpt lat="14.584916988127967" lon="121.12017813184448"><ele>10.0</ele><time>2026-04-10T07:26:51.001Z</time></trkpt><trkpt lat="14.584946187842206" lon="121.12008334846495"><ele>10.0</ele><time>2026-04-10T07:26:52.001Z</time></trkpt><trkpt lat="14.584976550266108" lon="121.11998999389324"><ele>10.0</ele><time>2026-04-10T07:26:53.001Z</time></trkpt><trkpt lat="14.58501288477566" lon="121.11988103563472"><ele>10.0</ele><time>2026-04-10T07:26:54.001Z</time></trkpt><trkpt lat="14.585049846781459" lon="121.11976578715468"><ele>10.0</ele><time>2026-04-10T07:26:55.001Z</time></trkpt><trkpt lat="14.585086026988344" lon="121.11965214501153"><ele>10.0</ele><time>2026-04-10T07:26:56.001Z</time></trkpt><trkpt lat="14.585120406056124" lon="121.11955245281791"><ele>10.0</ele><time>2026-04-10T07:26:57.001Z</time></trkpt><trkpt lat="14.585153217285821" lon="121.11945649020836"><ele>10.0</ele><time>2026-04-10T07:26:58.001Z</time></trkpt><trkpt lat="14.585181560369337" lon="121.11937021112824"><ele>10.0</ele><time>2026-04-10T07:26:59.001Z</time></trkpt><trkpt lat="14.585210348339542" lon="121.11929108334719"><ele>10.0</ele><time>2026-04-10T07:27:00.001Z</time></trkpt><trkpt lat="14.585239239138552" lon="121.1192175976016"><ele>10.0</ele><time>2026-04-10T07:27:01.001Z</time></trkpt><trkpt lat="14.585264231507697" lon="121.1191539362879"><ele>10.0</ele><time>2026-04-10T07:27:02.001Z</time></trkpt><trkpt lat="14.585290514196886" lon="121.11906435369515"><ele>10.0</ele><time>2026-04-10T07:27:04.001Z</time></trkpt><trkpt lat="14.585320809004132" lon="121.11899178329078"><ele>10.0</ele><time>2026-04-10T07:27:09.002Z</time></trkpt><trkpt lat="14.585347590669038" lon="121.11890868908041"><ele>10.0</ele><time>2026-04-10T07:27:12.002Z</time></trkpt><trkpt lat="14.585375809125" lon="121.1188259206297"><ele>10.333333333333334</ele><time>2026-04-10T07:27:14.002Z</time></trkpt><trkpt lat="14.585405278353976" lon="121.11872762070784"><ele>10.666666666666668</ele><time>2026-04-10T07:27:16.002Z</time></trkpt><trkpt lat="14.585434793634791" lon="121.11864334107773"><ele>11.0</ele><time>2026-04-10T07:27:18.002Z</time></trkpt><trkpt lat="14.585462092456563" lon="121.11856487613704"><ele>11.333333333333334</ele><time>2026-04-10T07:27:21.002Z</time></trkpt><trkpt lat="14.585482285671464" lon="121.1184877763858"><ele>11.666666666666666</ele><time>2026-04-10T07:27:25.002Z</time></trkpt><trkpt lat="14.585501665584903" lon="121.11841710268446"><ele>12.0</ele><time>2026-04-10T07:27:28.002Z</time></trkpt><trkpt lat="14.585536157113069" lon="121.118334732199"><ele>12.0</ele><time>2026-04-10T07:27:31.002Z</time></trkpt><trkpt lat="14.585560085587636" lon="121.11824559119744"><ele>12.0</ele><time>2026-04-10T07:27:33.002Z</time></trkpt><trkpt lat="14.58557645408365" lon="121.11816485446153"><ele>12.0</ele><time>2026-04-10T07:27:36.002Z</time></trkpt><trkpt lat="14.585614498351458" lon="121.1180634055171"><ele>12.0</ele><time>2026-04-10T07:27:38.002Z</time></trkpt><trkpt lat="14.585652660429522" lon="121.11795172149897"><ele>12.0</ele><time>2026-04-10T07:27:40.002Z</time></trkpt><trkpt lat="14.585695747514212" lon="121.11783115828567"><ele>11.833333333333334</ele><time>2026-04-10T07:27:42.002Z</time></trkpt><trkpt lat="14.585722607770437" lon="121.11775458743553"><ele>11.666666666666666</ele><time>2026-04-10T07:27:43.002Z</time></trkpt><trkpt lat="14.58576823267685" lon="121.1176240017368"><ele>11.5</ele><time>2026-04-10T07:27:45.002Z</time></trkpt><trkpt lat="14.585803700847912" lon="121.11753403475868"><ele>11.333333333333332</ele><time>2026-04-10T07:27:46.002Z</time></trkpt><trkpt lat="14.585822529878094" lon="121.11747071733166"><ele>11.166666666666666</ele><time>2026-04-10T07:27:47.002Z</time></trkpt><trkpt lat="14.585844227013403" lon="121.11739381672521"><ele>11.0</ele><time>2026-04-10T07:27:48.002Z</time></trkpt><trkpt lat="14.585867023844775" lon="121.11731505663175"><ele>11.0</ele><time>2026-04-10T07:27:49.002Z</time></trkpt><trkpt lat="14.585900419605629" lon="121.11718648071958"><ele>11.0</ele><time>2026-04-10T07:27:51.002Z</time></trkpt><trkpt lat="14.58592271112075" lon="121.11710543731716"><ele>11.0</ele><time>2026-04-10T07:27:52.002Z</time></trkpt><trkpt lat="14.585957545969842" lon="121.11701962272018"><ele>11.0</ele><time>2026-04-10T07:27:53.002Z</time></trkpt><trkpt lat="14.585988341805198" lon="121.11694220434343"><ele>11.0</ele><time>2026-04-10T07:27:54.002Z</time></trkpt><trkpt lat="14.586013585303434" lon="121.1168658357833"><ele>11.0</ele><time>2026-04-10T07:27:55.002Z</time></trkpt><trkpt lat="14.58603917455932" lon="121.11679209185763"><ele>11.0</ele><time>2026-04-10T07:27:56.002Z</time></trkpt><trkpt lat="14.586063494224488" lon="121.11671913588248"><ele>11.0</ele><time>2026-04-10T07:27:57.002Z</time></trkpt><trkpt lat="14.586074294810507" lon="121.11664053213569"><ele>11.0</ele><time>2026-04-10T07:27:58.002Z</time></trkpt><trkpt lat="14.586100607223075" lon="121.11655669563855"><ele>11.0</ele><time>2026-04-10T07:27:59.002Z</time></trkpt><trkpt lat="14.58613034558541" lon="121.11646194338367"><ele>11.0</ele><time>2026-04-10T07:28:00.002Z</time></trkpt><trkpt lat="14.58616047673878" lon="121.11636593987011"><ele>10.666666666666666</ele><time>2026-04-10T07:28:01.003Z</time></trkpt><trkpt lat="14.586190753357135" lon="121.11626307020465"><ele>10.333333333333332</ele><time>2026-04-10T07:28:02.003Z</time></trkpt><trkpt lat="14.586216492264962" lon="121.11616968264713"><ele>10.0</ele><time>2026-04-10T07:28:03.003Z</time></trkpt><trkpt lat="14.586224596939289" lon="121.11608190687029"><ele>9.666666666666666</ele><time>2026-04-10T07:28:04.003Z</time></trkpt><trkpt lat="14.586286284303506" lon="121.11601799185544"><ele>9.333333333333334</ele><time>2026-04-10T07:28:05.003Z</time></trkpt><trkpt lat="14.586298981227682" lon="121.11594988093681"><ele>9.0</ele><time>2026-04-10T07:28:06.003Z</time></trkpt><trkpt lat="14.586315310041176" lon="121.11587351980667"><ele>9.0</ele><time>2026-04-10T07:28:07.003Z</time></trkpt><trkpt lat="14.586344244987133" lon="121.11579164681918"><ele>9.0</ele><time>2026-04-10T07:28:08.003Z</time></trkpt><trkpt lat="14.586373516848967" lon="121.1157242890435"><ele>9.0</ele><time>2026-04-10T07:28:09Z</time></trkpt><trkpt lat="14.586402539710928" lon="121.11565540670503"><ele>9.0</ele><time>2026-04-10T07:28:10Z</time></trkpt><trkpt lat="14.58643161496578" lon="121.1155815973444"><ele>9.0</ele><time>2026-04-10T07:28:11Z</time></trkpt><trkpt lat="14.58645360584584" lon="121.11550156906321"><ele>9.0</ele><time>2026-04-10T07:28:12Z</time></trkpt><trkpt lat="14.586474251993614" lon="121.11541317373421"><ele>9.166666666666666</ele><time>2026-04-10T07:28:13Z</time></trkpt><trkpt lat="14.586502946313905" lon="121.11531752655169"><ele>9.333333333333334</ele><time>2026-04-10T07:28:14Z</time></trkpt><trkpt lat="14.586545381824278" lon="121.11521862931708"><ele>9.5</ele><time>2026-04-10T07:28:15Z</time></trkpt><trkpt lat="14.586574740755292" lon="121.11513827784692"><ele>9.666666666666668</ele><time>2026-04-10T07:28:16Z</time></trkpt><trkpt lat="14.58660732000569" lon="121.11507332500605"><ele>9.833333333333334</ele><time>2026-04-10T07:28:17Z</time></trkpt><trkpt lat="14.586661594357478" lon="121.11501886553476"><ele>10.0</ele><time>2026-04-10T07:28:18Z</time></trkpt><trkpt lat="14.586724338765466" lon="121.11498011914301"><ele>10.0</ele><time>2026-04-10T07:28:19Z</time></trkpt><trkpt lat="14.586789145386366" lon="121.11494769583831"><ele>10.0</ele><time>2026-04-10T07:28:20Z</time></trkpt><trkpt lat="14.586861267681417" lon="121.11492539895998"><ele>10.0</ele><time>2026-04-10T07:28:21Z</time></trkpt><trkpt lat="14.586936234835992" lon="121.11491307531071"><ele>10.0</ele><time>2026-04-10T07:28:22Z</time></trkpt><trkpt lat="14.587023051765584" lon="121.11491143936091"><ele>10.0</ele><time>2026-04-10T07:28:23Z</time></trkpt><trkpt lat="14.58711610034021" lon="121.11490922908881"><ele>10.0</ele><time>2026-04-10T07:28:24Z</time></trkpt><trkpt lat="14.587214714603451" lon="121.11490257529545"><ele>10.25</ele><time>2026-04-10T07:28:25Z</time></trkpt><trkpt lat="14.587321517924412" lon="121.11489569500289"><ele>10.5</ele><time>2026-04-10T07:28:26Z</time></trkpt><trkpt lat="14.587428034811117" lon="121.11488587986997"><ele>10.75</ele><time>2026-04-10T07:28:27Z</time></trkpt><trkpt lat="14.58754656587256" lon="121.11487487958765"><ele>11.0</ele><time>2026-04-10T07:28:28Z</time></trkpt><trkpt lat="14.587663337462976" lon="121.11486584025417"><ele>11.0</ele><time>2026-04-10T07:28:29Z</time></trkpt><trkpt lat="14.587788356889833" lon="121.11486108864497"><ele>11.0</ele><time>2026-04-10T07:28:30Z</time></trkpt><trkpt lat="14.587912821105888" lon="121.1148554682229"><ele>11.0</ele><time>2026-04-10T07:28:31.001Z</time></trkpt><trkpt lat="14.588037154416217" lon="121.11484736156461"><ele>11.0</ele><time>2026-04-10T07:28:32.001Z</time></trkpt><trkpt lat="14.588160841679514" lon="121.11484045953985"><ele>11.25</ele><time>2026-04-10T07:28:33.001Z</time></trkpt><trkpt lat="14.588278778525348" lon="121.11483491212077"><ele>11.5</ele><time>2026-04-10T07:28:34.001Z</time></trkpt><trkpt lat="14.588390357189258" lon="121.11482677152706"><ele>11.75</ele><time>2026-04-10T07:28:35.001Z</time></trkpt><trkpt lat="14.588510458025015" lon="121.11481554402263"><ele>12.0</ele><time>2026-04-10T07:28:36.001Z</time></trkpt><trkpt lat="14.588628290644026" lon="121.11480273138726"><ele>12.0</ele><time>2026-04-10T07:28:37.001Z</time></trkpt><trkpt lat="14.588750114360622" lon="121.1147889385576"><ele>12.0</ele><time>2026-04-10T07:28:38.001Z</time></trkpt><trkpt lat="14.58886713123841" lon="121.11476559190383"><ele>12.0</ele><time>2026-04-10T07:28:39.001Z</time></trkpt><trkpt lat="14.588989994111985" lon="121.11472660201815"><ele>12.0</ele><time>2026-04-10T07:28:40.001Z</time></trkpt><trkpt lat="14.589101751555788" lon="121.11466880981284"><ele>12.0</ele><time>2026-04-10T07:28:41.001Z</time></trkpt><trkpt lat="14.58921538012155" lon="121.11459914191322"><ele>12.0</ele><time>2026-04-10T07:28:42.001Z</time></trkpt><trkpt lat="14.589328490000648" lon="121.11452434523704"><ele>12.0</ele><time>2026-04-10T07:28:43.001Z</time></trkpt><trkpt lat="14.589448787597485" lon="121.11444949724212"><ele>12.0</ele><time>2026-04-10T07:28:44.001Z</time></trkpt><trkpt lat="14.58956994077935" lon="121.1143778259208"><ele>12.0</ele><time>2026-04-10T07:28:45.001Z</time></trkpt><trkpt lat="14.589691224190718" lon="121.11430669033668"><ele>12.0</ele><time>2026-04-10T07:28:46.001Z</time></trkpt><trkpt lat="14.589814573413255" lon="121.11423217863948"><ele>12.0</ele><time>2026-04-10T07:28:47.001Z</time></trkpt><trkpt lat="14.589937861476532" lon="121.11415294670017"><ele>12.0</ele><time>2026-04-10T07:28:48.001Z</time></trkpt><trkpt lat="14.59006133093907" lon="121.11407143568091"><ele>12.0</ele><time>2026-04-10T07:28:49.001Z</time></trkpt><trkpt lat="14.59018779223385" lon="121.11399079231535"><ele>12.0</ele><time>2026-04-10T07:28:50.001Z</time></trkpt><trkpt lat="14.590314555489712" lon="121.113908030397"><ele>12.0</ele><time>2026-04-10T07:28:51.001Z</time></trkpt><trkpt lat="14.590440359285525" lon="121.11382563946208"><ele>12.0</ele><time>2026-04-10T07:28:52.001Z</time></trkpt><trkpt lat="14.590567184176477" lon="121.11374637639918"><ele>12.0</ele><time>2026-04-10T07:28:53.001Z</time></trkpt><trkpt lat="14.590694380171458" lon="121.11366390972454"><ele>12.0</ele><time>2026-04-10T07:28:54.001Z</time></trkpt><trkpt lat="14.590813912542435" lon="121.1135867608423"><ele>12.0</ele><time>2026-04-10T07:28:55.001Z</time></trkpt><trkpt lat="14.590925342713236" lon="121.11351558346281"><ele>12.0</ele><time>2026-04-10T07:28:56.001Z</time></trkpt><trkpt lat="14.591028905962219" lon="121.11344599581275"><ele>12.0</ele><time>2026-04-10T07:28:57.001Z</time></trkpt><trkpt lat="14.591142409205949" lon="121.11337034652949"><ele>12.0</ele><time>2026-04-10T07:28:58.001Z</time></trkpt><trkpt lat="14.5912506918518" lon="121.11330613970566"><ele>12.0</ele><time>2026-04-10T07:28:59.001Z</time></trkpt><trkpt lat="14.591342528283336" lon="121.11325190560196"><ele>12.0</ele><time>2026-04-10T07:29:00.001Z</time></trkpt><trkpt lat="14.591419732930481" lon="121.11320936395944"><ele>11.8</ele><time>2026-04-10T07:29:01.001Z</time></trkpt><trkpt lat="14.591494983165493" lon="121.11316853604426"><ele>11.6</ele><time>2026-04-10T07:29:02.001Z</time></trkpt><trkpt lat="14.591579993758911" lon="121.11311694222724"><ele>11.4</ele><time>2026-04-10T07:29:03.001Z</time></trkpt><trkpt lat="14.591668479705755" lon="121.11306177656168"><ele>11.200000000000001</ele><time>2026-04-10T07:29:04.001Z</time></trkpt><trkpt lat="14.591758538874155" lon="121.11300511578122"><ele>11.0</ele><time>2026-04-10T07:29:05.001Z</time></trkpt><trkpt lat="14.591842822047656" lon="121.11295261342566"><ele>11.0</ele><time>2026-04-10T07:29:06.001Z</time></trkpt><trkpt lat="14.591919649908757" lon="121.11290142982405"><ele>11.0</ele><time>2026-04-10T07:29:07.001Z</time></trkpt><trkpt lat="14.591980126903328" lon="121.11286157054774"><ele>11.0</ele><time>2026-04-10T07:29:08.001Z</time></trkpt><trkpt lat="14.592068884558996" lon="121.11280385046695"><ele>11.0</ele><time>2026-04-10T07:29:10.001Z</time></trkpt><trkpt lat="14.592146121983813" lon="121.11274145340835"><ele>11.0</ele><time>2026-04-10T07:29:12.001Z</time></trkpt><trkpt lat="14.592246255939948" lon="121.112680253396"><ele>11.142857142857142</ele><time>2026-04-10T07:29:14.001Z</time></trkpt><trkpt lat="14.592306225997612" lon="121.11264654570144"><ele>11.285714285714285</ele><time>2026-04-10T07:29:15.001Z</time></trkpt><trkpt lat="14.592367585321858" lon="121.11260758529883"><ele>11.428571428571427</ele><time>2026-04-10T07:29:16.001Z</time></trkpt><trkpt lat="14.592426190652125" lon="121.1125699878204"><ele>11.571428571428571</ele><time>2026-04-10T07:29:17.001Z</time></trkpt><trkpt lat="14.592484209771518" lon="121.1125324269456"><ele>11.714285714285714</ele><time>2026-04-10T07:29:18.001Z</time></trkpt><trkpt lat="14.592542668808628" lon="121.11249889414596"><ele>11.857142857142856</ele><time>2026-04-10T07:29:19.001Z</time></trkpt><trkpt lat="14.59260873400736" lon="121.1124632082092"><ele>12.0</ele><time>2026-04-10T07:29:20.001Z</time></trkpt><trkpt lat="14.592682656746724" lon="121.11242013742684"><ele>12.399999999999999</ele><time>2026-04-10T07:29:21.001Z</time></trkpt><trkpt lat="14.592763705983943" lon="121.11236884314725"><ele>12.799999999999999</ele><time>2026-04-10T07:29:22.001Z</time></trkpt><trkpt lat="14.592842671850626" lon="121.11231741308097"><ele>13.2</ele><time>2026-04-10T07:29:23.001Z</time></trkpt><trkpt lat="14.592930041063347" lon="121.1122609797898"><ele>13.6</ele><time>2026-04-10T07:29:24.001Z</time></trkpt><trkpt lat="14.59302695590539" lon="121.11219852423729"><ele>14.0</ele><time>2026-04-10T07:29:25.001Z</time></trkpt><trkpt lat="14.593127199599202" lon="121.1121325982631"><ele>13.0</ele><time>2026-04-10T07:29:26.002Z</time></trkpt><trkpt lat="14.593228738720098" lon="121.11206862310085"><ele>12.0</ele><time>2026-04-10T07:29:27.002Z</time></trkpt><trkpt lat="14.593326188097016" lon="121.11200285976146"><ele>11.0</ele><time>2026-04-10T07:29:28.002Z</time></trkpt><trkpt lat="14.593421223886844" lon="121.11194278466466"><ele>10.0</ele><time>2026-04-10T07:29:29.002Z</time></trkpt><trkpt lat="14.593514790758258" lon="121.11188536331959"><ele>10.0</ele><time>2026-04-10T07:29:30.002Z</time></trkpt><trkpt lat="14.593600803465852" lon="121.11183343788665"><ele>10.0</ele><time>2026-04-10T07:29:31.002Z</time></trkpt><trkpt lat="14.593687843418994" lon="121.11177726298519"><ele>10.0</ele><time>2026-04-10T07:29:32.002Z</time></trkpt><trkpt lat="14.593770201838556" lon="121.11173329569024"><ele>10.0</ele><time>2026-04-10T07:29:33.002Z</time></trkpt><trkpt lat="14.593849148488262" lon="121.11168552410986"><ele>10.0</ele><time>2026-04-10T07:29:34.002Z</time></trkpt><trkpt lat="14.593917724729295" lon="121.11164166072574"><ele>9.666666666666668</ele><time>2026-04-10T07:29:35.002Z</time></trkpt><trkpt lat="14.593980692206447" lon="121.11160169624921"><ele>9.333333333333334</ele><time>2026-04-10T07:29:36.002Z</time></trkpt><trkpt lat="14.594040106791399" lon="121.11156139891365"><ele>9.0</ele><time>2026-04-10T07:29:37.002Z</time></trkpt><trkpt lat="14.594102227086127" lon="121.11151954471174"><ele>8.666666666666666</ele><time>2026-04-10T07:29:38.002Z</time></trkpt><trkpt lat="14.594171194603405" lon="121.11147622503204"><ele>8.333333333333332</ele><time>2026-04-10T07:29:39.002Z</time></trkpt><trkpt lat="14.594253161369414" lon="121.11142797009602"><ele>8.0</ele><time>2026-04-10T07:29:40.002Z</time></trkpt><trkpt lat="14.594309950465156" lon="121.11139227888462"><ele>7.999999999999999</ele><time>2026-04-10T07:29:41.002Z</time></trkpt><trkpt lat="14.594372456134328" lon="121.1113522650773"><ele>8.0</ele><time>2026-04-10T07:29:42.002Z</time></trkpt><trkpt lat="14.594434129176555" lon="121.11131112663665"><ele>8.0</ele><time>2026-04-10T07:29:43.002Z</time></trkpt><trkpt lat="14.594487362860113" lon="121.11127419306953"><ele>8.0</ele><time>2026-04-10T07:29:44.002Z</time></trkpt><trkpt lat="14.594588305975316" lon="121.1112070652822"><ele>7.999999999999999</ele><time>2026-04-10T07:29:46.002Z</time></trkpt><trkpt lat="14.594686378300835" lon="121.11115287304196"><ele>8.0</ele><time>2026-04-10T07:29:48.002Z</time></trkpt><trkpt lat="14.594747830533755" lon="121.11111866433426"><ele>8.5</ele><time>2026-04-10T07:29:49.002Z</time></trkpt><trkpt lat="14.594814355788298" lon="121.11107977697044"><ele>9.0</ele><time>2026-04-10T07:29:50.002Z</time></trkpt><trkpt lat="14.594883803725802" lon="121.11103754204868"><ele>9.5</ele><time>2026-04-10T07:29:51.002Z</time></trkpt><trkpt lat="14.594955730260738" lon="121.11099653210951"><ele>10.0</ele><time>2026-04-10T07:29:52.002Z</time></trkpt><trkpt lat="14.595023334937068" lon="121.11096137172187"><ele>10.5</ele><time>2026-04-10T07:29:53.002Z</time></trkpt><trkpt lat="14.595088770807926" lon="121.11092455311412"><ele>11.0</ele><time>2026-04-10T07:29:54.002Z</time></trkpt><trkpt lat="14.595145554654701" lon="121.11089041295216"><ele>11.0</ele><time>2026-04-10T07:29:55.002Z</time></trkpt><trkpt lat="14.595224514931546" lon="121.1108395403168"><ele>11.0</ele><time>2026-04-10T07:29:57.002Z</time></trkpt><trkpt lat="14.595313701182867" lon="121.11077466789865"><ele>11.0</ele><time>2026-04-10T07:30:01.002Z</time></trkpt><trkpt lat="14.595373299255064" lon="121.11074085080031"><ele>11.0</ele><time>2026-04-10T07:30:02.002Z</time></trkpt><trkpt lat="14.595436238168496" lon="121.11069989582579"><ele>11.0</ele><time>2026-04-10T07:30:03.002Z</time></trkpt><trkpt lat="14.595511585471362" lon="121.11065226316457"><ele>11.0</ele><time>2026-04-10T07:30:04.002Z</time></trkpt><trkpt lat="14.595595226618132" lon="121.11060236902537"><ele>11.200000000000001</ele><time>2026-04-10T07:30:05.002Z</time></trkpt><trkpt lat="14.595682393602717" lon="121.11054946052664"><ele>11.4</ele><time>2026-04-10T07:30:06.002Z</time></trkpt><trkpt lat="14.595776007073844" lon="121.11048897205468"><ele>11.6</ele><time>2026-04-10T07:30:07.002Z</time></trkpt><trkpt lat="14.595873033274959" lon="121.11042592975433"><ele>11.8</ele><time>2026-04-10T07:30:08.002Z</time></trkpt><trkpt lat="14.595974168322535" lon="121.11036136110802"><ele>12.0</ele><time>2026-04-10T07:30:09.002Z</time></trkpt><trkpt lat="14.596073778816937" lon="121.11029710909501"><ele>11.25</ele><time>2026-04-10T07:30:10.002Z</time></trkpt><trkpt lat="14.596172169398335" lon="121.11023598011035"><ele>10.5</ele><time>2026-04-10T07:30:11.002Z</time></trkpt><trkpt lat="14.596268763279522" lon="121.11017349877703"><ele>9.75</ele><time>2026-04-10T07:30:12.002Z</time></trkpt><trkpt lat="14.596369400170337" lon="121.11011432804285"><ele>9.0</ele><time>2026-04-10T07:30:13.002Z</time></trkpt><trkpt lat="14.596473390624924" lon="121.1100513339433"><ele>9.0</ele><time>2026-04-10T07:30:14.002Z</time></trkpt><trkpt lat="14.596578130807437" lon="121.10998326609683"><ele>9.0</ele><time>2026-04-10T07:30:15Z</time></trkpt><trkpt lat="14.59668417976599" lon="121.10991078258144"><ele>9.0</ele><time>2026-04-10T07:30:16Z</time></trkpt><trkpt lat="14.596793296991335" lon="121.10983888941455"><ele>9.0</ele><time>2026-04-10T07:30:17Z</time></trkpt><trkpt lat="14.596901101307004" lon="121.1097730107252"><ele>10.0</ele><time>2026-04-10T07:30:18Z</time></trkpt><trkpt lat="14.59701515811001" lon="121.10969600622859"><ele>11.0</ele><time>2026-04-10T07:30:19Z</time></trkpt><trkpt lat="14.597129482114376" lon="121.10961741142496"><ele>12.0</ele><time>2026-04-10T07:30:20Z</time></trkpt><trkpt lat="14.597238770568064" lon="121.10953507662273"><ele>13.0</ele><time>2026-04-10T07:30:21Z</time></trkpt><trkpt lat="14.597349717839744" lon="121.10945187932249"><ele>13.0</ele><time>2026-04-10T07:30:22Z</time></trkpt><trkpt lat="14.597456170346119" lon="121.10937420814078"><ele>13.0</ele><time>2026-04-10T07:30:23Z</time></trkpt><trkpt lat="14.597567058643238" lon="121.10930139275874"><ele>13.0</ele><time>2026-04-10T07:30:24Z</time></trkpt><trkpt lat="14.597688127161309" lon="121.10923753461869"><ele>13.0</ele><time>2026-04-10T07:30:25Z</time></trkpt><trkpt lat="14.597813498663545" lon="121.10917552478519"><ele>13.0</ele><time>2026-04-10T07:30:26Z</time></trkpt><trkpt lat="14.597932385252646" lon="121.10910624174257"><ele>13.0</ele><time>2026-04-10T07:30:27Z</time></trkpt><trkpt lat="14.598040335347946" lon="121.10903610266021"><ele>13.0</ele><time>2026-04-10T07:30:28Z</time></trkpt><trkpt lat="14.598150600306973" lon="121.10896828394968"><ele>13.0</ele><time>2026-04-10T07:30:29Z</time></trkpt><trkpt lat="14.598260536565196" lon="121.1089058558175"><ele>13.0</ele><time>2026-04-10T07:30:30Z</time></trkpt><trkpt lat="14.598374025897979" lon="121.10883614386219"><ele>13.0</ele><time>2026-04-10T07:30:31Z</time></trkpt><trkpt lat="14.598483068231799" lon="121.10877102941105"><ele>13.0</ele><time>2026-04-10T07:30:32Z</time></trkpt><trkpt lat="14.598595211049544" lon="121.10870168182146"><ele>13.0</ele><time>2026-04-10T07:30:33Z</time></trkpt><trkpt lat="14.598702334658228" lon="121.1086385256898"><ele>12.5</ele><time>2026-04-10T07:30:34.001Z</time></trkpt><trkpt lat="14.598817075509663" lon="121.10857187447384"><ele>12.0</ele><time>2026-04-10T07:30:35.001Z</time></trkpt><trkpt lat="14.598923555918045" lon="121.10850736336232"><ele>11.5</ele><time>2026-04-10T07:30:36.001Z</time></trkpt><trkpt lat="14.59903474983598" lon="121.10844178744503"><ele>11.0</ele><time>2026-04-10T07:30:37.001Z</time></trkpt><trkpt lat="14.5991440115984" lon="121.1083742699403"><ele>11.0</ele><time>2026-04-10T07:30:38.001Z</time></trkpt><trkpt lat="14.599249800178052" lon="121.10830748400045"><ele>11.0</ele><time>2026-04-10T07:30:39.001Z</time></trkpt><trkpt lat="14.599364446365396" lon="121.1082386033783"><ele>11.0</ele><time>2026-04-10T07:30:40.001Z</time></trkpt><trkpt lat="14.5994695245371" lon="121.1081739587975"><ele>11.0</ele><time>2026-04-10T07:30:41.001Z</time></trkpt><trkpt lat="14.599567193695163" lon="121.10811569961415"><ele>11.166666666666666</ele><time>2026-04-10T07:30:42.001Z</time></trkpt><trkpt lat="14.599650204952525" lon="121.10806567881427"><ele>11.333333333333332</ele><time>2026-04-10T07:30:43.001Z</time></trkpt><trkpt lat="14.599716020007003" lon="121.108027224256"><ele>11.5</ele><time>2026-04-10T07:30:44.001Z</time></trkpt><trkpt lat="14.59978037656804" lon="121.10799103181398"><ele>11.666666666666666</ele><time>2026-04-10T07:30:45.001Z</time></trkpt><trkpt lat="14.599847300690591" lon="121.10795285411047"><ele>11.833333333333334</ele><time>2026-04-10T07:30:46.001Z</time></trkpt><trkpt lat="14.599921556227699" lon="121.10790955431985"><ele>12.0</ele><time>2026-04-10T07:30:47.001Z</time></trkpt><trkpt lat="14.599997824926769" lon="121.10786471954192"><ele>12.0</ele><time>2026-04-10T07:30:48.001Z</time></trkpt><trkpt lat="14.60007500970182" lon="121.1078193700654"><ele>12.0</ele><time>2026-04-10T07:30:49.001Z</time></trkpt><trkpt lat="14.600154235082965" lon="121.10777375553934"><ele>12.0</ele><time>2026-04-10T07:30:50.001Z</time></trkpt><trkpt lat="14.600227071813405" lon="121.10773477326869"><ele>12.0</ele><time>2026-04-10T07:30:51.001Z</time></trkpt><trkpt lat="14.600319709411888" lon="121.10767035808631"><ele>12.0</ele><time>2026-04-10T07:30:53.001Z</time></trkpt><trkpt lat="14.600425008013318" lon="121.10760802266512"><ele>12.0</ele><time>2026-04-10T07:30:55.001Z</time></trkpt><trkpt lat="14.600490661624521" lon="121.10756909952475"><ele>12.0</ele><time>2026-04-10T07:30:56.001Z</time></trkpt><trkpt lat="14.600564972987009" lon="121.1075215355034"><ele>12.0</ele><time>2026-04-10T07:30:57.001Z</time></trkpt><trkpt lat="14.600641848184074" lon="121.10747348009916"><ele>12.0</ele><time>2026-04-10T07:30:58.001Z</time></trkpt><trkpt lat="14.600717813989947" lon="121.10742896285419"><ele>12.0</ele><time>2026-04-10T07:30:59.001Z</time></trkpt><trkpt lat="14.600795796977351" lon="121.10738243430376"><ele>12.0</ele><time>2026-04-10T07:31:00.001Z</time></trkpt><trkpt lat="14.600872304885632" lon="121.10733617971646"><ele>12.0</ele><time>2026-04-10T07:31:01.001Z</time></trkpt><trkpt lat="14.600942715568168" lon="121.10728885996106"><ele>12.0</ele><time>2026-04-10T07:31:02.001Z</time></trkpt><trkpt lat="14.60100968977363" lon="121.10724432528094"><ele>12.0</ele><time>2026-04-10T07:31:03.001Z</time></trkpt><trkpt lat="14.601077655792572" lon="121.10720282605386"><ele>12.0</ele><time>2026-04-10T07:31:04.001Z</time></trkpt><trkpt lat="14.601147971850805" lon="121.10715896726086"><ele>12.0</ele><time>2026-04-10T07:31:05.001Z</time></trkpt><trkpt lat="14.6012246045851" lon="121.10711244954516"><ele>12.0</ele><time>2026-04-10T07:31:06.001Z</time></trkpt><trkpt lat="14.601300062678611" lon="121.10706658495194"><ele>11.857142857142856</ele><time>2026-04-10T07:31:07.001Z</time></trkpt><trkpt lat="14.601368958177597" lon="121.1070264125958"><ele>11.714285714285714</ele><time>2026-04-10T07:31:08.001Z</time></trkpt><trkpt lat="14.601435256723398" lon="121.10698586245209"><ele>11.571428571428571</ele><time>2026-04-10T07:31:09.001Z</time></trkpt><trkpt lat="14.60149257083117" lon="121.10695015612346"><ele>11.428571428571427</ele><time>2026-04-10T07:31:10.001Z</time></trkpt><trkpt lat="14.60154744545726" lon="121.10691723355909"><ele>11.285714285714285</ele><time>2026-04-10T07:31:11.001Z</time></trkpt><trkpt lat="14.601606416728192" lon="121.10688327364733"><ele>11.142857142857142</ele><time>2026-04-10T07:31:12.001Z</time></trkpt><trkpt lat="14.601665675992523" lon="121.10685093970777"><ele>11.0</ele><time>2026-04-10T07:31:13.001Z</time></trkpt><trkpt lat="14.601732256694136" lon="121.1068155209226"><ele>11.0</ele><time>2026-04-10T07:31:14.001Z</time></trkpt><trkpt lat="14.601805417915603" lon="121.10677429194035"><ele>11.0</ele><time>2026-04-10T07:31:15.001Z</time></trkpt><trkpt lat="14.601879438990167" lon="121.10673256887821"><ele>11.0</ele><time>2026-04-10T07:31:16.001Z</time></trkpt><trkpt lat="14.601962345874663" lon="121.10668173756682"><ele>11.0</ele><time>2026-04-10T07:31:17.001Z</time></trkpt><trkpt lat="14.602049579676986" lon="121.10662730220801"><ele>11.0</ele><time>2026-04-10T07:31:18.001Z</time></trkpt><trkpt lat="14.602130693705913" lon="121.10657751631231"><ele>11.200000000000001</ele><time>2026-04-10T07:31:19.001Z</time></trkpt><trkpt lat="14.602217243685333" lon="121.10652470581344"><ele>11.4</ele><time>2026-04-10T07:31:20.001Z</time></trkpt><trkpt lat="14.602305162339992" lon="121.10646970842286"><ele>11.6</ele><time>2026-04-10T07:31:21.001Z</time></trkpt><trkpt lat="14.602391204076135" lon="121.1064204228346"><ele>11.8</ele><time>2026-04-10T07:31:22.001Z</time></trkpt><trkpt lat="14.602476360213808" lon="121.1063684472705"><ele>12.0</ele><time>2026-04-10T07:31:23.001Z</time></trkpt><trkpt lat="14.602556806497512" lon="121.10631698510957"><ele>12.0</ele><time>2026-04-10T07:31:24.001Z</time></trkpt><trkpt lat="14.602638898516044" lon="121.10626572282783"><ele>12.0</ele><time>2026-04-10T07:31:25.001Z</time></trkpt><trkpt lat="14.602719824461039" lon="121.10621387692063"><ele>12.0</ele><time>2026-04-10T07:31:26.001Z</time></trkpt><trkpt lat="14.602801867040842" lon="121.10615954330108"><ele>12.0</ele><time>2026-04-10T07:31:27.001Z</time></trkpt><trkpt lat="14.602886173264123" lon="121.10610692345604"><ele>12.0</ele><time>2026-04-10T07:31:28.001Z</time></trkpt><trkpt lat="14.602975122428694" lon="121.10605557691333"><ele>12.0</ele><time>2026-04-10T07:31:29.001Z</time></trkpt><trkpt lat="14.603060059639823" lon="121.10600704851728"><ele>12.0</ele><time>2026-04-10T07:31:30.001Z</time></trkpt><trkpt lat="14.603144014743721" lon="121.1059545660486"><ele>12.0</ele><time>2026-04-10T07:31:31.002Z</time></trkpt><trkpt lat="14.603227646582125" lon="121.10590195674716"><ele>12.0</ele><time>2026-04-10T07:31:32.002Z</time></trkpt><trkpt lat="14.60330323350175" lon="121.10585822408062"><ele>12.0</ele><time>2026-04-10T07:31:33.002Z</time></trkpt><trkpt lat="14.603371395549932" lon="121.1058166240727"><ele>12.0</ele><time>2026-04-10T07:31:34.002Z</time></trkpt><trkpt lat="14.603435811614677" lon="121.10577826125575"><ele>12.0</ele><time>2026-04-10T07:31:35.002Z</time></trkpt><trkpt lat="14.60349568586194" lon="121.1057515461595"><ele>12.0</ele><time>2026-04-10T07:31:36.002Z</time></trkpt><trkpt lat="14.60359595074989" lon="121.10572058774322"><ele>12.0</ele><time>2026-04-10T07:31:38.002Z</time></trkpt><trkpt lat="14.603691249667541" lon="121.1056919871963"><ele>12.0</ele><time>2026-04-10T07:31:40.002Z</time></trkpt><trkpt lat="14.603789233593139" lon="121.10565790565819"><ele>12.0</ele><time>2026-04-10T07:31:42.002Z</time></trkpt><trkpt lat="14.603887217013629" lon="121.10562184397631"><ele>11.8</ele><time>2026-04-10T07:31:44.002Z</time></trkpt><trkpt lat="14.603993567644727" lon="121.10558687878267"><ele>11.6</ele><time>2026-04-10T07:31:46.002Z</time></trkpt><trkpt lat="14.604106018662133" lon="121.10554858861956"><ele>11.4</ele><time>2026-04-10T07:31:48.002Z</time></trkpt><trkpt lat="14.604191633945744" lon="121.10552355353333"><ele>11.200000000000001</ele><time>2026-04-10T07:31:50.002Z</time></trkpt><trkpt lat="14.604254038903361" lon="121.10549959077501"><ele>11.0</ele><time>2026-04-10T07:31:52.002Z</time></trkpt><trkpt lat="14.604344779964654" lon="121.10546659709702"><ele>11.0</ele><time>2026-04-10T07:31:55.002Z</time></trkpt><trkpt lat="14.60443797197993" lon="121.10543458946269"><ele>11.0</ele><time>2026-04-10T07:31:57.002Z</time></trkpt><trkpt lat="14.604562715483498" lon="121.10539736309359"><ele>11.0</ele><time>2026-04-10T07:31:59.002Z</time></trkpt><trkpt lat="14.604636639204289" lon="121.10537975134505"><ele>11.0</ele><time>2026-04-10T07:32:00.002Z</time></trkpt><trkpt lat="14.60471541177833" lon="121.1053575798061"><ele>11.0</ele><time>2026-04-10T07:32:01.002Z</time></trkpt><trkpt lat="14.604797617797919" lon="121.10533512628578"><ele>11.8</ele><time>2026-04-10T07:32:02.002Z</time></trkpt><trkpt lat="14.604885803651499" lon="121.10530734671369"><ele>12.600000000000001</ele><time>2026-04-10T07:32:03.002Z</time></trkpt><trkpt lat="14.604981488762453" lon="121.1052789466682"><ele>13.4</ele><time>2026-04-10T07:32:04.002Z</time></trkpt><trkpt lat="14.605084525788994" lon="121.10524865618733"><ele>14.2</ele><time>2026-04-10T07:32:05.002Z</time></trkpt><trkpt lat="14.605193310959454" lon="121.1052145035667"><ele>15.0</ele><time>2026-04-10T07:32:06.002Z</time></trkpt><trkpt lat="14.605305096785212" lon="121.10517855805169"><ele>14.5</ele><time>2026-04-10T07:32:07.002Z</time></trkpt><trkpt lat="14.60541925072446" lon="121.10514322941953"><ele>14.0</ele><time>2026-04-10T07:32:08.002Z</time></trkpt><trkpt lat="14.605533502316822" lon="121.10510921912828"><ele>13.5</ele><time>2026-04-10T07:32:09.002Z</time></trkpt><trkpt lat="14.605643074559618" lon="121.10508064912631"><ele>13.0</ele><time>2026-04-10T07:32:10.002Z</time></trkpt><trkpt lat="14.605744447212725" lon="121.10505600183271"><ele>12.999999999999998</ele><time>2026-04-10T07:32:11.002Z</time></trkpt><trkpt lat="14.605830255248582" lon="121.10503413605905"><ele>13.0</ele><time>2026-04-10T07:32:12.002Z</time></trkpt><trkpt lat="14.605895530895198" lon="121.10501299197948"><ele>13.0</ele><time>2026-04-10T07:32:13.002Z</time></trkpt><trkpt lat="14.605963164865386" lon="121.10498851328664"><ele>13.0</ele><time>2026-04-10T07:32:14.002Z</time></trkpt><trkpt lat="14.606039599418896" lon="121.10495959456316"><ele>12.999999999999998</ele><time>2026-04-10T07:32:15.002Z</time></trkpt><trkpt lat="14.606122696365878" lon="121.10492524967691"><ele>13.0</ele><time>2026-04-10T07:32:16.002Z</time></trkpt><trkpt lat="14.606213431146987" lon="121.10489250881781"><ele>12.499999999999998</ele><time>2026-04-10T07:32:17.002Z</time></trkpt><trkpt lat="14.606305534314027" lon="121.10486262125809"><ele>12.0</ele><time>2026-04-10T07:32:18.002Z</time></trkpt><trkpt lat="14.606391210245986" lon="121.10483609082549"><ele>11.5</ele><time>2026-04-10T07:32:19.002Z</time></trkpt><trkpt lat="14.606470674347975" lon="121.10480945221317"><ele>11.0</ele><time>2026-04-10T07:32:20.002Z</time></trkpt><trkpt lat="14.606542536528472" lon="121.10478649865453"><ele>10.5</ele><time>2026-04-10T07:32:21.001Z</time></trkpt><trkpt lat="14.60661798817815" lon="121.10476487185691"><ele>10.0</ele><time>2026-04-10T07:32:22.001Z</time></trkpt><trkpt lat="14.606687189072423" lon="121.10474309813105"><ele>10.0</ele><time>2026-04-10T07:32:23.001Z</time></trkpt><trkpt lat="14.606754636118607" lon="121.10472209272159"><ele>10.0</ele><time>2026-04-10T07:32:24.001Z</time></trkpt><trkpt lat="14.60686813816636" lon="121.10468432292136"><ele>10.0</ele><time>2026-04-10T07:32:26.001Z</time></trkpt><trkpt lat="14.606971712850806" lon="121.10465370049371"><ele>10.0</ele><time>2026-04-10T07:32:28.001Z</time></trkpt><trkpt lat="14.607070161037178" lon="121.1046304782219"><ele>10.0</ele><time>2026-04-10T07:32:30.001Z</time></trkpt><trkpt lat="14.60718941649124" lon="121.1045978177437"><ele>10.166666666666668</ele><time>2026-04-10T07:32:32.001Z</time></trkpt><trkpt lat="14.60725716751932" lon="121.10458105380185"><ele>10.333333333333334</ele><time>2026-04-10T07:32:33.001Z</time></trkpt><trkpt lat="14.607330992323678" lon="121.10455953762647"><ele>10.5</ele><time>2026-04-10T07:32:34.001Z</time></trkpt><trkpt lat="14.60740825246534" lon="121.10453536360683"><ele>10.666666666666666</ele><time>2026-04-10T07:32:35.001Z</time></trkpt><trkpt lat="14.607489299411611" lon="121.10450843843026"><ele>10.833333333333332</ele><time>2026-04-10T07:32:36.001Z</time></trkpt><trkpt lat="14.607570994260112" lon="121.10448187604733"><ele>11.0</ele><time>2026-04-10T07:32:37.001Z</time></trkpt><trkpt lat="14.607647265136114" lon="121.10445908146406"><ele>11.0</ele><time>2026-04-10T07:32:38.001Z</time></trkpt><trkpt lat="14.607714357227374" lon="121.10443810464795"><ele>11.0</ele><time>2026-04-10T07:32:39.001Z</time></trkpt><trkpt lat="14.607779925836828" lon="121.10441782891381"><ele>11.0</ele><time>2026-04-10T07:32:40.001Z</time></trkpt><trkpt lat="14.607882336970063" lon="121.10437863244613"><ele>11.0</ele><time>2026-04-10T07:32:42.001Z</time></trkpt><trkpt lat="14.607958073434949" lon="121.10435000901369"><ele>11.0</ele><time>2026-04-10T07:32:44.001Z</time></trkpt><trkpt lat="14.608042520674202" lon="121.10433360952813"><ele>11.0</ele><time>2026-04-10T07:32:46.001Z</time></trkpt><trkpt lat="14.608117534194328" lon="121.10431128304384"><ele>11.166666666666666</ele><time>2026-04-10T07:32:49.001Z</time></trkpt><trkpt lat="14.608183972934214" lon="121.10428667104446"><ele>11.333333333333332</ele><time>2026-04-10T07:32:51.001Z</time></trkpt><trkpt lat="14.608282251344006" lon="121.10425378671755"><ele>11.5</ele><time>2026-04-10T07:32:53.001Z</time></trkpt><trkpt lat="14.608348144591682" lon="121.10424025690027"><ele>11.666666666666666</ele><time>2026-04-10T07:32:54.001Z</time></trkpt><trkpt lat="14.608426304503167" lon="121.10422168332023"><ele>11.833333333333334</ele><time>2026-04-10T07:32:55.001Z</time></trkpt><trkpt lat="14.608510930740422" lon="121.10419807044171"><ele>12.0</ele><time>2026-04-10T07:32:56.001Z</time></trkpt><trkpt lat="14.60860302179751" lon="121.10416661971013"><ele>11.75</ele><time>2026-04-10T07:32:57.001Z</time></trkpt><trkpt lat="14.608704517219108" lon="121.1041333822668"><ele>11.5</ele><time>2026-04-10T07:32:58.001Z</time></trkpt><trkpt lat="14.60881621440311" lon="121.10410139515139"><ele>11.25</ele><time>2026-04-10T07:32:59.001Z</time></trkpt><trkpt lat="14.608929801226674" lon="121.10406975751437"><ele>11.0</ele><time>2026-04-10T07:33:00.001Z</time></trkpt><trkpt lat="14.609045410276783" lon="121.10403679199618"><ele>11.0</ele><time>2026-04-10T07:33:01.001Z</time></trkpt><trkpt lat="14.60916501409258" lon="121.10400087589508"><ele>11.0</ele><time>2026-04-10T07:33:02.001Z</time></trkpt><trkpt lat="14.609290252567023" lon="121.10396023813435"><ele>11.0</ele><time>2026-04-10T07:33:03.001Z</time></trkpt><trkpt lat="14.609419304572814" lon="121.10392130867898"><ele>11.0</ele><time>2026-04-10T07:33:04.001Z</time></trkpt><trkpt lat="14.609553438691215" lon="121.10388033752679"><ele>11.75</ele><time>2026-04-10T07:33:05.001Z</time></trkpt><trkpt lat="14.609685641549852" lon="121.10384080815123"><ele>12.5</ele><time>2026-04-10T07:33:06.001Z</time></trkpt><trkpt lat="14.60981401215866" lon="121.10380170584237"><ele>13.25</ele><time>2026-04-10T07:33:07.001Z</time></trkpt><trkpt lat="14.609938245652568" lon="121.10376580219602"><ele>14.0</ele><time>2026-04-10T07:33:08.001Z</time></trkpt><trkpt lat="14.610061308809923" lon="121.10372742489302"><ele>14.0</ele><time>2026-04-10T07:33:09.001Z</time></trkpt><trkpt lat="14.610180278209329" lon="121.10368909596686"><ele>14.0</ele><time>2026-04-10T07:33:10.001Z</time></trkpt><trkpt lat="14.610299707711555" lon="121.10365232688659"><ele>14.0</ele><time>2026-04-10T07:33:11.001Z</time></trkpt><trkpt lat="14.610418874457515" lon="121.10361605730982"><ele>14.0</ele><time>2026-04-10T07:33:12.001Z</time></trkpt><trkpt lat="14.61054195032929" lon="121.10357722225446"><ele>13.75</ele><time>2026-04-10T07:33:13.001Z</time></trkpt><trkpt lat="14.610668872292482" lon="121.10353803136594"><ele>13.5</ele><time>2026-04-10T07:33:14.001Z</time></trkpt><trkpt lat="14.61079474051337" lon="121.10349558887751"><ele>13.25</ele><time>2026-04-10T07:33:15.001Z</time></trkpt><trkpt lat="14.610922259550232" lon="121.10345413137303"><ele>13.0</ele><time>2026-04-10T07:33:16.001Z</time></trkpt><trkpt lat="14.611047056349735" lon="121.10341398748254"><ele>12.75</ele><time>2026-04-10T07:33:17.001Z</time></trkpt><trkpt lat="14.611165398278846" lon="121.10337892744967"><ele>12.5</ele><time>2026-04-10T07:33:18.001Z</time></trkpt><trkpt lat="14.611279638431954" lon="121.10334291540953"><ele>12.25</ele><time>2026-04-10T07:33:19.001Z</time></trkpt><trkpt lat="14.61140017893428" lon="121.10330596501817"><ele>12.0</ele><time>2026-04-10T07:33:20.001Z</time></trkpt><trkpt lat="14.611519426014048" lon="121.1032721872145"><ele>12.25</ele><time>2026-04-10T07:33:21.001Z</time></trkpt><trkpt lat="14.611631677282109" lon="121.10323378186254"><ele>12.5</ele><time>2026-04-10T07:33:22.001Z</time></trkpt><trkpt lat="14.611736561656668" lon="121.10319699577968"><ele>12.75</ele><time>2026-04-10T07:33:23.001Z</time></trkpt><trkpt lat="14.611843820348703" lon="121.10315734790875"><ele>13.0</ele><time>2026-04-10T07:33:24.001Z</time></trkpt><trkpt lat="14.611950206758516" lon="121.10311784464281"><ele>13.0</ele><time>2026-04-10T07:33:25.001Z</time></trkpt><trkpt lat="14.612069219301368" lon="121.1030745915816"><ele>13.0</ele><time>2026-04-10T07:33:26.001Z</time></trkpt><trkpt lat="14.612179365980767" lon="121.10304635564462"><ele>13.0</ele><time>2026-04-10T07:33:27.001Z</time></trkpt><trkpt lat="14.612298478795728" lon="121.10301339361749"><ele>13.0</ele><time>2026-04-10T07:33:28.001Z</time></trkpt><trkpt lat="14.612422654210866" lon="121.10297793338938"><ele>13.0</ele><time>2026-04-10T07:33:29.001Z</time></trkpt><trkpt lat="14.612547124869403" lon="121.10294434072584"><ele>13.0</ele><time>2026-04-10T07:33:30.001Z</time></trkpt><trkpt lat="14.612672325445669" lon="121.10290982074687"><ele>13.0</ele><time>2026-04-10T07:33:31.002Z</time></trkpt><trkpt lat="14.612787102017755" lon="121.1028759500217"><ele>13.0</ele><time>2026-04-10T07:33:32.002Z</time></trkpt><trkpt lat="14.612890651415814" lon="121.1028510459763"><ele>13.0</ele><time>2026-04-10T07:33:33.002Z</time></trkpt><trkpt lat="14.61298316526684" lon="121.1028220496915"><ele>13.0</ele><time>2026-04-10T07:33:34.002Z</time></trkpt><trkpt lat="14.613064678859077" lon="121.10279702361798"><ele>13.0</ele><time>2026-04-10T07:33:35.002Z</time></trkpt><trkpt lat="14.613135224659114" lon="121.10277778643086"><ele>13.0</ele><time>2026-04-10T07:33:36.002Z</time></trkpt><trkpt lat="14.613251583326393" lon="121.10275427814058"><ele>13.0</ele><time>2026-04-10T07:33:38.002Z</time></trkpt><trkpt lat="14.61335947104345" lon="121.1027236658233"><ele>12.999999999999998</ele><time>2026-04-10T07:33:40.002Z</time></trkpt><trkpt lat="14.613471371418012" lon="121.10268885335846"><ele>13.0</ele><time>2026-04-10T07:33:42.002Z</time></trkpt><trkpt lat="14.613590391634602" lon="121.10265434026586"><ele>13.0</ele><time>2026-04-10T07:33:44.002Z</time></trkpt><trkpt lat="14.61365441697456" lon="121.10263312327481"><ele>13.0</ele><time>2026-04-10T07:33:45.002Z</time></trkpt><trkpt lat="14.613720431181726" lon="121.10261087123524"><ele>12.999999999999998</ele><time>2026-04-10T07:33:46.002Z</time></trkpt><trkpt lat="14.613788461549934" lon="121.1025887106909"><ele>13.0</ele><time>2026-04-10T07:33:47.002Z</time></trkpt><trkpt lat="14.613861598041854" lon="121.10256116245927"><ele>13.333333333333332</ele><time>2026-04-10T07:33:48.002Z</time></trkpt><trkpt lat="14.613938289602515" lon="121.10253106254862"><ele>13.666666666666666</ele><time>2026-04-10T07:33:49.002Z</time></trkpt><trkpt lat="14.614018874636722" lon="121.10250048272995"><ele>14.0</ele><time>2026-04-10T07:33:50.002Z</time></trkpt><trkpt lat="14.614098049924323" lon="121.10247208374108"><ele>14.333333333333332</ele><time>2026-04-10T07:33:51.002Z</time></trkpt><trkpt lat="14.614175481546313" lon="121.10244199341555"><ele>14.666666666666666</ele><time>2026-04-10T07:33:52.002Z</time></trkpt><trkpt lat="14.61424072717592" lon="121.10241865785987"><ele>15.0</ele><time>2026-04-10T07:33:53.002Z</time></trkpt><trkpt lat="14.61430076523501" lon="121.10239717083194"><ele>14.833333333333334</ele><time>2026-04-10T07:33:54.002Z</time></trkpt><trkpt lat="14.614411493481105" lon="121.10236842772665"><ele>14.666666666666668</ele><time>2026-04-10T07:33:56.002Z</time></trkpt><trkpt lat="14.614482684663523" lon="121.10235142388908"><ele>14.5</ele><time>2026-04-10T07:33:57.002Z</time></trkpt><trkpt lat="14.614555352283128" lon="121.10233118770434"><ele>14.333333333333334</ele><time>2026-04-10T07:33:58.002Z</time></trkpt><trkpt lat="14.61461600875468" lon="121.10230747473665"><ele>14.166666666666668</ele><time>2026-04-10T07:33:59.002Z</time></trkpt><trkpt lat="14.61467890256831" lon="121.1022845086095"><ele>14.0</ele><time>2026-04-10T07:34:00.002Z</time></trkpt><trkpt lat="14.614743356357883" lon="121.1022654277957"><ele>14.000000000000002</ele><time>2026-04-10T07:34:01.002Z</time></trkpt><trkpt lat="14.614830668022789" lon="121.10223946332023"><ele>14.0</ele><time>2026-04-10T07:34:03.002Z</time></trkpt><trkpt lat="14.61489572216464" lon="121.10221888181461"><ele>14.0</ele><time>2026-04-10T07:34:05.002Z</time></trkpt><trkpt lat="14.614974487452857" lon="121.10220369296027"><ele>14.0</ele><time>2026-04-10T07:34:11.002Z</time></trkpt><trkpt lat="14.615037847966024" lon="121.10219790758408"><ele>14.000000000000002</ele><time>2026-04-10T07:34:14.002Z</time></trkpt><trkpt lat="14.61510930084631" lon="121.102191381794"><ele>14.0</ele><time>2026-04-10T07:34:16.002Z</time></trkpt><trkpt lat="14.615199732905834" lon="121.10216675180243"><ele>14.000000000000002</ele><time>2026-04-10T07:34:18.002Z</time></trkpt><trkpt lat="14.615265577057668" lon="121.10214316426872"><ele>14.0</ele><time>2026-04-10T07:34:20.002Z</time></trkpt><trkpt lat="14.615326415259535" lon="121.10212255169007"><ele>14.0</ele><time>2026-04-10T07:34:22.002Z</time></trkpt><trkpt lat="14.615409884031044" lon="121.10210056233521"><ele>14.0</ele><time>2026-04-10T07:34:24.002Z</time></trkpt><trkpt lat="14.615477562895926" lon="121.10207723134242"><ele>14.000000000000002</ele><time>2026-04-10T07:34:26.002Z</time></trkpt><trkpt lat="14.615561136504603" lon="121.10206517853192"><ele>14.0</ele><time>2026-04-10T07:34:30Z</time></trkpt><trkpt lat="14.615661701918718" lon="121.10203278568328"><ele>14.2</ele><time>2026-04-10T07:34:33Z</time></trkpt><trkpt lat="14.61574783017935" lon="121.10199662841647"><ele>14.399999999999999</ele><time>2026-04-10T07:34:35Z</time></trkpt><trkpt lat="14.615827692635014" lon="121.1019664975992"><ele>14.6</ele><time>2026-04-10T07:34:37Z</time></trkpt><trkpt lat="14.61590747124972" lon="121.101937538509"><ele>14.8</ele><time>2026-04-10T07:34:39Z</time></trkpt><trkpt lat="14.616006522909151" lon="121.10192009727979"><ele>15.0</ele><time>2026-04-10T07:34:41Z</time></trkpt><trkpt lat="14.616115292539146" lon="121.10189915271131"><ele>15.166666666666666</ele><time>2026-04-10T07:34:43Z</time></trkpt><trkpt lat="14.616207506538206" lon="121.1018743212744"><ele>15.333333333333332</ele><time>2026-04-10T07:34:45.001Z</time></trkpt><trkpt lat="14.616285140015954" lon="121.10185717934549"><ele>15.5</ele><time>2026-04-10T07:34:47.001Z</time></trkpt><trkpt lat="14.61636248054031" lon="121.1018398941434"><ele>15.666666666666666</ele><time>2026-04-10T07:34:49.001Z</time></trkpt><trkpt lat="14.616439162883006" lon="121.10182085139229"><ele>15.833333333333332</ele><time>2026-04-10T07:34:51.001Z</time></trkpt><trkpt lat="14.616531737560715" lon="121.1018004685657"><ele>16.0</ele><time>2026-04-10T07:34:53.001Z</time></trkpt><trkpt lat="14.616623566760111" lon="121.10177617204592"><ele>16.0</ele><time>2026-04-10T07:34:55.001Z</time></trkpt><trkpt lat="14.616724996932135" lon="121.10175824910226"><ele>16.0</ele><time>2026-04-10T07:34:57.001Z</time></trkpt><trkpt lat="14.616812903870649" lon="121.10175278520478"><ele>16.0</ele><time>2026-04-10T07:34:59.001Z</time></trkpt><trkpt lat="14.61688788877557" lon="121.10174265191462"><ele>16.0</ele><time>2026-04-10T07:35:01.001Z</time></trkpt><trkpt lat="14.617003638221808" lon="121.10172444487546"><ele>16.0</ele><time>2026-04-10T07:35:03.001Z</time></trkpt><trkpt lat="14.6171171657161" lon="121.10170052429154"><ele>15.8</ele><time>2026-04-10T07:35:05.001Z</time></trkpt><trkpt lat="14.617245246401847" lon="121.10167666171463"><ele>15.600000000000001</ele><time>2026-04-10T07:35:07.001Z</time></trkpt><trkpt lat="14.617323822640186" lon="121.10166116545548"><ele>15.4</ele><time>2026-04-10T07:35:08.001Z</time></trkpt><trkpt lat="14.617414338196003" lon="121.10166087461639"><ele>15.2</ele><time>2026-04-10T07:35:09.001Z</time></trkpt><trkpt lat="14.617498311873451" lon="121.10166172501222"><ele>15.0</ele><time>2026-04-10T07:35:10.001Z</time></trkpt><trkpt lat="14.61757257238057" lon="121.10165333233896"><ele>15.0</ele><time>2026-04-10T07:35:11.001Z</time></trkpt><trkpt lat="14.617649015928636" lon="121.10164005272689"><ele>15.0</ele><time>2026-04-10T07:35:12.001Z</time></trkpt><trkpt lat="14.617730268217834" lon="121.10163603462722"><ele>15.0</ele><time>2026-04-10T07:35:13.001Z</time></trkpt><trkpt lat="14.61781507414664" lon="121.10163969156044"><ele>15.0</ele><time>2026-04-10T07:35:14.001Z</time></trkpt><trkpt lat="14.617888019420198" lon="121.10164277796048"><ele>15.0</ele><time>2026-04-10T07:35:15.001Z</time></trkpt><trkpt lat="14.618005592368188" lon="121.10164879282428"><ele>15.0</ele><time>2026-04-10T07:35:17.001Z</time></trkpt><trkpt lat="14.618103900492176" lon="121.10166453412307"><ele>14.333333333333334</ele><time>2026-04-10T07:35:19.001Z</time></trkpt><trkpt lat="14.618189449554972" lon="121.10168045773591"><ele>13.666666666666666</ele><time>2026-04-10T07:35:21.001Z</time></trkpt><trkpt lat="14.618265022503754" lon="121.10168390713345"><ele>13.0</ele><time>2026-04-10T07:35:23.001Z</time></trkpt><trkpt lat="14.618353698742409" lon="121.10169159496272"><ele>12.333333333333332</ele><time>2026-04-10T07:35:26.001Z</time></trkpt><trkpt lat="14.61844120608668" lon="121.1016881862133"><ele>11.666666666666666</ele><time>2026-04-10T07:35:29.001Z</time></trkpt><trkpt lat="14.618522749446564" lon="121.1016926148117"><ele>11.0</ele><time>2026-04-10T07:35:32.001Z</time></trkpt><trkpt lat="14.618607800722906" lon="121.10170570364792"><ele>12.200000000000001</ele><time>2026-04-10T07:35:38.001Z</time></trkpt><trkpt lat="14.618683247200641" lon="121.10171276399247"><ele>13.4</ele><time>2026-04-10T07:35:40.001Z</time></trkpt><trkpt lat="14.618760781515421" lon="121.10171863104749"><ele>14.6</ele><time>2026-04-10T07:35:42.001Z</time></trkpt><trkpt lat="14.618851546826459" lon="121.10173448698613"><ele>15.8</ele><time>2026-04-10T07:35:44.001Z</time></trkpt><trkpt lat="14.618951930087116" lon="121.10174622088098"><ele>17.0</ele><time>2026-04-10T07:35:46.002Z</time></trkpt><trkpt lat="14.61908188765498" lon="121.10175926046125"><ele>17.0</ele><time>2026-04-10T07:35:48.002Z</time></trkpt><trkpt lat="14.619159055166268" lon="121.10177240653186"><ele>17.0</ele><time>2026-04-10T07:35:49.002Z</time></trkpt><trkpt lat="14.619248410377862" lon="121.10178392075862"><ele>17.0</ele><time>2026-04-10T07:35:50.002Z</time></trkpt><trkpt lat="14.619344761380523" lon="121.1017863213278"><ele>17.0</ele><time>2026-04-10T07:35:51.002Z</time></trkpt><trkpt lat="14.619443496782319" lon="121.1017890416066"><ele>17.0</ele><time>2026-04-10T07:35:52.002Z</time></trkpt><trkpt lat="14.619533558531442" lon="121.10179898648373"><ele>17.2</ele><time>2026-04-10T07:35:53.002Z</time></trkpt><trkpt lat="14.619622546240684" lon="121.10180693210337"><ele>17.4</ele><time>2026-04-10T07:35:54.002Z</time></trkpt><trkpt lat="14.619711799800656" lon="121.10181611768726"><ele>17.6</ele><time>2026-04-10T07:35:55.002Z</time></trkpt><trkpt lat="14.619804841167888" lon="121.10182641760659"><ele>17.8</ele><time>2026-04-10T07:35:56.002Z</time></trkpt><trkpt lat="14.619899991993803" lon="121.10183909509061"><ele>18.0</ele><time>2026-04-10T07:35:57.002Z</time></trkpt><trkpt lat="14.619992819571419" lon="121.10185005433829"><ele>18.0</ele><time>2026-04-10T07:35:58.002Z</time></trkpt><trkpt lat="14.620081853091047" lon="121.10185911412461"><ele>18.0</ele><time>2026-04-10T07:35:59.002Z</time></trkpt><trkpt lat="14.620164868730765" lon="121.10186380936419"><ele>18.0</ele><time>2026-04-10T07:36:00.002Z</time></trkpt><trkpt lat="14.620236758594547" lon="121.10186298870849"><ele>18.0</ele><time>2026-04-10T07:36:01.002Z</time></trkpt><trkpt lat="14.620334449813033" lon="121.10186728567997"><ele>18.0</ele><time>2026-04-10T07:36:03.002Z</time></trkpt><trkpt lat="14.62040113136223" lon="121.10187822670989"><ele>18.0</ele><time>2026-04-10T07:36:06.002Z</time></trkpt><trkpt lat="14.620487317336321" lon="121.10188588894906"><ele>17.333333333333332</ele><time>2026-04-10T07:36:09.002Z</time></trkpt><trkpt lat="14.620555459982693" lon="121.10190827093645"><ele>16.666666666666668</ele><time>2026-04-10T07:36:11.002Z</time></trkpt><trkpt lat="14.620620839636652" lon="121.10200760634346"><ele>16.0</ele><time>2026-04-10T07:36:16.002Z</time></trkpt><trkpt lat="14.620657031432044" lon="121.1021004452666"><ele>15.333333333333334</ele><time>2026-04-10T07:36:18.002Z</time></trkpt><trkpt lat="14.620683595419502" lon="121.10216579192958"><ele>14.666666666666668</ele><time>2026-04-10T07:36:19.002Z</time></trkpt><trkpt lat="14.62070902294768" lon="121.10224040219903"><ele>14.0</ele><time>2026-04-10T07:36:20.002Z</time></trkpt><trkpt lat="14.620734723533872" lon="121.10231935392801"><ele>14.0</ele><time>2026-04-10T07:36:21.002Z</time></trkpt><trkpt lat="14.620757907591644" lon="121.10239906692095"><ele>14.0</ele><time>2026-04-10T07:36:22.002Z</time></trkpt><trkpt lat="14.620779467913302" lon="121.10248143353829"><ele>14.0</ele><time>2026-04-10T07:36:23.002Z</time></trkpt><trkpt lat="14.620797213788533" lon="121.1025567882405"><ele>14.0</ele><time>2026-04-10T07:36:24.002Z</time></trkpt><trkpt lat="14.6208118416903" lon="121.10262484545234"><ele>14.0</ele><time>2026-04-10T07:36:25.002Z</time></trkpt><trkpt lat="14.62082392697339" lon="121.1026911605169"><ele>14.0</ele><time>2026-04-10T07:36:26.002Z</time></trkpt><trkpt lat="14.620838835787247" lon="121.10275451980759"><ele>14.0</ele><time>2026-04-10T07:36:27.002Z</time></trkpt><trkpt lat="14.620861201733117" lon="121.1028825865937"><ele>14.000000000000002</ele><time>2026-04-10T07:36:29.002Z</time></trkpt><trkpt lat="14.620875878574624" lon="121.10295414629869"><ele>14.0</ele><time>2026-04-10T07:36:30.002Z</time></trkpt><trkpt lat="14.620889561755817" lon="121.1030208602492"><ele>14.0</ele><time>2026-04-10T07:36:31.002Z</time></trkpt><trkpt lat="14.620936718853804" lon="121.1031238182317"><ele>14.0</ele><time>2026-04-10T07:36:33Z</time></trkpt><trkpt lat="14.620955512757275" lon="121.10320359563191"><ele>14.000000000000002</ele><time>2026-04-10T07:36:35Z</time></trkpt><trkpt lat="14.620949645987311" lon="121.10329479562446"><ele>14.0</ele><time>2026-04-10T07:36:37Z</time></trkpt><trkpt lat="14.620965702155228" lon="121.10336892397049"><ele>14.0</ele><time>2026-04-10T07:36:39Z</time></trkpt><trkpt lat="14.620981605974654" lon="121.10344234894691"><ele>14.0</ele><time>2026-04-10T07:36:41Z</time></trkpt><trkpt lat="14.62100042458013" lon="121.10352921709273"><ele>14.0</ele><time>2026-04-10T07:36:43Z</time></trkpt><trkpt lat="14.621019252743798" lon="121.10361612013082"><ele>14.0</ele><time>2026-04-10T07:36:45Z</time></trkpt><trkpt lat="14.62103320876932" lon="121.10368053538367"><ele>14.0</ele><time>2026-04-10T07:36:47Z</time></trkpt><trkpt lat="14.621048079507881" lon="121.10374917254984"><ele>14.0</ele><time>2026-04-10T07:36:52.001Z</time></trkpt><trkpt lat="14.621063278552807" lon="121.10381932507296"><ele>14.0</ele><time>2026-04-10T07:36:58.001Z</time></trkpt><trkpt lat="14.621079159061397" lon="121.1038926229497"><ele>14.0</ele><time>2026-04-10T07:37:01.001Z</time></trkpt><trkpt lat="14.62109401841945" lon="121.10396120757903"><ele>14.0</ele><time>2026-04-10T07:37:06.001Z</time></trkpt><trkpt lat="14.621111000587923" lon="121.10403958970484"><ele>14.0</ele><time>2026-04-10T07:37:08.001Z</time></trkpt><trkpt lat="14.621139837995022" lon="121.10410602971267"><ele>14.0</ele><time>2026-04-10T07:37:10.001Z</time></trkpt><trkpt lat="14.621154087616587" lon="121.10417009923864"><ele>14.0</ele><time>2026-04-10T07:37:12.001Z</time></trkpt><trkpt lat="14.621169013005801" lon="121.1042472686573"><ele>14.0</ele><time>2026-04-10T07:37:14.001Z</time></trkpt><trkpt lat="14.621186289273107" lon="121.10433390791245"><ele>14.0</ele><time>2026-04-10T07:37:16.001Z</time></trkpt><trkpt lat="14.621205216396506" lon="121.10442617426989"><ele>13.6</ele><time>2026-04-10T07:37:18.001Z</time></trkpt><trkpt lat="14.62122435418435" lon="121.10452490205704"><ele>13.2</ele><time>2026-04-10T07:37:20.001Z</time></trkpt><trkpt lat="14.621239795323135" lon="121.10461078341238"><ele>12.799999999999999</ele><time>2026-04-10T07:37:22.001Z</time></trkpt><trkpt lat="14.621254227868105" lon="121.1046874084542"><ele>12.399999999999999</ele><time>2026-04-10T07:37:24.001Z</time></trkpt><trkpt lat="14.621316053720657" lon="121.10459288185267"><ele>12.0</ele><time>2026-04-10T07:37:31.001Z</time></trkpt><trkpt lat="14.621287690698287" lon="121.10448033177063"><ele>12.0</ele><time>2026-04-10T07:37:33.001Z</time></trkpt><trkpt lat="14.621278540200393" lon="121.10441301579837"><ele>12.0</ele><time>2026-04-10T07:37:34.001Z</time></trkpt><trkpt lat="14.621266985438565" lon="121.10434249928525"><ele>12.0</ele><time>2026-04-10T07:37:35.001Z</time></trkpt><trkpt lat="14.62125314297951" lon="121.10426735762262"><ele>12.0</ele><time>2026-04-10T07:37:36.001Z</time></trkpt><trkpt lat="14.621238337009288" lon="121.104184563367"><ele>12.0</ele><time>2026-04-10T07:37:37.001Z</time></trkpt><trkpt lat="14.621220483870538" lon="121.10409479104487"><ele>12.0</ele><time>2026-04-10T07:37:38.001Z</time></trkpt><trkpt lat="14.621202295178136" lon="121.10399635758098"><ele>12.399999999999999</ele><time>2026-04-10T07:37:39.001Z</time></trkpt><trkpt lat="14.621187889160426" lon="121.10388201406816"><ele>12.799999999999999</ele><time>2026-04-10T07:37:40.001Z</time></trkpt><trkpt lat="14.621177781303542" lon="121.10376245620196"><ele>13.2</ele><time>2026-04-10T07:37:41.001Z</time></trkpt><trkpt lat="14.621163153508988" lon="121.10367396223671"><ele>13.6</ele><time>2026-04-10T07:37:42.001Z</time></trkpt><trkpt lat="14.621141436679832" lon="121.10355881906287"><ele>14.0</ele><time>2026-04-10T07:37:43.001Z</time></trkpt><trkpt lat="14.621126743299417" lon="121.10344432160541"><ele>14.0</ele><time>2026-04-10T07:37:44.001Z</time></trkpt><trkpt lat="14.621112826545698" lon="121.10333355195696"><ele>14.0</ele><time>2026-04-10T07:37:45.001Z</time></trkpt><trkpt lat="14.621090197452206" lon="121.10322071929731"><ele>14.0</ele><time>2026-04-10T07:37:46.001Z</time></trkpt><trkpt lat="14.621071490316725" lon="121.10310233901326"><ele>14.0</ele><time>2026-04-10T07:37:47.001Z</time></trkpt><trkpt lat="14.621054255153805" lon="121.10298262871463"><ele>14.0</ele><time>2026-04-10T07:37:48.001Z</time></trkpt><trkpt lat="14.621037954859395" lon="121.10286322550043"><ele>14.0</ele><time>2026-04-10T07:37:49.001Z</time></trkpt><trkpt lat="14.621020105283119" lon="121.10274257528093"><ele>14.0</ele><time>2026-04-10T07:37:50.002Z</time></trkpt><trkpt lat="14.62099930500556" lon="121.10262240940725"><ele>14.0</ele><time>2026-04-10T07:37:51.002Z</time></trkpt><trkpt lat="14.620975968133255" lon="121.10250749160333"><ele>14.000000000000002</ele><time>2026-04-10T07:37:52.002Z</time></trkpt><trkpt lat="14.620950609243732" lon="121.102400168623"><ele>14.0</ele><time>2026-04-10T07:37:53.002Z</time></trkpt><trkpt lat="14.620929678782202" lon="121.10230273102525"><ele>14.0</ele><time>2026-04-10T07:37:54.002Z</time></trkpt><trkpt lat="14.620911809760083" lon="121.10221322994848"><ele>14.0</ele><time>2026-04-10T07:37:55.002Z</time></trkpt><trkpt lat="14.6208940210451" lon="121.10213309596142"><ele>14.000000000000002</ele><time>2026-04-10T07:37:56.002Z</time></trkpt><trkpt lat="14.62089069804627" lon="121.1020585706858"><ele>14.0</ele><time>2026-04-10T07:37:57.002Z</time></trkpt><trkpt lat="14.620857297517164" lon="121.10196774374708"><ele>14.000000000000002</ele><time>2026-04-10T07:37:59.002Z</time></trkpt><trkpt lat="14.621011866963801" lon="121.10193941994363"><ele>14.0</ele><time>2026-04-10T07:38:01.002Z</time></trkpt><trkpt lat="14.621075491833649" lon="121.10193988843498"><ele>14.0</ele><time>2026-04-10T07:38:02.002Z</time></trkpt><trkpt lat="14.621138783649203" lon="121.10195142486779"><ele>14.0</ele><time>2026-04-10T07:38:03.002Z</time></trkpt><trkpt lat="14.621214847801596" lon="121.10197114750225"><ele>14.000000000000002</ele><time>2026-04-10T07:38:04.002Z</time></trkpt><trkpt lat="14.62128616117526" lon="121.10199089189135"><ele>14.0</ele><time>2026-04-10T07:38:05.002Z</time></trkpt><trkpt lat="14.621360573333742" lon="121.1020004025776"><ele>13.666666666666668</ele><time>2026-04-10T07:38:06.002Z</time></trkpt><trkpt lat="14.62144501841192" lon="121.10201150054331"><ele>13.333333333333334</ele><time>2026-04-10T07:38:07.002Z</time></trkpt><trkpt lat="14.621529856872607" lon="121.10201907902932"><ele>13.0</ele><time>2026-04-10T07:38:08.002Z</time></trkpt><trkpt lat="14.621612750211554" lon="121.10202118268249"><ele>12.666666666666668</ele><time>2026-04-10T07:38:09.002Z</time></trkpt><trkpt lat="14.621695917739723" lon="121.10202555434621"><ele>12.333333333333334</ele><time>2026-04-10T07:38:10.002Z</time></trkpt><trkpt lat="14.621786658766158" lon="121.10203570796135"><ele>12.0</ele><time>2026-04-10T07:38:11.002Z</time></trkpt><trkpt lat="14.621882548674666" lon="121.10204516159243"><ele>12.399999999999999</ele><time>2026-04-10T07:38:12.002Z</time></trkpt><trkpt lat="14.621981855298506" lon="121.10205170919608"><ele>12.799999999999999</ele><time>2026-04-10T07:38:13.002Z</time></trkpt><trkpt lat="14.62208753857309" lon="121.10206153791297"><ele>13.2</ele><time>2026-04-10T07:38:14.002Z</time></trkpt><trkpt lat="14.62219025652323" lon="121.10207603042747"><ele>13.6</ele><time>2026-04-10T07:38:15.002Z</time></trkpt><trkpt lat="14.62228820780275" lon="121.10208982441996"><ele>14.0</ele><time>2026-04-10T07:38:16.002Z</time></trkpt><trkpt lat="14.622373481217787" lon="121.10210306706125"><ele>14.000000000000002</ele><time>2026-04-10T07:38:17.002Z</time></trkpt><trkpt lat="14.622451483348726" lon="121.10211653094841"><ele>14.0</ele><time>2026-04-10T07:38:18.002Z</time></trkpt><trkpt lat="14.622535860579946" lon="121.10212481860427"><ele>14.0</ele><time>2026-04-10T07:38:19.002Z</time></trkpt><trkpt lat="14.622619708688871" lon="121.10213316870717"><ele>14.0</ele><time>2026-04-10T07:38:20.002Z</time></trkpt><trkpt lat="14.622703237434353" lon="121.102142935346"><ele>14.000000000000002</ele><time>2026-04-10T07:38:21.002Z</time></trkpt><trkpt lat="14.622776151384489" lon="121.10215321224672"><ele>14.0</ele><time>2026-04-10T07:38:22.002Z</time></trkpt><trkpt lat="14.6228720093276" lon="121.10216711749867"><ele>14.000000000000002</ele><time>2026-04-10T07:38:24.002Z</time></trkpt><trkpt lat="14.622976128205948" lon="121.102197452027"><ele>14.0</ele><time>2026-04-10T07:38:26.002Z</time></trkpt><trkpt lat="14.623049821482004" lon="121.1021966294878"><ele>14.0</ele><time>2026-04-10T07:38:27.002Z</time></trkpt><trkpt lat="14.623129245751505" lon="121.10219817373618"><ele>14.0</ele><time>2026-04-10T07:38:28.002Z</time></trkpt><trkpt lat="14.623211078760477" lon="121.10220264079506"><ele>14.000000000000002</ele><time>2026-04-10T07:38:29.002Z</time></trkpt><trkpt lat="14.623292274146557" lon="121.10220505213414"><ele>14.0</ele><time>2026-04-10T07:38:30.002Z</time></trkpt><trkpt lat="14.62335906423696" lon="121.10221340152653"><ele>14.000000000000002</ele><time>2026-04-10T07:38:31.002Z</time></trkpt><trkpt lat="14.62346065401943" lon="121.10224269757765"><ele>14.0</ele><time>2026-04-10T07:38:33.002Z</time></trkpt><trkpt lat="14.623527155504888" lon="121.10224938796196"><ele>14.0</ele><time>2026-04-10T07:38:34.002Z</time></trkpt><trkpt lat="14.623596380718443" lon="121.10225453865687"><ele>14.0</ele><time>2026-04-10T07:38:35.002Z</time></trkpt><trkpt lat="14.623669513639163" lon="121.10226365193948"><ele>14.000000000000002</ele><time>2026-04-10T07:38:36.002Z</time></trkpt><trkpt lat="14.623747598764693" lon="121.10227066812527"><ele>14.0</ele><time>2026-04-10T07:38:37.002Z</time></trkpt><trkpt lat="14.623834072625518" lon="121.10227373588265"><ele>14.142857142857142</ele><time>2026-04-10T07:38:38.002Z</time></trkpt><trkpt lat="14.623910487181027" lon="121.10227836881297"><ele>14.285714285714285</ele><time>2026-04-10T07:38:39Z</time></trkpt><trkpt lat="14.623989794399685" lon="121.10229279818824"><ele>14.428571428571429</ele><time>2026-04-10T07:38:40Z</time></trkpt><trkpt lat="14.624059370169814" lon="121.10231259468841"><ele>14.571428571428571</ele><time>2026-04-10T07:38:41.001Z</time></trkpt><trkpt lat="14.624123158701204" lon="121.1023336685674"><ele>14.714285714285714</ele><time>2026-04-10T07:38:42Z</time></trkpt><trkpt lat="14.624186223460441" lon="121.10235569416665"><ele>14.857142857142858</ele><time>2026-04-10T07:38:43Z</time></trkpt><trkpt lat="14.624255432595547" lon="121.10236457081398"><ele>15.0</ele><time>2026-04-10T07:38:44Z</time></trkpt><trkpt lat="14.62433292758154" lon="121.10237023194686"><ele>15.0</ele><time>2026-04-10T07:38:45Z</time></trkpt><trkpt lat="14.624399782040383" lon="121.10237251613104"><ele>15.0</ele><time>2026-04-10T07:38:46Z</time></trkpt><trkpt lat="14.624477997777547" lon="121.10237987611019"><ele>15.0</ele><time>2026-04-10T07:38:47Z</time></trkpt><trkpt lat="14.62454252214437" lon="121.10237866685829"><ele>15.0</ele><time>2026-04-10T07:38:48Z</time></trkpt><trkpt lat="14.624654656407209" lon="121.10237818314373"><ele>15.0</ele><time>2026-04-10T07:38:50Z</time></trkpt><trkpt lat="14.624741013961923" lon="121.10238319371601"><ele>15.0</ele><time>2026-04-10T07:38:52Z</time></trkpt><trkpt lat="14.624823312063182" lon="121.10238448301816"><ele>15.0</ele><time>2026-04-10T07:38:54Z</time></trkpt><trkpt lat="14.624930392199774" lon="121.10238485332052"><ele>15.0</ele><time>2026-04-10T07:38:56.001Z</time></trkpt><trkpt lat="14.62504179799092" lon="121.10238453230129"><ele>15.0</ele><time>2026-04-10T07:38:58.001Z</time></trkpt><trkpt lat="14.62514007626501" lon="121.10238335860731"><ele>15.0</ele><time>2026-04-10T07:39:00.001Z</time></trkpt><trkpt lat="14.625213098740186" lon="121.10238549324731"><ele>15.0</ele><time>2026-04-10T07:39:03.001Z</time></trkpt><trkpt lat="14.625287930965975" lon="121.1023888649823"><ele>14.6</ele><time>2026-04-10T07:39:05.001Z</time></trkpt><trkpt lat="14.625388184883889" lon="121.10238907342762"><ele>14.2</ele><time>2026-04-10T07:39:07.001Z</time></trkpt><trkpt lat="14.625469199216262" lon="121.10237877398092"><ele>13.8</ele><time>2026-04-10T07:39:09.001Z</time></trkpt><trkpt lat="14.62555346614846" lon="121.10236940524878"><ele>13.4</ele><time>2026-04-10T07:39:11.001Z</time></trkpt><trkpt lat="14.625660900974088" lon="121.10236919705552"><ele>13.0</ele><time>2026-04-10T07:39:13.001Z</time></trkpt><trkpt lat="14.625785754747902" lon="121.10236866823642"><ele>13.0</ele><time>2026-04-10T07:39:15.001Z</time></trkpt><trkpt lat="14.625918186333335" lon="121.10232769899606"><ele>13.0</ele><time>2026-04-10T07:39:17.001Z</time></trkpt><trkpt lat="14.626006028350961" lon="121.10230324714344"><ele>13.0</ele><time>2026-04-10T07:39:18.001Z</time></trkpt><trkpt lat="14.626099689349106" lon="121.1022897330105"><ele>13.0</ele><time>2026-04-10T07:39:19.001Z</time></trkpt><trkpt lat="14.626206427640902" lon="121.10227418344786"><ele>13.0</ele><time>2026-04-10T07:39:20.001Z</time></trkpt><trkpt lat="14.626322974398159" lon="121.10226266361147"><ele>13.0</ele><time>2026-04-10T07:39:21.001Z</time></trkpt><trkpt lat="14.6264322511237" lon="121.10225100573265"><ele>13.0</ele><time>2026-04-10T07:39:22.001Z</time></trkpt><trkpt lat="14.62654046717897" lon="121.10224253036368"><ele>13.0</ele><time>2026-04-10T07:39:23.001Z</time></trkpt><trkpt lat="14.6266544293081" lon="121.10222956942161"><ele>13.0</ele><time>2026-04-10T07:39:24.001Z</time></trkpt><trkpt lat="14.626757304031754" lon="121.10222236296333"><ele>13.0</ele><time>2026-04-10T07:39:25.001Z</time></trkpt><trkpt lat="14.626844945939188" lon="121.10222022883093"><ele>12.999999999999998</ele><time>2026-04-10T07:39:26.001Z</time></trkpt><trkpt lat="14.626924519452313" lon="121.10221047130659"><ele>13.0</ele><time>2026-04-10T07:39:27.001Z</time></trkpt><trkpt lat="14.627005168446464" lon="121.10219582220161"><ele>13.0</ele><time>2026-04-10T07:39:28.001Z</time></trkpt><trkpt lat="14.627079516017224" lon="121.10217901935452"><ele>13.0</ele><time>2026-04-10T07:39:29.001Z</time></trkpt><trkpt lat="14.627180424121583" lon="121.10217350831338"><ele>12.999999999999998</ele><time>2026-04-10T07:39:31.001Z</time></trkpt><trkpt lat="14.627256186031024" lon="121.10217931362632"><ele>13.0</ele><time>2026-04-10T07:39:38.001Z</time></trkpt><trkpt lat="14.627356314927459" lon="121.10216308566626"><ele>12.999999999999998</ele><time>2026-04-10T07:39:40.001Z</time></trkpt><trkpt lat="14.627429838776226" lon="121.10214836543885"><ele>13.0</ele><time>2026-04-10T07:39:41.001Z</time></trkpt><trkpt lat="14.627507567293588" lon="121.10214157970229"><ele>13.0</ele><time>2026-04-10T07:39:42.001Z</time></trkpt><trkpt lat="14.62758936211404" lon="121.10213259411942"><ele>13.0</ele><time>2026-04-10T07:39:43.001Z</time></trkpt><trkpt lat="14.627673545679482" lon="121.10211903363071"><ele>12.999999999999998</ele><time>2026-04-10T07:39:44.001Z</time></trkpt><trkpt lat="14.62775521827872" lon="121.10210660785039"><ele>13.0</ele><time>2026-04-10T07:39:45.001Z</time></trkpt><trkpt lat="14.627830534439935" lon="121.10209026438207"><ele>12.999999999999998</ele><time>2026-04-10T07:39:46.001Z</time></trkpt><trkpt lat="14.627905612553272" lon="121.10207833888487"><ele>13.0</ele><time>2026-04-10T07:39:47.001Z</time></trkpt><trkpt lat="14.627990141536907" lon="121.10206703903533"><ele>13.0</ele><time>2026-04-10T07:39:48.001Z</time></trkpt><trkpt lat="14.628072566348724" lon="121.10206051284486"><ele>13.0</ele><time>2026-04-10T07:39:49.001Z</time></trkpt><trkpt lat="14.628156509564064" lon="121.10205445510962"><ele>12.999999999999998</ele><time>2026-04-10T07:39:50.001Z</time></trkpt><trkpt lat="14.628228085217094" lon="121.10204831309017"><ele>13.0</ele><time>2026-04-10T07:39:51.001Z</time></trkpt><trkpt lat="14.628304553867547" lon="121.10204314849693"><ele>13.0</ele><time>2026-04-10T07:39:52.001Z</time></trkpt><trkpt lat="14.628386029019659" lon="121.1020307098998"><ele>13.0</ele><time>2026-04-10T07:39:53.001Z</time></trkpt><trkpt lat="14.628474168784736" lon="121.10201234326891"><ele>13.0</ele><time>2026-04-10T07:39:54.001Z</time></trkpt><trkpt lat="14.628567620553573" lon="121.1019989866329"><ele>13.0</ele><time>2026-04-10T07:39:55.001Z</time></trkpt><trkpt lat="14.62866483842609" lon="121.10198599314363"><ele>13.0</ele><time>2026-04-10T07:39:56.001Z</time></trkpt><trkpt lat="14.628764702569327" lon="121.10197487291575"><ele>13.0</ele><time>2026-04-10T07:39:57.002Z</time></trkpt><trkpt lat="14.628866151435114" lon="121.10196197181685"><ele>13.0</ele><time>2026-04-10T07:39:58.002Z</time></trkpt><trkpt lat="14.62897298216192" lon="121.10194751511848"><ele>13.0</ele><time>2026-04-10T07:39:59.002Z</time></trkpt><trkpt lat="14.629084823065547" lon="121.10193504618755"><ele>13.0</ele><time>2026-04-10T07:40:00.002Z</time></trkpt><trkpt lat="14.629195303385933" lon="121.10192233698287"><ele>13.0</ele><time>2026-04-10T07:40:01.002Z</time></trkpt><trkpt lat="14.629302213947396" lon="121.10190990764163"><ele>13.0</ele><time>2026-04-10T07:40:02.002Z</time></trkpt><trkpt lat="14.629416290558751" lon="121.10189453650042"><ele>13.0</ele><time>2026-04-10T07:40:03.002Z</time></trkpt><trkpt lat="14.629529843700983" lon="121.10187848061005"><ele>13.0</ele><time>2026-04-10T07:40:04.002Z</time></trkpt><trkpt lat="14.62964433229062" lon="121.10186517925585"><ele>13.0</ele><time>2026-04-10T07:40:05.002Z</time></trkpt><trkpt lat="14.629764925319787" lon="121.10185120122244"><ele>12.5</ele><time>2026-04-10T07:40:06.002Z</time></trkpt><trkpt lat="14.629884822826721" lon="121.10183847370602"><ele>12.0</ele><time>2026-04-10T07:40:07.002Z</time></trkpt><trkpt lat="14.630005576947502" lon="121.10182093206052"><ele>11.5</ele><time>2026-04-10T07:40:08.002Z</time></trkpt><trkpt lat="14.630128890555575" lon="121.10180753248136"><ele>11.0</ele><time>2026-04-10T07:40:09.002Z</time></trkpt><trkpt lat="14.630257244662722" lon="121.1017931045346"><ele>11.25</ele><time>2026-04-10T07:40:10.002Z</time></trkpt><trkpt lat="14.63038750860033" lon="121.10177929649541"><ele>11.5</ele><time>2026-04-10T07:40:11.002Z</time></trkpt><trkpt lat="14.630511005648103" lon="121.10176360874257"><ele>11.75</ele><time>2026-04-10T07:40:12.002Z</time></trkpt><trkpt lat="14.630649287849968" lon="121.10174459320599"><ele>12.0</ele><time>2026-04-10T07:40:13.002Z</time></trkpt><trkpt lat="14.630786276400997" lon="121.10172883486389"><ele>12.0</ele><time>2026-04-10T07:40:14.002Z</time></trkpt><trkpt lat="14.630924927186648" lon="121.10171326180459"><ele>12.0</ele><time>2026-04-10T07:40:15.002Z</time></trkpt><trkpt lat="14.631066183653271" lon="121.10169621457321"><ele>12.0</ele><time>2026-04-10T07:40:16.002Z</time></trkpt><trkpt lat="14.631207919073308" lon="121.10167997644575"><ele>12.0</ele><time>2026-04-10T07:40:17.002Z</time></trkpt><trkpt lat="14.631352870256196" lon="121.10166244762384"><ele>12.25</ele><time>2026-04-10T07:40:18.002Z</time></trkpt><trkpt lat="14.631499239393746" lon="121.10164443550947"><ele>12.5</ele><time>2026-04-10T07:40:19.002Z</time></trkpt><trkpt lat="14.631628679959618" lon="121.10163081206511"><ele>12.75</ele><time>2026-04-10T07:40:20.002Z</time></trkpt><trkpt lat="14.631747403528914" lon="121.10161752385632"><ele>13.0</ele><time>2026-04-10T07:40:21.002Z</time></trkpt><trkpt lat="14.63185485580339" lon="121.10160697079003"><ele>12.999999999999998</ele><time>2026-04-10T07:40:22.002Z</time></trkpt><trkpt lat="14.631943414149584" lon="121.10159562086135"><ele>13.0</ele><time>2026-04-10T07:40:23.002Z</time></trkpt><trkpt lat="14.632017198541378" lon="121.10158834905745"><ele>13.0</ele><time>2026-04-10T07:40:24.002Z</time></trkpt><trkpt lat="14.632084329193919" lon="121.10158328973675"><ele>13.0</ele><time>2026-04-10T07:40:25.002Z</time></trkpt><trkpt lat="14.632155858475645" lon="121.10157612412027"><ele>12.999999999999998</ele><time>2026-04-10T07:40:26.002Z</time></trkpt><trkpt lat="14.632282568028074" lon="121.10156867105299"><ele>13.0</ele><time>2026-04-10T07:40:28.002Z</time></trkpt><trkpt lat="14.632400832868164" lon="121.10155499782076"><ele>13.2</ele><time>2026-04-10T07:40:30.002Z</time></trkpt><trkpt lat="14.632526825663312" lon="121.10153588772819"><ele>13.4</ele><time>2026-04-10T07:40:32.002Z</time></trkpt><trkpt lat="14.632625912209113" lon="121.1015224250644"><ele>13.599999999999998</ele><time>2026-04-10T07:40:34.002Z</time></trkpt><trkpt lat="14.632693907695641" lon="121.10152267266824"><ele>13.799999999999999</ele><time>2026-04-10T07:40:41.002Z</time></trkpt><trkpt lat="14.632765063974288" lon="121.10151918944229"><ele>14.0</ele><time>2026-04-10T07:40:44.002Z</time></trkpt><trkpt lat="14.632868272542943" lon="121.10151564101731"><ele>13.833333333333334</ele><time>2026-04-10T07:40:46Z</time></trkpt><trkpt lat="14.632943031396481" lon="121.10152172529904"><ele>13.666666666666668</ele><time>2026-04-10T07:40:47Z</time></trkpt><trkpt lat="14.633023103680436" lon="121.10153343104717"><ele>13.5</ele><time>2026-04-10T07:40:48Z</time></trkpt><trkpt lat="14.633112108388344" lon="121.10155415925092"><ele>13.333333333333332</ele><time>2026-04-10T07:40:49Z</time></trkpt><trkpt lat="14.633204998858172" lon="121.10158016576008"><ele>13.166666666666666</ele><time>2026-04-10T07:40:50Z</time></trkpt><trkpt lat="14.63329512462195" lon="121.10161694051577"><ele>13.0</ele><time>2026-04-10T07:40:51Z</time></trkpt><trkpt lat="14.633379670310017" lon="121.10165202437304"><ele>12.999999999999998</ele><time>2026-04-10T07:40:52Z</time></trkpt><trkpt lat="14.633460911884859" lon="121.10168526514602"><ele>13.0</ele><time>2026-04-10T07:40:53Z</time></trkpt><trkpt lat="14.633540941763458" lon="121.101718969067"><ele>13.0</ele><time>2026-04-10T07:40:54Z</time></trkpt><trkpt lat="14.633618881322999" lon="121.10174979377886"><ele>13.0</ele><time>2026-04-10T07:40:55Z</time></trkpt><trkpt lat="14.633689046605266" lon="121.10177399226878"><ele>12.999999999999998</ele><time>2026-04-10T07:40:56Z</time></trkpt><trkpt lat="14.633750348987618" lon="121.1017928238201"><ele>13.0</ele><time>2026-04-10T07:40:57Z</time></trkpt><trkpt lat="14.633852711365476" lon="121.10183181122726"><ele>12.600000000000001</ele><time>2026-04-10T07:40:59Z</time></trkpt><trkpt lat="14.63392753816688" lon="121.10186125813485"><ele>12.200000000000001</ele><time>2026-04-10T07:41:01Z</time></trkpt><trkpt lat="14.6340212998875" lon="121.10188757225004"><ele>11.8</ele><time>2026-04-10T07:41:03.001Z</time></trkpt><trkpt lat="14.634130872601462" lon="121.10190563502667"><ele>11.4</ele><time>2026-04-10T07:41:05.001Z</time></trkpt><trkpt lat="14.634244369588297" lon="121.10193002455851"><ele>11.0</ele><time>2026-04-10T07:41:07.001Z</time></trkpt><trkpt lat="14.634334840626266" lon="121.1019476556172"><ele>11.0</ele><time>2026-04-10T07:41:09.001Z</time></trkpt><trkpt lat="14.634408576047658" lon="121.10196199321592"><ele>11.0</ele><time>2026-04-10T07:41:11.001Z</time></trkpt><trkpt lat="14.63449598245926" lon="121.10197593439793"><ele>11.0</ele><time>2026-04-10T07:41:23.001Z</time></trkpt><trkpt lat="14.634583060511266" lon="121.10199563372967"><ele>11.0</ele><time>2026-04-10T07:41:26.001Z</time></trkpt><trkpt lat="14.634665874426343" lon="121.10201292992896"><ele>11.0</ele><time>2026-04-10T07:41:29.001Z</time></trkpt><trkpt lat="14.634735278491346" lon="121.10201925095362"><ele>11.0</ele><time>2026-04-10T07:41:33.001Z</time></trkpt><trkpt lat="14.634799808889687" lon="121.10202844387389"><ele>11.166666666666666</ele><time>2026-04-10T07:41:35.001Z</time></trkpt><trkpt lat="14.634876182970013" lon="121.10203282032055"><ele>11.333333333333332</ele><time>2026-04-10T07:41:37.001Z</time></trkpt><trkpt lat="14.634953465279999" lon="121.10203130161698"><ele>11.5</ele><time>2026-04-10T07:41:39.001Z</time></trkpt><trkpt lat="14.635056731879297" lon="121.10201888555758"><ele>11.666666666666666</ele><time>2026-04-10T07:41:41.001Z</time></trkpt><trkpt lat="14.635145954627102" lon="121.1020020877737"><ele>11.833333333333334</ele><time>2026-04-10T07:41:43.001Z</time></trkpt><trkpt lat="14.635209963622211" lon="121.1019720018962"><ele>12.0</ele><time>2026-04-10T07:41:45.001Z</time></trkpt><trkpt lat="14.635290790624326" lon="121.10194167933952"><ele>11.833333333333334</ele><time>2026-04-10T07:41:47.001Z</time></trkpt><trkpt lat="14.635382911783493" lon="121.10190938742043"><ele>11.666666666666666</ele><time>2026-04-10T07:41:49.001Z</time></trkpt><trkpt lat="14.635476881174878" lon="121.10187381622954"><ele>11.5</ele><time>2026-04-10T07:41:51.001Z</time></trkpt><trkpt lat="14.635542199371427" lon="121.10184980343386"><ele>11.333333333333332</ele><time>2026-04-10T07:41:52.001Z</time></trkpt><trkpt lat="14.635619168538502" lon="121.10182536196001"><ele>11.166666666666666</ele><time>2026-04-10T07:41:53.001Z</time></trkpt><trkpt lat="14.635684297024072" lon="121.10180633028749"><ele>11.0</ele><time>2026-04-10T07:41:54.001Z</time></trkpt><trkpt lat="14.635799990000642" lon="121.10177233643664"><ele>11.0</ele><time>2026-04-10T07:41:56.001Z</time></trkpt><trkpt lat="14.63585950839678" lon="121.10174511625024"><ele>11.0</ele><time>2026-04-10T07:41:57.001Z</time></trkpt><trkpt lat="14.635931147259065" lon="121.10171182701691"><ele>11.0</ele><time>2026-04-10T07:41:58.001Z</time></trkpt><trkpt lat="14.636011369663281" lon="121.10168046000877"><ele>11.0</ele><time>2026-04-10T07:41:59.001Z</time></trkpt><trkpt lat="14.636097924088276" lon="121.10165343650182"><ele>11.0</ele><time>2026-04-10T07:42:00.001Z</time></trkpt><trkpt lat="14.636185164134204" lon="121.10162436263302"><ele>11.0</ele><time>2026-04-10T07:42:01.001Z</time></trkpt><trkpt lat="14.636271682861654" lon="121.10159374716669"><ele>11.5</ele><time>2026-04-10T07:42:02.001Z</time></trkpt><trkpt lat="14.63635763140477" lon="121.10157447989928"><ele>12.0</ele><time>2026-04-10T07:42:03.001Z</time></trkpt><trkpt lat="14.636432587747638" lon="121.10158275437368"><ele>12.5</ele><time>2026-04-10T07:42:04.002Z</time></trkpt><trkpt lat="14.636492731710065" lon="121.10160301052774"><ele>13.0</ele><time>2026-04-10T07:42:05.002Z</time></trkpt><trkpt lat="14.636551101018465" lon="121.10162857068596"><ele>13.500000000000002</ele><time>2026-04-10T07:42:06.002Z</time></trkpt><trkpt lat="14.63661012918396" lon="121.10165465177919"><ele>14.0</ele><time>2026-04-10T07:42:07.002Z</time></trkpt><trkpt lat="14.636714900193589" lon="121.10169198040826"><ele>14.0</ele><time>2026-04-10T07:42:09.002Z</time></trkpt><trkpt lat="14.636823313693165" lon="121.10173350769159"><ele>13.999999999999998</ele><time>2026-04-10T07:42:11.002Z</time></trkpt><trkpt lat="14.636932868152888" lon="121.10178175463965"><ele>13.999999999999998</ele><time>2026-04-10T07:42:13.002Z</time></trkpt><trkpt lat="14.637007462783123" lon="121.10180917456601"><ele>14.0</ele><time>2026-04-10T07:42:14.002Z</time></trkpt><trkpt lat="14.637090672068044" lon="121.10183977183182"><ele>14.0</ele><time>2026-04-10T07:42:15.002Z</time></trkpt><trkpt lat="14.637220829049687" lon="121.10190861487143"><ele>14.399999999999999</ele><time>2026-04-10T07:42:17.002Z</time></trkpt><trkpt lat="14.63730413554277" lon="121.10194843597496"><ele>14.799999999999999</ele><time>2026-04-10T07:42:18.002Z</time></trkpt><trkpt lat="14.637388488246655" lon="121.10198593515234"><ele>15.200000000000001</ele><time>2026-04-10T07:42:19.002Z</time></trkpt><trkpt lat="14.63747500062152" lon="121.10202594179083"><ele>15.600000000000001</ele><time>2026-04-10T07:42:20.002Z</time></trkpt><trkpt lat="14.63756156416432" lon="121.10206646891358"><ele>16.0</ele><time>2026-04-10T07:42:21.002Z</time></trkpt><trkpt lat="14.637648067731845" lon="121.10210616570274"><ele>16.0</ele><time>2026-04-10T07:42:22.002Z</time></trkpt><trkpt lat="14.637737349706418" lon="121.10214624168319"><ele>16.0</ele><time>2026-04-10T07:42:23.002Z</time></trkpt><trkpt lat="14.637827051009893" lon="121.10218877716362"><ele>16.0</ele><time>2026-04-10T07:42:24.002Z</time></trkpt><trkpt lat="14.63791806146535" lon="121.10223289445736"><ele>16.0</ele><time>2026-04-10T07:42:25.002Z</time></trkpt><trkpt lat="14.638011959592784" lon="121.10227931533463"><ele>16.0</ele><time>2026-04-10T07:42:26.002Z</time></trkpt><trkpt lat="14.638102691548434" lon="121.10232285039058"><ele>16.0</ele><time>2026-04-10T07:42:27.002Z</time></trkpt><trkpt lat="14.638196569150187" lon="121.1023682911656"><ele>16.0</ele><time>2026-04-10T07:42:28.002Z</time></trkpt><trkpt lat="14.63828545303243" lon="121.10241320081276"><ele>16.0</ele><time>2026-04-10T07:42:29.002Z</time></trkpt><trkpt lat="14.63837546135561" lon="121.10245315335216"><ele>16.0</ele><time>2026-04-10T07:42:30.002Z</time></trkpt><trkpt lat="14.638464744812598" lon="121.10250044232802"><ele>16.0</ele><time>2026-04-10T07:42:31.002Z</time></trkpt><trkpt lat="14.63855709006819" lon="121.10254142908484"><ele>15.200000000000001</ele><time>2026-04-10T07:42:32.002Z</time></trkpt><trkpt lat="14.638652858863704" lon="121.10258867873152"><ele>14.400000000000002</ele><time>2026-04-10T07:42:33.002Z</time></trkpt><trkpt lat="14.638747787861323" lon="121.10263419985174"><ele>13.6</ele><time>2026-04-10T07:42:34.002Z</time></trkpt><trkpt lat="14.638849872431324" lon="121.10268603114382"><ele>12.8</ele><time>2026-04-10T07:42:35.002Z</time></trkpt><trkpt lat="14.638955359027054" lon="121.10273899582354"><ele>12.0</ele><time>2026-04-10T07:42:36.002Z</time></trkpt><trkpt lat="14.639061353402004" lon="121.10278947675205"><ele>12.0</ele><time>2026-04-10T07:42:37.002Z</time></trkpt><trkpt lat="14.639175238860012" lon="121.10283834266544"><ele>12.0</ele><time>2026-04-10T07:42:38.002Z</time></trkpt><trkpt lat="14.63929275863854" lon="121.1028907024311"><ele>12.0</ele><time>2026-04-10T07:42:39.002Z</time></trkpt><trkpt lat="14.639408621567954" lon="121.10296072177917"><ele>12.0</ele><time>2026-04-10T07:42:40.002Z</time></trkpt><trkpt lat="14.639526243708902" lon="121.10301566749808"><ele>12.25</ele><time>2026-04-10T07:42:41.002Z</time></trkpt><trkpt lat="14.639657953288705" lon="121.10307757929252"><ele>12.5</ele><time>2026-04-10T07:42:42.002Z</time></trkpt><trkpt lat="14.639796931606517" lon="121.10312491023733"><ele>12.75</ele><time>2026-04-10T07:42:43.002Z</time></trkpt><trkpt lat="14.639919845218307" lon="121.1031845024228"><ele>13.0</ele><time>2026-04-10T07:42:44.002Z</time></trkpt><trkpt lat="14.64003633209861" lon="121.1032580384486"><ele>13.0</ele><time>2026-04-10T07:42:45.002Z</time></trkpt><trkpt lat="14.640149889835143" lon="121.1033122366639"><ele>13.0</ele><time>2026-04-10T07:42:46.002Z</time></trkpt><trkpt lat="14.640259045501965" lon="121.10336431623614"><ele>13.0</ele><time>2026-04-10T07:42:47.002Z</time></trkpt><trkpt lat="14.640358537163122" lon="121.10340969325523"><ele>13.0</ele><time>2026-04-10T07:42:48.002Z</time></trkpt><trkpt lat="14.640452968090642" lon="121.10342956213434"><ele>13.4</ele><time>2026-04-10T07:42:49.002Z</time></trkpt><trkpt lat="14.640529846449507" lon="121.10346237068579"><ele>13.8</ele><time>2026-04-10T07:42:50.002Z</time></trkpt><trkpt lat="14.640599099247515" lon="121.10349012591514"><ele>14.2</ele><time>2026-04-10T07:42:51.001Z</time></trkpt><trkpt lat="14.640687085244732" lon="121.1035323776945"><ele>14.6</ele><time>2026-04-10T07:42:52.001Z</time></trkpt><trkpt lat="14.640770104816756" lon="121.10356844321278"><ele>15.0</ele><time>2026-04-10T07:42:53.001Z</time></trkpt><trkpt lat="14.64086920650513" lon="121.10361295429941"><ele>15.0</ele><time>2026-04-10T07:42:54.001Z</time></trkpt><trkpt lat="14.640953320842037" lon="121.10368934003081"><ele>15.0</ele><time>2026-04-10T07:42:55.001Z</time></trkpt><trkpt lat="14.641051977468562" lon="121.10373569192583"><ele>15.0</ele><time>2026-04-10T07:42:56.001Z</time></trkpt><trkpt lat="14.641158937422414" lon="121.10378594496365"><ele>15.0</ele><time>2026-04-10T07:42:57.001Z</time></trkpt><trkpt lat="14.641259826292986" lon="121.10383327625274"><ele>15.0</ele><time>2026-04-10T07:42:58.001Z</time></trkpt><trkpt lat="14.641351528030297" lon="121.10387617957029"><ele>14.8</ele><time>2026-04-10T07:42:59.001Z</time></trkpt><trkpt lat="14.641443950373" lon="121.1039194200104"><ele>14.6</ele><time>2026-04-10T07:43:00.001Z</time></trkpt><trkpt lat="14.641533596575565" lon="121.103961361639"><ele>14.399999999999999</ele><time>2026-04-10T07:43:01.001Z</time></trkpt><trkpt lat="14.641620910299443" lon="121.10400221230697"><ele>14.2</ele><time>2026-04-10T07:43:02.001Z</time></trkpt><trkpt lat="14.641700963387674" lon="121.10403966570674"><ele>14.0</ele><time>2026-04-10T07:43:03.001Z</time></trkpt><trkpt lat="14.641776666176996" lon="121.10407508379868"><ele>13.714285714285714</ele><time>2026-04-10T07:43:04.001Z</time></trkpt><trkpt lat="14.641846507245319" lon="121.10410775945068"><ele>13.428571428571429</ele><time>2026-04-10T07:43:05.001Z</time></trkpt><trkpt lat="14.641917647326268" lon="121.10414104284041"><ele>13.142857142857142</ele><time>2026-04-10T07:43:06.001Z</time></trkpt><trkpt lat="14.641994113961319" lon="121.10417710961295"><ele>12.857142857142858</ele><time>2026-04-10T07:43:07.001Z</time></trkpt><trkpt lat="14.642062234449002" lon="121.10420925225318"><ele>12.571428571428571</ele><time>2026-04-10T07:43:08.001Z</time></trkpt><trkpt lat="14.64212475910473" lon="121.10423875450813"><ele>12.285714285714285</ele><time>2026-04-10T07:43:09.001Z</time></trkpt><trkpt lat="14.6421838680898" lon="121.10426664506866"><ele>12.0</ele><time>2026-04-10T07:43:10.001Z</time></trkpt><trkpt lat="14.642251149099167" lon="121.10429839161284"><ele>12.0</ele><time>2026-04-10T07:43:11.001Z</time></trkpt><trkpt lat="14.642318998179606" lon="121.10433057134405"><ele>12.0</ele><time>2026-04-10T07:43:12.001Z</time></trkpt><trkpt lat="14.642388341776599" lon="121.10436351523241"><ele>12.0</ele><time>2026-04-10T07:43:13.001Z</time></trkpt><trkpt lat="14.64248843826802" lon="121.10441106927279"><ele>12.0</ele><time>2026-04-10T07:43:15.001Z</time></trkpt><trkpt lat="14.64260469051837" lon="121.10446629869384"><ele>12.0</ele><time>2026-04-10T07:43:17.001Z</time></trkpt><trkpt lat="14.642673966714542" lon="121.10449861370114"><ele>12.0</ele><time>2026-04-10T07:43:18.001Z</time></trkpt><trkpt lat="14.642743441968546" lon="121.10453120982685"><ele>12.0</ele><time>2026-04-10T07:43:19.001Z</time></trkpt><trkpt lat="14.642805251332396" lon="121.10456020929657"><ele>12.0</ele><time>2026-04-10T07:43:20.001Z</time></trkpt><trkpt lat="14.642898366360736" lon="121.10460389664011"><ele>12.0</ele><time>2026-04-10T07:43:22.001Z</time></trkpt><trkpt lat="14.642972276637837" lon="121.10463854122648"><ele>12.0</ele><time>2026-04-10T07:43:26.001Z</time></trkpt><trkpt lat="14.643099155151422" lon="121.10451300726113"><ele>12.8</ele><time>2026-04-10T07:43:30.001Z</time></trkpt><trkpt lat="14.643121588144341" lon="121.104437649177"><ele>13.6</ele><time>2026-04-10T07:43:31.001Z</time></trkpt><trkpt lat="14.643152543863875" lon="121.10436292555036"><ele>14.400000000000002</ele><time>2026-04-10T07:43:32.001Z</time></trkpt><trkpt lat="14.643197731293489" lon="121.10427016068299"><ele>15.200000000000001</ele><time>2026-04-10T07:43:33.001Z</time></trkpt><trkpt lat="14.643230203077765" lon="121.10417671157397"><ele>16.0</ele><time>2026-04-10T07:43:34.001Z</time></trkpt><trkpt lat="14.643278478935882" lon="121.10408156025751"><ele>15.8</ele><time>2026-04-10T07:43:35.001Z</time></trkpt><trkpt lat="14.643327759135108" lon="121.10398596820947"><ele>15.600000000000001</ele><time>2026-04-10T07:43:36.001Z</time></trkpt><trkpt lat="14.643365910677911" lon="121.10390474313685"><ele>15.4</ele><time>2026-04-10T07:43:37.001Z</time></trkpt><trkpt lat="14.643407494249296" lon="121.10381619478373"><ele>15.2</ele><time>2026-04-10T07:43:38.001Z</time></trkpt><trkpt lat="14.643446594697327" lon="121.10373361799813"><ele>15.0</ele><time>2026-04-10T07:43:39.001Z</time></trkpt><trkpt lat="14.643482066204797" lon="121.1036594272907"><ele>15.0</ele><time>2026-04-10T07:43:40.001Z</time></trkpt><trkpt lat="14.643509812110706" lon="121.10359534675847"><ele>15.0</ele><time>2026-04-10T07:43:41.001Z</time></trkpt><trkpt lat="14.643559951345253" lon="121.10350336683923"><ele>15.0</ele><time>2026-04-10T07:43:43.001Z</time></trkpt><trkpt lat="14.64363149797678" lon="121.10344014731038"><ele>15.0</ele><time>2026-04-10T07:43:45.001Z</time></trkpt><trkpt lat="14.643755721737167" lon="121.10341464613565"><ele>15.0</ele><time>2026-04-10T07:43:47.001Z</time></trkpt><trkpt lat="14.643817783024817" lon="121.1034583032426"><ele>15.166666666666666</ele><time>2026-04-10T07:43:48.001Z</time></trkpt><trkpt lat="14.643881506119575" lon="121.10348730021978"><ele>15.333333333333332</ele><time>2026-04-10T07:43:49.001Z</time></trkpt><trkpt lat="14.643949313390017" lon="121.1035106678741"><ele>15.5</ele><time>2026-04-10T07:43:50.001Z</time></trkpt><trkpt lat="14.644010225554823" lon="121.10353309035065"><ele>15.666666666666666</ele><time>2026-04-10T07:43:51.001Z</time></trkpt><trkpt lat="14.644115613956787" lon="121.10358552781128"><ele>15.833333333333332</ele><time>2026-04-10T07:43:53.001Z</time></trkpt><trkpt lat="14.644219646598687" lon="121.10363445708519"><ele>16.0</ele><time>2026-04-10T07:43:55.001Z</time></trkpt><trkpt lat="14.644306687961127" lon="121.10367373215475"><ele>16.0</ele><time>2026-04-10T07:43:57.001Z</time></trkpt><trkpt lat="14.644380227516109" lon="121.10370747600761"><ele>16.0</ele><time>2026-04-10T07:44:00.001Z</time></trkpt><trkpt lat="14.644449533908276" lon="121.1037547046334"><ele>16.0</ele><time>2026-04-10T07:44:03.001Z</time></trkpt><trkpt lat="14.644471472253025" lon="121.10385318828598"><ele>16.0</ele><time>2026-04-10T07:44:05.001Z</time></trkpt><trkpt lat="14.644513171040835" lon="121.1039599784153"><ele>16.0</ele><time>2026-04-10T07:44:07.001Z</time></trkpt><trkpt lat="14.64460033671349" lon="121.10399557300885"><ele>15.999999999999998</ele><time>2026-04-10T07:44:08.001Z</time></trkpt><trkpt lat="14.644660506363563" lon="121.10402407951493"><ele>16.0</ele><time>2026-04-10T07:44:09.001Z</time></trkpt><trkpt lat="14.64472812982076" lon="121.10405611738771"><ele>16.0</ele><time>2026-04-10T07:44:10.002Z</time></trkpt><trkpt lat="14.644800063427416" lon="121.1040901973707"><ele>16.0</ele><time>2026-04-10T07:44:11.002Z</time></trkpt><trkpt lat="14.644871340210065" lon="121.10412445750022"><ele>15.999999999999998</ele><time>2026-04-10T07:44:12.002Z</time></trkpt><trkpt lat="14.64494744262299" lon="121.10416085072806"><ele>16.0</ele><time>2026-04-10T07:44:13.002Z</time></trkpt><trkpt lat="14.64502755101555" lon="121.10419915968079"><ele>15.999999999999998</ele><time>2026-04-10T07:44:14.002Z</time></trkpt><trkpt lat="14.64510664846695" lon="121.10423680248951"><ele>16.0</ele><time>2026-04-10T07:44:15.002Z</time></trkpt><trkpt lat="14.645180533755703" lon="121.10427193751393"><ele>16.0</ele><time>2026-04-10T07:44:16.002Z</time></trkpt><trkpt lat="14.645250026246718" lon="121.10430498359985"><ele>16.0</ele><time>2026-04-10T07:44:17.002Z</time></trkpt><trkpt lat="14.645318116666639" lon="121.10433736295779"><ele>15.999999999999998</ele><time>2026-04-10T07:44:18.002Z</time></trkpt><trkpt lat="14.645382209618123" lon="121.10436784139283"><ele>16.0</ele><time>2026-04-10T07:44:19.002Z</time></trkpt><trkpt lat="14.645477235720643" lon="121.10441513448923"><ele>15.999999999999998</ele><time>2026-04-10T07:44:21.002Z</time></trkpt><trkpt lat="14.6455642111384" lon="121.10445837010347"><ele>16.0</ele><time>2026-04-10T07:44:24.002Z</time></trkpt><trkpt lat="14.645631051646617" lon="121.10446352582804"><ele>16.0</ele><time>2026-04-10T07:44:26.002Z</time></trkpt><trkpt lat="14.645713791534861" lon="121.1043983236046"><ele>16.0</ele><time>2026-04-10T07:44:28.002Z</time></trkpt><trkpt lat="14.645763041007736" lon="121.1043304198532"><ele>15.999999999999998</ele><time>2026-04-10T07:44:30.002Z</time></trkpt><trkpt lat="14.645787204386998" lon="121.10423737537441"><ele>16.0</ele><time>2026-04-10T07:44:32.002Z</time></trkpt><trkpt lat="14.645812149471656" lon="121.1041721664536"><ele>15.999999999999998</ele><time>2026-04-10T07:44:34.002Z</time></trkpt><trkpt lat="14.645841248710887" lon="121.10410505136804"><ele>16.0</ele><time>2026-04-10T07:44:37.002Z</time></trkpt><trkpt lat="14.645879572094117" lon="121.10403665542633"><ele>16.0</ele><time>2026-04-10T07:44:40.002Z</time></trkpt><trkpt lat="14.645992940131633" lon="121.10409084714617"><ele>16.0</ele><time>2026-04-10T07:44:43.002Z</time></trkpt><trkpt lat="14.646053516577249" lon="121.10412024208219"><ele>15.999999999999998</ele><time>2026-04-10T07:44:44.002Z</time></trkpt><trkpt lat="14.646123812219654" lon="121.10415435330444"><ele>16.0</ele><time>2026-04-10T07:44:45.002Z</time></trkpt><trkpt lat="14.646199956539128" lon="121.10419137808198"><ele>16.166666666666664</ele><time>2026-04-10T07:44:46.002Z</time></trkpt><trkpt lat="14.64627449055155" lon="121.10422761962535"><ele>16.333333333333332</ele><time>2026-04-10T07:44:47.002Z</time></trkpt><trkpt lat="14.646345399217584" lon="121.10424705919374"><ele>16.5</ele><time>2026-04-10T07:44:48.002Z</time></trkpt><trkpt lat="14.646409066883862" lon="121.10427616008178"><ele>16.666666666666668</ele><time>2026-04-10T07:44:49.002Z</time></trkpt><trkpt lat="14.64646720589159" lon="121.10432147450155"><ele>16.833333333333336</ele><time>2026-04-10T07:44:50.002Z</time></trkpt><trkpt lat="14.646531964872572" lon="121.10435324066366"><ele>17.0</ele><time>2026-04-10T07:44:51.002Z</time></trkpt><trkpt lat="14.646664000729814" lon="121.10441755012698"><ele>17.0</ele><time>2026-04-10T07:44:53.002Z</time></trkpt><trkpt lat="14.646740153066993" lon="121.10445446030187"><ele>17.0</ele><time>2026-04-10T07:44:54.002Z</time></trkpt><trkpt lat="14.646827538963162" lon="121.10449681526296"><ele>17.0</ele><time>2026-04-10T07:44:55.002Z</time></trkpt><trkpt lat="14.646905714425971" lon="121.10453470603376"><ele>17.0</ele><time>2026-04-10T07:44:56.002Z</time></trkpt><trkpt lat="14.646995902556398" lon="121.10457845427236"><ele>17.0</ele><time>2026-04-10T07:44:57Z</time></trkpt><trkpt lat="14.647087150044015" lon="121.10460642468847"><ele>17.0</ele><time>2026-04-10T07:44:58Z</time></trkpt><trkpt lat="14.647159874875014" lon="121.10464106803879"><ele>17.0</ele><time>2026-04-10T07:44:59Z</time></trkpt><trkpt lat="14.64722217808634" lon="121.10467874080555"><ele>17.0</ele><time>2026-04-10T07:45:00Z</time></trkpt><trkpt lat="14.647285822335455" lon="121.10470416999154"><ele>17.0</ele><time>2026-04-10T07:45:01Z</time></trkpt><trkpt lat="14.647348286284863" lon="121.10475028674897"><ele>17.0</ele><time>2026-04-10T07:45:02Z</time></trkpt><trkpt lat="14.647422850622446" lon="121.10478657452276"><ele>17.0</ele><time>2026-04-10T07:45:03Z</time></trkpt><trkpt lat="14.647502858371583" lon="121.10482547544841"><ele>17.0</ele><time>2026-04-10T07:45:04Z</time></trkpt><trkpt lat="14.647586480158456" lon="121.10486613357548"><ele>17.0</ele><time>2026-04-10T07:45:05Z</time></trkpt><trkpt lat="14.647671288660153" lon="121.10490736869843"><ele>17.0</ele><time>2026-04-10T07:45:06Z</time></trkpt><trkpt lat="14.64775570367673" lon="121.10494841250609"><ele>17.0</ele><time>2026-04-10T07:45:07Z</time></trkpt><trkpt lat="14.647833209657986" lon="121.10498609703976"><ele>17.0</ele><time>2026-04-10T07:45:08Z</time></trkpt><trkpt lat="14.647898233692683" lon="121.10501771266432"><ele>17.0</ele><time>2026-04-10T07:45:09Z</time></trkpt><trkpt lat="14.647956855453335" lon="121.10504621541709"><ele>17.166666666666668</ele><time>2026-04-10T07:45:10Z</time></trkpt><trkpt lat="14.648038689477296" lon="121.10507198797754"><ele>17.333333333333336</ele><time>2026-04-10T07:45:12Z</time></trkpt><trkpt lat="14.648091868149661" lon="121.10511186054781"><ele>17.5</ele><time>2026-04-10T07:45:16Z</time></trkpt><trkpt lat="14.648190679888327" lon="121.1051482941729"><ele>17.666666666666668</ele><time>2026-04-10T07:45:18.001Z</time></trkpt><trkpt lat="14.64825792540685" lon="121.10518016367979"><ele>17.833333333333332</ele><time>2026-04-10T07:45:19.001Z</time></trkpt><trkpt lat="14.64833505956353" lon="121.10521191801685"><ele>18.0</ele><time>2026-04-10T07:45:20.001Z</time></trkpt><trkpt lat="14.648416973229082" lon="121.105252935663"><ele>18.0</ele><time>2026-04-10T07:45:21.001Z</time></trkpt><trkpt lat="14.648509723496886" lon="121.10530718234953"><ele>18.0</ele><time>2026-04-10T07:45:22.001Z</time></trkpt><trkpt lat="14.648603603577175" lon="121.10535277339234"><ele>18.0</ele><time>2026-04-10T07:45:23.001Z</time></trkpt><trkpt lat="14.648703146760484" lon="121.10539682683222"><ele>18.0</ele><time>2026-04-10T07:45:24.001Z</time></trkpt><trkpt lat="14.648793245476638" lon="121.10544148683817"><ele>18.0</ele><time>2026-04-10T07:45:25.001Z</time></trkpt><trkpt lat="14.648880034933823" lon="121.10548053157177"><ele>17.833333333333332</ele><time>2026-04-10T07:45:26.001Z</time></trkpt><trkpt lat="14.648953403498266" lon="121.10551510709116"><ele>17.666666666666668</ele><time>2026-04-10T07:45:27.001Z</time></trkpt><trkpt lat="14.649059927262865" lon="121.10554785962344"><ele>17.5</ele><time>2026-04-10T07:45:29.001Z</time></trkpt><trkpt lat="14.649117746693653" lon="121.1055780846711"><ele>17.333333333333336</ele><time>2026-04-10T07:45:31.001Z</time></trkpt><trkpt lat="14.64918120694556" lon="121.1056179096393"><ele>17.166666666666668</ele><time>2026-04-10T07:45:34.001Z</time></trkpt><trkpt lat="14.649278588975545" lon="121.10566139115453"><ele>17.0</ele><time>2026-04-10T07:45:36.001Z</time></trkpt><trkpt lat="14.649357560746306" lon="121.10569982414341"><ele>17.0</ele><time>2026-04-10T07:45:37.001Z</time></trkpt><trkpt lat="14.64943300373182" lon="121.10573675998714"><ele>17.0</ele><time>2026-04-10T07:45:38.001Z</time></trkpt><trkpt lat="14.64951430033053" lon="121.10577217142874"><ele>17.0</ele><time>2026-04-10T07:45:39.001Z</time></trkpt><trkpt lat="14.649592385140911" lon="121.10581000453583"><ele>17.0</ele><time>2026-04-10T07:45:40.001Z</time></trkpt><trkpt lat="14.649675076787936" lon="121.10585353060117"><ele>17.0</ele><time>2026-04-10T07:45:41.001Z</time></trkpt><trkpt lat="14.649756532829802" lon="121.1059114927793"><ele>17.0</ele><time>2026-04-10T07:45:42.001Z</time></trkpt><trkpt lat="14.649846415129772" lon="121.10594966592345"><ele>17.0</ele><time>2026-04-10T07:45:43.001Z</time></trkpt><trkpt lat="14.64994011328164" lon="121.10598940932397"><ele>17.0</ele><time>2026-04-10T07:45:44.001Z</time></trkpt><trkpt lat="14.650032748286034" lon="121.10602870177628"><ele>17.0</ele><time>2026-04-10T07:45:45.001Z</time></trkpt><trkpt lat="14.650119133135883" lon="121.10606534313449"><ele>17.0</ele><time>2026-04-10T07:45:46.001Z</time></trkpt><trkpt lat="14.650204383399553" lon="121.1061015032474"><ele>17.0</ele><time>2026-04-10T07:45:47.001Z</time></trkpt><trkpt lat="14.65028471526796" lon="121.10613557714822"><ele>17.0</ele><time>2026-04-10T07:45:48.001Z</time></trkpt><trkpt lat="14.650362801299813" lon="121.10615109479821"><ele>17.0</ele><time>2026-04-10T07:45:49.001Z</time></trkpt><trkpt lat="14.650424421598762" lon="121.10618483025794"><ele>17.0</ele><time>2026-04-10T07:45:50.001Z</time></trkpt><trkpt lat="14.650522528463693" lon="121.10622640753682"><ele>17.0</ele><time>2026-04-10T07:45:52.001Z</time></trkpt><trkpt lat="14.650583980663901" lon="121.10625404163707"><ele>17.0</ele><time>2026-04-10T07:45:55.001Z</time></trkpt><trkpt lat="14.65066088424953" lon="121.10614511639922"><ele>17.0</ele><time>2026-04-10T07:46:02.001Z</time></trkpt><trkpt lat="14.650678495979095" lon="121.10606510014372"><ele>17.0</ele><time>2026-04-10T07:46:05.001Z</time></trkpt><trkpt lat="14.650671353908256" lon="121.10600038207913"><ele>17.0</ele><time>2026-04-10T07:46:07.001Z</time></trkpt><trkpt lat="14.65067596308938" lon="121.10591685098879"><ele>17.0</ele><time>2026-04-10T07:46:09.001Z</time></trkpt><trkpt lat="14.650703155801839" lon="121.10580052804276"><ele>17.0</ele><time>2026-04-10T07:46:11.001Z</time></trkpt><trkpt lat="14.65070540020342" lon="121.1057155518149"><ele>17.0</ele><time>2026-04-10T07:46:12.001Z</time></trkpt><trkpt lat="14.650718535612832" lon="121.10563257680009"><ele>16.999999999999996</ele><time>2026-04-10T07:46:13.001Z</time></trkpt><trkpt lat="14.650736193398938" lon="121.10556229589484"><ele>17.0</ele><time>2026-04-10T07:46:14.001Z</time></trkpt><trkpt lat="14.650754279688561" lon="121.10549665834736"><ele>17.0</ele><time>2026-04-10T07:46:15.001Z</time></trkpt><trkpt lat="14.650776596709774" lon="121.1054294584158"><ele>17.0</ele><time>2026-04-10T07:46:16.001Z</time></trkpt><trkpt lat="14.650798951091502" lon="121.10536721423843"><ele>17.0</ele><time>2026-04-10T07:46:17.001Z</time></trkpt><trkpt lat="14.650823130811913" lon="121.10527338798616"><ele>16.999999999999996</ele><time>2026-04-10T07:46:19.001Z</time></trkpt><trkpt lat="14.650837387361452" lon="121.10519777056093"><ele>17.0</ele><time>2026-04-10T07:46:22.002Z</time></trkpt><trkpt lat="14.650864014748594" lon="121.10511882518581"><ele>17.0</ele><time>2026-04-10T07:46:24.002Z</time></trkpt><trkpt lat="14.650885312517854" lon="121.10499351860393"><ele>17.0</ele><time>2026-04-10T07:46:26.002Z</time></trkpt><trkpt lat="14.650907936795045" lon="121.10488008929882"><ele>17.0</ele><time>2026-04-10T07:46:28.002Z</time></trkpt><trkpt lat="14.650932187319013" lon="121.10480636473382"><ele>17.0</ele><time>2026-04-10T07:46:30.002Z</time></trkpt><trkpt lat="14.651046532077409" lon="121.1047725321433"><ele>17.0</ele><time>2026-04-10T07:46:33.002Z</time></trkpt><trkpt lat="14.651167804124348" lon="121.10479275755321"><ele>17.333333333333336</ele><time>2026-04-10T07:46:35.002Z</time></trkpt><trkpt lat="14.651230912102191" lon="121.10479378423553"><ele>17.666666666666668</ele><time>2026-04-10T07:46:36.002Z</time></trkpt><trkpt lat="14.651295156912889" lon="121.10479223948273"><ele>18.0</ele><time>2026-04-10T07:46:37.002Z</time></trkpt><trkpt lat="14.65135853271881" lon="121.10478822698072"><ele>18.333333333333332</ele><time>2026-04-10T07:46:38.002Z</time></trkpt><trkpt lat="14.651471814548156" lon="121.10478307556818"><ele>18.666666666666664</ele><time>2026-04-10T07:46:40.002Z</time></trkpt><trkpt lat="14.651601429715642" lon="121.10477177753744"><ele>19.0</ele><time>2026-04-10T07:46:42.002Z</time></trkpt><trkpt lat="14.651679577074072" lon="121.10476984333054"><ele>19.0</ele><time>2026-04-10T07:46:43.002Z</time></trkpt><trkpt lat="14.65176409358877" lon="121.10476811401568"><ele>19.0</ele><time>2026-04-10T07:46:44.002Z</time></trkpt><trkpt lat="14.6518570297499" lon="121.10476775697613"><ele>19.0</ele><time>2026-04-10T07:46:45.002Z</time></trkpt><trkpt lat="14.651964255181609" lon="121.10476651416887"><ele>19.0</ele><time>2026-04-10T07:46:46.002Z</time></trkpt><trkpt lat="14.65207179553028" lon="121.10477476649372"><ele>19.0</ele><time>2026-04-10T07:46:47.002Z</time></trkpt><trkpt lat="14.65218217124353" lon="121.10477939031624"><ele>18.833333333333332</ele><time>2026-04-10T07:46:48.002Z</time></trkpt><trkpt lat="14.65226982825723" lon="121.10477947196784"><ele>18.666666666666664</ele><time>2026-04-10T07:46:49.002Z</time></trkpt><trkpt lat="14.652348790022133" lon="121.10477367306447"><ele>18.5</ele><time>2026-04-10T07:46:50.002Z</time></trkpt><trkpt lat="14.65241394006492" lon="121.1047750374333"><ele>18.333333333333332</ele><time>2026-04-10T07:46:51.002Z</time></trkpt><trkpt lat="14.652512056238878" lon="121.10478327393896"><ele>18.166666666666668</ele><time>2026-04-10T07:46:53.002Z</time></trkpt><trkpt lat="14.65258195999797" lon="121.10478305002744"><ele>18.0</ele><time>2026-04-10T07:46:55.002Z</time></trkpt><trkpt lat="14.652677132559553" lon="121.10477315099098"><ele>18.0</ele><time>2026-04-10T07:46:57.002Z</time></trkpt><trkpt lat="14.652758202897012" lon="121.10479843815753"><ele>18.0</ele><time>2026-04-10T07:46:59.002Z</time></trkpt><trkpt lat="14.652829914818915" lon="121.10481014150274"><ele>18.0</ele><time>2026-04-10T07:47:01.002Z</time></trkpt><trkpt lat="14.652918275962561" lon="121.10482379362497"><ele>18.0</ele><time>2026-04-10T07:47:03.001Z</time></trkpt><trkpt lat="14.653001866263736" lon="121.10484032614737"><ele>18.0</ele><time>2026-04-10T07:47:05.001Z</time></trkpt><trkpt lat="14.653104837053116" lon="121.10486260453663"><ele>18.0</ele><time>2026-04-10T07:47:07.001Z</time></trkpt><trkpt lat="14.653219609296457" lon="121.10489900915759"><ele>18.0</ele><time>2026-04-10T07:47:09.001Z</time></trkpt><trkpt lat="14.653282716620557" lon="121.10492075783182"><ele>18.0</ele><time>2026-04-10T07:47:10.001Z</time></trkpt><trkpt lat="14.653391541378001" lon="121.1049708274294"><ele>18.0</ele><time>2026-04-10T07:47:12.001Z</time></trkpt><trkpt lat="14.65345783755493" lon="121.10499352342136"><ele>18.0</ele><time>2026-04-10T07:47:14Z</time></trkpt><trkpt lat="14.65353006803903" lon="121.1050315215001"><ele>18.0</ele><time>2026-04-10T07:47:16Z</time></trkpt><trkpt lat="14.65363258399402" lon="121.10508645069193"><ele>18.0</ele><time>2026-04-10T07:47:18Z</time></trkpt><trkpt lat="14.653734638566473" lon="121.10515217713368"><ele>18.0</ele><time>2026-04-10T07:47:20.001Z</time></trkpt><trkpt lat="14.653791293543087" lon="121.10518925216125"><ele>18.0</ele><time>2026-04-10T07:47:21.001Z</time></trkpt><trkpt lat="14.653846606981674" lon="121.10523055918209"><ele>18.0</ele><time>2026-04-10T07:47:22.001Z</time></trkpt><trkpt lat="14.653904466410806" lon="121.10526633586412"><ele>18.0</ele><time>2026-04-10T07:47:23.001Z</time></trkpt><trkpt lat="14.653967053420082" lon="121.10530015357328"><ele>18.0</ele><time>2026-04-10T07:47:31.001Z</time></trkpt><trkpt lat="14.654044128187056" lon="121.10536041401471"><ele>18.0</ele><time>2026-04-10T07:47:34.001Z</time></trkpt><trkpt lat="14.65409642201882" lon="121.10540580162748"><ele>18.0</ele><time>2026-04-10T07:47:36.001Z</time></trkpt><trkpt lat="14.654160405454615" lon="121.10546060247452"><ele>18.0</ele><time>2026-04-10T07:47:38.001Z</time></trkpt><trkpt lat="14.654234426223287" lon="121.10552331349555"><ele>18.0</ele><time>2026-04-10T07:47:40.001Z</time></trkpt><trkpt lat="14.65431916068277" lon="121.10559276442609"><ele>18.0</ele><time>2026-04-10T07:47:42.001Z</time></trkpt><trkpt lat="14.654409505751646" lon="121.10567734315387"><ele>18.166666666666668</ele><time>2026-04-10T07:47:44.001Z</time></trkpt><trkpt lat="14.654498560469738" lon="121.1057635436778"><ele>18.333333333333332</ele><time>2026-04-10T07:47:46.001Z</time></trkpt><trkpt lat="14.654545465367212" lon="121.10581061347429"><ele>18.5</ele><time>2026-04-10T07:47:47.001Z</time></trkpt><trkpt lat="14.654576776019923" lon="121.10587049864837"><ele>18.666666666666664</ele><time>2026-04-10T07:47:48.001Z</time></trkpt><trkpt lat="14.654616590615683" lon="121.10592437226029"><ele>18.833333333333332</ele><time>2026-04-10T07:47:49.001Z</time></trkpt><trkpt lat="14.654658426201415" lon="121.10598461644761"><ele>19.0</ele><time>2026-04-10T07:47:50.001Z</time></trkpt><trkpt lat="14.654709379119055" lon="121.10606080898974"><ele>19.0</ele><time>2026-04-10T07:47:51.001Z</time></trkpt><trkpt lat="14.654776126189068" lon="121.10617639342559"><ele>19.0</ele><time>2026-04-10T07:47:53.001Z</time></trkpt><trkpt lat="14.654811527310834" lon="121.10624147088686"><ele>19.0</ele><time>2026-04-10T07:47:54.001Z</time></trkpt><trkpt lat="14.65484658075564" lon="121.1063067913606"><ele>19.0</ele><time>2026-04-10T07:47:55.001Z</time></trkpt><trkpt lat="14.65488230377126" lon="121.10637335955566"><ele>19.0</ele><time>2026-04-10T07:47:56.001Z</time></trkpt><trkpt lat="14.654937096784543" lon="121.10647544499986"><ele>18.599999999999998</ele><time>2026-04-10T07:47:58.001Z</time></trkpt><trkpt lat="14.654994419725842" lon="121.10658222392698"><ele>18.2</ele><time>2026-04-10T07:48:00.001Z</time></trkpt><trkpt lat="14.655048889804604" lon="121.10668455394823"><ele>17.799999999999997</ele><time>2026-04-10T07:48:02.001Z</time></trkpt><trkpt lat="14.655098396248489" lon="121.10675254535484"><ele>17.4</ele><time>2026-04-10T07:48:04.001Z</time></trkpt><trkpt lat="14.655123917777335" lon="121.10683409147657"><ele>17.0</ele><time>2026-04-10T07:48:06.001Z</time></trkpt><trkpt lat="14.655187600279291" lon="121.10693148449967"><ele>17.0</ele><time>2026-04-10T07:48:08.001Z</time></trkpt><trkpt lat="14.65521818113227" lon="121.10699294403304"><ele>17.0</ele><time>2026-04-10T07:48:09.001Z</time></trkpt><trkpt lat="14.655250660304848" lon="121.10705660667738"><ele>17.0</ele><time>2026-04-10T07:48:10.001Z</time></trkpt><trkpt lat="14.655300713978558" lon="121.10715939590459"><ele>17.0</ele><time>2026-04-10T07:48:12.001Z</time></trkpt><trkpt lat="14.655322241266928" lon="121.10723032713067"><ele>17.0</ele><time>2026-04-10T07:48:14.001Z</time></trkpt><trkpt lat="14.655446536754635" lon="121.1072010456937"><ele>17.0</ele><time>2026-04-10T07:48:16.001Z</time></trkpt><trkpt lat="14.655541140942477" lon="121.10718342884999"><ele>17.166666666666668</ele><time>2026-04-10T07:48:18.001Z</time></trkpt><trkpt lat="14.655647334008748" lon="121.10717656697881"><ele>17.333333333333336</ele><time>2026-04-10T07:48:20.001Z</time></trkpt><trkpt lat="14.655740590752293" lon="121.10716317061852"><ele>17.5</ele><time>2026-04-10T07:48:22.001Z</time></trkpt><trkpt lat="14.655803877425091" lon="121.10716671261821"><ele>17.666666666666668</ele><time>2026-04-10T07:48:24.001Z</time></trkpt><trkpt lat="14.655874727867184" lon="121.10715861313837"><ele>17.833333333333332</ele><time>2026-04-10T07:48:26.001Z</time></trkpt><trkpt lat="14.65598401537932" lon="121.10714473290443"><ele>18.0</ele><time>2026-04-10T07:48:28.002Z</time></trkpt><trkpt lat="14.656049843712402" lon="121.10713637241886"><ele>18.0</ele><time>2026-04-10T07:48:29.002Z</time></trkpt><trkpt lat="14.65611539976431" lon="121.10712804651217"><ele>18.0</ele><time>2026-04-10T07:48:30.002Z</time></trkpt><trkpt lat="14.656182590001865" lon="121.10711951305721"><ele>18.0</ele><time>2026-04-10T07:48:31.002Z</time></trkpt><trkpt lat="14.656248834620072" lon="121.10709931592412"><ele>18.0</ele><time>2026-04-10T07:48:32.002Z</time></trkpt><trkpt lat="14.656348265294536" lon="121.1070888036793"><ele>18.0</ele><time>2026-04-10T07:48:34.002Z</time></trkpt><trkpt lat="14.656425476609744" lon="121.10707794192462"><ele>18.0</ele><time>2026-04-10T07:48:36.002Z</time></trkpt><trkpt lat="14.656504555101847" lon="121.10706509484474"><ele>18.0</ele><time>2026-04-10T07:48:38.002Z</time></trkpt><trkpt lat="14.656604072570145" lon="121.10705514469436"><ele>18.0</ele><time>2026-04-10T07:48:40.002Z</time></trkpt><trkpt lat="14.65672465193908" lon="121.10704326778654"><ele>18.0</ele><time>2026-04-10T07:48:42.002Z</time></trkpt><trkpt lat="14.656844138591554" lon="121.10703095272765"><ele>18.0</ele><time>2026-04-10T07:48:44.002Z</time></trkpt><trkpt lat="14.656954885717623" lon="121.10701656698474"><ele>18.166666666666668</ele><time>2026-04-10T07:48:46.002Z</time></trkpt><trkpt lat="14.657018065296015" lon="121.10701651765113"><ele>18.333333333333332</ele><time>2026-04-10T07:48:49.002Z</time></trkpt><trkpt lat="14.657058770001312" lon="121.10707976061119"><ele>18.5</ele><time>2026-04-10T07:48:52.002Z</time></trkpt><trkpt lat="14.657077810373414" lon="121.10716335754422"><ele>18.666666666666664</ele><time>2026-04-10T07:48:54.002Z</time></trkpt><trkpt lat="14.65706338856522" lon="121.10723375666701"><ele>18.833333333333332</ele><time>2026-04-10T07:49:01.002Z</time></trkpt><trkpt lat="14.65709393425854" lon="121.10714758957343"><ele>19.0</ele><time>2026-04-10T07:53:33Z</time></trkpt><trkpt lat="14.657061745933493" lon="121.10705312018678"><ele>19.0</ele><time>2026-04-10T07:53:35Z</time></trkpt><trkpt lat="14.657032425642397" lon="121.10694853986121"><ele>19.0</ele><time>2026-04-10T07:53:37Z</time></trkpt><trkpt lat="14.657007984934255" lon="121.10685987680546"><ele>19.0</ele><time>2026-04-10T07:53:39Z</time></trkpt><trkpt lat="14.656974319993047" lon="121.10676954298398"><ele>19.0</ele><time>2026-04-10T07:53:41Z</time></trkpt><trkpt lat="14.656924013095715" lon="121.10671406987318"><ele>19.0</ele><time>2026-04-10T07:53:43Z</time></trkpt><trkpt lat="14.6568147628617" lon="121.10668391103016"><ele>18.8</ele><time>2026-04-10T07:53:45Z</time></trkpt><trkpt lat="14.656719427858905" lon="121.10661379733466"><ele>18.599999999999998</ele><time>2026-04-10T07:53:47Z</time></trkpt><trkpt lat="14.656615836333858" lon="121.10657110975794"><ele>18.4</ele><time>2026-04-10T07:53:49Z</time></trkpt><trkpt lat="14.656552414375904" lon="121.1064814185352"><ele>18.2</ele><time>2026-04-10T07:53:51Z</time></trkpt><trkpt lat="14.656541091653564" lon="121.1064042825558"><ele>18.0</ele><time>2026-04-10T07:53:52.001Z</time></trkpt><trkpt lat="14.656517453665272" lon="121.10633822174684"><ele>18.0</ele><time>2026-04-10T07:53:53.001Z</time></trkpt><trkpt lat="14.6564991298753" lon="121.10627398107204"><ele>18.0</ele><time>2026-04-10T07:53:54.001Z</time></trkpt><trkpt lat="14.656478473098424" lon="121.10620993923675"><ele>18.0</ele><time>2026-04-10T07:53:55.001Z</time></trkpt><trkpt lat="14.656452465729673" lon="121.10609731673453"><ele>18.0</ele><time>2026-04-10T07:53:57.001Z</time></trkpt><trkpt lat="14.656433652636563" lon="121.10598138011507"><ele>18.0</ele><time>2026-04-10T07:53:59.001Z</time></trkpt><trkpt lat="14.656422214853082" lon="121.10589115996858"><ele>18.0</ele><time>2026-04-10T07:54:01.001Z</time></trkpt><trkpt lat="14.656409206564012" lon="121.1057937701201"><ele>17.8</ele><time>2026-04-10T07:54:03.001Z</time></trkpt><trkpt lat="14.656416111287198" lon="121.10567081774055"><ele>17.6</ele><time>2026-04-10T07:54:05.001Z</time></trkpt><trkpt lat="14.656393686321529" lon="121.10554734411335"><ele>17.4</ele><time>2026-04-10T07:54:07.001Z</time></trkpt><trkpt lat="14.656379864228196" lon="121.10543200880129"><ele>17.2</ele><time>2026-04-10T07:54:09.001Z</time></trkpt><trkpt lat="14.656383494079673" lon="121.10533874982649"><ele>17.0</ele><time>2026-04-10T07:54:11.001Z</time></trkpt><trkpt lat="14.65635309685706" lon="121.10524266488767"><ele>17.0</ele><time>2026-04-10T07:54:13.001Z</time></trkpt><trkpt lat="14.656334897738503" lon="121.10513054455498"><ele>17.0</ele><time>2026-04-10T07:54:15.001Z</time></trkpt><trkpt lat="14.656306097819177" lon="121.10501758360903"><ele>17.0</ele><time>2026-04-10T07:54:17.001Z</time></trkpt><trkpt lat="14.656273830769695" lon="121.10489904875351"><ele>17.0</ele><time>2026-04-10T07:54:19.001Z</time></trkpt><trkpt lat="14.656246724640427" lon="121.10479293243029"><ele>17.0</ele><time>2026-04-10T07:54:21.001Z</time></trkpt><trkpt lat="14.656238299717133" lon="121.10471639629382"><ele>17.0</ele><time>2026-04-10T07:54:23.001Z</time></trkpt><trkpt lat="14.65622147422198" lon="121.10464224875926"><ele>17.0</ele><time>2026-04-10T07:54:25.001Z</time></trkpt><trkpt lat="14.656204337022904" lon="121.10456711050638"><ele>17.0</ele><time>2026-04-10T07:54:27.001Z</time></trkpt><trkpt lat="14.65618112446018" lon="121.10448581136046"><ele>17.0</ele><time>2026-04-10T07:54:29.001Z</time></trkpt><trkpt lat="14.656147764509612" lon="121.10439051260018"><ele>17.0</ele><time>2026-04-10T07:54:31.001Z</time></trkpt><trkpt lat="14.656114516757645" lon="121.10428801960872"><ele>17.0</ele><time>2026-04-10T07:54:33.001Z</time></trkpt><trkpt lat="14.656088279627577" lon="121.10419902336548"><ele>16.833333333333336</ele><time>2026-04-10T07:54:35.001Z</time></trkpt><trkpt lat="14.656070257606503" lon="121.10413475352154"><ele>16.666666666666668</ele><time>2026-04-10T07:54:37.001Z</time></trkpt><trkpt lat="14.656046368292749" lon="121.10406473309511"><ele>16.5</ele><time>2026-04-10T07:54:40.001Z</time></trkpt><trkpt lat="14.656019127346802" lon="121.10399314100042"><ele>16.333333333333332</ele><time>2026-04-10T07:54:42.001Z</time></trkpt><trkpt lat="14.655981757497146" lon="121.10390211119531"><ele>16.166666666666664</ele><time>2026-04-10T07:54:44.001Z</time></trkpt><trkpt lat="14.65595225642142" lon="121.10380266421441"><ele>16.0</ele><time>2026-04-10T07:54:46.001Z</time></trkpt><trkpt lat="14.655928018293405" lon="121.1037120932341"><ele>15.999999999999998</ele><time>2026-04-10T07:54:48.001Z</time></trkpt><trkpt lat="14.655902692949343" lon="121.1036200263127"><ele>16.0</ele><time>2026-04-10T07:54:50.001Z</time></trkpt><trkpt lat="14.655896153925237" lon="121.10354890659143"><ele>16.0</ele><time>2026-04-10T07:54:52.001Z</time></trkpt><trkpt lat="14.655908170682642" lon="121.10347074452913"><ele>16.0</ele><time>2026-04-10T07:54:55.001Z</time></trkpt><trkpt lat="14.656000115375726" lon="121.1034618048825"><ele>15.999999999999998</ele><time>2026-04-10T07:54:58.002Z</time></trkpt><trkpt lat="14.65607803907552" lon="121.10346446228681"><ele>16.0</ele><time>2026-04-10T07:54:59.002Z</time></trkpt><trkpt lat="14.656152594715083" lon="121.10348002598019"><ele>16.0</ele><time>2026-04-10T07:55:00.002Z</time></trkpt><trkpt lat="14.656236947634325" lon="121.10349336431617"><ele>16.0</ele><time>2026-04-10T07:55:01.002Z</time></trkpt><trkpt lat="14.656326845488318" lon="121.10350717697595"><ele>16.0</ele><time>2026-04-10T07:55:02.002Z</time></trkpt><trkpt lat="14.656422149467808" lon="121.10352112174621"><ele>16.0</ele><time>2026-04-10T07:55:03.002Z</time></trkpt><trkpt lat="14.656521940340193" lon="121.10353719870098"><ele>16.0</ele><time>2026-04-10T07:55:04.002Z</time></trkpt><trkpt lat="14.656625460475222" lon="121.10355517441916"><ele>16.0</ele><time>2026-04-10T07:55:05.002Z</time></trkpt><trkpt lat="14.656736058054696" lon="121.10357198858087"><ele>16.0</ele><time>2026-04-10T07:55:06.002Z</time></trkpt><trkpt lat="14.656850575785585" lon="121.10358941071047"><ele>16.0</ele><time>2026-04-10T07:55:07.002Z</time></trkpt><trkpt lat="14.656965355451607" lon="121.10360715221184"><ele>16.0</ele><time>2026-04-10T07:55:08.002Z</time></trkpt><trkpt lat="14.657075245460383" lon="121.1036236558896"><ele>16.0</ele><time>2026-04-10T07:55:09.002Z</time></trkpt><trkpt lat="14.65717833681957" lon="121.10364194210298"><ele>16.0</ele><time>2026-04-10T07:55:10.002Z</time></trkpt><trkpt lat="14.65727032088913" lon="121.10365947939073"><ele>16.0</ele><time>2026-04-10T07:55:11.002Z</time></trkpt><trkpt lat="14.657349342173047" lon="121.10367474655042"><ele>16.0</ele><time>2026-04-10T07:55:12.002Z</time></trkpt><trkpt lat="14.657415653546039" lon="121.10368687616294"><ele>16.0</ele><time>2026-04-10T07:55:13.002Z</time></trkpt><trkpt lat="14.657519977448157" lon="121.10371258624825"><ele>15.999999999999998</ele><time>2026-04-10T07:55:15.002Z</time></trkpt><trkpt lat="14.657596765918745" lon="121.10374622534196"><ele>16.0</ele><time>2026-04-10T07:55:18.002Z</time></trkpt><trkpt lat="14.657662653921193" lon="121.10377471836348"><ele>16.0</ele><time>2026-04-10T07:55:20.002Z</time></trkpt><trkpt lat="14.65771987526373" lon="121.10380198656001"><ele>16.0</ele><time>2026-04-10T07:55:22.002Z</time></trkpt><trkpt lat="14.65780867128631" lon="121.1038426185514"><ele>15.999999999999998</ele><time>2026-04-10T07:55:24.002Z</time></trkpt><trkpt lat="14.657909456282212" lon="121.10389053590625"><ele>16.0</ele><time>2026-04-10T07:55:26Z</time></trkpt><trkpt lat="14.657969366887734" lon="121.10391945309729"><ele>16.0</ele><time>2026-04-10T07:55:27Z</time></trkpt><trkpt lat="14.658040598886133" lon="121.10395181787317"><ele>16.0</ele><time>2026-04-10T07:55:28Z</time></trkpt><trkpt lat="14.658131209213101" lon="121.10398008716564"><ele>16.0</ele><time>2026-04-10T07:55:29Z</time></trkpt><trkpt lat="14.658251706798293" lon="121.10405463920546"><ele>16.0</ele><time>2026-04-10T07:55:31Z</time></trkpt><trkpt lat="14.658348276914454" lon="121.1041023328413"><ele>16.0</ele><time>2026-04-10T07:55:32Z</time></trkpt><trkpt lat="14.658442334003858" lon="121.10415176578478"><ele>16.0</ele><time>2026-04-10T07:55:33Z</time></trkpt><trkpt lat="14.658549506229173" lon="121.10419913288483"><ele>16.0</ele><time>2026-04-10T07:55:34Z</time></trkpt><trkpt lat="14.658651210800413" lon="121.10424905601917"><ele>16.0</ele><time>2026-04-10T07:55:35Z</time></trkpt><trkpt lat="14.658742999962694" lon="121.1042975548147"><ele>16.0</ele><time>2026-04-10T07:55:36Z</time></trkpt><trkpt lat="14.658833493473171" lon="121.10434041415644"><ele>16.0</ele><time>2026-04-10T07:55:37Z</time></trkpt><trkpt lat="14.658926662995373" lon="121.10438610708187"><ele>16.5</ele><time>2026-04-10T07:55:38Z</time></trkpt><trkpt lat="14.659024691356636" lon="121.10443231221258"><ele>17.0</ele><time>2026-04-10T07:55:39Z</time></trkpt><trkpt lat="14.659127853454608" lon="121.10448311873076"><ele>17.5</ele><time>2026-04-10T07:55:40Z</time></trkpt><trkpt lat="14.659239702115434" lon="121.1045357632533"><ele>18.0</ele><time>2026-04-10T07:55:41Z</time></trkpt><trkpt lat="14.659353611860539" lon="121.10458743011345"><ele>18.25</ele><time>2026-04-10T07:55:42Z</time></trkpt><trkpt lat="14.659470266884508" lon="121.10464105465056"><ele>18.5</ele><time>2026-04-10T07:55:43Z</time></trkpt><trkpt lat="14.65959383552474" lon="121.104695318804"><ele>18.75</ele><time>2026-04-10T07:55:44Z</time></trkpt><trkpt lat="14.659725990783276" lon="121.10474202284455"><ele>19.0</ele><time>2026-04-10T07:55:45Z</time></trkpt><trkpt lat="14.659849964666853" lon="121.10480159115308"><ele>19.0</ele><time>2026-04-10T07:55:46Z</time></trkpt><trkpt lat="14.659967597847663" lon="121.10484808526536"><ele>19.0</ele><time>2026-04-10T07:55:47Z</time></trkpt><trkpt lat="14.6600895929469" lon="121.10490052026775"><ele>19.0</ele><time>2026-04-10T07:55:48Z</time></trkpt><trkpt lat="14.660215271417654" lon="121.10495657432095"><ele>19.0</ele><time>2026-04-10T07:55:49Z</time></trkpt><trkpt lat="14.66034396024396" lon="121.10502088089846"><ele>18.5</ele><time>2026-04-10T07:55:50Z</time></trkpt><trkpt lat="14.660472897444317" lon="121.10508716605324"><ele>18.0</ele><time>2026-04-10T07:55:51Z</time></trkpt><trkpt lat="14.660602830919942" lon="121.10514297364656"><ele>17.5</ele><time>2026-04-10T07:55:52Z</time></trkpt><trkpt lat="14.660728109043406" lon="121.10519808455288"><ele>17.0</ele><time>2026-04-10T07:55:53Z</time></trkpt><trkpt lat="14.660854670699901" lon="121.10525627619829"><ele>17.0</ele><time>2026-04-10T07:55:54Z</time></trkpt><trkpt lat="14.660980628505536" lon="121.10531938227373"><ele>17.0</ele><time>2026-04-10T07:55:55Z</time></trkpt><trkpt lat="14.661108571436408" lon="121.10538237245935"><ele>17.0</ele><time>2026-04-10T07:55:56Z</time></trkpt><trkpt lat="14.661240247603134" lon="121.10544528191338"><ele>17.0</ele><time>2026-04-10T07:55:57Z</time></trkpt><trkpt lat="14.661372577960941" lon="121.1055052549834"><ele>17.25</ele><time>2026-04-10T07:55:58Z</time></trkpt><trkpt lat="14.661503200134524" lon="121.1055679617088"><ele>17.5</ele><time>2026-04-10T07:55:59Z</time></trkpt><trkpt lat="14.661633521384724" lon="121.10562921792466"><ele>17.75</ele><time>2026-04-10T07:56:00Z</time></trkpt><trkpt lat="14.661769374458313" lon="121.10569614939452"><ele>18.0</ele><time>2026-04-10T07:56:01Z</time></trkpt><trkpt lat="14.661899420354953" lon="121.10575561606508"><ele>18.0</ele><time>2026-04-10T07:56:02Z</time></trkpt><trkpt lat="14.66202511149138" lon="121.1058138813023"><ele>18.0</ele><time>2026-04-10T07:56:03Z</time></trkpt><trkpt lat="14.662138766902803" lon="121.1058695050744"><ele>18.0</ele><time>2026-04-10T07:56:04Z</time></trkpt><trkpt lat="14.662252085372922" lon="121.1059247834176"><ele>18.0</ele><time>2026-04-10T07:56:05Z</time></trkpt><trkpt lat="14.662361224855644" lon="121.10597709061527"><ele>18.0</ele><time>2026-04-10T07:56:06Z</time></trkpt><trkpt lat="14.662468899815783" lon="121.10602600723608"><ele>18.0</ele><time>2026-04-10T07:56:07Z</time></trkpt><trkpt lat="14.662567895082342" lon="121.10607125655605"><ele>18.0</ele><time>2026-04-10T07:56:08Z</time></trkpt><trkpt lat="14.662665211974833" lon="121.10610956188265"><ele>18.0</ele><time>2026-04-10T07:56:09Z</time></trkpt><trkpt lat="14.662758976417171" lon="121.10614250755586"><ele>18.0</ele><time>2026-04-10T07:56:10Z</time></trkpt><trkpt lat="14.662845554721951" lon="121.10616740126835"><ele>18.0</ele><time>2026-04-10T07:56:11Z</time></trkpt><trkpt lat="14.66292421377733" lon="121.10619433818407"><ele>18.0</ele><time>2026-04-10T07:56:12Z</time></trkpt><trkpt lat="14.662991133703438" lon="121.10621911669553"><ele>18.0</ele><time>2026-04-10T07:56:13Z</time></trkpt><trkpt lat="14.663116683158556" lon="121.10625841960423"><ele>18.0</ele><time>2026-04-10T07:56:15.001Z</time></trkpt><trkpt lat="14.663195086148848" lon="121.10628324538038"><ele>18.0</ele><time>2026-04-10T07:56:16.001Z</time></trkpt><trkpt lat="14.663276679777006" lon="121.10631048128951"><ele>18.0</ele><time>2026-04-10T07:56:17.001Z</time></trkpt><trkpt lat="14.663372775138386" lon="121.10633758803152"><ele>18.0</ele><time>2026-04-10T07:56:18.001Z</time></trkpt><trkpt lat="14.663459807474082" lon="121.10636592243218"><ele>18.0</ele><time>2026-04-10T07:56:19.001Z</time></trkpt><trkpt lat="14.663552142358231" lon="121.10640017078616"><ele>18.0</ele><time>2026-04-10T07:56:20.001Z</time></trkpt><trkpt lat="14.66362647720577" lon="121.10642625025135"><ele>18.0</ele><time>2026-04-10T07:56:21.001Z</time></trkpt><trkpt lat="14.66370188371649" lon="121.10645650313208"><ele>18.0</ele><time>2026-04-10T07:56:22.001Z</time></trkpt><trkpt lat="14.663763336432211" lon="121.10648083170408"><ele>18.0</ele><time>2026-04-10T07:56:23.001Z</time></trkpt><trkpt lat="14.663827504113716" lon="121.10649918964012"><ele>18.0</ele><time>2026-04-10T07:56:24.001Z</time></trkpt><trkpt lat="14.663897943895273" lon="121.10651921647593"><ele>18.0</ele><time>2026-04-10T07:56:25.001Z</time></trkpt><trkpt lat="14.663975453701664" lon="121.10654590284958"><ele>18.0</ele><time>2026-04-10T07:56:26.001Z</time></trkpt><trkpt lat="14.664061636658278" lon="121.10657186317519"><ele>18.0</ele><time>2026-04-10T07:56:27.001Z</time></trkpt><trkpt lat="14.664159129773653" lon="121.10659121558663"><ele>18.0</ele><time>2026-04-10T07:56:28.001Z</time></trkpt><trkpt lat="14.664260876614962" lon="121.10661608361144"><ele>18.25</ele><time>2026-04-10T07:56:29.001Z</time></trkpt><trkpt lat="14.664365983451562" lon="121.10664412415059"><ele>18.5</ele><time>2026-04-10T07:56:30.001Z</time></trkpt><trkpt lat="14.664479438353638" lon="121.1066810445422"><ele>18.75</ele><time>2026-04-10T07:56:31.001Z</time></trkpt><trkpt lat="14.66459401278494" lon="121.10671755898917"><ele>19.0</ele><time>2026-04-10T07:56:32.001Z</time></trkpt><trkpt lat="14.66470907165759" lon="121.10675119286041"><ele>18.5</ele><time>2026-04-10T07:56:33.001Z</time></trkpt><trkpt lat="14.664830075334672" lon="121.10678803980942"><ele>18.0</ele><time>2026-04-10T07:56:34.001Z</time></trkpt><trkpt lat="14.664950468771526" lon="121.10682669260163"><ele>17.5</ele><time>2026-04-10T07:56:35.001Z</time></trkpt><trkpt lat="14.665076665795972" lon="121.10686949984435"><ele>17.0</ele><time>2026-04-10T07:56:36.001Z</time></trkpt><trkpt lat="14.665201700115102" lon="121.10690998328455"><ele>17.75</ele><time>2026-04-10T07:56:37.001Z</time></trkpt><trkpt lat="14.665331777813513" lon="121.10694881748613"><ele>18.5</ele><time>2026-04-10T07:56:38.001Z</time></trkpt><trkpt lat="14.66545828697901" lon="121.10699053397218"><ele>19.25</ele><time>2026-04-10T07:56:39.001Z</time></trkpt><trkpt lat="14.665584381436325" lon="121.10703286136498"><ele>20.0</ele><time>2026-04-10T07:56:40.001Z</time></trkpt><trkpt lat="14.665711575136472" lon="121.10706779230011"><ele>20.0</ele><time>2026-04-10T07:56:41.001Z</time></trkpt><trkpt lat="14.665826431049895" lon="121.10710207558755"><ele>20.0</ele><time>2026-04-10T07:56:42.001Z</time></trkpt><trkpt lat="14.665939553862774" lon="121.10713825818667"><ele>20.0</ele><time>2026-04-10T07:56:43.001Z</time></trkpt><trkpt lat="14.666052326446213" lon="121.10717533554289"><ele>20.0</ele><time>2026-04-10T07:56:44.001Z</time></trkpt><trkpt lat="14.666160071804267" lon="121.1072061668303"><ele>19.6</ele><time>2026-04-10T07:56:45.001Z</time></trkpt><trkpt lat="14.66627502296599" lon="121.10724024196308"><ele>19.2</ele><time>2026-04-10T07:56:46.001Z</time></trkpt><trkpt lat="14.666375650266357" lon="121.10727121834006"><ele>18.8</ele><time>2026-04-10T07:56:47.001Z</time></trkpt><trkpt lat="14.666477352534658" lon="121.10730097267518"><ele>18.4</ele><time>2026-04-10T07:56:48.001Z</time></trkpt><trkpt lat="14.66656551587886" lon="121.10732632441213"><ele>18.0</ele><time>2026-04-10T07:56:49.001Z</time></trkpt><trkpt lat="14.666634396739079" lon="121.10734951844502"><ele>18.0</ele><time>2026-04-10T07:56:50.001Z</time></trkpt><trkpt lat="14.666738100675573" lon="121.107383099057"><ele>18.0</ele><time>2026-04-10T07:56:52.001Z</time></trkpt><trkpt lat="14.666811401866676" lon="121.1074054269181"><ele>18.0</ele><time>2026-04-10T07:56:54.001Z</time></trkpt><trkpt lat="14.666882052745523" lon="121.10742894949807"><ele>18.0</ele><time>2026-04-10T07:56:56.001Z</time></trkpt><trkpt lat="14.666956090701694" lon="121.10744976482161"><ele>18.0</ele><time>2026-04-10T07:56:58.001Z</time></trkpt><trkpt lat="14.667017312696878" lon="121.10746651239431"><ele>18.0</ele><time>2026-04-10T07:57:00.001Z</time></trkpt><trkpt lat="14.667076429347057" lon="121.1075019741594"><ele>18.0</ele><time>2026-04-10T07:57:02.001Z</time></trkpt><trkpt lat="14.667154896804586" lon="121.10750907589006"><ele>18.0</ele><time>2026-04-10T07:57:04.001Z</time></trkpt><trkpt lat="14.667228064564052" lon="121.10753971000648"><ele>18.0</ele><time>2026-04-10T07:57:06.001Z</time></trkpt><trkpt lat="14.667310518864648" lon="121.10757473420026"><ele>18.0</ele><time>2026-04-10T07:57:08.001Z</time></trkpt><trkpt lat="14.66742942468292" lon="121.10761617469943"><ele>18.0</ele><time>2026-04-10T07:57:10.001Z</time></trkpt><trkpt lat="14.667507278338972" lon="121.10763413793919"><ele>18.000000000000004</ele><time>2026-04-10T07:57:11.001Z</time></trkpt><trkpt lat="14.66757962752887" lon="121.10765512238585"><ele>18.0</ele><time>2026-04-10T07:57:12.001Z</time></trkpt><trkpt lat="14.667645997579717" lon="121.10767624365839"><ele>18.0</ele><time>2026-04-10T07:57:13.001Z</time></trkpt><trkpt lat="14.667711869669628" lon="121.10769529961892"><ele>18.0</ele><time>2026-04-10T07:57:14.002Z</time></trkpt><trkpt lat="14.667780048136757" lon="121.10771783577981"><ele>18.0</ele><time>2026-04-10T07:57:15.002Z</time></trkpt><trkpt lat="14.667849876552678" lon="121.1077391619611"><ele>18.000000000000004</ele><time>2026-04-10T07:57:16.002Z</time></trkpt><trkpt lat="14.667920624381907" lon="121.10775882946882"><ele>18.0</ele><time>2026-04-10T07:57:17.002Z</time></trkpt><trkpt lat="14.667994468101005" lon="121.10778039761178"><ele>18.166666666666668</ele><time>2026-04-10T07:57:18.002Z</time></trkpt><trkpt lat="14.668069753913747" lon="121.10780557074428"><ele>18.333333333333332</ele><time>2026-04-10T07:57:19.002Z</time></trkpt><trkpt lat="14.66814732911127" lon="121.10782993952098"><ele>18.5</ele><time>2026-04-10T07:57:20.002Z</time></trkpt><trkpt lat="14.668228224585917" lon="121.10785777477602"><ele>18.666666666666664</ele><time>2026-04-10T07:57:21.002Z</time></trkpt><trkpt lat="14.66830750274127" lon="121.10788500248893"><ele>18.833333333333332</ele><time>2026-04-10T07:57:22.002Z</time></trkpt><trkpt lat="14.668387096484022" lon="121.10791624402458"><ele>19.0</ele><time>2026-04-10T07:57:23.002Z</time></trkpt><trkpt lat="14.668468479485881" lon="121.10794871284214"><ele>19.0</ele><time>2026-04-10T07:57:24.002Z</time></trkpt><trkpt lat="14.668557291394627" lon="121.10797815386925"><ele>19.0</ele><time>2026-04-10T07:57:25.002Z</time></trkpt><trkpt lat="14.668640111593477" lon="121.10800963442485"><ele>19.0</ele><time>2026-04-10T07:57:26.002Z</time></trkpt><trkpt lat="14.66873270068296" lon="121.10804001043279"><ele>19.0</ele><time>2026-04-10T07:57:27.002Z</time></trkpt><trkpt lat="14.668813907042932" lon="121.10806614105206"><ele>19.0</ele><time>2026-04-10T07:57:28.002Z</time></trkpt><trkpt lat="14.668888080534611" lon="121.10808917660579"><ele>19.0</ele><time>2026-04-10T07:57:29.002Z</time></trkpt><trkpt lat="14.668975357324571" lon="121.10811398537713"><ele>19.0</ele><time>2026-04-10T07:57:31.002Z</time></trkpt><trkpt lat="14.669045414045957" lon="121.10813518178415"><ele>19.0</ele><time>2026-04-10T07:57:33Z</time></trkpt><trkpt lat="14.66912676996232" lon="121.10815953504805"><ele>19.0</ele><time>2026-04-10T07:57:35Z</time></trkpt><trkpt lat="14.669200168304071" lon="121.10817972434737"><ele>19.0</ele><time>2026-04-10T07:57:37Z</time></trkpt><trkpt lat="14.669303506782526" lon="121.10821709180432"><ele>19.0</ele><time>2026-04-10T07:57:40Z</time></trkpt><trkpt lat="14.669428417298034" lon="121.10825392846303"><ele>19.0</ele><time>2026-04-10T07:57:42Z</time></trkpt><trkpt lat="14.669506284918759" lon="121.10827689197204"><ele>19.0</ele><time>2026-04-10T07:57:43Z</time></trkpt><trkpt lat="14.669595010952513" lon="121.10830305767503"><ele>19.0</ele><time>2026-04-10T07:57:44Z</time></trkpt><trkpt lat="14.669690213107355" lon="121.10833113318168"><ele>19.0</ele><time>2026-04-10T07:57:45Z</time></trkpt><trkpt lat="14.669794428057845" lon="121.10836159958725"><ele>19.0</ele><time>2026-04-10T07:57:46Z</time></trkpt><trkpt lat="14.66989415632359" lon="121.1083913357582"><ele>19.0</ele><time>2026-04-10T07:57:47Z</time></trkpt><trkpt lat="14.669983159175297" lon="121.10841787391061"><ele>19.0</ele><time>2026-04-10T07:57:48Z</time></trkpt><trkpt lat="14.670045532635688" lon="121.10843647227867"><ele>19.0</ele><time>2026-04-10T07:57:49Z</time></trkpt><trkpt lat="14.670136066992079" lon="121.10846346725855"><ele>19.0</ele><time>2026-04-10T07:57:59Z</time></trkpt><trkpt lat="14.670261815221963" lon="121.1085005308211"><ele>19.0</ele><time>2026-04-10T07:58:01Z</time></trkpt><trkpt lat="14.670342697363903" lon="121.10852442444492"><ele>18.599999999999998</ele><time>2026-04-10T07:58:02Z</time></trkpt><trkpt lat="14.670429992714936" lon="121.108550212612"><ele>18.2</ele><time>2026-04-10T07:58:03Z</time></trkpt><trkpt lat="14.670521004575676" lon="121.10856001079664"><ele>17.799999999999997</ele><time>2026-04-10T07:58:04Z</time></trkpt><trkpt lat="14.670596425199774" lon="121.10858628706777"><ele>17.4</ele><time>2026-04-10T07:58:05Z</time></trkpt><trkpt lat="14.67068904771873" lon="121.10861384268173"><ele>17.0</ele><time>2026-04-10T07:58:06Z</time></trkpt><trkpt lat="14.670778543022154" lon="121.1086399643551"><ele>17.0</ele><time>2026-04-10T07:58:07Z</time></trkpt><trkpt lat="14.67087100623349" lon="121.10866998830463"><ele>17.0</ele><time>2026-04-10T07:58:08Z</time></trkpt><trkpt lat="14.670962941215928" lon="121.1086995577172"><ele>17.0</ele><time>2026-04-10T07:58:09Z</time></trkpt><trkpt lat="14.671055734764286" lon="121.10872496756042"><ele>17.0</ele><time>2026-04-10T07:58:10Z</time></trkpt><trkpt lat="14.671153701216225" lon="121.10875360344005"><ele>17.0</ele><time>2026-04-10T07:58:11Z</time></trkpt><trkpt lat="14.671233045499378" lon="121.10878582750644"><ele>17.2</ele><time>2026-04-10T07:58:12Z</time></trkpt><trkpt lat="14.671337554567504" lon="121.10881402302608"><ele>17.4</ele><time>2026-04-10T07:58:13Z</time></trkpt><trkpt lat="14.671434289112776" lon="121.10884381107509"><ele>17.6</ele><time>2026-04-10T07:58:14Z</time></trkpt><trkpt lat="14.67151744766351" lon="121.10887044050287"><ele>17.8</ele><time>2026-04-10T07:58:15Z</time></trkpt><trkpt lat="14.671587405333181" lon="121.10888453579776"><ele>18.0</ele><time>2026-04-10T07:58:16Z</time></trkpt><trkpt lat="14.671688947542304" lon="121.10892240432372"><ele>18.0</ele><time>2026-04-10T07:58:18Z</time></trkpt><trkpt lat="14.671761228894672" lon="121.10894721185207"><ele>18.0</ele><time>2026-04-10T07:58:20.001Z</time></trkpt><trkpt lat="14.671843049798012" lon="121.10896910552556"><ele>18.0</ele><time>2026-04-10T07:58:22.001Z</time></trkpt><trkpt lat="14.671959998887772" lon="121.10900345752447"><ele>18.0</ele><time>2026-04-10T07:58:24.001Z</time></trkpt><trkpt lat="14.67207552402516" lon="121.1090379696451"><ele>18.0</ele><time>2026-04-10T07:58:26.001Z</time></trkpt><trkpt lat="14.672137731724304" lon="121.10905578090038"><ele>18.333333333333332</ele><time>2026-04-10T07:58:27.001Z</time></trkpt><trkpt lat="14.67220371219655" lon="121.10907868926652"><ele>18.666666666666668</ele><time>2026-04-10T07:58:28.001Z</time></trkpt><trkpt lat="14.67227239855759" lon="121.10909551036522"><ele>19.0</ele><time>2026-04-10T07:58:29.001Z</time></trkpt><trkpt lat="14.672343069874731" lon="121.1091223270889"><ele>19.333333333333336</ele><time>2026-04-10T07:58:30.001Z</time></trkpt><trkpt lat="14.672404888006168" lon="121.10914545093394"><ele>19.666666666666668</ele><time>2026-04-10T07:58:31.001Z</time></trkpt><trkpt lat="14.672513342711024" lon="121.10918139932191"><ele>20.0</ele><time>2026-04-10T07:58:33.001Z</time></trkpt><trkpt lat="14.672587972782999" lon="121.10920573464321"><ele>20.0</ele><time>2026-04-10T07:58:35.001Z</time></trkpt><trkpt lat="14.67267529073247" lon="121.10923124823559"><ele>20.0</ele><time>2026-04-10T07:58:37.001Z</time></trkpt><trkpt lat="14.672747045073288" lon="121.1092485954118"><ele>20.0</ele><time>2026-04-10T07:58:38.001Z</time></trkpt><trkpt lat="14.672824255600432" lon="121.1092681371574"><ele>20.0</ele><time>2026-04-10T07:58:39.001Z</time></trkpt><trkpt lat="14.672903589284752" lon="121.1092941100316"><ele>20.0</ele><time>2026-04-10T07:58:40.001Z</time></trkpt><trkpt lat="14.672996147707599" lon="121.10932137902147"><ele>20.0</ele><time>2026-04-10T07:58:41.001Z</time></trkpt><trkpt lat="14.673089369986087" lon="121.1093473864453"><ele>19.833333333333336</ele><time>2026-04-10T07:58:42.001Z</time></trkpt><trkpt lat="14.673173687416806" lon="121.10937131648171"><ele>19.666666666666668</ele><time>2026-04-10T07:58:43.001Z</time></trkpt><trkpt lat="14.673257811168183" lon="121.10939501085653"><ele>19.5</ele><time>2026-04-10T07:58:44.001Z</time></trkpt><trkpt lat="14.67334505399992" lon="121.10941876766248"><ele>19.333333333333332</ele><time>2026-04-10T07:58:45.001Z</time></trkpt><trkpt lat="14.673424679959812" lon="121.10944012193315"><ele>19.166666666666664</ele><time>2026-04-10T07:58:46.001Z</time></trkpt><trkpt lat="14.673500281193231" lon="121.10945934552538"><ele>19.0</ele><time>2026-04-10T07:58:47.001Z</time></trkpt><trkpt lat="14.673596136260327" lon="121.10947945402337"><ele>18.666666666666664</ele><time>2026-04-10T07:58:48.001Z</time></trkpt><trkpt lat="14.673675402733522" lon="121.109496268093"><ele>18.333333333333332</ele><time>2026-04-10T07:58:49.001Z</time></trkpt><trkpt lat="14.673759493174687" lon="121.10951282656751"><ele>18.0</ele><time>2026-04-10T07:58:50.001Z</time></trkpt><trkpt lat="14.673844948748062" lon="121.10953613824962"><ele>17.666666666666668</ele><time>2026-04-10T07:58:51.001Z</time></trkpt><trkpt lat="14.673938475513284" lon="121.10956095537043"><ele>17.333333333333336</ele><time>2026-04-10T07:58:52.001Z</time></trkpt><trkpt lat="14.674032482725833" lon="121.10958422353342"><ele>17.0</ele><time>2026-04-10T07:58:53.001Z</time></trkpt><trkpt lat="14.674096387957702" lon="121.10960155576504"><ele>17.0</ele><time>2026-04-10T07:58:54.001Z</time></trkpt><trkpt lat="14.674181408574146" lon="121.10962001302188"><ele>17.0</ele><time>2026-04-10T07:58:55.001Z</time></trkpt><trkpt lat="14.674264613336982" lon="121.10963539399094"><ele>17.0</ele><time>2026-04-10T07:58:56.001Z</time></trkpt><trkpt lat="14.674340270316069" lon="121.10965543015423"><ele>17.0</ele><time>2026-04-10T07:58:57.001Z</time></trkpt><trkpt lat="14.674434398324145" lon="121.10968741448185"><ele>17.0</ele><time>2026-04-10T07:58:59.001Z</time></trkpt><trkpt lat="14.674497460673916" lon="121.10969968988378"><ele>17.0</ele><time>2026-04-10T07:59:01.001Z</time></trkpt><trkpt lat="14.674562619574356" lon="121.10971492737734"><ele>17.166666666666668</ele><time>2026-04-10T07:59:03.001Z</time></trkpt><trkpt lat="14.674630372849183" lon="121.10973045316192"><ele>17.333333333333336</ele><time>2026-04-10T07:59:05.001Z</time></trkpt><trkpt lat="14.674711080989029" lon="121.10974770997711"><ele>17.5</ele><time>2026-04-10T07:59:07.001Z</time></trkpt><trkpt lat="14.674790651716995" lon="121.10976217638903"><ele>17.666666666666668</ele><time>2026-04-10T07:59:09.001Z</time></trkpt><trkpt lat="14.674862108338669" lon="121.1097805134385"><ele>17.833333333333332</ele><time>2026-04-10T07:59:11.001Z</time></trkpt><trkpt lat="14.67494308448378" lon="121.10980008773825"><ele>18.0</ele><time>2026-04-10T07:59:13.001Z</time></trkpt><trkpt lat="14.675008353162754" lon="121.10981720156352"><ele>18.0</ele><time>2026-04-10T07:59:15.001Z</time></trkpt><trkpt lat="14.67507518082477" lon="121.10982814085835"><ele>18.0</ele><time>2026-04-10T07:59:18.002Z</time></trkpt><trkpt lat="14.675157332523138" lon="121.10984412036963"><ele>18.0</ele><time>2026-04-10T07:59:21.002Z</time></trkpt><trkpt lat="14.675259630037836" lon="121.10987289943178"><ele>18.0</ele><time>2026-04-10T07:59:23.002Z</time></trkpt><trkpt lat="14.67532178739396" lon="121.1098926895802"><ele>18.0</ele><time>2026-04-10T07:59:24.002Z</time></trkpt><trkpt lat="14.675384605524885" lon="121.10991944655834"><ele>18.0</ele><time>2026-04-10T07:59:25.002Z</time></trkpt><trkpt lat="14.675482652074358" lon="121.10996513765556"><ele>18.333333333333332</ele><time>2026-04-10T07:59:27.002Z</time></trkpt><trkpt lat="14.67556666251637" lon="121.11002583339456"><ele>18.666666666666668</ele><time>2026-04-10T07:59:29.002Z</time></trkpt><trkpt lat="14.675653241257914" lon="121.11008947022374"><ele>19.0</ele><time>2026-04-10T07:59:31.002Z</time></trkpt><trkpt lat="14.675711094149921" lon="121.11013390306897"><ele>19.333333333333336</ele><time>2026-04-10T07:59:32.002Z</time></trkpt><trkpt lat="14.675770700111658" lon="121.11017968231803"><ele>19.666666666666668</ele><time>2026-04-10T07:59:33.002Z</time></trkpt><trkpt lat="14.675843752152344" lon="121.11023578858179"><ele>20.0</ele><time>2026-04-10T07:59:34.002Z</time></trkpt><trkpt lat="14.675917318607613" lon="121.11029228994816"><ele>20.0</ele><time>2026-04-10T07:59:35.002Z</time></trkpt><trkpt lat="14.67598732438016" lon="121.1103460565712"><ele>20.0</ele><time>2026-04-10T07:59:36.002Z</time></trkpt><trkpt lat="14.676058676243402" lon="121.11040085705592"><ele>20.0</ele><time>2026-04-10T07:59:37.002Z</time></trkpt><trkpt lat="14.676128511404306" lon="121.11045449265922"><ele>20.0</ele><time>2026-04-10T07:59:38Z</time></trkpt><trkpt lat="14.676199405694282" lon="121.11050894169779"><ele>20.0</ele><time>2026-04-10T07:59:39Z</time></trkpt><trkpt lat="14.67626936895827" lon="121.11056267566535"><ele>20.0</ele><time>2026-04-10T07:59:40Z</time></trkpt><trkpt lat="14.676348473125831" lon="121.11062278085954"><ele>19.833333333333336</ele><time>2026-04-10T07:59:41Z</time></trkpt><trkpt lat="14.67641801019187" lon="121.11067621127638"><ele>19.666666666666668</ele><time>2026-04-10T07:59:42Z</time></trkpt><trkpt lat="14.676495776314837" lon="121.11073596467492"><ele>19.5</ele><time>2026-04-10T07:59:43Z</time></trkpt><trkpt lat="14.676570125775775" lon="121.11079309257053"><ele>19.333333333333332</ele><time>2026-04-10T07:59:44Z</time></trkpt><trkpt lat="14.676636735187154" lon="121.11084418365802"><ele>19.166666666666664</ele><time>2026-04-10T07:59:45Z</time></trkpt><trkpt lat="14.676690505206345" lon="121.11088486271971"><ele>19.0</ele><time>2026-04-10T07:59:46Z</time></trkpt><trkpt lat="14.676769750312575" lon="121.11092465493098"><ele>19.0</ele><time>2026-04-10T07:59:48Z</time></trkpt><trkpt lat="14.676835908524883" lon="121.11097399508012"><ele>19.0</ele><time>2026-04-10T07:59:51Z</time></trkpt><trkpt lat="14.676896366989435" lon="121.11104276950431"><ele>19.0</ele><time>2026-04-10T07:59:53Z</time></trkpt><trkpt lat="14.67695246261448" lon="121.11108605874884"><ele>19.0</ele><time>2026-04-10T07:59:55Z</time></trkpt><trkpt lat="14.677021588280017" lon="121.11112337929097"><ele>19.0</ele><time>2026-04-10T07:59:58Z</time></trkpt><trkpt lat="14.677045879406247" lon="121.1111987133046"><ele>19.0</ele><time>2026-04-10T08:00:04Z</time></trkpt><trkpt lat="14.677128112650884" lon="121.11124376457049"><ele>19.0</ele><time>2026-04-10T08:00:08Z</time></trkpt><trkpt lat="14.67719395362353" lon="121.11126345627731"><ele>19.0</ele><time>2026-04-10T08:00:16Z</time></trkpt><trkpt lat="14.677236977265716" lon="121.11131097043366"><ele>19.0</ele><time>2026-04-10T08:00:21.001Z</time></trkpt><trkpt lat="14.677309878484506" lon="121.11138737824898"><ele>19.0</ele><time>2026-04-10T08:00:23.001Z</time></trkpt><trkpt lat="14.677365011945728" lon="121.11143252072404"><ele>19.0</ele><time>2026-04-10T08:00:24.001Z</time></trkpt><trkpt lat="14.677432209280585" lon="121.11147619675594"><ele>19.0</ele><time>2026-04-10T08:00:25.001Z</time></trkpt><trkpt lat="14.677498506258953" lon="121.11152559457513"><ele>19.2</ele><time>2026-04-10T08:00:26.001Z</time></trkpt><trkpt lat="14.67756196211889" lon="121.11157493239453"><ele>19.4</ele><time>2026-04-10T08:00:27.001Z</time></trkpt><trkpt lat="14.677620557442015" lon="121.111620739779"><ele>19.6</ele><time>2026-04-10T08:00:28.001Z</time></trkpt><trkpt lat="14.677675637065864" lon="121.11166088401492"><ele>19.8</ele><time>2026-04-10T08:00:29.001Z</time></trkpt><trkpt lat="14.67777826109828" lon="121.1117338565257"><ele>20.0</ele><time>2026-04-10T08:00:31.001Z</time></trkpt><trkpt lat="14.677880999669123" lon="121.11180057312492"><ele>20.0</ele><time>2026-04-10T08:00:33.001Z</time></trkpt><trkpt lat="14.677957490990504" lon="121.11185074213546"><ele>20.0</ele><time>2026-04-10T08:00:35.001Z</time></trkpt><trkpt lat="14.67805858955983" lon="121.11173137208672"><ele>20.0</ele><time>2026-04-10T08:00:38.001Z</time></trkpt><trkpt lat="14.678120967609932" lon="121.1116076008385"><ele>20.0</ele><time>2026-04-10T08:00:40.001Z</time></trkpt><trkpt lat="14.678162027206454" lon="121.11153526599482"><ele>20.0</ele><time>2026-04-10T08:00:41.001Z</time></trkpt><trkpt lat="14.678209324001951" lon="121.11145605710959"><ele>20.0</ele><time>2026-04-10T08:00:42.001Z</time></trkpt><trkpt lat="14.678257961945969" lon="121.11137057909498"><ele>20.0</ele><time>2026-04-10T08:00:43.001Z</time></trkpt><trkpt lat="14.678306505124349" lon="121.11128393365276"><ele>20.0</ele><time>2026-04-10T08:00:44.001Z</time></trkpt><trkpt lat="14.678346780148756" lon="121.11119567713283"><ele>20.0</ele><time>2026-04-10T08:00:45.001Z</time></trkpt><trkpt lat="14.678400452093536" lon="121.11110938467895"><ele>20.0</ele><time>2026-04-10T08:00:46.001Z</time></trkpt><trkpt lat="14.678454758424564" lon="121.11102211033827"><ele>20.0</ele><time>2026-04-10T08:00:47.001Z</time></trkpt><trkpt lat="14.678512092628802" lon="121.11093870718278"><ele>20.0</ele><time>2026-04-10T08:00:48.001Z</time></trkpt><trkpt lat="14.678575574964668" lon="121.11084906173201"><ele>20.0</ele><time>2026-04-10T08:00:49.001Z</time></trkpt><trkpt lat="14.678646017803379" lon="121.11076079656442"><ele>20.0</ele><time>2026-04-10T08:00:50.001Z</time></trkpt><trkpt lat="14.678716697602606" lon="121.11066708510631"><ele>18.8</ele><time>2026-04-10T08:00:51.001Z</time></trkpt><trkpt lat="14.678785821541387" lon="121.11057857451476"><ele>17.6</ele><time>2026-04-10T08:00:52.001Z</time></trkpt><trkpt lat="14.678857099162732" lon="121.11049648371018"><ele>16.4</ele><time>2026-04-10T08:00:53.001Z</time></trkpt><trkpt lat="14.678931819732755" lon="121.11041630168758"><ele>15.2</ele><time>2026-04-10T08:00:54.001Z</time></trkpt><trkpt lat="14.679010358829146" lon="121.11033113576173"><ele>14.0</ele><time>2026-04-10T08:00:55.001Z</time></trkpt><trkpt lat="14.6790862871395" lon="121.11024570633428"><ele>14.0</ele><time>2026-04-10T08:00:56.001Z</time></trkpt><trkpt lat="14.679164902693515" lon="121.11014610331038"><ele>14.0</ele><time>2026-04-10T08:00:57.001Z</time></trkpt><trkpt lat="14.679239765828086" lon="121.11005241355475"><ele>14.0</ele><time>2026-04-10T08:00:58.001Z</time></trkpt><trkpt lat="14.679318706028742" lon="121.10995502996197"><ele>14.0</ele><time>2026-04-10T08:00:59.001Z</time></trkpt><trkpt lat="14.679403400279147" lon="121.1098617031628"><ele>13.6</ele><time>2026-04-10T08:01:00.001Z</time></trkpt><trkpt lat="14.6794754479776" lon="121.10977278683761"><ele>13.2</ele><time>2026-04-10T08:01:01.001Z</time></trkpt><trkpt lat="14.67954396419135" lon="121.10968614424014"><ele>12.799999999999999</ele><time>2026-04-10T08:01:02.001Z</time></trkpt><trkpt lat="14.679612789083329" lon="121.10961124574234"><ele>12.399999999999999</ele><time>2026-04-10T08:01:03.001Z</time></trkpt><trkpt lat="14.679690575616299" lon="121.10952822551086"><ele>12.0</ele><time>2026-04-10T08:01:04.001Z</time></trkpt><trkpt lat="14.679768635524361" lon="121.10944281904462"><ele>12.0</ele><time>2026-04-10T08:01:05.001Z</time></trkpt><trkpt lat="14.679842984590012" lon="121.10935898935492"><ele>12.0</ele><time>2026-04-10T08:01:06.001Z</time></trkpt><trkpt lat="14.679922392726631" lon="121.10927159084217"><ele>12.0</ele><time>2026-04-10T08:01:07.001Z</time></trkpt><trkpt lat="14.680000450697648" lon="121.1091839490914"><ele>12.0</ele><time>2026-04-10T08:01:08.001Z</time></trkpt><trkpt lat="14.680068354613914" lon="121.10910834502872"><ele>12.0</ele><time>2026-04-10T08:01:09.001Z</time></trkpt><trkpt lat="14.680136028618062" lon="121.10903495736528"><ele>12.8</ele><time>2026-04-10T08:01:10.001Z</time></trkpt><trkpt lat="14.6801989284338" lon="121.10897674768194"><ele>13.6</ele><time>2026-04-10T08:01:11.002Z</time></trkpt><trkpt lat="14.680254704115514" lon="121.10892666057441"><ele>14.400000000000002</ele><time>2026-04-10T08:01:12.002Z</time></trkpt><trkpt lat="14.680346114032345" lon="121.10882730986894"><ele>15.200000000000001</ele><time>2026-04-10T08:01:14.002Z</time></trkpt><trkpt lat="14.680414817443218" lon="121.10875920162643"><ele>16.0</ele><time>2026-04-10T08:01:15.002Z</time></trkpt><trkpt lat="14.68048105553707" lon="121.108689766497"><ele>16.142857142857142</ele><time>2026-04-10T08:01:17.002Z</time></trkpt><trkpt lat="14.680528550954785" lon="121.10863692553473"><ele>16.285714285714285</ele><time>2026-04-10T08:01:18.002Z</time></trkpt><trkpt lat="14.680589176557667" lon="121.10858356980438"><ele>16.428571428571427</ele><time>2026-04-10T08:01:19.002Z</time></trkpt><trkpt lat="14.680643513660877" lon="121.10853475446663"><ele>16.57142857142857</ele><time>2026-04-10T08:01:20.002Z</time></trkpt><trkpt lat="14.680687722355442" lon="121.10848631744614"><ele>16.714285714285715</ele><time>2026-04-10T08:01:21.002Z</time></trkpt><trkpt lat="14.68073930018811" lon="121.10843242808481"><ele>16.857142857142854</ele><time>2026-04-10T08:01:22.002Z</time></trkpt><trkpt lat="14.680797518034245" lon="121.10837686643382"><ele>17.0</ele><time>2026-04-10T08:01:23.002Z</time></trkpt><trkpt lat="14.680855262121899" lon="121.10831871125713"><ele>17.0</ele><time>2026-04-10T08:01:24.002Z</time></trkpt><trkpt lat="14.680919892601871" lon="121.10825693148462"><ele>17.0</ele><time>2026-04-10T08:01:25.002Z</time></trkpt><trkpt lat="14.680990617198177" lon="121.10819106462704"><ele>17.0</ele><time>2026-04-10T08:01:26.002Z</time></trkpt><trkpt lat="14.681053409874856" lon="121.10813118143183"><ele>17.0</ele><time>2026-04-10T08:01:27.002Z</time></trkpt><trkpt lat="14.681124401129408" lon="121.10805266099919"><ele>17.0</ele><time>2026-04-10T08:01:28.002Z</time></trkpt><trkpt lat="14.681204326324286" lon="121.10797238230292"><ele>17.5</ele><time>2026-04-10T08:01:29.002Z</time></trkpt><trkpt lat="14.68128648458499" lon="121.10788900368995"><ele>18.0</ele><time>2026-04-10T08:01:30.002Z</time></trkpt><trkpt lat="14.681372159489657" lon="121.10780246850716"><ele>18.5</ele><time>2026-04-10T08:01:31.002Z</time></trkpt><trkpt lat="14.681460683327485" lon="121.10771608931454"><ele>19.0</ele><time>2026-04-10T08:01:32.002Z</time></trkpt><trkpt lat="14.681553395243101" lon="121.1076242460463"><ele>19.0</ele><time>2026-04-10T08:01:33.002Z</time></trkpt><trkpt lat="14.681648801813726" lon="121.10752648979569"><ele>19.0</ele><time>2026-04-10T08:01:34.002Z</time></trkpt><trkpt lat="14.681743921048731" lon="121.10742729549567"><ele>19.0</ele><time>2026-04-10T08:01:35.002Z</time></trkpt><trkpt lat="14.681841747638252" lon="121.10732835666768"><ele>19.0</ele><time>2026-04-10T08:01:36.002Z</time></trkpt><trkpt lat="14.681941578968594" lon="121.1072290754389"><ele>19.0</ele><time>2026-04-10T08:01:37.002Z</time></trkpt><trkpt lat="14.68203562032568" lon="121.10713967382085"><ele>19.0</ele><time>2026-04-10T08:01:38.002Z</time></trkpt><trkpt lat="14.682120051820524" lon="121.10705600867267"><ele>19.0</ele><time>2026-04-10T08:01:39.002Z</time></trkpt><trkpt lat="14.682201292128275" lon="121.10697166539074"><ele>19.0</ele><time>2026-04-10T08:01:40.002Z</time></trkpt><trkpt lat="14.682273112788906" lon="121.10689599687727"><ele>19.0</ele><time>2026-04-10T08:01:41.002Z</time></trkpt><trkpt lat="14.682345788023866" lon="121.10682531918847"><ele>19.0</ele><time>2026-04-10T08:01:42.002Z</time></trkpt><trkpt lat="14.682415096887107" lon="121.10675415552318"><ele>19.0</ele><time>2026-04-10T08:01:43.002Z</time></trkpt><trkpt lat="14.682486473053718" lon="121.10668198513376"><ele>19.0</ele><time>2026-04-10T08:01:44Z</time></trkpt><trkpt lat="14.682559118280109" lon="121.1066089830525"><ele>19.0</ele><time>2026-04-10T08:01:45Z</time></trkpt><trkpt lat="14.682631426685926" lon="121.10653565167641"><ele>19.0</ele><time>2026-04-10T08:01:46Z</time></trkpt><trkpt lat="14.682705263372098" lon="121.10646249728461"><ele>19.0</ele><time>2026-04-10T08:01:47Z</time></trkpt><trkpt lat="14.682776110713254" lon="121.1063909814449"><ele>19.0</ele><time>2026-04-10T08:01:48Z</time></trkpt><trkpt lat="14.68284962614013" lon="121.1063149220332"><ele>19.0</ele><time>2026-04-10T08:01:49Z</time></trkpt><trkpt lat="14.682924713639618" lon="121.10623670395779"><ele>19.0</ele><time>2026-04-10T08:01:50Z</time></trkpt><trkpt lat="14.683004017542293" lon="121.10615991291424"><ele>19.0</ele><time>2026-04-10T08:01:51Z</time></trkpt><trkpt lat="14.68308391458274" lon="121.1060837043067"><ele>19.0</ele><time>2026-04-10T08:01:52Z</time></trkpt><trkpt lat="14.683162649935465" lon="121.10600532891236"><ele>19.0</ele><time>2026-04-10T08:01:53Z</time></trkpt><trkpt lat="14.683244726149203" lon="121.1059203385345"><ele>19.0</ele><time>2026-04-10T08:01:54Z</time></trkpt><trkpt lat="14.683326672949729" lon="121.1058381220006"><ele>19.0</ele><time>2026-04-10T08:01:55Z</time></trkpt><trkpt lat="14.683405778998583" lon="121.10576086358306"><ele>19.2</ele><time>2026-04-10T08:01:56Z</time></trkpt><trkpt lat="14.683480422381793" lon="121.10568466238851"><ele>19.4</ele><time>2026-04-10T08:01:57Z</time></trkpt><trkpt lat="14.683552114177857" lon="121.10561066995409"><ele>19.6</ele><time>2026-04-10T08:01:58Z</time></trkpt><trkpt lat="14.683628248818913" lon="121.10553468838877"><ele>19.8</ele><time>2026-04-10T08:01:59Z</time></trkpt><trkpt lat="14.683706623317034" lon="121.1054600666378"><ele>20.0</ele><time>2026-04-10T08:02:00Z</time></trkpt><trkpt lat="14.683776428670607" lon="121.10538649737873"><ele>20.166666666666668</ele><time>2026-04-10T08:02:01Z</time></trkpt><trkpt lat="14.683847190898952" lon="121.10532002319738"><ele>20.333333333333336</ele><time>2026-04-10T08:02:02Z</time></trkpt><trkpt lat="14.68390672107331" lon="121.10525806797624"><ele>20.5</ele><time>2026-04-10T08:02:03Z</time></trkpt><trkpt lat="14.683954594198644" lon="121.10520762945795"><ele>20.666666666666668</ele><time>2026-04-10T08:02:04Z</time></trkpt><trkpt lat="14.684028594624971" lon="121.1051350987325"><ele>20.833333333333332</ele><time>2026-04-10T08:02:06Z</time></trkpt><trkpt lat="14.68407870987685" lon="121.10508156993167"><ele>21.0</ele><time>2026-04-10T08:02:08Z</time></trkpt><trkpt lat="14.684153432946609" lon="121.10501062820124"><ele>21.0</ele><time>2026-04-10T08:02:10Z</time></trkpt><trkpt lat="14.684211315904376" lon="121.10495918346082"><ele>21.0</ele><time>2026-04-10T08:02:12Z</time></trkpt><trkpt lat="14.684285884064018" lon="121.10488432125825"><ele>21.0</ele><time>2026-04-10T08:02:14Z</time></trkpt><trkpt lat="14.684326164800192" lon="121.10482925271405"><ele>21.0</ele><time>2026-04-10T08:02:15Z</time></trkpt><trkpt lat="14.684372164248176" lon="121.10476228659681"><ele>21.0</ele><time>2026-04-10T08:02:16Z</time></trkpt><trkpt lat="14.684419220255862" lon="121.10469155684136"><ele>21.0</ele><time>2026-04-10T08:02:17Z</time></trkpt><trkpt lat="14.684465264154301" lon="121.1046116644552"><ele>23.6</ele><time>2026-04-10T08:02:18.001Z</time></trkpt><trkpt lat="14.684504461227588" lon="121.10452425903381"><ele>26.200000000000003</ele><time>2026-04-10T08:02:19.001Z</time></trkpt><trkpt lat="14.684541665913514" lon="121.10442902849572"><ele>28.799999999999997</ele><time>2026-04-10T08:02:20.001Z</time></trkpt><trkpt lat="14.684579115852545" lon="121.10433241402153"><ele>31.4</ele><time>2026-04-10T08:02:21.001Z</time></trkpt><trkpt lat="14.684617590639334" lon="121.10423213965962"><ele>34.0</ele><time>2026-04-10T08:02:22.001Z</time></trkpt><trkpt lat="14.684659516044618" lon="121.10413327245428"><ele>34.6</ele><time>2026-04-10T08:02:23.001Z</time></trkpt><trkpt lat="14.68471037576423" lon="121.10403407880547"><ele>35.2</ele><time>2026-04-10T08:02:24.001Z</time></trkpt><trkpt lat="14.68476989470216" lon="121.10393913597133"><ele>35.800000000000004</ele><time>2026-04-10T08:02:25.001Z</time></trkpt><trkpt lat="14.684836341902459" lon="121.10384661003668"><ele>36.4</ele><time>2026-04-10T08:02:26.001Z</time></trkpt><trkpt lat="14.684904094024882" lon="121.1037576604018"><ele>37.0</ele><time>2026-04-10T08:02:27.001Z</time></trkpt><trkpt lat="14.684975037396093" lon="121.10366501898609"><ele>37.0</ele><time>2026-04-10T08:02:28.001Z</time></trkpt><trkpt lat="14.685053786621602" lon="121.10356704368581"><ele>37.0</ele><time>2026-04-10T08:02:29.001Z</time></trkpt><trkpt lat="14.685132000778193" lon="121.10347165617256"><ele>37.0</ele><time>2026-04-10T08:02:30.001Z</time></trkpt><trkpt lat="14.685209446509331" lon="121.10337329584836"><ele>37.0</ele><time>2026-04-10T08:02:31.001Z</time></trkpt><trkpt lat="14.68528560151541" lon="121.10327189960367"><ele>38.0</ele><time>2026-04-10T08:02:32.001Z</time></trkpt><trkpt lat="14.685363219771011" lon="121.10316800412639"><ele>39.0</ele><time>2026-04-10T08:02:33.001Z</time></trkpt><trkpt lat="14.685438658966" lon="121.10306826678472"><ele>40.0</ele><time>2026-04-10T08:02:34.001Z</time></trkpt><trkpt lat="14.685517843409553" lon="121.10297200638703"><ele>41.0</ele><time>2026-04-10T08:02:35.001Z</time></trkpt><trkpt lat="14.685600026891265" lon="121.1028717552667"><ele>41.0</ele><time>2026-04-10T08:02:36.001Z</time></trkpt><trkpt lat="14.685677528178411" lon="121.10275743653872"><ele>41.0</ele><time>2026-04-10T08:02:37.001Z</time></trkpt><trkpt lat="14.685759723955682" lon="121.10263539739759"><ele>41.0</ele><time>2026-04-10T08:02:38.001Z</time></trkpt><trkpt lat="14.68584071312519" lon="121.10251915054121"><ele>41.0</ele><time>2026-04-10T08:02:39.001Z</time></trkpt><trkpt lat="14.685923327210562" lon="121.1024035841375"><ele>43.5</ele><time>2026-04-10T08:02:40.001Z</time></trkpt><trkpt lat="14.68601064290737" lon="121.1022858946524"><ele>46.0</ele><time>2026-04-10T08:02:41.001Z</time></trkpt><trkpt lat="14.686096355197767" lon="121.10216156192021"><ele>48.5</ele><time>2026-04-10T08:02:42.001Z</time></trkpt><trkpt lat="14.686182766201215" lon="121.10203591528479"><ele>51.0</ele><time>2026-04-10T08:02:43.001Z</time></trkpt><trkpt lat="14.686269200765624" lon="121.1019084034906"><ele>51.0</ele><time>2026-04-10T08:02:44.001Z</time></trkpt><trkpt lat="14.686357718863578" lon="121.10178019290358"><ele>51.0</ele><time>2026-04-10T08:02:45.001Z</time></trkpt><trkpt lat="14.686446473559839" lon="121.10165236592"><ele>51.0</ele><time>2026-04-10T08:02:46.001Z</time></trkpt><trkpt lat="14.686533335315739" lon="121.1015259552698"><ele>51.75</ele><time>2026-04-10T08:02:47.001Z</time></trkpt><trkpt lat="14.686623116696929" lon="121.10140062737392"><ele>52.5</ele><time>2026-04-10T08:02:48.001Z</time></trkpt><trkpt lat="14.68671526981596" lon="121.10127743449588"><ele>53.25</ele><time>2026-04-10T08:02:49.001Z</time></trkpt><trkpt lat="14.686801291434568" lon="121.1011544770022"><ele>54.0</ele><time>2026-04-10T08:02:50.001Z</time></trkpt><trkpt lat="14.686889398146937" lon="121.10102841463787"><ele>55.75</ele><time>2026-04-10T08:02:51.001Z</time></trkpt><trkpt lat="14.68696772520272" lon="121.10090822117682"><ele>57.5</ele><time>2026-04-10T08:02:52.001Z</time></trkpt><trkpt lat="14.687037082716383" lon="121.1008025527576"><ele>59.25</ele><time>2026-04-10T08:02:53.001Z</time></trkpt><trkpt lat="14.687099277050992" lon="121.10070169670729"><ele>61.0</ele><time>2026-04-10T08:02:54.001Z</time></trkpt><trkpt lat="14.687158380002103" lon="121.10059777627642"><ele>62.0</ele><time>2026-04-10T08:02:55.001Z</time></trkpt><trkpt lat="14.687206795924366" lon="121.10048406649175"><ele>63.0</ele><time>2026-04-10T08:02:56.001Z</time></trkpt><trkpt lat="14.687254006567699" lon="121.10036540438371"><ele>64.0</ele><time>2026-04-10T08:02:57.001Z</time></trkpt><trkpt lat="14.687297085509996" lon="121.10024588250837"><ele>65.0</ele><time>2026-04-10T08:02:58.001Z</time></trkpt><trkpt lat="14.68733690743417" lon="121.10012387845417"><ele>65.0</ele><time>2026-04-10T08:02:59.001Z</time></trkpt><trkpt lat="14.687382868923825" lon="121.1000031280678"><ele>65.0</ele><time>2026-04-10T08:03:00.001Z</time></trkpt><trkpt lat="14.687423984018368" lon="121.09988297688304"><ele>65.0</ele><time>2026-04-10T08:03:01.001Z</time></trkpt><trkpt lat="14.687461262443238" lon="121.0997696595214"><ele>65.0</ele><time>2026-04-10T08:03:02.001Z</time></trkpt><trkpt lat="14.687496700424404" lon="121.09965334223438"><ele>66.2</ele><time>2026-04-10T08:03:03.001Z</time></trkpt><trkpt lat="14.687537053825032" lon="121.0995490038756"><ele>67.4</ele><time>2026-04-10T08:03:04.001Z</time></trkpt><trkpt lat="14.687579912707099" lon="121.09944733618036"><ele>68.6</ele><time>2026-04-10T08:03:05.001Z</time></trkpt><trkpt lat="14.687627192562655" lon="121.09934644712496"><ele>69.8</ele><time>2026-04-10T08:03:06.001Z</time></trkpt><trkpt lat="14.687677850615813" lon="121.09925914105848"><ele>71.0</ele><time>2026-04-10T08:03:07.001Z</time></trkpt><trkpt lat="14.6877303627671" lon="121.09916735717714"><ele>72.5</ele><time>2026-04-10T08:03:08.001Z</time></trkpt><trkpt lat="14.687790985946846" lon="121.09908234584137"><ele>74.0</ele><time>2026-04-10T08:03:09.001Z</time></trkpt><trkpt lat="14.68784935456507" lon="121.09901215916607"><ele>75.5</ele><time>2026-04-10T08:03:10.001Z</time></trkpt><trkpt lat="14.687902659121265" lon="121.09896422737054"><ele>77.0</ele><time>2026-04-10T08:03:11.001Z</time></trkpt><trkpt lat="14.687957067047126" lon="121.09891734583282"><ele>78.5</ele><time>2026-04-10T08:03:12.002Z</time></trkpt><trkpt lat="14.688016632987248" lon="121.09887115328723"><ele>80.0</ele><time>2026-04-10T08:03:13.002Z</time></trkpt><trkpt lat="14.68806879180348" lon="121.09882528592821"><ele>80.0</ele><time>2026-04-10T08:03:14.002Z</time></trkpt><trkpt lat="14.68812470947192" lon="121.09878012049757"><ele>80.0</ele><time>2026-04-10T08:03:15.002Z</time></trkpt><trkpt lat="14.688219348492542" lon="121.0987209452585"><ele>80.0</ele><time>2026-04-10T08:03:17.002Z</time></trkpt><trkpt lat="14.688294307677795" lon="121.09867104480853"><ele>80.0</ele><time>2026-04-10T08:03:19.002Z</time></trkpt><trkpt lat="14.688406303206454" lon="121.09858680134968"><ele>80.0</ele><time>2026-04-10T08:03:21.002Z</time></trkpt><trkpt lat="14.68846201580789" lon="121.09853589117435"><ele>80.0</ele><time>2026-04-10T08:03:22.002Z</time></trkpt><trkpt lat="14.688512305699602" lon="121.09848689970683"><ele>80.0</ele><time>2026-04-10T08:03:23.002Z</time></trkpt><trkpt lat="14.688566161618223" lon="121.09843552405103"><ele>80.0</ele><time>2026-04-10T08:03:24.002Z</time></trkpt><trkpt lat="14.688627866271117" lon="121.09838814707344"><ele>80.0</ele><time>2026-04-10T08:03:25.002Z</time></trkpt><trkpt lat="14.688697099915442" lon="121.09833460447899"><ele>80.0</ele><time>2026-04-10T08:03:26.002Z</time></trkpt><trkpt lat="14.688751433040125" lon="121.0982906324917"><ele>80.0</ele><time>2026-04-10T08:03:27.002Z</time></trkpt><trkpt lat="14.688828209383471" lon="121.09824231797742"><ele>81.16666666666667</ele><time>2026-04-10T08:03:28.002Z</time></trkpt><trkpt lat="14.688890876577824" lon="121.09818367176803"><ele>82.33333333333334</ele><time>2026-04-10T08:03:29.002Z</time></trkpt><trkpt lat="14.688995192431744" lon="121.09811719598207"><ele>83.5</ele><time>2026-04-10T08:03:31.002Z</time></trkpt><trkpt lat="14.689062563597215" lon="121.09807084934374"><ele>84.66666666666667</ele><time>2026-04-10T08:03:33.002Z</time></trkpt><trkpt lat="14.689115128705403" lon="121.09802590209053"><ele>85.83333333333333</ele><time>2026-04-10T08:03:35.002Z</time></trkpt><trkpt lat="14.689165278507636" lon="121.09798390943024"><ele>87.0</ele><time>2026-04-10T08:03:37.002Z</time></trkpt><trkpt lat="14.689218983264327" lon="121.09793916798432"><ele>87.0</ele><time>2026-04-10T08:03:40.002Z</time></trkpt><trkpt lat="14.689272678198423" lon="121.0978907306861"><ele>87.0</ele><time>2026-04-10T08:03:43.002Z</time></trkpt><trkpt lat="14.68932549381076" lon="121.0978400460379"><ele>87.0</ele><time>2026-04-10T08:03:45.002Z</time></trkpt><trkpt lat="14.689383518164826" lon="121.0978065278287"><ele>87.0</ele><time>2026-04-10T08:03:47.002Z</time></trkpt><trkpt lat="14.689462051991258" lon="121.0977452643525"><ele>87.0</ele><time>2026-04-10T08:03:49.002Z</time></trkpt><trkpt lat="14.689561570473243" lon="121.09766237394663"><ele>87.0</ele><time>2026-04-10T08:03:51Z</time></trkpt><trkpt lat="14.689620791410473" lon="121.09761553032928"><ele>87.0</ele><time>2026-04-10T08:03:52Z</time></trkpt><trkpt lat="14.68968285536005" lon="121.09756498941154"><ele>87.0</ele><time>2026-04-10T08:03:53Z</time></trkpt><trkpt lat="14.689738672790012" lon="121.09751385713031"><ele>87.0</ele><time>2026-04-10T08:03:54Z</time></trkpt><trkpt lat="14.689792469783558" lon="121.09746370828384"><ele>87.0</ele><time>2026-04-10T08:03:55Z</time></trkpt><trkpt lat="14.689839822583084" lon="121.09742061002973"><ele>87.0</ele><time>2026-04-10T08:03:56Z</time></trkpt><trkpt lat="14.689921395452709" lon="121.09734684283805"><ele>87.0</ele><time>2026-04-10T08:03:58Z</time></trkpt><trkpt lat="14.690005527051191" lon="121.09727367520343"><ele>87.66666666666667</ele><time>2026-04-10T08:04:00Z</time></trkpt><trkpt lat="14.690089558000885" lon="121.09719389590619"><ele>88.33333333333333</ele><time>2026-04-10T08:04:02Z</time></trkpt><trkpt lat="14.690135244078647" lon="121.09714544006552"><ele>89.0</ele><time>2026-04-10T08:04:03Z</time></trkpt><trkpt lat="14.690189061232541" lon="121.09709579931992"><ele>89.66666666666666</ele><time>2026-04-10T08:04:04Z</time></trkpt><trkpt lat="14.690248281445987" lon="121.09705377915195"><ele>90.33333333333333</ele><time>2026-04-10T08:04:05Z</time></trkpt><trkpt lat="14.690303776044342" lon="121.09701342145628"><ele>91.0</ele><time>2026-04-10T08:04:06Z</time></trkpt><trkpt lat="14.690396677530915" lon="121.09692362343169"><ele>91.0</ele><time>2026-04-10T08:04:08Z</time></trkpt><trkpt lat="14.690455878007533" lon="121.09687983051165"><ele>91.0</ele><time>2026-04-10T08:04:09Z</time></trkpt><trkpt lat="14.690517623668146" lon="121.096832503021"><ele>91.0</ele><time>2026-04-10T08:04:10Z</time></trkpt><trkpt lat="14.690582163160977" lon="121.09678277747456"><ele>91.0</ele><time>2026-04-10T08:04:11Z</time></trkpt><trkpt lat="14.690647160943577" lon="121.09673171579587"><ele>91.0</ele><time>2026-04-10T08:04:12Z</time></trkpt><trkpt lat="14.690715298294906" lon="121.09667939203491"><ele>91.0</ele><time>2026-04-10T08:04:13Z</time></trkpt><trkpt lat="14.69078124302789" lon="121.09662272954306"><ele>92.0</ele><time>2026-04-10T08:04:14Z</time></trkpt><trkpt lat="14.690840943903476" lon="121.09657479742543"><ele>93.0</ele><time>2026-04-10T08:04:15Z</time></trkpt><trkpt lat="14.690897151081687" lon="121.09653260193934"><ele>94.0</ele><time>2026-04-10T08:04:16Z</time></trkpt><trkpt lat="14.69095188365253" lon="121.09648846796907"><ele>95.0</ele><time>2026-04-10T08:04:17.001Z</time></trkpt><trkpt lat="14.69105395268942" lon="121.09641185531767"><ele>96.00000000000001</ele><time>2026-04-10T08:04:19.001Z</time></trkpt><trkpt lat="14.691109501544048" lon="121.09637513780297"><ele>97.0</ele><time>2026-04-10T08:04:20.001Z</time></trkpt><trkpt lat="14.69116423187544" lon="121.09633912308243"><ele>97.33333333333334</ele><time>2026-04-10T08:04:21.001Z</time></trkpt><trkpt lat="14.691224347618073" lon="121.09630699849511"><ele>97.66666666666667</ele><time>2026-04-10T08:04:22.001Z</time></trkpt><trkpt lat="14.691273086867357" lon="121.09626293542185"><ele>98.0</ele><time>2026-04-10T08:04:23.001Z</time></trkpt><trkpt lat="14.69132545628976" lon="121.09622039540353"><ele>98.33333333333334</ele><time>2026-04-10T08:04:24.001Z</time></trkpt><trkpt lat="14.69145432079254" lon="121.09627389939857"><ele>98.66666666666667</ele><time>2026-04-10T08:04:25.001Z</time></trkpt><trkpt lat="14.691550130512843" lon="121.09628158392348"><ele>99.0</ele><time>2026-04-10T08:04:26.001Z</time></trkpt><trkpt lat="14.69163862886701" lon="121.09628837499788"><ele>99.0</ele><time>2026-04-10T08:04:27.001Z</time></trkpt><trkpt lat="14.691752234886202" lon="121.09630657326412"><ele>99.0</ele><time>2026-04-10T08:04:28.001Z</time></trkpt><trkpt lat="14.691861434498264" lon="121.09632325571921"><ele>99.0</ele><time>2026-04-10T08:04:29.001Z</time></trkpt><trkpt lat="14.691979058661689" lon="121.0963386886337"><ele>99.0</ele><time>2026-04-10T08:04:30.001Z</time></trkpt><trkpt lat="14.692109085568948" lon="121.09634130340062"><ele>99.5</ele><time>2026-04-10T08:04:31.001Z</time></trkpt><trkpt lat="14.692222718932873" lon="121.09633946952967"><ele>100.0</ele><time>2026-04-10T08:04:32.001Z</time></trkpt><trkpt lat="14.692341119627693" lon="121.09638363254328"><ele>100.5</ele><time>2026-04-10T08:04:33.001Z</time></trkpt><trkpt lat="14.692479938859357" lon="121.09638494658485"><ele>101.0</ele><time>2026-04-10T08:04:34.001Z</time></trkpt><trkpt lat="14.69260595183962" lon="121.0963865817065"><ele>101.0</ele><time>2026-04-10T08:04:35.001Z</time></trkpt><trkpt lat="14.692740996907375" lon="121.09638837284305"><ele>101.0</ele><time>2026-04-10T08:04:36.001Z</time></trkpt><trkpt lat="14.692864269158894" lon="121.09639000783663"><ele>101.0</ele><time>2026-04-10T08:04:37.001Z</time></trkpt><trkpt lat="14.693006599241077" lon="121.09639033534631"><ele>101.0</ele><time>2026-04-10T08:04:38.001Z</time></trkpt><trkpt lat="14.69313400892795" lon="121.09638891400529"><ele>101.25</ele><time>2026-04-10T08:04:39.001Z</time></trkpt><trkpt lat="14.693266598621484" lon="121.0963880852173"><ele>101.5</ele><time>2026-04-10T08:04:40.001Z</time></trkpt><trkpt lat="14.693405574489619" lon="121.09638718681374"><ele>101.75</ele><time>2026-04-10T08:04:41.001Z</time></trkpt><trkpt lat="14.693547938515465" lon="121.09638927270078"><ele>102.0</ele><time>2026-04-10T08:04:42.001Z</time></trkpt><trkpt lat="14.693688738059466" lon="121.09639039266531"><ele>101.5</ele><time>2026-04-10T08:04:43.001Z</time></trkpt><trkpt lat="14.693831948842178" lon="121.09639149809536"><ele>101.0</ele><time>2026-04-10T08:04:44.001Z</time></trkpt><trkpt lat="14.69397640553945" lon="121.09639261313905"><ele>100.5</ele><time>2026-04-10T08:04:45.001Z</time></trkpt><trkpt lat="14.69411850235815" lon="121.09639370940148"><ele>100.0</ele><time>2026-04-10T08:04:46.001Z</time></trkpt><trkpt lat="14.694263663073126" lon="121.09639482988005"><ele>100.0</ele><time>2026-04-10T08:04:47.001Z</time></trkpt><trkpt lat="14.694381592043165" lon="121.09639573790346"><ele>100.0</ele><time>2026-04-10T08:04:48.001Z</time></trkpt><trkpt lat="14.694493683839632" lon="121.09639621178572"><ele>100.0</ele><time>2026-04-10T08:04:49.001Z</time></trkpt><trkpt lat="14.694624189728088" lon="121.0963967635199"><ele>100.0</ele><time>2026-04-10T08:04:50.001Z</time></trkpt><trkpt lat="14.694739220229247" lon="121.09639433892767"><ele>100.0</ele><time>2026-04-10T08:04:51.001Z</time></trkpt><trkpt lat="14.694850185297986" lon="121.09638548569296"><ele>100.0</ele><time>2026-04-10T08:04:52.001Z</time></trkpt><trkpt lat="14.694958405683867" lon="121.09636602789497"><ele>100.0</ele><time>2026-04-10T08:04:53.001Z</time></trkpt><trkpt lat="14.695070383530247" lon="121.09632143479135"><ele>100.0</ele><time>2026-04-10T08:04:54.001Z</time></trkpt><trkpt lat="14.695160092517826" lon="121.09627790287566"><ele>100.0</ele><time>2026-04-10T08:04:55.001Z</time></trkpt><trkpt lat="14.695262646137818" lon="121.0961808461538"><ele>100.0</ele><time>2026-04-10T08:04:56.001Z</time></trkpt><trkpt lat="14.695313529792266" lon="121.09606387626333"><ele>100.0</ele><time>2026-04-10T08:04:57.001Z</time></trkpt><trkpt lat="14.695391007237742" lon="121.09596483832591"><ele>100.0</ele><time>2026-04-10T08:04:58.001Z</time></trkpt><trkpt lat="14.69547297763664" lon="121.09587324242513"><ele>100.0</ele><time>2026-04-10T08:04:59.001Z</time></trkpt><trkpt lat="14.695550408410133" lon="121.09579352081734"><ele>99.66666666666667</ele><time>2026-04-10T08:05:00.001Z</time></trkpt><trkpt lat="14.695668000829475" lon="121.09575110733707"><ele>99.33333333333334</ele><time>2026-04-10T08:05:01.001Z</time></trkpt><trkpt lat="14.695726160926139" lon="121.09568947582487"><ele>99.0</ele><time>2026-04-10T08:05:02.001Z</time></trkpt><trkpt lat="14.695788826868164" lon="121.09562306954315"><ele>98.66666666666666</ele><time>2026-04-10T08:05:03.001Z</time></trkpt><trkpt lat="14.695837145371517" lon="121.09557186704528"><ele>98.33333333333333</ele><time>2026-04-10T08:05:04.001Z</time></trkpt><trkpt lat="14.69588016887598" lon="121.09551121070909"><ele>98.0</ele><time>2026-04-10T08:05:05.001Z</time></trkpt><trkpt lat="14.695933381398678" lon="121.09538490355978"><ele>97.99999999999999</ele><time>2026-04-10T08:05:07.001Z</time></trkpt><trkpt lat="14.695953356855345" lon="121.09531645617544"><ele>98.0</ele><time>2026-04-10T08:05:08.001Z</time></trkpt><trkpt lat="14.696003460288596" lon="121.09526564766513"><ele>98.0</ele><time>2026-04-10T08:05:09.001Z</time></trkpt><trkpt lat="14.696060941812247" lon="121.09519869792506"><ele>98.0</ele><time>2026-04-10T08:05:10.001Z</time></trkpt><trkpt lat="14.696132410933577" lon="121.09512726323959"><ele>97.99999999999999</ele><time>2026-04-10T08:05:11.001Z</time></trkpt><trkpt lat="14.696198485533976" lon="121.0950640778273"><ele>98.0</ele><time>2026-04-10T08:05:12.001Z</time></trkpt><trkpt lat="14.696276414313068" lon="121.09498343818292"><ele>97.0</ele><time>2026-04-10T08:05:13.001Z</time></trkpt><trkpt lat="14.696344153504429" lon="121.094907130861"><ele>96.0</ele><time>2026-04-10T08:05:14.002Z</time></trkpt><trkpt lat="14.696425986805524" lon="121.09482347687076"><ele>95.0</ele><time>2026-04-10T08:05:15.002Z</time></trkpt><trkpt lat="14.696505091531735" lon="121.09474660331252"><ele>94.0</ele><time>2026-04-10T08:05:16.002Z</time></trkpt><trkpt lat="14.696591388749251" lon="121.09466049785475"><ele>93.0</ele><time>2026-04-10T08:05:17.002Z</time></trkpt><trkpt lat="14.696668170147346" lon="121.09457485591948"><ele>93.0</ele><time>2026-04-10T08:05:18.002Z</time></trkpt><trkpt lat="14.69674946961725" lon="121.09448933368786"><ele>93.0</ele><time>2026-04-10T08:05:19.002Z</time></trkpt><trkpt lat="14.696829099933344" lon="121.09441181654378"><ele>93.0</ele><time>2026-04-10T08:05:20.002Z</time></trkpt><trkpt lat="14.696898694635077" lon="121.09434337061522"><ele>93.0</ele><time>2026-04-10T08:05:21.002Z</time></trkpt><trkpt lat="14.696970150731081" lon="121.0942691830683"><ele>93.0</ele><time>2026-04-10T08:05:22.002Z</time></trkpt><trkpt lat="14.697039668435732" lon="121.09419761781733"><ele>93.0</ele><time>2026-04-10T08:05:23.002Z</time></trkpt><trkpt lat="14.697101203949233" lon="121.09413406541361"><ele>93.0</ele><time>2026-04-10T08:05:24.002Z</time></trkpt><trkpt lat="14.69716701112613" lon="121.09407216546406"><ele>93.0</ele><time>2026-04-10T08:05:25.002Z</time></trkpt><trkpt lat="14.697223408227" lon="121.09401453795682"><ele>93.0</ele><time>2026-04-10T08:05:26.002Z</time></trkpt><trkpt lat="14.69728608338133" lon="121.09395513904437"><ele>93.0</ele><time>2026-04-10T08:05:27.002Z</time></trkpt><trkpt lat="14.697339804507358" lon="121.09390282009002"><ele>93.0</ele><time>2026-04-10T08:05:28.002Z</time></trkpt><trkpt lat="14.697433983774246" lon="121.09379255281303"><ele>93.0</ele><time>2026-04-10T08:05:30.002Z</time></trkpt><trkpt lat="14.697488500459533" lon="121.09372787023689"><ele>93.0</ele><time>2026-04-10T08:05:31.002Z</time></trkpt><trkpt lat="14.697549258823008" lon="121.09366137813751"><ele>93.0</ele><time>2026-04-10T08:05:32.002Z</time></trkpt><trkpt lat="14.69761391092853" lon="121.09359635278862"><ele>93.0</ele><time>2026-04-10T08:05:33.002Z</time></trkpt><trkpt lat="14.697683458794367" lon="121.09352567516424"><ele>93.0</ele><time>2026-04-10T08:05:34.002Z</time></trkpt><trkpt lat="14.697746817773426" lon="121.09346669198834"><ele>93.0</ele><time>2026-04-10T08:05:35.002Z</time></trkpt><trkpt lat="14.697801213556536" lon="121.0934091590238"><ele>93.0</ele><time>2026-04-10T08:05:36.002Z</time></trkpt><trkpt lat="14.697862851008107" lon="121.09334596525287"><ele>93.0</ele><time>2026-04-10T08:05:37.002Z</time></trkpt><trkpt lat="14.697923307811514" lon="121.09328563649785"><ele>93.0</ele><time>2026-04-10T08:05:38.002Z</time></trkpt><trkpt lat="14.697986939325045" lon="121.0932211481198"><ele>93.0</ele><time>2026-04-10T08:05:39.002Z</time></trkpt><trkpt lat="14.698043267426325" lon="121.0931540138732"><ele>93.0</ele><time>2026-04-10T08:05:40.002Z</time></trkpt><trkpt lat="14.698105421718218" lon="121.09309988083935"><ele>93.0</ele><time>2026-04-10T08:05:41.002Z</time></trkpt><trkpt lat="14.698161337763468" lon="121.0930446407117"><ele>93.0</ele><time>2026-04-10T08:05:42.002Z</time></trkpt><trkpt lat="14.698217562051221" lon="121.09297658383558"><ele>93.0</ele><time>2026-04-10T08:05:43.002Z</time></trkpt><trkpt lat="14.698277231787237" lon="121.09291674593356"><ele>93.0</ele><time>2026-04-10T08:05:44.002Z</time></trkpt><trkpt lat="14.698340073715427" lon="121.09285208055384"><ele>93.0</ele><time>2026-04-10T08:05:45.002Z</time></trkpt><trkpt lat="14.698395003831507" lon="121.09279643259232"><ele>93.0</ele><time>2026-04-10T08:05:46.002Z</time></trkpt><trkpt lat="14.69845176375622" lon="121.09274342619027"><ele>93.0</ele><time>2026-04-10T08:05:47.002Z</time></trkpt><trkpt lat="14.698543672662428" lon="121.09266175832745"><ele>93.0</ele><time>2026-04-10T08:05:49.002Z</time></trkpt><trkpt lat="14.698608805645149" lon="121.09261518257993"><ele>93.0</ele><time>2026-04-10T08:05:51.002Z</time></trkpt><trkpt lat="14.698678267126109" lon="121.09252780077738"><ele>93.0</ele><time>2026-04-10T08:05:53.002Z</time></trkpt><trkpt lat="14.698725413745462" lon="121.09246860344892"><ele>93.0</ele><time>2026-04-10T08:05:54.002Z</time></trkpt><trkpt lat="14.698784342984492" lon="121.09240484842323"><ele>93.0</ele><time>2026-04-10T08:05:55.002Z</time></trkpt><trkpt lat="14.69885029026893" lon="121.0923343748031"><ele>93.0</ele><time>2026-04-10T08:05:56Z</time></trkpt><trkpt lat="14.698917323460398" lon="121.09226139778521"><ele>93.0</ele><time>2026-04-10T08:05:57Z</time></trkpt><trkpt lat="14.698987870456518" lon="121.09218547598014"><ele>93.0</ele><time>2026-04-10T08:05:58Z</time></trkpt><trkpt lat="14.699059705941448" lon="121.0921113799517"><ele>93.0</ele><time>2026-04-10T08:05:59Z</time></trkpt><trkpt lat="14.699129596761873" lon="121.09204140832193"><ele>93.0</ele><time>2026-04-10T08:06:00Z</time></trkpt><trkpt lat="14.69919647504099" lon="121.09197052921657"><ele>93.0</ele><time>2026-04-10T08:06:01Z</time></trkpt><trkpt lat="14.699264875074189" lon="121.091902761034"><ele>93.0</ele><time>2026-04-10T08:06:02Z</time></trkpt><trkpt lat="14.699319465890436" lon="121.09184825861986"><ele>93.0</ele><time>2026-04-10T08:06:03Z</time></trkpt><trkpt lat="14.699374243717477" lon="121.09178442353544"><ele>93.0</ele><time>2026-04-10T08:06:04Z</time></trkpt><trkpt lat="14.699434320820037" lon="121.09172114133574"><ele>93.0</ele><time>2026-04-10T08:06:05Z</time></trkpt><trkpt lat="14.699484437818908" lon="121.09166842151721"><ele>93.0</ele><time>2026-04-10T08:06:06Z</time></trkpt><trkpt lat="14.699538305435581" lon="121.09161217711492"><ele>93.0</ele><time>2026-04-10T08:06:07Z</time></trkpt><trkpt lat="14.699601166958693" lon="121.09155384342594"><ele>93.66666666666667</ele><time>2026-04-10T08:06:08Z</time></trkpt><trkpt lat="14.699651874723713" lon="121.09149179855962"><ele>94.33333333333334</ele><time>2026-04-10T08:06:09Z</time></trkpt><trkpt lat="14.699716738526224" lon="121.09143381833205"><ele>95.0</ele><time>2026-04-10T08:06:10Z</time></trkpt><trkpt lat="14.699777245523766" lon="121.09137515347524"><ele>95.66666666666667</ele><time>2026-04-10T08:06:11Z</time></trkpt><trkpt lat="14.699833756376051" lon="121.09130905914657"><ele>96.33333333333334</ele><time>2026-04-10T08:06:12Z</time></trkpt><trkpt lat="14.699891803237922" lon="121.09124292767683"><ele>97.0</ele><time>2026-04-10T08:06:13Z</time></trkpt><trkpt lat="14.69996209327232" lon="121.09116789640606"><ele>97.0</ele><time>2026-04-10T08:06:14Z</time></trkpt><trkpt lat="14.700019679232849" lon="121.09108499703711"><ele>97.0</ele><time>2026-04-10T08:06:15Z</time></trkpt><trkpt lat="14.700069504141576" lon="121.09099378503034"><ele>97.0</ele><time>2026-04-10T08:06:16Z</time></trkpt><trkpt lat="14.700115600027631" lon="121.09089842804819"><ele>97.0</ele><time>2026-04-10T08:06:17Z</time></trkpt><trkpt lat="14.700168026870756" lon="121.09079814051341"><ele>97.0</ele><time>2026-04-10T08:06:18Z</time></trkpt><trkpt lat="14.700212303490561" lon="121.09069345985962"><ele>96.25</ele><time>2026-04-10T08:06:19Z</time></trkpt><trkpt lat="14.70025017870653" lon="121.0905820453505"><ele>95.5</ele><time>2026-04-10T08:06:20Z</time></trkpt><trkpt lat="14.70028217235867" lon="121.09046133890946"><ele>94.75</ele><time>2026-04-10T08:06:21Z</time></trkpt><trkpt lat="14.700303229183646" lon="121.09034397067957"><ele>94.0</ele><time>2026-04-10T08:06:22Z</time></trkpt><trkpt lat="14.700317798133753" lon="121.0902229116394"><ele>94.0</ele><time>2026-04-10T08:06:23.001Z</time></trkpt><trkpt lat="14.70033951901842" lon="121.09009047801729"><ele>94.0</ele><time>2026-04-10T08:06:24.001Z</time></trkpt><trkpt lat="14.700352627321305" lon="121.08996325739066"><ele>94.0</ele><time>2026-04-10T08:06:25.001Z</time></trkpt><trkpt lat="14.700367980365122" lon="121.08983029252538"><ele>94.0</ele><time>2026-04-10T08:06:26.001Z</time></trkpt><trkpt lat="14.700362851237788" lon="121.08971763460069"><ele>93.6</ele><time>2026-04-10T08:06:27.001Z</time></trkpt><trkpt lat="14.700346558152528" lon="121.08959947992366"><ele>93.2</ele><time>2026-04-10T08:06:28.001Z</time></trkpt><trkpt lat="14.700333264510594" lon="121.08947970342409"><ele>92.8</ele><time>2026-04-10T08:06:29.001Z</time></trkpt><trkpt lat="14.700318124694883" lon="121.089374219354"><ele>92.39999999999999</ele><time>2026-04-10T08:06:30.001Z</time></trkpt><trkpt lat="14.700307526024936" lon="121.0892980517806"><ele>92.0</ele><time>2026-04-10T08:06:31.001Z</time></trkpt><trkpt lat="14.700273321637667" lon="121.08918723160559"><ele>92.0</ele><time>2026-04-10T08:06:33.001Z</time></trkpt><trkpt lat="14.700257317738389" lon="121.08910650376563"><ele>92.0</ele><time>2026-04-10T08:06:34.001Z</time></trkpt><trkpt lat="14.700238572047015" lon="121.08901683868655"><ele>92.0</ele><time>2026-04-10T08:06:35.001Z</time></trkpt><trkpt lat="14.700212721266379" lon="121.0889231126618"><ele>92.0</ele><time>2026-04-10T08:06:36.001Z</time></trkpt><trkpt lat="14.700183775252015" lon="121.08882864197969"><ele>92.0</ele><time>2026-04-10T08:06:37.001Z</time></trkpt><trkpt lat="14.700162482317499" lon="121.0887465393821"><ele>92.0</ele><time>2026-04-10T08:06:38.001Z</time></trkpt><trkpt lat="14.700139653276665" lon="121.08867279047432"><ele>92.5</ele><time>2026-04-10T08:06:39.001Z</time></trkpt><trkpt lat="14.700118707226938" lon="121.08860195590928"><ele>93.0</ele><time>2026-04-10T08:06:40.001Z</time></trkpt><trkpt lat="14.700101078748698" lon="121.08853774412188"><ele>93.5</ele><time>2026-04-10T08:06:41.001Z</time></trkpt><trkpt lat="14.700061516910704" lon="121.08845672077041"><ele>94.0</ele><time>2026-04-10T08:06:42.001Z</time></trkpt><trkpt lat="14.700065529880273" lon="121.08836399979315"><ele>94.5</ele><time>2026-04-10T08:06:43.001Z</time></trkpt><trkpt lat="14.700042305381706" lon="121.08826451558336"><ele>95.0</ele><time>2026-04-10T08:06:44.001Z</time></trkpt><trkpt lat="14.70002172507261" lon="121.08817635792803"><ele>95.0</ele><time>2026-04-10T08:06:45.001Z</time></trkpt><trkpt lat="14.700000517304407" lon="121.08808551164634"><ele>95.0</ele><time>2026-04-10T08:06:46.001Z</time></trkpt><trkpt lat="14.699978301251196" lon="121.08800050553516"><ele>95.0</ele><time>2026-04-10T08:06:47.001Z</time></trkpt><trkpt lat="14.699956298790003" lon="121.08791281001348"><ele>95.0</ele><time>2026-04-10T08:06:48.001Z</time></trkpt><trkpt lat="14.69993607126365" lon="121.0878321888379"><ele>95.0</ele><time>2026-04-10T08:06:49.001Z</time></trkpt><trkpt lat="14.69990177410916" lon="121.08775234000905"><ele>95.0</ele><time>2026-04-10T08:06:50.001Z</time></trkpt><trkpt lat="14.699894200116569" lon="121.08768455886079"><ele>95.0</ele><time>2026-04-10T08:06:51.001Z</time></trkpt><trkpt lat="14.699880491213213" lon="121.08761460782871"><ele>95.0</ele><time>2026-04-10T08:06:52.001Z</time></trkpt><trkpt lat="14.699884676896932" lon="121.0874931864146"><ele>95.0</ele><time>2026-04-10T08:06:54.001Z</time></trkpt><trkpt lat="14.699913278273435" lon="121.08743174048725"><ele>95.0</ele><time>2026-04-10T08:06:55.001Z</time></trkpt><trkpt lat="14.699939917770953" lon="121.08736633669929"><ele>95.0</ele><time>2026-04-10T08:06:56.001Z</time></trkpt><trkpt lat="14.699973663940165" lon="121.08730187867039"><ele>95.0</ele><time>2026-04-10T08:06:57.001Z</time></trkpt><trkpt lat="14.700013239278634" lon="121.0872363603467"><ele>94.6</ele><time>2026-04-10T08:06:58.001Z</time></trkpt><trkpt lat="14.700149696324562" lon="121.08722237290866"><ele>94.2</ele><time>2026-04-10T08:06:59.001Z</time></trkpt><trkpt lat="14.700238859946746" lon="121.08720411121053"><ele>93.80000000000001</ele><time>2026-04-10T08:07:00.001Z</time></trkpt><trkpt lat="14.70033072285602" lon="121.08716390996777"><ele>93.4</ele><time>2026-04-10T08:07:01.001Z</time></trkpt><trkpt lat="14.700430343367096" lon="121.08711958730012"><ele>93.0</ele><time>2026-04-10T08:07:02.001Z</time></trkpt><trkpt lat="14.70053291005199" lon="121.08707171787312"><ele>91.80000000000001</ele><time>2026-04-10T08:07:03.001Z</time></trkpt><trkpt lat="14.700637923815059" lon="121.08702156114678"><ele>90.6</ele><time>2026-04-10T08:07:04.001Z</time></trkpt><trkpt lat="14.700743944795622" lon="121.08697287614804"><ele>89.4</ele><time>2026-04-10T08:07:05.001Z</time></trkpt><trkpt lat="14.700844816186533" lon="121.08693247265485"><ele>88.19999999999999</ele><time>2026-04-10T08:07:06.001Z</time></trkpt><trkpt lat="14.700938060531294" lon="121.08689520980545"><ele>87.0</ele><time>2026-04-10T08:07:07.001Z</time></trkpt><trkpt lat="14.701035718769727" lon="121.0868489148017"><ele>85.5</ele><time>2026-04-10T08:07:08.001Z</time></trkpt><trkpt lat="14.701127106909363" lon="121.08679436819989"><ele>84.0</ele><time>2026-04-10T08:07:09.001Z</time></trkpt><trkpt lat="14.701232339568692" lon="121.08673953513059"><ele>82.5</ele><time>2026-04-10T08:07:10.001Z</time></trkpt><trkpt lat="14.701339871667043" lon="121.08668612911106"><ele>81.0</ele><time>2026-04-10T08:07:11.001Z</time></trkpt><trkpt lat="14.701451611054823" lon="121.08662929094827"><ele>81.25</ele><time>2026-04-10T08:07:12.001Z</time></trkpt><trkpt lat="14.701565299274398" lon="121.08657026325439"><ele>81.5</ele><time>2026-04-10T08:07:13.001Z</time></trkpt><trkpt lat="14.70168650388146" lon="121.08650225520411"><ele>81.75</ele><time>2026-04-10T08:07:14.001Z</time></trkpt><trkpt lat="14.701811972376138" lon="121.08643668997829"><ele>82.0</ele><time>2026-04-10T08:07:15.001Z</time></trkpt><trkpt lat="14.701941490898681" lon="121.0863643308744"><ele>80.66666666666666</ele><time>2026-04-10T08:07:16.001Z</time></trkpt><trkpt lat="14.702074753985254" lon="121.08628437588582"><ele>79.33333333333333</ele><time>2026-04-10T08:07:17.001Z</time></trkpt><trkpt lat="14.70221506115964" lon="121.08619950352934"><ele>78.0</ele><time>2026-04-10T08:07:18.001Z</time></trkpt><trkpt lat="14.702351574830919" lon="121.08611048237813"><ele>78.0</ele><time>2026-04-10T08:07:19.001Z</time></trkpt><trkpt lat="14.702479747682776" lon="121.08602487746441"><ele>78.0</ele><time>2026-04-10T08:07:20.001Z</time></trkpt><trkpt lat="14.702600761202412" lon="121.08594055376709"><ele>78.0</ele><time>2026-04-10T08:07:21.002Z</time></trkpt><trkpt lat="14.702716887485268" lon="121.08585754039497"><ele>78.0</ele><time>2026-04-10T08:07:22.002Z</time></trkpt><trkpt lat="14.702824744719106" lon="121.08577187193512"><ele>76.75</ele><time>2026-04-10T08:07:23.002Z</time></trkpt><trkpt lat="14.702922838295951" lon="121.08568713915155"><ele>75.5</ele><time>2026-04-10T08:07:24.002Z</time></trkpt><trkpt lat="14.703019432493539" lon="121.0855966885257"><ele>74.25</ele><time>2026-04-10T08:07:25.002Z</time></trkpt><trkpt lat="14.703112147649364" lon="121.08550887234506"><ele>73.0</ele><time>2026-04-10T08:07:26.002Z</time></trkpt><trkpt lat="14.703206102784307" lon="121.08542387323813"><ele>73.0</ele><time>2026-04-10T08:07:27.002Z</time></trkpt><trkpt lat="14.703299745980734" lon="121.08533883442283"><ele>73.0</ele><time>2026-04-10T08:07:28.002Z</time></trkpt><trkpt lat="14.7033918210687" lon="121.08525278858734"><ele>73.0</ele><time>2026-04-10T08:07:29.002Z</time></trkpt><trkpt lat="14.703485954326627" lon="121.08516219343485"><ele>73.0</ele><time>2026-04-10T08:07:30.002Z</time></trkpt><trkpt lat="14.703575628530345" lon="121.08506172511338"><ele>73.0</ele><time>2026-04-10T08:07:31.002Z</time></trkpt><trkpt lat="14.70366232628158" lon="121.08496839242927"><ele>73.0</ele><time>2026-04-10T08:07:32.002Z</time></trkpt><trkpt lat="14.703743422925534" lon="121.08486405340182"><ele>73.0</ele><time>2026-04-10T08:07:33.002Z</time></trkpt><trkpt lat="14.703819811669494" lon="121.08476464406517"><ele>73.0</ele><time>2026-04-10T08:07:34.002Z</time></trkpt><trkpt lat="14.703897883337714" lon="121.08466599386023"><ele>72.0</ele><time>2026-04-10T08:07:35.002Z</time></trkpt><trkpt lat="14.70397933687237" lon="121.08456066619352"><ele>71.0</ele><time>2026-04-10T08:07:36.002Z</time></trkpt><trkpt lat="14.704062484818385" lon="121.084456221864"><ele>70.0</ele><time>2026-04-10T08:07:37.002Z</time></trkpt><trkpt lat="14.704143740088432" lon="121.08433718207363"><ele>69.0</ele><time>2026-04-10T08:07:38.002Z</time></trkpt><trkpt lat="14.704219019248468" lon="121.08422206488629"><ele>69.0</ele><time>2026-04-10T08:07:39.002Z</time></trkpt><trkpt lat="14.704299687826017" lon="121.0840930737964"><ele>69.0</ele><time>2026-04-10T08:07:40.002Z</time></trkpt><trkpt lat="14.70437309309924" lon="121.08395872733308"><ele>69.0</ele><time>2026-04-10T08:07:41.002Z</time></trkpt><trkpt lat="14.704445724392636" lon="121.08381981279132"><ele>68.25</ele><time>2026-04-10T08:07:42.002Z</time></trkpt><trkpt lat="14.704516083613184" lon="121.08368095811413"><ele>67.5</ele><time>2026-04-10T08:07:43.002Z</time></trkpt><trkpt lat="14.704580985232836" lon="121.08354638269282"><ele>66.75</ele><time>2026-04-10T08:07:44.002Z</time></trkpt><trkpt lat="14.704643509303324" lon="121.08341250142425"><ele>66.0</ele><time>2026-04-10T08:07:45.002Z</time></trkpt><trkpt lat="14.704704103617493" lon="121.08327778005689"><ele>66.75</ele><time>2026-04-10T08:07:46.002Z</time></trkpt><trkpt lat="14.704760767805288" lon="121.08314799092632"><ele>67.5</ele><time>2026-04-10T08:07:47.002Z</time></trkpt><trkpt lat="14.704811293368733" lon="121.08302434496036"><ele>68.25</ele><time>2026-04-10T08:07:48.002Z</time></trkpt><trkpt lat="14.704854548452792" lon="121.08290955998142"><ele>69.0</ele><time>2026-04-10T08:07:49.002Z</time></trkpt><trkpt lat="14.70489094778942" lon="121.08280111044179"><ele>69.0</ele><time>2026-04-10T08:07:50.002Z</time></trkpt><trkpt lat="14.704922888791087" lon="121.0826967025156"><ele>69.0</ele><time>2026-04-10T08:07:51.002Z</time></trkpt><trkpt lat="14.704949000333366" lon="121.0826075934906"><ele>69.0</ele><time>2026-04-10T08:07:52.002Z</time></trkpt><trkpt lat="14.70497701444139" lon="121.0825224371565"><ele>69.0</ele><time>2026-04-10T08:07:53.002Z</time></trkpt><trkpt lat="14.70499899249421" lon="121.0824409668668"><ele>69.0</ele><time>2026-04-10T08:07:54.002Z</time></trkpt><trkpt lat="14.705017709445356" lon="121.08236090399569"><ele>69.0</ele><time>2026-04-10T08:07:55.002Z</time></trkpt><trkpt lat="14.705037463020528" lon="121.08228322774504"><ele>69.5</ele><time>2026-04-10T08:07:56.002Z</time></trkpt><trkpt lat="14.705065100857224" lon="121.08218218849075"><ele>70.0</ele><time>2026-04-10T08:07:58.002Z</time></trkpt><trkpt lat="14.705072275210407" lon="121.0820860955137"><ele>70.5</ele><time>2026-04-10T08:08:00.002Z</time></trkpt><trkpt lat="14.705107509103133" lon="121.08201700633104"><ele>71.0</ele><time>2026-04-10T08:08:02.001Z</time></trkpt><trkpt lat="14.705124160486383" lon="121.08193913383936"><ele>71.5</ele><time>2026-04-10T08:08:04.001Z</time></trkpt><trkpt lat="14.705137055089521" lon="121.08187342367923"><ele>72.0</ele><time>2026-04-10T08:08:05.001Z</time></trkpt><trkpt lat="14.705148299976367" lon="121.08179668751079"><ele>72.0</ele><time>2026-04-10T08:08:06.001Z</time></trkpt><trkpt lat="14.705157450559252" lon="121.08170976303379"><ele>72.0</ele><time>2026-04-10T08:08:07.001Z</time></trkpt><trkpt lat="14.705161852697227" lon="121.08162236697444"><ele>72.0</ele><time>2026-04-10T08:08:08.001Z</time></trkpt><trkpt lat="14.705163291698938" lon="121.08153137053452"><ele>72.0</ele><time>2026-04-10T08:08:09.001Z</time></trkpt><trkpt lat="14.705165869593243" lon="121.08143271064763"><ele>72.0</ele><time>2026-04-10T08:08:10.001Z</time></trkpt><trkpt lat="14.705171399418472" lon="121.08133828970328"><ele>72.0</ele><time>2026-04-10T08:08:11.001Z</time></trkpt><trkpt lat="14.705176255271157" lon="121.08125056394611"><ele>71.57142857142858</ele><time>2026-04-10T08:08:12.001Z</time></trkpt><trkpt lat="14.705177708149076" lon="121.08117319229439"><ele>71.14285714285714</ele><time>2026-04-10T08:08:13.001Z</time></trkpt><trkpt lat="14.705179740946328" lon="121.08109113328149"><ele>70.71428571428572</ele><time>2026-04-10T08:08:14.001Z</time></trkpt><trkpt lat="14.705177430774185" lon="121.08101103548331"><ele>70.28571428571429</ele><time>2026-04-10T08:08:15.001Z</time></trkpt><trkpt lat="14.705173413742" lon="121.08093703611152"><ele>69.85714285714286</ele><time>2026-04-10T08:08:16.001Z</time></trkpt><trkpt lat="14.705169457178838" lon="121.08086148625472"><ele>69.42857142857143</ele><time>2026-04-10T08:08:17.001Z</time></trkpt><trkpt lat="14.705165904224659" lon="121.08079082704946"><ele>69.0</ele><time>2026-04-10T08:08:18.001Z</time></trkpt><trkpt lat="14.705163430300782" lon="121.080725226811"><ele>69.0</ele><time>2026-04-10T08:08:19.001Z</time></trkpt><trkpt lat="14.705161586072702" lon="121.0806564332416"><ele>69.0</ele><time>2026-04-10T08:08:20.001Z</time></trkpt><trkpt lat="14.705161048904777" lon="121.08058320690012"><ele>69.0</ele><time>2026-04-10T08:08:21.001Z</time></trkpt><trkpt lat="14.705155096150602" lon="121.08051576618003"><ele>69.0</ele><time>2026-04-10T08:08:22.001Z</time></trkpt><trkpt lat="14.705143408339817" lon="121.08040133215385"><ele>69.0</ele><time>2026-04-10T08:08:24.001Z</time></trkpt><trkpt lat="14.705143450894717" lon="121.08032954954588"><ele>69.0</ele><time>2026-04-10T08:08:26.001Z</time></trkpt><trkpt lat="14.705127577729312" lon="121.0802614854406"><ele>69.0</ele><time>2026-04-10T08:08:29.001Z</time></trkpt><trkpt lat="14.705118746617142" lon="121.08017281782016"><ele>69.0</ele><time>2026-04-10T08:08:32.001Z</time></trkpt><trkpt lat="14.705119190146668" lon="121.08007626435997"><ele>69.0</ele><time>2026-04-10T08:08:34.001Z</time></trkpt><trkpt lat="14.705119687907892" lon="121.08000342281544"><ele>69.0</ele><time>2026-04-10T08:08:36.001Z</time></trkpt><trkpt lat="14.705120479982988" lon="121.07991706623474"><ele>69.0</ele><time>2026-04-10T08:08:38.001Z</time></trkpt><trkpt lat="14.70512135239995" lon="121.07982195025107"><ele>69.0</ele><time>2026-04-10T08:08:40.001Z</time></trkpt><trkpt lat="14.705122271324006" lon="121.07972176366663"><ele>68.66666666666667</ele><time>2026-04-10T08:08:42.001Z</time></trkpt><trkpt lat="14.705121304022812" lon="121.0796381060565"><ele>68.33333333333333</ele><time>2026-04-10T08:08:45.001Z</time></trkpt><trkpt lat="14.705145342270006" lon="121.07956913544677"><ele>68.0</ele><time>2026-04-10T08:08:47.001Z</time></trkpt><trkpt lat="14.705132815018084" lon="121.07945907514309"><ele>67.66666666666666</ele><time>2026-04-10T08:08:49.001Z</time></trkpt><trkpt lat="14.705153362517926" lon="121.07935827020192"><ele>67.33333333333333</ele><time>2026-04-10T08:08:51.001Z</time></trkpt><trkpt lat="14.705156385296464" lon="121.07928828546876"><ele>67.0</ele><time>2026-04-10T08:08:53.001Z</time></trkpt><trkpt lat="14.705147199454277" lon="121.07919570067455"><ele>67.0</ele><time>2026-04-10T08:08:55.001Z</time></trkpt><trkpt lat="14.705154126710223" lon="121.07911298259201"><ele>67.0</ele><time>2026-04-10T08:08:57.001Z</time></trkpt><trkpt lat="14.705160136163803" lon="121.07902209502258"><ele>67.0</ele><time>2026-04-10T08:08:59.001Z</time></trkpt><trkpt lat="14.70515295489725" lon="121.07891844705968"><ele>67.0</ele><time>2026-04-10T08:09:01.001Z</time></trkpt><trkpt lat="14.705149641024626" lon="121.07881441307494"><ele>67.0</ele><time>2026-04-10T08:09:03.001Z</time></trkpt><trkpt lat="14.705133835868198" lon="121.07870911367115"><ele>66.5</ele><time>2026-04-10T08:09:05.001Z</time></trkpt><trkpt lat="14.705130060149989" lon="121.0786183083399"><ele>66.0</ele><time>2026-04-10T08:09:07.001Z</time></trkpt><trkpt lat="14.70512763712058" lon="121.07851007135204"><ele>65.5</ele><time>2026-04-10T08:09:09.001Z</time></trkpt><trkpt lat="14.705123240172085" lon="121.0784300104681"><ele>65.0</ele><time>2026-04-10T08:09:10.001Z</time></trkpt><trkpt lat="14.705122144757368" lon="121.0783592350467"><ele>64.5</ele><time>2026-04-10T08:09:11.001Z</time></trkpt><trkpt lat="14.705126939779223" lon="121.07826022028613"><ele>64.0</ele><time>2026-04-10T08:09:13.001Z</time></trkpt><trkpt lat="14.705120154408919" lon="121.07818396058771"><ele>63.83333333333333</ele><time>2026-04-10T08:09:14.001Z</time></trkpt><trkpt lat="14.705122146734181" lon="121.07807699316693"><ele>63.666666666666664</ele><time>2026-04-10T08:09:16.001Z</time></trkpt><trkpt lat="14.705122219454926" lon="121.07800306185402"><ele>63.5</ele><time>2026-04-10T08:09:18.001Z</time></trkpt><trkpt lat="14.70513496030827" lon="121.07793262291634"><ele>63.33333333333333</ele><time>2026-04-10T08:09:19.001Z</time></trkpt><trkpt lat="14.70512818704245" lon="121.07783003512861"><ele>63.166666666666664</ele><time>2026-04-10T08:09:21.002Z</time></trkpt><trkpt lat="14.705148095817108" lon="121.07774683244438"><ele>63.0</ele><time>2026-04-10T08:09:22.002Z</time></trkpt><trkpt lat="14.705157769701941" lon="121.07766423733429"><ele>63.0</ele><time>2026-04-10T08:09:23.002Z</time></trkpt><trkpt lat="14.705165820613093" lon="121.07759814907638"><ele>63.0</ele><time>2026-04-10T08:09:24.002Z</time></trkpt><trkpt lat="14.705163305263195" lon="121.07752857814323"><ele>63.0</ele><time>2026-04-10T08:09:25.002Z</time></trkpt><trkpt lat="14.705159975989492" lon="121.07737638340124"><ele>63.0</ele><time>2026-04-10T08:09:27.002Z</time></trkpt><trkpt lat="14.705159418107868" lon="121.07729197929406"><ele>63.0</ele><time>2026-04-10T08:09:28.002Z</time></trkpt><trkpt lat="14.705156352617049" lon="121.0772098613394"><ele>63.0</ele><time>2026-04-10T08:09:29.002Z</time></trkpt><trkpt lat="14.705155792826671" lon="121.07711624572538"><ele>63.599999999999994</ele><time>2026-04-10T08:09:30.002Z</time></trkpt><trkpt lat="14.70515297924632" lon="121.07705107717547"><ele>64.19999999999999</ele><time>2026-04-10T08:09:31.002Z</time></trkpt><trkpt lat="14.705150231384154" lon="121.07692058931842"><ele>64.8</ele><time>2026-04-10T08:09:33.002Z</time></trkpt><trkpt lat="14.705147767272296" lon="121.07681312133818"><ele>65.39999999999999</ele><time>2026-04-10T08:09:35.002Z</time></trkpt><trkpt lat="14.705148950472694" lon="121.07671224055368"><ele>66.0</ele><time>2026-04-10T08:09:37.002Z</time></trkpt><trkpt lat="14.705148945014669" lon="121.07661817005537"><ele>65.83333333333333</ele><time>2026-04-10T08:09:39.002Z</time></trkpt><trkpt lat="14.70514653663479" lon="121.07650709672006"><ele>65.66666666666667</ele><time>2026-04-10T08:09:41.002Z</time></trkpt><trkpt lat="14.705148283133498" lon="121.07643870455081"><ele>65.5</ele><time>2026-04-10T08:09:42.002Z</time></trkpt><trkpt lat="14.705150381293231" lon="121.07636876939073"><ele>65.33333333333334</ele><time>2026-04-10T08:09:43.002Z</time></trkpt><trkpt lat="14.705149106309088" lon="121.07629810234971"><ele>65.16666666666667</ele><time>2026-04-10T08:09:44.002Z</time></trkpt><trkpt lat="14.705147863525196" lon="121.07623271454729"><ele>65.0</ele><time>2026-04-10T08:09:45.002Z</time></trkpt><trkpt lat="14.705148409648265" lon="121.07611291230437"><ele>65.0</ele><time>2026-04-10T08:09:47.002Z</time></trkpt><trkpt lat="14.705141619774093" lon="121.07600960230464"><ele>65.0</ele><time>2026-04-10T08:09:49.002Z</time></trkpt><trkpt lat="14.705138576054406" lon="121.07590741356208"><ele>65.0</ele><time>2026-04-10T08:09:52.002Z</time></trkpt><trkpt lat="14.70513984656534" lon="121.07583853054246"><ele>65.0</ele><time>2026-04-10T08:09:54.002Z</time></trkpt><trkpt lat="14.70515606652614" lon="121.07576724574973"><ele>65.0</ele><time>2026-04-10T08:10:01.002Z</time></trkpt><trkpt lat="14.705161559678224" lon="121.0756653628753"><ele>65.0</ele><time>2026-04-10T08:10:10.001Z</time></trkpt><trkpt lat="14.705160571802262" lon="121.07556997529359"><ele>64.66666666666667</ele><time>2026-04-10T08:10:12.001Z</time></trkpt><trkpt lat="14.705165280012745" lon="121.07550078511628"><ele>64.33333333333334</ele><time>2026-04-10T08:10:13.001Z</time></trkpt><trkpt lat="14.705165025554763" lon="121.07542071084612"><ele>64.0</ele><time>2026-04-10T08:10:14.001Z</time></trkpt><trkpt lat="14.705168389999313" lon="121.07533249731094"><ele>63.66666666666667</ele><time>2026-04-10T08:10:15.001Z</time></trkpt><trkpt lat="14.70517647572474" lon="121.07523494131799"><ele>63.333333333333336</ele><time>2026-04-10T08:10:16.001Z</time></trkpt><trkpt lat="14.705179200144984" lon="121.07514128218533"><ele>63.0</ele><time>2026-04-10T08:10:17.001Z</time></trkpt><trkpt lat="14.70518071889095" lon="121.07504839971642"><ele>63.0</ele><time>2026-04-10T08:10:18.001Z</time></trkpt><trkpt lat="14.705187405501311" lon="121.074956358937"><ele>63.0</ele><time>2026-04-10T08:10:19.001Z</time></trkpt><trkpt lat="14.705196335252266" lon="121.07486499093321"><ele>63.0</ele><time>2026-04-10T08:10:20.001Z</time></trkpt><trkpt lat="14.705211832444935" lon="121.074780584124"><ele>63.0</ele><time>2026-04-10T08:10:21.001Z</time></trkpt><trkpt lat="14.70522371230867" lon="121.07469092457421"><ele>63.0</ele><time>2026-04-10T08:10:22.001Z</time></trkpt><trkpt lat="14.705239544773818" lon="121.07459745786292"><ele>63.0</ele><time>2026-04-10T08:10:23.001Z</time></trkpt><trkpt lat="14.70526151925528" lon="121.07451484094554"><ele>63.2</ele><time>2026-04-10T08:10:24.001Z</time></trkpt><trkpt lat="14.705278707666455" lon="121.07442364446835"><ele>63.4</ele><time>2026-04-10T08:10:25.001Z</time></trkpt><trkpt lat="14.705301885545545" lon="121.07434083513184"><ele>63.60000000000001</ele><time>2026-04-10T08:10:26.001Z</time></trkpt><trkpt lat="14.70532459174939" lon="121.0742499983659"><ele>63.800000000000004</ele><time>2026-04-10T08:10:27.001Z</time></trkpt><trkpt lat="14.705339470721485" lon="121.07417610893069"><ele>64.0</ele><time>2026-04-10T08:10:28.001Z</time></trkpt><trkpt lat="14.70538055945066" lon="121.07404328535151"><ele>63.166666666666664</ele><time>2026-04-10T08:10:30.001Z</time></trkpt><trkpt lat="14.705393301329217" lon="121.07396495459945"><ele>62.33333333333333</ele><time>2026-04-10T08:10:31.001Z</time></trkpt><trkpt lat="14.705412269767665" lon="121.07387216330463"><ele>61.5</ele><time>2026-04-10T08:10:32.001Z</time></trkpt><trkpt lat="14.705433590015074" lon="121.07379148854096"><ele>60.66666666666667</ele><time>2026-04-10T08:10:33.001Z</time></trkpt><trkpt lat="14.705454355940205" lon="121.07372160033157"><ele>59.833333333333336</ele><time>2026-04-10T08:10:34.001Z</time></trkpt><trkpt lat="14.705484535081231" lon="121.07361773122904"><ele>59.0</ele><time>2026-04-10T08:10:36.001Z</time></trkpt><trkpt lat="14.7055116773419" lon="121.07351901749837"><ele>59.0</ele><time>2026-04-10T08:10:38.001Z</time></trkpt><trkpt lat="14.705544406459211" lon="121.07342784940856"><ele>59.00000000000001</ele><time>2026-04-10T08:10:40.001Z</time></trkpt><trkpt lat="14.705587511841685" lon="121.07332561048362"><ele>59.00000000000001</ele><time>2026-04-10T08:10:42.001Z</time></trkpt><trkpt lat="14.705628937092477" lon="121.07320441261534"><ele>59.0</ele><time>2026-04-10T08:10:44.001Z</time></trkpt><trkpt lat="14.705650638819934" lon="121.07314329125684"><ele>59.0</ele><time>2026-04-10T08:10:45.001Z</time></trkpt><trkpt lat="14.705692494644536" lon="121.07302606863117"><ele>59.2</ele><time>2026-04-10T08:10:47.001Z</time></trkpt><trkpt lat="14.705716282850336" lon="121.07295283775275"><ele>59.400000000000006</ele><time>2026-04-10T08:10:48.001Z</time></trkpt><trkpt lat="14.705768516805529" lon="121.07283390179367"><ele>59.6</ele><time>2026-04-10T08:10:50.001Z</time></trkpt><trkpt lat="14.705809070391398" lon="121.07272890595807"><ele>59.8</ele><time>2026-04-10T08:10:52.001Z</time></trkpt><trkpt lat="14.705857682696488" lon="121.07261232080303"><ele>60.0</ele><time>2026-04-10T08:10:54.001Z</time></trkpt><trkpt lat="14.705881946545814" lon="121.07253211669874"><ele>60.0</ele><time>2026-04-10T08:10:55.001Z</time></trkpt><trkpt lat="14.70591127100965" lon="121.07244557035327"><ele>60.0</ele><time>2026-04-10T08:10:56.001Z</time></trkpt><trkpt lat="14.705944733926657" lon="121.07234191114675"><ele>60.0</ele><time>2026-04-10T08:10:57.001Z</time></trkpt><trkpt lat="14.705980880974233" lon="121.07224676690265"><ele>60.0</ele><time>2026-04-10T08:10:58.001Z</time></trkpt><trkpt lat="14.706011858883036" lon="121.072151935067"><ele>60.0</ele><time>2026-04-10T08:10:59.001Z</time></trkpt><trkpt lat="14.706042025068113" lon="121.07206292138683"><ele>60.42857142857143</ele><time>2026-04-10T08:11:00.001Z</time></trkpt><trkpt lat="14.70606508809495" lon="121.0719878575733"><ele>60.857142857142854</ele><time>2026-04-10T08:11:01.001Z</time></trkpt><trkpt lat="14.706085981521895" lon="121.0719188234021"><ele>61.285714285714285</ele><time>2026-04-10T08:11:02.001Z</time></trkpt><trkpt lat="14.70611136561139" lon="121.07183061828661"><ele>61.714285714285715</ele><time>2026-04-10T08:11:04.001Z</time></trkpt><trkpt lat="14.706117641441422" lon="121.07174883797488"><ele>62.14285714285714</ele><time>2026-04-10T08:11:11.001Z</time></trkpt><trkpt lat="14.706142993736188" lon="121.07168246169635"><ele>62.57142857142857</ele><time>2026-04-10T08:11:13.001Z</time></trkpt><trkpt lat="14.706176883348109" lon="121.07162392966403"><ele>63.0</ele><time>2026-04-10T08:11:30.002Z</time></trkpt><trkpt lat="14.706211256227546" lon="121.07150936497274"><ele>63.166666666666664</ele><time>2026-04-10T08:11:32.002Z</time></trkpt><trkpt lat="14.706225453078492" lon="121.0714440344086"><ele>63.33333333333333</ele><time>2026-04-10T08:11:33.002Z</time></trkpt><trkpt lat="14.706243389284584" lon="121.07137790764871"><ele>63.5</ele><time>2026-04-10T08:11:34.002Z</time></trkpt><trkpt lat="14.706267140395795" lon="121.07130338556627"><ele>63.666666666666664</ele><time>2026-04-10T08:11:35.002Z</time></trkpt><trkpt lat="14.706296447189743" lon="121.07119817490792"><ele>63.83333333333333</ele><time>2026-04-10T08:11:37.002Z</time></trkpt><trkpt lat="14.706333345150854" lon="121.07110514336527"><ele>64.0</ele><time>2026-04-10T08:11:39.002Z</time></trkpt><trkpt lat="14.706357724738796" lon="121.0710425347051"><ele>64.0</ele><time>2026-04-10T08:11:41.002Z</time></trkpt><trkpt lat="14.706381821974881" lon="121.07097140677908"><ele>63.99999999999999</ele><time>2026-04-10T08:11:43.002Z</time></trkpt><trkpt lat="14.706402934272994" lon="121.07090791250002"><ele>64.0</ele><time>2026-04-10T08:11:45.002Z</time></trkpt><trkpt lat="14.70642975167106" lon="121.07083638444563"><ele>64.0</ele><time>2026-04-10T08:11:48.002Z</time></trkpt><trkpt lat="14.706445662272811" lon="121.07077232669688"><ele>63.99999999999999</ele><time>2026-04-10T08:11:50.002Z</time></trkpt><trkpt lat="14.706464516835156" lon="121.07070189669182"><ele>64.0</ele><time>2026-04-10T08:11:52.002Z</time></trkpt><trkpt lat="14.706488279760118" lon="121.0706238280923"><ele>64.0</ele><time>2026-04-10T08:11:55.002Z</time></trkpt><trkpt lat="14.706515460037053" lon="121.07053459451058"><ele>63.99999999999999</ele><time>2026-04-10T08:11:59.002Z</time></trkpt><trkpt lat="14.706527564375103" lon="121.07045882255389"><ele>64.0</ele><time>2026-04-10T08:12:01.002Z</time></trkpt><trkpt lat="14.706538095006108" lon="121.07033206175257"><ele>64.0</ele><time>2026-04-10T08:12:03.002Z</time></trkpt><trkpt lat="14.706535646365277" lon="121.0702488886203"><ele>64.0</ele><time>2026-04-10T08:12:04.002Z</time></trkpt><trkpt lat="14.706535285363618" lon="121.0701752939481"><ele>63.99999999999999</ele><time>2026-04-10T08:12:05.002Z</time></trkpt><trkpt lat="14.706535934342096" lon="121.07010232011704"><ele>64.0</ele><time>2026-04-10T08:12:06.002Z</time></trkpt><trkpt lat="14.70653179805026" lon="121.0700254056714"><ele>63.666666666666664</ele><time>2026-04-10T08:12:07.002Z</time></trkpt><trkpt lat="14.706526507367485" lon="121.06994087554357"><ele>63.33333333333333</ele><time>2026-04-10T08:12:08.002Z</time></trkpt><trkpt lat="14.706529285081002" lon="121.06986030914165"><ele>63.0</ele><time>2026-04-10T08:12:09.002Z</time></trkpt><trkpt lat="14.706534092942746" lon="121.06977970112261"><ele>62.66666666666667</ele><time>2026-04-10T08:12:10.002Z</time></trkpt><trkpt lat="14.706535166855419" lon="121.06968159481025"><ele>62.333333333333336</ele><time>2026-04-10T08:12:12.002Z</time></trkpt><trkpt lat="14.706536910718548" lon="121.06957961830895"><ele>62.0</ele><time>2026-04-10T08:12:15.001Z</time></trkpt><trkpt lat="14.706539916872247" lon="121.06948381529612"><ele>62.00000000000001</ele><time>2026-04-10T08:12:17.001Z</time></trkpt><trkpt lat="14.706534497454154" lon="121.06938705326877"><ele>62.0</ele><time>2026-04-10T08:12:19.001Z</time></trkpt><trkpt lat="14.706533723872399" lon="121.06929722167514"><ele>62.0</ele><time>2026-04-10T08:12:21.001Z</time></trkpt><trkpt lat="14.706528144105596" lon="121.06922899573586"><ele>62.0</ele><time>2026-04-10T08:12:24.001Z</time></trkpt><trkpt lat="14.706533792292984" lon="121.06915645792515"><ele>62.00000000000001</ele><time>2026-04-10T08:12:26.001Z</time></trkpt><trkpt lat="14.706534789713011" lon="121.06907572104726"><ele>62.0</ele><time>2026-04-10T08:12:29.001Z</time></trkpt><trkpt lat="14.706536845744793" lon="121.06900787651061"><ele>61.8</ele><time>2026-04-10T08:12:31.001Z</time></trkpt><trkpt lat="14.706531360045611" lon="121.06890778127517"><ele>61.6</ele><time>2026-04-10T08:12:33.001Z</time></trkpt><trkpt lat="14.706545944383775" lon="121.06879345177347"><ele>61.39999999999999</ele><time>2026-04-10T08:12:35.001Z</time></trkpt><trkpt lat="14.70656190940027" lon="121.06869846726157"><ele>61.199999999999996</ele><time>2026-04-10T08:12:37.001Z</time></trkpt><trkpt lat="14.706572203812566" lon="121.06859643026752"><ele>61.0</ele><time>2026-04-10T08:12:39.001Z</time></trkpt><trkpt lat="14.706562850046062" lon="121.06848610481202"><ele>60.99999999999999</ele><time>2026-04-10T08:12:41.001Z</time></trkpt><trkpt lat="14.706563104118821" lon="121.06837202886325"><ele>61.0</ele><time>2026-04-10T08:12:43.001Z</time></trkpt><trkpt lat="14.706562944935996" lon="121.06830414801941"><ele>61.0</ele><time>2026-04-10T08:12:44.001Z</time></trkpt><trkpt lat="14.706568974338298" lon="121.06819647371908"><ele>61.0</ele><time>2026-04-10T08:12:46.001Z</time></trkpt><trkpt lat="14.706569945114158" lon="121.06811961165127"><ele>60.99999999999999</ele><time>2026-04-10T08:12:48.001Z</time></trkpt><trkpt lat="14.706564183670286" lon="121.06802194514621"><ele>61.0</ele><time>2026-04-10T08:12:50.001Z</time></trkpt><trkpt lat="14.706561524781316" lon="121.06795415670138"><ele>60.0</ele><time>2026-04-10T08:12:51.001Z</time></trkpt><trkpt lat="14.706558267548424" lon="121.06785695965253"><ele>58.99999999999999</ele><time>2026-04-10T08:12:53.001Z</time></trkpt><trkpt lat="14.706554465432347" lon="121.06773184800313"><ele>57.99999999999999</ele><time>2026-04-10T08:12:55.001Z</time></trkpt><trkpt lat="14.706536617917095" lon="121.06760385624465"><ele>57.0</ele><time>2026-04-10T08:12:57.001Z</time></trkpt><trkpt lat="14.706567036959758" lon="121.06752563557704"><ele>56.0</ele><time>2026-04-10T08:12:58.001Z</time></trkpt><trkpt lat="14.706560637817233" lon="121.06743137265465"><ele>54.5</ele><time>2026-04-10T08:13:00.001Z</time></trkpt><trkpt lat="14.706570730349064" lon="121.06735290571696"><ele>53.0</ele><time>2026-04-10T08:13:01.001Z</time></trkpt><trkpt lat="14.70655682314991" lon="121.06717465620626"><ele>51.5</ele><time>2026-04-10T08:13:03.001Z</time></trkpt><trkpt lat="14.706550291349812" lon="121.06706939060449"><ele>50.0</ele><time>2026-04-10T08:13:04.001Z</time></trkpt><trkpt lat="14.706557651280646" lon="121.06696347824564"><ele>50.0</ele><time>2026-04-10T08:13:05.001Z</time></trkpt><trkpt lat="14.706567346593149" lon="121.06685816213098"><ele>50.0</ele><time>2026-04-10T08:13:06.001Z</time></trkpt><trkpt lat="14.706570116499364" lon="121.06675692382856"><ele>50.0</ele><time>2026-04-10T08:13:07.001Z</time></trkpt><trkpt lat="14.706571237860643" lon="121.06665772650499"><ele>50.0</ele><time>2026-04-10T08:13:08.001Z</time></trkpt><trkpt lat="14.706567990060046" lon="121.06656724742972"><ele>50.0</ele><time>2026-04-10T08:13:09.001Z</time></trkpt><trkpt lat="14.706565338779177" lon="121.06648924731638"><ele>50.00000000000001</ele><time>2026-04-10T08:13:10.001Z</time></trkpt><trkpt lat="14.706560755008011" lon="121.06642431505814"><ele>50.0</ele><time>2026-04-10T08:13:11.001Z</time></trkpt><trkpt lat="14.706560840433328" lon="121.06631021357416"><ele>50.0</ele><time>2026-04-10T08:13:13.001Z</time></trkpt><trkpt lat="14.706555713395593" lon="121.0662375776828"><ele>50.0</ele><time>2026-04-10T08:13:14.001Z</time></trkpt><trkpt lat="14.706551993756891" lon="121.06614784905251"><ele>50.00000000000001</ele><time>2026-04-10T08:13:15.001Z</time></trkpt><trkpt lat="14.706555699789892" lon="121.06605963327094"><ele>50.0</ele><time>2026-04-10T08:13:16.001Z</time></trkpt><trkpt lat="14.706558665582946" lon="121.06596081301156"><ele>50.0</ele><time>2026-04-10T08:13:17.001Z</time></trkpt><trkpt lat="14.706559210546809" lon="121.06586218958302"><ele>50.0</ele><time>2026-04-10T08:13:18.001Z</time></trkpt><trkpt lat="14.706560294287952" lon="121.06575847550423"><ele>50.0</ele><time>2026-04-10T08:13:19.001Z</time></trkpt><trkpt lat="14.70656138300547" lon="121.06564820983803"><ele>50.0</ele><time>2026-04-10T08:13:20.001Z</time></trkpt><trkpt lat="14.706563108185545" lon="121.06553429697972"><ele>50.0</ele><time>2026-04-10T08:13:21.001Z</time></trkpt><trkpt lat="14.706569964244595" lon="121.06540814030815"><ele>50.25</ele><time>2026-04-10T08:13:22.001Z</time></trkpt><trkpt lat="14.70658445861156" lon="121.06527888308051"><ele>50.5</ele><time>2026-04-10T08:13:23.001Z</time></trkpt><trkpt lat="14.706605921759973" lon="121.06515604921647"><ele>50.75</ele><time>2026-04-10T08:13:24.001Z</time></trkpt><trkpt lat="14.706631391456863" lon="121.0650421930079"><ele>51.0</ele><time>2026-04-10T08:13:25.001Z</time></trkpt><trkpt lat="14.706660554019214" lon="121.06493871803201"><ele>51.0</ele><time>2026-04-10T08:13:26.001Z</time></trkpt><trkpt lat="14.706702574680909" lon="121.06482435336034"><ele>51.0</ele><time>2026-04-10T08:13:27.001Z</time></trkpt><trkpt lat="14.706755038166724" lon="121.06469911885232"><ele>51.0</ele><time>2026-04-10T08:13:28.001Z</time></trkpt><trkpt lat="14.70681710397768" lon="121.06457544399622"><ele>51.0</ele><time>2026-04-10T08:13:29.001Z</time></trkpt><trkpt lat="14.706887237198046" lon="121.06444459061268"><ele>52.0</ele><time>2026-04-10T08:13:30.001Z</time></trkpt><trkpt lat="14.706956028478267" lon="121.06432071024327"><ele>53.0</ele><time>2026-04-10T08:13:31.001Z</time></trkpt><trkpt lat="14.707014797671158" lon="121.06421327124316"><ele>54.0</ele><time>2026-04-10T08:13:32.001Z</time></trkpt><trkpt lat="14.707082002650072" lon="121.06410251315057"><ele>55.0</ele><time>2026-04-10T08:13:33.001Z</time></trkpt><trkpt lat="14.707159367430334" lon="121.06401417945574"><ele>55.2</ele><time>2026-04-10T08:13:34.001Z</time></trkpt><trkpt lat="14.707247662903727" lon="121.06392552468834"><ele>55.4</ele><time>2026-04-10T08:13:35.001Z</time></trkpt><trkpt lat="14.707336837407201" lon="121.06384587446617"><ele>55.599999999999994</ele><time>2026-04-10T08:13:36.001Z</time></trkpt><trkpt lat="14.707422821947064" lon="121.0637682397313"><ele>55.8</ele><time>2026-04-10T08:13:37.001Z</time></trkpt><trkpt lat="14.70749246930051" lon="121.06370333887595"><ele>56.0</ele><time>2026-04-10T08:13:38.001Z</time></trkpt><trkpt lat="14.707558082173277" lon="121.06364116648311"><ele>56.0</ele><time>2026-04-10T08:13:39.001Z</time></trkpt><trkpt lat="14.707624710894384" lon="121.06358484484049"><ele>56.0</ele><time>2026-04-10T08:13:40.001Z</time></trkpt><trkpt lat="14.707688860455878" lon="121.06353365544001"><ele>56.0</ele><time>2026-04-10T08:13:41.001Z</time></trkpt><trkpt lat="14.707740120239533" lon="121.06348991017258"><ele>56.0</ele><time>2026-04-10T08:13:42.002Z</time></trkpt><trkpt lat="14.707790324414757" lon="121.0634470859359"><ele>56.0</ele><time>2026-04-10T08:13:43.002Z</time></trkpt><trkpt lat="14.70784167442901" lon="121.06340325945227"><ele>56.0</ele><time>2026-04-10T08:13:44.002Z</time></trkpt><trkpt lat="14.70789624581961" lon="121.06335776456051"><ele>56.0</ele><time>2026-04-10T08:13:45.002Z</time></trkpt><trkpt lat="14.707959208781968" lon="121.06330413410252"><ele>57.00000000000001</ele><time>2026-04-10T08:13:46.002Z</time></trkpt><trkpt lat="14.708040093287543" lon="121.06324632571754"><ele>58.0</ele><time>2026-04-10T08:13:47.002Z</time></trkpt><trkpt lat="14.708112480480022" lon="121.06319590712293"><ele>59.0</ele><time>2026-04-10T08:13:48.002Z</time></trkpt><trkpt lat="14.70817827179059" lon="121.06313304828993"><ele>60.0</ele><time>2026-04-10T08:13:49.002Z</time></trkpt><trkpt lat="14.7082363669516" lon="121.06308338662718"><ele>61.00000000000001</ele><time>2026-04-10T08:13:50.002Z</time></trkpt><trkpt lat="14.708292293194223" lon="121.06303523553348"><ele>62.0</ele><time>2026-04-10T08:13:51.002Z</time></trkpt><trkpt lat="14.708381614057465" lon="121.06296204799557"><ele>62.0</ele><time>2026-04-10T08:13:53.002Z</time></trkpt><trkpt lat="14.708473808824671" lon="121.06288351443082"><ele>62.0</ele><time>2026-04-10T08:13:55.002Z</time></trkpt><trkpt lat="14.708565040343652" lon="121.062799707508"><ele>62.0</ele><time>2026-04-10T08:13:57.002Z</time></trkpt><trkpt lat="14.708609821980799" lon="121.06275266167529"><ele>62.0</ele><time>2026-04-10T08:13:58.002Z</time></trkpt><trkpt lat="14.708662524788625" lon="121.06270491082057"><ele>62.0</ele><time>2026-04-10T08:13:59.002Z</time></trkpt><trkpt lat="14.708724582116574" lon="121.0626569704457"><ele>61.6</ele><time>2026-04-10T08:14:00.002Z</time></trkpt><trkpt lat="14.708791580923922" lon="121.06260864618972"><ele>61.2</ele><time>2026-04-10T08:14:01.002Z</time></trkpt><trkpt lat="14.708858983211398" lon="121.06255208341834"><ele>60.8</ele><time>2026-04-10T08:14:02.002Z</time></trkpt><trkpt lat="14.708931457190491" lon="121.06248404633577"><ele>60.4</ele><time>2026-04-10T08:14:03.002Z</time></trkpt><trkpt lat="14.70901304086406" lon="121.06241387363639"><ele>60.0</ele><time>2026-04-10T08:14:04.002Z</time></trkpt><trkpt lat="14.709100059436201" lon="121.06233819862585"><ele>59.5</ele><time>2026-04-10T08:14:05.002Z</time></trkpt><trkpt lat="14.709193939365658" lon="121.062259871224"><ele>59.0</ele><time>2026-04-10T08:14:06.002Z</time></trkpt><trkpt lat="14.709288832056966" lon="121.06218162029964"><ele>58.5</ele><time>2026-04-10T08:14:07.002Z</time></trkpt><trkpt lat="14.709387145881323" lon="121.06210091043157"><ele>58.0</ele><time>2026-04-10T08:14:08.002Z</time></trkpt><trkpt lat="14.709492384084443" lon="121.06201391664035"><ele>57.0</ele><time>2026-04-10T08:14:09.002Z</time></trkpt><trkpt lat="14.709590687353428" lon="121.0619324744243"><ele>56.0</ele><time>2026-04-10T08:14:10.002Z</time></trkpt><trkpt lat="14.709686709137861" lon="121.06185388748666"><ele>55.0</ele><time>2026-04-10T08:14:11.002Z</time></trkpt><trkpt lat="14.709779107082872" lon="121.06177204494094"><ele>54.0</ele><time>2026-04-10T08:14:12.002Z</time></trkpt><trkpt lat="14.709875224545348" lon="121.0616898253065"><ele>54.0</ele><time>2026-04-10T08:14:13.002Z</time></trkpt><trkpt lat="14.709966708251473" lon="121.06161189674532"><ele>54.0</ele><time>2026-04-10T08:14:14.002Z</time></trkpt><trkpt lat="14.710057935799647" lon="121.06153693080309"><ele>54.0</ele><time>2026-04-10T08:14:15.002Z</time></trkpt><trkpt lat="14.710149383619576" lon="121.0614632822219"><ele>54.0</ele><time>2026-04-10T08:14:16.002Z</time></trkpt><trkpt lat="14.710246975068527" lon="121.0613926105923"><ele>53.5</ele><time>2026-04-10T08:14:17.002Z</time></trkpt><trkpt lat="14.710339471092954" lon="121.06131604139374"><ele>53.0</ele><time>2026-04-10T08:14:18.002Z</time></trkpt><trkpt lat="14.710435628386442" lon="121.06123127178839"><ele>52.5</ele><time>2026-04-10T08:14:19.002Z</time></trkpt><trkpt lat="14.710541800195154" lon="121.06114298253918"><ele>52.0</ele><time>2026-04-10T08:14:20.001Z</time></trkpt><trkpt lat="14.710649941010558" lon="121.0610578211071"><ele>52.0</ele><time>2026-04-10T08:14:21Z</time></trkpt><trkpt lat="14.710761674645873" lon="121.06097008546367"><ele>52.0</ele><time>2026-04-10T08:14:22.001Z</time></trkpt><trkpt lat="14.710874702532275" lon="121.06088033776544"><ele>52.0</ele><time>2026-04-10T08:14:23.001Z</time></trkpt><trkpt lat="14.710992316713549" lon="121.06078662384833"><ele>52.0</ele><time>2026-04-10T08:14:24Z</time></trkpt><trkpt lat="14.711114564395007" lon="121.06069252772159"><ele>53.0</ele><time>2026-04-10T08:14:25Z</time></trkpt><trkpt lat="14.711237324035165" lon="121.06059303074767"><ele>54.0</ele><time>2026-04-10T08:14:26Z</time></trkpt><trkpt lat="14.711363900143608" lon="121.06049077907258"><ele>55.0</ele><time>2026-04-10T08:14:27Z</time></trkpt><trkpt lat="14.71149008399519" lon="121.06038479924781"><ele>55.0</ele><time>2026-04-10T08:14:28Z</time></trkpt><trkpt lat="14.711620678784707" lon="121.06027899800245"><ele>55.0</ele><time>2026-04-10T08:14:29Z</time></trkpt><trkpt lat="14.711754783644654" lon="121.06016779994052"><ele>55.0</ele><time>2026-04-10T08:14:30Z</time></trkpt><trkpt lat="14.711886681722971" lon="121.0600614300927"><ele>55.33333333333333</ele><time>2026-04-10T08:14:31Z</time></trkpt><trkpt lat="14.71201502509565" lon="121.0599514900177"><ele>55.66666666666667</ele><time>2026-04-10T08:14:32Z</time></trkpt><trkpt lat="14.712149937486032" lon="121.0598425675629"><ele>56.0</ele><time>2026-04-10T08:14:33Z</time></trkpt><trkpt lat="14.712289397238697" lon="121.05972732232516"><ele>55.333333333333336</ele><time>2026-04-10T08:14:34Z</time></trkpt><trkpt lat="14.7124309852652" lon="121.05960569370912"><ele>54.66666666666667</ele><time>2026-04-10T08:14:35Z</time></trkpt><trkpt lat="14.712569852867036" lon="121.05948567974983"><ele>54.0</ele><time>2026-04-10T08:14:36Z</time></trkpt><trkpt lat="14.712710029348436" lon="121.05937319880995"><ele>54.33333333333333</ele><time>2026-04-10T08:14:37.001Z</time></trkpt><trkpt lat="14.712843147870974" lon="121.05927300837799"><ele>54.666666666666664</ele><time>2026-04-10T08:14:38.001Z</time></trkpt><trkpt lat="14.712972867569112" lon="121.05918413991243"><ele>55.0</ele><time>2026-04-10T08:14:39.001Z</time></trkpt><trkpt lat="14.713077272351512" lon="121.05910505843411"><ele>55.0</ele><time>2026-04-10T08:14:40.001Z</time></trkpt><trkpt lat="14.71317837669622" lon="121.05902756099412"><ele>55.0</ele><time>2026-04-10T08:14:41.001Z</time></trkpt><trkpt lat="14.71326813220457" lon="121.05895518584184"><ele>55.0</ele><time>2026-04-10T08:14:42.001Z</time></trkpt><trkpt lat="14.71334210969276" lon="121.05890308898103"><ele>55.0</ele><time>2026-04-10T08:14:43.001Z</time></trkpt><trkpt lat="14.713401837616448" lon="121.05886414398833"><ele>55.0</ele><time>2026-04-10T08:14:44.001Z</time></trkpt><trkpt lat="14.713482945182454" lon="121.05881284545674"><ele>54.99999999999999</ele><time>2026-04-10T08:14:46.001Z</time></trkpt><trkpt lat="14.713542834292047" lon="121.05876510253455"><ele>55.0</ele><time>2026-04-10T08:14:51.001Z</time></trkpt><trkpt lat="14.7135830427078" lon="121.0588504977999"><ele>55.0</ele><time>2026-04-10T08:26:05Z</time></trkpt><trkpt lat="14.713647942709898" lon="121.05879042051795"><ele>55.0</ele><time>2026-04-10T09:07:57.004Z</time></trkpt><trkpt lat="14.713584440655485" lon="121.0587813522365"><ele>54.99999999999999</ele><time>2026-04-10T09:09:02Z</time></trkpt><trkpt lat="14.7135850826886" lon="121.05870888626103"><ele>55.0</ele><time>2026-04-10T09:09:07Z</time></trkpt><trkpt lat="14.713673344821444" lon="121.05861746248655"><ele>54.8</ele><time>2026-04-10T09:09:09Z</time></trkpt><trkpt lat="14.713733570590763" lon="121.05857472452831"><ele>54.6</ele><time>2026-04-10T09:09:10Z</time></trkpt><trkpt lat="14.71379997323005" lon="121.05851943805285"><ele>54.400000000000006</ele><time>2026-04-10T09:09:11Z</time></trkpt><trkpt lat="14.713873181229829" lon="121.05844880690104"><ele>54.2</ele><time>2026-04-10T09:09:12Z</time></trkpt><trkpt lat="14.713955186934685" lon="121.05837174308401"><ele>54.0</ele><time>2026-04-10T09:09:13Z</time></trkpt><trkpt lat="14.714039170337253" lon="121.05829928196422"><ele>53.800000000000004</ele><time>2026-04-10T09:09:14Z</time></trkpt><trkpt lat="14.714118766937746" lon="121.05822764362671"><ele>53.60000000000001</ele><time>2026-04-10T09:09:15Z</time></trkpt><trkpt lat="14.714189284603139" lon="121.05816318274904"><ele>53.4</ele><time>2026-04-10T09:09:16Z</time></trkpt><trkpt lat="14.714259776377578" lon="121.05809974241996"><ele>53.2</ele><time>2026-04-10T09:09:17Z</time></trkpt><trkpt lat="14.714329933786868" lon="121.05803466471923"><ele>53.0</ele><time>2026-04-10T09:09:18Z</time></trkpt><trkpt lat="14.714395341794662" lon="121.05797526228476"><ele>52.4</ele><time>2026-04-10T09:09:19Z</time></trkpt><trkpt lat="14.714458937792449" lon="121.05791460797913"><ele>51.8</ele><time>2026-04-10T09:09:20Z</time></trkpt><trkpt lat="14.71451689241136" lon="121.05786317247639"><ele>51.2</ele><time>2026-04-10T09:09:21Z</time></trkpt><trkpt lat="14.714608814135694" lon="121.05778031006207"><ele>50.6</ele><time>2026-04-10T09:09:23.001Z</time></trkpt><trkpt lat="14.71469477828457" lon="121.05770457982868"><ele>50.0</ele><time>2026-04-10T09:09:25.001Z</time></trkpt><trkpt lat="14.714772780548152" lon="121.05763571343202"><ele>50.0</ele><time>2026-04-10T09:09:27.001Z</time></trkpt><trkpt lat="14.714860488805716" lon="121.05755716614078"><ele>50.0</ele><time>2026-04-10T09:09:29.001Z</time></trkpt><trkpt lat="14.714951274596872" lon="121.05748633708619"><ele>50.0</ele><time>2026-04-10T09:09:31.001Z</time></trkpt><trkpt lat="14.715042235672046" lon="121.0574048267863"><ele>50.0</ele><time>2026-04-10T09:09:33.001Z</time></trkpt><trkpt lat="14.715107514856347" lon="121.05736983905987"><ele>50.0</ele><time>2026-04-10T09:09:34.001Z</time></trkpt><trkpt lat="14.71516942532503" lon="121.05731767145365"><ele>50.00000000000001</ele><time>2026-04-10T09:09:35.001Z</time></trkpt><trkpt lat="14.7152278260614" lon="121.05726794476193"><ele>50.0</ele><time>2026-04-10T09:09:36.001Z</time></trkpt><trkpt lat="14.715287235600092" lon="121.05721787296572"><ele>50.0</ele><time>2026-04-10T09:09:37.001Z</time></trkpt><trkpt lat="14.715345226965397" lon="121.05716907913668"><ele>50.0</ele><time>2026-04-10T09:09:38.001Z</time></trkpt><trkpt lat="14.715398929921417" lon="121.0571241220718"><ele>50.00000000000001</ele><time>2026-04-10T09:09:39.001Z</time></trkpt><trkpt lat="14.715456379344436" lon="121.05707604168023"><ele>50.0</ele><time>2026-04-10T09:09:40.001Z</time></trkpt><trkpt lat="14.715522167587146" lon="121.05702098240032"><ele>50.6</ele><time>2026-04-10T09:09:41.001Z</time></trkpt><trkpt lat="14.715590063946234" lon="121.05696428231592"><ele>51.2</ele><time>2026-04-10T09:09:42.001Z</time></trkpt><trkpt lat="14.71566311941953" lon="121.0569033166518"><ele>51.8</ele><time>2026-04-10T09:09:43.001Z</time></trkpt><trkpt lat="14.715739512253812" lon="121.05683956592617"><ele>52.4</ele><time>2026-04-10T09:09:44.001Z</time></trkpt><trkpt lat="14.71582418844389" lon="121.0567689025999"><ele>53.0</ele><time>2026-04-10T09:09:45.001Z</time></trkpt><trkpt lat="14.715916738753108" lon="121.05669187018434"><ele>53.25</ele><time>2026-04-10T09:09:46.001Z</time></trkpt><trkpt lat="14.71601230789111" lon="121.05661231922883"><ele>53.5</ele><time>2026-04-10T09:09:47.001Z</time></trkpt><trkpt lat="14.716113655851032" lon="121.05652795803677"><ele>53.75</ele><time>2026-04-10T09:09:48.001Z</time></trkpt><trkpt lat="14.716216372789383" lon="121.05644245733605"><ele>54.0</ele><time>2026-04-10T09:09:49.001Z</time></trkpt><trkpt lat="14.716322737077382" lon="121.05635392060873"><ele>55.25</ele><time>2026-04-10T09:09:50.001Z</time></trkpt><trkpt lat="14.716435030476742" lon="121.05626044852524"><ele>56.5</ele><time>2026-04-10T09:09:51.001Z</time></trkpt><trkpt lat="14.716543355665785" lon="121.05617027957817"><ele>57.75</ele><time>2026-04-10T09:09:52.001Z</time></trkpt><trkpt lat="14.716653561741182" lon="121.05607854498679"><ele>59.0</ele><time>2026-04-10T09:09:53Z</time></trkpt><trkpt lat="14.716758150021871" lon="121.0559914865715"><ele>59.0</ele><time>2026-04-10T09:09:54Z</time></trkpt><trkpt lat="14.716854135068251" lon="121.05591141337159"><ele>59.0</ele><time>2026-04-10T09:09:55Z</time></trkpt><trkpt lat="14.716949342779014" lon="121.05583198632951"><ele>59.0</ele><time>2026-04-10T09:09:56Z</time></trkpt><trkpt lat="14.717042630066214" lon="121.05575414434902"><ele>59.0</ele><time>2026-04-10T09:09:56.999Z</time></trkpt><trkpt lat="14.717135576469037" lon="121.05567658829798"><ele>59.0</ele><time>2026-04-10T09:09:58Z</time></trkpt><trkpt lat="14.717225969458966" lon="121.0556011629074"><ele>59.00000000000001</ele><time>2026-04-10T09:09:59Z</time></trkpt><trkpt lat="14.717306760457845" lon="121.05553011302969"><ele>59.00000000000001</ele><time>2026-04-10T09:10:00Z</time></trkpt><trkpt lat="14.717378227991352" lon="121.05546447193235"><ele>59.0</ele><time>2026-04-10T09:10:01Z</time></trkpt><trkpt lat="14.717459639913043" lon="121.05540920434956"><ele>59.0</ele><time>2026-04-10T09:10:02Z</time></trkpt><trkpt lat="14.717541102419487" lon="121.05533829611389"><ele>59.0</ele><time>2026-04-10T09:10:03Z</time></trkpt><trkpt lat="14.717626918385784" lon="121.05526687829393"><ele>59.0</ele><time>2026-04-10T09:10:04Z</time></trkpt><trkpt lat="14.717719755647703" lon="121.05518961726088"><ele>59.0</ele><time>2026-04-10T09:10:05Z</time></trkpt><trkpt lat="14.717811063032388" lon="121.05509804404026"><ele>59.0</ele><time>2026-04-10T09:10:06Z</time></trkpt><trkpt lat="14.717911561098719" lon="121.05501490265709"><ele>59.0</ele><time>2026-04-10T09:10:07Z</time></trkpt><trkpt lat="14.718014430139462" lon="121.05493085198887"><ele>59.0</ele><time>2026-04-10T09:10:08Z</time></trkpt><trkpt lat="14.71811476425268" lon="121.05484810931254"><ele>59.0</ele><time>2026-04-10T09:10:09Z</time></trkpt><trkpt lat="14.718215799092253" lon="121.05476704053906"><ele>59.0</ele><time>2026-04-10T09:10:10Z</time></trkpt><trkpt lat="14.718322479023048" lon="121.05468007694786"><ele>59.0</ele><time>2026-04-10T09:10:11Z</time></trkpt><trkpt lat="14.71843179029507" lon="121.0545914816837"><ele>59.0</ele><time>2026-04-10T09:10:12Z</time></trkpt><trkpt lat="14.718535404355942" lon="121.05450134049468"><ele>59.0</ele><time>2026-04-10T09:10:13Z</time></trkpt><trkpt lat="14.718629304505592" lon="121.05441771885779"><ele>59.0</ele><time>2026-04-10T09:10:14Z</time></trkpt><trkpt lat="14.718715332081564" lon="121.05434312185697"><ele>59.00000000000001</ele><time>2026-04-10T09:10:15Z</time></trkpt><trkpt lat="14.718801482584695" lon="121.05428877374915"><ele>59.0</ele><time>2026-04-10T09:10:16Z</time></trkpt><trkpt lat="14.718863731053254" lon="121.05423667752858"><ele>59.0</ele><time>2026-04-10T09:10:17Z</time></trkpt><trkpt lat="14.718919327397222" lon="121.05419031788306"><ele>59.0</ele><time>2026-04-10T09:10:18Z</time></trkpt><trkpt lat="14.718981489360328" lon="121.05413776375822"><ele>59.00000000000001</ele><time>2026-04-10T09:10:19Z</time></trkpt><trkpt lat="14.719054894979374" lon="121.05407704536081"><ele>59.0</ele><time>2026-04-10T09:10:20Z</time></trkpt><trkpt lat="14.719139846331693" lon="121.05400614684035"><ele>58.75</ele><time>2026-04-10T09:10:21Z</time></trkpt><trkpt lat="14.719228301045924" lon="121.05393250264723"><ele>58.5</ele><time>2026-04-10T09:10:22Z</time></trkpt><trkpt lat="14.719325696074073" lon="121.05385141510672"><ele>58.25</ele><time>2026-04-10T09:10:23Z</time></trkpt><trkpt lat="14.719427061825986" lon="121.0537669646066"><ele>58.0</ele><time>2026-04-10T09:10:24Z</time></trkpt><trkpt lat="14.719533556151715" lon="121.0536781956742"><ele>57.5</ele><time>2026-04-10T09:10:25Z</time></trkpt><trkpt lat="14.719634753300356" lon="121.05357495051494"><ele>57.0</ele><time>2026-04-10T09:10:26Z</time></trkpt><trkpt lat="14.719748417952655" lon="121.05348129878986"><ele>56.5</ele><time>2026-04-10T09:10:27Z</time></trkpt><trkpt lat="14.719864930022794" lon="121.05338932762443"><ele>56.0</ele><time>2026-04-10T09:10:28Z</time></trkpt><trkpt lat="14.719984314045654" lon="121.05329292235436"><ele>55.75</ele><time>2026-04-10T09:10:29Z</time></trkpt><trkpt lat="14.720101948345388" lon="121.05319504854826"><ele>55.5</ele><time>2026-04-10T09:10:30Z</time></trkpt><trkpt lat="14.720218469024294" lon="121.05309494493852"><ele>55.25</ele><time>2026-04-10T09:10:31Z</time></trkpt><trkpt lat="14.720328172582507" lon="121.05299709170778"><ele>55.0</ele><time>2026-04-10T09:10:32Z</time></trkpt><trkpt lat="14.720439125500409" lon="121.05290605086054"><ele>55.0</ele><time>2026-04-10T09:10:33Z</time></trkpt><trkpt lat="14.720547661624135" lon="121.05281395991723"><ele>55.0</ele><time>2026-04-10T09:10:34Z</time></trkpt><trkpt lat="14.720638005717545" lon="121.05273639394943"><ele>55.0</ele><time>2026-04-10T09:10:35Z</time></trkpt><trkpt lat="14.720729925044834" lon="121.05265900508829"><ele>55.0</ele><time>2026-04-10T09:10:36Z</time></trkpt><trkpt lat="14.720825442272982" lon="121.05260113178589"><ele>54.99999999999999</ele><time>2026-04-10T09:10:37.001Z</time></trkpt><trkpt lat="14.72089567795911" lon="121.05252095222137"><ele>55.0</ele><time>2026-04-10T09:10:38.001Z</time></trkpt><trkpt lat="14.720971349313976" lon="121.05245916039026"><ele>55.0</ele><time>2026-04-10T09:10:39.001Z</time></trkpt><trkpt lat="14.721037535559104" lon="121.05240685248249"><ele>55.0</ele><time>2026-04-10T09:10:40.001Z</time></trkpt><trkpt lat="14.72108607803054" lon="121.052365091237"><ele>54.99999999999999</ele><time>2026-04-10T09:10:41.001Z</time></trkpt><trkpt lat="14.72115618131744" lon="121.05230851074626"><ele>55.0</ele><time>2026-04-10T09:10:43.001Z</time></trkpt><trkpt lat="14.721218326283777" lon="121.05227160207768"><ele>54.8</ele><time>2026-04-10T09:11:41.002Z</time></trkpt><trkpt lat="14.721282921813126" lon="121.05221722138104"><ele>54.6</ele><time>2026-04-10T09:12:30Z</time></trkpt><trkpt lat="14.72138495823814" lon="121.05212976930075"><ele>54.400000000000006</ele><time>2026-04-10T09:12:32Z</time></trkpt><trkpt lat="14.721450344651878" lon="121.05207587706053"><ele>54.2</ele><time>2026-04-10T09:12:33Z</time></trkpt><trkpt lat="14.721530336403776" lon="121.05200905930718"><ele>54.0</ele><time>2026-04-10T09:12:34Z</time></trkpt><trkpt lat="14.721622471542762" lon="121.05193244736209"><ele>54.0</ele><time>2026-04-10T09:12:35Z</time></trkpt><trkpt lat="14.7217159955007" lon="121.05185382162416"><ele>54.0</ele><time>2026-04-10T09:12:36Z</time></trkpt><trkpt lat="14.721811151345022" lon="121.05175598097176"><ele>54.0</ele><time>2026-04-10T09:12:37Z</time></trkpt><trkpt lat="14.72192604156248" lon="121.05166720477983"><ele>54.0</ele><time>2026-04-10T09:12:38Z</time></trkpt><trkpt lat="14.722046041942159" lon="121.05156785087226"><ele>54.0</ele><time>2026-04-10T09:12:39Z</time></trkpt><trkpt lat="14.722173718073693" lon="121.05146557038644"><ele>54.0</ele><time>2026-04-10T09:12:40Z</time></trkpt><trkpt lat="14.722299892213458" lon="121.05136215308383"><ele>54.0</ele><time>2026-04-10T09:12:41Z</time></trkpt><trkpt lat="14.722421012838057" lon="121.05125480157751"><ele>54.0</ele><time>2026-04-10T09:12:42Z</time></trkpt><trkpt lat="14.722536837220135" lon="121.05115771069525"><ele>54.0</ele><time>2026-04-10T09:12:43Z</time></trkpt><trkpt lat="14.72265229625989" lon="121.05106782284881"><ele>54.0</ele><time>2026-04-10T09:12:44.001Z</time></trkpt><trkpt lat="14.722761220411245" lon="121.05098240681467"><ele>54.0</ele><time>2026-04-10T09:12:45.001Z</time></trkpt><trkpt lat="14.722869318883212" lon="121.05090090472585"><ele>54.25</ele><time>2026-04-10T09:12:46.001Z</time></trkpt><trkpt lat="14.722978882005698" lon="121.05081260663219"><ele>54.5</ele><time>2026-04-10T09:12:47.001Z</time></trkpt><trkpt lat="14.72308761581407" lon="121.05072529696506"><ele>54.75</ele><time>2026-04-10T09:12:48.001Z</time></trkpt><trkpt lat="14.723196268794888" lon="121.05063555244071"><ele>55.0</ele><time>2026-04-10T09:12:49.001Z</time></trkpt><trkpt lat="14.723303687586357" lon="121.05054069933367"><ele>55.25</ele><time>2026-04-10T09:12:50.001Z</time></trkpt><trkpt lat="14.72341198558229" lon="121.05044606446212"><ele>55.5</ele><time>2026-04-10T09:12:51.001Z</time></trkpt><trkpt lat="14.723522355993286" lon="121.05035095762635"><ele>55.75</ele><time>2026-04-10T09:12:52.001Z</time></trkpt><trkpt lat="14.723639770079394" lon="121.05025826447007"><ele>56.0</ele><time>2026-04-10T09:12:53.001Z</time></trkpt><trkpt lat="14.723758160521596" lon="121.05016424785708"><ele>56.0</ele><time>2026-04-10T09:12:54.001Z</time></trkpt><trkpt lat="14.723872711032387" lon="121.05006645308278"><ele>56.0</ele><time>2026-04-10T09:12:55.001Z</time></trkpt><trkpt lat="14.723983166258053" lon="121.04997495019005"><ele>56.0</ele><time>2026-04-10T09:12:56.001Z</time></trkpt><trkpt lat="14.72410503760574" lon="121.04987346670288"><ele>56.0</ele><time>2026-04-10T09:12:57.001Z</time></trkpt><trkpt lat="14.724217478550896" lon="121.04977583155195"><ele>55.66666666666667</ele><time>2026-04-10T09:12:58.001Z</time></trkpt><trkpt lat="14.724333079419138" lon="121.04967934702053"><ele>55.33333333333333</ele><time>2026-04-10T09:12:59.001Z</time></trkpt><trkpt lat="14.724447770397504" lon="121.04957735946492"><ele>55.0</ele><time>2026-04-10T09:13:00.001Z</time></trkpt><trkpt lat="14.724566131295216" lon="121.04947610640777"><ele>53.0</ele><time>2026-04-10T09:13:01.001Z</time></trkpt><trkpt lat="14.724689916398908" lon="121.04937117667181"><ele>51.0</ele><time>2026-04-10T09:13:02.001Z</time></trkpt><trkpt lat="14.724816183195419" lon="121.04927347505088"><ele>49.0</ele><time>2026-04-10T09:13:03.001Z</time></trkpt><trkpt lat="14.724939219480433" lon="121.0491747937311"><ele>49.400000000000006</ele><time>2026-04-10T09:13:04.001Z</time></trkpt><trkpt lat="14.725055073229912" lon="121.04908454969221"><ele>49.8</ele><time>2026-04-10T09:13:05.001Z</time></trkpt><trkpt lat="14.725153719027343" lon="121.04900499950189"><ele>50.2</ele><time>2026-04-10T09:13:06.001Z</time></trkpt><trkpt lat="14.725230675401034" lon="121.0489432558543"><ele>50.599999999999994</ele><time>2026-04-10T09:13:07.001Z</time></trkpt><trkpt lat="14.72528891403094" lon="121.0488916312669"><ele>51.0</ele><time>2026-04-10T09:13:08.001Z</time></trkpt><trkpt lat="14.725337762607365" lon="121.04884907130923"><ele>51.0</ele><time>2026-04-10T09:13:09.001Z</time></trkpt><trkpt lat="14.725399853762687" lon="121.04880148902907"><ele>51.0</ele><time>2026-04-10T09:13:10.001Z</time></trkpt><trkpt lat="14.725479670375556" lon="121.04874239322899"><ele>51.0</ele><time>2026-04-10T09:13:11.001Z</time></trkpt><trkpt lat="14.725565705618537" lon="121.0486690160487"><ele>51.0</ele><time>2026-04-10T09:13:12.001Z</time></trkpt><trkpt lat="14.725656968100123" lon="121.04858732294727"><ele>51.0</ele><time>2026-04-10T09:13:13.001Z</time></trkpt><trkpt lat="14.725758378422766" lon="121.04851031917356"><ele>51.0</ele><time>2026-04-10T09:13:14.001Z</time></trkpt><trkpt lat="14.725860422432941" lon="121.0484230426307"><ele>51.0</ele><time>2026-04-10T09:13:15.001Z</time></trkpt><trkpt lat="14.725967637228514" lon="121.0483293498453"><ele>51.0</ele><time>2026-04-10T09:13:16.001Z</time></trkpt><trkpt lat="14.726081336692024" lon="121.04823538610765"><ele>51.0</ele><time>2026-04-10T09:13:17.001Z</time></trkpt><trkpt lat="14.726200525375033" lon="121.04813744244214"><ele>53.33333333333333</ele><time>2026-04-10T09:13:18.001Z</time></trkpt><trkpt lat="14.726323322725323" lon="121.04803709897858"><ele>55.666666666666664</ele><time>2026-04-10T09:13:19.001Z</time></trkpt><trkpt lat="14.726454138097989" lon="121.04793522663255"><ele>58.0</ele><time>2026-04-10T09:13:20.001Z</time></trkpt><trkpt lat="14.726587426736488" lon="121.04783183701421"><ele>58.0</ele><time>2026-04-10T09:13:21.001Z</time></trkpt><trkpt lat="14.726724358827147" lon="121.04773166829828"><ele>58.0</ele><time>2026-04-10T09:13:22.001Z</time></trkpt><trkpt lat="14.726864025939275" lon="121.04763984639334"><ele>58.0</ele><time>2026-04-10T09:13:23.001Z</time></trkpt><trkpt lat="14.72701108861916" lon="121.04756671275359"><ele>58.666666666666664</ele><time>2026-04-10T09:13:24.001Z</time></trkpt><trkpt lat="14.7271642117317" lon="121.04751369950928"><ele>59.33333333333333</ele><time>2026-04-10T09:13:25.001Z</time></trkpt><trkpt lat="14.727332500953542" lon="121.0474692353713"><ele>60.0</ele><time>2026-04-10T09:13:26.001Z</time></trkpt><trkpt lat="14.727500200970033" lon="121.04744005568422"><ele>60.0</ele><time>2026-04-10T09:13:27.001Z</time></trkpt><trkpt lat="14.72767034497225" lon="121.04742616327556"><ele>60.0</ele><time>2026-04-10T09:13:28.001Z</time></trkpt><trkpt lat="14.7278475673292" lon="121.047430667823"><ele>60.0</ele><time>2026-04-10T09:13:29.001Z</time></trkpt><trkpt lat="14.728024044602138" lon="121.04744190514204"><ele>60.33333333333333</ele><time>2026-04-10T09:13:30.001Z</time></trkpt><trkpt lat="14.728202462622578" lon="121.04744731622874"><ele>60.666666666666664</ele><time>2026-04-10T09:13:31.001Z</time></trkpt><trkpt lat="14.728384933289329" lon="121.04744497433012"><ele>61.0</ele><time>2026-04-10T09:13:32.001Z</time></trkpt><trkpt lat="14.728570502285438" lon="121.04744469827085"><ele>63.0</ele><time>2026-04-10T09:13:33.001Z</time></trkpt><trkpt lat="14.728755409162483" lon="121.04744738683307"><ele>65.0</ele><time>2026-04-10T09:13:34.001Z</time></trkpt><trkpt lat="14.728945699491549" lon="121.04745305292009"><ele>67.0</ele><time>2026-04-10T09:13:35.001Z</time></trkpt><trkpt lat="14.729129065949536" lon="121.04745352251217"><ele>67.0</ele><time>2026-04-10T09:13:36.001Z</time></trkpt><trkpt lat="14.729316080498881" lon="121.04745562491318"><ele>67.0</ele><time>2026-04-10T09:13:37.001Z</time></trkpt><trkpt lat="14.729507253638326" lon="121.04746060471886"><ele>67.0</ele><time>2026-04-10T09:13:38.001Z</time></trkpt><trkpt lat="14.729697528496667" lon="121.04746308653063"><ele>67.66666666666666</ele><time>2026-04-10T09:13:39.001Z</time></trkpt><trkpt lat="14.72987377242661" lon="121.04746522120283"><ele>68.33333333333333</ele><time>2026-04-10T09:13:40.001Z</time></trkpt><trkpt lat="14.730032770293693" lon="121.04746562489964"><ele>69.0</ele><time>2026-04-10T09:13:41.001Z</time></trkpt><trkpt lat="14.730183287605204" lon="121.04746693460079"><ele>69.5</ele><time>2026-04-10T09:13:42.001Z</time></trkpt><trkpt lat="14.730332372798332" lon="121.04746782233912"><ele>70.0</ele><time>2026-04-10T09:13:43.001Z</time></trkpt><trkpt lat="14.730474450645094" lon="121.04746938508336"><ele>70.5</ele><time>2026-04-10T09:13:44.001Z</time></trkpt><trkpt lat="14.730598170922994" lon="121.04747391797086"><ele>71.0</ele><time>2026-04-10T09:13:45.001Z</time></trkpt><trkpt lat="14.730697074532502" lon="121.04747440697784"><ele>71.0</ele><time>2026-04-10T09:13:46.001Z</time></trkpt><trkpt lat="14.73076998284654" lon="121.0474746004309"><ele>71.0</ele><time>2026-04-10T09:13:47.001Z</time></trkpt><trkpt lat="14.730872720609748" lon="121.04747676215061"><ele>71.0</ele><time>2026-04-10T09:13:49.001Z</time></trkpt><trkpt lat="14.730965777402067" lon="121.04748094349588"><ele>71.0</ele><time>2026-04-10T09:13:51.002Z</time></trkpt><trkpt lat="14.731028380087652" lon="121.047473395906"><ele>71.0</ele><time>2026-04-10T09:13:53.002Z</time></trkpt><trkpt lat="14.731107827528081" lon="121.04747517771739"><ele>71.0</ele><time>2026-04-10T09:13:56.002Z</time></trkpt><trkpt lat="14.731123031088469" lon="121.04729674532388"><ele>71.0</ele><time>2026-04-10T09:13:58.002Z</time></trkpt><trkpt lat="14.73110899988602" lon="121.04722884064043"><ele>71.0</ele><time>2026-04-10T09:13:59.002Z</time></trkpt><trkpt lat="14.731084828142642" lon="121.0471624882797"><ele>71.0</ele><time>2026-04-10T09:14:03.002Z</time></trkpt><trkpt lat="14.731051782889697" lon="121.04704614089107"><ele>71.0</ele><time>2026-04-10T09:14:06Z</time></trkpt><trkpt lat="14.731041977187418" lon="121.04697506408601"><ele>71.0</ele><time>2026-04-10T09:14:07Z</time></trkpt><trkpt lat="14.73102594763495" lon="121.04689178718911"><ele>71.0</ele><time>2026-04-10T09:14:08Z</time></trkpt><trkpt lat="14.731010455054845" lon="121.04680398560058"><ele>70.39999999999999</ele><time>2026-04-10T09:14:09Z</time></trkpt><trkpt lat="14.73099292620268" lon="121.04671138093386"><ele>69.8</ele><time>2026-04-10T09:14:10Z</time></trkpt><trkpt lat="14.730990248229482" lon="121.04659819397381"><ele>69.19999999999999</ele><time>2026-04-10T09:14:11Z</time></trkpt><trkpt lat="14.730972318547693" lon="121.04647850037236"><ele>68.6</ele><time>2026-04-10T09:14:12Z</time></trkpt><trkpt lat="14.730942028518164" lon="121.04635511254405"><ele>68.0</ele><time>2026-04-10T09:14:13Z</time></trkpt><trkpt lat="14.730928835759597" lon="121.0462387081029"><ele>67.6</ele><time>2026-04-10T09:14:14Z</time></trkpt><trkpt lat="14.730910402313766" lon="121.04612911546255"><ele>67.19999999999999</ele><time>2026-04-10T09:14:15Z</time></trkpt><trkpt lat="14.730894407554496" lon="121.04603207625071"><ele>66.8</ele><time>2026-04-10T09:14:16Z</time></trkpt><trkpt lat="14.730882484895714" lon="121.0459467344015"><ele>66.39999999999999</ele><time>2026-04-10T09:14:17Z</time></trkpt><trkpt lat="14.730864730998873" lon="121.04586139259864"><ele>66.0</ele><time>2026-04-10T09:14:18Z</time></trkpt><trkpt lat="14.73085419118581" lon="121.04577828404231"><ele>65.66666666666667</ele><time>2026-04-10T09:14:19Z</time></trkpt><trkpt lat="14.73084390942543" lon="121.0456967375114"><ele>65.33333333333333</ele><time>2026-04-10T09:14:20Z</time></trkpt><trkpt lat="14.730832333143457" lon="121.04561314363328"><ele>65.0</ele><time>2026-04-10T09:14:21Z</time></trkpt><trkpt lat="14.730823622985405" lon="121.04553149358719"><ele>64.66666666666666</ele><time>2026-04-10T09:14:22Z</time></trkpt><trkpt lat="14.730812047028714" lon="121.04544642773826"><ele>64.33333333333333</ele><time>2026-04-10T09:14:23Z</time></trkpt><trkpt lat="14.730798505261406" lon="121.04536022886089"><ele>64.0</ele><time>2026-04-10T09:14:24Z</time></trkpt><trkpt lat="14.730780636583248" lon="121.04527989903758"><ele>64.0</ele><time>2026-04-10T09:14:25Z</time></trkpt><trkpt lat="14.730758958320235" lon="121.04519693404069"><ele>64.0</ele><time>2026-04-10T09:14:26Z</time></trkpt><trkpt lat="14.730725875347241" lon="121.045110646323"><ele>64.0</ele><time>2026-04-10T09:14:27Z</time></trkpt><trkpt lat="14.73067729534956" lon="121.0450302482831"><ele>64.0</ele><time>2026-04-10T09:14:28Z</time></trkpt><trkpt lat="14.730642157908383" lon="121.04493815407673"><ele>64.0</ele><time>2026-04-10T09:14:29Z</time></trkpt><trkpt lat="14.730581831821631" lon="121.04485426708432"><ele>64.2</ele><time>2026-04-10T09:14:30Z</time></trkpt><trkpt lat="14.73051869403572" lon="121.04476585442058"><ele>64.4</ele><time>2026-04-10T09:14:31Z</time></trkpt><trkpt lat="14.730449344215808" lon="121.04469080135311"><ele>64.6</ele><time>2026-04-10T09:14:32Z</time></trkpt><trkpt lat="14.730393846444361" lon="121.04460884587625"><ele>64.8</ele><time>2026-04-10T09:14:33Z</time></trkpt><trkpt lat="14.730340974635851" lon="121.04453323011177"><ele>65.0</ele><time>2026-04-10T09:14:34Z</time></trkpt><trkpt lat="14.730290693398663" lon="121.0444593677664"><ele>65.0</ele><time>2026-04-10T09:14:35Z</time></trkpt><trkpt lat="14.730239414900057" lon="121.04438836094586"><ele>65.0</ele><time>2026-04-10T09:14:36Z</time></trkpt><trkpt lat="14.730189214717399" lon="121.04431509042878"><ele>65.0</ele><time>2026-04-10T09:14:37Z</time></trkpt><trkpt lat="14.7301435819202" lon="121.04424636828416"><ele>65.0</ele><time>2026-04-10T09:14:38Z</time></trkpt><trkpt lat="14.73009914717013" lon="121.04418487794172"><ele>65.0</ele><time>2026-04-10T09:14:39Z</time></trkpt><trkpt lat="14.730047653180307" lon="121.04411234166211"><ele>65.0</ele><time>2026-04-10T09:14:40Z</time></trkpt><trkpt lat="14.72999927490747" lon="121.04403981833205"><ele>64.0</ele><time>2026-04-10T09:14:41Z</time></trkpt><trkpt lat="14.729951601831926" lon="121.0439652930634"><ele>63.0</ele><time>2026-04-10T09:14:42Z</time></trkpt><trkpt lat="14.729901203772657" lon="121.04389079608114"><ele>62.0</ele><time>2026-04-10T09:14:43Z</time></trkpt><trkpt lat="14.729848959136078" lon="121.04381617746056"><ele>61.0</ele><time>2026-04-10T09:14:44Z</time></trkpt><trkpt lat="14.729793553374705" lon="121.0437364329161"><ele>60.0</ele><time>2026-04-10T09:14:45Z</time></trkpt><trkpt lat="14.729735627386924" lon="121.0436521987985"><ele>60.0</ele><time>2026-04-10T09:14:46Z</time></trkpt><trkpt lat="14.729678369053858" lon="121.04356545728349"><ele>60.0</ele><time>2026-04-10T09:14:47Z</time></trkpt><trkpt lat="14.729621206887487" lon="121.0434785734754"><ele>60.0</ele><time>2026-04-10T09:14:48Z</time></trkpt><trkpt lat="14.729569807531197" lon="121.04339755176964"><ele>60.0</ele><time>2026-04-10T09:14:49Z</time></trkpt><trkpt lat="14.729519643737483" lon="121.04332015029964"><ele>60.0</ele><time>2026-04-10T09:14:50Z</time></trkpt><trkpt lat="14.729469209612194" lon="121.04324649488142"><ele>60.0</ele><time>2026-04-10T09:14:51Z</time></trkpt><trkpt lat="14.729421089053089" lon="121.0431764350079"><ele>60.0</ele><time>2026-04-10T09:14:52.001Z</time></trkpt><trkpt lat="14.729376133182733" lon="121.04311017451211"><ele>60.0</ele><time>2026-04-10T09:14:53.001Z</time></trkpt><trkpt lat="14.729325805652241" lon="121.04303522981229"><ele>60.0</ele><time>2026-04-10T09:14:54.001Z</time></trkpt><trkpt lat="14.729283607695878" lon="121.04296999765144"><ele>60.0</ele><time>2026-04-10T09:14:55.001Z</time></trkpt><trkpt lat="14.729239367711642" lon="121.04291257442648"><ele>60.0</ele><time>2026-04-10T09:14:56.001Z</time></trkpt><trkpt lat="14.729182797290154" lon="121.04282349699365"><ele>59.5</ele><time>2026-04-10T09:14:58.001Z</time></trkpt><trkpt lat="14.729113371946527" lon="121.04272066614709"><ele>59.0</ele><time>2026-04-10T09:15:00.001Z</time></trkpt><trkpt lat="14.729076570964816" lon="121.0426628357457"><ele>58.5</ele><time>2026-04-10T09:15:01.001Z</time></trkpt><trkpt lat="14.729039682099506" lon="121.04260546592978"><ele>58.0</ele><time>2026-04-10T09:15:02.001Z</time></trkpt><trkpt lat="14.729001294241023" lon="121.04254922498511"><ele>57.5</ele><time>2026-04-10T09:15:03.001Z</time></trkpt><trkpt lat="14.728944597117355" lon="121.04247615431181"><ele>57.0</ele><time>2026-04-10T09:15:05.001Z</time></trkpt><trkpt lat="14.72889016531562" lon="121.042402154583"><ele>56.666666666666664</ele><time>2026-04-10T09:15:08.001Z</time></trkpt><trkpt lat="14.728834522274127" lon="121.04233448589315"><ele>56.33333333333333</ele><time>2026-04-10T09:15:10.001Z</time></trkpt><trkpt lat="14.728784273070097" lon="121.04224395742456"><ele>56.0</ele><time>2026-04-10T09:15:12.001Z</time></trkpt><trkpt lat="14.728746188437785" lon="121.04218637031066"><ele>55.666666666666664</ele><time>2026-04-10T09:15:13.001Z</time></trkpt><trkpt lat="14.728696158118664" lon="121.04213267842825"><ele>55.33333333333333</ele><time>2026-04-10T09:15:14.001Z</time></trkpt><trkpt lat="14.728658256555333" lon="121.04206699943094"><ele>55.0</ele><time>2026-04-10T09:15:15.001Z</time></trkpt><trkpt lat="14.728624740961283" lon="121.04200579283372"><ele>55.0</ele><time>2026-04-10T09:15:16.001Z</time></trkpt><trkpt lat="14.728570322086465" lon="121.04192114018593"><ele>55.0</ele><time>2026-04-10T09:15:18.001Z</time></trkpt><trkpt lat="14.728534119090538" lon="121.04186044567393"><ele>55.0</ele><time>2026-04-10T09:15:20.001Z</time></trkpt><trkpt lat="14.728420067734158" lon="121.04179486552727"><ele>55.0</ele><time>2026-04-10T09:15:22.001Z</time></trkpt><trkpt lat="14.728347666393962" lon="121.04175745833287"><ele>55.0</ele><time>2026-04-10T09:15:23.001Z</time></trkpt><trkpt lat="14.728265864308836" lon="121.04172574646239"><ele>54.2</ele><time>2026-04-10T09:15:24.001Z</time></trkpt><trkpt lat="14.728171978630016" lon="121.04170070216051"><ele>53.4</ele><time>2026-04-10T09:15:25.001Z</time></trkpt><trkpt lat="14.728069212834995" lon="121.04167392223"><ele>52.599999999999994</ele><time>2026-04-10T09:15:26.001Z</time></trkpt><trkpt lat="14.727969118225266" lon="121.0416454823189"><ele>51.8</ele><time>2026-04-10T09:15:27.001Z</time></trkpt><trkpt lat="14.727862539169452" lon="121.04162070807836"><ele>51.0</ele><time>2026-04-10T09:15:28.001Z</time></trkpt><trkpt lat="14.72774961473513" lon="121.04159767355668"><ele>50.75</ele><time>2026-04-10T09:15:29.001Z</time></trkpt><trkpt lat="14.727635904110901" lon="121.04157292024101"><ele>50.5</ele><time>2026-04-10T09:15:30.001Z</time></trkpt><trkpt lat="14.727520981663424" lon="121.04154562955925"><ele>50.25</ele><time>2026-04-10T09:15:31.001Z</time></trkpt><trkpt lat="14.727403049509054" lon="121.04152031377639"><ele>50.0</ele><time>2026-04-10T09:15:32.001Z</time></trkpt><trkpt lat="14.727282841303555" lon="121.04149246673653"><ele>50.0</ele><time>2026-04-10T09:15:33.001Z</time></trkpt><trkpt lat="14.727159688186216" lon="121.04146150666418"><ele>50.0</ele><time>2026-04-10T09:15:34.001Z</time></trkpt><trkpt lat="14.72703417056948" lon="121.04143187411394"><ele>50.0</ele><time>2026-04-10T09:15:35.001Z</time></trkpt><trkpt lat="14.726903614417864" lon="121.04140149997367"><ele>50.0</ele><time>2026-04-10T09:15:36.001Z</time></trkpt><trkpt lat="14.726776786563258" lon="121.04137253905657"><ele>50.0</ele><time>2026-04-10T09:15:37.001Z</time></trkpt><trkpt lat="14.726649615226098" lon="121.04134088363801"><ele>50.0</ele><time>2026-04-10T09:15:38.001Z</time></trkpt><trkpt lat="14.726522393789004" lon="121.04130890454925"><ele>50.0</ele><time>2026-04-10T09:15:39.001Z</time></trkpt><trkpt lat="14.72640373312497" lon="121.04128239390297"><ele>50.0</ele><time>2026-04-10T09:15:40.001Z</time></trkpt><trkpt lat="14.726296629500466" lon="121.04125923728711"><ele>50.00000000000001</ele><time>2026-04-10T09:15:41.001Z</time></trkpt><trkpt lat="14.726204218916843" lon="121.0412386463771"><ele>50.0</ele><time>2026-04-10T09:15:42.001Z</time></trkpt><trkpt lat="14.726126383610328" lon="121.04122215097587"><ele>50.0</ele><time>2026-04-10T09:15:43.001Z</time></trkpt><trkpt lat="14.726062330290882" lon="121.04120813558514"><ele>50.0</ele><time>2026-04-10T09:15:44.001Z</time></trkpt><trkpt lat="14.72596255133695" lon="121.04118228106842"><ele>50.00000000000001</ele><time>2026-04-10T09:15:46.001Z</time></trkpt><trkpt lat="14.725911091858991" lon="121.04113885381344"><ele>50.0</ele><time>2026-04-10T09:15:49.001Z</time></trkpt><trkpt lat="14.72587539323926" lon="121.04098258161996"><ele>49.6</ele><time>2026-04-10T09:15:53.001Z</time></trkpt><trkpt lat="14.725863763568029" lon="121.0408998128227"><ele>49.2</ele><time>2026-04-10T09:15:56.001Z</time></trkpt><trkpt lat="14.72583440680062" lon="121.04081701102834"><ele>48.8</ele><time>2026-04-10T09:15:59.001Z</time></trkpt><trkpt lat="14.725805630019149" lon="121.04075245217419"><ele>48.4</ele><time>2026-04-10T09:16:02.001Z</time></trkpt><trkpt lat="14.725717137954181" lon="121.04076943737705"><ele>48.0</ele><time>2026-04-10T09:16:04.002Z</time></trkpt><trkpt lat="14.725583778620923" lon="121.04078800062727"><ele>48.0</ele><time>2026-04-10T09:16:06.002Z</time></trkpt><trkpt lat="14.725512642280895" lon="121.0407961148609"><ele>48.0</ele><time>2026-04-10T09:16:07.002Z</time></trkpt><trkpt lat="14.725445912525785" lon="121.04080709155251"><ele>48.0</ele><time>2026-04-10T09:16:08.002Z</time></trkpt><trkpt lat="14.725330480876053" lon="121.04081576296362"><ele>48.0</ele><time>2026-04-10T09:16:10.002Z</time></trkpt><trkpt lat="14.725262648065032" lon="121.04082521199683"><ele>48.0</ele><time>2026-04-10T09:16:11Z</time></trkpt><trkpt lat="14.725188296914022" lon="121.04083577753723"><ele>48.0</ele><time>2026-04-10T09:16:12Z</time></trkpt><trkpt lat="14.725108226331923" lon="121.04084457967852"><ele>47.833333333333336</ele><time>2026-04-10T09:16:13Z</time></trkpt><trkpt lat="14.725026676247326" lon="121.04085315134971"><ele>47.666666666666664</ele><time>2026-04-10T09:16:14Z</time></trkpt><trkpt lat="14.72495396060314" lon="121.0408636099511"><ele>47.5</ele><time>2026-04-10T09:16:15Z</time></trkpt><trkpt lat="14.72489105443318" lon="121.04087351952299"><ele>47.33333333333333</ele><time>2026-04-10T09:16:16Z</time></trkpt><trkpt lat="14.724795596142007" lon="121.04088936228366"><ele>47.166666666666664</ele><time>2026-04-10T09:16:18Z</time></trkpt><trkpt lat="14.72472146805726" lon="121.04088509326357"><ele>47.0</ele><time>2026-04-10T09:16:20Z</time></trkpt><trkpt lat="14.72461935185468" lon="121.04089006410766"><ele>47.0</ele><time>2026-04-10T09:16:22Z</time></trkpt><trkpt lat="14.724524166733964" lon="121.04090448662463"><ele>47.0</ele><time>2026-04-10T09:16:24Z</time></trkpt><trkpt lat="14.724466257477276" lon="121.0407659417855"><ele>47.0</ele><time>2026-04-10T09:16:25Z</time></trkpt><trkpt lat="14.7243719804908" lon="121.04077263474535"><ele>47.0</ele><time>2026-04-10T09:16:27Z</time></trkpt><trkpt lat="14.724260106120193" lon="121.04078137300428"><ele>47.0</ele><time>2026-04-10T09:16:29Z</time></trkpt><trkpt lat="14.724160717133527" lon="121.04078895318248"><ele>46.857142857142854</ele><time>2026-04-10T09:16:31Z</time></trkpt><trkpt lat="14.724089647818769" lon="121.04079437350258"><ele>46.71428571428571</ele><time>2026-04-10T09:16:33Z</time></trkpt><trkpt lat="14.72401380174054" lon="121.0408001581384"><ele>46.57142857142857</ele><time>2026-04-10T09:16:35Z</time></trkpt><trkpt lat="14.723969343400345" lon="121.04085817294622"><ele>46.42857142857143</ele><time>2026-04-10T09:16:41Z</time></trkpt><trkpt lat="14.723967436789756" lon="121.04077459278426"><ele>46.285714285714285</ele><time>2026-04-10T09:16:46Z</time></trkpt><trkpt lat="14.723960309385586" lon="121.04069629406634"><ele>46.142857142857146</ele><time>2026-04-10T09:16:48Z</time></trkpt><trkpt lat="14.723963537287057" lon="121.0406274197843"><ele>46.0</ele><time>2026-04-10T09:16:50.001Z</time></trkpt><trkpt lat="14.723953515937374" lon="121.0405320169811"><ele>45.66666666666667</ele><time>2026-04-10T09:16:52.001Z</time></trkpt><trkpt lat="14.723943950638128" lon="121.0404537004477"><ele>45.333333333333336</ele><time>2026-04-10T09:16:54.001Z</time></trkpt><trkpt lat="14.723974413372122" lon="121.04038752038096"><ele>45.0</ele><time>2026-04-10T09:16:59.001Z</time></trkpt><trkpt lat="14.724057007409334" lon="121.04034819370887"><ele>44.666666666666664</ele><time>2026-04-10T09:17:01.001Z</time></trkpt><trkpt lat="14.724123527763279" lon="121.04035077279093"><ele>44.33333333333333</ele><time>2026-04-10T09:17:02.001Z</time></trkpt><trkpt lat="14.724220286052661" lon="121.04034280794677"><ele>44.0</ele><time>2026-04-10T09:17:04.001Z</time></trkpt><trkpt lat="14.724323831305872" lon="121.04033005113718"><ele>43.83333333333333</ele><time>2026-04-10T09:17:06.001Z</time></trkpt><trkpt lat="14.724396786866214" lon="121.0403128187852"><ele>43.666666666666664</ele><time>2026-04-10T09:17:09.001Z</time></trkpt><trkpt lat="14.724482559358039" lon="121.04030013115685"><ele>43.5</ele><time>2026-04-10T09:17:13.001Z</time></trkpt><trkpt lat="14.724558316898976" lon="121.04027940911087"><ele>43.333333333333336</ele><time>2026-04-10T09:17:16.001Z</time></trkpt><trkpt lat="14.724641493898304" lon="121.0402402893092"><ele>43.16666666666667</ele><time>2026-04-10T09:17:19.001Z</time></trkpt><trkpt lat="14.72471422683576" lon="121.04020234737123"><ele>43.0</ele><time>2026-04-10T09:17:21.001Z</time></trkpt><trkpt lat="14.724788171372433" lon="121.04018868295834"><ele>43.0</ele><time>2026-04-10T09:17:24.001Z</time></trkpt><trkpt lat="14.72474871226024" lon="121.04003745890739"><ele>43.0</ele><time>2026-04-10T09:17:26.001Z</time></trkpt><trkpt lat="14.72473374857036" lon="121.0399420580768"><ele>43.0</ele><time>2026-04-10T09:17:28.001Z</time></trkpt><trkpt lat="14.724719664123235" lon="121.03984411552182"><ele>43.0</ele><time>2026-04-10T09:17:30.001Z</time></trkpt><trkpt lat="14.724699289233405" lon="121.03974214397259"><ele>43.0</ele><time>2026-04-10T09:17:33.001Z</time></trkpt><trkpt lat="14.724698299874982" lon="121.03963618581518"><ele>43.8</ele><time>2026-04-10T09:17:35.001Z</time></trkpt><trkpt lat="14.724669912077658" lon="121.03953835270823"><ele>44.599999999999994</ele><time>2026-04-10T09:17:37.001Z</time></trkpt><trkpt lat="14.72466458110112" lon="121.03946922278553"><ele>45.400000000000006</ele><time>2026-04-10T09:17:40.001Z</time></trkpt><trkpt lat="14.724770114632637" lon="121.03942241813071"><ele>46.2</ele><time>2026-04-10T09:17:44.001Z</time></trkpt><trkpt lat="14.724828083171397" lon="121.03939392766767"><ele>47.0</ele><time>2026-04-10T09:17:45.001Z</time></trkpt><trkpt lat="14.724933975996603" lon="121.03937472628093"><ele>47.0</ele><time>2026-04-10T09:17:47.001Z</time></trkpt><trkpt lat="14.725014989356097" lon="121.03934666962796"><ele>47.0</ele><time>2026-04-10T09:17:50.001Z</time></trkpt><trkpt lat="14.725112940108385" lon="121.03932273616016"><ele>47.0</ele><time>2026-04-10T09:17:52.001Z</time></trkpt><trkpt lat="14.725234543367133" lon="121.03930704153123"><ele>47.0</ele><time>2026-04-10T09:17:54.001Z</time></trkpt><trkpt lat="14.725330799214765" lon="121.03928311946282"><ele>47.0</ele><time>2026-04-10T09:17:56.001Z</time></trkpt><trkpt lat="14.725393016026041" lon="121.03922851474188"><ele>46.8</ele><time>2026-04-10T09:17:58.001Z</time></trkpt><trkpt lat="14.725337583541036" lon="121.03912721380476"><ele>46.6</ele><time>2026-04-10T09:18:00.001Z</time></trkpt><trkpt lat="14.725321404907701" lon="121.0390267614116"><ele>46.4</ele><time>2026-04-10T09:18:02.001Z</time></trkpt><trkpt lat="14.725320783012483" lon="121.03894947178732"><ele>46.199999999999996</ele><time>2026-04-10T09:18:06.001Z</time></trkpt><trkpt lat="14.72547517031931" lon="121.03890149769977"><ele>46.0</ele><time>2026-04-10T09:18:09.002Z</time></trkpt><trkpt lat="14.72554370689129" lon="121.03889275588213"><ele>46.0</ele><time>2026-04-10T09:18:10.002Z</time></trkpt><trkpt lat="14.72562083485818" lon="121.03887959533098"><ele>46.0</ele><time>2026-04-10T09:18:12.002Z</time></trkpt><trkpt lat="14.725726669759016" lon="121.03884248384821"><ele>46.0</ele><time>2026-04-10T09:18:15.002Z</time></trkpt><trkpt lat="14.725791563296035" lon="121.0388248366025"><ele>46.0</ele><time>2026-04-10T09:18:16.002Z</time></trkpt><trkpt lat="14.725866515848018" lon="121.03880270698451"><ele>46.0</ele><time>2026-04-10T09:18:17.001Z</time></trkpt><trkpt lat="14.725949076743873" lon="121.03877968650177"><ele>46.0</ele><time>2026-04-10T09:18:18.001Z</time></trkpt><trkpt lat="14.72603877100086" lon="121.03875838121978"><ele>45.833333333333336</ele><time>2026-04-10T09:18:19.001Z</time></trkpt><trkpt lat="14.726129630299912" lon="121.03873856266343"><ele>45.66666666666667</ele><time>2026-04-10T09:18:20.001Z</time></trkpt><trkpt lat="14.726211867709681" lon="121.03871622256798"><ele>45.5</ele><time>2026-04-10T09:18:21.001Z</time></trkpt><trkpt lat="14.726289641677894" lon="121.03869413498262"><ele>45.333333333333336</ele><time>2026-04-10T09:18:22.001Z</time></trkpt><trkpt lat="14.726358652727338" lon="121.0386730361638"><ele>45.166666666666664</ele><time>2026-04-10T09:18:23.001Z</time></trkpt><trkpt lat="14.726427853609692" lon="121.03864743510499"><ele>45.0</ele><time>2026-04-10T09:18:24.001Z</time></trkpt><trkpt lat="14.726540226541186" lon="121.03860081342152"><ele>45.0</ele><time>2026-04-10T09:18:26.001Z</time></trkpt><trkpt lat="14.726629603781037" lon="121.03858147039767"><ele>45.0</ele><time>2026-04-10T09:18:28.001Z</time></trkpt><trkpt lat="14.72671214968259" lon="121.03852290963059"><ele>45.0</ele><time>2026-04-10T09:18:31Z</time></trkpt><trkpt lat="14.72677419310499" lon="121.03850205533799"><ele>45.0</ele><time>2026-04-10T09:18:32Z</time></trkpt><trkpt lat="14.726885761260878" lon="121.03843844774086"><ele>45.0</ele><time>2026-04-10T09:18:34Z</time></trkpt><trkpt lat="14.726949773028577" lon="121.0384019529792"><ele>45.166666666666664</ele><time>2026-04-10T09:18:35Z</time></trkpt><trkpt lat="14.727021955019696" lon="121.03836061911788"><ele>45.333333333333336</ele><time>2026-04-10T09:18:36Z</time></trkpt><trkpt lat="14.72710563267586" lon="121.03831278876608"><ele>45.5</ele><time>2026-04-10T09:18:37Z</time></trkpt><trkpt lat="14.72719394996588" lon="121.03826230624638"><ele>45.66666666666667</ele><time>2026-04-10T09:18:38Z</time></trkpt><trkpt lat="14.727249206121918" lon="121.03821264849437"><ele>45.833333333333336</ele><time>2026-04-10T09:18:39Z</time></trkpt><trkpt lat="14.727320556974366" lon="121.03818989497863"><ele>46.0</ele><time>2026-04-10T09:18:40Z</time></trkpt><trkpt lat="14.727384604791785" lon="121.0381532693304"><ele>46.16666666666667</ele><time>2026-04-10T09:18:41Z</time></trkpt><trkpt lat="14.72744120744348" lon="121.03812060440262"><ele>46.333333333333336</ele><time>2026-04-10T09:18:42Z</time></trkpt><trkpt lat="14.72752361381055" lon="121.03807355173129"><ele>46.5</ele><time>2026-04-10T09:18:44Z</time></trkpt><trkpt lat="14.72758262830764" lon="121.03803985540793"><ele>46.666666666666664</ele><time>2026-04-10T09:18:46Z</time></trkpt><trkpt lat="14.72764979266443" lon="121.03800150565557"><ele>46.83333333333333</ele><time>2026-04-10T09:18:48Z</time></trkpt><trkpt lat="14.727722428170987" lon="121.03796003197111"><ele>47.0</ele><time>2026-04-10T09:18:51Z</time></trkpt><trkpt lat="14.727780741871834" lon="121.03792730671151"><ele>47.33333333333333</ele><time>2026-04-10T09:18:54Z</time></trkpt><trkpt lat="14.727860765008105" lon="121.03788284941388"><ele>47.666666666666664</ele><time>2026-04-10T09:18:57Z</time></trkpt><trkpt lat="14.72796506669624" lon="121.03781633028184"><ele>48.0</ele><time>2026-04-10T09:18:59.001Z</time></trkpt><trkpt lat="14.728027789146605" lon="121.03778474699183"><ele>48.33333333333333</ele><time>2026-04-10T09:19:00.001Z</time></trkpt><trkpt lat="14.728111798431971" lon="121.03773827367786"><ele>48.666666666666664</ele><time>2026-04-10T09:19:02.001Z</time></trkpt><trkpt lat="14.728170182641719" lon="121.03770931138779"><ele>49.0</ele><time>2026-04-10T09:19:04.001Z</time></trkpt><trkpt lat="14.72822293115626" lon="121.03766252849944"><ele>48.99999999999999</ele><time>2026-04-10T09:19:06.001Z</time></trkpt><trkpt lat="14.72828796669692" lon="121.03762354084228"><ele>49.0</ele><time>2026-04-10T09:19:08.001Z</time></trkpt><trkpt lat="14.728353348215395" lon="121.0375887671797"><ele>49.0</ele><time>2026-04-10T09:19:10.001Z</time></trkpt><trkpt lat="14.728428792085289" lon="121.03754685397895"><ele>49.0</ele><time>2026-04-10T09:19:12.001Z</time></trkpt><trkpt lat="14.728529452143873" lon="121.03750465072895"><ele>48.99999999999999</ele><time>2026-04-10T09:19:14.001Z</time></trkpt><trkpt lat="14.728589808263182" lon="121.03747084501435"><ele>49.0</ele><time>2026-04-10T09:19:15.001Z</time></trkpt><trkpt lat="14.72865912592539" lon="121.0374320199084"><ele>49.83333333333333</ele><time>2026-04-10T09:19:16.001Z</time></trkpt><trkpt lat="14.728733254461343" lon="121.03739050021764"><ele>50.666666666666664</ele><time>2026-04-10T09:19:17.001Z</time></trkpt><trkpt lat="14.728802390853994" lon="121.03735177664647"><ele>51.5</ele><time>2026-04-10T09:19:18.001Z</time></trkpt><trkpt lat="14.728865406635109" lon="121.03731648125013"><ele>52.33333333333333</ele><time>2026-04-10T09:19:19.001Z</time></trkpt><trkpt lat="14.728923497002677" lon="121.03728264299646"><ele>53.166666666666664</ele><time>2026-04-10T09:19:20.001Z</time></trkpt><trkpt lat="14.729006478786571" lon="121.0372136173124"><ele>54.0</ele><time>2026-04-10T09:19:22.001Z</time></trkpt><trkpt lat="14.729097161935501" lon="121.0371602683081"><ele>54.0</ele><time>2026-04-10T09:19:24.001Z</time></trkpt><trkpt lat="14.729194894393085" lon="121.0371061052324"><ele>54.00000000000001</ele><time>2026-04-10T09:19:26.001Z</time></trkpt><trkpt lat="14.729292512691146" lon="121.03706733721265"><ele>54.00000000000001</ele><time>2026-04-10T09:19:28.001Z</time></trkpt><trkpt lat="14.729379379287527" lon="121.03701778492152"><ele>54.0</ele><time>2026-04-10T09:19:30.001Z</time></trkpt><trkpt lat="14.72946587067821" lon="121.03696844666014"><ele>54.0</ele><time>2026-04-10T09:19:32.001Z</time></trkpt><trkpt lat="14.729551896475314" lon="121.03691912209084"><ele>54.666666666666664</ele><time>2026-04-10T09:19:34.001Z</time></trkpt><trkpt lat="14.729636952465484" lon="121.03685199524418"><ele>55.33333333333333</ele><time>2026-04-10T09:19:36.001Z</time></trkpt><trkpt lat="14.729694079974493" lon="121.03682178366186"><ele>56.0</ele><time>2026-04-10T09:19:37.001Z</time></trkpt><trkpt lat="14.72975631242524" lon="121.03678706881392"><ele>56.666666666666664</ele><time>2026-04-10T09:19:38.001Z</time></trkpt><trkpt lat="14.729821055186553" lon="121.03675207372144"><ele>57.33333333333333</ele><time>2026-04-10T09:19:39.001Z</time></trkpt><trkpt lat="14.72988881961266" lon="121.03671315992695"><ele>58.0</ele><time>2026-04-10T09:19:40.001Z</time></trkpt><trkpt lat="14.729954519076122" lon="121.03667584367318"><ele>58.33333333333333</ele><time>2026-04-10T09:19:41.001Z</time></trkpt><trkpt lat="14.730024772259133" lon="121.03663574735732"><ele>58.666666666666664</ele><time>2026-04-10T09:19:42.001Z</time></trkpt><trkpt lat="14.730092080056458" lon="121.03659896844604"><ele>59.0</ele><time>2026-04-10T09:19:43.001Z</time></trkpt><trkpt lat="14.730160226989527" lon="121.03656179555927"><ele>59.33333333333333</ele><time>2026-04-10T09:19:44.001Z</time></trkpt><trkpt lat="14.730223586833137" lon="121.03652702788287"><ele>59.666666666666664</ele><time>2026-04-10T09:19:45.001Z</time></trkpt><trkpt lat="14.730334673837014" lon="121.03646675603812"><ele>60.0</ele><time>2026-04-10T09:19:47.001Z</time></trkpt><trkpt lat="14.730391773769316" lon="121.0364282033493"><ele>60.0</ele><time>2026-04-10T09:19:48.001Z</time></trkpt><trkpt lat="14.730457881994068" lon="121.03639068381273"><ele>60.0</ele><time>2026-04-10T09:19:49.001Z</time></trkpt><trkpt lat="14.730520475837496" lon="121.03637758078546"><ele>60.0</ele><time>2026-04-10T09:19:50.001Z</time></trkpt><trkpt lat="14.73056875746258" lon="121.0363354668571"><ele>60.0</ele><time>2026-04-10T09:19:51.001Z</time></trkpt><trkpt lat="14.730677375627359" lon="121.03627252296255"><ele>60.0</ele><time>2026-04-10T09:19:53.001Z</time></trkpt><trkpt lat="14.730734164111" lon="121.03624303189623"><ele>60.0</ele><time>2026-04-10T09:19:54.001Z</time></trkpt><trkpt lat="14.730791007972392" lon="121.03621366239439"><ele>60.0</ele><time>2026-04-10T09:19:55.001Z</time></trkpt><trkpt lat="14.730846656301523" lon="121.03618166622694"><ele>60.0</ele><time>2026-04-10T09:19:56.001Z</time></trkpt><trkpt lat="14.730902070088943" lon="121.03614659694303"><ele>60.0</ele><time>2026-04-10T09:19:57.001Z</time></trkpt><trkpt lat="14.730959336209168" lon="121.03611339325236"><ele>60.0</ele><time>2026-04-10T09:19:58.001Z</time></trkpt><trkpt lat="14.731016858325166" lon="121.03608142490697"><ele>60.0</ele><time>2026-04-10T09:19:59.001Z</time></trkpt><trkpt lat="14.731073138745701" lon="121.03605102393743"><ele>60.0</ele><time>2026-04-10T09:20:00.001Z</time></trkpt><trkpt lat="14.731131410141995" lon="121.03601995828791"><ele>60.0</ele><time>2026-04-10T09:20:01.001Z</time></trkpt><trkpt lat="14.731186881889238" lon="121.03598743889172"><ele>60.0</ele><time>2026-04-10T09:20:02.001Z</time></trkpt><trkpt lat="14.731245647950782" lon="121.03595452674739"><ele>60.0</ele><time>2026-04-10T09:20:03.001Z</time></trkpt><trkpt lat="14.731305741394669" lon="121.03592098321914"><ele>60.0</ele><time>2026-04-10T09:20:04.001Z</time></trkpt><trkpt lat="14.731410835029957" lon="121.03586109239198"><ele>60.0</ele><time>2026-04-10T09:20:06.001Z</time></trkpt><trkpt lat="14.731516947228776" lon="121.03580593099464"><ele>60.0</ele><time>2026-04-10T09:20:08.001Z</time></trkpt><trkpt lat="14.731623374944038" lon="121.0357450987736"><ele>60.0</ele><time>2026-04-10T09:20:10.001Z</time></trkpt><trkpt lat="14.731729938931815" lon="121.03568429130858"><ele>60.0</ele><time>2026-04-10T09:20:12.001Z</time></trkpt><trkpt lat="14.731785272062847" lon="121.03565112333044"><ele>60.0</ele><time>2026-04-10T09:20:13.001Z</time></trkpt><trkpt lat="14.731840863188655" lon="121.03561896611804"><ele>60.0</ele><time>2026-04-10T09:20:14.001Z</time></trkpt><trkpt lat="14.731896146491774" lon="121.03558713746332"><ele>60.0</ele><time>2026-04-10T09:20:15.001Z</time></trkpt><trkpt lat="14.73199644190466" lon="121.03553008012643"><ele>60.0</ele><time>2026-04-10T09:20:17.001Z</time></trkpt><trkpt lat="14.732100501479579" lon="121.03546702797343"><ele>59.5</ele><time>2026-04-10T09:20:19.001Z</time></trkpt><trkpt lat="14.732156897702065" lon="121.03543131849902"><ele>59.0</ele><time>2026-04-10T09:20:20.001Z</time></trkpt><trkpt lat="14.732212915992408" lon="121.03539359164915"><ele>58.5</ele><time>2026-04-10T09:20:21.001Z</time></trkpt><trkpt lat="14.732311225009571" lon="121.03533655733018"><ele>58.0</ele><time>2026-04-10T09:20:23Z</time></trkpt><trkpt lat="14.732378609101819" lon="121.03530298140952"><ele>57.5</ele><time>2026-04-10T09:20:28Z</time></trkpt><trkpt lat="14.73245595017477" lon="121.0352703371759"><ele>57.0</ele><time>2026-04-10T09:20:30Z</time></trkpt><trkpt lat="14.732542930505243" lon="121.03522076613677"><ele>57.0</ele><time>2026-04-10T09:20:32Z</time></trkpt><trkpt lat="14.732594009052058" lon="121.035179300088"><ele>57.0</ele><time>2026-04-10T09:20:38Z</time></trkpt><trkpt lat="14.732676988928127" lon="121.03513876060475"><ele>57.0</ele><time>2026-04-10T09:20:41Z</time></trkpt><trkpt lat="14.73275370340446" lon="121.03509583201821"><ele>57.0</ele><time>2026-04-10T09:20:43Z</time></trkpt><trkpt lat="14.732836854756977" lon="121.03504866001755"><ele>57.0</ele><time>2026-04-10T09:20:45Z</time></trkpt><trkpt lat="14.732932257191734" lon="121.03499620208055"><ele>57.0</ele><time>2026-04-10T09:20:47Z</time></trkpt><trkpt lat="14.732990853210755" lon="121.03496362870241"><ele>56.5</ele><time>2026-04-10T09:20:48Z</time></trkpt><trkpt lat="14.733052801903565" lon="121.03493052740563"><ele>56.0</ele><time>2026-04-10T09:20:49Z</time></trkpt><trkpt lat="14.733116026594931" lon="121.03489213919981"><ele>55.5</ele><time>2026-04-10T09:20:50Z</time></trkpt><trkpt lat="14.733183460816218" lon="121.03485135210877"><ele>55.0</ele><time>2026-04-10T09:20:51Z</time></trkpt><trkpt lat="14.733256311841634" lon="121.03480696345153"><ele>54.5</ele><time>2026-04-10T09:20:52Z</time></trkpt><trkpt lat="14.733333473491932" lon="121.03476003140072"><ele>54.0</ele><time>2026-04-10T09:20:53Z</time></trkpt><trkpt lat="14.733416732088918" lon="121.03471199106136"><ele>54.0</ele><time>2026-04-10T09:20:54Z</time></trkpt><trkpt lat="14.733496800826924" lon="121.0346704347492"><ele>54.0</ele><time>2026-04-10T09:20:55Z</time></trkpt><trkpt lat="14.733569756869075" lon="121.0346323448351"><ele>54.0</ele><time>2026-04-10T09:20:56Z</time></trkpt><trkpt lat="14.73363686357367" lon="121.0345955968117"><ele>54.0</ele><time>2026-04-10T09:20:57Z</time></trkpt><trkpt lat="14.733694942711145" lon="121.03456084045531"><ele>54.0</ele><time>2026-04-10T09:20:58Z</time></trkpt><trkpt lat="14.733754618776512" lon="121.0345269898515"><ele>54.0</ele><time>2026-04-10T09:20:59Z</time></trkpt><trkpt lat="14.733817235426033" lon="121.03449240304813"><ele>54.333333333333336</ele><time>2026-04-10T09:21:00Z</time></trkpt><trkpt lat="14.73388059867856" lon="121.03445673468977"><ele>54.66666666666667</ele><time>2026-04-10T09:21:01Z</time></trkpt><trkpt lat="14.733942070007805" lon="121.03442075424526"><ele>55.0</ele><time>2026-04-10T09:21:02Z</time></trkpt><trkpt lat="14.733996880313383" lon="121.03438706045252"><ele>55.333333333333336</ele><time>2026-04-10T09:21:03Z</time></trkpt><trkpt lat="14.734052570638774" lon="121.03435240173897"><ele>55.66666666666667</ele><time>2026-04-10T09:21:04Z</time></trkpt><trkpt lat="14.734146489067205" lon="121.03429357340282"><ele>56.0</ele><time>2026-04-10T09:21:06Z</time></trkpt><trkpt lat="14.73422803893677" lon="121.03424600533208"><ele>56.0</ele><time>2026-04-10T09:21:08Z</time></trkpt><trkpt lat="14.734311676737594" lon="121.03419504495393"><ele>55.99999999999999</ele><time>2026-04-10T09:21:10Z</time></trkpt><trkpt lat="14.734398148800105" lon="121.03414553576859"><ele>55.99999999999999</ele><time>2026-04-10T09:21:12Z</time></trkpt><trkpt lat="14.734475701116663" lon="121.03410264325466"><ele>56.0</ele><time>2026-04-10T09:21:14Z</time></trkpt><trkpt lat="14.734572719278983" lon="121.03403384177086"><ele>56.0</ele><time>2026-04-10T09:21:16.001Z</time></trkpt><trkpt lat="14.734630315962733" lon="121.0340059570179"><ele>56.333333333333336</ele><time>2026-04-10T09:21:17.001Z</time></trkpt><trkpt lat="14.734718101679668" lon="121.03396448416022"><ele>56.66666666666667</ele><time>2026-04-10T09:21:19.001Z</time></trkpt><trkpt lat="14.734788032540463" lon="121.03392257503486"><ele>57.0</ele><time>2026-04-10T09:21:21.001Z</time></trkpt><trkpt lat="14.734846561369604" lon="121.03388755900801"><ele>57.33333333333333</ele><time>2026-04-10T09:21:23.001Z</time></trkpt><trkpt lat="14.734903445884573" lon="121.03385236455327"><ele>57.666666666666664</ele><time>2026-04-10T09:21:25.001Z</time></trkpt><trkpt lat="14.734971370155279" lon="121.03381284127191"><ele>58.0</ele><time>2026-04-10T09:21:28.001Z</time></trkpt><trkpt lat="14.735056171367377" lon="121.03376274585561"><ele>57.99999999999999</ele><time>2026-04-10T09:21:31.001Z</time></trkpt><trkpt lat="14.73511229233737" lon="121.03372392764635"><ele>58.0</ele><time>2026-04-10T09:21:36.001Z</time></trkpt><trkpt lat="14.735170151429301" lon="121.03368671520164"><ele>58.0</ele><time>2026-04-10T09:21:40.001Z</time></trkpt><trkpt lat="14.735230347682894" lon="121.03365915886697"><ele>58.0</ele><time>2026-04-10T09:21:45.001Z</time></trkpt><trkpt lat="14.735312699376033" lon="121.0336119577035"><ele>57.99999999999999</ele><time>2026-04-10T09:21:47.001Z</time></trkpt><trkpt lat="14.735414524575495" lon="121.03355279455528"><ele>58.0</ele><time>2026-04-10T09:21:49.001Z</time></trkpt><trkpt lat="14.735473166170559" lon="121.03352170161908"><ele>58.166666666666664</ele><time>2026-04-10T09:21:50.001Z</time></trkpt><trkpt lat="14.73553722192804" lon="121.03348611783854"><ele>58.33333333333333</ele><time>2026-04-10T09:21:51.001Z</time></trkpt><trkpt lat="14.735597535948015" lon="121.0334536410613"><ele>58.5</ele><time>2026-04-10T09:21:52.001Z</time></trkpt><trkpt lat="14.735654580161507" lon="121.03341859938078"><ele>58.66666666666667</ele><time>2026-04-10T09:21:53.001Z</time></trkpt><trkpt lat="14.735745801255977" lon="121.03336526963672"><ele>58.833333333333336</ele><time>2026-04-10T09:21:55.001Z</time></trkpt><trkpt lat="14.735801738834363" lon="121.03333287877764"><ele>59.0</ele><time>2026-04-10T09:21:56.001Z</time></trkpt><trkpt lat="14.735872167601856" lon="121.03330962574076"><ele>59.16666666666667</ele><time>2026-04-10T09:21:57.001Z</time></trkpt><trkpt lat="14.735940319104138" lon="121.03327325732916"><ele>59.333333333333336</ele><time>2026-04-10T09:21:58.001Z</time></trkpt><trkpt lat="14.736016459405123" lon="121.03323179843504"><ele>59.5</ele><time>2026-04-10T09:21:59.001Z</time></trkpt><trkpt lat="14.736093857817025" lon="121.03318965449202"><ele>59.66666666666667</ele><time>2026-04-10T09:22:00.001Z</time></trkpt><trkpt lat="14.736148933398916" lon="121.03314060920268"><ele>59.833333333333336</ele><time>2026-04-10T09:22:01.001Z</time></trkpt><trkpt lat="14.736233013621064" lon="121.03311455282335"><ele>60.0</ele><time>2026-04-10T09:22:03.001Z</time></trkpt><trkpt lat="14.736295376136376" lon="121.0330821741073"><ele>60.0</ele><time>2026-04-10T09:22:05.001Z</time></trkpt><trkpt lat="14.736397807294729" lon="121.03302608038587"><ele>60.0</ele><time>2026-04-10T09:22:07.001Z</time></trkpt><trkpt lat="14.736452254521414" lon="121.03297755438301"><ele>60.0</ele><time>2026-04-10T09:22:08.001Z</time></trkpt><trkpt lat="14.736520037353758" lon="121.0329412185838"><ele>60.0</ele><time>2026-04-10T09:22:09.001Z</time></trkpt><trkpt lat="14.736597266349342" lon="121.03291825388752"><ele>60.0</ele><time>2026-04-10T09:22:10.001Z</time></trkpt><trkpt lat="14.736672761675047" lon="121.03287650438335"><ele>60.0</ele><time>2026-04-10T09:22:11.001Z</time></trkpt><trkpt lat="14.736750410490485" lon="121.03283374486318"><ele>60.0</ele><time>2026-04-10T09:22:12.001Z</time></trkpt><trkpt lat="14.73682957412332" lon="121.03277141715472"><ele>60.0</ele><time>2026-04-10T09:22:13.001Z</time></trkpt><trkpt lat="14.736925659668195" lon="121.03273887824378"><ele>60.0</ele><time>2026-04-10T09:22:14.001Z</time></trkpt><trkpt lat="14.737019721280504" lon="121.03270580357825"><ele>60.0</ele><time>2026-04-10T09:22:15.001Z</time></trkpt><trkpt lat="14.737098184851176" lon="121.03268303420356"><ele>60.0</ele><time>2026-04-10T09:22:16.001Z</time></trkpt><trkpt lat="14.737190689553067" lon="121.03264261388766"><ele>60.0</ele><time>2026-04-10T09:22:17.001Z</time></trkpt><trkpt lat="14.737274201082739" lon="121.0326250785796"><ele>60.0</ele><time>2026-04-10T09:22:18.001Z</time></trkpt><trkpt lat="14.737368582209509" lon="121.03260520696406"><ele>60.0</ele><time>2026-04-10T09:22:19.001Z</time></trkpt><trkpt lat="14.73745640701402" lon="121.0325816575716"><ele>60.0</ele><time>2026-04-10T09:22:20.001Z</time></trkpt><trkpt lat="14.737543306576057" lon="121.03256220410053"><ele>60.0</ele><time>2026-04-10T09:22:21.001Z</time></trkpt><trkpt lat="14.737623806956199" lon="121.03254437729285"><ele>60.0</ele><time>2026-04-10T09:22:22.001Z</time></trkpt><trkpt lat="14.737710364791948" lon="121.03252054552102"><ele>60.5</ele><time>2026-04-10T09:22:23.001Z</time></trkpt><trkpt lat="14.73780029585904" lon="121.03250522404016"><ele>61.0</ele><time>2026-04-10T09:22:24.001Z</time></trkpt><trkpt lat="14.737879073745823" lon="121.03248107426991"><ele>61.5</ele><time>2026-04-10T09:22:25.001Z</time></trkpt><trkpt lat="14.737967510670472" lon="121.03247505828766"><ele>62.0</ele><time>2026-04-10T09:22:27.001Z</time></trkpt><trkpt lat="14.738035720214995" lon="121.03244380355262"><ele>62.5</ele><time>2026-04-10T09:22:38Z</time></trkpt><trkpt lat="14.73810320401782" lon="121.03243521438884"><ele>63.0</ele><time>2026-04-10T09:22:39Z</time></trkpt><trkpt lat="14.738173985183401" lon="121.03243322752638"><ele>63.333333333333336</ele><time>2026-04-10T09:22:40Z</time></trkpt><trkpt lat="14.738246848483506" lon="121.03242786431889"><ele>63.66666666666667</ele><time>2026-04-10T09:22:41Z</time></trkpt><trkpt lat="14.738326671248082" lon="121.03241885626414"><ele>64.0</ele><time>2026-04-10T09:22:42Z</time></trkpt><trkpt lat="14.738410828351412" lon="121.03240533812914"><ele>64.33333333333334</ele><time>2026-04-10T09:22:43Z</time></trkpt><trkpt lat="14.738505749190857" lon="121.03240846762529"><ele>64.66666666666667</ele><time>2026-04-10T09:22:44Z</time></trkpt><trkpt lat="14.738610171623868" lon="121.03241082184341"><ele>65.0</ele><time>2026-04-10T09:22:45Z</time></trkpt><trkpt lat="14.738715530208282" lon="121.03240779421772"><ele>65.4</ele><time>2026-04-10T09:22:46Z</time></trkpt><trkpt lat="14.738823382028787" lon="121.03240177565071"><ele>65.8</ele><time>2026-04-10T09:22:47Z</time></trkpt><trkpt lat="14.738933900006094" lon="121.03240606103807"><ele>66.2</ele><time>2026-04-10T09:22:48Z</time></trkpt><trkpt lat="14.739046134418745" lon="121.03241636992104"><ele>66.6</ele><time>2026-04-10T09:22:49Z</time></trkpt><trkpt lat="14.739159891445683" lon="121.03242925423045"><ele>67.0</ele><time>2026-04-10T09:22:50Z</time></trkpt><trkpt lat="14.739271820731167" lon="121.03244061082488"><ele>67.0</ele><time>2026-04-10T09:22:51Z</time></trkpt><trkpt lat="14.73938962934749" lon="121.03245693264941"><ele>67.0</ele><time>2026-04-10T09:22:52Z</time></trkpt><trkpt lat="14.739504848968474" lon="121.03247351760875"><ele>67.0</ele><time>2026-04-10T09:22:53Z</time></trkpt><trkpt lat="14.739620351177772" lon="121.03248853894003"><ele>67.0</ele><time>2026-04-10T09:22:54Z</time></trkpt><trkpt lat="14.739730969485327" lon="121.03251099997794"><ele>67.0</ele><time>2026-04-10T09:22:55Z</time></trkpt><trkpt lat="14.739837812126739" lon="121.03253423829909"><ele>67.0</ele><time>2026-04-10T09:22:56Z</time></trkpt><trkpt lat="14.739940036527205" lon="121.03255368416079"><ele>67.0</ele><time>2026-04-10T09:22:57Z</time></trkpt><trkpt lat="14.740045793173453" lon="121.03257584151476"><ele>67.0</ele><time>2026-04-10T09:22:58Z</time></trkpt><trkpt lat="14.740143353373421" lon="121.0325986096878"><ele>67.0</ele><time>2026-04-10T09:22:59Z</time></trkpt><trkpt lat="14.740243397139015" lon="121.03262585591783"><ele>68.4</ele><time>2026-04-10T09:23:00Z</time></trkpt><trkpt lat="14.740321850067284" lon="121.03266772515485"><ele>69.80000000000001</ele><time>2026-04-10T09:23:01Z</time></trkpt><trkpt lat="14.740432127938702" lon="121.03269462212415"><ele>71.2</ele><time>2026-04-10T09:23:02Z</time></trkpt><trkpt lat="14.740536337415874" lon="121.03272359653604"><ele>72.60000000000001</ele><time>2026-04-10T09:23:03Z</time></trkpt><trkpt lat="14.740638476990823" lon="121.0327589193992"><ele>74.0</ele><time>2026-04-10T09:23:04Z</time></trkpt><trkpt lat="14.740739160284882" lon="121.0328004700682"><ele>74.0</ele><time>2026-04-10T09:23:05Z</time></trkpt><trkpt lat="14.740834059232737" lon="121.03284517540239"><ele>74.0</ele><time>2026-04-10T09:23:06Z</time></trkpt><trkpt lat="14.740919576455308" lon="121.03288810839979"><ele>74.0</ele><time>2026-04-10T09:23:07Z</time></trkpt><trkpt lat="14.740999969511355" lon="121.0329286033302"><ele>74.0</ele><time>2026-04-10T09:23:08Z</time></trkpt><trkpt lat="14.74108099526461" lon="121.03296529793312"><ele>74.0</ele><time>2026-04-10T09:23:09Z</time></trkpt><trkpt lat="14.741165858494197" lon="121.0330087130774"><ele>75.2</ele><time>2026-04-10T09:23:10Z</time></trkpt><trkpt lat="14.741237251903339" lon="121.0330501784482"><ele>76.4</ele><time>2026-04-10T09:23:11Z</time></trkpt><trkpt lat="14.741313428988976" lon="121.03308952482818"><ele>77.6</ele><time>2026-04-10T09:23:12Z</time></trkpt><trkpt lat="14.7413937410359" lon="121.0331383727411"><ele>78.8</ele><time>2026-04-10T09:23:13Z</time></trkpt><trkpt lat="14.741479468617099" lon="121.03318343562863"><ele>80.0</ele><time>2026-04-10T09:23:14Z</time></trkpt><trkpt lat="14.74156754553125" lon="121.03322444498895"><ele>80.0</ele><time>2026-04-10T09:23:15Z</time></trkpt><trkpt lat="14.741635229352074" lon="121.03326232208128"><ele>80.0</ele><time>2026-04-10T09:23:16Z</time></trkpt><trkpt lat="14.741704257617322" lon="121.03329910263665"><ele>80.0</ele><time>2026-04-10T09:23:17Z</time></trkpt><trkpt lat="14.741767779269965" lon="121.03333580278091"><ele>80.0</ele><time>2026-04-10T09:23:18Z</time></trkpt><trkpt lat="14.741835019373001" lon="121.03337313704911"><ele>80.0</ele><time>2026-04-10T09:23:19Z</time></trkpt><trkpt lat="14.74189480263785" lon="121.03340474822691"><ele>80.0</ele><time>2026-04-10T09:23:20Z</time></trkpt><trkpt lat="14.742003519570206" lon="121.03346468281273"><ele>79.0</ele><time>2026-04-10T09:23:22Z</time></trkpt><trkpt lat="14.742101545334393" lon="121.03351926978104"><ele>78.0</ele><time>2026-04-10T09:23:24Z</time></trkpt><trkpt lat="14.742198862565447" lon="121.03358825778638"><ele>77.0</ele><time>2026-04-10T09:23:26Z</time></trkpt><trkpt lat="14.742256157539574" lon="121.03362037598076"><ele>76.0</ele><time>2026-04-10T09:23:27Z</time></trkpt><trkpt lat="14.742317034862275" lon="121.03365450235427"><ele>75.0</ele><time>2026-04-10T09:23:28Z</time></trkpt><trkpt lat="14.742374322642377" lon="121.0336866165136"><ele>74.0</ele><time>2026-04-10T09:23:29Z</time></trkpt><trkpt lat="14.742440092048628" lon="121.03372348527401"><ele>74.0</ele><time>2026-04-10T09:23:30Z</time></trkpt><trkpt lat="14.742501402745058" lon="121.03375785458216"><ele>74.0</ele><time>2026-04-10T09:23:31Z</time></trkpt><trkpt lat="14.74256852123367" lon="121.03379135170125"><ele>74.0</ele><time>2026-04-10T09:23:32Z</time></trkpt><trkpt lat="14.742631325580266" lon="121.03382566287883"><ele>74.0</ele><time>2026-04-10T09:23:33Z</time></trkpt><trkpt lat="14.742697888602724" lon="121.03386178974067"><ele>74.0</ele><time>2026-04-10T09:23:34Z</time></trkpt><trkpt lat="14.74276088058153" lon="121.03387819033973"><ele>74.0</ele><time>2026-04-10T09:23:35Z</time></trkpt><trkpt lat="14.74282152957556" lon="121.03392889547375"><ele>74.0</ele><time>2026-04-10T09:23:36.001Z</time></trkpt><trkpt lat="14.74289765913385" lon="121.0339702145373"><ele>74.0</ele><time>2026-04-10T09:23:37.001Z</time></trkpt><trkpt lat="14.742962867742206" lon="121.03400560629274"><ele>74.0</ele><time>2026-04-10T09:23:38.001Z</time></trkpt><trkpt lat="14.743031438593636" lon="121.03404282293737"><ele>74.0</ele><time>2026-04-10T09:23:39.001Z</time></trkpt><trkpt lat="14.743100933039797" lon="121.03408054091582"><ele>74.0</ele><time>2026-04-10T09:23:40.001Z</time></trkpt><trkpt lat="14.743170190974062" lon="121.03411813052759"><ele>74.0</ele><time>2026-04-10T09:23:41.001Z</time></trkpt><trkpt lat="14.743241554667026" lon="121.03415686303639"><ele>74.0</ele><time>2026-04-10T09:23:42.001Z</time></trkpt><trkpt lat="14.743303209136785" lon="121.03419045649234"><ele>74.0</ele><time>2026-04-10T09:23:43.001Z</time></trkpt><trkpt lat="14.743360533647815" lon="121.0342217660958"><ele>74.0</ele><time>2026-04-10T09:23:44.001Z</time></trkpt><trkpt lat="14.74342196899863" lon="121.03425532098822"><ele>74.0</ele><time>2026-04-10T09:23:45.001Z</time></trkpt><trkpt lat="14.743492134031339" lon="121.03427529976523"><ele>74.0</ele><time>2026-04-10T09:23:46.001Z</time></trkpt><trkpt lat="14.743559819120524" lon="121.0343152628764"><ele>74.0</ele><time>2026-04-10T09:23:47.001Z</time></trkpt><trkpt lat="14.743624984856519" lon="121.03435185029622"><ele>74.0</ele><time>2026-04-10T09:23:48.001Z</time></trkpt><trkpt lat="14.74368489477924" lon="121.0343859150045"><ele>74.0</ele><time>2026-04-10T09:23:49.001Z</time></trkpt><trkpt lat="14.74374606831393" lon="121.03441757314492"><ele>74.2</ele><time>2026-04-10T09:23:50.001Z</time></trkpt><trkpt lat="14.7438344247698" lon="121.034486006959"><ele>74.4</ele><time>2026-04-10T09:23:52.001Z</time></trkpt><trkpt lat="14.743945130351355" lon="121.03452932362826"><ele>74.6</ele><time>2026-04-10T09:23:54.001Z</time></trkpt><trkpt lat="14.744043613143164" lon="121.03460315176527"><ele>74.8</ele><time>2026-04-10T09:23:56.001Z</time></trkpt><trkpt lat="14.744132345641633" lon="121.03463409908986"><ele>75.0</ele><time>2026-04-10T09:23:58.001Z</time></trkpt><trkpt lat="14.74419537620788" lon="121.03468883466428"><ele>75.0</ele><time>2026-04-10T09:24:01.001Z</time></trkpt><trkpt lat="14.744268632801969" lon="121.03473050917964"><ele>75.0</ele><time>2026-04-10T09:24:04.001Z</time></trkpt><trkpt lat="14.744325500244164" lon="121.03476319467354"><ele>75.0</ele><time>2026-04-10T09:24:07.001Z</time></trkpt><trkpt lat="14.74448566893254" lon="121.03477781274181"><ele>75.0</ele><time>2026-04-10T09:24:11.001Z</time></trkpt><trkpt lat="14.744550180372322" lon="121.03477147776464"><ele>75.0</ele><time>2026-04-10T09:24:12.001Z</time></trkpt><trkpt lat="14.744674621142329" lon="121.03475925777889"><ele>75.4</ele><time>2026-04-10T09:24:14.001Z</time></trkpt><trkpt lat="14.744784140100359" lon="121.03474850307587"><ele>75.8</ele><time>2026-04-10T09:24:16.001Z</time></trkpt><trkpt lat="14.74490508140583" lon="121.03472803593783"><ele>76.2</ele><time>2026-04-10T09:24:18.001Z</time></trkpt><trkpt lat="14.745011565182741" lon="121.03469699050541"><ele>76.6</ele><time>2026-04-10T09:24:20.001Z</time></trkpt><trkpt lat="14.745073316957914" lon="121.0346802520708"><ele>77.0</ele><time>2026-04-10T09:24:21.001Z</time></trkpt><trkpt lat="14.745134462407362" lon="121.03466367798794"><ele>75.66666666666667</ele><time>2026-04-10T09:24:22.001Z</time></trkpt><trkpt lat="14.745213590392378" lon="121.03464222955326"><ele>74.33333333333334</ele><time>2026-04-10T09:24:23.001Z</time></trkpt><trkpt lat="14.745289919892766" lon="121.03462541760277"><ele>73.0</ele><time>2026-04-10T09:24:24.001Z</time></trkpt><trkpt lat="14.745385163592825" lon="121.03460419961245"><ele>71.66666666666667</ele><time>2026-04-10T09:24:25.001Z</time></trkpt><trkpt lat="14.745480784223798" lon="121.03458289765148"><ele>70.33333333333333</ele><time>2026-04-10T09:24:26.001Z</time></trkpt><trkpt lat="14.745569038231986" lon="121.03456323679846"><ele>69.0</ele><time>2026-04-10T09:24:27.001Z</time></trkpt><trkpt lat="14.745680148196058" lon="121.03453848874241"><ele>69.0</ele><time>2026-04-10T09:24:28.001Z</time></trkpt><trkpt lat="14.745780056710858" lon="121.0345162407561"><ele>69.0</ele><time>2026-04-10T09:24:29.001Z</time></trkpt><trkpt lat="14.745884064539663" lon="121.03449307991664"><ele>69.0</ele><time>2026-04-10T09:24:30.001Z</time></trkpt><trkpt lat="14.74598016667591" lon="121.03447167954624"><ele>69.0</ele><time>2026-04-10T09:24:31.001Z</time></trkpt><trkpt lat="14.746077975777062" lon="121.03444989902937"><ele>69.0</ele><time>2026-04-10T09:24:32.001Z</time></trkpt><trkpt lat="14.746159445101833" lon="121.03438310755179"><ele>67.60000000000001</ele><time>2026-04-10T09:24:33.001Z</time></trkpt><trkpt lat="14.746262681776251" lon="121.0343610994418"><ele>66.2</ele><time>2026-04-10T09:24:34.001Z</time></trkpt><trkpt lat="14.74635401736967" lon="121.03433662468055"><ele>64.80000000000001</ele><time>2026-04-10T09:24:35Z</time></trkpt><trkpt lat="14.746456253177866" lon="121.03430303005771"><ele>63.400000000000006</ele><time>2026-04-10T09:24:36Z</time></trkpt><trkpt lat="14.746559800221549" lon="121.03427393877263"><ele>62.0</ele><time>2026-04-10T09:24:37Z</time></trkpt><trkpt lat="14.74666440406302" lon="121.03424564919708"><ele>62.0</ele><time>2026-04-10T09:24:38Z</time></trkpt><trkpt lat="14.746766155184186" lon="121.03421347836516"><ele>62.0</ele><time>2026-04-10T09:24:39Z</time></trkpt><trkpt lat="14.746869072178828" lon="121.03418175147131"><ele>62.0</ele><time>2026-04-10T09:24:40Z</time></trkpt><trkpt lat="14.746968366767064" lon="121.03415737577905"><ele>62.0</ele><time>2026-04-10T09:24:41Z</time></trkpt><trkpt lat="14.747064261526276" lon="121.03413001448567"><ele>62.0</ele><time>2026-04-10T09:24:42Z</time></trkpt><trkpt lat="14.747153771309828" lon="121.03410828098396"><ele>62.333333333333336</ele><time>2026-04-10T09:24:43Z</time></trkpt><trkpt lat="14.747234883845689" lon="121.03409024447613"><ele>62.66666666666667</ele><time>2026-04-10T09:24:44Z</time></trkpt><trkpt lat="14.747308174956457" lon="121.03407407454243"><ele>63.0</ele><time>2026-04-10T09:24:45Z</time></trkpt><trkpt lat="14.7473866725054" lon="121.03406053926366"><ele>63.33333333333333</ele><time>2026-04-10T09:24:46Z</time></trkpt><trkpt lat="14.747475304562915" lon="121.0340417070768"><ele>63.666666666666664</ele><time>2026-04-10T09:24:47Z</time></trkpt><trkpt lat="14.747550638659606" lon="121.0340158702029"><ele>64.0</ele><time>2026-04-10T09:24:48Z</time></trkpt><trkpt lat="14.747618941859463" lon="121.03398687801888"><ele>63.99999999999999</ele><time>2026-04-10T09:24:49Z</time></trkpt><trkpt lat="14.7476790050842" lon="121.03396642003399"><ele>64.0</ele><time>2026-04-10T09:24:50Z</time></trkpt><trkpt lat="14.747754155657896" lon="121.0339287134056"><ele>64.0</ele><time>2026-04-10T09:24:57Z</time></trkpt><trkpt lat="14.747845398314931" lon="121.033903513281"><ele>64.0</ele><time>2026-04-10T09:24:59Z</time></trkpt><trkpt lat="14.747923136805518" lon="121.03389384096856"><ele>63.99999999999999</ele><time>2026-04-10T09:25:00Z</time></trkpt><trkpt lat="14.748019078724978" lon="121.0338707748752"><ele>64.0</ele><time>2026-04-10T09:25:01Z</time></trkpt><trkpt lat="14.748110154759432" lon="121.03384925610354"><ele>64.2</ele><time>2026-04-10T09:25:02Z</time></trkpt><trkpt lat="14.74820387473492" lon="121.03382836076304"><ele>64.4</ele><time>2026-04-10T09:25:03Z</time></trkpt><trkpt lat="14.748309953060287" lon="121.03379980821455"><ele>64.6</ele><time>2026-04-10T09:25:04Z</time></trkpt><trkpt lat="14.748416975099977" lon="121.03377338934301"><ele>64.8</ele><time>2026-04-10T09:25:05Z</time></trkpt><trkpt lat="14.74851721271612" lon="121.03374805200768"><ele>65.0</ele><time>2026-04-10T09:25:06Z</time></trkpt><trkpt lat="14.748614260894772" lon="121.03371913711531"><ele>65.0</ele><time>2026-04-10T09:25:07Z</time></trkpt><trkpt lat="14.748708482668073" lon="121.03368943995696"><ele>65.0</ele><time>2026-04-10T09:25:08Z</time></trkpt><trkpt lat="14.748812226834245" lon="121.03366087582319"><ele>65.0</ele><time>2026-04-10T09:25:09Z</time></trkpt><trkpt lat="14.748908604039851" lon="121.03363789192771"><ele>65.0</ele><time>2026-04-10T09:25:10Z</time></trkpt><trkpt lat="14.749012352098168" lon="121.03361356944087"><ele>65.0</ele><time>2026-04-10T09:25:11Z</time></trkpt><trkpt lat="14.749105855923837" lon="121.03358501882131"><ele>65.0</ele><time>2026-04-10T09:25:12Z</time></trkpt><trkpt lat="14.749212855682716" lon="121.03355461476995"><ele>65.0</ele><time>2026-04-10T09:25:13Z</time></trkpt><trkpt lat="14.74931869983133" lon="121.0335285609154"><ele>65.0</ele><time>2026-04-10T09:25:14Z</time></trkpt><trkpt lat="14.749402767986746" lon="121.03350760002974"><ele>65.0</ele><time>2026-04-10T09:25:15Z</time></trkpt><trkpt lat="14.749495196023627" lon="121.03348424869905"><ele>65.0</ele><time>2026-04-10T09:25:16Z</time></trkpt><trkpt lat="14.749597128376667" lon="121.03346469578368"><ele>65.2</ele><time>2026-04-10T09:25:17Z</time></trkpt><trkpt lat="14.749658392035677" lon="121.03341834763567"><ele>65.4</ele><time>2026-04-10T09:25:18Z</time></trkpt><trkpt lat="14.749744328609689" lon="121.0333801844273"><ele>65.6</ele><time>2026-04-10T09:25:19Z</time></trkpt><trkpt lat="14.749844666761291" lon="121.0333423292322"><ele>65.8</ele><time>2026-04-10T09:25:20Z</time></trkpt><trkpt lat="14.749948738561764" lon="121.0333079609002"><ele>66.0</ele><time>2026-04-10T09:25:21Z</time></trkpt><trkpt lat="14.750055443416786" lon="121.03326376776593"><ele>66.0</ele><time>2026-04-10T09:25:22Z</time></trkpt><trkpt lat="14.750171212224933" lon="121.03321987058996"><ele>66.0</ele><time>2026-04-10T09:25:23Z</time></trkpt><trkpt lat="14.750287621320295" lon="121.03317776978473"><ele>66.0</ele><time>2026-04-10T09:25:24Z</time></trkpt><trkpt lat="14.750394863121848" lon="121.03313732489853"><ele>66.0</ele><time>2026-04-10T09:25:25Z</time></trkpt><trkpt lat="14.750500840296413" lon="121.03309231081168"><ele>66.0</ele><time>2026-04-10T09:25:26Z</time></trkpt><trkpt lat="14.750603209316388" lon="121.03304313120653"><ele>66.0</ele><time>2026-04-10T09:25:27Z</time></trkpt><trkpt lat="14.750706119690182" lon="121.03299577521184"><ele>66.0</ele><time>2026-04-10T09:25:28Z</time></trkpt><trkpt lat="14.750814034438157" lon="121.03295354868021"><ele>66.0</ele><time>2026-04-10T09:25:29Z</time></trkpt><trkpt lat="14.75092138202566" lon="121.0329120374134"><ele>66.0</ele><time>2026-04-10T09:25:30Z</time></trkpt><trkpt lat="14.75102666244992" lon="121.03287306890475"><ele>66.0</ele><time>2026-04-10T09:25:31Z</time></trkpt><trkpt lat="14.751136150789302" lon="121.03283131278735"><ele>66.0</ele><time>2026-04-10T09:25:32Z</time></trkpt><trkpt lat="14.751244071793469" lon="121.03278790281625"><ele>66.0</ele><time>2026-04-10T09:25:33Z</time></trkpt><trkpt lat="14.751351294720953" lon="121.03274322965099"><ele>67.0</ele><time>2026-04-10T09:25:34Z</time></trkpt><trkpt lat="14.751457829424314" lon="121.03269948521336"><ele>68.0</ele><time>2026-04-10T09:25:35Z</time></trkpt><trkpt lat="14.751561231249735" lon="121.03266036349336"><ele>69.0</ele><time>2026-04-10T09:25:36Z</time></trkpt><trkpt lat="14.751659532522035" lon="121.03261611601437"><ele>70.0</ele><time>2026-04-10T09:25:37Z</time></trkpt><trkpt lat="14.751761285062772" lon="121.03257708884797"><ele>71.0</ele><time>2026-04-10T09:25:38Z</time></trkpt><trkpt lat="14.751854770266814" lon="121.03253935898009"><ele>71.5</ele><time>2026-04-10T09:25:39Z</time></trkpt><trkpt lat="14.751931881418939" lon="121.03251563969962"><ele>72.0</ele><time>2026-04-10T09:25:40Z</time></trkpt><trkpt lat="14.751997537265149" lon="121.03249363562344"><ele>72.5</ele><time>2026-04-10T09:25:41Z</time></trkpt><trkpt lat="14.75208665425697" lon="121.03245413181041"><ele>73.0</ele><time>2026-04-10T09:25:43Z</time></trkpt><trkpt lat="14.752152819548915" lon="121.03242653908707"><ele>73.5</ele><time>2026-04-10T09:25:53Z</time></trkpt><trkpt lat="14.752242598663374" lon="121.03239071581292"><ele>74.0</ele><time>2026-04-10T09:25:56.001Z</time></trkpt><trkpt lat="14.752336660958436" lon="121.03235746793683"><ele>74.16666666666667</ele><time>2026-04-10T09:25:58.001Z</time></trkpt><trkpt lat="14.752404538307758" lon="121.03233295114194"><ele>74.33333333333334</ele><time>2026-04-10T09:25:59.001Z</time></trkpt><trkpt lat="14.752477993312384" lon="121.03230699718604"><ele>74.5</ele><time>2026-04-10T09:26:00.001Z</time></trkpt><trkpt lat="14.752558739614413" lon="121.0322653722565"><ele>74.66666666666667</ele><time>2026-04-10T09:26:01.001Z</time></trkpt><trkpt lat="14.752653224623836" lon="121.03221581840495"><ele>74.83333333333333</ele><time>2026-04-10T09:26:02.001Z</time></trkpt><trkpt lat="14.752746615890029" lon="121.03217045041335"><ele>75.0</ele><time>2026-04-10T09:26:03.001Z</time></trkpt><trkpt lat="14.752854867145883" lon="121.03212160504843"><ele>75.0</ele><time>2026-04-10T09:26:04.001Z</time></trkpt><trkpt lat="14.752949485106555" lon="121.03207884308311"><ele>75.0</ele><time>2026-04-10T09:26:05.001Z</time></trkpt><trkpt lat="14.753058383998813" lon="121.03203296661891"><ele>75.0</ele><time>2026-04-10T09:26:06.001Z</time></trkpt><trkpt lat="14.753172616050115" lon="121.03199133591745"><ele>75.0</ele><time>2026-04-10T09:26:07.001Z</time></trkpt><trkpt lat="14.753298274111547" lon="121.0319484833822"><ele>75.0</ele><time>2026-04-10T09:26:08.001Z</time></trkpt><trkpt lat="14.75341732970464" lon="121.031898098139"><ele>75.0</ele><time>2026-04-10T09:26:09.001Z</time></trkpt><trkpt lat="14.75354472844875" lon="121.03185073643847"><ele>75.0</ele><time>2026-04-10T09:26:10.001Z</time></trkpt><trkpt lat="14.753668847871197" lon="121.0318038873107"><ele>75.0</ele><time>2026-04-10T09:26:11.001Z</time></trkpt><trkpt lat="14.753785464898545" lon="121.03175570292571"><ele>72.5</ele><time>2026-04-10T09:26:12.001Z</time></trkpt><trkpt lat="14.753901364751794" lon="121.03170683690898"><ele>70.0</ele><time>2026-04-10T09:26:13.001Z</time></trkpt><trkpt lat="14.75401595594658" lon="121.0316592858006"><ele>67.5</ele><time>2026-04-10T09:26:14.001Z</time></trkpt><trkpt lat="14.754134478048563" lon="121.03161570900406"><ele>65.0</ele><time>2026-04-10T09:26:15.001Z</time></trkpt><trkpt lat="14.754239153134018" lon="121.03155532622415"><ele>65.0</ele><time>2026-04-10T09:26:16.001Z</time></trkpt><trkpt lat="14.754362627174965" lon="121.0314896644756"><ele>65.0</ele><time>2026-04-10T09:26:17.001Z</time></trkpt><trkpt lat="14.754470527364361" lon="121.03141977027092"><ele>65.0</ele><time>2026-04-10T09:26:18.001Z</time></trkpt><trkpt lat="14.754592887126352" lon="121.0313374328401"><ele>65.0</ele><time>2026-04-10T09:26:19.001Z</time></trkpt><trkpt lat="14.754700818347121" lon="121.03125197534942"><ele>63.25</ele><time>2026-04-10T09:26:20.001Z</time></trkpt><trkpt lat="14.754813282827355" lon="121.03117150151287"><ele>61.5</ele><time>2026-04-10T09:26:21.001Z</time></trkpt><trkpt lat="14.754916121387291" lon="121.03109273279905"><ele>59.75</ele><time>2026-04-10T09:26:22.001Z</time></trkpt><trkpt lat="14.755026802770121" lon="121.03101662067517"><ele>58.0</ele><time>2026-04-10T09:26:23.001Z</time></trkpt><trkpt lat="14.755136198268968" lon="121.03093499421183"><ele>57.75</ele><time>2026-04-10T09:26:24.001Z</time></trkpt><trkpt lat="14.755239738076076" lon="121.0308681507143"><ele>57.5</ele><time>2026-04-10T09:26:25.001Z</time></trkpt><trkpt lat="14.75534984636569" lon="121.0307953669057"><ele>57.25</ele><time>2026-04-10T09:26:26.001Z</time></trkpt><trkpt lat="14.755456844406103" lon="121.03071800861275"><ele>57.0</ele><time>2026-04-10T09:26:27.001Z</time></trkpt><trkpt lat="14.75554563523522" lon="121.03064366046475"><ele>57.0</ele><time>2026-04-10T09:26:28.001Z</time></trkpt><trkpt lat="14.755642824509742" lon="121.03057653671387"><ele>57.0</ele><time>2026-04-10T09:26:29.001Z</time></trkpt><trkpt lat="14.75571730420273" lon="121.0305200906206"><ele>57.0</ele><time>2026-04-10T09:26:30.001Z</time></trkpt><trkpt lat="14.75578880391538" lon="121.03046759928161"><ele>57.0</ele><time>2026-04-10T09:26:31.001Z</time></trkpt><trkpt lat="14.755841998988387" lon="121.03042299070331"><ele>57.0</ele><time>2026-04-10T09:26:32.001Z</time></trkpt><trkpt lat="14.755919598426779" lon="121.03033814928456"><ele>57.0</ele><time>2026-04-10T09:26:34.001Z</time></trkpt><trkpt lat="14.755986227080905" lon="121.03022637064895"><ele>57.0</ele><time>2026-04-10T09:26:36.001Z</time></trkpt><trkpt lat="14.756027095067289" lon="121.03016721564435"><ele>57.0</ele><time>2026-04-10T09:26:37.001Z</time></trkpt><trkpt lat="14.75606984369231" lon="121.03011646104201"><ele>57.0</ele><time>2026-04-10T09:26:38.001Z</time></trkpt><trkpt lat="14.756154822533382" lon="121.03004493965621"><ele>57.0</ele><time>2026-04-10T09:26:40.001Z</time></trkpt><trkpt lat="14.756206539479676" lon="121.0299996360159"><ele>57.0</ele><time>2026-04-10T09:26:41Z</time></trkpt><trkpt lat="14.756283137651813" lon="121.02992739351059"><ele>56.833333333333336</ele><time>2026-04-10T09:26:43Z</time></trkpt><trkpt lat="14.756354846030487" lon="121.02985921103269"><ele>56.66666666666667</ele><time>2026-04-10T09:26:45Z</time></trkpt><trkpt lat="14.75639534305087" lon="121.02980792341437"><ele>56.5</ele><time>2026-04-10T09:26:46Z</time></trkpt><trkpt lat="14.756449545278725" lon="121.0297644774271"><ele>56.333333333333336</ele><time>2026-04-10T09:26:47Z</time></trkpt><trkpt lat="14.756492652553439" lon="121.02971473193455"><ele>56.16666666666667</ele><time>2026-04-10T09:26:48Z</time></trkpt><trkpt lat="14.756578287182593" lon="121.02964598638934"><ele>56.0</ele><time>2026-04-10T09:26:50Z</time></trkpt><trkpt lat="14.756629732534327" lon="121.02959132468393"><ele>56.0</ele><time>2026-04-10T09:26:52Z</time></trkpt><trkpt lat="14.756690663129683" lon="121.02953653545534"><ele>56.0</ele><time>2026-04-10T09:26:54Z</time></trkpt><trkpt lat="14.756748672636673" lon="121.02948035261801"><ele>56.0</ele><time>2026-04-10T09:26:56Z</time></trkpt><trkpt lat="14.756801962302214" lon="121.02942682667293"><ele>56.0</ele><time>2026-04-10T09:26:58Z</time></trkpt><trkpt lat="14.75685892080408" lon="121.02937392872516"><ele>56.0</ele><time>2026-04-10T09:27:00Z</time></trkpt><trkpt lat="14.756910732595495" lon="121.02932584270077"><ele>56.0</ele><time>2026-04-10T09:27:02Z</time></trkpt><trkpt lat="14.756960409264568" lon="121.02928138720888"><ele>56.0</ele><time>2026-04-10T09:27:04Z</time></trkpt><trkpt lat="14.75701874117782" lon="121.0292264859327"><ele>56.0</ele><time>2026-04-10T09:27:06Z</time></trkpt><trkpt lat="14.757077777447886" lon="121.02916834796417"><ele>56.0</ele><time>2026-04-10T09:27:08Z</time></trkpt><trkpt lat="14.75712985592026" lon="121.02911972879559"><ele>56.0</ele><time>2026-04-10T09:27:10Z</time></trkpt><trkpt lat="14.757188514057695" lon="121.02906555743688"><ele>56.0</ele><time>2026-04-10T09:27:13Z</time></trkpt><trkpt lat="14.757241061694918" lon="121.0290122698218"><ele>56.0</ele><time>2026-04-10T09:27:16Z</time></trkpt><trkpt lat="14.757291710544374" lon="121.02896472487538"><ele>56.0</ele><time>2026-04-10T09:27:19Z</time></trkpt><trkpt lat="14.757343758961124" lon="121.02891520171252"><ele>56.0</ele><time>2026-04-10T09:27:22Z</time></trkpt><trkpt lat="14.757387525233002" lon="121.02886394125433"><ele>56.0</ele><time>2026-04-10T09:27:26Z</time></trkpt><trkpt lat="14.757443228837637" lon="121.02882940302486"><ele>55.99999999999999</ele><time>2026-04-10T09:27:39Z</time></trkpt><trkpt lat="14.757499734136145" lon="121.0287611011518"><ele>55.99999999999999</ele><time>2026-04-10T09:27:44Z</time></trkpt><trkpt lat="14.757405476890543" lon="121.02860707212128"><ele>56.0</ele><time>2026-04-10T09:27:45Z</time></trkpt><trkpt lat="14.757352778500158" lon="121.02854649019152"><ele>56.0</ele><time>2026-04-10T09:27:46Z</time></trkpt><trkpt lat="14.757304062408933" lon="121.0284904864882"><ele>56.0</ele><time>2026-04-10T09:27:47Z</time></trkpt><trkpt lat="14.757245638347817" lon="121.02842315338366"><ele>55.99999999999999</ele><time>2026-04-10T09:27:48Z</time></trkpt><trkpt lat="14.757174967128444" lon="121.02834178998457"><ele>55.99999999999999</ele><time>2026-04-10T09:27:49Z</time></trkpt><trkpt lat="14.757123398657138" lon="121.02828241947574"><ele>56.0</ele><time>2026-04-10T09:27:50Z</time></trkpt><trkpt lat="14.757050067471493" lon="121.02819799366925"><ele>56.0</ele><time>2026-04-10T09:27:51Z</time></trkpt><trkpt lat="14.756976640040575" lon="121.02811352951852"><ele>56.0</ele><time>2026-04-10T09:27:52Z</time></trkpt><trkpt lat="14.756904042891904" lon="121.0280301615726"><ele>55.99999999999999</ele><time>2026-04-10T09:27:53Z</time></trkpt><trkpt lat="14.756844202791797" lon="121.02796660099945"><ele>55.99999999999999</ele><time>2026-04-10T09:27:54Z</time></trkpt><trkpt lat="14.756772424050416" lon="121.0278792888087"><ele>56.0</ele><time>2026-04-10T09:27:55Z</time></trkpt><trkpt lat="14.756703224120981" lon="121.0277923378633"><ele>56.0</ele><time>2026-04-10T09:27:56Z</time></trkpt><trkpt lat="14.756636684245032" lon="121.02771043027535"><ele>56.0</ele><time>2026-04-10T09:27:57Z</time></trkpt><trkpt lat="14.75657063872817" lon="121.02762692790635"><ele>55.99999999999999</ele><time>2026-04-10T09:27:58Z</time></trkpt><trkpt lat="14.756508172951175" lon="121.02755206134714"><ele>55.99999999999999</ele><time>2026-04-10T09:27:59Z</time></trkpt><trkpt lat="14.756441633925832" lon="121.02747871289105"><ele>56.0</ele><time>2026-04-10T09:28:00Z</time></trkpt><trkpt lat="14.756373983265549" lon="121.0274034433612"><ele>56.0</ele><time>2026-04-10T09:28:01Z</time></trkpt><trkpt lat="14.756304135675535" lon="121.02732677700558"><ele>55.8</ele><time>2026-04-10T09:28:02Z</time></trkpt><trkpt lat="14.756240457919985" lon="121.0272465297123"><ele>55.599999999999994</ele><time>2026-04-10T09:28:03Z</time></trkpt><trkpt lat="14.756174751555347" lon="121.02716660979678"><ele>55.4</ele><time>2026-04-10T09:28:04Z</time></trkpt><trkpt lat="14.756115356128614" lon="121.02709828892012"><ele>55.2</ele><time>2026-04-10T09:28:05Z</time></trkpt><trkpt lat="14.756053317957436" lon="121.02702713934448"><ele>55.0</ele><time>2026-04-10T09:28:06Z</time></trkpt><trkpt lat="14.755992819160067" lon="121.0269565470986"><ele>55.166666666666664</ele><time>2026-04-10T09:28:07Z</time></trkpt><trkpt lat="14.755928570906658" lon="121.02688217867724"><ele>55.33333333333333</ele><time>2026-04-10T09:28:08Z</time></trkpt><trkpt lat="14.755866949038237" lon="121.02680456772325"><ele>55.5</ele><time>2026-04-10T09:28:09Z</time></trkpt><trkpt lat="14.755805600582512" lon="121.02673225178292"><ele>55.66666666666667</ele><time>2026-04-10T09:28:10Z</time></trkpt><trkpt lat="14.755750671582861" lon="121.02666414697882"><ele>55.833333333333336</ele><time>2026-04-10T09:28:11Z</time></trkpt><trkpt lat="14.755704786843506" lon="121.02660080632552"><ele>56.0</ele><time>2026-04-10T09:28:12Z</time></trkpt><trkpt lat="14.755644396641761" lon="121.0265252565206"><ele>56.0</ele><time>2026-04-10T09:28:13Z</time></trkpt><trkpt lat="14.755594535822118" lon="121.02646218182102"><ele>55.99999999999999</ele><time>2026-04-10T09:28:14Z</time></trkpt><trkpt lat="14.755534168079558" lon="121.0264022615693"><ele>55.99999999999999</ele><time>2026-04-10T09:28:15Z</time></trkpt><trkpt lat="14.755478059279216" lon="121.02632651851616"><ele>56.0</ele><time>2026-04-10T09:28:16Z</time></trkpt><trkpt lat="14.755413559456288" lon="121.02624879724077"><ele>56.0</ele><time>2026-04-10T09:28:17Z</time></trkpt><trkpt lat="14.755343733771115" lon="121.02616492437767"><ele>56.0</ele><time>2026-04-10T09:28:18Z</time></trkpt><trkpt lat="14.755275072593179" lon="121.02608245033821"><ele>55.99999999999999</ele><time>2026-04-10T09:28:19Z</time></trkpt><trkpt lat="14.755190011282037" lon="121.02601451823712"><ele>55.99999999999999</ele><time>2026-04-10T09:28:20Z</time></trkpt><trkpt lat="14.755117936218026" lon="121.02595507207249"><ele>56.0</ele><time>2026-04-10T09:28:21.001Z</time></trkpt><trkpt lat="14.755048800590037" lon="121.02589805030048"><ele>56.0</ele><time>2026-04-10T09:28:22.001Z</time></trkpt><trkpt lat="14.754985334376048" lon="121.02584570455986"><ele>55.833333333333336</ele><time>2026-04-10T09:28:23.001Z</time></trkpt><trkpt lat="14.754924311975337" lon="121.02579537442604"><ele>55.66666666666667</ele><time>2026-04-10T09:28:24.001Z</time></trkpt><trkpt lat="14.754864965932564" lon="121.02574642692244"><ele>55.5</ele><time>2026-04-10T09:28:25.001Z</time></trkpt><trkpt lat="14.754797540561194" lon="121.02569081574228"><ele>55.33333333333333</ele><time>2026-04-10T09:28:26.001Z</time></trkpt><trkpt lat="14.754730408144555" lon="121.02563507812057"><ele>55.166666666666664</ele><time>2026-04-10T09:28:27.001Z</time></trkpt><trkpt lat="14.754652175594531" lon="121.02559160855373"><ele>55.0</ele><time>2026-04-10T09:28:28.001Z</time></trkpt><trkpt lat="14.75458431679231" lon="121.02553265467387"><ele>54.99999999999999</ele><time>2026-04-10T09:28:29.001Z</time></trkpt><trkpt lat="14.754534532954814" lon="121.02547196497983"><ele>55.0</ele><time>2026-04-10T09:28:30.001Z</time></trkpt><trkpt lat="14.754467170376252" lon="121.02543747669623"><ele>55.0</ele><time>2026-04-10T09:28:31.001Z</time></trkpt><trkpt lat="14.754425837227972" lon="121.0253816931761"><ele>55.0</ele><time>2026-04-10T09:28:32.001Z</time></trkpt><trkpt lat="14.754376208876185" lon="121.02534056022374"><ele>54.99999999999999</ele><time>2026-04-10T09:28:33.001Z</time></trkpt><trkpt lat="14.754317648405486" lon="121.0253116725654"><ele>55.0</ele><time>2026-04-10T09:28:34.001Z</time></trkpt><trkpt lat="14.754231655023919" lon="121.02524000135651"><ele>55.0</ele><time>2026-04-10T09:28:36.001Z</time></trkpt><trkpt lat="14.754179328398351" lon="121.02519801021984"><ele>55.0</ele><time>2026-04-10T09:28:38.001Z</time></trkpt><trkpt lat="14.75420776828406" lon="121.02532095267945"><ele>55.0</ele><time>2026-04-10T09:28:49Z</time></trkpt><trkpt lat="14.754295965027156" lon="121.02539268994396"><ele>55.0</ele><time>2026-04-10T09:28:51Z</time></trkpt><trkpt lat="14.754372234526604" lon="121.02546543697011"><ele>55.0</ele><time>2026-04-10T09:28:53Z</time></trkpt><trkpt lat="14.754468715503755" lon="121.02553469983658"><ele>55.0</ele><time>2026-04-10T09:28:55Z</time></trkpt><trkpt lat="14.754522464834311" lon="121.02557440874729"><ele>55.0</ele><time>2026-04-10T09:28:56Z</time></trkpt><trkpt lat="14.754570032204263" lon="121.02562799240401"><ele>55.0</ele><time>2026-04-10T09:28:57Z</time></trkpt><trkpt lat="14.754654850883515" lon="121.0257124589716"><ele>55.0</ele><time>2026-04-10T09:28:59Z</time></trkpt><trkpt lat="14.754740252962256" lon="121.02577594602455"><ele>55.0</ele><time>2026-04-10T09:29:01Z</time></trkpt><trkpt lat="14.754822600655192" lon="121.02584428982246"><ele>55.33333333333333</ele><time>2026-04-10T09:29:03Z</time></trkpt><trkpt lat="14.75487477760028" lon="121.02589736203835"><ele>55.666666666666664</ele><time>2026-04-10T09:29:05Z</time></trkpt><trkpt lat="14.75493604435161" lon="121.02593095288067"><ele>56.0</ele><time>2026-04-10T09:29:08Z</time></trkpt><trkpt lat="14.75500347746291" lon="121.02594743902405"><ele>56.33333333333333</ele><time>2026-04-10T09:31:16Z</time></trkpt><trkpt lat="14.75504621108743" lon="121.02600439075451"><ele>56.666666666666664</ele><time>2026-04-10T09:31:24Z</time></trkpt><trkpt lat="14.755095215678384" lon="121.02604707661351"><ele>57.0</ele><time>2026-04-10T09:31:31Z</time></trkpt><trkpt lat="14.755175764166514" lon="121.025969713797"><ele>57.0</ele><time>2026-04-10T09:31:35Z</time></trkpt><trkpt lat="14.755134261389014" lon="121.02602239781734"><ele>56.99999999999999</ele><time>2026-04-10T09:32:52.001Z</time></trkpt><trkpt lat="14.75506432470182" lon="121.02601528907061"><ele>57.0</ele><time>2026-04-10T09:32:57.001Z</time></trkpt><trkpt lat="14.755001386053436" lon="121.02598613637184"><ele>57.0</ele><time>2026-04-10T09:33:03Z</time></trkpt><trkpt lat="14.754904938950743" lon="121.025976286746"><ele>56.99999999999999</ele><time>2026-04-10T09:33:49Z</time></trkpt><trkpt lat="14.754969517403081" lon="121.02595651500936"><ele>57.0</ele><time>2026-04-10T09:34:06Z</time></trkpt><trkpt lat="14.755037109087455" lon="121.02595609764523"><ele>57.0</ele><time>2026-04-10T09:34:13Z</time></trkpt><trkpt lat="14.755108376037281" lon="121.02596718755464"><ele>57.0</ele><time>2026-04-10T09:34:20Z</time></trkpt><trkpt lat="14.755176277589975" lon="121.02596101699115"><ele>57.0</ele><time>2026-04-10T09:34:29Z</time></trkpt><trkpt lat="14.755125070868088" lon="121.0260013260991"><ele>57.0</ele><time>2026-04-10T10:37:02.001Z</time></trkpt><trkpt lat="14.755057767767148" lon="121.02601338459678"><ele>57.0</ele><time>2026-04-10T10:37:11.001Z</time></trkpt><trkpt lat="14.754994035646028" lon="121.02600563864388"><ele>57.0</ele><time>2026-04-10T10:37:25.001Z</time></trkpt><trkpt lat="14.754900999776112" lon="121.02594466402893"><ele>57.0</ele><time>2026-04-10T10:56:25.002Z</time></trkpt><trkpt lat="14.754982436729106" lon="121.02595614164296"><ele>57.0</ele><time>2026-04-10T12:35:51Z</time></trkpt><trkpt lat="14.754927668037656" lon="121.02599252031405"><ele>57.0</ele><time>2026-04-10T12:35:59Z</time></trkpt><trkpt lat="14.754889579651799" lon="121.02605451806994"><ele>57.0</ele><time>2026-04-10T12:36:08Z</time></trkpt><trkpt lat="14.754824484896723" lon="121.0260612454591"><ele>57.0</ele><time>2026-04-10T12:37:00.055Z</time></trkpt><trkpt lat="14.754759566522024" lon="121.02600463320954"><ele>57.0</ele><time>2026-04-10T12:37:02.049Z</time></trkpt><trkpt lat="14.754827507733353" lon="121.02585209802781"><ele>57.0</ele><time>2026-04-10T12:37:05.044Z</time></trkpt><trkpt lat="14.754716757977773" lon="121.02588910096915"><ele>57.0</ele><time>2026-04-10T12:37:07.036Z</time></trkpt><trkpt lat="14.75462389144029" lon="121.02595123437662"><ele>57.0</ele><time>2026-04-10T12:37:12.001Z</time></trkpt><trkpt lat="14.75470371029077" lon="121.02603846279388"><ele>57.0</ele><time>2026-04-10T12:37:13.001Z</time></trkpt><trkpt lat="14.754768975935896" lon="121.02607958781675"><ele>57.0</ele><time>2026-04-10T12:37:14.001Z</time></trkpt><trkpt lat="14.754832270715617" lon="121.02612474380497"><ele>57.0</ele><time>2026-04-10T12:37:16.001Z</time></trkpt><trkpt lat="14.754805342876386" lon="121.02605782650261"><ele>57.0</ele><time>2026-04-10T12:37:20.001Z</time></trkpt><trkpt lat="14.754851197467781" lon="121.0260059365139"><ele>57.0</ele><time>2026-04-10T12:37:28.001Z</time></trkpt><trkpt lat="14.754939633096116" lon="121.02599142094995"><ele>57.0</ele><time>2026-04-10T12:37:42Z</time></trkpt><trkpt lat="14.754989902296751" lon="121.02595001653657"><ele>57.0</ele><time>2026-04-10T12:38:00Z</time></trkpt><trkpt lat="14.755008420318783" lon="121.02601834394942"><ele>57.0</ele><time>2026-04-10T12:46:29.001Z</time></trkpt><trkpt lat="14.755103190813015" lon="121.0260986423566"><ele>57.0</ele><time>2026-04-10T12:46:31.001Z</time></trkpt><trkpt lat="14.755152328451201" lon="121.02614292964142"><ele>56.833333333333336</ele><time>2026-04-10T12:46:32.001Z</time></trkpt><trkpt lat="14.75520400993301" lon="121.02619123182359"><ele>56.66666666666667</ele><time>2026-04-10T12:46:33.001Z</time></trkpt><trkpt lat="14.755258522759133" lon="121.02625081029585"><ele>56.5</ele><time>2026-04-10T12:46:34.001Z</time></trkpt><trkpt lat="14.755310360896107" lon="121.02630813500433"><ele>56.333333333333336</ele><time>2026-04-10T12:46:35.001Z</time></trkpt><trkpt lat="14.755363868169681" lon="121.0263708095762"><ele>56.16666666666667</ele><time>2026-04-10T12:46:36.001Z</time></trkpt><trkpt lat="14.755408644774484" lon="121.02642213991619"><ele>56.0</ele><time>2026-04-10T12:46:37.001Z</time></trkpt><trkpt lat="14.7554932341103" lon="121.02651752579233"><ele>56.0</ele><time>2026-04-10T12:46:39.001Z</time></trkpt><trkpt lat="14.755533297645156" lon="121.02656854325893"><ele>55.99999999999999</ele><time>2026-04-10T12:46:40.001Z</time></trkpt><trkpt lat="14.755583165938422" lon="121.02662382082957"><ele>55.99999999999999</ele><time>2026-04-10T12:46:41.001Z</time></trkpt><trkpt lat="14.755657141163399" lon="121.02670713056496"><ele>56.0</ele><time>2026-04-10T12:46:43.001Z</time></trkpt><trkpt lat="14.755730135152799" lon="121.02679118802047"><ele>56.0</ele><time>2026-04-10T12:46:45.001Z</time></trkpt><trkpt lat="14.755794672959443" lon="121.02688087119778"><ele>55.833333333333336</ele><time>2026-04-10T12:46:47.001Z</time></trkpt><trkpt lat="14.755869235793977" lon="121.02696968403149"><ele>55.66666666666667</ele><time>2026-04-10T12:46:49.001Z</time></trkpt><trkpt lat="14.755938881688184" lon="121.02706153634952"><ele>55.5</ele><time>2026-04-10T12:46:51.001Z</time></trkpt><trkpt lat="14.75598716381165" lon="121.02712269318884"><ele>55.33333333333333</ele><time>2026-04-10T12:46:53.001Z</time></trkpt><trkpt lat="14.756034024200382" lon="121.02717905714168"><ele>55.166666666666664</ele><time>2026-04-10T12:46:55.001Z</time></trkpt><trkpt lat="14.756080257141688" lon="121.0272386825535"><ele>55.0</ele><time>2026-04-10T12:46:57.001Z</time></trkpt><trkpt lat="14.756135819906383" lon="121.02730325208806"><ele>54.99999999999999</ele><time>2026-04-10T12:46:59.001Z</time></trkpt><trkpt lat="14.75620310609373" lon="121.02738567780304"><ele>55.0</ele><time>2026-04-10T12:47:01.001Z</time></trkpt><trkpt lat="14.756277675199138" lon="121.0274806058387"><ele>55.0</ele><time>2026-04-10T12:47:03.001Z</time></trkpt><trkpt lat="14.75632197058938" lon="121.02752918086347"><ele>55.0</ele><time>2026-04-10T12:47:04.001Z</time></trkpt><trkpt lat="14.756373531810985" lon="121.0275780403716"><ele>54.99999999999999</ele><time>2026-04-10T12:47:05.001Z</time></trkpt><trkpt lat="14.75643034148445" lon="121.0276387260313"><ele>55.0</ele><time>2026-04-10T12:47:06.001Z</time></trkpt><trkpt lat="14.756484007057416" lon="121.02770039874827"><ele>55.2</ele><time>2026-04-10T12:47:07.001Z</time></trkpt><trkpt lat="14.756544859062759" lon="121.0277721845697"><ele>55.4</ele><time>2026-04-10T12:47:08.001Z</time></trkpt><trkpt lat="14.756604320527254" lon="121.02784604977597"><ele>55.599999999999994</ele><time>2026-04-10T12:47:09.001Z</time></trkpt><trkpt lat="14.756664361572549" lon="121.02792840103783"><ele>55.8</ele><time>2026-04-10T12:47:10.001Z</time></trkpt><trkpt lat="14.756725483035488" lon="121.02800758659383"><ele>56.0</ele><time>2026-04-10T12:47:11.001Z</time></trkpt><trkpt lat="14.756791272874656" lon="121.02809614668271"><ele>56.00000000000001</ele><time>2026-04-10T12:47:12.001Z</time></trkpt><trkpt lat="14.75684987130465" lon="121.02817182981713"><ele>56.0</ele><time>2026-04-10T12:47:13.001Z</time></trkpt><trkpt lat="14.756905823240295" lon="121.02823887985426"><ele>56.0</ele><time>2026-04-10T12:47:14.001Z</time></trkpt><trkpt lat="14.756961670073037" lon="121.0283018692527"><ele>56.0</ele><time>2026-04-10T12:47:15.001Z</time></trkpt><trkpt lat="14.75701939967107" lon="121.02837337747883"><ele>56.00000000000001</ele><time>2026-04-10T12:47:16.001Z</time></trkpt><trkpt lat="14.757072677372527" lon="121.0284362746126"><ele>56.0</ele><time>2026-04-10T12:47:17.001Z</time></trkpt><trkpt lat="14.75712947011653" lon="121.02849560874891"><ele>56.0</ele><time>2026-04-10T12:47:18.001Z</time></trkpt><trkpt lat="14.757174398995568" lon="121.0285494539021"><ele>56.0</ele><time>2026-04-10T12:47:19.001Z</time></trkpt><trkpt lat="14.757210828983006" lon="121.02861438492708"><ele>56.0</ele><time>2026-04-10T12:47:20.001Z</time></trkpt><trkpt lat="14.75725543653866" lon="121.02867218689043"><ele>56.0</ele><time>2026-04-10T12:47:21.001Z</time></trkpt><trkpt lat="14.757310560712225" lon="121.02870712262069"><ele>56.0</ele><time>2026-04-10T12:47:22.001Z</time></trkpt><trkpt lat="14.757365829890261" lon="121.02876782900947"><ele>56.0</ele><time>2026-04-10T12:47:24.001Z</time></trkpt><trkpt lat="14.757414051942433" lon="121.02882043957709"><ele>56.0</ele><time>2026-04-10T12:47:30.001Z</time></trkpt><trkpt lat="14.75731711066187" lon="121.02891969098678"><ele>56.0</ele><time>2026-04-10T12:47:31.001Z</time></trkpt><trkpt lat="14.757252735568358" lon="121.02897303191627"><ele>55.99999999999999</ele><time>2026-04-10T12:47:34.001Z</time></trkpt><trkpt lat="14.75719361440834" lon="121.02903202633638"><ele>55.99999999999999</ele><time>2026-04-10T12:47:36.001Z</time></trkpt><trkpt lat="14.757111337373583" lon="121.0291121221948"><ele>56.0</ele><time>2026-04-10T12:47:38.001Z</time></trkpt><trkpt lat="14.757016985994316" lon="121.02920128788307"><ele>56.0</ele><time>2026-04-10T12:47:40.001Z</time></trkpt><trkpt lat="14.756967231345879" lon="121.02924566308063"><ele>56.0</ele><time>2026-04-10T12:47:41.001Z</time></trkpt><trkpt lat="14.756897388671984" lon="121.02929758250622"><ele>55.99999999999999</ele><time>2026-04-10T12:47:43.001Z</time></trkpt><trkpt lat="14.756846844002192" lon="121.02935046671085"><ele>55.99999999999999</ele><time>2026-04-10T12:47:45.001Z</time></trkpt><trkpt lat="14.756773816718027" lon="121.02941660619113"><ele>56.0</ele><time>2026-04-10T12:47:47.001Z</time></trkpt><trkpt lat="14.756686944663283" lon="121.0294933138577"><ele>56.0</ele><time>2026-04-10T12:47:49.001Z</time></trkpt><trkpt lat="14.756592857958012" lon="121.02958964491373"><ele>56.0</ele><time>2026-04-10T12:47:51.001Z</time></trkpt><trkpt lat="14.756542125574754" lon="121.02963842635292"><ele>56.0</ele><time>2026-04-10T12:47:52.001Z</time></trkpt><trkpt lat="14.756490231229703" lon="121.02968970573643"><ele>56.0</ele><time>2026-04-10T12:47:53.001Z</time></trkpt><trkpt lat="14.756441838710469" lon="121.0297340428255"><ele>56.0</ele><time>2026-04-10T12:47:54.001Z</time></trkpt><trkpt lat="14.756389531961323" lon="121.02978328034301"><ele>56.0</ele><time>2026-04-10T12:47:55.001Z</time></trkpt><trkpt lat="14.756338025471008" lon="121.02983523433369"><ele>56.0</ele><time>2026-04-10T12:47:56.001Z</time></trkpt><trkpt lat="14.756288992988782" lon="121.02987853663907"><ele>56.0</ele><time>2026-04-10T12:47:57.001Z</time></trkpt><trkpt lat="14.756202849961026" lon="121.02995670637235"><ele>55.8</ele><time>2026-04-10T12:47:59.001Z</time></trkpt><trkpt lat="14.756125985589144" lon="121.03002626630017"><ele>55.599999999999994</ele><time>2026-04-10T12:48:01.001Z</time></trkpt><trkpt lat="14.756053579126537" lon="121.03009471791917"><ele>55.4</ele><time>2026-04-10T12:48:03.001Z</time></trkpt><trkpt lat="14.75598176214946" lon="121.03016872213159"><ele>55.2</ele><time>2026-04-10T12:48:05.001Z</time></trkpt><trkpt lat="14.755881420400842" lon="121.03023749044213"><ele>55.0</ele><time>2026-04-10T12:48:07.001Z</time></trkpt><trkpt lat="14.75582825370422" lon="121.03028459005583"><ele>55.33333333333333</ele><time>2026-04-10T12:48:08.001Z</time></trkpt><trkpt lat="14.755776208482544" lon="121.03033069600215"><ele>55.666666666666664</ele><time>2026-04-10T12:48:09.001Z</time></trkpt><trkpt lat="14.755712734589522" lon="121.03037141558305"><ele>56.0</ele><time>2026-04-10T12:48:10.001Z</time></trkpt><trkpt lat="14.755642768967816" lon="121.03042440733337"><ele>56.33333333333333</ele><time>2026-04-10T12:48:11.001Z</time></trkpt><trkpt lat="14.75557114023732" lon="121.03047860701962"><ele>56.666666666666664</ele><time>2026-04-10T12:48:12.001Z</time></trkpt><trkpt lat="14.755494503250883" lon="121.03053659633801"><ele>57.0</ele><time>2026-04-10T12:48:13.001Z</time></trkpt><trkpt lat="14.755410238969203" lon="121.03060223369246"><ele>57.0</ele><time>2026-04-10T12:48:14.001Z</time></trkpt><trkpt lat="14.75532474623089" lon="121.03067023246474"><ele>57.0</ele><time>2026-04-10T12:48:15.001Z</time></trkpt><trkpt lat="14.755237980727511" lon="121.03073930158662"><ele>57.0</ele><time>2026-04-10T12:48:16.001Z</time></trkpt><trkpt lat="14.755146393085226" lon="121.0308122093525"><ele>57.0</ele><time>2026-04-10T12:48:17.001Z</time></trkpt><trkpt lat="14.755056010855238" lon="121.0308837251272"><ele>57.0</ele><time>2026-04-10T12:48:18.001Z</time></trkpt><trkpt lat="14.754962144170849" lon="121.03095771551507"><ele>57.25</ele><time>2026-04-10T12:48:19.001Z</time></trkpt><trkpt lat="14.754870182133915" lon="121.03102946782019"><ele>57.5</ele><time>2026-04-10T12:48:20.001Z</time></trkpt><trkpt lat="14.754776634932938" lon="121.03110232255237"><ele>57.75</ele><time>2026-04-10T12:48:21.001Z</time></trkpt><trkpt lat="14.754683828093343" lon="121.0311746006904"><ele>58.0</ele><time>2026-04-10T12:48:22.001Z</time></trkpt><trkpt lat="14.754588675428444" lon="121.0312478059827"><ele>58.0</ele><time>2026-04-10T12:48:23.001Z</time></trkpt><trkpt lat="14.754508512775516" lon="121.031325370333"><ele>58.0</ele><time>2026-04-10T12:48:24.001Z</time></trkpt><trkpt lat="14.754415577463467" lon="121.03139171892224"><ele>58.0</ele><time>2026-04-10T12:48:25.001Z</time></trkpt><trkpt lat="14.754315283158364" lon="121.03146347491285"><ele>58.0</ele><time>2026-04-10T12:48:26.001Z</time></trkpt><trkpt lat="14.75418133450992" lon="121.03150270439731"><ele>59.0</ele><time>2026-04-10T12:48:27.001Z</time></trkpt><trkpt lat="14.754084540298603" lon="121.03154569088188"><ele>60.0</ele><time>2026-04-10T12:48:28.001Z</time></trkpt><trkpt lat="14.753983615910034" lon="121.03158674047461"><ele>61.0</ele><time>2026-04-10T12:48:29.001Z</time></trkpt><trkpt lat="14.753871337405936" lon="121.03163166451765"><ele>62.0</ele><time>2026-04-10T12:48:30.001Z</time></trkpt><trkpt lat="14.753758053122478" lon="121.03167699098447"><ele>62.0</ele><time>2026-04-10T12:48:31.001Z</time></trkpt><trkpt lat="14.753657032674237" lon="121.0317173202545"><ele>62.0</ele><time>2026-04-10T12:48:32.001Z</time></trkpt><trkpt lat="14.753547512842095" lon="121.03176081498137"><ele>62.0</ele><time>2026-04-10T12:48:33.001Z</time></trkpt><trkpt lat="14.753446891060594" lon="121.03180098678224"><ele>62.0</ele><time>2026-04-10T12:48:34.001Z</time></trkpt><trkpt lat="14.753359451343789" lon="121.03184153039082"><ele>62.0</ele><time>2026-04-10T12:48:35.001Z</time></trkpt><trkpt lat="14.753232080648342" lon="121.03189756194668"><ele>64.6</ele><time>2026-04-10T12:48:36.001Z</time></trkpt><trkpt lat="14.753138872862506" lon="121.03193856492406"><ele>67.2</ele><time>2026-04-10T12:48:37.001Z</time></trkpt><trkpt lat="14.753032491292707" lon="121.03198536316206"><ele>69.8</ele><time>2026-04-10T12:48:38.001Z</time></trkpt><trkpt lat="14.752928264547181" lon="121.03203128014347"><ele>72.4</ele><time>2026-04-10T12:48:39.001Z</time></trkpt><trkpt lat="14.752833678288052" lon="121.03207177400628"><ele>75.0</ele><time>2026-04-10T12:48:40.001Z</time></trkpt><trkpt lat="14.752735396663882" lon="121.03211531728371"><ele>76.8</ele><time>2026-04-10T12:48:41.001Z</time></trkpt><trkpt lat="14.752642228637612" lon="121.03215659498623"><ele>78.6</ele><time>2026-04-10T12:48:42.001Z</time></trkpt><trkpt lat="14.752562624124916" lon="121.0322222165532"><ele>80.4</ele><time>2026-04-10T12:48:43.001Z</time></trkpt><trkpt lat="14.752464914954604" lon="121.03222029241404"><ele>82.2</ele><time>2026-04-10T12:48:44.001Z</time></trkpt><trkpt lat="14.75239566583715" lon="121.03229802435128"><ele>84.0</ele><time>2026-04-10T12:48:45.001Z</time></trkpt><trkpt lat="14.752322279942264" lon="121.03232254188181"><ele>84.0</ele><time>2026-04-10T12:48:46.001Z</time></trkpt><trkpt lat="14.752249275724436" lon="121.03235917835204"><ele>84.0</ele><time>2026-04-10T12:48:47.001Z</time></trkpt><trkpt lat="14.752173973633393" lon="121.03239321795786"><ele>84.0</ele><time>2026-04-10T12:48:48.001Z</time></trkpt><trkpt lat="14.75209755797297" lon="121.03242282407305"><ele>84.0</ele><time>2026-04-10T12:48:49.001Z</time></trkpt><trkpt lat="14.752026283577719" lon="121.03244358836461"><ele>84.0</ele><time>2026-04-10T12:48:50.001Z</time></trkpt><trkpt lat="14.751956228424849" lon="121.03246373107166"><ele>84.0</ele><time>2026-04-10T12:48:51.001Z</time></trkpt><trkpt lat="14.751791300500606" lon="121.03252851037428"><ele>81.4</ele><time>2026-04-10T12:48:53.001Z</time></trkpt><trkpt lat="14.751698853471819" lon="121.03257022920877"><ele>78.80000000000001</ele><time>2026-04-10T12:48:54.001Z</time></trkpt><trkpt lat="14.751609443459154" lon="121.03260339139825"><ele>76.19999999999999</ele><time>2026-04-10T12:48:55.001Z</time></trkpt><trkpt lat="14.751512578090225" lon="121.03264222276367"><ele>73.6</ele><time>2026-04-10T12:48:56.001Z</time></trkpt><trkpt lat="14.751409208729196" lon="121.03268580714298"><ele>71.0</ele><time>2026-04-10T12:48:57.001Z</time></trkpt><trkpt lat="14.751301704641097" lon="121.03273138739742"><ele>71.0</ele><time>2026-04-10T12:48:58.001Z</time></trkpt><trkpt lat="14.751196643417193" lon="121.03276554252912"><ele>71.0</ele><time>2026-04-10T12:48:59.001Z</time></trkpt><trkpt lat="14.751082678270663" lon="121.03281379888209"><ele>71.0</ele><time>2026-04-10T12:49:00.001Z</time></trkpt><trkpt lat="14.750968552701837" lon="121.03285855805316"><ele>71.0</ele><time>2026-04-10T12:49:01.001Z</time></trkpt><trkpt lat="14.750860995290225" lon="121.03290307579596"><ele>70.0</ele><time>2026-04-10T12:49:02.001Z</time></trkpt><trkpt lat="14.750753817746949" lon="121.03294167175292"><ele>69.0</ele><time>2026-04-10T12:49:03.001Z</time></trkpt><trkpt lat="14.750657514991264" lon="121.03297468764056"><ele>68.0</ele><time>2026-04-10T12:49:04.001Z</time></trkpt><trkpt lat="14.750568768473869" lon="121.03301475398304"><ele>67.0</ele><time>2026-04-10T12:49:05.001Z</time></trkpt><trkpt lat="14.750479131026713" lon="121.03305584521092"><ele>66.0</ele><time>2026-04-10T12:49:06.001Z</time></trkpt><trkpt lat="14.750386804337392" lon="121.03309525468607"><ele>66.0</ele><time>2026-04-10T12:49:07.001Z</time></trkpt><trkpt lat="14.75028770940076" lon="121.03313209933388"><ele>66.0</ele><time>2026-04-10T12:49:08.001Z</time></trkpt><trkpt lat="14.750198226250422" lon="121.0331638586138"><ele>66.0</ele><time>2026-04-10T12:49:09.001Z</time></trkpt><trkpt lat="14.750107912511025" lon="121.03320053255321"><ele>66.0</ele><time>2026-04-10T12:49:10.001Z</time></trkpt><trkpt lat="14.750018855785138" lon="121.03323830826838"><ele>66.0</ele><time>2026-04-10T12:49:11.001Z</time></trkpt><trkpt lat="14.749929294549318" lon="121.03327554550151"><ele>65.39999999999999</ele><time>2026-04-10T12:49:12.001Z</time></trkpt><trkpt lat="14.749834734201762" lon="121.03331199359273"><ele>64.8</ele><time>2026-04-10T12:49:13.001Z</time></trkpt><trkpt lat="14.749744274446407" lon="121.03334851799357"><ele>64.19999999999999</ele><time>2026-04-10T12:49:14.001Z</time></trkpt><trkpt lat="14.749657874066934" lon="121.03337899665314"><ele>63.599999999999994</ele><time>2026-04-10T12:49:15.001Z</time></trkpt><trkpt lat="14.749567511886708" lon="121.03341106834023"><ele>63.0</ele><time>2026-04-10T12:49:16.001Z</time></trkpt><trkpt lat="14.749483920865144" lon="121.03343808536935"><ele>63.0</ele><time>2026-04-10T12:49:17.001Z</time></trkpt><trkpt lat="14.749420489480547" lon="121.03346016962178"><ele>63.0</ele><time>2026-04-10T12:49:18.001Z</time></trkpt><trkpt lat="14.749352975756493" lon="121.03348446489345"><ele>63.0</ele><time>2026-04-10T12:49:19.001Z</time></trkpt><trkpt lat="14.749277989383144" lon="121.03350601872351"><ele>63.0</ele><time>2026-04-10T12:49:20.001Z</time></trkpt><trkpt lat="14.749190024208447" lon="121.03351653512557"><ele>63.0</ele><time>2026-04-10T12:49:21.001Z</time></trkpt><trkpt lat="14.74909805945456" lon="121.0335375549819"><ele>63.0</ele><time>2026-04-10T12:49:22.001Z</time></trkpt><trkpt lat="14.749001866589913" lon="121.033559991639"><ele>63.333333333333336</ele><time>2026-04-10T12:49:23.001Z</time></trkpt><trkpt lat="14.748913995887143" lon="121.03358303304319"><ele>63.66666666666667</ele><time>2026-04-10T12:49:24.001Z</time></trkpt><trkpt lat="14.748827621837718" lon="121.03360638211907"><ele>64.0</ele><time>2026-04-10T12:49:25.001Z</time></trkpt><trkpt lat="14.748751593395866" lon="121.03362765671548"><ele>64.33333333333334</ele><time>2026-04-10T12:49:26.001Z</time></trkpt><trkpt lat="14.748661030480296" lon="121.03364254846286"><ele>64.66666666666667</ele><time>2026-04-10T12:49:27.001Z</time></trkpt><trkpt lat="14.748583241648596" lon="121.03365944448177"><ele>65.0</ele><time>2026-04-10T12:49:28.001Z</time></trkpt><trkpt lat="14.748489169332188" lon="121.03368251229168"><ele>65.0</ele><time>2026-04-10T12:49:29.001Z</time></trkpt><trkpt lat="14.748396349564322" lon="121.03370844214813"><ele>65.0</ele><time>2026-04-10T12:49:30.001Z</time></trkpt><trkpt lat="14.748288366903912" lon="121.03373297801917"><ele>65.0</ele><time>2026-04-10T12:49:31.001Z</time></trkpt><trkpt lat="14.748193665253732" lon="121.03375644581283"><ele>65.0</ele><time>2026-04-10T12:49:32.001Z</time></trkpt><trkpt lat="14.748111145122381" lon="121.03377438505359"><ele>65.0</ele><time>2026-04-10T12:49:33.001Z</time></trkpt><trkpt lat="14.74803269627574" lon="121.03379037510828"><ele>65.0</ele><time>2026-04-10T12:49:34.001Z</time></trkpt><trkpt lat="14.74796651646587" lon="121.03380928915904"><ele>65.0</ele><time>2026-04-10T12:49:35.001Z</time></trkpt><trkpt lat="14.747863875722008" lon="121.0338517302597"><ele>65.0</ele><time>2026-04-10T12:49:37.001Z</time></trkpt><trkpt lat="14.747755921642481" lon="121.03388454462153"><ele>65.0</ele><time>2026-04-10T12:49:39.001Z</time></trkpt><trkpt lat="14.747691034290407" lon="121.03390531279966"><ele>65.0</ele><time>2026-04-10T12:49:40.001Z</time></trkpt><trkpt lat="14.747614512692639" lon="121.03392831757239"><ele>65.0</ele><time>2026-04-10T12:49:41.001Z</time></trkpt><trkpt lat="14.747530559200788" lon="121.03395135082137"><ele>64.8</ele><time>2026-04-10T12:49:42.001Z</time></trkpt><trkpt lat="14.747433332840698" lon="121.03397974445255"><ele>64.6</ele><time>2026-04-10T12:49:43.001Z</time></trkpt><trkpt lat="14.747325321559282" lon="121.03400614277807"><ele>64.4</ele><time>2026-04-10T12:49:44.001Z</time></trkpt><trkpt lat="14.7472123711771" lon="121.03403101035546"><ele>64.2</ele><time>2026-04-10T12:49:45.001Z</time></trkpt><trkpt lat="14.747100083626316" lon="121.03406219055597"><ele>64.0</ele><time>2026-04-10T12:49:46.001Z</time></trkpt><trkpt lat="14.746987128370513" lon="121.03410037596821"><ele>63.5</ele><time>2026-04-10T12:49:47.001Z</time></trkpt><trkpt lat="14.746867835144707" lon="121.03413499507757"><ele>63.0</ele><time>2026-04-10T12:49:48.001Z</time></trkpt><trkpt lat="14.746749840193534" lon="121.03417119050002"><ele>62.5</ele><time>2026-04-10T12:49:49.001Z</time></trkpt><trkpt lat="14.746631340984326" lon="121.03420581715028"><ele>62.0</ele><time>2026-04-10T12:49:50.001Z</time></trkpt><trkpt lat="14.74651395514955" lon="121.03424246396945"><ele>62.0</ele><time>2026-04-10T12:49:51.001Z</time></trkpt><trkpt lat="14.74639616913869" lon="121.03428030469786"><ele>62.0</ele><time>2026-04-10T12:49:52.001Z</time></trkpt><trkpt lat="14.746280920971998" lon="121.0343167231622"><ele>62.0</ele><time>2026-04-10T12:49:53.001Z</time></trkpt><trkpt lat="14.746164325314489" lon="121.0343546700181"><ele>62.0</ele><time>2026-04-10T12:49:54.001Z</time></trkpt><trkpt lat="14.746066498219257" lon="121.03438174594129"><ele>63.400000000000006</ele><time>2026-04-10T12:49:55.001Z</time></trkpt><trkpt lat="14.745957388339464" lon="121.03442035495064"><ele>64.80000000000001</ele><time>2026-04-10T12:49:56.001Z</time></trkpt><trkpt lat="14.745855123035755" lon="121.03445362878745"><ele>66.2</ele><time>2026-04-10T12:49:57.001Z</time></trkpt><trkpt lat="14.745750483664972" lon="121.03449213551407"><ele>67.60000000000001</ele><time>2026-04-10T12:49:58.001Z</time></trkpt><trkpt lat="14.745644049371165" lon="121.0345252190714"><ele>69.0</ele><time>2026-04-10T12:49:59.001Z</time></trkpt><trkpt lat="14.745530391041852" lon="121.03453668657868"><ele>69.0</ele><time>2026-04-10T12:50:00.001Z</time></trkpt><trkpt lat="14.745426828359294" lon="121.0345597578402"><ele>69.0</ele><time>2026-04-10T12:50:01.001Z</time></trkpt><trkpt lat="14.7453153045156" lon="121.03458460265512"><ele>69.0</ele><time>2026-04-10T12:50:02.001Z</time></trkpt><trkpt lat="14.745204930176655" lon="121.0346091913894"><ele>69.0</ele><time>2026-04-10T12:50:03.001Z</time></trkpt><trkpt lat="14.745106299274667" lon="121.0346357748801"><ele>69.0</ele><time>2026-04-10T12:50:04.001Z</time></trkpt><trkpt lat="14.74503350167225" lon="121.03467084552369"><ele>70.33333333333333</ele><time>2026-04-10T12:50:05.001Z</time></trkpt><trkpt lat="14.744959292910123" lon="121.03469268605349"><ele>71.66666666666667</ele><time>2026-04-10T12:50:06.001Z</time></trkpt><trkpt lat="14.744866815659691" lon="121.03470068930079"><ele>73.0</ele><time>2026-04-10T12:50:08.001Z</time></trkpt><trkpt lat="14.744789295850454" lon="121.03471045763196"><ele>74.33333333333334</ele><time>2026-04-10T12:50:11.001Z</time></trkpt><trkpt lat="14.744699467374163" lon="121.034723678595"><ele>75.66666666666667</ele><time>2026-04-10T12:50:13.001Z</time></trkpt><trkpt lat="14.744600695573942" lon="121.03473944853252"><ele>77.0</ele><time>2026-04-10T12:50:15.001Z</time></trkpt><trkpt lat="14.744515522851618" lon="121.03474070620486"><ele>77.0</ele><time>2026-04-10T12:50:17.001Z</time></trkpt><trkpt lat="14.744447635282322" lon="121.03475634783854"><ele>77.0</ele><time>2026-04-10T12:50:20.001Z</time></trkpt><trkpt lat="14.744382260971078" lon="121.0347601525921"><ele>77.0</ele><time>2026-04-10T12:50:30.001Z</time></trkpt><trkpt lat="14.744304654071158" lon="121.03476107008328"><ele>77.0</ele><time>2026-04-10T12:50:36.001Z</time></trkpt><trkpt lat="14.744267732508584" lon="121.03488738786123"><ele>77.0</ele><time>2026-04-10T12:50:38.001Z</time></trkpt><trkpt lat="14.744237298113823" lon="121.03496501669152"><ele>77.0</ele><time>2026-04-10T12:50:40.001Z</time></trkpt><trkpt lat="14.744202702468463" lon="121.03503593181844"><ele>76.8</ele><time>2026-04-10T12:50:43.001Z</time></trkpt><trkpt lat="14.744178183885321" lon="121.03512502376435"><ele>76.6</ele><time>2026-04-10T12:50:46.001Z</time></trkpt><trkpt lat="14.744251392553268" lon="121.03519411494001"><ele>76.39999999999999</ele><time>2026-04-10T12:50:49.001Z</time></trkpt><trkpt lat="14.744340626392214" lon="121.03525975134838"><ele>76.2</ele><time>2026-04-10T12:50:51.001Z</time></trkpt><trkpt lat="14.744451352325102" lon="121.03531226224997"><ele>76.0</ele><time>2026-04-10T12:50:53.001Z</time></trkpt><trkpt lat="14.744523971741103" lon="121.03540301126323"><ele>75.33333333333333</ele><time>2026-04-10T12:50:55.001Z</time></trkpt><trkpt lat="14.74457384817468" lon="121.03551013829029"><ele>74.66666666666666</ele><time>2026-04-10T12:50:57.001Z</time></trkpt><trkpt lat="14.74458269005463" lon="121.03559003806126"><ele>74.0</ele><time>2026-04-10T12:50:59.001Z</time></trkpt><trkpt lat="14.744576871096005" lon="121.03571129291653"><ele>73.33333333333333</ele><time>2026-04-10T12:51:03.001Z</time></trkpt><trkpt lat="14.744577448326824" lon="121.03577881575862"><ele>72.66666666666667</ele><time>2026-04-10T12:51:04.001Z</time></trkpt><trkpt lat="14.74457880208212" lon="121.03585453576443"><ele>72.0</ele><time>2026-04-10T12:51:05.001Z</time></trkpt><trkpt lat="14.74457761885088" lon="121.03593349116522"><ele>72.0</ele><time>2026-04-10T12:51:06.001Z</time></trkpt><trkpt lat="14.744581998741232" lon="121.03601308594382"><ele>72.0</ele><time>2026-04-10T12:51:07.001Z</time></trkpt><trkpt lat="14.744583083260984" lon="121.03609041047378"><ele>72.0</ele><time>2026-04-10T12:51:08.001Z</time></trkpt><trkpt lat="14.744575472300351" lon="121.03616033799135"><ele>72.0</ele><time>2026-04-10T12:51:09.001Z</time></trkpt><trkpt lat="14.744535165440242" lon="121.03624469582174"><ele>72.0</ele><time>2026-04-10T12:51:11.001Z</time></trkpt><trkpt lat="14.744456903181808" lon="121.03625293119171"><ele>72.0</ele><time>2026-04-10T12:51:13.001Z</time></trkpt><trkpt lat="14.744377405773635" lon="121.03625229336167"><ele>72.0</ele><time>2026-04-10T12:51:15.001Z</time></trkpt><trkpt lat="14.744308038278511" lon="121.03625397311116"><ele>72.0</ele><time>2026-04-10T12:51:17.001Z</time></trkpt><trkpt lat="14.74423692373628" lon="121.03626755142629"><ele>72.0</ele><time>2026-04-10T12:51:20.001Z</time></trkpt><trkpt lat="14.744179208684859" lon="121.03629491151244"><ele>72.0</ele><time>2026-04-10T12:51:24.001Z</time></trkpt><trkpt lat="14.744112386597706" lon="121.03639115759866"><ele>72.0</ele><time>2026-04-10T12:51:27.001Z</time></trkpt><trkpt lat="14.744100356540685" lon="121.036470005652"><ele>72.0</ele><time>2026-04-10T12:51:29.001Z</time></trkpt><trkpt lat="14.744104193171014" lon="121.03654857404456"><ele>72.0</ele><time>2026-04-10T12:51:32.001Z</time></trkpt><trkpt lat="14.744105497469862" lon="121.03662350487548"><ele>72.0</ele><time>2026-04-10T12:51:37.001Z</time></trkpt><trkpt lat="14.74410281649234" lon="121.03670560125246"><ele>72.0</ele><time>2026-04-10T12:51:39.001Z</time></trkpt><trkpt lat="14.744099897705285" lon="121.03681488320268"><ele>72.0</ele><time>2026-04-10T12:51:41.001Z</time></trkpt><trkpt lat="14.74409918263469" lon="121.03693336772366"><ele>72.0</ele><time>2026-04-10T12:51:43.001Z</time></trkpt><trkpt lat="14.744098605416562" lon="121.03702789489193"><ele>71.0</ele><time>2026-04-10T12:51:45.001Z</time></trkpt><trkpt lat="14.744099504268613" lon="121.03709817794486"><ele>70.0</ele><time>2026-04-10T12:51:47.001Z</time></trkpt><trkpt lat="14.744100695934947" lon="121.03717562108972"><ele>69.0</ele><time>2026-04-10T12:51:52.001Z</time></trkpt><trkpt lat="14.744108633153143" lon="121.0372685619094"><ele>68.0</ele><time>2026-04-10T12:51:57.001Z</time></trkpt><trkpt lat="14.744103376592712" lon="121.03733656434645"><ele>67.0</ele><time>2026-04-10T12:52:00.001Z</time></trkpt><trkpt lat="14.744205809860722" lon="121.03734486632163"><ele>66.0</ele><time>2026-04-10T12:52:01.001Z</time></trkpt><trkpt lat="14.744303063359872" lon="121.03734008650622"><ele>66.0</ele><time>2026-04-10T12:52:03.001Z</time></trkpt><trkpt lat="14.744376915840581" lon="121.03734022146865"><ele>66.0</ele><time>2026-04-10T12:52:05.001Z</time></trkpt><trkpt lat="14.744451664254498" lon="121.03734431361993"><ele>66.0</ele><time>2026-04-10T12:52:07.001Z</time></trkpt><trkpt lat="14.744517798100578" lon="121.03735407918258"><ele>66.0</ele><time>2026-04-10T12:52:09.001Z</time></trkpt><trkpt lat="14.744567757283246" lon="121.03746815745356"><ele>66.0</ele><time>2026-04-10T12:52:13.001Z</time></trkpt><trkpt lat="14.744566797740402" lon="121.03757218876103"><ele>66.0</ele><time>2026-04-10T12:52:15.001Z</time></trkpt><trkpt lat="14.7445655575527" lon="121.03769049448258"><ele>65.33333333333333</ele><time>2026-04-10T12:52:17.001Z</time></trkpt><trkpt lat="14.744565138657789" lon="121.03775676335952"><ele>64.66666666666667</ele><time>2026-04-10T12:52:18.001Z</time></trkpt><trkpt lat="14.74456504482251" lon="121.03783309439477"><ele>64.0</ele><time>2026-04-10T12:52:19.001Z</time></trkpt><trkpt lat="14.744561703453863" lon="121.03791903432324"><ele>63.333333333333336</ele><time>2026-04-10T12:52:20.001Z</time></trkpt><trkpt lat="14.74455755573115" lon="121.03801391931036"><ele>62.66666666666667</ele><time>2026-04-10T12:52:21.001Z</time></trkpt><trkpt lat="14.744555371824928" lon="121.03811426100235"><ele>62.0</ele><time>2026-04-10T12:52:22.001Z</time></trkpt><trkpt lat="14.744557934798884" lon="121.03820103417186"><ele>62.00000000000001</ele><time>2026-04-10T12:52:23.001Z</time></trkpt><trkpt lat="14.74456349068143" lon="121.03827896824549"><ele>62.0</ele><time>2026-04-10T12:52:24.001Z</time></trkpt><trkpt lat="14.744567448770061" lon="121.03835129737762"><ele>62.0</ele><time>2026-04-10T12:52:25.001Z</time></trkpt><trkpt lat="14.744578519314219" lon="121.03847147084"><ele>62.0</ele><time>2026-04-10T12:52:27.001Z</time></trkpt><trkpt lat="14.744581834670168" lon="121.03859462829689"><ele>62.00000000000001</ele><time>2026-04-10T12:52:29.001Z</time></trkpt><trkpt lat="14.74457096818563" lon="121.03866246300673"><ele>62.0</ele><time>2026-04-10T12:52:30.001Z</time></trkpt><trkpt lat="14.744567642619126" lon="121.03873050046381"><ele>62.333333333333336</ele><time>2026-04-10T12:52:31.001Z</time></trkpt><trkpt lat="14.74456433869498" lon="121.03879858598678"><ele>62.66666666666667</ele><time>2026-04-10T12:52:32.001Z</time></trkpt><trkpt lat="14.744568653839496" lon="121.03886444741457"><ele>63.0</ele><time>2026-04-10T12:52:34.001Z</time></trkpt><trkpt lat="14.744571370551807" lon="121.03893424905034"><ele>63.33333333333333</ele><time>2026-04-10T12:52:37.001Z</time></trkpt><trkpt lat="14.744573951017566" lon="121.03900349749904"><ele>63.666666666666664</ele><time>2026-04-10T12:52:38.001Z</time></trkpt><trkpt lat="14.744586129405924" lon="121.03912833965535"><ele>64.0</ele><time>2026-04-10T12:52:40.001Z</time></trkpt><trkpt lat="14.744589217448178" lon="121.0392005175291"><ele>64.33333333333333</ele><time>2026-04-10T12:52:41.001Z</time></trkpt><trkpt lat="14.744589409783908" lon="121.0392705351328"><ele>64.66666666666666</ele><time>2026-04-10T12:52:42.001Z</time></trkpt><trkpt lat="14.74459079599535" lon="121.03933842834019"><ele>65.0</ele><time>2026-04-10T12:52:43.001Z</time></trkpt><trkpt lat="14.744599515388591" lon="121.03944375273433"><ele>65.33333333333333</ele><time>2026-04-10T12:52:45.001Z</time></trkpt><trkpt lat="14.744598424555928" lon="121.03952667034076"><ele>65.66666666666667</ele><time>2026-04-10T12:52:47.001Z</time></trkpt><trkpt lat="14.744709130452902" lon="121.0395017832005"><ele>66.0</ele><time>2026-04-10T12:52:48.001Z</time></trkpt><trkpt lat="14.74482500106838" lon="121.03949213302924"><ele>66.0</ele><time>2026-04-10T12:52:50.001Z</time></trkpt><trkpt lat="14.744878103636484" lon="121.03957997207348"><ele>66.0</ele><time>2026-04-10T12:52:53.001Z</time></trkpt><trkpt lat="14.744888804562633" lon="121.03966377157295"><ele>66.0</ele><time>2026-04-10T12:52:55.001Z</time></trkpt><trkpt lat="14.744977660673158" lon="121.03969635712323"><ele>66.0</ele><time>2026-04-10T12:52:57.001Z</time></trkpt><trkpt lat="14.745063833016875" lon="121.03969457697943"><ele>66.0</ele><time>2026-04-10T12:52:59.001Z</time></trkpt><trkpt lat="14.745096937565378" lon="121.03981351756534"><ele>66.0</ele><time>2026-04-10T12:53:02.001Z</time></trkpt><trkpt lat="14.745089812998131" lon="121.03993504890813"><ele>66.0</ele><time>2026-04-10T12:53:04.001Z</time></trkpt><trkpt lat="14.74509297188395" lon="121.04000098610496"><ele>66.0</ele><time>2026-04-10T12:53:05.001Z</time></trkpt><trkpt lat="14.745093507688713" lon="121.04007644481098"><ele>66.0</ele><time>2026-04-10T12:53:06.001Z</time></trkpt><trkpt lat="14.745092847123733" lon="121.04015130995555"><ele>66.0</ele><time>2026-04-10T12:53:07.001Z</time></trkpt><trkpt lat="14.745096085791879" lon="121.04023190171773"><ele>66.0</ele><time>2026-04-10T12:53:08.001Z</time></trkpt><trkpt lat="14.745096936152962" lon="121.04030865627531"><ele>65.5</ele><time>2026-04-10T12:53:09.001Z</time></trkpt><trkpt lat="14.745100715573335" lon="121.04039666306852"><ele>65.0</ele><time>2026-04-10T12:53:10.001Z</time></trkpt><trkpt lat="14.745104409017799" lon="121.04047598005522"><ele>64.5</ele><time>2026-04-10T12:53:11.001Z</time></trkpt><trkpt lat="14.74510340029314" lon="121.04054678296274"><ele>64.0</ele><time>2026-04-10T12:53:12.001Z</time></trkpt><trkpt lat="14.745101862391927" lon="121.04063200556445"><ele>63.5</ele><time>2026-04-10T12:53:13.001Z</time></trkpt><trkpt lat="14.745098462261327" lon="121.04070727638486"><ele>63.0</ele><time>2026-04-10T12:53:14.001Z</time></trkpt><trkpt lat="14.745098140586332" lon="121.04077471286938"><ele>62.5</ele><time>2026-04-10T12:53:15.001Z</time></trkpt><trkpt lat="14.745103884486802" lon="121.04086889378502"><ele>62.0</ele><time>2026-04-10T12:53:19.001Z</time></trkpt><trkpt lat="14.745122100709482" lon="121.04101160155605"><ele>61.5</ele><time>2026-04-10T12:53:21.001Z</time></trkpt><trkpt lat="14.74511730783022" lon="121.0410831595908"><ele>61.0</ele><time>2026-04-10T12:53:22.001Z</time></trkpt><trkpt lat="14.74510415703843" lon="121.04115433561512"><ele>60.5</ele><time>2026-04-10T12:53:23.001Z</time></trkpt><trkpt lat="14.745110793725177" lon="121.04123062686077"><ele>60.0</ele><time>2026-04-10T12:53:25.001Z</time></trkpt><trkpt lat="14.745103425991786" lon="121.04134980424324"><ele>60.0</ele><time>2026-04-10T12:53:28.001Z</time></trkpt><trkpt lat="14.745103592178168" lon="121.04141977508426"><ele>60.0</ele><time>2026-04-10T12:53:29.001Z</time></trkpt><trkpt lat="14.745101366869694" lon="121.04150684892153"><ele>60.0</ele><time>2026-04-10T12:53:30.001Z</time></trkpt><trkpt lat="14.745103294591434" lon="121.04159605854203"><ele>60.0</ele><time>2026-04-10T12:53:31.001Z</time></trkpt><trkpt lat="14.745104751544709" lon="121.04168403506993"><ele>60.0</ele><time>2026-04-10T12:53:32.001Z</time></trkpt><trkpt lat="14.745107813225383" lon="121.04179280515304"><ele>60.0</ele><time>2026-04-10T12:53:33.001Z</time></trkpt><trkpt lat="14.7451040433585" lon="121.04189823218039"><ele>59.5</ele><time>2026-04-10T12:53:34.001Z</time></trkpt><trkpt lat="14.745106291022454" lon="121.04199607343492"><ele>59.0</ele><time>2026-04-10T12:53:35.001Z</time></trkpt><trkpt lat="14.745107184736739" lon="121.04207533554207"><ele>58.5</ele><time>2026-04-10T12:53:36.001Z</time></trkpt><trkpt lat="14.745105103295062" lon="121.04215919810498"><ele>58.0</ele><time>2026-04-10T12:53:37.001Z</time></trkpt><trkpt lat="14.745106091169173" lon="121.04223937251021"><ele>57.5</ele><time>2026-04-10T12:53:38.001Z</time></trkpt><trkpt lat="14.74510729401111" lon="121.04231218849925"><ele>57.0</ele><time>2026-04-10T12:53:39.001Z</time></trkpt><trkpt lat="14.745104245709877" lon="121.04240252773617"><ele>56.833333333333336</ele><time>2026-04-10T12:53:41.001Z</time></trkpt><trkpt lat="14.745104110133862" lon="121.0425119926306"><ele>56.66666666666667</ele><time>2026-04-10T12:53:45.001Z</time></trkpt><trkpt lat="14.745098446090543" lon="121.0425868655536"><ele>56.5</ele><time>2026-04-10T12:53:46.001Z</time></trkpt><trkpt lat="14.745100432237377" lon="121.04267499621093"><ele>56.333333333333336</ele><time>2026-04-10T12:53:47.001Z</time></trkpt><trkpt lat="14.745099945579494" lon="121.04276923252283"><ele>56.16666666666667</ele><time>2026-04-10T12:53:48.001Z</time></trkpt><trkpt lat="14.745102461308164" lon="121.04286509203831"><ele>56.0</ele><time>2026-04-10T12:53:49.001Z</time></trkpt><trkpt lat="14.745101550790423" lon="121.04294236415606"><ele>56.00000000000001</ele><time>2026-04-10T12:53:50.001Z</time></trkpt><trkpt lat="14.745104730734397" lon="121.043013060197"><ele>56.0</ele><time>2026-04-10T12:53:53.001Z</time></trkpt><trkpt lat="14.745103305617771" lon="121.04312798381416"><ele>56.0</ele><time>2026-04-10T12:53:56.001Z</time></trkpt><trkpt lat="14.745108606087868" lon="121.0432097134832"><ele>56.0</ele><time>2026-04-10T12:53:57.001Z</time></trkpt><trkpt lat="14.745114443935663" lon="121.04329393650083"><ele>56.00000000000001</ele><time>2026-04-10T12:53:58.001Z</time></trkpt><trkpt lat="14.745111268680333" lon="121.04338671538281"><ele>56.0</ele><time>2026-04-10T12:53:59.001Z</time></trkpt><trkpt lat="14.745111960700111" lon="121.0434615821444"><ele>56.66666666666667</ele><time>2026-04-10T12:54:00.001Z</time></trkpt><trkpt lat="14.74510794898556" lon="121.0435268879097"><ele>57.333333333333336</ele><time>2026-04-10T12:54:01.001Z</time></trkpt><trkpt lat="14.745109415668708" lon="121.04359236063097"><ele>58.0</ele><time>2026-04-10T12:54:03.001Z</time></trkpt><trkpt lat="14.74510845255959" lon="121.04366924489557"><ele>58.66666666666667</ele><time>2026-04-10T12:54:07.001Z</time></trkpt><trkpt lat="14.745100665256215" lon="121.04377080931857"><ele>59.333333333333336</ele><time>2026-04-10T12:54:09.001Z</time></trkpt><trkpt lat="14.745097311633566" lon="121.04389785216435"><ele>60.0</ele><time>2026-04-10T12:54:11.001Z</time></trkpt><trkpt lat="14.74509848528775" lon="121.04396905362893"><ele>60.0</ele><time>2026-04-10T12:54:12.001Z</time></trkpt><trkpt lat="14.745101464132173" lon="121.04405213385259"><ele>60.0</ele><time>2026-04-10T12:54:13.001Z</time></trkpt><trkpt lat="14.74509956982435" lon="121.04414140284253"><ele>60.0</ele><time>2026-04-10T12:54:14.001Z</time></trkpt><trkpt lat="14.74509896139531" lon="121.0442196336071"><ele>60.0</ele><time>2026-04-10T12:54:15.001Z</time></trkpt><trkpt lat="14.745103385229955" lon="121.04429299439605"><ele>60.0</ele><time>2026-04-10T12:54:16.001Z</time></trkpt><trkpt lat="14.745107675352905" lon="121.04436708758105"><ele>60.0</ele><time>2026-04-10T12:54:17.001Z</time></trkpt><trkpt lat="14.745108211241288" lon="121.04443465426239"><ele>60.142857142857146</ele><time>2026-04-10T12:54:18.001Z</time></trkpt><trkpt lat="14.745106612830963" lon="121.04451070218273"><ele>60.28571428571428</ele><time>2026-04-10T12:54:19.001Z</time></trkpt><trkpt lat="14.745108078266494" lon="121.04458905109982"><ele>60.42857142857142</ele><time>2026-04-10T12:54:20.001Z</time></trkpt><trkpt lat="14.745106617669583" lon="121.04466473228142"><ele>60.57142857142857</ele><time>2026-04-10T12:54:21.001Z</time></trkpt><trkpt lat="14.745109936037482" lon="121.04474058192466"><ele>60.71428571428571</ele><time>2026-04-10T12:54:22.001Z</time></trkpt><trkpt lat="14.745108327951032" lon="121.04481848498219"><ele>60.85714285714285</ele><time>2026-04-10T12:54:23.001Z</time></trkpt><trkpt lat="14.745116245892095" lon="121.04489861181993"><ele>60.99999999999999</ele><time>2026-04-10T12:54:25.001Z</time></trkpt><trkpt lat="14.74511491988816" lon="121.04499174207966"><ele>61.666666666666664</ele><time>2026-04-10T12:54:27.001Z</time></trkpt><trkpt lat="14.745111299211281" lon="121.04505692040387"><ele>62.33333333333333</ele><time>2026-04-10T12:54:28.001Z</time></trkpt><trkpt lat="14.745107605074406" lon="121.04512250004892"><ele>63.0</ele><time>2026-04-10T12:54:29.001Z</time></trkpt><trkpt lat="14.745107551057282" lon="121.04519319072217"><ele>63.66666666666667</ele><time>2026-04-10T12:54:30.001Z</time></trkpt><trkpt lat="14.745108303670563" lon="121.04527878657436"><ele>64.33333333333334</ele><time>2026-04-10T12:54:32.001Z</time></trkpt><trkpt lat="14.74511197330812" lon="121.04540271228505"><ele>65.0</ele><time>2026-04-10T12:54:34.001Z</time></trkpt><trkpt lat="14.745117934718223" lon="121.04548227753398"><ele>65.0</ele><time>2026-04-10T12:54:35.001Z</time></trkpt><trkpt lat="14.745100757987283" lon="121.04558229032853"><ele>65.0</ele><time>2026-04-10T12:54:37.001Z</time></trkpt><trkpt lat="14.745100041419297" lon="121.04566135850925"><ele>65.0</ele><time>2026-04-10T12:54:39.001Z</time></trkpt><trkpt lat="14.745118150192905" lon="121.04572811773676"><ele>65.0</ele><time>2026-04-10T12:55:17.001Z</time></trkpt><trkpt lat="14.745121662212705" lon="121.04580535995997"><ele>65.0</ele><time>2026-04-10T12:55:19.001Z</time></trkpt><trkpt lat="14.745067291768594" lon="121.0458685277905"><ele>65.0</ele><time>2026-04-10T12:55:27.001Z</time></trkpt><trkpt lat="14.744982746753617" lon="121.04585516504132"><ele>65.16666666666667</ele><time>2026-04-10T12:55:28.001Z</time></trkpt><trkpt lat="14.74491701458577" lon="121.04586881574124"><ele>65.33333333333334</ele><time>2026-04-10T12:55:29.001Z</time></trkpt><trkpt lat="14.744854779610852" lon="121.04588174016206"><ele>65.5</ele><time>2026-04-10T12:55:30.001Z</time></trkpt><trkpt lat="14.744772110608048" lon="121.04589890812754"><ele>65.66666666666667</ele><time>2026-04-10T12:55:31.001Z</time></trkpt><trkpt lat="14.744692104811003" lon="121.04593115657741"><ele>65.83333333333333</ele><time>2026-04-10T12:55:32.001Z</time></trkpt><trkpt lat="14.74460262182953" lon="121.04594488825144"><ele>66.0</ele><time>2026-04-10T12:55:33.001Z</time></trkpt><trkpt lat="14.744520664219941" lon="121.04595982033197"><ele>66.0</ele><time>2026-04-10T12:55:34.001Z</time></trkpt><trkpt lat="14.744441530121307" lon="121.04597986603194"><ele>66.0</ele><time>2026-04-10T12:55:35.001Z</time></trkpt><trkpt lat="14.744356987010816" lon="121.04598470647709"><ele>66.0</ele><time>2026-04-10T12:55:36.001Z</time></trkpt><trkpt lat="14.744270351123625" lon="121.04600251342795"><ele>66.0</ele><time>2026-04-10T12:55:37.001Z</time></trkpt><trkpt lat="14.744183569692007" lon="121.04602035029204"><ele>66.0</ele><time>2026-04-10T12:55:38.001Z</time></trkpt><trkpt lat="14.74409852172419" lon="121.04605435072689"><ele>66.0</ele><time>2026-04-10T12:55:39.001Z</time></trkpt><trkpt lat="14.744006572858565" lon="121.04606666574276"><ele>65.5</ele><time>2026-04-10T12:55:40.001Z</time></trkpt><trkpt lat="14.743924023425732" lon="121.04608832750918"><ele>65.0</ele><time>2026-04-10T12:55:41.001Z</time></trkpt><trkpt lat="14.743836884025704" lon="121.04610658985303"><ele>64.5</ele><time>2026-04-10T12:55:42.001Z</time></trkpt><trkpt lat="14.743758591095485" lon="121.04610795736517"><ele>64.0</ele><time>2026-04-10T12:55:43.001Z</time></trkpt><trkpt lat="14.743690709528313" lon="121.0461360479453"><ele>63.5</ele><time>2026-04-10T12:55:44.001Z</time></trkpt><trkpt lat="14.743614592458362" lon="121.04614352281924"><ele>63.0</ele><time>2026-04-10T12:55:45.001Z</time></trkpt><trkpt lat="14.743542546848886" lon="121.04615902748333"><ele>63.0</ele><time>2026-04-10T12:55:46.001Z</time></trkpt><trkpt lat="14.743478664429073" lon="121.04617234659838"><ele>63.0</ele><time>2026-04-10T12:55:47.001Z</time></trkpt><trkpt lat="14.743410572383823" lon="121.04618447447419"><ele>63.0</ele><time>2026-04-10T12:55:48.001Z</time></trkpt><trkpt lat="14.743339623398846" lon="121.04619468994484"><ele>63.0</ele><time>2026-04-10T12:55:49.001Z</time></trkpt><trkpt lat="14.743270997458731" lon="121.0462085951119"><ele>63.0</ele><time>2026-04-10T12:55:50.001Z</time></trkpt><trkpt lat="14.74319592983602" lon="121.04622092230461"><ele>63.0</ele><time>2026-04-10T12:55:51.001Z</time></trkpt><trkpt lat="14.74311905082888" lon="121.04623700357457"><ele>63.0</ele><time>2026-04-10T12:55:52.001Z</time></trkpt><trkpt lat="14.743047524374624" lon="121.0462420934017"><ele>63.0</ele><time>2026-04-10T12:55:53.001Z</time></trkpt><trkpt lat="14.74297503842023" lon="121.04625723349018"><ele>63.0</ele><time>2026-04-10T12:55:54.001Z</time></trkpt><trkpt lat="14.74290597400389" lon="121.04627323242903"><ele>63.0</ele><time>2026-04-10T12:55:55.001Z</time></trkpt><trkpt lat="14.742825737623669" lon="121.0462989473208"><ele>63.0</ele><time>2026-04-10T12:55:56.001Z</time></trkpt><trkpt lat="14.742741755671826" lon="121.0463246277103"><ele>63.0</ele><time>2026-04-10T12:55:57.001Z</time></trkpt><trkpt lat="14.74265903706931" lon="121.0463440418593"><ele>63.0</ele><time>2026-04-10T12:55:58.001Z</time></trkpt><trkpt lat="14.74256785629346" lon="121.04636633959066"><ele>63.333333333333336</ele><time>2026-04-10T12:55:59.001Z</time></trkpt><trkpt lat="14.742478614085694" lon="121.04636671245274"><ele>63.66666666666667</ele><time>2026-04-10T12:56:00.001Z</time></trkpt><trkpt lat="14.74238921324321" lon="121.04640000298134"><ele>64.0</ele><time>2026-04-10T12:56:01.001Z</time></trkpt><trkpt lat="14.742296826987857" lon="121.04641611632798"><ele>64.33333333333334</ele><time>2026-04-10T12:56:02.001Z</time></trkpt><trkpt lat="14.742214020460843" lon="121.04643538880556"><ele>64.66666666666667</ele><time>2026-04-10T12:56:03.001Z</time></trkpt><trkpt lat="14.742134042470422" lon="121.04645366735772"><ele>65.0</ele><time>2026-04-10T12:56:04.001Z</time></trkpt><trkpt lat="14.742059283131125" lon="121.04647035947215"><ele>65.0</ele><time>2026-04-10T12:56:05.001Z</time></trkpt><trkpt lat="14.74198273021893" lon="121.04646915722014"><ele>65.0</ele><time>2026-04-10T12:56:06.001Z</time></trkpt><trkpt lat="14.741887007962074" lon="121.04648961754471"><ele>65.0</ele><time>2026-04-10T12:56:07.001Z</time></trkpt><trkpt lat="14.74178016915155" lon="121.04650526404372"><ele>65.0</ele><time>2026-04-10T12:56:08.001Z</time></trkpt><trkpt lat="14.741697983872703" lon="121.04651949313329"><ele>65.0</ele><time>2026-04-10T12:56:09.001Z</time></trkpt><trkpt lat="14.741615009774382" lon="121.04654015504417"><ele>65.8</ele><time>2026-04-10T12:56:10.001Z</time></trkpt><trkpt lat="14.741535921663823" lon="121.04657479261485"><ele>66.6</ele><time>2026-04-10T12:56:11.001Z</time></trkpt><trkpt lat="14.741460022343583" lon="121.046583750652"><ele>67.4</ele><time>2026-04-10T12:56:12.001Z</time></trkpt><trkpt lat="14.74135135541199" lon="121.04661214828086"><ele>68.2</ele><time>2026-04-10T12:56:14.001Z</time></trkpt><trkpt lat="14.741248124917767" lon="121.0466225413155"><ele>69.0</ele><time>2026-04-10T12:56:16.001Z</time></trkpt><trkpt lat="14.741141003398926" lon="121.04663726900718"><ele>69.60000000000001</ele><time>2026-04-10T12:56:18.001Z</time></trkpt><trkpt lat="14.741035058903018" lon="121.04666372083739"><ele>70.2</ele><time>2026-04-10T12:56:20.001Z</time></trkpt><trkpt lat="14.740911604445557" lon="121.04669254327719"><ele>70.80000000000001</ele><time>2026-04-10T12:56:22.001Z</time></trkpt><trkpt lat="14.740847831378101" lon="121.04671372427971"><ele>71.4</ele><time>2026-04-10T12:56:23.001Z</time></trkpt><trkpt lat="14.740783623049026" lon="121.04672568470653"><ele>72.0</ele><time>2026-04-10T12:56:24.001Z</time></trkpt><trkpt lat="14.740667152414172" lon="121.04673705928894"><ele>72.0</ele><time>2026-04-10T12:56:26.001Z</time></trkpt><trkpt lat="14.740546884073963" lon="121.04676231721263"><ele>72.0</ele><time>2026-04-10T12:56:28.001Z</time></trkpt><trkpt lat="14.740484682725839" lon="121.04677482253038"><ele>72.0</ele><time>2026-04-10T12:56:29.001Z</time></trkpt><trkpt lat="14.740418715392746" lon="121.04678823622274"><ele>72.0</ele><time>2026-04-10T12:56:30.001Z</time></trkpt><trkpt lat="14.740355839414175" lon="121.04680102132325"><ele>72.0</ele><time>2026-04-10T12:56:31.001Z</time></trkpt><trkpt lat="14.740268063251486" lon="121.04681886958768"><ele>72.0</ele><time>2026-04-10T12:56:33.001Z</time></trkpt><trkpt lat="14.740171120311349" lon="121.04683862928204"><ele>72.33333333333333</ele><time>2026-04-10T12:56:35.001Z</time></trkpt><trkpt lat="14.740084642490768" lon="121.04685627345029"><ele>72.66666666666667</ele><time>2026-04-10T12:56:37.001Z</time></trkpt><trkpt lat="14.740002541598486" lon="121.04687302458748"><ele>73.0</ele><time>2026-04-10T12:56:39.001Z</time></trkpt><trkpt lat="14.739929474733446" lon="121.046888207185"><ele>73.33333333333334</ele><time>2026-04-10T12:56:41.001Z</time></trkpt><trkpt lat="14.739857132996098" lon="121.04690369524143"><ele>73.66666666666667</ele><time>2026-04-10T12:56:45.001Z</time></trkpt><trkpt lat="14.739764574698654" lon="121.04690821155603"><ele>74.0</ele><time>2026-04-10T12:56:48.001Z</time></trkpt><trkpt lat="14.73966490532914" lon="121.04693533969674"><ele>74.0</ele><time>2026-04-10T12:56:50.001Z</time></trkpt><trkpt lat="14.739585351148316" lon="121.04695331589323"><ele>74.0</ele><time>2026-04-10T12:56:52.001Z</time></trkpt><trkpt lat="14.739469563555806" lon="121.04697417578976"><ele>74.0</ele><time>2026-04-10T12:56:54.001Z</time></trkpt><trkpt lat="14.73940446277815" lon="121.04698555764998"><ele>74.0</ele><time>2026-04-10T12:56:55.001Z</time></trkpt><trkpt lat="14.739342292243917" lon="121.04699891616904"><ele>74.0</ele><time>2026-04-10T12:56:56.001Z</time></trkpt><trkpt lat="14.739272453052793" lon="121.04701814991574"><ele>74.0</ele><time>2026-04-10T12:56:57.001Z</time></trkpt><trkpt lat="14.739162731501594" lon="121.04703746325404"><ele>73.66666666666667</ele><time>2026-04-10T12:56:59.001Z</time></trkpt><trkpt lat="14.739062376986968" lon="121.04705493699234"><ele>73.33333333333334</ele><time>2026-04-10T12:57:01.001Z</time></trkpt><trkpt lat="14.738992725766751" lon="121.04707393567308"><ele>73.0</ele><time>2026-04-10T12:57:02.001Z</time></trkpt><trkpt lat="14.73892022911318" lon="121.04709935451582"><ele>72.66666666666667</ele><time>2026-04-10T12:57:03.001Z</time></trkpt><trkpt lat="14.738825071932729" lon="121.04712511540674"><ele>72.33333333333333</ele><time>2026-04-10T12:57:04.001Z</time></trkpt><trkpt lat="14.738733470574282" lon="121.04713829800312"><ele>72.0</ele><time>2026-04-10T12:57:05.001Z</time></trkpt><trkpt lat="14.738637649155702" lon="121.04716654129213"><ele>72.0</ele><time>2026-04-10T12:57:06.001Z</time></trkpt><trkpt lat="14.738555499167429" lon="121.0471891429527"><ele>72.0</ele><time>2026-04-10T12:57:07.001Z</time></trkpt><trkpt lat="14.738482504414888" lon="121.04720948501055"><ele>72.0</ele><time>2026-04-10T12:57:08.001Z</time></trkpt><trkpt lat="14.738403982497305" lon="121.0472324419085"><ele>72.0</ele><time>2026-04-10T12:57:09.001Z</time></trkpt><trkpt lat="14.738274233001324" lon="121.04725516993919"><ele>72.0</ele><time>2026-04-10T12:57:11.001Z</time></trkpt><trkpt lat="14.738186084510742" lon="121.04726849498684"><ele>72.0</ele><time>2026-04-10T12:57:12.001Z</time></trkpt><trkpt lat="14.738082653671174" lon="121.04729070817692"><ele>72.0</ele><time>2026-04-10T12:57:13.001Z</time></trkpt><trkpt lat="14.737975577152385" lon="121.0473151022975"><ele>72.0</ele><time>2026-04-10T12:57:14.001Z</time></trkpt><trkpt lat="14.7378672162868" lon="121.04733203517067"><ele>72.0</ele><time>2026-04-10T12:57:15.001Z</time></trkpt><trkpt lat="14.737753407683659" lon="121.04735403861048"><ele>72.0</ele><time>2026-04-10T12:57:16.001Z</time></trkpt><trkpt lat="14.737636603071804" lon="121.04737504128869"><ele>72.0</ele><time>2026-04-10T12:57:17.001Z</time></trkpt><trkpt lat="14.737520526496569" lon="121.04739782532009"><ele>72.0</ele><time>2026-04-10T12:57:18.001Z</time></trkpt><trkpt lat="14.737398007320714" lon="121.04742552265192"><ele>72.0</ele><time>2026-04-10T12:57:19.001Z</time></trkpt><trkpt lat="14.737280642184299" lon="121.04745448552973"><ele>72.0</ele><time>2026-04-10T12:57:20.001Z</time></trkpt><trkpt lat="14.737173605655808" lon="121.0474795322101"><ele>72.25</ele><time>2026-04-10T12:57:21.001Z</time></trkpt><trkpt lat="14.737071578021817" lon="121.04750224959649"><ele>72.5</ele><time>2026-04-10T12:57:22.001Z</time></trkpt><trkpt lat="14.736964929387913" lon="121.04752171730304"><ele>72.75</ele><time>2026-04-10T12:57:23.001Z</time></trkpt><trkpt lat="14.736848420349155" lon="121.04754993867901"><ele>73.0</ele><time>2026-04-10T12:57:24.001Z</time></trkpt><trkpt lat="14.736730454571527" lon="121.04757322624708"><ele>73.0</ele><time>2026-04-10T12:57:25.001Z</time></trkpt><trkpt lat="14.73662048565002" lon="121.04759477363538"><ele>73.0</ele><time>2026-04-10T12:57:26.001Z</time></trkpt><trkpt lat="14.736510463606404" lon="121.04762234552244"><ele>73.0</ele><time>2026-04-10T12:57:27.001Z</time></trkpt><trkpt lat="14.736418671485882" lon="121.04764453176116"><ele>73.0</ele><time>2026-04-10T12:57:28.001Z</time></trkpt><trkpt lat="14.736334690498673" lon="121.04766184690769"><ele>73.0</ele><time>2026-04-10T12:57:29.001Z</time></trkpt><trkpt lat="14.73626118046324" lon="121.04767114920229"><ele>73.0</ele><time>2026-04-10T12:57:30.001Z</time></trkpt><trkpt lat="14.736184216478087" lon="121.04767441193324"><ele>73.0</ele><time>2026-04-10T12:57:31.001Z</time></trkpt><trkpt lat="14.736108915696699" lon="121.04768991959762"><ele>73.0</ele><time>2026-04-10T12:57:32.001Z</time></trkpt><trkpt lat="14.736028565589239" lon="121.04770548690858"><ele>73.0</ele><time>2026-04-10T12:57:33.001Z</time></trkpt><trkpt lat="14.73594019729687" lon="121.04772434510754"><ele>73.0</ele><time>2026-04-10T12:57:34.001Z</time></trkpt><trkpt lat="14.735850044060111" lon="121.04775200014734"><ele>73.0</ele><time>2026-04-10T12:57:35.001Z</time></trkpt><trkpt lat="14.735760624198159" lon="121.04777276354235"><ele>73.0</ele><time>2026-04-10T12:57:36.001Z</time></trkpt><trkpt lat="14.735664752418343" lon="121.04778998396519"><ele>73.0</ele><time>2026-04-10T12:57:37.001Z</time></trkpt><trkpt lat="14.735571242052776" lon="121.04781368140713"><ele>73.0</ele><time>2026-04-10T12:57:38.001Z</time></trkpt><trkpt lat="14.735467304421757" lon="121.04784230238751"><ele>73.0</ele><time>2026-04-10T12:57:39.001Z</time></trkpt><trkpt lat="14.735371819508774" lon="121.04786614478313"><ele>73.0</ele><time>2026-04-10T12:57:40.001Z</time></trkpt><trkpt lat="14.73527337084567" lon="121.04788602595792"><ele>73.4</ele><time>2026-04-10T12:57:41.001Z</time></trkpt><trkpt lat="14.735169589592516" lon="121.04790680756102"><ele>73.8</ele><time>2026-04-10T12:57:42.001Z</time></trkpt><trkpt lat="14.73507403741407" lon="121.04792751223637"><ele>74.2</ele><time>2026-04-10T12:57:43.001Z</time></trkpt><trkpt lat="14.734975649660026" lon="121.04795108375461"><ele>74.6</ele><time>2026-04-10T12:57:44.001Z</time></trkpt><trkpt lat="14.734875918308912" lon="121.04797576471486"><ele>75.0</ele><time>2026-04-10T12:57:45.001Z</time></trkpt><trkpt lat="14.734770214646984" lon="121.04800443913322"><ele>75.0</ele><time>2026-04-10T12:57:46.001Z</time></trkpt><trkpt lat="14.734662639649702" lon="121.04803426101748"><ele>75.0</ele><time>2026-04-10T12:57:47.001Z</time></trkpt><trkpt lat="14.734555803824469" lon="121.04805544049567"><ele>75.0</ele><time>2026-04-10T12:57:48.001Z</time></trkpt><trkpt lat="14.73445402843027" lon="121.04807076298547"><ele>75.0</ele><time>2026-04-10T12:57:49.001Z</time></trkpt><trkpt lat="14.734347769696997" lon="121.04808502639683"><ele>75.0</ele><time>2026-04-10T12:57:50.001Z</time></trkpt><trkpt lat="14.734235925882844" lon="121.04810709423316"><ele>75.2</ele><time>2026-04-10T12:57:51.001Z</time></trkpt><trkpt lat="14.734125422747173" lon="121.048131838868"><ele>75.4</ele><time>2026-04-10T12:57:52.001Z</time></trkpt><trkpt lat="14.734014533032585" lon="121.04815800094826"><ele>75.6</ele><time>2026-04-10T12:57:53.001Z</time></trkpt><trkpt lat="14.733906155206968" lon="121.04818035207352"><ele>75.8</ele><time>2026-04-10T12:57:54.001Z</time></trkpt><trkpt lat="14.733798790473914" lon="121.048199652006"><ele>76.0</ele><time>2026-04-10T12:57:55.001Z</time></trkpt><trkpt lat="14.733695134649773" lon="121.04822746628888"><ele>76.0</ele><time>2026-04-10T12:57:56.001Z</time></trkpt><trkpt lat="14.733585715213547" lon="121.0482566203991"><ele>76.0</ele><time>2026-04-10T12:57:57.001Z</time></trkpt><trkpt lat="14.73349497991285" lon="121.04827875761906"><ele>76.0</ele><time>2026-04-10T12:57:58.001Z</time></trkpt><trkpt lat="14.733415027035164" lon="121.04830107723934"><ele>76.0</ele><time>2026-04-10T12:57:59.001Z</time></trkpt><trkpt lat="14.733307378118406" lon="121.04832857132533"><ele>76.0</ele><time>2026-04-10T12:58:00.001Z</time></trkpt><trkpt lat="14.733213672583767" lon="121.04834889328428"><ele>76.39999999999999</ele><time>2026-04-10T12:58:01.001Z</time></trkpt><trkpt lat="14.733122000681227" lon="121.04836664669112"><ele>76.8</ele><time>2026-04-10T12:58:02.001Z</time></trkpt><trkpt lat="14.733017012091816" lon="121.04838540688806"><ele>77.19999999999999</ele><time>2026-04-10T12:58:03.001Z</time></trkpt><trkpt lat="14.732911655000686" lon="121.04841236282863"><ele>77.6</ele><time>2026-04-10T12:58:04.001Z</time></trkpt><trkpt lat="14.732807371395022" lon="121.04843691575655"><ele>78.0</ele><time>2026-04-10T12:58:05.001Z</time></trkpt><trkpt lat="14.732709977079809" lon="121.04845927397017"><ele>78.14285714285715</ele><time>2026-04-10T12:58:06.001Z</time></trkpt><trkpt lat="14.732622110124122" lon="121.04847675184817"><ele>78.28571428571428</ele><time>2026-04-10T12:58:07.001Z</time></trkpt><trkpt lat="14.732543044120366" lon="121.04849900505937"><ele>78.42857142857143</ele><time>2026-04-10T12:58:08.001Z</time></trkpt><trkpt lat="14.732474054336487" lon="121.04851463338602"><ele>78.57142857142858</ele><time>2026-04-10T12:58:09.001Z</time></trkpt><trkpt lat="14.732406936609937" lon="121.0485232959087"><ele>78.71428571428572</ele><time>2026-04-10T12:58:10.001Z</time></trkpt><trkpt lat="14.732341740260669" lon="121.04853510412445"><ele>78.85714285714286</ele><time>2026-04-10T12:58:11.001Z</time></trkpt><trkpt lat="14.732271261134105" lon="121.0485494967589"><ele>79.0</ele><time>2026-04-10T12:58:12.001Z</time></trkpt><trkpt lat="14.73216858975752" lon="121.04856660317749"><ele>79.0</ele><time>2026-04-10T12:58:14.001Z</time></trkpt><trkpt lat="14.732076232500932" lon="121.04858149891236"><ele>79.0</ele><time>2026-04-10T12:58:16.001Z</time></trkpt><trkpt lat="14.731977089140171" lon="121.0486027227109"><ele>79.0</ele><time>2026-04-10T12:58:18.001Z</time></trkpt><trkpt lat="14.731869955451693" lon="121.04862877244885"><ele>79.0</ele><time>2026-04-10T12:58:20.001Z</time></trkpt><trkpt lat="14.73180033061259" lon="121.04864756760229"><ele>79.0</ele><time>2026-04-10T12:58:22.001Z</time></trkpt><trkpt lat="14.731715558925792" lon="121.04866877427008"><ele>78.60000000000001</ele><time>2026-04-10T12:58:26.001Z</time></trkpt><trkpt lat="14.731643534948537" lon="121.04865018421567"><ele>78.2</ele><time>2026-04-10T12:58:29.001Z</time></trkpt><trkpt lat="14.731558862377387" lon="121.04859027396881"><ele>77.80000000000001</ele><time>2026-04-10T12:58:33.001Z</time></trkpt><trkpt lat="14.731498135318809" lon="121.04850937644687"><ele>77.4</ele><time>2026-04-10T12:58:35.001Z</time></trkpt><trkpt lat="14.73142392146506" lon="121.04842736728861"><ele>77.0</ele><time>2026-04-10T12:58:37.001Z</time></trkpt><trkpt lat="14.731371093551749" lon="121.04833103137528"><ele>76.6</ele><time>2026-04-10T12:58:39.001Z</time></trkpt><trkpt lat="14.73130772906649" lon="121.04821904725134"><ele>76.2</ele><time>2026-04-10T12:58:41.001Z</time></trkpt><trkpt lat="14.731259256286691" lon="121.04811160155305"><ele>75.8</ele><time>2026-04-10T12:58:43.001Z</time></trkpt><trkpt lat="14.731231934793886" lon="121.04803368749691"><ele>75.4</ele><time>2026-04-10T12:58:46.001Z</time></trkpt><trkpt lat="14.731211304474895" lon="121.04796587923423"><ele>75.0</ele><time>2026-04-10T12:58:48.001Z</time></trkpt><trkpt lat="14.731188164900978" lon="121.04788240777437"><ele>75.0</ele><time>2026-04-10T12:58:50.001Z</time></trkpt><trkpt lat="14.731171156988248" lon="121.04781298456611"><ele>75.0</ele><time>2026-04-10T12:58:52.001Z</time></trkpt><trkpt lat="14.731149635190254" lon="121.0477226103015"><ele>75.0</ele><time>2026-04-10T12:59:48.001Z</time></trkpt><trkpt lat="14.731141819861534" lon="121.04765356433157"><ele>75.0</ele><time>2026-04-10T12:59:50.001Z</time></trkpt><trkpt lat="14.731129941057198" lon="121.04756624362845"><ele>75.0</ele><time>2026-04-10T12:59:52.001Z</time></trkpt><trkpt lat="14.731117433902398" lon="121.04746558539908"><ele>75.0</ele><time>2026-04-10T12:59:54.001Z</time></trkpt><trkpt lat="14.73109233116941" lon="121.0473921864467"><ele>73.25</ele><time>2026-04-10T12:59:56.001Z</time></trkpt><trkpt lat="14.73088706889335" lon="121.04739703373929"><ele>71.5</ele><time>2026-04-10T12:59:57.001Z</time></trkpt><trkpt lat="14.73081422822137" lon="121.04739681657104"><ele>69.75</ele><time>2026-04-10T12:59:58.001Z</time></trkpt><trkpt lat="14.730725114591474" lon="121.04739854037636"><ele>68.0</ele><time>2026-04-10T12:59:59.001Z</time></trkpt><trkpt lat="14.730631070550292" lon="121.04739979840062"><ele>68.0</ele><time>2026-04-10T13:00:00.001Z</time></trkpt><trkpt lat="14.730528381333142" lon="121.04740087758304"><ele>68.0</ele><time>2026-04-10T13:00:01.001Z</time></trkpt><trkpt lat="14.730419942303588" lon="121.04739818087033"><ele>68.0</ele><time>2026-04-10T13:00:02.001Z</time></trkpt><trkpt lat="14.730304486358389" lon="121.04739731298517"><ele>68.0</ele><time>2026-04-10T13:00:03.001Z</time></trkpt><trkpt lat="14.730185118540739" lon="121.04737666149212"><ele>68.0</ele><time>2026-04-10T13:00:04.001Z</time></trkpt><trkpt lat="14.730059077906938" lon="121.04737165116718"><ele>68.5</ele><time>2026-04-10T13:00:05.001Z</time></trkpt><trkpt lat="14.729926246314454" lon="121.04736637089232"><ele>69.0</ele><time>2026-04-10T13:00:06.001Z</time></trkpt><trkpt lat="14.72979048845985" lon="121.04736097429341"><ele>69.5</ele><time>2026-04-10T13:00:07.001Z</time></trkpt><trkpt lat="14.729649884471314" lon="121.04735538505292"><ele>70.0</ele><time>2026-04-10T13:00:08.001Z</time></trkpt><trkpt lat="14.729504163174541" lon="121.04735243466325"><ele>69.25</ele><time>2026-04-10T13:00:09.001Z</time></trkpt><trkpt lat="14.729357907636416" lon="121.04734982583382"><ele>68.5</ele><time>2026-04-10T13:00:10.001Z</time></trkpt><trkpt lat="14.72921333219953" lon="121.04734724697657"><ele>67.75</ele><time>2026-04-10T13:00:11.001Z</time></trkpt><trkpt lat="14.729074888006384" lon="121.04734388100414"><ele>67.0</ele><time>2026-04-10T13:00:12.001Z</time></trkpt><trkpt lat="14.728938144099212" lon="121.04734119736784"><ele>67.0</ele><time>2026-04-10T13:00:13.001Z</time></trkpt><trkpt lat="14.728803875781379" lon="121.04733903000555"><ele>67.0</ele><time>2026-04-10T13:00:14.001Z</time></trkpt><trkpt lat="14.728668140841329" lon="121.04736449036791"><ele>67.0</ele><time>2026-04-10T13:00:15.001Z</time></trkpt><trkpt lat="14.728534419788154" lon="121.04736464315522"><ele>67.0</ele><time>2026-04-10T13:00:16.001Z</time></trkpt><trkpt lat="14.728395535833917" lon="121.04736635940847"><ele>65.5</ele><time>2026-04-10T13:00:17.001Z</time></trkpt><trkpt lat="14.728257832410398" lon="121.04736281739345"><ele>64.0</ele><time>2026-04-10T13:00:18.001Z</time></trkpt><trkpt lat="14.728118121383035" lon="121.04732617019685"><ele>62.5</ele><time>2026-04-10T13:00:19.001Z</time></trkpt><trkpt lat="14.727980514181402" lon="121.04732357634191"><ele>61.0</ele><time>2026-04-10T13:00:20.001Z</time></trkpt><trkpt lat="14.727845954202317" lon="121.0473210406394"><ele>60.75</ele><time>2026-04-10T13:00:21.001Z</time></trkpt><trkpt lat="14.727723271273616" lon="121.04731872875503"><ele>60.5</ele><time>2026-04-10T13:00:22.001Z</time></trkpt><trkpt lat="14.7275975907055" lon="121.04731636038136"><ele>60.25</ele><time>2026-04-10T13:00:23.001Z</time></trkpt><trkpt lat="14.72748002564649" lon="121.04731414494604"><ele>60.0</ele><time>2026-04-10T13:00:24.001Z</time></trkpt><trkpt lat="14.727360450487566" lon="121.04732893048363"><ele>60.0</ele><time>2026-04-10T13:00:25.001Z</time></trkpt><trkpt lat="14.72724526058505" lon="121.04735628807522"><ele>60.0</ele><time>2026-04-10T13:00:26.001Z</time></trkpt><trkpt lat="14.727124412707019" lon="121.04739276084734"><ele>60.0</ele><time>2026-04-10T13:00:27.001Z</time></trkpt><trkpt lat="14.727000407031806" lon="121.04743849345276"><ele>60.0</ele><time>2026-04-10T13:00:28.001Z</time></trkpt><trkpt lat="14.726879052654473" lon="121.04749491048278"><ele>59.5</ele><time>2026-04-10T13:00:29.001Z</time></trkpt><trkpt lat="14.726754862328386" lon="121.04756333781907"><ele>59.0</ele><time>2026-04-10T13:00:30.001Z</time></trkpt><trkpt lat="14.726640442749165" lon="121.04765211591057"><ele>58.5</ele><time>2026-04-10T13:00:31.001Z</time></trkpt><trkpt lat="14.726524370237835" lon="121.04772741871318"><ele>58.0</ele><time>2026-04-10T13:00:32.001Z</time></trkpt><trkpt lat="14.726410126798779" lon="121.04781166364509"><ele>58.0</ele><time>2026-04-10T13:00:33.001Z</time></trkpt><trkpt lat="14.726302189979666" lon="121.04790182024162"><ele>58.0</ele><time>2026-04-10T13:00:34.001Z</time></trkpt><trkpt lat="14.726193512309138" lon="121.04799211217967"><ele>58.0</ele><time>2026-04-10T13:00:35.001Z</time></trkpt><trkpt lat="14.726084930937123" lon="121.04808474355393"><ele>58.0</ele><time>2026-04-10T13:00:36.001Z</time></trkpt><trkpt lat="14.725981369153711" lon="121.04817213637898"><ele>56.75</ele><time>2026-04-10T13:00:37.001Z</time></trkpt><trkpt lat="14.725879213937956" lon="121.04825269012066"><ele>55.5</ele><time>2026-04-10T13:00:38.001Z</time></trkpt><trkpt lat="14.72577762406548" lon="121.04832780040252"><ele>54.25</ele><time>2026-04-10T13:00:39.001Z</time></trkpt><trkpt lat="14.7256836347668" lon="121.048401486454"><ele>53.0</ele><time>2026-04-10T13:00:40.001Z</time></trkpt><trkpt lat="14.725596507353194" lon="121.04846726748401"><ele>52.66666666666667</ele><time>2026-04-10T13:00:41.001Z</time></trkpt><trkpt lat="14.725525953631301" lon="121.04852640272273"><ele>52.333333333333336</ele><time>2026-04-10T13:00:42.001Z</time></trkpt><trkpt lat="14.725458614187136" lon="121.04858251901202"><ele>52.0</ele><time>2026-04-10T13:00:43.001Z</time></trkpt><trkpt lat="14.725409055225802" lon="121.04862911542114"><ele>51.66666666666667</ele><time>2026-04-10T13:00:44.001Z</time></trkpt><trkpt lat="14.72534110617007" lon="121.0486929186547"><ele>51.333333333333336</ele><time>2026-04-10T13:00:46.001Z</time></trkpt><trkpt lat="14.725274948434723" lon="121.0487496421595"><ele>51.0</ele><time>2026-04-10T13:00:49.001Z</time></trkpt><trkpt lat="14.72522616353708" lon="121.04879645732328"><ele>50.599999999999994</ele><time>2026-04-10T13:00:51.001Z</time></trkpt><trkpt lat="14.725137422275296" lon="121.04888274391136"><ele>50.2</ele><time>2026-04-10T13:00:53.001Z</time></trkpt><trkpt lat="14.725076235995827" lon="121.04893565753619"><ele>49.8</ele><time>2026-04-10T13:00:54.001Z</time></trkpt><trkpt lat="14.72500181050295" lon="121.04899736360099"><ele>49.400000000000006</ele><time>2026-04-10T13:00:55.001Z</time></trkpt><trkpt lat="14.724921234232932" lon="121.04906365746436"><ele>49.0</ele><time>2026-04-10T13:00:56.001Z</time></trkpt><trkpt lat="14.724836269642601" lon="121.04913425838558"><ele>49.0</ele><time>2026-04-10T13:00:57.001Z</time></trkpt><trkpt lat="14.724744711254504" lon="121.04920844543442"><ele>49.0</ele><time>2026-04-10T13:00:58.001Z</time></trkpt><trkpt lat="14.724653989999684" lon="121.04928187058836"><ele>49.0</ele><time>2026-04-10T13:00:59.001Z</time></trkpt><trkpt lat="14.724559777153184" lon="121.0493651255467"><ele>49.0</ele><time>2026-04-10T13:01:00.001Z</time></trkpt><trkpt lat="14.724463730609578" lon="121.04944485062046"><ele>50.5</ele><time>2026-04-10T13:01:01.001Z</time></trkpt><trkpt lat="14.724364300991821" lon="121.0495309167332"><ele>52.0</ele><time>2026-04-10T13:01:02.001Z</time></trkpt><trkpt lat="14.724261036630073" lon="121.04961669148717"><ele>53.5</ele><time>2026-04-10T13:01:03.001Z</time></trkpt><trkpt lat="14.7241540673876" lon="121.04970365101899"><ele>55.0</ele><time>2026-04-10T13:01:04.001Z</time></trkpt><trkpt lat="14.724043631636667" lon="121.04979107223413"><ele>55.0</ele><time>2026-04-10T13:01:05.001Z</time></trkpt><trkpt lat="14.723929968465859" lon="121.04988109529697"><ele>55.0</ele><time>2026-04-10T13:01:06Z</time></trkpt><trkpt lat="14.723817478761172" lon="121.0499691541292"><ele>55.0</ele><time>2026-04-10T13:01:07Z</time></trkpt><trkpt lat="14.723706010801843" lon="121.05006377120205"><ele>55.0</ele><time>2026-04-10T13:01:08Z</time></trkpt><trkpt lat="14.723592184045337" lon="121.05016066386469"><ele>54.33333333333333</ele><time>2026-04-10T13:01:09.001Z</time></trkpt><trkpt lat="14.723476888246767" lon="121.05025672539084"><ele>53.66666666666667</ele><time>2026-04-10T13:01:10.001Z</time></trkpt><trkpt lat="14.723357137522056" lon="121.05035642245772"><ele>53.0</ele><time>2026-04-10T13:01:11.001Z</time></trkpt><trkpt lat="14.723233429335194" lon="121.05045603130918"><ele>53.0</ele><time>2026-04-10T13:01:12.001Z</time></trkpt><trkpt lat="14.723110157938033" lon="121.05055788805824"><ele>53.0</ele><time>2026-04-10T13:01:13.001Z</time></trkpt><trkpt lat="14.722990614935144" lon="121.05065435709984"><ele>53.0</ele><time>2026-04-10T13:01:14.001Z</time></trkpt><trkpt lat="14.722870075560532" lon="121.05075521206915"><ele>53.25</ele><time>2026-04-10T13:01:15.001Z</time></trkpt><trkpt lat="14.722755219109692" lon="121.05085274069464"><ele>53.5</ele><time>2026-04-10T13:01:16.001Z</time></trkpt><trkpt lat="14.72264955446162" lon="121.05094237843821"><ele>53.75</ele><time>2026-04-10T13:01:17.001Z</time></trkpt><trkpt lat="14.722546667278122" lon="121.05102452314752"><ele>54.0</ele><time>2026-04-10T13:01:18.001Z</time></trkpt><trkpt lat="14.722449292426173" lon="121.05110320832839"><ele>54.0</ele><time>2026-04-10T13:01:19.001Z</time></trkpt><trkpt lat="14.722349657197077" lon="121.05118235453176"><ele>54.0</ele><time>2026-04-10T13:01:20.001Z</time></trkpt><trkpt lat="14.722257215738576" lon="121.05126223054941"><ele>54.0</ele><time>2026-04-10T13:01:21.001Z</time></trkpt><trkpt lat="14.722163634633658" lon="121.05134259031679"><ele>54.0</ele><time>2026-04-10T13:01:22.001Z</time></trkpt><trkpt lat="14.722070167668155" lon="121.05142335702796"><ele>54.0</ele><time>2026-04-10T13:01:23.001Z</time></trkpt><trkpt lat="14.721979607780286" lon="121.05149754080858"><ele>54.00000000000001</ele><time>2026-04-10T13:01:24.001Z</time></trkpt><trkpt lat="14.721888689710774" lon="121.05156832597542"><ele>54.00000000000001</ele><time>2026-04-10T13:01:25.001Z</time></trkpt><trkpt lat="14.721813183706548" lon="121.05163261026371"><ele>54.0</ele><time>2026-04-10T13:01:26.001Z</time></trkpt><trkpt lat="14.72173741082483" lon="121.05169476163202"><ele>54.0</ele><time>2026-04-10T13:01:27.001Z</time></trkpt><trkpt lat="14.721667033939678" lon="121.05175236792792"><ele>54.0</ele><time>2026-04-10T13:01:28.001Z</time></trkpt><trkpt lat="14.721611982961784" lon="121.05180531685204"><ele>54.0</ele><time>2026-04-10T13:01:29.001Z</time></trkpt><trkpt lat="14.721568604106663" lon="121.05185509295077"><ele>54.0</ele><time>2026-04-10T13:01:30.001Z</time></trkpt><trkpt lat="14.72149637131277" lon="121.05192813512879"><ele>54.0</ele><time>2026-04-10T13:01:32.001Z</time></trkpt><trkpt lat="14.721440746010062" lon="121.05197294395185"><ele>54.0</ele><time>2026-04-10T13:01:36.001Z</time></trkpt><trkpt lat="14.72136895944103" lon="121.05200531610996"><ele>54.0</ele><time>2026-04-10T13:03:10.001Z</time></trkpt><trkpt lat="14.721283416728777" lon="121.05208583799092"><ele>54.0</ele><time>2026-04-10T13:03:12.001Z</time></trkpt><trkpt lat="14.72122647113114" lon="121.05213958877908"><ele>54.0</ele><time>2026-04-10T13:03:13.001Z</time></trkpt><trkpt lat="14.721165665249602" lon="121.05218955632482"><ele>54.0</ele><time>2026-04-10T13:03:14.001Z</time></trkpt><trkpt lat="14.721098786012242" lon="121.05224150791481"><ele>54.0</ele><time>2026-04-10T13:03:15.001Z</time></trkpt><trkpt lat="14.721023600572353" lon="121.05229464895069"><ele>54.0</ele><time>2026-04-10T13:03:16.001Z</time></trkpt><trkpt lat="14.720943409707939" lon="121.05235271747165"><ele>54.0</ele><time>2026-04-10T13:03:17.001Z</time></trkpt><trkpt lat="14.720861788523306" lon="121.05241839213507"><ele>54.25</ele><time>2026-04-10T13:03:18.001Z</time></trkpt><trkpt lat="14.720774951202497" lon="121.05249158216945"><ele>54.5</ele><time>2026-04-10T13:03:19.001Z</time></trkpt><trkpt lat="14.72068279888144" lon="121.05256895898536"><ele>54.75</ele><time>2026-04-10T13:03:20.001Z</time></trkpt><trkpt lat="14.720590838356708" lon="121.05264814671709"><ele>55.0</ele><time>2026-04-10T13:03:21.001Z</time></trkpt><trkpt lat="14.720492502932268" lon="121.0527328849522"><ele>55.0</ele><time>2026-04-10T13:03:22.001Z</time></trkpt><trkpt lat="14.720390192793857" lon="121.05281507590787"><ele>55.0</ele><time>2026-04-10T13:03:23.001Z</time></trkpt><trkpt lat="14.720286883619451" lon="121.05290331876502"><ele>55.0</ele><time>2026-04-10T13:03:24.001Z</time></trkpt><trkpt lat="14.720184008960194" lon="121.05298873317106"><ele>55.0</ele><time>2026-04-10T13:03:25.001Z</time></trkpt><trkpt lat="14.720082867752764" lon="121.05307306617372"><ele>55.25</ele><time>2026-04-10T13:03:26.001Z</time></trkpt><trkpt lat="14.719977738700695" lon="121.05315254619197"><ele>55.5</ele><time>2026-04-10T13:03:27.001Z</time></trkpt><trkpt lat="14.719874857081498" lon="121.05323491350742"><ele>55.75</ele><time>2026-04-10T13:03:28.001Z</time></trkpt><trkpt lat="14.719771325639096" lon="121.05331902426491"><ele>56.0</ele><time>2026-04-10T13:03:29.001Z</time></trkpt><trkpt lat="14.719680060599478" lon="121.05340011309305"><ele>56.0</ele><time>2026-04-10T13:03:30.001Z</time></trkpt><trkpt lat="14.71959387932905" lon="121.05348009667351"><ele>56.0</ele><time>2026-04-10T13:03:31.001Z</time></trkpt><trkpt lat="14.719498945400039" lon="121.05355879819103"><ele>56.0</ele><time>2026-04-10T13:03:32.001Z</time></trkpt><trkpt lat="14.719407947975919" lon="121.05363123806073"><ele>56.0</ele><time>2026-04-10T13:03:33.001Z</time></trkpt><trkpt lat="14.719319595037824" lon="121.05369867061059"><ele>56.333333333333336</ele><time>2026-04-10T13:03:34.001Z</time></trkpt><trkpt lat="14.719248063174831" lon="121.05376352324753"><ele>56.66666666666667</ele><time>2026-04-10T13:03:35.001Z</time></trkpt><trkpt lat="14.719195204276733" lon="121.05380866273202"><ele>57.0</ele><time>2026-04-10T13:03:36.001Z</time></trkpt><trkpt lat="14.719102332653154" lon="121.05388473699217"><ele>57.33333333333333</ele><time>2026-04-10T13:03:38.001Z</time></trkpt><trkpt lat="14.719052589938403" lon="121.0539257560874"><ele>57.666666666666664</ele><time>2026-04-10T13:03:39.001Z</time></trkpt><trkpt lat="14.719001496219404" lon="121.05396892559614"><ele>58.0</ele><time>2026-04-10T13:03:40.001Z</time></trkpt><trkpt lat="14.718910657425948" lon="121.05405034696777"><ele>58.25</ele><time>2026-04-10T13:03:42.001Z</time></trkpt><trkpt lat="14.718807467957665" lon="121.05414771078159"><ele>58.5</ele><time>2026-04-10T13:03:44.001Z</time></trkpt><trkpt lat="14.71873200060884" lon="121.05421336921135"><ele>58.75</ele><time>2026-04-10T13:03:45.001Z</time></trkpt><trkpt lat="14.718646462139855" lon="121.05428090426975"><ele>59.0</ele><time>2026-04-10T13:03:46.001Z</time></trkpt><trkpt lat="14.71855294847851" lon="121.05436045270136"><ele>59.0</ele><time>2026-04-10T13:03:47.001Z</time></trkpt><trkpt lat="14.718457499527295" lon="121.05444343700248"><ele>59.0</ele><time>2026-04-10T13:03:48.001Z</time></trkpt><trkpt lat="14.718357826652394" lon="121.05452557506715"><ele>59.0</ele><time>2026-04-10T13:03:49.001Z</time></trkpt><trkpt lat="14.718260513308842" lon="121.05460460612585"><ele>59.0</ele><time>2026-04-10T13:03:50.001Z</time></trkpt><trkpt lat="14.718162410844414" lon="121.05468404607156"><ele>59.0</ele><time>2026-04-10T13:03:51.001Z</time></trkpt><trkpt lat="14.718072087198905" lon="121.05475583109506"><ele>59.0</ele><time>2026-04-10T13:03:52.001Z</time></trkpt><trkpt lat="14.717979619269506" lon="121.05482929100204"><ele>59.0</ele><time>2026-04-10T13:03:53.001Z</time></trkpt><trkpt lat="14.717882322295933" lon="121.05490283440709"><ele>59.0</ele><time>2026-04-10T13:03:54.001Z</time></trkpt><trkpt lat="14.717779806842062" lon="121.05498332772193"><ele>59.0</ele><time>2026-04-10T13:03:55.001Z</time></trkpt><trkpt lat="14.717674979100781" lon="121.05507065986367"><ele>59.0</ele><time>2026-04-10T13:03:56.001Z</time></trkpt><trkpt lat="14.71757566137465" lon="121.05516880751345"><ele>59.0</ele><time>2026-04-10T13:03:57.001Z</time></trkpt><trkpt lat="14.717465246095173" lon="121.05527563558428"><ele>59.0</ele><time>2026-04-10T13:03:58.001Z</time></trkpt><trkpt lat="14.717339304141817" lon="121.0553792332713"><ele>59.0</ele><time>2026-04-10T13:03:59.001Z</time></trkpt><trkpt lat="14.717209473800045" lon="121.05548759284196"><ele>59.0</ele><time>2026-04-10T13:04:00.001Z</time></trkpt><trkpt lat="14.717077579311482" lon="121.05559985606236"><ele>59.0</ele><time>2026-04-10T13:04:01.001Z</time></trkpt><trkpt lat="14.716935140452511" lon="121.05571223510412"><ele>59.0</ele><time>2026-04-10T13:04:02.001Z</time></trkpt><trkpt lat="14.716793038969893" lon="121.0558274993924"><ele>59.0</ele><time>2026-04-10T13:04:03.001Z</time></trkpt><trkpt lat="14.716645683908345" lon="121.05594634502978"><ele>59.0</ele><time>2026-04-10T13:04:04.001Z</time></trkpt><trkpt lat="14.716500944194383" lon="121.0560637339187"><ele>59.0</ele><time>2026-04-10T13:04:05.001Z</time></trkpt><trkpt lat="14.716364156813722" lon="121.05618045972614"><ele>59.0</ele><time>2026-04-10T13:04:06.001Z</time></trkpt><trkpt lat="14.716234758032718" lon="121.05628985263662"><ele>59.0</ele><time>2026-04-10T13:04:07.001Z</time></trkpt><trkpt lat="14.716109308882752" lon="121.0563929522147"><ele>57.75</ele><time>2026-04-10T13:04:08.001Z</time></trkpt><trkpt lat="14.715989941095456" lon="121.05649289232747"><ele>56.5</ele><time>2026-04-10T13:04:09.001Z</time></trkpt><trkpt lat="14.71586513824849" lon="121.0565736274553"><ele>55.25</ele><time>2026-04-10T13:04:10.001Z</time></trkpt><trkpt lat="14.715764412874991" lon="121.05667563264862"><ele>54.0</ele><time>2026-04-10T13:04:11.001Z</time></trkpt><trkpt lat="14.715662648146964" lon="121.05675334890233"><ele>53.800000000000004</ele><time>2026-04-10T13:04:12.001Z</time></trkpt><trkpt lat="14.71557582597882" lon="121.05681780677489"><ele>53.60000000000001</ele><time>2026-04-10T13:04:13.001Z</time></trkpt><trkpt lat="14.715487494073505" lon="121.0568882307375"><ele>53.4</ele><time>2026-04-10T13:04:14.001Z</time></trkpt><trkpt lat="14.715404661345232" lon="121.05694921468037"><ele>53.2</ele><time>2026-04-10T13:04:15.001Z</time></trkpt><trkpt lat="14.715327201553858" lon="121.05701586910372"><ele>53.0</ele><time>2026-04-10T13:04:16.001Z</time></trkpt><trkpt lat="14.715257064795214" lon="121.0570696406494"><ele>52.57142857142858</ele><time>2026-04-10T13:04:17.001Z</time></trkpt><trkpt lat="14.715192299919957" lon="121.05711742817024"><ele>52.14285714285714</ele><time>2026-04-10T13:04:18.001Z</time></trkpt><trkpt lat="14.715130782343234" lon="121.05716588502462"><ele>51.714285714285715</ele><time>2026-04-10T13:04:19.001Z</time></trkpt><trkpt lat="14.71507751340166" lon="121.05720490579135"><ele>51.28571428571429</ele><time>2026-04-10T13:04:20.001Z</time></trkpt><trkpt lat="14.715018512166713" lon="121.05725412627339"><ele>50.85714285714286</ele><time>2026-04-10T13:04:21.001Z</time></trkpt><trkpt lat="14.714959757071659" lon="121.05730101038412"><ele>50.42857142857143</ele><time>2026-04-10T13:04:22.001Z</time></trkpt><trkpt lat="14.714898980438328" lon="121.0573472291945"><ele>50.0</ele><time>2026-04-10T13:04:24.001Z</time></trkpt><trkpt lat="14.714836144999696" lon="121.05738440038968"><ele>50.0</ele><time>2026-04-10T13:04:36.001Z</time></trkpt><trkpt lat="14.714780394381672" lon="121.05743120079431"><ele>50.0</ele><time>2026-04-10T13:04:39.001Z</time></trkpt><trkpt lat="14.714704592459103" lon="121.05752463153316"><ele>50.0</ele><time>2026-04-10T13:04:41.001Z</time></trkpt><trkpt lat="14.714648543777916" lon="121.05758181337104"><ele>50.0</ele><time>2026-04-10T13:04:42.001Z</time></trkpt><trkpt lat="14.714579127302352" lon="121.05763746313404"><ele>50.0</ele><time>2026-04-10T13:04:43.001Z</time></trkpt><trkpt lat="14.714500862297179" lon="121.05769723698837"><ele>50.0</ele><time>2026-04-10T13:04:44.001Z</time></trkpt><trkpt lat="14.714417084288966" lon="121.05776444836225"><ele>50.0</ele><time>2026-04-10T13:04:45.001Z</time></trkpt><trkpt lat="14.714326966914259" lon="121.05783736152246"><ele>50.0</ele><time>2026-04-10T13:04:46.001Z</time></trkpt><trkpt lat="14.714233393174533" lon="121.05791522378411"><ele>50.0</ele><time>2026-04-10T13:04:47.001Z</time></trkpt><trkpt lat="14.71413432195912" lon="121.05799772643627"><ele>50.75</ele><time>2026-04-10T13:04:48.001Z</time></trkpt><trkpt lat="14.714027510406451" lon="121.05808651398763"><ele>51.5</ele><time>2026-04-10T13:04:49.001Z</time></trkpt><trkpt lat="14.713918886843556" lon="121.05817307041298"><ele>52.25</ele><time>2026-04-10T13:04:50.001Z</time></trkpt><trkpt lat="14.713806670415002" lon="121.0582657926256"><ele>53.0</ele><time>2026-04-10T13:04:51.001Z</time></trkpt><trkpt lat="14.713691768756835" lon="121.05836339674393"><ele>53.25</ele><time>2026-04-10T13:04:52.001Z</time></trkpt><trkpt lat="14.713574755853145" lon="121.05846423684396"><ele>53.5</ele><time>2026-04-10T13:04:53.001Z</time></trkpt><trkpt lat="14.713459820880313" lon="121.05856794811723"><ele>53.75</ele><time>2026-04-10T13:04:54Z</time></trkpt><trkpt lat="14.713353094046393" lon="121.05866798598228"><ele>54.0</ele><time>2026-04-10T13:04:55Z</time></trkpt><trkpt lat="14.713246364594607" lon="121.05875580277998"><ele>54.25</ele><time>2026-04-10T13:04:56Z</time></trkpt><trkpt lat="14.713139756473591" lon="121.05884010868138"><ele>54.5</ele><time>2026-04-10T13:04:57Z</time></trkpt><trkpt lat="14.71302485032345" lon="121.05892546623069"><ele>54.75</ele><time>2026-04-10T13:04:58Z</time></trkpt><trkpt lat="14.712907322464853" lon="121.05901546152283"><ele>55.0</ele><time>2026-04-10T13:04:59Z</time></trkpt><trkpt lat="14.712790345019018" lon="121.05910870527349"><ele>54.666666666666664</ele><time>2026-04-10T13:05:00Z</time></trkpt><trkpt lat="14.712670081307728" lon="121.05920226941217"><ele>54.33333333333333</ele><time>2026-04-10T13:05:01Z</time></trkpt><trkpt lat="14.712547602097043" lon="121.05929681131303"><ele>54.0</ele><time>2026-04-10T13:05:02Z</time></trkpt><trkpt lat="14.712429278676963" lon="121.05939354171664"><ele>54.0</ele><time>2026-04-10T13:05:03Z</time></trkpt><trkpt lat="14.71231271029665" lon="121.05948905361626"><ele>54.0</ele><time>2026-04-10T13:05:04Z</time></trkpt><trkpt lat="14.712197118163429" lon="121.05958479399597"><ele>54.0</ele><time>2026-04-10T13:05:05Z</time></trkpt><trkpt lat="14.712079577600033" lon="121.05968242067206"><ele>54.0</ele><time>2026-04-10T13:05:06Z</time></trkpt><trkpt lat="14.711968051600463" lon="121.059773333428"><ele>53.75</ele><time>2026-04-10T13:05:07Z</time></trkpt><trkpt lat="14.711858781457584" lon="121.05986072033379"><ele>53.5</ele><time>2026-04-10T13:05:08Z</time></trkpt><trkpt lat="14.711748289131073" lon="121.05994985469947"><ele>53.25</ele><time>2026-04-10T13:05:09Z</time></trkpt><trkpt lat="14.711635303235887" lon="121.06004355103178"><ele>53.0</ele><time>2026-04-10T13:05:10Z</time></trkpt><trkpt lat="14.71152144139652" lon="121.06013763210021"><ele>52.75</ele><time>2026-04-10T13:05:11Z</time></trkpt><trkpt lat="14.711405201160263" lon="121.06022947706276"><ele>52.5</ele><time>2026-04-10T13:05:12Z</time></trkpt><trkpt lat="14.711286603758191" lon="121.06032572379561"><ele>52.25</ele><time>2026-04-10T13:05:13Z</time></trkpt><trkpt lat="14.711169071392195" lon="121.06042414131237"><ele>52.0</ele><time>2026-04-10T13:05:14Z</time></trkpt><trkpt lat="14.711048885170136" lon="121.06052513947235"><ele>52.0</ele><time>2026-04-10T13:05:15Z</time></trkpt><trkpt lat="14.71093178416072" lon="121.0606251034075"><ele>52.0</ele><time>2026-04-10T13:05:16Z</time></trkpt><trkpt lat="14.710810513396233" lon="121.06072606188906"><ele>52.0</ele><time>2026-04-10T13:05:17Z</time></trkpt><trkpt lat="14.710686697499828" lon="121.06082121888612"><ele>52.0</ele><time>2026-04-10T13:05:18Z</time></trkpt><trkpt lat="14.710568185936939" lon="121.06092226378644"><ele>52.0</ele><time>2026-04-10T13:05:19Z</time></trkpt><trkpt lat="14.710450554999078" lon="121.0610261650445"><ele>52.0</ele><time>2026-04-10T13:05:20Z</time></trkpt><trkpt lat="14.710331877569947" lon="121.06112801754315"><ele>52.666666666666664</ele><time>2026-04-10T13:05:21Z</time></trkpt><trkpt lat="14.710210704122703" lon="121.06122737240028"><ele>53.33333333333333</ele><time>2026-04-10T13:05:22Z</time></trkpt><trkpt lat="14.710091240120557" lon="121.06132999207482"><ele>54.0</ele><time>2026-04-10T13:05:23Z</time></trkpt><trkpt lat="14.709969696069999" lon="121.06142900620453"><ele>54.0</ele><time>2026-04-10T13:05:24Z</time></trkpt><trkpt lat="14.709847006200384" lon="121.06153071184087"><ele>54.0</ele><time>2026-04-10T13:05:25Z</time></trkpt><trkpt lat="14.709725757621158" lon="121.06163141011054"><ele>54.0</ele><time>2026-04-10T13:05:26Z</time></trkpt><trkpt lat="14.70961075288247" lon="121.06173643429176"><ele>54.0</ele><time>2026-04-10T13:05:27Z</time></trkpt><trkpt lat="14.70949203221478" lon="121.06183412454205"><ele>54.0</ele><time>2026-04-10T13:05:28Z</time></trkpt><trkpt lat="14.709372270663255" lon="121.06192976084023"><ele>54.0</ele><time>2026-04-10T13:05:29Z</time></trkpt><trkpt lat="14.709254612411277" lon="121.06202726404031"><ele>55.0</ele><time>2026-04-10T13:05:30Z</time></trkpt><trkpt lat="14.709137783423559" lon="121.0621261844002"><ele>56.0</ele><time>2026-04-10T13:05:31Z</time></trkpt><trkpt lat="14.709030356947826" lon="121.06221610870719"><ele>57.0</ele><time>2026-04-10T13:05:32Z</time></trkpt><trkpt lat="14.708932996859131" lon="121.06230014144762"><ele>58.0</ele><time>2026-04-10T13:05:33Z</time></trkpt><trkpt lat="14.708843341810947" lon="121.062377428236"><ele>57.99999999999999</ele><time>2026-04-10T13:05:34Z</time></trkpt><trkpt lat="14.708771094549448" lon="121.06244242658"><ele>58.0</ele><time>2026-04-10T13:05:35Z</time></trkpt><trkpt lat="14.708720655122852" lon="121.06249916112604"><ele>58.0</ele><time>2026-04-10T13:05:36Z</time></trkpt><trkpt lat="14.708675965461454" lon="121.06255172069632"><ele>58.0</ele><time>2026-04-10T13:05:37Z</time></trkpt><trkpt lat="14.70861773712826" lon="121.06260356036238"><ele>57.99999999999999</ele><time>2026-04-10T13:05:39Z</time></trkpt><trkpt lat="14.708537017279179" lon="121.06267136176008"><ele>58.0</ele><time>2026-04-10T13:06:45.001Z</time></trkpt><trkpt lat="14.708484693263559" lon="121.06271269661345"><ele>58.666666666666664</ele><time>2026-04-10T13:06:47.001Z</time></trkpt><trkpt lat="14.708430849592116" lon="121.06276144902046"><ele>59.33333333333333</ele><time>2026-04-10T13:06:48.001Z</time></trkpt><trkpt lat="14.708368762208526" lon="121.06281421789679"><ele>60.0</ele><time>2026-04-10T13:06:49.001Z</time></trkpt><trkpt lat="14.708307202023615" lon="121.0628741843861"><ele>60.66666666666667</ele><time>2026-04-10T13:06:50.001Z</time></trkpt><trkpt lat="14.708239722428264" lon="121.06293925117977"><ele>61.333333333333336</ele><time>2026-04-10T13:06:51.001Z</time></trkpt><trkpt lat="14.708169375321136" lon="121.06300816167979"><ele>62.0</ele><time>2026-04-10T13:06:52.001Z</time></trkpt><trkpt lat="14.708083320716321" lon="121.06307970227886"><ele>62.0</ele><time>2026-04-10T13:06:53.001Z</time></trkpt><trkpt lat="14.707993035606597" lon="121.0631585053687"><ele>62.0</ele><time>2026-04-10T13:06:54.001Z</time></trkpt><trkpt lat="14.707890343656853" lon="121.06324006899403"><ele>62.0</ele><time>2026-04-10T13:06:55.001Z</time></trkpt><trkpt lat="14.70778365650021" lon="121.06332869308672"><ele>62.0</ele><time>2026-04-10T13:06:56.001Z</time></trkpt><trkpt lat="14.707672228492083" lon="121.06341819520983"><ele>60.5</ele><time>2026-04-10T13:06:57.001Z</time></trkpt><trkpt lat="14.707556551183727" lon="121.0635147373531"><ele>59.0</ele><time>2026-04-10T13:06:58.001Z</time></trkpt><trkpt lat="14.707440650070895" lon="121.06361437774302"><ele>57.5</ele><time>2026-04-10T13:06:59.001Z</time></trkpt><trkpt lat="14.707332362942623" lon="121.06371007948015"><ele>56.0</ele><time>2026-04-10T13:07:00Z</time></trkpt><trkpt lat="14.70722403763374" lon="121.063805401195"><ele>56.0</ele><time>2026-04-10T13:07:01Z</time></trkpt><trkpt lat="14.707117316021632" lon="121.06390638143164"><ele>56.0</ele><time>2026-04-10T13:07:02Z</time></trkpt><trkpt lat="14.70702367515114" lon="121.0640109924184"><ele>56.0</ele><time>2026-04-10T13:07:03Z</time></trkpt><trkpt lat="14.706929816455345" lon="121.06413486124643"><ele>56.0</ele><time>2026-04-10T13:07:04Z</time></trkpt><trkpt lat="14.706839272703032" lon="121.06425529988338"><ele>54.333333333333336</ele><time>2026-04-10T13:07:05Z</time></trkpt><trkpt lat="14.706753905678411" lon="121.06439125179341"><ele>52.66666666666667</ele><time>2026-04-10T13:07:06Z</time></trkpt><trkpt lat="14.706679272658402" lon="121.06453369755815"><ele>51.0</ele><time>2026-04-10T13:07:07Z</time></trkpt><trkpt lat="14.706614929065527" lon="121.06467821188693"><ele>51.0</ele><time>2026-04-10T13:07:08Z</time></trkpt><trkpt lat="14.70655675226999" lon="121.06482443972692"><ele>51.0</ele><time>2026-04-10T13:07:09Z</time></trkpt><trkpt lat="14.706516208057508" lon="121.06498748695175"><ele>51.0</ele><time>2026-04-10T13:07:10Z</time></trkpt><trkpt lat="14.706483845667172" lon="121.06514970668819"><ele>51.33333333333333</ele><time>2026-04-10T13:07:11Z</time></trkpt><trkpt lat="14.706451893322855" lon="121.06530712077723"><ele>51.666666666666664</ele><time>2026-04-10T13:07:12Z</time></trkpt><trkpt lat="14.706434947678385" lon="121.06546137814377"><ele>52.0</ele><time>2026-04-10T13:07:13Z</time></trkpt><trkpt lat="14.706425424230204" lon="121.0656117846991"><ele>52.0</ele><time>2026-04-10T13:07:14Z</time></trkpt><trkpt lat="14.70642727518307" lon="121.06575855486733"><ele>52.0</ele><time>2026-04-10T13:07:15Z</time></trkpt><trkpt lat="14.706431086150118" lon="121.06590363483991"><ele>52.0</ele><time>2026-04-10T13:07:16Z</time></trkpt><trkpt lat="14.706430162156517" lon="121.06604162930724"><ele>52.0</ele><time>2026-04-10T13:07:17Z</time></trkpt><trkpt lat="14.706433161787473" lon="121.06617951009898"><ele>51.5</ele><time>2026-04-10T13:07:18Z</time></trkpt><trkpt lat="14.706435002641236" lon="121.06631861590965"><ele>51.0</ele><time>2026-04-10T13:07:19Z</time></trkpt><trkpt lat="14.706433599560384" lon="121.06644242360859"><ele>50.5</ele><time>2026-04-10T13:07:20Z</time></trkpt><trkpt lat="14.706435229483942" lon="121.066559195885"><ele>50.0</ele><time>2026-04-10T13:07:21Z</time></trkpt><trkpt lat="14.706428607175724" lon="121.06665415439825"><ele>50.00000000000001</ele><time>2026-04-10T13:07:22Z</time></trkpt><trkpt lat="14.70643082054213" lon="121.06675234529243"><ele>50.0</ele><time>2026-04-10T13:07:23Z</time></trkpt><trkpt lat="14.706431549644734" lon="121.06682614280957"><ele>50.0</ele><time>2026-04-10T13:07:24Z</time></trkpt><trkpt lat="14.706432580952274" lon="121.06689346118299"><ele>50.0</ele><time>2026-04-10T13:07:25Z</time></trkpt><trkpt lat="14.706436663376714" lon="121.0669596573311"><ele>50.0</ele><time>2026-04-10T13:07:27Z</time></trkpt><trkpt lat="14.706435413738726" lon="121.06703614528543"><ele>50.00000000000001</ele><time>2026-04-10T13:07:30Z</time></trkpt><trkpt lat="14.70642712568431" lon="121.0671052087512"><ele>50.0</ele><time>2026-04-10T13:07:34Z</time></trkpt><trkpt lat="14.706425149352613" lon="121.06721896770591"><ele>50.00000000000001</ele><time>2026-04-10T13:08:05Z</time></trkpt><trkpt lat="14.706426771299686" lon="121.06729845161539"><ele>50.0</ele><time>2026-04-10T13:08:06Z</time></trkpt><trkpt lat="14.70642116506011" lon="121.06739051365817"><ele>50.0</ele><time>2026-04-10T13:08:07Z</time></trkpt><trkpt lat="14.706423506496913" lon="121.06748061183787"><ele>50.0</ele><time>2026-04-10T13:08:08Z</time></trkpt><trkpt lat="14.706421761244613" lon="121.06757287160849"><ele>50.00000000000001</ele><time>2026-04-10T13:08:09Z</time></trkpt><trkpt lat="14.706424641330928" lon="121.06766750291705"><ele>50.0</ele><time>2026-04-10T13:08:10Z</time></trkpt><trkpt lat="14.70642413437595" lon="121.06777529947541"><ele>51.2</ele><time>2026-04-10T13:08:11Z</time></trkpt><trkpt lat="14.706407281692028" lon="121.06786901160635"><ele>52.4</ele><time>2026-04-10T13:08:12Z</time></trkpt><trkpt lat="14.706398959593962" lon="121.06796310054249"><ele>53.599999999999994</ele><time>2026-04-10T13:08:13Z</time></trkpt><trkpt lat="14.706400503679404" lon="121.06808440642271"><ele>54.8</ele><time>2026-04-10T13:08:14.001Z</time></trkpt><trkpt lat="14.706386196152614" lon="121.06817338742682"><ele>56.0</ele><time>2026-04-10T13:08:15.001Z</time></trkpt><trkpt lat="14.706394006279796" lon="121.06826539420511"><ele>56.833333333333336</ele><time>2026-04-10T13:08:16.001Z</time></trkpt><trkpt lat="14.70637149193847" lon="121.06837715238365"><ele>57.66666666666667</ele><time>2026-04-10T13:08:18.001Z</time></trkpt><trkpt lat="14.706373064133281" lon="121.068454151025"><ele>58.5</ele><time>2026-04-10T13:08:20.001Z</time></trkpt><trkpt lat="14.70638296028037" lon="121.06856018578821"><ele>59.33333333333333</ele><time>2026-04-10T13:08:23.001Z</time></trkpt><trkpt lat="14.706382960284168" lon="121.0686328941362"><ele>60.166666666666664</ele><time>2026-04-10T13:08:25.001Z</time></trkpt><trkpt lat="14.706370495750729" lon="121.06870395666908"><ele>61.0</ele><time>2026-04-10T13:08:27.001Z</time></trkpt><trkpt lat="14.706384371921951" lon="121.0688117304729"><ele>60.99999999999999</ele><time>2026-04-10T13:08:29.001Z</time></trkpt><trkpt lat="14.706385239200896" lon="121.06892747814194"><ele>61.0</ele><time>2026-04-10T13:08:31.001Z</time></trkpt><trkpt lat="14.706370246483875" lon="121.06899163455921"><ele>61.0</ele><time>2026-04-10T13:08:32.001Z</time></trkpt><trkpt lat="14.706386217668177" lon="121.06905806586482"><ele>61.0</ele><time>2026-04-10T13:08:33.001Z</time></trkpt><trkpt lat="14.70638674377977" lon="121.06912828147021"><ele>60.99999999999999</ele><time>2026-04-10T13:08:34.001Z</time></trkpt><trkpt lat="14.706387254574567" lon="121.06919645287492"><ele>61.0</ele><time>2026-04-10T13:08:35.001Z</time></trkpt><trkpt lat="14.706388086101786" lon="121.0693074295855"><ele>61.199999999999996</ele><time>2026-04-10T13:08:37.001Z</time></trkpt><trkpt lat="14.706390440028448" lon="121.06941095585476"><ele>61.39999999999999</ele><time>2026-04-10T13:08:39.001Z</time></trkpt><trkpt lat="14.706390549990203" lon="121.06952338145462"><ele>61.6</ele><time>2026-04-10T13:08:41.001Z</time></trkpt><trkpt lat="14.706390366215286" lon="121.06960282976387"><ele>61.8</ele><time>2026-04-10T13:08:44.001Z</time></trkpt><trkpt lat="14.706390159264508" lon="121.06969229799375"><ele>62.0</ele><time>2026-04-10T13:08:47.001Z</time></trkpt><trkpt lat="14.706380359337983" lon="121.06980240307885"><ele>62.0</ele><time>2026-04-10T13:08:49.001Z</time></trkpt><trkpt lat="14.706388235652662" lon="121.06992583005967"><ele>62.0</ele><time>2026-04-10T13:08:51.001Z</time></trkpt><trkpt lat="14.70639708724198" lon="121.07000513814654"><ele>62.0</ele><time>2026-04-10T13:08:52.001Z</time></trkpt><trkpt lat="14.70640407914611" lon="121.07009202767473"><ele>62.0</ele><time>2026-04-10T13:08:53.001Z</time></trkpt><trkpt lat="14.706410179942472" lon="121.07019092453406"><ele>62.0</ele><time>2026-04-10T13:08:54.001Z</time></trkpt><trkpt lat="14.706406254120248" lon="121.07030176218237"><ele>62.5</ele><time>2026-04-10T13:08:55.001Z</time></trkpt><trkpt lat="14.706400788411612" lon="121.07041396234344"><ele>63.0</ele><time>2026-04-10T13:08:56.001Z</time></trkpt><trkpt lat="14.706385117054365" lon="121.07053680049295"><ele>63.5</ele><time>2026-04-10T13:08:57.001Z</time></trkpt><trkpt lat="14.706358022411756" lon="121.0706568879765"><ele>64.0</ele><time>2026-04-10T13:08:58.001Z</time></trkpt><trkpt lat="14.706318994064468" lon="121.07078442442317"><ele>64.0</ele><time>2026-04-10T13:08:59.001Z</time></trkpt><trkpt lat="14.706288116418557" lon="121.07090918686161"><ele>64.0</ele><time>2026-04-10T13:09:00.001Z</time></trkpt><trkpt lat="14.706246911038958" lon="121.07101777761511"><ele>64.0</ele><time>2026-04-10T13:09:01.001Z</time></trkpt><trkpt lat="14.706209227832824" lon="121.07111714534345"><ele>64.0</ele><time>2026-04-10T13:09:02.001Z</time></trkpt><trkpt lat="14.706170981876971" lon="121.07119759854373"><ele>64.0</ele><time>2026-04-10T13:09:03.001Z</time></trkpt><trkpt lat="14.706139746739481" lon="121.07126541136505"><ele>64.0</ele><time>2026-04-10T13:09:04.001Z</time></trkpt><trkpt lat="14.706085942857053" lon="121.0713765087273"><ele>64.0</ele><time>2026-04-10T13:09:06Z</time></trkpt><trkpt lat="14.706051208641897" lon="121.07149784681629"><ele>64.0</ele><time>2026-04-10T13:09:08Z</time></trkpt><trkpt lat="14.706007457910212" lon="121.07162097276397"><ele>64.0</ele><time>2026-04-10T13:09:10Z</time></trkpt><trkpt lat="14.705981534462339" lon="121.0716968929264"><ele>64.0</ele><time>2026-04-10T13:09:11Z</time></trkpt><trkpt lat="14.705953597576169" lon="121.07177978615387"><ele>64.0</ele><time>2026-04-10T13:09:12Z</time></trkpt><trkpt lat="14.705925130596837" lon="121.07187146698293"><ele>64.0</ele><time>2026-04-10T13:09:13Z</time></trkpt><trkpt lat="14.705895191557026" lon="121.07197394238183"><ele>64.0</ele><time>2026-04-10T13:09:14Z</time></trkpt><trkpt lat="14.705859172265058" lon="121.07208356580426"><ele>64.0</ele><time>2026-04-10T13:09:15Z</time></trkpt><trkpt lat="14.70582325194753" lon="121.0722023044356"><ele>64.0</ele><time>2026-04-10T13:09:16Z</time></trkpt><trkpt lat="14.705790417423074" lon="121.07232298713957"><ele>64.0</ele><time>2026-04-10T13:09:17Z</time></trkpt><trkpt lat="14.705750195478188" lon="121.07243888688177"><ele>64.0</ele><time>2026-04-10T13:09:18Z</time></trkpt><trkpt lat="14.705719787518587" lon="121.0725539414699"><ele>64.0</ele><time>2026-04-10T13:09:19Z</time></trkpt><trkpt lat="14.70568373122868" lon="121.07266931600044"><ele>64.0</ele><time>2026-04-10T13:09:20Z</time></trkpt><trkpt lat="14.705649304724842" lon="121.07279092828784"><ele>63.0</ele><time>2026-04-10T13:09:21Z</time></trkpt><trkpt lat="14.705617451112072" lon="121.07291070233605"><ele>62.0</ele><time>2026-04-10T13:09:22Z</time></trkpt><trkpt lat="14.705580140286587" lon="121.07302504285269"><ele>61.0</ele><time>2026-04-10T13:09:23Z</time></trkpt><trkpt lat="14.705543476956137" lon="121.07314294802929"><ele>60.0</ele><time>2026-04-10T13:09:24Z</time></trkpt><trkpt lat="14.705506267452158" lon="121.07325679335749"><ele>59.75</ele><time>2026-04-10T13:09:25Z</time></trkpt><trkpt lat="14.705467708184871" lon="121.07337754035102"><ele>59.5</ele><time>2026-04-10T13:09:26Z</time></trkpt><trkpt lat="14.705429072472358" lon="121.07350191727892"><ele>59.25</ele><time>2026-04-10T13:09:27Z</time></trkpt><trkpt lat="14.705386430190224" lon="121.07362792577831"><ele>59.0</ele><time>2026-04-10T13:09:28Z</time></trkpt><trkpt lat="14.705347676494867" lon="121.07375976676535"><ele>59.0</ele><time>2026-04-10T13:09:29Z</time></trkpt><trkpt lat="14.705308243963017" lon="121.07389676725687"><ele>59.0</ele><time>2026-04-10T13:09:30Z</time></trkpt><trkpt lat="14.705269192266913" lon="121.07403608999041"><ele>59.0</ele><time>2026-04-10T13:09:31Z</time></trkpt><trkpt lat="14.705228864822473" lon="121.074175447009"><ele>59.0</ele><time>2026-04-10T13:09:32Z</time></trkpt><trkpt lat="14.705189561635883" lon="121.07432156591946"><ele>59.25</ele><time>2026-04-10T13:09:33Z</time></trkpt><trkpt lat="14.705153937292145" lon="121.07447205101134"><ele>59.5</ele><time>2026-04-10T13:09:34Z</time></trkpt><trkpt lat="14.705128023092065" lon="121.07462048780442"><ele>59.75</ele><time>2026-04-10T13:09:35Z</time></trkpt><trkpt lat="14.70511072129794" lon="121.07475744721745"><ele>60.0</ele><time>2026-04-10T13:09:36Z</time></trkpt><trkpt lat="14.705071840777453" lon="121.0748976462292"><ele>60.6</ele><time>2026-04-10T13:09:37Z</time></trkpt><trkpt lat="14.705054638585782" lon="121.07501781835674"><ele>61.2</ele><time>2026-04-10T13:09:38Z</time></trkpt><trkpt lat="14.705042252057122" lon="121.07512858017124"><ele>61.8</ele><time>2026-04-10T13:09:39Z</time></trkpt><trkpt lat="14.70503701669415" lon="121.07522110512058"><ele>62.4</ele><time>2026-04-10T13:09:40Z</time></trkpt><trkpt lat="14.705030577348944" lon="121.07529147686331"><ele>63.0</ele><time>2026-04-10T13:09:41Z</time></trkpt><trkpt lat="14.705026674228984" lon="121.07540404131365"><ele>63.0</ele><time>2026-04-10T13:09:43Z</time></trkpt><trkpt lat="14.705021766349004" lon="121.075518989192"><ele>63.0</ele><time>2026-04-10T13:09:45Z</time></trkpt><trkpt lat="14.70502650631221" lon="121.0755868097778"><ele>63.0</ele><time>2026-04-10T13:09:46Z</time></trkpt><trkpt lat="14.705030398168038" lon="121.07566129462295"><ele>63.0</ele><time>2026-04-10T13:09:47Z</time></trkpt><trkpt lat="14.705028579485425" lon="121.07574888741138"><ele>63.0</ele><time>2026-04-10T13:09:48Z</time></trkpt><trkpt lat="14.705028304509407" lon="121.07584197907367"><ele>63.0</ele><time>2026-04-10T13:09:49Z</time></trkpt><trkpt lat="14.70502747106288" lon="121.07594127360534"><ele>63.4</ele><time>2026-04-10T13:09:50Z</time></trkpt><trkpt lat="14.705023341723747" lon="121.07604738412643"><ele>63.8</ele><time>2026-04-10T13:09:51Z</time></trkpt><trkpt lat="14.705015444881607" lon="121.07615354874024"><ele>64.2</ele><time>2026-04-10T13:09:52Z</time></trkpt><trkpt lat="14.70501138286246" lon="121.07626224358395"><ele>64.6</ele><time>2026-04-10T13:09:53Z</time></trkpt><trkpt lat="14.705007909331647" lon="121.07636939879761"><ele>65.0</ele><time>2026-04-10T13:09:54Z</time></trkpt><trkpt lat="14.705005408415493" lon="121.07647629983406"><ele>65.0</ele><time>2026-04-10T13:09:55Z</time></trkpt><trkpt lat="14.705002568207842" lon="121.07658472284893"><ele>65.0</ele><time>2026-04-10T13:09:56Z</time></trkpt><trkpt lat="14.705000013368648" lon="121.07669797519615"><ele>65.0</ele><time>2026-04-10T13:09:57Z</time></trkpt><trkpt lat="14.704999642625168" lon="121.07682057628386"><ele>65.0</ele><time>2026-04-10T13:09:58Z</time></trkpt><trkpt lat="14.705002237671401" lon="121.0769464553855"><ele>65.25</ele><time>2026-04-10T13:09:59Z</time></trkpt><trkpt lat="14.705001056652675" lon="121.07707485552243"><ele>65.5</ele><time>2026-04-10T13:10:00Z</time></trkpt><trkpt lat="14.704998516728281" lon="121.07720496992792"><ele>65.75</ele><time>2026-04-10T13:10:01Z</time></trkpt><trkpt lat="14.704995539920299" lon="121.07733761650934"><ele>66.0</ele><time>2026-04-10T13:10:02Z</time></trkpt><trkpt lat="14.704995857073603" lon="121.07747306848918"><ele>65.25</ele><time>2026-04-10T13:10:03Z</time></trkpt><trkpt lat="14.704995285322234" lon="121.07760493983326"><ele>64.5</ele><time>2026-04-10T13:10:04Z</time></trkpt><trkpt lat="14.704992266716795" lon="121.07773626335863"><ele>63.75</ele><time>2026-04-10T13:10:05Z</time></trkpt><trkpt lat="14.705000451795781" lon="121.07788154258891"><ele>63.0</ele><time>2026-04-10T13:10:06Z</time></trkpt><trkpt lat="14.705002857557297" lon="121.07802003318055"><ele>63.0</ele><time>2026-04-10T13:10:07Z</time></trkpt><trkpt lat="14.705004745302519" lon="121.07814792796837"><ele>63.0</ele><time>2026-04-10T13:10:08Z</time></trkpt><trkpt lat="14.705001142308019" lon="121.07828091263995"><ele>63.0</ele><time>2026-04-10T13:10:09Z</time></trkpt><trkpt lat="14.704996371916048" lon="121.07842136499892"><ele>63.0</ele><time>2026-04-10T13:10:10Z</time></trkpt><trkpt lat="14.70499389903722" lon="121.07855647909707"><ele>63.25</ele><time>2026-04-10T13:10:11Z</time></trkpt><trkpt lat="14.70499714828629" lon="121.07870226835323"><ele>63.5</ele><time>2026-04-10T13:10:12Z</time></trkpt><trkpt lat="14.704998962742003" lon="121.07883650865337"><ele>63.75</ele><time>2026-04-10T13:10:13Z</time></trkpt><trkpt lat="14.705004757766028" lon="121.07896765952917"><ele>64.0</ele><time>2026-04-10T13:10:14Z</time></trkpt><trkpt lat="14.704985474930268" lon="121.07913640532975"><ele>65.0</ele><time>2026-04-10T13:10:15Z</time></trkpt><trkpt lat="14.70496998868757" lon="121.07934171723214"><ele>66.0</ele><time>2026-04-10T13:10:16Z</time></trkpt><trkpt lat="14.704989540516381" lon="121.07950688082977"><ele>67.0</ele><time>2026-04-10T13:10:17Z</time></trkpt><trkpt lat="14.70499794796116" lon="121.07965304633295"><ele>67.0</ele><time>2026-04-10T13:10:18Z</time></trkpt><trkpt lat="14.704986067645303" lon="121.07980458181353"><ele>67.0</ele><time>2026-04-10T13:10:19Z</time></trkpt><trkpt lat="14.70495803430698" lon="121.0799551275035"><ele>67.0</ele><time>2026-04-10T13:10:20Z</time></trkpt><trkpt lat="14.704932257741426" lon="121.08010646725411"><ele>67.0</ele><time>2026-04-10T13:10:21Z</time></trkpt><trkpt lat="14.704912978899017" lon="121.0802605962912"><ele>67.5</ele><time>2026-04-10T13:10:22Z</time></trkpt><trkpt lat="14.704890834279094" lon="121.08041354550019"><ele>68.0</ele><time>2026-04-10T13:10:23Z</time></trkpt><trkpt lat="14.704868456055014" lon="121.08056641358391"><ele>68.5</ele><time>2026-04-10T13:10:24Z</time></trkpt><trkpt lat="14.70484890968474" lon="121.0807204401889"><ele>69.0</ele><time>2026-04-10T13:10:25Z</time></trkpt><trkpt lat="14.704829685919815" lon="121.08087534497317"><ele>69.0</ele><time>2026-04-10T13:10:26Z</time></trkpt><trkpt lat="14.70481265534582" lon="121.08103447072865"><ele>69.0</ele><time>2026-04-10T13:10:27Z</time></trkpt><trkpt lat="14.704796717102877" lon="121.08119330275947"><ele>69.0</ele><time>2026-04-10T13:10:28Z</time></trkpt><trkpt lat="14.70477954840006" lon="121.08135536493782"><ele>69.0</ele><time>2026-04-10T13:10:29Z</time></trkpt><trkpt lat="14.704762377231239" lon="121.08151495395184"><ele>69.0</ele><time>2026-04-10T13:10:30Z</time></trkpt><trkpt lat="14.70473773876071" lon="121.08166450312198"><ele>69.0</ele><time>2026-04-10T13:10:31Z</time></trkpt><trkpt lat="14.704713022973518" lon="121.0817922916405"><ele>69.0</ele><time>2026-04-10T13:10:32Z</time></trkpt><trkpt lat="14.704695707920731" lon="121.08189954967312"><ele>69.0</ele><time>2026-04-10T13:10:33Z</time></trkpt><trkpt lat="14.704677534846537" lon="121.08198505585335"><ele>69.0</ele><time>2026-04-10T13:10:34Z</time></trkpt><trkpt lat="14.704658071235212" lon="121.08208325576801"><ele>69.0</ele><time>2026-04-10T13:10:35Z</time></trkpt><trkpt lat="14.704636400445079" lon="121.0821932791857"><ele>69.0</ele><time>2026-04-10T13:10:36Z</time></trkpt><trkpt lat="14.70460770883159" lon="121.08231394137023"><ele>69.0</ele><time>2026-04-10T13:10:37Z</time></trkpt><trkpt lat="14.704575188836476" lon="121.08243788005493"><ele>69.0</ele><time>2026-04-10T13:10:38Z</time></trkpt><trkpt lat="14.704538708911059" lon="121.08256683139918"><ele>69.0</ele><time>2026-04-10T13:10:39Z</time></trkpt><trkpt lat="14.704500979609703" lon="121.08270181262195"><ele>69.0</ele><time>2026-04-10T13:10:40Z</time></trkpt><trkpt lat="14.704459866789623" lon="121.08283837375178"><ele>69.0</ele><time>2026-04-10T13:10:41Z</time></trkpt><trkpt lat="14.704414647871122" lon="121.082975573271"><ele>69.0</ele><time>2026-04-10T13:10:42Z</time></trkpt><trkpt lat="14.704361872325904" lon="121.08311549183279"><ele>69.0</ele><time>2026-04-10T13:10:43Z</time></trkpt><trkpt lat="14.70430415888806" lon="121.08326102721628"><ele>69.0</ele><time>2026-04-10T13:10:44Z</time></trkpt><trkpt lat="14.70424130487237" lon="121.08340967080221"><ele>69.0</ele><time>2026-04-10T13:10:45Z</time></trkpt><trkpt lat="14.70417172975561" lon="121.08356251828002"><ele>69.0</ele><time>2026-04-10T13:10:46Z</time></trkpt><trkpt lat="14.704098177562589" lon="121.08371601045648"><ele>69.0</ele><time>2026-04-10T13:10:47Z</time></trkpt><trkpt lat="14.704018691125405" lon="121.0838714863757"><ele>69.0</ele><time>2026-04-10T13:10:48Z</time></trkpt><trkpt lat="14.703932988888525" lon="121.08402845483"><ele>69.0</ele><time>2026-04-10T13:10:49Z</time></trkpt><trkpt lat="14.703837693548909" lon="121.08417973740087"><ele>69.0</ele><time>2026-04-10T13:10:50Z</time></trkpt><trkpt lat="14.7037374986706" lon="121.08433012571663"><ele>69.0</ele><time>2026-04-10T13:10:51Z</time></trkpt><trkpt lat="14.703631975260373" lon="121.0844795615318"><ele>69.0</ele><time>2026-04-10T13:10:52Z</time></trkpt><trkpt lat="14.703522950727878" lon="121.08462592888188"><ele>69.0</ele><time>2026-04-10T13:10:53Z</time></trkpt><trkpt lat="14.703404628447593" lon="121.08477248201542"><ele>70.33333333333333</ele><time>2026-04-10T13:10:54Z</time></trkpt><trkpt lat="14.703280670538874" lon="121.08491196008733"><ele>71.66666666666666</ele><time>2026-04-10T13:10:55Z</time></trkpt><trkpt lat="14.70315086786417" lon="121.0850539160422"><ele>73.0</ele><time>2026-04-10T13:10:56Z</time></trkpt><trkpt lat="14.703018891309886" lon="121.0851906187819"><ele>73.0</ele><time>2026-04-10T13:10:57Z</time></trkpt><trkpt lat="14.702881782023043" lon="121.08532845653558"><ele>73.0</ele><time>2026-04-10T13:10:58Z</time></trkpt><trkpt lat="14.702738969966138" lon="121.08546022806581"><ele>73.0</ele><time>2026-04-10T13:10:59Z</time></trkpt><trkpt lat="14.702593906504317" lon="121.0855880468578"><ele>74.66666666666666</ele><time>2026-04-10T13:11:00Z</time></trkpt><trkpt lat="14.702442070962505" lon="121.08571202714997"><ele>76.33333333333333</ele><time>2026-04-10T13:11:01Z</time></trkpt><trkpt lat="14.702288441010369" lon="121.08582620128406"><ele>78.0</ele><time>2026-04-10T13:11:02Z</time></trkpt><trkpt lat="14.702127999402933" lon="121.08593536128033"><ele>78.0</ele><time>2026-04-10T13:11:03Z</time></trkpt><trkpt lat="14.701965719811708" lon="121.08603987579711"><ele>78.0</ele><time>2026-04-10T13:11:04Z</time></trkpt><trkpt lat="14.701797526196458" lon="121.08613630267536"><ele>78.0</ele><time>2026-04-10T13:11:05Z</time></trkpt><trkpt lat="14.701623405567187" lon="121.08622585442549"><ele>79.33333333333333</ele><time>2026-04-10T13:11:06Z</time></trkpt><trkpt lat="14.701456007474688" lon="121.08631489493057"><ele>80.66666666666666</ele><time>2026-04-10T13:11:07Z</time></trkpt><trkpt lat="14.70128838936314" lon="121.08640418608174"><ele>82.0</ele><time>2026-04-10T13:11:08Z</time></trkpt><trkpt lat="14.70112120189895" lon="121.08649134192387"><ele>83.66666666666666</ele><time>2026-04-10T13:11:09Z</time></trkpt><trkpt lat="14.70095620448592" lon="121.08657611459492"><ele>85.33333333333333</ele><time>2026-04-10T13:11:10Z</time></trkpt><trkpt lat="14.700790922720207" lon="121.08665752694151"><ele>87.0</ele><time>2026-04-10T13:11:11Z</time></trkpt><trkpt lat="14.70061393453389" lon="121.0867166345231"><ele>87.0</ele><time>2026-04-10T13:11:12Z</time></trkpt><trkpt lat="14.700442360670595" lon="121.08678144210333"><ele>87.0</ele><time>2026-04-10T13:11:13Z</time></trkpt><trkpt lat="14.700273759531584" lon="121.08684476076053"><ele>87.0</ele><time>2026-04-10T13:11:14Z</time></trkpt><trkpt lat="14.700107453334223" lon="121.08688764759816"><ele>88.5</ele><time>2026-04-10T13:11:15Z</time></trkpt><trkpt lat="14.699954830923065" lon="121.08693079290015"><ele>90.0</ele><time>2026-04-10T13:11:16Z</time></trkpt><trkpt lat="14.699817694116911" lon="121.08697094346206"><ele>91.5</ele><time>2026-04-10T13:11:17Z</time></trkpt><trkpt lat="14.699690620219451" lon="121.08700821623408"><ele>93.0</ele><time>2026-04-10T13:11:18Z</time></trkpt><trkpt lat="14.699576164860051" lon="121.08705370876697"><ele>93.0</ele><time>2026-04-10T13:11:19Z</time></trkpt><trkpt lat="14.699458216746264" lon="121.08707193071187"><ele>93.0</ele><time>2026-04-10T13:11:20Z</time></trkpt><trkpt lat="14.699339839221908" lon="121.08709753877868"><ele>93.0</ele><time>2026-04-10T13:11:21Z</time></trkpt><trkpt lat="14.699218552932336" lon="121.08713159453166"><ele>93.0</ele><time>2026-04-10T13:11:22Z</time></trkpt><trkpt lat="14.699089310449471" lon="121.08713539294925"><ele>93.75</ele><time>2026-04-10T13:11:23Z</time></trkpt><trkpt lat="14.698960972743418" lon="121.0871540645328"><ele>94.5</ele><time>2026-04-10T13:11:24Z</time></trkpt><trkpt lat="14.698830538379" lon="121.0871653674784"><ele>95.25</ele><time>2026-04-10T13:11:25Z</time></trkpt><trkpt lat="14.698689316477532" lon="121.08717231135047"><ele>96.0</ele><time>2026-04-10T13:11:26Z</time></trkpt><trkpt lat="14.698547321087862" lon="121.08717723258664"><ele>96.0</ele><time>2026-04-10T13:11:27Z</time></trkpt><trkpt lat="14.698398113111505" lon="121.08718085200738"><ele>96.0</ele><time>2026-04-10T13:11:28Z</time></trkpt><trkpt lat="14.698250983642989" lon="121.08718442100198"><ele>96.0</ele><time>2026-04-10T13:11:29Z</time></trkpt><trkpt lat="14.698101590929502" lon="121.08718792467943"><ele>96.0</ele><time>2026-04-10T13:11:30Z</time></trkpt><trkpt lat="14.697957232739562" lon="121.08719036683127"><ele>96.0</ele><time>2026-04-10T13:11:31Z</time></trkpt><trkpt lat="14.697805925292291" lon="121.08720407634168"><ele>96.0</ele><time>2026-04-10T13:11:32Z</time></trkpt><trkpt lat="14.69765179200605" lon="121.08720416361355"><ele>96.0</ele><time>2026-04-10T13:11:33Z</time></trkpt><trkpt lat="14.697512489998065" lon="121.08719898289024"><ele>96.0</ele><time>2026-04-10T13:11:34Z</time></trkpt><trkpt lat="14.69737888717407" lon="121.0871922688804"><ele>95.5</ele><time>2026-04-10T13:11:35Z</time></trkpt><trkpt lat="14.697249907095275" lon="121.08719447894522"><ele>95.0</ele><time>2026-04-10T13:11:36Z</time></trkpt><trkpt lat="14.697106178661443" lon="121.08719775870354"><ele>94.5</ele><time>2026-04-10T13:11:37Z</time></trkpt><trkpt lat="14.696964424711265" lon="121.08720001167795"><ele>94.0</ele><time>2026-04-10T13:11:38Z</time></trkpt><trkpt lat="14.696820894976721" lon="121.08719484887358"><ele>93.25</ele><time>2026-04-10T13:11:39Z</time></trkpt><trkpt lat="14.696689282550718" lon="121.08721812240027"><ele>92.5</ele><time>2026-04-10T13:11:40Z</time></trkpt><trkpt lat="14.696553618187403" lon="121.08720616438659"><ele>91.75</ele><time>2026-04-10T13:11:41Z</time></trkpt><trkpt lat="14.696399208257064" lon="121.08720972704455"><ele>91.0</ele><time>2026-04-10T13:11:42Z</time></trkpt><trkpt lat="14.696241502361692" lon="121.08721022143348"><ele>89.0</ele><time>2026-04-10T13:11:43Z</time></trkpt><trkpt lat="14.696075803554548" lon="121.08721150814046"><ele>87.0</ele><time>2026-04-10T13:11:44Z</time></trkpt><trkpt lat="14.695906507083981" lon="121.08721114160561"><ele>85.0</ele><time>2026-04-10T13:11:45Z</time></trkpt><trkpt lat="14.695729614098587" lon="121.08721098609492"><ele>85.0</ele><time>2026-04-10T13:11:46Z</time></trkpt><trkpt lat="14.695547204989923" lon="121.08721181335169"><ele>85.0</ele><time>2026-04-10T13:11:47Z</time></trkpt><trkpt lat="14.695362604271315" lon="121.08721273389179"><ele>85.0</ele><time>2026-04-10T13:11:48Z</time></trkpt><trkpt lat="14.695174311563587" lon="121.08721156277913"><ele>84.33333333333333</ele><time>2026-04-10T13:11:49Z</time></trkpt><trkpt lat="14.694978509733314" lon="121.08720842424752"><ele>83.66666666666667</ele><time>2026-04-10T13:11:50Z</time></trkpt><trkpt lat="14.694780977178423" lon="121.08720517256181"><ele>83.0</ele><time>2026-04-10T13:11:51Z</time></trkpt><trkpt lat="14.694580353589183" lon="121.08720186999211"><ele>83.33333333333334</ele><time>2026-04-10T13:11:52Z</time></trkpt><trkpt lat="14.694373271754177" lon="121.0871990265862"><ele>83.66666666666667</ele><time>2026-04-10T13:11:53Z</time></trkpt><trkpt lat="14.694164522849137" lon="121.08719709571544"><ele>84.0</ele><time>2026-04-10T13:11:54Z</time></trkpt><trkpt lat="14.693955091288851" lon="121.08719569399021"><ele>84.0</ele><time>2026-04-10T13:11:55Z</time></trkpt><trkpt lat="14.69374879500921" lon="121.0871949685758"><ele>84.0</ele><time>2026-04-10T13:11:56Z</time></trkpt><trkpt lat="14.693535683294018" lon="121.08719421920031"><ele>84.0</ele><time>2026-04-10T13:11:57Z</time></trkpt><trkpt lat="14.693324954536592" lon="121.08719536271728"><ele>85.0</ele><time>2026-04-10T13:11:58Z</time></trkpt><trkpt lat="14.693112429053604" lon="121.08719786490059"><ele>86.0</ele><time>2026-04-10T13:11:59Z</time></trkpt><trkpt lat="14.692903691530427" lon="121.08720141172418"><ele>87.0</ele><time>2026-04-10T13:12:00Z</time></trkpt><trkpt lat="14.692697563783327" lon="121.08720090099536"><ele>88.0</ele><time>2026-04-10T13:12:01Z</time></trkpt><trkpt lat="14.692486284612073" lon="121.0871986287173"><ele>89.0</ele><time>2026-04-10T13:12:02Z</time></trkpt><trkpt lat="14.692277034802219" lon="121.08719638902275"><ele>90.0</ele><time>2026-04-10T13:12:03Z</time></trkpt><trkpt lat="14.692068437862197" lon="121.08719418142321"><ele>90.66666666666667</ele><time>2026-04-10T13:12:04Z</time></trkpt><trkpt lat="14.691862194738507" lon="121.08719199873384"><ele>91.33333333333334</ele><time>2026-04-10T13:12:05Z</time></trkpt><trkpt lat="14.691654635450735" lon="121.08719018717525"><ele>92.0</ele><time>2026-04-10T13:12:06Z</time></trkpt><trkpt lat="14.691448054548655" lon="121.08718819706537"><ele>92.0</ele><time>2026-04-10T13:12:07Z</time></trkpt><trkpt lat="14.69123971169193" lon="121.08718575448395"><ele>92.0</ele><time>2026-04-10T13:12:08Z</time></trkpt><trkpt lat="14.691033348676779" lon="121.08718324191166"><ele>92.0</ele><time>2026-04-10T13:12:09Z</time></trkpt><trkpt lat="14.690825113488314" lon="121.08717975402195"><ele>92.0</ele><time>2026-04-10T13:12:10Z</time></trkpt><trkpt lat="14.690609770474904" lon="121.08717638961794"><ele>92.0</ele><time>2026-04-10T13:12:11Z</time></trkpt><trkpt lat="14.690399520857635" lon="121.08717197082397"><ele>92.0</ele><time>2026-04-10T13:12:12Z</time></trkpt><trkpt lat="14.690187370503999" lon="121.0871674217906"><ele>92.0</ele><time>2026-04-10T13:12:13Z</time></trkpt><trkpt lat="14.689978508595235" lon="121.08716294327053"><ele>92.0</ele><time>2026-04-10T13:12:14Z</time></trkpt><trkpt lat="14.68976890430017" lon="121.08715862102626"><ele>92.0</ele><time>2026-04-10T13:12:15Z</time></trkpt><trkpt lat="14.689558172922435" lon="121.08715442692309"><ele>92.0</ele><time>2026-04-10T13:12:16Z</time></trkpt><trkpt lat="14.689355881173915" lon="121.08715028371493"><ele>92.0</ele><time>2026-04-10T13:12:17Z</time></trkpt><trkpt lat="14.689166109134314" lon="121.08714640504373"><ele>92.0</ele><time>2026-04-10T13:12:18Z</time></trkpt><trkpt lat="14.688985237874741" lon="121.08714288614634"><ele>92.0</ele><time>2026-04-10T13:12:19Z</time></trkpt><trkpt lat="14.688810431912989" lon="121.08713665843372"><ele>92.0</ele><time>2026-04-10T13:12:20Z</time></trkpt><trkpt lat="14.68863133640182" lon="121.08712597957437"><ele>92.0</ele><time>2026-04-10T13:12:21Z</time></trkpt><trkpt lat="14.688455839391409" lon="121.08711588274028"><ele>93.0</ele><time>2026-04-10T13:12:22Z</time></trkpt><trkpt lat="14.688284634989003" lon="121.08710194393565"><ele>94.0</ele><time>2026-04-10T13:12:23Z</time></trkpt><trkpt lat="14.688110648870543" lon="121.08708394539033"><ele>95.0</ele><time>2026-04-10T13:12:24Z</time></trkpt><trkpt lat="14.687941211632332" lon="121.08706571734942"><ele>95.0</ele><time>2026-04-10T13:12:25Z</time></trkpt><trkpt lat="14.687779241668483" lon="121.08704834954042"><ele>95.0</ele><time>2026-04-10T13:12:26Z</time></trkpt><trkpt lat="14.687612373040828" lon="121.08707216385973"><ele>95.0</ele><time>2026-04-10T13:12:27Z</time></trkpt><trkpt lat="14.68744600746887" lon="121.08705031679071"><ele>94.0</ele><time>2026-04-10T13:12:28Z</time></trkpt><trkpt lat="14.687278609061066" lon="121.08702630676"><ele>93.0</ele><time>2026-04-10T13:12:29Z</time></trkpt><trkpt lat="14.687113150148985" lon="121.08699132835712"><ele>92.0</ele><time>2026-04-10T13:12:30Z</time></trkpt><trkpt lat="14.68694985833352" lon="121.08694419614788"><ele>90.33333333333334</ele><time>2026-04-10T13:12:31Z</time></trkpt><trkpt lat="14.686791171740259" lon="121.08689418351196"><ele>88.66666666666667</ele><time>2026-04-10T13:12:32Z</time></trkpt><trkpt lat="14.686641477538938" lon="121.08679035767635"><ele>87.0</ele><time>2026-04-10T13:12:33Z</time></trkpt><trkpt lat="14.686489602799677" lon="121.08674338279825"><ele>87.0</ele><time>2026-04-10T13:12:34Z</time></trkpt><trkpt lat="14.686336507195238" lon="121.08668756838614"><ele>87.0</ele><time>2026-04-10T13:12:35Z</time></trkpt><trkpt lat="14.686184069623048" lon="121.08662918675454"><ele>87.0</ele><time>2026-04-10T13:12:36Z</time></trkpt><trkpt lat="14.686024418342495" lon="121.0865680423404"><ele>86.66666666666667</ele><time>2026-04-10T13:12:37Z</time></trkpt><trkpt lat="14.685872641177502" lon="121.08650866098343"><ele>86.33333333333334</ele><time>2026-04-10T13:12:38Z</time></trkpt><trkpt lat="14.68571478708057" lon="121.08644560160297"><ele>86.0</ele><time>2026-04-10T13:12:39Z</time></trkpt><trkpt lat="14.68556427484442" lon="121.08638012023704"><ele>86.0</ele><time>2026-04-10T13:12:40Z</time></trkpt><trkpt lat="14.68541427358963" lon="121.0863132071408"><ele>86.0</ele><time>2026-04-10T13:12:41Z</time></trkpt><trkpt lat="14.685255875142834" lon="121.08624254820863"><ele>86.0</ele><time>2026-04-10T13:12:42Z</time></trkpt><trkpt lat="14.685093780820955" lon="121.08617011164962"><ele>85.33333333333334</ele><time>2026-04-10T13:12:43Z</time></trkpt><trkpt lat="14.684926454639532" lon="121.0860952617119"><ele>84.66666666666667</ele><time>2026-04-10T13:12:44Z</time></trkpt><trkpt lat="14.684761698505211" lon="121.0860215614459"><ele>84.0</ele><time>2026-04-10T13:12:45Z</time></trkpt><trkpt lat="14.684585298292744" lon="121.08594265240728"><ele>83.66666666666667</ele><time>2026-04-10T13:12:46Z</time></trkpt><trkpt lat="14.684410810786163" lon="121.08584898595397"><ele>83.33333333333334</ele><time>2026-04-10T13:12:47Z</time></trkpt><trkpt lat="14.684251210482133" lon="121.08576350297636"><ele>83.0</ele><time>2026-04-10T13:12:48Z</time></trkpt><trkpt lat="14.684099859040805" lon="121.08568374081183"><ele>83.0</ele><time>2026-04-10T13:12:49Z</time></trkpt><trkpt lat="14.68395114776388" lon="121.08560611704263"><ele>83.0</ele><time>2026-04-10T13:12:50Z</time></trkpt><trkpt lat="14.683823376413747" lon="121.08553940020377"><ele>83.0</ele><time>2026-04-10T13:12:51Z</time></trkpt><trkpt lat="14.683676049612322" lon="121.08547660754792"><ele>83.5</ele><time>2026-04-10T13:12:52Z</time></trkpt><trkpt lat="14.6835490623082" lon="121.08542731037561"><ele>84.0</ele><time>2026-04-10T13:12:53Z</time></trkpt><trkpt lat="14.683435259076182" lon="121.08537908796322"><ele>84.5</ele><time>2026-04-10T13:12:54Z</time></trkpt><trkpt lat="14.683320435941276" lon="121.08532796216392"><ele>85.0</ele><time>2026-04-10T13:12:55Z</time></trkpt><trkpt lat="14.683204234701883" lon="121.08527685434565"><ele>85.0</ele><time>2026-04-10T13:12:56Z</time></trkpt><trkpt lat="14.683085446988768" lon="121.08522438494498"><ele>85.0</ele><time>2026-04-10T13:12:57Z</time></trkpt><trkpt lat="14.682971083371049" lon="121.08517387631076"><ele>85.0</ele><time>2026-04-10T13:12:58Z</time></trkpt><trkpt lat="14.682874945422368" lon="121.08513120733528"><ele>85.0</ele><time>2026-04-10T13:12:59Z</time></trkpt><trkpt lat="14.68276127852452" lon="121.08508056651131"><ele>85.0</ele><time>2026-04-10T13:13:00Z</time></trkpt><trkpt lat="14.682664328107254" lon="121.0850375280369"><ele>85.0</ele><time>2026-04-10T13:13:01Z</time></trkpt><trkpt lat="14.682559835946927" lon="121.08499114154326"><ele>85.0</ele><time>2026-04-10T13:13:02Z</time></trkpt><trkpt lat="14.682454114521969" lon="121.0849442093933"><ele>85.0</ele><time>2026-04-10T13:13:03Z</time></trkpt><trkpt lat="14.682339227171381" lon="121.08489818013909"><ele>85.0</ele><time>2026-04-10T13:13:04Z</time></trkpt><trkpt lat="14.682228829317614" lon="121.08485319605025"><ele>85.0</ele><time>2026-04-10T13:13:05Z</time></trkpt><trkpt lat="14.682117288654876" lon="121.0848080635832"><ele>85.0</ele><time>2026-04-10T13:13:06Z</time></trkpt><trkpt lat="14.68199739271292" lon="121.084759865649"><ele>85.0</ele><time>2026-04-10T13:13:07Z</time></trkpt><trkpt lat="14.681870857307539" lon="121.08470899866184"><ele>84.33333333333333</ele><time>2026-04-10T13:13:08Z</time></trkpt><trkpt lat="14.681735636458095" lon="121.08465464009367"><ele>83.66666666666667</ele><time>2026-04-10T13:13:09Z</time></trkpt><trkpt lat="14.681598985787575" lon="121.08459667340742"><ele>83.0</ele><time>2026-04-10T13:13:10Z</time></trkpt><trkpt lat="14.681449830151859" lon="121.08453271371422"><ele>83.0</ele><time>2026-04-10T13:13:11Z</time></trkpt><trkpt lat="14.681304267396056" lon="121.08447035601546"><ele>83.0</ele><time>2026-04-10T13:13:12Z</time></trkpt><trkpt lat="14.681161731725979" lon="121.08440931259504"><ele>83.0</ele><time>2026-04-10T13:13:13Z</time></trkpt><trkpt lat="14.681014465577894" lon="121.08434368372103"><ele>82.33333333333334</ele><time>2026-04-10T13:13:14Z</time></trkpt><trkpt lat="14.680846411975473" lon="121.08426914180012"><ele>81.66666666666667</ele><time>2026-04-10T13:13:15.001Z</time></trkpt><trkpt lat="14.6806786474379" lon="121.08419413872892"><ele>81.0</ele><time>2026-04-10T13:13:16.001Z</time></trkpt><trkpt lat="14.680512644583063" lon="121.08411994186125"><ele>80.66666666666667</ele><time>2026-04-10T13:13:17.001Z</time></trkpt><trkpt lat="14.680333392733584" lon="121.08404013796368"><ele>80.33333333333334</ele><time>2026-04-10T13:13:18Z</time></trkpt><trkpt lat="14.68014658118752" lon="121.08395696843954"><ele>80.0</ele><time>2026-04-10T13:13:19Z</time></trkpt><trkpt lat="14.67995525144177" lon="121.0838717873863"><ele>80.0</ele><time>2026-04-10T13:13:20Z</time></trkpt><trkpt lat="14.679762897202393" lon="121.08378615023108"><ele>80.0</ele><time>2026-04-10T13:13:21Z</time></trkpt><trkpt lat="14.679570717002392" lon="121.08370059055063"><ele>80.0</ele><time>2026-04-10T13:13:22Z</time></trkpt><trkpt lat="14.6793700753234" lon="121.0836112637817"><ele>79.66666666666667</ele><time>2026-04-10T13:13:23Z</time></trkpt><trkpt lat="14.679165180437641" lon="121.08352021812487"><ele>79.33333333333333</ele><time>2026-04-10T13:13:24Z</time></trkpt><trkpt lat="14.678961069434983" lon="121.08342889620265"><ele>79.0</ele><time>2026-04-10T13:13:25Z</time></trkpt><trkpt lat="14.678759514830617" lon="121.08333879858348"><ele>77.33333333333333</ele><time>2026-04-10T13:13:26Z</time></trkpt><trkpt lat="14.678567849930134" lon="121.08325313683424"><ele>75.66666666666667</ele><time>2026-04-10T13:13:27Z</time></trkpt><trkpt lat="14.678399866180511" lon="121.08317667774399"><ele>74.0</ele><time>2026-04-10T13:13:28Z</time></trkpt><trkpt lat="14.678199289955828" lon="121.0830810487259"><ele>74.0</ele><time>2026-04-10T13:13:29Z</time></trkpt><trkpt lat="14.678033559052995" lon="121.08300290129607"><ele>74.0</ele><time>2026-04-10T13:13:30Z</time></trkpt><trkpt lat="14.67787787946177" lon="121.08292753100996"><ele>74.0</ele><time>2026-04-10T13:13:31Z</time></trkpt><trkpt lat="14.677723527449398" lon="121.08285278912642"><ele>75.0</ele><time>2026-04-10T13:13:32Z</time></trkpt><trkpt lat="14.677571264161584" lon="121.08278006931533"><ele>76.0</ele><time>2026-04-10T13:13:33Z</time></trkpt><trkpt lat="14.67742760731404" lon="121.08270343242647"><ele>77.0</ele><time>2026-04-10T13:13:34Z</time></trkpt><trkpt lat="14.677271122892133" lon="121.08261935583279"><ele>77.0</ele><time>2026-04-10T13:13:35Z</time></trkpt><trkpt lat="14.677110671966407" lon="121.08253609903608"><ele>77.0</ele><time>2026-04-10T13:13:36Z</time></trkpt><trkpt lat="14.676956239260903" lon="121.08245799404803"><ele>77.0</ele><time>2026-04-10T13:13:37Z</time></trkpt><trkpt lat="14.676794685428128" lon="121.08237628753744"><ele>78.33333333333334</ele><time>2026-04-10T13:13:38Z</time></trkpt><trkpt lat="14.676640556799603" lon="121.08229833635164"><ele>79.66666666666667</ele><time>2026-04-10T13:13:39Z</time></trkpt><trkpt lat="14.676470174563379" lon="121.08220957456444"><ele>81.0</ele><time>2026-04-10T13:13:40Z</time></trkpt><trkpt lat="14.676323281588791" lon="121.08212116509357"><ele>81.0</ele><time>2026-04-10T13:13:41Z</time></trkpt><trkpt lat="14.676173317176723" lon="121.08203011009472"><ele>81.0</ele><time>2026-04-10T13:13:42Z</time></trkpt><trkpt lat="14.676023676745945" lon="121.08193835754416"><ele>81.0</ele><time>2026-04-10T13:13:43Z</time></trkpt><trkpt lat="14.675853101264503" lon="121.08183854844049"><ele>81.0</ele><time>2026-04-10T13:13:44Z</time></trkpt><trkpt lat="14.67568695683718" lon="121.08174431519706"><ele>81.0</ele><time>2026-04-10T13:13:45Z</time></trkpt><trkpt lat="14.675535265778498" lon="121.08164361099125"><ele>81.0</ele><time>2026-04-10T13:13:46Z</time></trkpt><trkpt lat="14.67539131837391" lon="121.08154202211362"><ele>81.0</ele><time>2026-04-10T13:13:47Z</time></trkpt><trkpt lat="14.675262796664265" lon="121.08145762492445"><ele>81.0</ele><time>2026-04-10T13:13:48Z</time></trkpt><trkpt lat="14.675147660980624" lon="121.08138201802733"><ele>81.0</ele><time>2026-04-10T13:13:49Z</time></trkpt><trkpt lat="14.675036205421808" lon="121.08130882769427"><ele>81.0</ele><time>2026-04-10T13:13:50Z</time></trkpt><trkpt lat="14.674928719093524" lon="121.08123694241917"><ele>81.0</ele><time>2026-04-10T13:13:51Z</time></trkpt><trkpt lat="14.674818102061861" lon="121.08116018324087"><ele>81.0</ele><time>2026-04-10T13:13:52Z</time></trkpt><trkpt lat="14.674702469471345" lon="121.08108045826961"><ele>81.0</ele><time>2026-04-10T13:13:53Z</time></trkpt><trkpt lat="14.674582083394425" lon="121.08099714265349"><ele>81.0</ele><time>2026-04-10T13:13:54Z</time></trkpt><trkpt lat="14.674457970662566" lon="121.08090884554846"><ele>81.33333333333333</ele><time>2026-04-10T13:13:55Z</time></trkpt><trkpt lat="14.674332915424603" lon="121.08081738013394"><ele>81.66666666666666</ele><time>2026-04-10T13:13:56Z</time></trkpt><trkpt lat="14.674201276484245" lon="121.0807218931827"><ele>82.0</ele><time>2026-04-10T13:13:57Z</time></trkpt><trkpt lat="14.674067666541326" lon="121.08062339623365"><ele>83.0</ele><time>2026-04-10T13:13:58Z</time></trkpt><trkpt lat="14.673930494372916" lon="121.08052111532557"><ele>84.0</ele><time>2026-04-10T13:13:59Z</time></trkpt><trkpt lat="14.67379423268891" lon="121.08041664799391"><ele>85.0</ele><time>2026-04-10T13:14:00Z</time></trkpt><trkpt lat="14.673652816036359" lon="121.0803071360388"><ele>83.66666666666666</ele><time>2026-04-10T13:14:01Z</time></trkpt><trkpt lat="14.673512423287296" lon="121.08019739588997"><ele>82.33333333333333</ele><time>2026-04-10T13:14:02Z</time></trkpt><trkpt lat="14.673374395143583" lon="121.08008773473682"><ele>81.0</ele><time>2026-04-10T13:14:03Z</time></trkpt><trkpt lat="14.673238252978548" lon="121.07997613915991"><ele>79.66666666666667</ele><time>2026-04-10T13:14:04Z</time></trkpt><trkpt lat="14.673099960304292" lon="121.07986230382801"><ele>78.33333333333334</ele><time>2026-04-10T13:14:05Z</time></trkpt><trkpt lat="14.672962615230482" lon="121.07974924851692"><ele>77.0</ele><time>2026-04-10T13:14:06Z</time></trkpt><trkpt lat="14.672827274732636" lon="121.07963490069098"><ele>77.33333333333334</ele><time>2026-04-10T13:14:07Z</time></trkpt><trkpt lat="14.672695276932078" lon="121.07951963547949"><ele>77.66666666666667</ele><time>2026-04-10T13:14:08Z</time></trkpt><trkpt lat="14.672558456950258" lon="121.07939906227747"><ele>78.0</ele><time>2026-04-10T13:14:09Z</time></trkpt><trkpt lat="14.672422688451038" lon="121.07927939470784"><ele>78.0</ele><time>2026-04-10T13:14:10Z</time></trkpt><trkpt lat="14.672286515731312" lon="121.07915935190908"><ele>78.0</ele><time>2026-04-10T13:14:11Z</time></trkpt><trkpt lat="14.672150751020864" lon="121.07903636795157"><ele>78.0</ele><time>2026-04-10T13:14:12Z</time></trkpt><trkpt lat="14.672013959194551" lon="121.07890676265512"><ele>77.0</ele><time>2026-04-10T13:14:13Z</time></trkpt><trkpt lat="14.671876752405222" lon="121.07877748709205"><ele>76.0</ele><time>2026-04-10T13:14:14Z</time></trkpt><trkpt lat="14.671738914072787" lon="121.07864761648693"><ele>75.0</ele><time>2026-04-10T13:14:15Z</time></trkpt><trkpt lat="14.671599405298403" lon="121.078515188807"><ele>75.0</ele><time>2026-04-10T13:14:16Z</time></trkpt><trkpt lat="14.671468333798472" lon="121.0783845453911"><ele>75.0</ele><time>2026-04-10T13:14:17Z</time></trkpt><trkpt lat="14.671335348459815" lon="121.07824787974255"><ele>75.0</ele><time>2026-04-10T13:14:18Z</time></trkpt><trkpt lat="14.671202964742715" lon="121.07811183237271"><ele>75.33333333333333</ele><time>2026-04-10T13:14:19Z</time></trkpt><trkpt lat="14.671066797300453" lon="121.0779718965745"><ele>75.66666666666666</ele><time>2026-04-10T13:14:20Z</time></trkpt><trkpt lat="14.670933757692335" lon="121.07783517517379"><ele>76.0</ele><time>2026-04-10T13:14:21Z</time></trkpt><trkpt lat="14.670797090657434" lon="121.07769424253591"><ele>76.0</ele><time>2026-04-10T13:14:22Z</time></trkpt><trkpt lat="14.670661658501256" lon="121.0775541987244"><ele>76.0</ele><time>2026-04-10T13:14:23Z</time></trkpt><trkpt lat="14.670528982021377" lon="121.07740654100755"><ele>76.0</ele><time>2026-04-10T13:14:24Z</time></trkpt><trkpt lat="14.670396285061418" lon="121.07725785610425"><ele>75.66666666666666</ele><time>2026-04-10T13:14:25Z</time></trkpt><trkpt lat="14.670259619901586" lon="121.07709662958598"><ele>75.33333333333333</ele><time>2026-04-10T13:14:26Z</time></trkpt><trkpt lat="14.670122733906366" lon="121.0769371049754"><ele>75.0</ele><time>2026-04-10T13:14:27Z</time></trkpt><trkpt lat="14.669981585224235" lon="121.07677280081806"><ele>75.0</ele><time>2026-04-10T13:14:28Z</time></trkpt><trkpt lat="14.6698403675471" lon="121.07660794454891"><ele>75.0</ele><time>2026-04-10T13:14:29Z</time></trkpt><trkpt lat="14.669696245515064" lon="121.07643928331333"><ele>75.0</ele><time>2026-04-10T13:14:30Z</time></trkpt><trkpt lat="14.669555702291946" lon="121.07626854141115"><ele>75.33333333333333</ele><time>2026-04-10T13:14:31Z</time></trkpt><trkpt lat="14.669413653622767" lon="121.07609498413632"><ele>75.66666666666666</ele><time>2026-04-10T13:14:32Z</time></trkpt><trkpt lat="14.66927445213251" lon="121.07592427834932"><ele>76.0</ele><time>2026-04-10T13:14:33Z</time></trkpt><trkpt lat="14.669138143383309" lon="121.07575917690542"><ele>76.0</ele><time>2026-04-10T13:14:34Z</time></trkpt><trkpt lat="14.66901677471517" lon="121.07559353170659"><ele>76.0</ele><time>2026-04-10T13:14:35Z</time></trkpt><trkpt lat="14.668891677182906" lon="121.07542480180071"><ele>76.0</ele><time>2026-04-10T13:14:36Z</time></trkpt><trkpt lat="14.668768031157693" lon="121.07525812556247"><ele>76.0</ele><time>2026-04-10T13:14:37Z</time></trkpt><trkpt lat="14.668639967956889" lon="121.07508549489572"><ele>76.0</ele><time>2026-04-10T13:14:38Z</time></trkpt><trkpt lat="14.668519278879362" lon="121.07491044968626"><ele>76.0</ele><time>2026-04-10T13:14:39Z</time></trkpt><trkpt lat="14.668394124860418" lon="121.07472917847609"><ele>75.0</ele><time>2026-04-10T13:14:40Z</time></trkpt><trkpt lat="14.668272119142511" lon="121.07455246720772"><ele>74.0</ele><time>2026-04-10T13:14:41Z</time></trkpt><trkpt lat="14.668151514825679" lon="121.07437778570653"><ele>73.0</ele><time>2026-04-10T13:14:42Z</time></trkpt><trkpt lat="14.668037014611407" lon="121.07421229786976"><ele>73.33333333333333</ele><time>2026-04-10T13:14:43Z</time></trkpt><trkpt lat="14.667927929546684" lon="121.07405798335354"><ele>73.66666666666667</ele><time>2026-04-10T13:14:44Z</time></trkpt><trkpt lat="14.667823859671046" lon="121.07390650558327"><ele>74.0</ele><time>2026-04-10T13:14:45Z</time></trkpt><trkpt lat="14.667722661191046" lon="121.07375389635769"><ele>72.66666666666667</ele><time>2026-04-10T13:14:46Z</time></trkpt><trkpt lat="14.667620587778151" lon="121.07360135686102"><ele>71.33333333333333</ele><time>2026-04-10T13:14:47Z</time></trkpt><trkpt lat="14.667516046191427" lon="121.07344164307345"><ele>70.0</ele><time>2026-04-10T13:14:48Z</time></trkpt><trkpt lat="14.66740578961435" lon="121.07327422551245"><ele>70.33333333333333</ele><time>2026-04-10T13:14:49Z</time></trkpt><trkpt lat="14.667292452722302" lon="121.07310213061835"><ele>70.66666666666667</ele><time>2026-04-10T13:14:50Z</time></trkpt><trkpt lat="14.667176589301377" lon="121.07292730547918"><ele>71.0</ele><time>2026-04-10T13:14:51Z</time></trkpt><trkpt lat="14.667058047815624" lon="121.07274632470188"><ele>69.66666666666667</ele><time>2026-04-10T13:14:52Z</time></trkpt><trkpt lat="14.666940973359843" lon="121.07256771457327"><ele>68.33333333333333</ele><time>2026-04-10T13:14:53Z</time></trkpt><trkpt lat="14.66682582042133" lon="121.0723920359458"><ele>67.0</ele><time>2026-04-10T13:14:54Z</time></trkpt><trkpt lat="14.666715336943748" lon="121.07222348088268"><ele>65.66666666666666</ele><time>2026-04-10T13:14:55Z</time></trkpt><trkpt lat="14.666612036204038" lon="121.07206738009042"><ele>64.33333333333333</ele><time>2026-04-10T13:14:56Z</time></trkpt><trkpt lat="14.66650598468541" lon="121.07190538859658"><ele>63.0</ele><time>2026-04-10T13:14:57Z</time></trkpt><trkpt lat="14.6664038049106" lon="121.07174872458141"><ele>63.33333333333333</ele><time>2026-04-10T13:14:58Z</time></trkpt><trkpt lat="14.666299860792689" lon="121.07159092813761"><ele>63.666666666666664</ele><time>2026-04-10T13:14:59Z</time></trkpt><trkpt lat="14.66619830558759" lon="121.07143638822336"><ele>64.0</ele><time>2026-04-10T13:15:00Z</time></trkpt><trkpt lat="14.666099161266889" lon="121.07128554470387"><ele>62.33333333333333</ele><time>2026-04-10T13:15:01Z</time></trkpt><trkpt lat="14.665999592597938" lon="121.07113405554571"><ele>60.66666666666667</ele><time>2026-04-10T13:15:02Z</time></trkpt><trkpt lat="14.665903633256928" lon="121.07098805782319"><ele>59.0</ele><time>2026-04-10T13:15:03.001Z</time></trkpt><trkpt lat="14.665808693081972" lon="121.07084361020615"><ele>58.66666666666667</ele><time>2026-04-10T13:15:04.001Z</time></trkpt><trkpt lat="14.665712934866782" lon="121.07069791795013"><ele>58.33333333333333</ele><time>2026-04-10T13:15:05.001Z</time></trkpt><trkpt lat="14.665616605238508" lon="121.07055135631167"><ele>58.0</ele><time>2026-04-10T13:15:06.001Z</time></trkpt><trkpt lat="14.665423720973104" lon="121.07047053292929"><ele>58.0</ele><time>2026-04-10T13:15:07.001Z</time></trkpt><trkpt lat="14.665326232919423" lon="121.07032092288075"><ele>58.0</ele><time>2026-04-10T13:15:08.001Z</time></trkpt><trkpt lat="14.665233959654403" lon="121.07017802978278"><ele>58.0</ele><time>2026-04-10T13:15:09.001Z</time></trkpt><trkpt lat="14.665150751152648" lon="121.07004415978412"><ele>58.5</ele><time>2026-04-10T13:15:10.001Z</time></trkpt><trkpt lat="14.665072387624106" lon="121.06992720681136"><ele>59.0</ele><time>2026-04-10T13:15:11.001Z</time></trkpt><trkpt lat="14.664990352737034" lon="121.0698098308417"><ele>59.5</ele><time>2026-04-10T13:15:12.001Z</time></trkpt><trkpt lat="14.664909955745257" lon="121.06969259985168"><ele>60.0</ele><time>2026-04-10T13:15:13.001Z</time></trkpt><trkpt lat="14.66483503097319" lon="121.06958061485365"><ele>60.0</ele><time>2026-04-10T13:15:14.001Z</time></trkpt><trkpt lat="14.66476479263468" lon="121.06947954844134"><ele>60.0</ele><time>2026-04-10T13:15:15.001Z</time></trkpt><trkpt lat="14.66468541724078" lon="121.06936535373207"><ele>60.0</ele><time>2026-04-10T13:15:16.001Z</time></trkpt><trkpt lat="14.664599027552345" lon="121.06924606256278"><ele>60.0</ele><time>2026-04-10T13:15:17.001Z</time></trkpt><trkpt lat="14.664511587062092" lon="121.06911639450742"><ele>60.66666666666667</ele><time>2026-04-10T13:15:18.001Z</time></trkpt><trkpt lat="14.66442459367594" lon="121.06897943616052"><ele>61.333333333333336</ele><time>2026-04-10T13:15:19.001Z</time></trkpt><trkpt lat="14.664335332128752" lon="121.0688350907714"><ele>62.0</ele><time>2026-04-10T13:15:20.001Z</time></trkpt><trkpt lat="14.664247149792342" lon="121.06868708388082"><ele>62.0</ele><time>2026-04-10T13:15:21.001Z</time></trkpt><trkpt lat="14.664152877543708" lon="121.0685396106494"><ele>62.0</ele><time>2026-04-10T13:15:22.001Z</time></trkpt><trkpt lat="14.664055388772857" lon="121.068386548589"><ele>62.0</ele><time>2026-04-10T13:15:23.001Z</time></trkpt><trkpt lat="14.663954883292021" lon="121.06823344659261"><ele>63.0</ele><time>2026-04-10T13:15:24Z</time></trkpt><trkpt lat="14.6638543504095" lon="121.0680875257664"><ele>64.0</ele><time>2026-04-10T13:15:25Z</time></trkpt><trkpt lat="14.663751614040983" lon="121.06792770659467"><ele>65.0</ele><time>2026-04-10T13:15:26Z</time></trkpt><trkpt lat="14.663648528053695" lon="121.0677676268627"><ele>64.66666666666667</ele><time>2026-04-10T13:15:27Z</time></trkpt><trkpt lat="14.663547305991383" lon="121.06761215790469"><ele>64.33333333333333</ele><time>2026-04-10T13:15:28Z</time></trkpt><trkpt lat="14.663456900590077" lon="121.06745815029261"><ele>64.0</ele><time>2026-04-10T13:15:29Z</time></trkpt><trkpt lat="14.66335105724638" lon="121.06730534533507"><ele>65.66666666666666</ele><time>2026-04-10T13:15:30Z</time></trkpt><trkpt lat="14.663245933747703" lon="121.06715339486"><ele>67.33333333333333</ele><time>2026-04-10T13:15:31Z</time></trkpt><trkpt lat="14.66314483935147" lon="121.06699067982152"><ele>69.0</ele><time>2026-04-10T13:15:32Z</time></trkpt><trkpt lat="14.663032802453706" lon="121.06683430409538"><ele>69.0</ele><time>2026-04-10T13:15:33Z</time></trkpt><trkpt lat="14.662930550658677" lon="121.06664082561615"><ele>69.0</ele><time>2026-04-10T13:15:34Z</time></trkpt><trkpt lat="14.662815133485267" lon="121.06647338609723"><ele>69.0</ele><time>2026-04-10T13:15:35Z</time></trkpt><trkpt lat="14.662702065438763" lon="121.06631401696832"><ele>68.66666666666667</ele><time>2026-04-10T13:15:36Z</time></trkpt><trkpt lat="14.66258111550149" lon="121.06614806412368"><ele>68.33333333333334</ele><time>2026-04-10T13:15:37Z</time></trkpt><trkpt lat="14.662460205697338" lon="121.06597387362098"><ele>68.0</ele><time>2026-04-10T13:15:38Z</time></trkpt><trkpt lat="14.66233668611974" lon="121.06579989167372"><ele>70.0</ele><time>2026-04-10T13:15:39Z</time></trkpt><trkpt lat="14.662216164238183" lon="121.06562648065184"><ele>72.0</ele><time>2026-04-10T13:15:40Z</time></trkpt><trkpt lat="14.662094955911027" lon="121.06544975797011"><ele>74.0</ele><time>2026-04-10T13:15:41Z</time></trkpt><trkpt lat="14.661973492270233" lon="121.06527071472937"><ele>72.0</ele><time>2026-04-10T13:15:42Z</time></trkpt><trkpt lat="14.661854723979939" lon="121.06508813960339"><ele>70.0</ele><time>2026-04-10T13:15:43Z</time></trkpt><trkpt lat="14.661734008181483" lon="121.06490587505027"><ele>68.0</ele><time>2026-04-10T13:15:44Z</time></trkpt><trkpt lat="14.661611478422587" lon="121.06472272546362"><ele>67.33333333333334</ele><time>2026-04-10T13:15:45Z</time></trkpt><trkpt lat="14.661496436670598" lon="121.06455087126172"><ele>66.66666666666667</ele><time>2026-04-10T13:15:46Z</time></trkpt><trkpt lat="14.661389818736971" lon="121.06438366424412"><ele>66.0</ele><time>2026-04-10T13:15:47Z</time></trkpt><trkpt lat="14.6612829461518" lon="121.06422304536693"><ele>65.33333333333333</ele><time>2026-04-10T13:15:48Z</time></trkpt><trkpt lat="14.661184201073977" lon="121.06407636906319"><ele>64.66666666666666</ele><time>2026-04-10T13:15:49Z</time></trkpt><trkpt lat="14.661081135447029" lon="121.06392599303413"><ele>64.0</ele><time>2026-04-10T13:15:50Z</time></trkpt><trkpt lat="14.660988345116529" lon="121.06378191425794"><ele>64.0</ele><time>2026-04-10T13:15:51Z</time></trkpt><trkpt lat="14.660898707558738" lon="121.06364432569542"><ele>64.0</ele><time>2026-04-10T13:15:52Z</time></trkpt><trkpt lat="14.660819050492602" lon="121.06351403268101"><ele>64.0</ele><time>2026-04-10T13:15:53Z</time></trkpt><trkpt lat="14.660740663803601" lon="121.06338794115665"><ele>64.75</ele><time>2026-04-10T13:15:54Z</time></trkpt><trkpt lat="14.660669157768822" lon="121.0632698142793"><ele>65.5</ele><time>2026-04-10T13:15:55Z</time></trkpt><trkpt lat="14.660595239578383" lon="121.06315293533017"><ele>66.25</ele><time>2026-04-10T13:15:56Z</time></trkpt><trkpt lat="14.660528041687497" lon="121.0630379640996"><ele>67.0</ele><time>2026-04-10T13:15:57Z</time></trkpt><trkpt lat="14.660467456407984" lon="121.06292212533177"><ele>67.0</ele><time>2026-04-10T13:15:58Z</time></trkpt><trkpt lat="14.66038997954258" lon="121.0628087621105"><ele>67.0</ele><time>2026-04-10T13:15:59Z</time></trkpt><trkpt lat="14.660307292835585" lon="121.06268588291796"><ele>67.0</ele><time>2026-04-10T13:16:00Z</time></trkpt><trkpt lat="14.660223629133863" lon="121.06256012993627"><ele>67.0</ele><time>2026-04-10T13:16:01Z</time></trkpt><trkpt lat="14.660142325119972" lon="121.06242929162627"><ele>66.33333333333333</ele><time>2026-04-10T13:16:02Z</time></trkpt><trkpt lat="14.660063654711506" lon="121.0623015396468"><ele>65.66666666666667</ele><time>2026-04-10T13:16:03Z</time></trkpt><trkpt lat="14.659970039836447" lon="121.06216836778405"><ele>65.0</ele><time>2026-04-10T13:16:04Z</time></trkpt><trkpt lat="14.659919717290432" lon="121.06200648467996"><ele>65.0</ele><time>2026-04-10T13:16:05Z</time></trkpt><trkpt lat="14.659828541399426" lon="121.0618680495696"><ele>65.0</ele><time>2026-04-10T13:16:06Z</time></trkpt><trkpt lat="14.65973683522302" lon="121.0617288093098"><ele>65.0</ele><time>2026-04-10T13:16:07Z</time></trkpt><trkpt lat="14.659645076839178" lon="121.06158927380842"><ele>65.33333333333334</ele><time>2026-04-10T13:16:08Z</time></trkpt><trkpt lat="14.659553373480582" lon="121.06144959940552"><ele>65.66666666666667</ele><time>2026-04-10T13:16:09Z</time></trkpt><trkpt lat="14.659461829419396" lon="121.06131109671429"><ele>66.0</ele><time>2026-04-10T13:16:10Z</time></trkpt><trkpt lat="14.659372765134975" lon="121.06117530829563"><ele>64.66666666666667</ele><time>2026-04-10T13:16:11Z</time></trkpt><trkpt lat="14.659280946938766" lon="121.06103532123045"><ele>63.333333333333336</ele><time>2026-04-10T13:16:12Z</time></trkpt><trkpt lat="14.659186787115432" lon="121.06089176409225"><ele>62.0</ele><time>2026-04-10T13:16:13Z</time></trkpt><trkpt lat="14.659101522891412" lon="121.06076095463871"><ele>62.0</ele><time>2026-04-10T13:16:14Z</time></trkpt><trkpt lat="14.659025446267558" lon="121.06064614066928"><ele>62.0</ele><time>2026-04-10T13:16:15Z</time></trkpt><trkpt lat="14.65895831812114" lon="121.06054452433244"><ele>62.0</ele><time>2026-04-10T13:16:16Z</time></trkpt><trkpt lat="14.65888800015909" lon="121.06043807935656"><ele>62.0</ele><time>2026-04-10T13:16:17Z</time></trkpt><trkpt lat="14.65881605079354" lon="121.06032828708102"><ele>62.0</ele><time>2026-04-10T13:16:18Z</time></trkpt><trkpt lat="14.65873663699776" lon="121.0602064824748"><ele>62.0</ele><time>2026-04-10T13:16:19Z</time></trkpt><trkpt lat="14.65865440371745" lon="121.06008087318556"><ele>62.0</ele><time>2026-04-10T13:16:20Z</time></trkpt><trkpt lat="14.65856848826865" lon="121.05995004373507"><ele>62.0</ele><time>2026-04-10T13:16:21Z</time></trkpt><trkpt lat="14.658480262302994" lon="121.05981569590345"><ele>61.66666666666667</ele><time>2026-04-10T13:16:22Z</time></trkpt><trkpt lat="14.658388645076645" lon="121.05967618396166"><ele>61.33333333333333</ele><time>2026-04-10T13:16:23Z</time></trkpt><trkpt lat="14.658294447027382" lon="121.05953548882742"><ele>61.0</ele><time>2026-04-10T13:16:24Z</time></trkpt><trkpt lat="14.658198808181153" lon="121.05938981413577"><ele>61.0</ele><time>2026-04-10T13:16:25Z</time></trkpt><trkpt lat="14.658102729582707" lon="121.05924346962438"><ele>61.0</ele><time>2026-04-10T13:16:26Z</time></trkpt><trkpt lat="14.658006473709495" lon="121.05909685509066"><ele>61.0</ele><time>2026-04-10T13:16:27Z</time></trkpt><trkpt lat="14.657910250192248" lon="121.0589499916963"><ele>61.666666666666664</ele><time>2026-04-10T13:16:28Z</time></trkpt><trkpt lat="14.657814140069062" lon="121.05880617066127"><ele>62.33333333333333</ele><time>2026-04-10T13:16:29Z</time></trkpt><trkpt lat="14.657722247619835" lon="121.05866982391767"><ele>63.0</ele><time>2026-04-10T13:16:30Z</time></trkpt><trkpt lat="14.657634163344165" lon="121.05853912760622"><ele>61.75</ele><time>2026-04-10T13:16:31Z</time></trkpt><trkpt lat="14.657535333869342" lon="121.0584243388363"><ele>60.5</ele><time>2026-04-10T13:16:32Z</time></trkpt><trkpt lat="14.657449682067375" lon="121.0582979770848"><ele>59.25</ele><time>2026-04-10T13:16:33Z</time></trkpt><trkpt lat="14.657366227562042" lon="121.05817122118839"><ele>58.0</ele><time>2026-04-10T13:16:34Z</time></trkpt><trkpt lat="14.657284851936485" lon="121.05804443696258"><ele>58.0</ele><time>2026-04-10T13:16:35Z</time></trkpt><trkpt lat="14.657200236474928" lon="121.0579163416033"><ele>58.0</ele><time>2026-04-10T13:16:36Z</time></trkpt><trkpt lat="14.657116004573513" lon="121.05778837671221"><ele>58.0</ele><time>2026-04-10T13:16:37Z</time></trkpt><trkpt lat="14.657033174339492" lon="121.05766142020894"><ele>58.0</ele><time>2026-04-10T13:16:38Z</time></trkpt><trkpt lat="14.656950799535933" lon="121.05753756024808"><ele>57.75</ele><time>2026-04-10T13:16:39Z</time></trkpt><trkpt lat="14.65687945520976" lon="121.05742974662304"><ele>57.5</ele><time>2026-04-10T13:16:40Z</time></trkpt><trkpt lat="14.656815425734056" lon="121.05733197746942"><ele>57.25</ele><time>2026-04-10T13:16:41Z</time></trkpt><trkpt lat="14.656778188607754" lon="121.05720796071905"><ele>57.0</ele><time>2026-04-10T13:16:42Z</time></trkpt><trkpt lat="14.656706884257774" lon="121.05709797393307"><ele>57.0</ele><time>2026-04-10T13:16:43Z</time></trkpt><trkpt lat="14.656630744868167" lon="121.0569805291104"><ele>57.0</ele><time>2026-04-10T13:16:44Z</time></trkpt><trkpt lat="14.656557107731679" lon="121.0568669440108"><ele>57.0</ele><time>2026-04-10T13:16:45Z</time></trkpt><trkpt lat="14.65648050097015" lon="121.056748778269"><ele>57.0</ele><time>2026-04-10T13:16:46Z</time></trkpt><trkpt lat="14.656400584110715" lon="121.05662550670988"><ele>57.0</ele><time>2026-04-10T13:16:47Z</time></trkpt><trkpt lat="14.656321572572597" lon="121.05650362347241"><ele>57.0</ele><time>2026-04-10T13:16:48Z</time></trkpt><trkpt lat="14.656240202209593" lon="121.05637793972672"><ele>57.0</ele><time>2026-04-10T13:16:49Z</time></trkpt><trkpt lat="14.65615921357398" lon="121.05625046213613"><ele>57.0</ele><time>2026-04-10T13:16:50Z</time></trkpt><trkpt lat="14.656081074083307" lon="121.05612585359395"><ele>57.0</ele><time>2026-04-10T13:16:51Z</time></trkpt><trkpt lat="14.65600732027302" lon="121.05600818855625"><ele>57.0</ele><time>2026-04-10T13:16:52Z</time></trkpt><trkpt lat="14.655930954370834" lon="121.05588635351383"><ele>57.0</ele><time>2026-04-10T13:16:53.001Z</time></trkpt><trkpt lat="14.655852740523617" lon="121.05576153868621"><ele>57.0</ele><time>2026-04-10T13:16:54.001Z</time></trkpt><trkpt lat="14.655774775625781" lon="121.05563712113498"><ele>57.0</ele><time>2026-04-10T13:16:55.001Z</time></trkpt><trkpt lat="14.655702510840744" lon="121.05552153699989"><ele>57.0</ele><time>2026-04-10T13:16:56.001Z</time></trkpt><trkpt lat="14.655632009672384" lon="121.05540743382423"><ele>57.0</ele><time>2026-04-10T13:16:57.001Z</time></trkpt><trkpt lat="14.655557159862948" lon="121.05528858889315"><ele>57.0</ele><time>2026-04-10T13:16:58.001Z</time></trkpt><trkpt lat="14.655478303450707" lon="121.0551626815666"><ele>57.0</ele><time>2026-04-10T13:16:59.001Z</time></trkpt><trkpt lat="14.655395090411863" lon="121.055029679396"><ele>57.0</ele><time>2026-04-10T13:17:00.001Z</time></trkpt><trkpt lat="14.655309004587354" lon="121.05489208554954"><ele>57.0</ele><time>2026-04-10T13:17:01.001Z</time></trkpt><trkpt lat="14.655217453648305" lon="121.05475110580491"><ele>55.33333333333333</ele><time>2026-04-10T13:17:02.001Z</time></trkpt><trkpt lat="14.655124905923401" lon="121.0546090618709"><ele>53.666666666666664</ele><time>2026-04-10T13:17:03.001Z</time></trkpt><trkpt lat="14.655036342727776" lon="121.05447313346436"><ele>52.0</ele><time>2026-04-10T13:17:04.001Z</time></trkpt><trkpt lat="14.654955544596394" lon="121.05434912301804"><ele>52.0</ele><time>2026-04-10T13:17:05.001Z</time></trkpt><trkpt lat="14.654877266476651" lon="121.05422898031989"><ele>52.0</ele><time>2026-04-10T13:17:06.001Z</time></trkpt><trkpt lat="14.654802461375422" lon="121.05411768077036"><ele>52.0</ele><time>2026-04-10T13:17:07.001Z</time></trkpt><trkpt lat="14.654720490213057" lon="121.05401503254224"><ele>52.0</ele><time>2026-04-10T13:17:08.001Z</time></trkpt><trkpt lat="14.6546400043782" lon="121.05391030691479"><ele>51.5</ele><time>2026-04-10T13:17:09.001Z</time></trkpt><trkpt lat="14.654556774947595" lon="121.05380669261213"><ele>51.0</ele><time>2026-04-10T13:17:10.001Z</time></trkpt><trkpt lat="14.654477281142265" lon="121.05370456131158"><ele>50.5</ele><time>2026-04-10T13:17:11.001Z</time></trkpt><trkpt lat="14.654393116907746" lon="121.05359642957305"><ele>50.0</ele><time>2026-04-10T13:17:12.001Z</time></trkpt><trkpt lat="14.654313333348613" lon="121.05349392599966"><ele>49.75</ele><time>2026-04-10T13:17:13.001Z</time></trkpt><trkpt lat="14.65423246863494" lon="121.05338558723392"><ele>49.5</ele><time>2026-04-10T13:17:14.001Z</time></trkpt><trkpt lat="14.654149943009367" lon="121.0532745991196"><ele>49.25</ele><time>2026-04-10T13:17:15.001Z</time></trkpt><trkpt lat="14.654066042192204" lon="121.05316175832901"><ele>49.0</ele><time>2026-04-10T13:17:16.001Z</time></trkpt><trkpt lat="14.653980942836283" lon="121.05304730558626"><ele>48.5</ele><time>2026-04-10T13:17:17.001Z</time></trkpt><trkpt lat="14.653892421583246" lon="121.05293054664513"><ele>48.0</ele><time>2026-04-10T13:17:18.001Z</time></trkpt><trkpt lat="14.653805839030877" lon="121.05281677280756"><ele>47.5</ele><time>2026-04-10T13:17:19.001Z</time></trkpt><trkpt lat="14.653711987723522" lon="121.05269335104036"><ele>47.0</ele><time>2026-04-10T13:17:20.001Z</time></trkpt><trkpt lat="14.653632861296023" lon="121.05257069911707"><ele>49.75</ele><time>2026-04-10T13:17:21.001Z</time></trkpt><trkpt lat="14.653552087656582" lon="121.05244360859015"><ele>52.5</ele><time>2026-04-10T13:17:22.001Z</time></trkpt><trkpt lat="14.653472988272911" lon="121.05231904697465"><ele>55.25</ele><time>2026-04-10T13:17:23.001Z</time></trkpt><trkpt lat="14.65339944291029" lon="121.05220557309036"><ele>58.0</ele><time>2026-04-10T13:17:24.001Z</time></trkpt><trkpt lat="14.65333086178732" lon="121.05210125198919"><ele>58.0</ele><time>2026-04-10T13:17:25.001Z</time></trkpt><trkpt lat="14.653266176062731" lon="121.05200285631255"><ele>58.0</ele><time>2026-04-10T13:17:26.001Z</time></trkpt><trkpt lat="14.653211613098701" lon="121.05191526572183"><ele>58.0</ele><time>2026-04-10T13:17:27.001Z</time></trkpt><trkpt lat="14.653161179592413" lon="121.05183337831363"><ele>58.0</ele><time>2026-04-10T13:17:28.001Z</time></trkpt><trkpt lat="14.653133134872618" lon="121.05175216443575"><ele>58.0</ele><time>2026-04-10T13:17:29.001Z</time></trkpt><trkpt lat="14.653097140564377" lon="121.05167953213059"><ele>57.71428571428572</ele><time>2026-04-10T13:17:30Z</time></trkpt><trkpt lat="14.653086698049563" lon="121.05160574641037"><ele>57.42857142857143</ele><time>2026-04-10T13:17:31Z</time></trkpt><trkpt lat="14.6530791212884" lon="121.05152617293199"><ele>57.142857142857146</ele><time>2026-04-10T13:17:32Z</time></trkpt><trkpt lat="14.653084133659569" lon="121.05145259866964"><ele>56.85714285714286</ele><time>2026-04-10T13:17:33Z</time></trkpt><trkpt lat="14.653091217491765" lon="121.05138078756772"><ele>56.57142857142857</ele><time>2026-04-10T13:17:34Z</time></trkpt><trkpt lat="14.653107660878183" lon="121.05131595420893"><ele>56.285714285714285</ele><time>2026-04-10T13:17:35Z</time></trkpt><trkpt lat="14.653136078685275" lon="121.05125151092378"><ele>56.0</ele><time>2026-04-10T13:17:36Z</time></trkpt><trkpt lat="14.653170420677144" lon="121.05118873959577"><ele>56.00000000000001</ele><time>2026-04-10T13:17:37Z</time></trkpt><trkpt lat="14.653208461502253" lon="121.05113174252547"><ele>56.0</ele><time>2026-04-10T13:17:38Z</time></trkpt><trkpt lat="14.653257852552082" lon="121.05107238215277"><ele>56.0</ele><time>2026-04-10T13:17:39Z</time></trkpt><trkpt lat="14.653304953672384" lon="121.05102348962673"><ele>56.0</ele><time>2026-04-10T13:17:40Z</time></trkpt><trkpt lat="14.653351201482408" lon="121.05096973871015"><ele>56.00000000000001</ele><time>2026-04-10T13:17:41Z</time></trkpt><trkpt lat="14.65340483308536" lon="121.0509060981454"><ele>56.0</ele><time>2026-04-10T13:17:42Z</time></trkpt><trkpt lat="14.653468657368968" lon="121.05084102878271"><ele>55.0</ele><time>2026-04-10T13:17:43Z</time></trkpt><trkpt lat="14.653538474494608" lon="121.05076456224222"><ele>53.99999999999999</ele><time>2026-04-10T13:17:44Z</time></trkpt><trkpt lat="14.653599685932098" lon="121.05068466301694"><ele>53.0</ele><time>2026-04-10T13:17:45Z</time></trkpt><trkpt lat="14.653666120743988" lon="121.05059466263506"><ele>52.0</ele><time>2026-04-10T13:17:46Z</time></trkpt><trkpt lat="14.65373611249323" lon="121.05051244561054"><ele>51.0</ele><time>2026-04-10T13:17:47Z</time></trkpt><trkpt lat="14.653806181653122" lon="121.0504159105026"><ele>51.0</ele><time>2026-04-10T13:17:48Z</time></trkpt><trkpt lat="14.653869385308527" lon="121.05032134345441"><ele>51.0</ele><time>2026-04-10T13:17:49Z</time></trkpt><trkpt lat="14.653937669511077" lon="121.05021751941393"><ele>51.0</ele><time>2026-04-10T13:17:50Z</time></trkpt><trkpt lat="14.653990592471626" lon="121.05013578006488"><ele>51.0</ele><time>2026-04-10T13:17:51Z</time></trkpt><trkpt lat="14.654033328347273" lon="121.05003929535941"><ele>51.0</ele><time>2026-04-10T13:17:52Z</time></trkpt><trkpt lat="14.654081009932469" lon="121.04993874817747"><ele>50.8</ele><time>2026-04-10T13:17:53Z</time></trkpt><trkpt lat="14.654131967297259" lon="121.04983227688507"><ele>50.599999999999994</ele><time>2026-04-10T13:17:54Z</time></trkpt><trkpt lat="14.654176045026622" lon="121.04972679719933"><ele>50.4</ele><time>2026-04-10T13:17:55Z</time></trkpt><trkpt lat="14.654221187678457" lon="121.04961854922195"><ele>50.2</ele><time>2026-04-10T13:17:56Z</time></trkpt><trkpt lat="14.654258087928133" lon="121.04952174250037"><ele>50.0</ele><time>2026-04-10T13:17:57Z</time></trkpt><trkpt lat="14.65429757662399" lon="121.04941708466872"><ele>50.0</ele><time>2026-04-10T13:17:58Z</time></trkpt><trkpt lat="14.654320553608185" lon="121.04931934728421"><ele>50.0</ele><time>2026-04-10T13:17:59Z</time></trkpt><trkpt lat="14.654341840471924" lon="121.04921238358888"><ele>50.0</ele><time>2026-04-10T13:18:00Z</time></trkpt><trkpt lat="14.654355044809174" lon="121.04910875635655"><ele>50.0</ele><time>2026-04-10T13:18:01Z</time></trkpt><trkpt lat="14.654364122438356" lon="121.04902247863555"><ele>50.0</ele><time>2026-04-10T13:18:02Z</time></trkpt><trkpt lat="14.654367352865954" lon="121.04894372955438"><ele>50.833333333333336</ele><time>2026-04-10T13:18:03Z</time></trkpt><trkpt lat="14.654370840113588" lon="121.04885895896132"><ele>51.66666666666667</ele><time>2026-04-10T13:18:04Z</time></trkpt><trkpt lat="14.654368665975577" lon="121.04878137404485"><ele>52.5</ele><time>2026-04-10T13:18:05Z</time></trkpt><trkpt lat="14.654365773271088" lon="121.04868093318474"><ele>53.33333333333333</ele><time>2026-04-10T13:18:06Z</time></trkpt><trkpt lat="14.654359061930181" lon="121.0485858270018"><ele>54.166666666666664</ele><time>2026-04-10T13:18:07Z</time></trkpt><trkpt lat="14.654346803963321" lon="121.04848677548456"><ele>55.0</ele><time>2026-04-10T13:18:08Z</time></trkpt><trkpt lat="14.654335962680344" lon="121.04838045476676"><ele>54.8</ele><time>2026-04-10T13:18:09Z</time></trkpt><trkpt lat="14.654318506249727" lon="121.04827663843135"><ele>54.6</ele><time>2026-04-10T13:18:10Z</time></trkpt><trkpt lat="14.654295468019184" lon="121.04816647663846"><ele>54.400000000000006</ele><time>2026-04-10T13:18:11Z</time></trkpt><trkpt lat="14.654251695661301" lon="121.04806104391078"><ele>54.2</ele><time>2026-04-10T13:18:12Z</time></trkpt><trkpt lat="14.654224877833705" lon="121.04793894785192"><ele>54.0</ele><time>2026-04-10T13:18:13Z</time></trkpt><trkpt lat="14.654184039567726" lon="121.04782884490051"><ele>54.0</ele><time>2026-04-10T13:18:14Z</time></trkpt><trkpt lat="14.6541361300987" lon="121.04772243740148"><ele>54.0</ele><time>2026-04-10T13:18:15Z</time></trkpt><trkpt lat="14.654079685664739" lon="121.04761563194319"><ele>54.0</ele><time>2026-04-10T13:18:16Z</time></trkpt><trkpt lat="14.654019546549165" lon="121.0475151473948"><ele>54.0</ele><time>2026-04-10T13:18:17Z</time></trkpt><trkpt lat="14.65395049004748" lon="121.04741836882818"><ele>53.75</ele><time>2026-04-10T13:18:18Z</time></trkpt><trkpt lat="14.653873429737896" lon="121.0473239583536"><ele>53.5</ele><time>2026-04-10T13:18:19Z</time></trkpt><trkpt lat="14.65379339127301" lon="121.04723709660847"><ele>53.25</ele><time>2026-04-10T13:18:20Z</time></trkpt><trkpt lat="14.653698031511524" lon="121.04715023459813"><ele>53.0</ele><time>2026-04-10T13:18:21Z</time></trkpt><trkpt lat="14.653608004429682" lon="121.04707444104758"><ele>53.0</ele><time>2026-04-10T13:18:22Z</time></trkpt><trkpt lat="14.65351520269667" lon="121.04699938765789"><ele>53.0</ele><time>2026-04-10T13:18:23Z</time></trkpt><trkpt lat="14.653430171766994" lon="121.0469326729494"><ele>53.0</ele><time>2026-04-10T13:18:24Z</time></trkpt><trkpt lat="14.653341185005646" lon="121.04686743316626"><ele>53.0</ele><time>2026-04-10T13:18:25Z</time></trkpt><trkpt lat="14.653256185425633" lon="121.04681061617158"><ele>53.0</ele><time>2026-04-10T13:18:26Z</time></trkpt><trkpt lat="14.653156196990203" lon="121.04675405766511"><ele>53.0</ele><time>2026-04-10T13:18:27Z</time></trkpt><trkpt lat="14.653057178928089" lon="121.04670120215413"><ele>53.0</ele><time>2026-04-10T13:18:28Z</time></trkpt><trkpt lat="14.652942225318208" lon="121.04665736735129"><ele>53.0</ele><time>2026-04-10T13:18:29Z</time></trkpt><trkpt lat="14.652832343186159" lon="121.04661297786069"><ele>53.0</ele><time>2026-04-10T13:18:30Z</time></trkpt><trkpt lat="14.652734607994127" lon="121.0465678585686"><ele>52.8</ele><time>2026-04-10T13:18:31Z</time></trkpt><trkpt lat="14.652590712225603" lon="121.04657434214778"><ele>52.599999999999994</ele><time>2026-04-10T13:18:32Z</time></trkpt><trkpt lat="14.652492538063218" lon="121.04656084505548"><ele>52.400000000000006</ele><time>2026-04-10T13:18:33Z</time></trkpt><trkpt lat="14.652397143155088" lon="121.04655066881114"><ele>52.2</ele><time>2026-04-10T13:18:34Z</time></trkpt><trkpt lat="14.65230844039108" lon="121.04654497425373"><ele>52.0</ele><time>2026-04-10T13:18:35Z</time></trkpt><trkpt lat="14.6522163039348" lon="121.0465420674606"><ele>52.0</ele><time>2026-04-10T13:18:36Z</time></trkpt><trkpt lat="14.652125963421957" lon="121.04654102857808"><ele>52.0</ele><time>2026-04-10T13:18:37Z</time></trkpt><trkpt lat="14.652028699085832" lon="121.04654317262116"><ele>52.0</ele><time>2026-04-10T13:18:38Z</time></trkpt><trkpt lat="14.651915418220767" lon="121.04654656172661"><ele>52.0</ele><time>2026-04-10T13:18:39Z</time></trkpt><trkpt lat="14.651803791650213" lon="121.04655353454518"><ele>52.0</ele><time>2026-04-10T13:18:40Z</time></trkpt><trkpt lat="14.65168620525982" lon="121.04656397378538"><ele>52.0</ele><time>2026-04-10T13:18:41Z</time></trkpt><trkpt lat="14.651570058875993" lon="121.04657941335142"><ele>52.0</ele><time>2026-04-10T13:18:42Z</time></trkpt><trkpt lat="14.651458777161812" lon="121.04659697170702"><ele>52.0</ele><time>2026-04-10T13:18:43Z</time></trkpt><trkpt lat="14.651357676683284" lon="121.04661644347743"><ele>52.0</ele><time>2026-04-10T13:18:44Z</time></trkpt><trkpt lat="14.651255838485378" lon="121.04664332080411"><ele>52.0</ele><time>2026-04-10T13:18:45Z</time></trkpt><trkpt lat="14.65116992414725" lon="121.04666683175563"><ele>51.166666666666664</ele><time>2026-04-10T13:18:46Z</time></trkpt><trkpt lat="14.651108784828436" lon="121.04668564108874"><ele>50.33333333333333</ele><time>2026-04-10T13:18:47Z</time></trkpt><trkpt lat="14.651033876175592" lon="121.04672589060162"><ele>49.5</ele><time>2026-04-10T13:18:48Z</time></trkpt><trkpt lat="14.650958039147884" lon="121.04674764227116"><ele>48.666666666666664</ele><time>2026-04-10T13:18:49Z</time></trkpt><trkpt lat="14.65086931887824" lon="121.04676972574461"><ele>47.83333333333333</ele><time>2026-04-10T13:18:50Z</time></trkpt><trkpt lat="14.650779462457116" lon="121.0467861067294"><ele>47.0</ele><time>2026-04-10T13:18:51Z</time></trkpt><trkpt lat="14.650694205467936" lon="121.0467918534616"><ele>47.0</ele><time>2026-04-10T13:18:52Z</time></trkpt><trkpt lat="14.650609220442819" lon="121.0467993714176"><ele>47.0</ele><time>2026-04-10T13:18:53Z</time></trkpt><trkpt lat="14.650522624857794" lon="121.04683445599264"><ele>47.0</ele><time>2026-04-10T13:18:54Z</time></trkpt><trkpt lat="14.650436548665045" lon="121.04685224064353"><ele>47.0</ele><time>2026-04-10T13:18:55Z</time></trkpt><trkpt lat="14.650355953266546" lon="121.04685757069946"><ele>47.0</ele><time>2026-04-10T13:18:56Z</time></trkpt><trkpt lat="14.650276899819458" lon="121.04684853630619"><ele>47.0</ele><time>2026-04-10T13:18:57Z</time></trkpt><trkpt lat="14.650202132983258" lon="121.046830825948"><ele>46.8</ele><time>2026-04-10T13:18:58Z</time></trkpt><trkpt lat="14.650120272254087" lon="121.04680160799761"><ele>46.6</ele><time>2026-04-10T13:18:59Z</time></trkpt><trkpt lat="14.650035241728984" lon="121.04675954137288"><ele>46.4</ele><time>2026-04-10T13:19:00Z</time></trkpt><trkpt lat="14.649971172441285" lon="121.04666650274304"><ele>46.199999999999996</ele><time>2026-04-10T13:19:01Z</time></trkpt><trkpt lat="14.649885297135702" lon="121.04660667113377"><ele>46.0</ele><time>2026-04-10T13:19:02.001Z</time></trkpt><trkpt lat="14.649799813353017" lon="121.04654001682582"><ele>47.0</ele><time>2026-04-10T13:19:03.001Z</time></trkpt><trkpt lat="14.649710356025802" lon="121.04647272363259"><ele>48.0</ele><time>2026-04-10T13:19:04.001Z</time></trkpt><trkpt lat="14.64963442950777" lon="121.04636544854145"><ele>49.0</ele><time>2026-04-10T13:19:05.001Z</time></trkpt><trkpt lat="14.649566659034615" lon="121.04625312750419"><ele>50.0</ele><time>2026-04-10T13:19:06.001Z</time></trkpt><trkpt lat="14.649490795994431" lon="121.04613656449676"><ele>50.0</ele><time>2026-04-10T13:19:07.001Z</time></trkpt><trkpt lat="14.649472232478853" lon="121.04597440662529"><ele>50.0</ele><time>2026-04-10T13:19:08.001Z</time></trkpt><trkpt lat="14.649392618373863" lon="121.04584471699553"><ele>50.0</ele><time>2026-04-10T13:19:09.001Z</time></trkpt><trkpt lat="14.649308810644278" lon="121.04570814792623"><ele>48.333333333333336</ele><time>2026-04-10T13:19:10.001Z</time></trkpt><trkpt lat="14.649166445606639" lon="121.0456173651265"><ele>46.66666666666667</ele><time>2026-04-10T13:19:11.001Z</time></trkpt><trkpt lat="14.649079302852284" lon="121.04548256759293"><ele>45.0</ele><time>2026-04-10T13:19:12.001Z</time></trkpt><trkpt lat="14.648993841960365" lon="121.04534373064787"><ele>45.0</ele><time>2026-04-10T13:19:13.001Z</time></trkpt><trkpt lat="14.648912719543317" lon="121.04520175394686"><ele>45.0</ele><time>2026-04-10T13:19:14.001Z</time></trkpt><trkpt lat="14.648888011143823" lon="121.04501876962267"><ele>45.0</ele><time>2026-04-10T13:19:15.001Z</time></trkpt><trkpt lat="14.648798131595505" lon="121.04487153509577"><ele>45.666666666666664</ele><time>2026-04-10T13:19:16.001Z</time></trkpt><trkpt lat="14.648707731671147" lon="121.04472373470455"><ele>46.33333333333333</ele><time>2026-04-10T13:19:17.001Z</time></trkpt><trkpt lat="14.648613582353056" lon="121.04456993983769"><ele>47.0</ele><time>2026-04-10T13:19:18.001Z</time></trkpt><trkpt lat="14.648516551262258" lon="121.0444113454617"><ele>47.0</ele><time>2026-04-10T13:19:19.001Z</time></trkpt><trkpt lat="14.648416657901091" lon="121.04424886327027"><ele>47.0</ele><time>2026-04-10T13:19:20.001Z</time></trkpt><trkpt lat="14.648316950460702" lon="121.04408580417186"><ele>47.0</ele><time>2026-04-10T13:19:21.001Z</time></trkpt><trkpt lat="14.648215281701269" lon="121.04391906740841"><ele>47.0</ele><time>2026-04-10T13:19:22.001Z</time></trkpt><trkpt lat="14.648114039381007" lon="121.04375303000448"><ele>47.0</ele><time>2026-04-10T13:19:23.001Z</time></trkpt><trkpt lat="14.648011954900637" lon="121.04358579648913"><ele>47.0</ele><time>2026-04-10T13:19:24.001Z</time></trkpt><trkpt lat="14.647907018719696" lon="121.04341410303107"><ele>47.0</ele><time>2026-04-10T13:19:25.001Z</time></trkpt><trkpt lat="14.647801327750981" lon="121.04324117462522"><ele>47.0</ele><time>2026-04-10T13:19:26.001Z</time></trkpt><trkpt lat="14.647693055344904" lon="121.04306402253984"><ele>47.0</ele><time>2026-04-10T13:19:27.001Z</time></trkpt><trkpt lat="14.647585201538087" lon="121.0428878696342"><ele>47.0</ele><time>2026-04-10T13:19:28.001Z</time></trkpt><trkpt lat="14.647480907773465" lon="121.04271675573841"><ele>47.0</ele><time>2026-04-10T13:19:29.001Z</time></trkpt><trkpt lat="14.647375833439465" lon="121.04254254435837"><ele>47.0</ele><time>2026-04-10T13:19:30.001Z</time></trkpt><trkpt lat="14.647266132574295" lon="121.04236099585201"><ele>47.0</ele><time>2026-04-10T13:19:31.001Z</time></trkpt><trkpt lat="14.64706200819209" lon="121.04224142130465"><ele>47.0</ele><time>2026-04-10T13:19:32.001Z</time></trkpt><trkpt lat="14.646952423368274" lon="121.04205511972019"><ele>47.0</ele><time>2026-04-10T13:19:33.001Z</time></trkpt><trkpt lat="14.64684158142269" lon="121.04186678710293"><ele>46.0</ele><time>2026-04-10T13:19:34.001Z</time></trkpt><trkpt lat="14.646730443061537" lon="121.04168395006678"><ele>45.0</ele><time>2026-04-10T13:19:35.001Z</time></trkpt><trkpt lat="14.646612829103889" lon="121.04149298576196"><ele>44.0</ele><time>2026-04-10T13:19:36Z</time></trkpt><trkpt lat="14.646495119165026" lon="121.04129379784318"><ele>44.0</ele><time>2026-04-10T13:19:37Z</time></trkpt><trkpt lat="14.646379479085288" lon="121.04109290559254"><ele>44.0</ele><time>2026-04-10T13:19:38Z</time></trkpt><trkpt lat="14.646255755233819" lon="121.04090157607894"><ele>44.0</ele><time>2026-04-10T13:19:39Z</time></trkpt><trkpt lat="14.64611740273797" lon="121.04069170852462"><ele>45.0</ele><time>2026-04-10T13:19:40Z</time></trkpt><trkpt lat="14.645966667781877" lon="121.04048932369014"><ele>46.0</ele><time>2026-04-10T13:19:41Z</time></trkpt><trkpt lat="14.645868353508222" lon="121.04030108970004"><ele>46.0</ele><time>2026-04-10T13:19:42Z</time></trkpt><trkpt lat="14.645761914194063" lon="121.04010115818662"><ele>46.0</ele><time>2026-04-10T13:19:43Z</time></trkpt><trkpt lat="14.64564357863483" lon="121.0399091975858"><ele>46.0</ele><time>2026-04-10T13:19:44Z</time></trkpt><trkpt lat="14.64552540514895" lon="121.03970692130177"><ele>46.0</ele><time>2026-04-10T13:19:45Z</time></trkpt><trkpt lat="14.64539990757896" lon="121.03949908279583"><ele>46.0</ele><time>2026-04-10T13:19:46Z</time></trkpt><trkpt lat="14.64527901062392" lon="121.03930419031335"><ele>44.0</ele><time>2026-04-10T13:19:47Z</time></trkpt><trkpt lat="14.645160454475354" lon="121.03910293026682"><ele>42.0</ele><time>2026-04-10T13:19:48Z</time></trkpt><trkpt lat="14.645033476383324" lon="121.03890956738795"><ele>42.0</ele><time>2026-04-10T13:19:49Z</time></trkpt><trkpt lat="14.6449206066456" lon="121.03870046316854"><ele>42.0</ele><time>2026-04-10T13:19:50Z</time></trkpt><trkpt lat="14.64479776831383" lon="121.03850214517246"><ele>42.0</ele><time>2026-04-10T13:19:51Z</time></trkpt><trkpt lat="14.644666668110126" lon="121.03831568326582"><ele>42.0</ele><time>2026-04-10T13:19:52Z</time></trkpt><trkpt lat="14.644554346659135" lon="121.03810893484871"><ele>40.0</ele><time>2026-04-10T13:19:53Z</time></trkpt><trkpt lat="14.644425336481897" lon="121.03791083368006"><ele>38.0</ele><time>2026-04-10T13:19:54Z</time></trkpt><trkpt lat="14.64429994338907" lon="121.03771112950893"><ele>38.0</ele><time>2026-04-10T13:19:55Z</time></trkpt><trkpt lat="14.644174458197108" lon="121.03751447114772"><ele>38.0</ele><time>2026-04-10T13:19:56Z</time></trkpt><trkpt lat="14.64404927157863" lon="121.03731536221152"><ele>37.5</ele><time>2026-04-10T13:19:57Z</time></trkpt><trkpt lat="14.64394115892635" lon="121.03710565501694"><ele>37.0</ele><time>2026-04-10T13:19:58Z</time></trkpt><trkpt lat="14.643812805861128" lon="121.03689660918512"><ele>37.0</ele><time>2026-04-10T13:19:59Z</time></trkpt><trkpt lat="14.643688441476757" lon="121.03669265887045"><ele>37.0</ele><time>2026-04-10T13:20:00Z</time></trkpt><trkpt lat="14.64356088714564" lon="121.03651306289478"><ele>37.0</ele><time>2026-04-10T13:20:01Z</time></trkpt><trkpt lat="14.643449527552733" lon="121.03632170290714"><ele>37.333333333333336</ele><time>2026-04-10T13:20:02Z</time></trkpt><trkpt lat="14.643346040670028" lon="121.03612917832868"><ele>37.666666666666664</ele><time>2026-04-10T13:20:03Z</time></trkpt><trkpt lat="14.643221563907026" lon="121.03594775577211"><ele>38.0</ele><time>2026-04-10T13:20:04Z</time></trkpt><trkpt lat="14.6431143767066" lon="121.03574852622224"><ele>38.0</ele><time>2026-04-10T13:20:05Z</time></trkpt><trkpt lat="14.642998775546616" lon="121.0355578873512"><ele>38.0</ele><time>2026-04-10T13:20:06Z</time></trkpt><trkpt lat="14.642880895840014" lon="121.03536341408841"><ele>38.0</ele><time>2026-04-10T13:20:07Z</time></trkpt><trkpt lat="14.642764685751255" lon="121.03517278961385"><ele>38.0</ele><time>2026-04-10T13:20:08Z</time></trkpt><trkpt lat="14.64265220006765" lon="121.03498861470976"><ele>38.0</ele><time>2026-04-10T13:20:09Z</time></trkpt><trkpt lat="14.642557746771944" lon="121.03483356444676"><ele>38.0</ele><time>2026-04-10T13:20:10Z</time></trkpt><trkpt lat="14.642477191116395" lon="121.03470132993809"><ele>37.0</ele><time>2026-04-10T13:20:11Z</time></trkpt><trkpt lat="14.64242836138647" lon="121.0345484326032"><ele>36.0</ele><time>2026-04-10T13:20:12Z</time></trkpt><trkpt lat="14.642321720412752" lon="121.0343761832912"><ele>35.0</ele><time>2026-04-10T13:20:13Z</time></trkpt><trkpt lat="14.642222089400606" lon="121.03421486837026"><ele>35.0</ele><time>2026-04-10T13:20:14Z</time></trkpt><trkpt lat="14.642131177515594" lon="121.03406767080601"><ele>35.0</ele><time>2026-04-10T13:20:15Z</time></trkpt><trkpt lat="14.642045253978338" lon="121.0339285500052"><ele>35.0</ele><time>2026-04-10T13:20:16Z</time></trkpt><trkpt lat="14.641958539349474" lon="121.03380332229449"><ele>34.75</ele><time>2026-04-10T13:20:17Z</time></trkpt><trkpt lat="14.6418901904062" lon="121.03367383031771"><ele>34.5</ele><time>2026-04-10T13:20:18Z</time></trkpt><trkpt lat="14.64181999183671" lon="121.03355840094696"><ele>34.25</ele><time>2026-04-10T13:20:19Z</time></trkpt><trkpt lat="14.641751353726848" lon="121.03345517513459"><ele>34.0</ele><time>2026-04-10T13:20:20Z</time></trkpt><trkpt lat="14.64169890524167" lon="121.03337238679615"><ele>33.66666666666667</ele><time>2026-04-10T13:20:21Z</time></trkpt><trkpt lat="14.641657896441046" lon="121.03329779879691"><ele>33.333333333333336</ele><time>2026-04-10T13:20:22Z</time></trkpt><trkpt lat="14.641625966293025" lon="121.03323279827255"><ele>33.0</ele><time>2026-04-10T13:20:23Z</time></trkpt><trkpt lat="14.641586142536136" lon="121.03317670129553"><ele>32.666666666666664</ele><time>2026-04-10T13:20:25Z</time></trkpt><trkpt lat="14.641526743895545" lon="121.03311824280016"><ele>32.33333333333333</ele><time>2026-04-10T13:20:27Z</time></trkpt><trkpt lat="14.641481777063975" lon="121.03301512616414"><ele>32.0</ele><time>2026-04-10T13:20:58Z</time></trkpt><trkpt lat="14.641412375037598" lon="121.0329341960526"><ele>32.0</ele><time>2026-04-10T13:21:00Z</time></trkpt><trkpt lat="14.641366958878544" lon="121.03282696989154"><ele>32.0</ele><time>2026-04-10T13:21:02Z</time></trkpt><trkpt lat="14.641316150583652" lon="121.03274244319255"><ele>32.0</ele><time>2026-04-10T13:21:03Z</time></trkpt><trkpt lat="14.641273270163019" lon="121.03267116628012"><ele>32.0</ele><time>2026-04-10T13:21:04Z</time></trkpt><trkpt lat="14.641225494119906" lon="121.03259175173395"><ele>32.0</ele><time>2026-04-10T13:21:05.001Z</time></trkpt><trkpt lat="14.64117756345048" lon="121.03251208016853"><ele>31.75</ele><time>2026-04-10T13:21:06.001Z</time></trkpt><trkpt lat="14.641110045323765" lon="121.03239984983821"><ele>31.5</ele><time>2026-04-10T13:21:07.001Z</time></trkpt><trkpt lat="14.641037450333558" lon="121.03227918062696"><ele>31.25</ele><time>2026-04-10T13:21:08.001Z</time></trkpt><trkpt lat="14.64096025620964" lon="121.03215086660984"><ele>31.0</ele><time>2026-04-10T13:21:09.001Z</time></trkpt><trkpt lat="14.640881736067714" lon="121.03202172734198"><ele>31.0</ele><time>2026-04-10T13:21:10.001Z</time></trkpt><trkpt lat="14.64079481319106" lon="121.0318845349166"><ele>31.0</ele><time>2026-04-10T13:21:11.001Z</time></trkpt><trkpt lat="14.640704383113489" lon="121.03174180878638"><ele>31.0</ele><time>2026-04-10T13:21:12.001Z</time></trkpt><trkpt lat="14.640606345059343" lon="121.03158145426717"><ele>30.333333333333336</ele><time>2026-04-10T13:21:13.001Z</time></trkpt><trkpt lat="14.64051321815532" lon="121.03143094848366"><ele>29.666666666666664</ele><time>2026-04-10T13:21:14.001Z</time></trkpt><trkpt lat="14.64042233959646" lon="121.03128486890085"><ele>29.0</ele><time>2026-04-10T13:21:15.001Z</time></trkpt><trkpt lat="14.640335224639042" lon="121.03114463501998"><ele>29.333333333333332</ele><time>2026-04-10T13:21:16.001Z</time></trkpt><trkpt lat="14.64025145824063" lon="121.0310111945007"><ele>29.666666666666664</ele><time>2026-04-10T13:21:17.001Z</time></trkpt><trkpt lat="14.640168708367602" lon="121.03087772033702"><ele>30.0</ele><time>2026-04-10T13:21:18.001Z</time></trkpt><trkpt lat="14.640086151081624" lon="121.03074495360383"><ele>30.0</ele><time>2026-04-10T13:21:19.001Z</time></trkpt><trkpt lat="14.640005182014294" lon="121.03061476088622"><ele>30.0</ele><time>2026-04-10T13:21:20.001Z</time></trkpt><trkpt lat="14.639922839498894" lon="121.03048263090278"><ele>30.0</ele><time>2026-04-10T13:21:21.001Z</time></trkpt><trkpt lat="14.639841876696725" lon="121.03035246447253"><ele>30.0</ele><time>2026-04-10T13:21:22.001Z</time></trkpt><trkpt lat="14.639762584579" lon="121.03022136992749"><ele>30.0</ele><time>2026-04-10T13:21:23.001Z</time></trkpt><trkpt lat="14.639684331829944" lon="121.03009070386942"><ele>30.0</ele><time>2026-04-10T13:21:24.001Z</time></trkpt><trkpt lat="14.639605962576752" lon="121.02995955634222"><ele>30.0</ele><time>2026-04-10T13:21:25.001Z</time></trkpt><trkpt lat="14.639525136471915" lon="121.02982804837963"><ele>28.0</ele><time>2026-04-10T13:21:26.001Z</time></trkpt><trkpt lat="14.639444559006817" lon="121.02969827726497"><ele>26.0</ele><time>2026-04-10T13:21:27.001Z</time></trkpt><trkpt lat="14.639362721511043" lon="121.029566241748"><ele>24.0</ele><time>2026-04-10T13:21:28.001Z</time></trkpt><trkpt lat="14.639278609684188" lon="121.02942971828024"><ele>24.0</ele><time>2026-04-10T13:21:29.001Z</time></trkpt><trkpt lat="14.639193770875272" lon="121.02929201471933"><ele>24.0</ele><time>2026-04-10T13:21:30.001Z</time></trkpt><trkpt lat="14.639106022056474" lon="121.02915141714058"><ele>24.0</ele><time>2026-04-10T13:21:31.001Z</time></trkpt><trkpt lat="14.639022554985779" lon="121.02901826489405"><ele>24.666666666666664</ele><time>2026-04-10T13:21:32.001Z</time></trkpt><trkpt lat="14.638941354521092" lon="121.02888760928694"><ele>25.333333333333332</ele><time>2026-04-10T13:21:33.001Z</time></trkpt><trkpt lat="14.638860043123229" lon="121.02875466968042"><ele>26.0</ele><time>2026-04-10T13:21:34.001Z</time></trkpt><trkpt lat="14.638781137643951" lon="121.0286227026074"><ele>26.0</ele><time>2026-04-10T13:21:35.001Z</time></trkpt><trkpt lat="14.638703190048354" lon="121.02849167986814"><ele>26.0</ele><time>2026-04-10T13:21:36.001Z</time></trkpt><trkpt lat="14.638626606767433" lon="121.02836680581055"><ele>26.0</ele><time>2026-04-10T13:21:37.001Z</time></trkpt><trkpt lat="14.638546263060505" lon="121.02823904103546"><ele>26.0</ele><time>2026-04-10T13:21:38.001Z</time></trkpt><trkpt lat="14.638466462420489" lon="121.0281098525915"><ele>24.666666666666664</ele><time>2026-04-10T13:21:39.001Z</time></trkpt><trkpt lat="14.638384690159679" lon="121.02797747231443"><ele>23.333333333333332</ele><time>2026-04-10T13:21:40.001Z</time></trkpt><trkpt lat="14.638303792596764" lon="121.02784650808442"><ele>22.0</ele><time>2026-04-10T13:21:41.001Z</time></trkpt><trkpt lat="14.638223377957466" lon="121.02771632556141"><ele>22.0</ele><time>2026-04-10T13:21:42Z</time></trkpt><trkpt lat="14.638148545622677" lon="121.0275958476965"><ele>22.0</ele><time>2026-04-10T13:21:43Z</time></trkpt><trkpt lat="14.63807970193551" lon="121.02748437322437"><ele>22.0</ele><time>2026-04-10T13:21:44Z</time></trkpt><trkpt lat="14.63801310137586" lon="121.02737653093229"><ele>22.0</ele><time>2026-04-10T13:21:45Z</time></trkpt><trkpt lat="14.637951084036727" lon="121.02727610997104"><ele>22.200000000000003</ele><time>2026-04-10T13:21:46Z</time></trkpt><trkpt lat="14.637887362495325" lon="121.02717292949427"><ele>22.4</ele><time>2026-04-10T13:21:47Z</time></trkpt><trkpt lat="14.637825868088438" lon="121.02707335527832"><ele>22.6</ele><time>2026-04-10T13:21:48Z</time></trkpt><trkpt lat="14.63776865161319" lon="121.02698039011142"><ele>22.799999999999997</ele><time>2026-04-10T13:21:49Z</time></trkpt><trkpt lat="14.637716718235481" lon="121.02689576111106"><ele>23.0</ele><time>2026-04-10T13:21:50Z</time></trkpt><trkpt lat="14.637667763737737" lon="121.0268159863988"><ele>23.5</ele><time>2026-04-10T13:21:51Z</time></trkpt><trkpt lat="14.637619015675083" lon="121.02673654808353"><ele>24.0</ele><time>2026-04-10T13:21:52Z</time></trkpt><trkpt lat="14.637572458094668" lon="121.02666067931776"><ele>24.5</ele><time>2026-04-10T13:21:53Z</time></trkpt><trkpt lat="14.637525949441617" lon="121.02658489027056"><ele>25.0</ele><time>2026-04-10T13:21:54Z</time></trkpt><trkpt lat="14.63748868919466" lon="121.02652411254311"><ele>25.499999999999996</ele><time>2026-04-10T13:21:55Z</time></trkpt><trkpt lat="14.637451578289884" lon="121.02646332186251"><ele>26.0</ele><time>2026-04-10T13:21:56Z</time></trkpt><trkpt lat="14.637414598699602" lon="121.0264027462249"><ele>26.285714285714285</ele><time>2026-04-10T13:21:57Z</time></trkpt><trkpt lat="14.637366130464311" lon="121.02635052078773"><ele>26.571428571428573</ele><time>2026-04-10T13:21:58Z</time></trkpt><trkpt lat="14.63733995910958" lon="121.02628222512935"><ele>26.857142857142858</ele><time>2026-04-10T13:21:59Z</time></trkpt><trkpt lat="14.63730382640532" lon="121.02622348099344"><ele>27.142857142857142</ele><time>2026-04-10T13:22:00Z</time></trkpt><trkpt lat="14.637268833000878" lon="121.02616658912851"><ele>27.42857142857143</ele><time>2026-04-10T13:22:01Z</time></trkpt><trkpt lat="14.637232666580092" lon="121.026106309333"><ele>27.714285714285715</ele><time>2026-04-10T13:22:02Z</time></trkpt><trkpt lat="14.637197476122083" lon="121.02604758898622"><ele>28.0</ele><time>2026-04-10T13:22:03Z</time></trkpt><trkpt lat="14.63714125944673" lon="121.02599003760268"><ele>28.000000000000004</ele><time>2026-04-10T13:22:04Z</time></trkpt><trkpt lat="14.637103927078257" lon="121.02592398138934"><ele>28.0</ele><time>2026-04-10T13:22:05Z</time></trkpt><trkpt lat="14.637062735032183" lon="121.02586512363672"><ele>28.0</ele><time>2026-04-10T13:22:06Z</time></trkpt><trkpt lat="14.637017858828719" lon="121.02578640843865"><ele>28.0</ele><time>2026-04-10T13:22:07Z</time></trkpt><trkpt lat="14.636963951913373" lon="121.02571257906924"><ele>28.000000000000004</ele><time>2026-04-10T13:22:08Z</time></trkpt><trkpt lat="14.63692555643076" lon="121.02562495817884"><ele>28.0</ele><time>2026-04-10T13:22:09Z</time></trkpt><trkpt lat="14.636870576223519" lon="121.02553915572271"><ele>28.4</ele><time>2026-04-10T13:22:10Z</time></trkpt><trkpt lat="14.636815052600857" lon="121.02545491577574"><ele>28.799999999999997</ele><time>2026-04-10T13:22:11Z</time></trkpt><trkpt lat="14.636762106861804" lon="121.02537092048561"><ele>29.2</ele><time>2026-04-10T13:22:12Z</time></trkpt><trkpt lat="14.636705467694997" lon="121.02528015719408"><ele>29.6</ele><time>2026-04-10T13:22:13Z</time></trkpt><trkpt lat="14.636648295746351" lon="121.02518710559428"><ele>30.0</ele><time>2026-04-10T13:22:14Z</time></trkpt><trkpt lat="14.63659164430478" lon="121.02509164269014"><ele>30.0</ele><time>2026-04-10T13:22:15Z</time></trkpt><trkpt lat="14.63653204529302" lon="121.02499121286003"><ele>30.0</ele><time>2026-04-10T13:22:16Z</time></trkpt><trkpt lat="14.636474956003466" lon="121.02489527956948"><ele>30.0</ele><time>2026-04-10T13:22:17Z</time></trkpt><trkpt lat="14.636420847206173" lon="121.02480517823379"><ele>30.0</ele><time>2026-04-10T13:22:18Z</time></trkpt><trkpt lat="14.636369626359004" lon="121.02471988586314"><ele>30.0</ele><time>2026-04-10T13:22:19Z</time></trkpt><trkpt lat="14.63631900942762" lon="121.02463559913697"><ele>30.0</ele><time>2026-04-10T13:22:20Z</time></trkpt><trkpt lat="14.636267204501118" lon="121.02454838596222"><ele>30.0</ele><time>2026-04-10T13:22:21Z</time></trkpt><trkpt lat="14.636217763258426" lon="121.02446490736712"><ele>30.0</ele><time>2026-04-10T13:22:22Z</time></trkpt><trkpt lat="14.636173713173315" lon="121.02439053143378"><ele>30.0</ele><time>2026-04-10T13:22:23Z</time></trkpt><trkpt lat="14.63613070722273" lon="121.02431791844883"><ele>30.0</ele><time>2026-04-10T13:22:24Z</time></trkpt><trkpt lat="14.636085783872089" lon="121.02424206804848"><ele>30.0</ele><time>2026-04-10T13:22:25Z</time></trkpt><trkpt lat="14.63603087009221" lon="121.02414946187113"><ele>29.2</ele><time>2026-04-10T13:22:26Z</time></trkpt><trkpt lat="14.63597289112894" lon="121.02405298016244"><ele>28.4</ele><time>2026-04-10T13:22:27Z</time></trkpt><trkpt lat="14.635922972542309" lon="121.02396991156778"><ele>27.6</ele><time>2026-04-10T13:22:28Z</time></trkpt><trkpt lat="14.63587301178756" lon="121.02388677281347"><ele>26.8</ele><time>2026-04-10T13:22:29Z</time></trkpt><trkpt lat="14.63582072162942" lon="121.02379975763905"><ele>26.0</ele><time>2026-04-10T13:22:30Z</time></trkpt><trkpt lat="14.63576135211754" lon="121.02369945459222"><ele>26.0</ele><time>2026-04-10T13:22:31Z</time></trkpt><trkpt lat="14.6356995751912" lon="121.02359545364963"><ele>26.0</ele><time>2026-04-10T13:22:32Z</time></trkpt><trkpt lat="14.635630855961352" lon="121.02347986119881"><ele>26.0</ele><time>2026-04-10T13:22:33Z</time></trkpt><trkpt lat="14.635559617829362" lon="121.02336003170664"><ele>26.0</ele><time>2026-04-10T13:22:34Z</time></trkpt><trkpt lat="14.635491009899248" lon="121.02324462643493"><ele>25.5</ele><time>2026-04-10T13:22:35Z</time></trkpt><trkpt lat="14.635423018841328" lon="121.02313025883664"><ele>25.0</ele><time>2026-04-10T13:22:36Z</time></trkpt><trkpt lat="14.635363330448827" lon="121.02303110584644"><ele>24.5</ele><time>2026-04-10T13:22:37Z</time></trkpt><trkpt lat="14.635301618626578" lon="121.02292937008738"><ele>24.0</ele><time>2026-04-10T13:22:38Z</time></trkpt><trkpt lat="14.6352413275085" lon="121.02282803676894"><ele>23.25</ele><time>2026-04-10T13:22:39Z</time></trkpt><trkpt lat="14.635177578375705" lon="121.02272130126794"><ele>22.5</ele><time>2026-04-10T13:22:40Z</time></trkpt><trkpt lat="14.635114645546272" lon="121.02261593251005"><ele>21.75</ele><time>2026-04-10T13:22:41Z</time></trkpt><trkpt lat="14.635056395895266" lon="121.02251839804175"><ele>21.0</ele><time>2026-04-10T13:22:42Z</time></trkpt><trkpt lat="14.634999751786696" lon="121.02242355157257"><ele>21.0</ele><time>2026-04-10T13:22:43Z</time></trkpt><trkpt lat="14.63495061799466" lon="121.02234128056752"><ele>21.0</ele><time>2026-04-10T13:22:44Z</time></trkpt><trkpt lat="14.634910088290784" lon="121.0222734165002"><ele>21.0</ele><time>2026-04-10T13:22:45Z</time></trkpt><trkpt lat="14.63486470712132" lon="121.02219742900871"><ele>21.0</ele><time>2026-04-10T13:22:46Z</time></trkpt><trkpt lat="14.634822071314286" lon="121.0221265548036"><ele>21.0</ele><time>2026-04-10T13:22:47Z</time></trkpt><trkpt lat="14.634773797169153" lon="121.02204673993029"><ele>21.0</ele><time>2026-04-10T13:22:48Z</time></trkpt><trkpt lat="14.634719223995651" lon="121.02195702712227"><ele>21.0</ele><time>2026-04-10T13:22:49Z</time></trkpt><trkpt lat="14.634663700193292" lon="121.0218657515671"><ele>21.0</ele><time>2026-04-10T13:22:50Z</time></trkpt><trkpt lat="14.634619326593942" lon="121.02179280577704"><ele>21.0</ele><time>2026-04-10T13:22:51Z</time></trkpt><trkpt lat="14.634574349992683" lon="121.02172212388732"><ele>21.0</ele><time>2026-04-10T13:22:52Z</time></trkpt><trkpt lat="14.634525464678632" lon="121.02164489068944"><ele>21.0</ele><time>2026-04-10T13:22:53Z</time></trkpt><trkpt lat="14.634473609254417" lon="121.02156296505883"><ele>20.8</ele><time>2026-04-10T13:22:54Z</time></trkpt><trkpt lat="14.634420263965968" lon="121.02147877012479"><ele>20.6</ele><time>2026-04-10T13:22:55Z</time></trkpt><trkpt lat="14.634362046736362" lon="121.02138689598598"><ele>20.4</ele><time>2026-04-10T13:22:56Z</time></trkpt><trkpt lat="14.634304939782345" lon="121.02129625636857"><ele>20.2</ele><time>2026-04-10T13:22:57Z</time></trkpt><trkpt lat="14.634249995858973" lon="121.02121010478044"><ele>20.0</ele><time>2026-04-10T13:22:58Z</time></trkpt><trkpt lat="14.63419064288594" lon="121.02111621735403"><ele>20.0</ele><time>2026-04-10T13:22:59Z</time></trkpt><trkpt lat="14.634124330006552" lon="121.02101076807162"><ele>20.0</ele><time>2026-04-10T13:23:00Z</time></trkpt><trkpt lat="14.634056555016338" lon="121.02090372487741"><ele>20.0</ele><time>2026-04-10T13:23:01Z</time></trkpt><trkpt lat="14.63399068424981" lon="121.02079975366912"><ele>20.0</ele><time>2026-04-10T13:23:02Z</time></trkpt><trkpt lat="14.63392415833095" lon="121.02069494087331"><ele>20.4</ele><time>2026-04-10T13:23:03Z</time></trkpt><trkpt lat="14.63386147483738" lon="121.02059634131886"><ele>20.8</ele><time>2026-04-10T13:23:04Z</time></trkpt><trkpt lat="14.633802439515945" lon="121.02050360272096"><ele>21.200000000000003</ele><time>2026-04-10T13:23:05Z</time></trkpt><trkpt lat="14.633745043611565" lon="121.02041343949138"><ele>21.6</ele><time>2026-04-10T13:23:06Z</time></trkpt><trkpt lat="14.633688200138213" lon="121.02032428608742"><ele>22.0</ele><time>2026-04-10T13:23:07Z</time></trkpt><trkpt lat="14.633631007502427" lon="121.02023569079785"><ele>22.0</ele><time>2026-04-10T13:23:08Z</time></trkpt><trkpt lat="14.633568095593935" lon="121.02013610301279"><ele>22.0</ele><time>2026-04-10T13:23:09Z</time></trkpt><trkpt lat="14.633508646485987" lon="121.020040017986"><ele>22.0</ele><time>2026-04-10T13:23:10Z</time></trkpt><trkpt lat="14.633438141360676" lon="121.01992606356198"><ele>22.0</ele><time>2026-04-10T13:23:11Z</time></trkpt><trkpt lat="14.633364909095468" lon="121.01980773127411"><ele>21.75</ele><time>2026-04-10T13:23:12Z</time></trkpt><trkpt lat="14.633286077359099" lon="121.01968051878454"><ele>21.5</ele><time>2026-04-10T13:23:13Z</time></trkpt><trkpt lat="14.633206819571454" lon="121.01955207145735"><ele>21.25</ele><time>2026-04-10T13:23:14Z</time></trkpt><trkpt lat="14.633130764268081" lon="121.01942868330524"><ele>21.0</ele><time>2026-04-10T13:23:15Z</time></trkpt><trkpt lat="14.633055154080575" lon="121.0193052644704"><ele>21.0</ele><time>2026-04-10T13:23:16Z</time></trkpt><trkpt lat="14.632977580562542" lon="121.01917862049758"><ele>21.0</ele><time>2026-04-10T13:23:17Z</time></trkpt><trkpt lat="14.632898354368495" lon="121.01904927841969"><ele>21.0</ele><time>2026-04-10T13:23:18Z</time></trkpt><trkpt lat="14.632820401644366" lon="121.01892201537362"><ele>21.0</ele><time>2026-04-10T13:23:19Z</time></trkpt><trkpt lat="14.632748397014913" lon="121.01880478847897"><ele>20.400000000000002</ele><time>2026-04-10T13:23:20Z</time></trkpt><trkpt lat="14.632686327049596" lon="121.01870373756009"><ele>19.8</ele><time>2026-04-10T13:23:21Z</time></trkpt><trkpt lat="14.63263449456753" lon="121.01861903905699"><ele>19.200000000000003</ele><time>2026-04-10T13:23:22Z</time></trkpt><trkpt lat="14.632576308842221" lon="121.01852735477382"><ele>18.6</ele><time>2026-04-10T13:23:23.001Z</time></trkpt><trkpt lat="14.632510251169029" lon="121.01842326650319"><ele>18.0</ele><time>2026-04-10T13:23:24.001Z</time></trkpt><trkpt lat="14.63244254395606" lon="121.01831365583273"><ele>18.0</ele><time>2026-04-10T13:23:25.001Z</time></trkpt><trkpt lat="14.632377617325478" lon="121.0182078621937"><ele>18.0</ele><time>2026-04-10T13:23:26.001Z</time></trkpt><trkpt lat="14.632316751589105" lon="121.01810847314442"><ele>18.0</ele><time>2026-04-10T13:23:27.001Z</time></trkpt><trkpt lat="14.632256186329109" lon="121.01800957472916"><ele>18.0</ele><time>2026-04-10T13:23:28.001Z</time></trkpt><trkpt lat="14.632192743700642" lon="121.01790598387184"><ele>18.0</ele><time>2026-04-10T13:23:29.001Z</time></trkpt><trkpt lat="14.632123708934996" lon="121.01779330680863"><ele>18.0</ele><time>2026-04-10T13:23:30.001Z</time></trkpt><trkpt lat="14.63205313813751" lon="121.01767812264416"><ele>18.0</ele><time>2026-04-10T13:23:31.001Z</time></trkpt><trkpt lat="14.631978842293295" lon="121.01755682451189"><ele>18.0</ele><time>2026-04-10T13:23:32.001Z</time></trkpt><trkpt lat="14.631900652951147" lon="121.01743403595516"><ele>17.5</ele><time>2026-04-10T13:23:33.001Z</time></trkpt><trkpt lat="14.631822415879991" lon="121.0173123050279"><ele>17.0</ele><time>2026-04-10T13:23:34.001Z</time></trkpt><trkpt lat="14.63174454589694" lon="121.01719114527518"><ele>16.5</ele><time>2026-04-10T13:23:35.001Z</time></trkpt><trkpt lat="14.631661498023025" lon="121.01706406730077"><ele>16.0</ele><time>2026-04-10T13:23:36.001Z</time></trkpt><trkpt lat="14.631577578325205" lon="121.01693631658463"><ele>16.0</ele><time>2026-04-10T13:23:37.001Z</time></trkpt><trkpt lat="14.631485577576344" lon="121.01680498454061"><ele>16.0</ele><time>2026-04-10T13:23:38.001Z</time></trkpt><trkpt lat="14.631391820385213" lon="121.01667154490642"><ele>16.0</ele><time>2026-04-10T13:23:39.001Z</time></trkpt><trkpt lat="14.631290112590639" lon="121.01653609341653"><ele>15.666666666666666</ele><time>2026-04-10T13:23:40.001Z</time></trkpt><trkpt lat="14.63118361980658" lon="121.01639892041527"><ele>15.333333333333332</ele><time>2026-04-10T13:23:41.001Z</time></trkpt><trkpt lat="14.631074034309043" lon="121.01626006884071"><ele>15.0</ele><time>2026-04-10T13:23:42.001Z</time></trkpt><trkpt lat="14.630958616591098" lon="121.01612253919814"><ele>15.0</ele><time>2026-04-10T13:23:43.001Z</time></trkpt><trkpt lat="14.630840106574333" lon="121.01598387515673"><ele>15.0</ele><time>2026-04-10T13:23:44.001Z</time></trkpt><trkpt lat="14.630725520279324" lon="121.01584919681126"><ele>15.0</ele><time>2026-04-10T13:23:45.001Z</time></trkpt><trkpt lat="14.63061226632481" lon="121.01571598047106"><ele>14.333333333333332</ele><time>2026-04-10T13:23:46.001Z</time></trkpt><trkpt lat="14.630500385607894" lon="121.01559170597865"><ele>13.666666666666666</ele><time>2026-04-10T13:23:47.001Z</time></trkpt><trkpt lat="14.630391811107165" lon="121.0154717771221"><ele>13.0</ele><time>2026-04-10T13:23:48.001Z</time></trkpt><trkpt lat="14.630277531975544" lon="121.0153486811578"><ele>13.0</ele><time>2026-04-10T13:23:49.001Z</time></trkpt><trkpt lat="14.630171309576628" lon="121.01523488273736"><ele>13.0</ele><time>2026-04-10T13:23:50.001Z</time></trkpt><trkpt lat="14.630069520718301" lon="121.01512248954465"><ele>13.0</ele><time>2026-04-10T13:23:51.001Z</time></trkpt><trkpt lat="14.629964727688105" lon="121.01500569870564"><ele>13.666666666666666</ele><time>2026-04-10T13:23:52.001Z</time></trkpt><trkpt lat="14.629829714957872" lon="121.01491079208634"><ele>14.333333333333332</ele><time>2026-04-10T13:23:53.001Z</time></trkpt><trkpt lat="14.629695555715152" lon="121.01481405710152"><ele>15.0</ele><time>2026-04-10T13:23:54.001Z</time></trkpt><trkpt lat="14.62958467698056" lon="121.01468308090773"><ele>15.0</ele><time>2026-04-10T13:23:55.001Z</time></trkpt><trkpt lat="14.629478296115881" lon="121.01455777475545"><ele>15.0</ele><time>2026-04-10T13:23:56.001Z</time></trkpt><trkpt lat="14.629363463270053" lon="121.0144394714499"><ele>15.0</ele><time>2026-04-10T13:23:57Z</time></trkpt><trkpt lat="14.629244841610015" lon="121.01431833164234"><ele>15.666666666666668</ele><time>2026-04-10T13:23:58Z</time></trkpt><trkpt lat="14.629137070971689" lon="121.01419847707352"><ele>16.333333333333336</ele><time>2026-04-10T13:23:59Z</time></trkpt><trkpt lat="14.629009291136402" lon="121.01407665080842"><ele>17.0</ele><time>2026-04-10T13:24:00Z</time></trkpt><trkpt lat="14.62889415542629" lon="121.01394840471586"><ele>16.0</ele><time>2026-04-10T13:24:01Z</time></trkpt><trkpt lat="14.62879321331704" lon="121.01383199151964"><ele>15.0</ele><time>2026-04-10T13:24:02Z</time></trkpt><trkpt lat="14.62867730716817" lon="121.01371068971656"><ele>14.0</ele><time>2026-04-10T13:24:03Z</time></trkpt><trkpt lat="14.628574062229553" lon="121.0136070700497"><ele>14.0</ele><time>2026-04-10T13:24:04Z</time></trkpt><trkpt lat="14.628470135743903" lon="121.01350005477131"><ele>14.0</ele><time>2026-04-10T13:24:05Z</time></trkpt><trkpt lat="14.628369226553808" lon="121.01339635740862"><ele>14.0</ele><time>2026-04-10T13:24:06Z</time></trkpt><trkpt lat="14.628259573429037" lon="121.0133030422261"><ele>14.0</ele><time>2026-04-10T13:24:07Z</time></trkpt><trkpt lat="14.628152519367733" lon="121.01320418281213"><ele>14.0</ele><time>2026-04-10T13:24:08Z</time></trkpt><trkpt lat="14.628052970301292" lon="121.01310359268132"><ele>14.0</ele><time>2026-04-10T13:24:09Z</time></trkpt><trkpt lat="14.627991955663573" lon="121.0129973119596"><ele>14.0</ele><time>2026-04-10T13:24:10Z</time></trkpt><trkpt lat="14.627925141347557" lon="121.01290411439741"><ele>14.0</ele><time>2026-04-10T13:24:11Z</time></trkpt><trkpt lat="14.627845899228463" lon="121.01280026497321"><ele>14.6</ele><time>2026-04-10T13:24:12Z</time></trkpt><trkpt lat="14.627775798427946" lon="121.01270814149005"><ele>15.2</ele><time>2026-04-10T13:24:13Z</time></trkpt><trkpt lat="14.627700923783095" lon="121.01261845364607"><ele>15.799999999999999</ele><time>2026-04-10T13:24:14Z</time></trkpt><trkpt lat="14.627627819471195" lon="121.01253479166158"><ele>16.4</ele><time>2026-04-10T13:24:15Z</time></trkpt><trkpt lat="14.627554181935132" lon="121.01244940673554"><ele>17.0</ele><time>2026-04-10T13:24:16Z</time></trkpt><trkpt lat="14.627471558499028" lon="121.01236829333571"><ele>17.6</ele><time>2026-04-10T13:24:17Z</time></trkpt><trkpt lat="14.62740344101134" lon="121.01229546367607"><ele>18.2</ele><time>2026-04-10T13:24:18Z</time></trkpt><trkpt lat="14.62732966629456" lon="121.01222101938231"><ele>18.8</ele><time>2026-04-10T13:24:19Z</time></trkpt><trkpt lat="14.62725995597867" lon="121.0121413772707"><ele>19.4</ele><time>2026-04-10T13:24:20Z</time></trkpt><trkpt lat="14.627187512451533" lon="121.01205950493005"><ele>20.0</ele><time>2026-04-10T13:24:21Z</time></trkpt><trkpt lat="14.627113719403035" lon="121.01197370704377"><ele>20.0</ele><time>2026-04-10T13:24:22Z</time></trkpt><trkpt lat="14.627034166081666" lon="121.01188184950902"><ele>20.0</ele><time>2026-04-10T13:24:23Z</time></trkpt><trkpt lat="14.626952550594213" lon="121.01179750412635"><ele>20.0</ele><time>2026-04-10T13:24:24Z</time></trkpt><trkpt lat="14.626872654422437" lon="121.0117109828619"><ele>20.0</ele><time>2026-04-10T13:24:25Z</time></trkpt><trkpt lat="14.626787301015124" lon="121.01161771482215"><ele>18.75</ele><time>2026-04-10T13:24:26Z</time></trkpt><trkpt lat="14.62669816196123" lon="121.01152205307609"><ele>17.5</ele><time>2026-04-10T13:24:27Z</time></trkpt><trkpt lat="14.626603920051602" lon="121.01142443572287"><ele>16.25</ele><time>2026-04-10T13:24:28Z</time></trkpt><trkpt lat="14.626514483017905" lon="121.01133444267185"><ele>15.0</ele><time>2026-04-10T13:24:29Z</time></trkpt><trkpt lat="14.626418340277748" lon="121.01122531688661"><ele>15.0</ele><time>2026-04-10T13:24:30Z</time></trkpt><trkpt lat="14.626329531635475" lon="121.01112359126616"><ele>15.0</ele><time>2026-04-10T13:24:31Z</time></trkpt><trkpt lat="14.626241052048075" lon="121.01102779261308"><ele>15.0</ele><time>2026-04-10T13:24:32Z</time></trkpt><trkpt lat="14.62615026785509" lon="121.01092424665667"><ele>15.0</ele><time>2026-04-10T13:24:33Z</time></trkpt><trkpt lat="14.626064493908759" lon="121.01082313697232"><ele>15.0</ele><time>2026-04-10T13:24:34Z</time></trkpt><trkpt lat="14.625967614919098" lon="121.01070749533417"><ele>15.0</ele><time>2026-04-10T13:24:35Z</time></trkpt><trkpt lat="14.625900154833921" lon="121.01056161548769"><ele>15.0</ele><time>2026-04-10T13:24:36Z</time></trkpt><trkpt lat="14.625798679896143" lon="121.01044972120216"><ele>15.0</ele><time>2026-04-10T13:24:37Z</time></trkpt><trkpt lat="14.625695175120331" lon="121.01033558856061"><ele>15.0</ele><time>2026-04-10T13:24:38Z</time></trkpt><trkpt lat="14.625589912957707" lon="121.01021951814216"><ele>15.0</ele><time>2026-04-10T13:24:39Z</time></trkpt><trkpt lat="14.625473318527481" lon="121.01011462257574"><ele>15.0</ele><time>2026-04-10T13:24:40Z</time></trkpt><trkpt lat="14.625372818880065" lon="121.01000055427619"><ele>15.0</ele><time>2026-04-10T13:24:41Z</time></trkpt><trkpt lat="14.62527126305967" lon="121.00988351718442"><ele>15.0</ele><time>2026-04-10T13:24:42Z</time></trkpt><trkpt lat="14.625166532914008" lon="121.00977335710763"><ele>14.333333333333332</ele><time>2026-04-10T13:24:43Z</time></trkpt><trkpt lat="14.6250612495792" lon="121.00965594229446"><ele>13.666666666666666</ele><time>2026-04-10T13:24:44Z</time></trkpt><trkpt lat="14.62495465794934" lon="121.00953703935915"><ele>13.0</ele><time>2026-04-10T13:24:45Z</time></trkpt><trkpt lat="14.624848487155363" lon="121.00941166745987"><ele>13.0</ele><time>2026-04-10T13:24:46Z</time></trkpt><trkpt lat="14.624744958561793" lon="121.00929970414889"><ele>13.0</ele><time>2026-04-10T13:24:47Z</time></trkpt><trkpt lat="14.624640218518529" lon="121.00917984955457"><ele>13.0</ele><time>2026-04-10T13:24:48Z</time></trkpt><trkpt lat="14.624532651689156" lon="121.00906428728617"><ele>13.0</ele><time>2026-04-10T13:24:49Z</time></trkpt><trkpt lat="14.624432865483602" lon="121.00893688742407"><ele>13.0</ele><time>2026-04-10T13:24:50Z</time></trkpt><trkpt lat="14.624327214705415" lon="121.00881878979017"><ele>13.0</ele><time>2026-04-10T13:24:51Z</time></trkpt><trkpt lat="14.62422934004381" lon="121.00870938435631"><ele>13.0</ele><time>2026-04-10T13:24:52Z</time></trkpt><trkpt lat="14.62412291851608" lon="121.00859042515042"><ele>13.0</ele><time>2026-04-10T13:24:53Z</time></trkpt><trkpt lat="14.62401420065271" lon="121.0084726174024"><ele>13.0</ele><time>2026-04-10T13:24:54Z</time></trkpt><trkpt lat="14.62390660630482" lon="121.00835783226796"><ele>14.333333333333332</ele><time>2026-04-10T13:24:55Z</time></trkpt><trkpt lat="14.623797220879004" lon="121.00824113634809"><ele>15.666666666666668</ele><time>2026-04-10T13:24:56Z</time></trkpt><trkpt lat="14.623685987456545" lon="121.00812246865041"><ele>17.0</ele><time>2026-04-10T13:24:57Z</time></trkpt><trkpt lat="14.623568718469555" lon="121.00802023867665"><ele>17.5</ele><time>2026-04-10T13:24:58Z</time></trkpt><trkpt lat="14.623480645083978" lon="121.00790441286783"><ele>18.0</ele><time>2026-04-10T13:24:59Z</time></trkpt><trkpt lat="14.623365494634687" lon="121.00779559499813"><ele>18.5</ele><time>2026-04-10T13:25:00Z</time></trkpt><trkpt lat="14.623263936766705" lon="121.00768278858828"><ele>19.0</ele><time>2026-04-10T13:25:01.001Z</time></trkpt><trkpt lat="14.623161190831155" lon="121.00757186829017"><ele>19.0</ele><time>2026-04-10T13:25:02.001Z</time></trkpt><trkpt lat="14.62306927572423" lon="121.0074483731348"><ele>19.0</ele><time>2026-04-10T13:25:03.001Z</time></trkpt><trkpt lat="14.622951460361362" lon="121.00733999153081"><ele>19.0</ele><time>2026-04-10T13:25:04.001Z</time></trkpt><trkpt lat="14.622848059352956" lon="121.00722440873206"><ele>18.75</ele><time>2026-04-10T13:25:05.001Z</time></trkpt><trkpt lat="14.622753542998854" lon="121.00711126312721"><ele>18.5</ele><time>2026-04-10T13:25:06.001Z</time></trkpt><trkpt lat="14.622663134397197" lon="121.00700826008007"><ele>18.25</ele><time>2026-04-10T13:25:07.001Z</time></trkpt><trkpt lat="14.622583921988072" lon="121.00690912329756"><ele>18.0</ele><time>2026-04-10T13:25:08.001Z</time></trkpt><trkpt lat="14.622501144820276" lon="121.00681319892328"><ele>18.0</ele><time>2026-04-10T13:25:09.001Z</time></trkpt><trkpt lat="14.622424893738094" lon="121.00672818947068"><ele>18.0</ele><time>2026-04-10T13:25:10.001Z</time></trkpt><trkpt lat="14.622352576364534" lon="121.00665072879957"><ele>18.0</ele><time>2026-04-10T13:25:11.001Z</time></trkpt><trkpt lat="14.622270908116365" lon="121.00656488332098"><ele>18.0</ele><time>2026-04-10T13:25:12.001Z</time></trkpt><trkpt lat="14.622182004537184" lon="121.00647065931592"><ele>18.25</ele><time>2026-04-10T13:25:13.001Z</time></trkpt><trkpt lat="14.622091116211564" lon="121.00636447732676"><ele>18.5</ele><time>2026-04-10T13:25:14.001Z</time></trkpt><trkpt lat="14.621997361842128" lon="121.00625311423023"><ele>18.75</ele><time>2026-04-10T13:25:15.001Z</time></trkpt><trkpt lat="14.621895873794866" lon="121.00613723541858"><ele>19.0</ele><time>2026-04-10T13:25:16.001Z</time></trkpt><trkpt lat="14.621792545075316" lon="121.00602626303684"><ele>19.333333333333332</ele><time>2026-04-10T13:25:17.001Z</time></trkpt><trkpt lat="14.621683828506697" lon="121.00591168302444"><ele>19.666666666666668</ele><time>2026-04-10T13:25:18.001Z</time></trkpt><trkpt lat="14.621579592273081" lon="121.00579908279609"><ele>20.0</ele><time>2026-04-10T13:25:19.001Z</time></trkpt><trkpt lat="14.621468868114704" lon="121.00567854621522"><ele>19.75</ele><time>2026-04-10T13:25:20.001Z</time></trkpt><trkpt lat="14.621359847938454" lon="121.00556440168702"><ele>19.5</ele><time>2026-04-10T13:25:21.001Z</time></trkpt><trkpt lat="14.62125701843938" lon="121.00545504491322"><ele>19.25</ele><time>2026-04-10T13:25:22.001Z</time></trkpt><trkpt lat="14.621162431923851" lon="121.00535144125875"><ele>19.0</ele><time>2026-04-10T13:25:23.001Z</time></trkpt><trkpt lat="14.621069518264626" lon="121.00525354763866"><ele>19.0</ele><time>2026-04-10T13:25:24.001Z</time></trkpt><trkpt lat="14.62098069622393" lon="121.00515856891477"><ele>19.0</ele><time>2026-04-10T13:25:25.001Z</time></trkpt><trkpt lat="14.620892189052727" lon="121.00506753595894"><ele>19.0</ele><time>2026-04-10T13:25:26.001Z</time></trkpt><trkpt lat="14.620809345777698" lon="121.00497114676106"><ele>19.0</ele><time>2026-04-10T13:25:27.001Z</time></trkpt><trkpt lat="14.62072988636669" lon="121.00488101908154"><ele>18.0</ele><time>2026-04-10T13:25:28.001Z</time></trkpt><trkpt lat="14.620655139869406" lon="121.00479790774149"><ele>17.0</ele><time>2026-04-10T13:25:29.001Z</time></trkpt><trkpt lat="14.620595710213859" lon="121.00472688592164"><ele>15.999999999999998</ele><time>2026-04-10T13:25:30.001Z</time></trkpt><trkpt lat="14.620538375544925" lon="121.0046644801651"><ele>15.0</ele><time>2026-04-10T13:25:31.001Z</time></trkpt><trkpt lat="14.620489911512129" lon="121.0046076746839"><ele>14.0</ele><time>2026-04-10T13:25:32.001Z</time></trkpt><trkpt lat="14.620417746707686" lon="121.00452957026752"><ele>14.0</ele><time>2026-04-10T13:25:34.001Z</time></trkpt><trkpt lat="14.620368377416185" lon="121.00447202461757"><ele>13.999999999999998</ele><time>2026-04-10T13:25:36.001Z</time></trkpt><trkpt lat="14.620308629541494" lon="121.00441459843533"><ele>13.999999999999998</ele><time>2026-04-10T13:26:18Z</time></trkpt><trkpt lat="14.620240452923936" lon="121.00435739365098"><ele>14.0</ele><time>2026-04-10T13:26:53Z</time></trkpt><trkpt lat="14.620167807561337" lon="121.00427736333027"><ele>14.0</ele><time>2026-04-10T13:26:55Z</time></trkpt><trkpt lat="14.62008564577225" lon="121.0041652174447"><ele>14.799999999999999</ele><time>2026-04-10T13:26:57Z</time></trkpt><trkpt lat="14.62003808846639" lon="121.00408886217308"><ele>15.599999999999998</ele><time>2026-04-10T13:26:58Z</time></trkpt><trkpt lat="14.619972500824183" lon="121.00406135988842"><ele>16.4</ele><time>2026-04-10T13:26:59Z</time></trkpt><trkpt lat="14.619904461261093" lon="121.00398308661981"><ele>17.2</ele><time>2026-04-10T13:27:00Z</time></trkpt><trkpt lat="14.619825269507855" lon="121.00390286238382"><ele>18.0</ele><time>2026-04-10T13:27:01Z</time></trkpt><trkpt lat="14.619741711488063" lon="121.00381697957347"><ele>18.0</ele><time>2026-04-10T13:27:02Z</time></trkpt><trkpt lat="14.619675230697519" lon="121.00371802467265"><ele>18.0</ele><time>2026-04-10T13:27:03Z</time></trkpt><trkpt lat="14.619587871394364" lon="121.0036412524734"><ele>18.0</ele><time>2026-04-10T13:27:04Z</time></trkpt><trkpt lat="14.619514589202137" lon="121.00355301053555"><ele>18.0</ele><time>2026-04-10T13:27:05Z</time></trkpt><trkpt lat="14.61944117680349" lon="121.0034659703053"><ele>18.166666666666668</ele><time>2026-04-10T13:27:06Z</time></trkpt><trkpt lat="14.61937665218923" lon="121.00339234722681"><ele>18.333333333333332</ele><time>2026-04-10T13:27:07Z</time></trkpt><trkpt lat="14.619315117187034" lon="121.00332653958495"><ele>18.5</ele><time>2026-04-10T13:27:08Z</time></trkpt><trkpt lat="14.61925702699717" lon="121.00326232460245"><ele>18.666666666666664</ele><time>2026-04-10T13:27:09Z</time></trkpt><trkpt lat="14.619200222772365" lon="121.00319498245503"><ele>18.833333333333332</ele><time>2026-04-10T13:27:10Z</time></trkpt><trkpt lat="14.61915032640141" lon="121.00313377528089"><ele>19.0</ele><time>2026-04-10T13:27:11Z</time></trkpt><trkpt lat="14.619100633026603" lon="121.00307172619573"><ele>18.5</ele><time>2026-04-10T13:27:12Z</time></trkpt><trkpt lat="14.619049114144739" lon="121.00301440680899"><ele>18.0</ele><time>2026-04-10T13:27:13Z</time></trkpt><trkpt lat="14.619003473488474" lon="121.00295919286309"><ele>17.5</ele><time>2026-04-10T13:27:14Z</time></trkpt><trkpt lat="14.618952891436676" lon="121.00290169322204"><ele>17.0</ele><time>2026-04-10T13:27:15Z</time></trkpt><trkpt lat="14.618892380802674" lon="121.00283582116504"><ele>16.5</ele><time>2026-04-10T13:27:16Z</time></trkpt><trkpt lat="14.618823760897559" lon="121.002766128304"><ele>16.0</ele><time>2026-04-10T13:27:17Z</time></trkpt><trkpt lat="14.618752410051442" lon="121.00269422044177"><ele>16.0</ele><time>2026-04-10T13:27:18Z</time></trkpt><trkpt lat="14.618679232985436" lon="121.00261112177296"><ele>16.0</ele><time>2026-04-10T13:27:19Z</time></trkpt><trkpt lat="14.618601983959932" lon="121.00252808774898"><ele>16.0</ele><time>2026-04-10T13:27:20Z</time></trkpt><trkpt lat="14.618522094013898" lon="121.00244905639087"><ele>16.0</ele><time>2026-04-10T13:27:21Z</time></trkpt><trkpt lat="14.618462417059188" lon="121.00235932153285"><ele>16.0</ele><time>2026-04-10T13:27:22Z</time></trkpt><trkpt lat="14.618398729841656" lon="121.00228844001923"><ele>16.166666666666664</ele><time>2026-04-10T13:27:23Z</time></trkpt><trkpt lat="14.61834011606644" lon="121.00222320504619"><ele>16.333333333333332</ele><time>2026-04-10T13:27:24Z</time></trkpt><trkpt lat="14.618285394744271" lon="121.00216230199581"><ele>16.5</ele><time>2026-04-10T13:27:25Z</time></trkpt><trkpt lat="14.618241579260884" lon="121.00211297537886"><ele>16.666666666666668</ele><time>2026-04-10T13:27:26Z</time></trkpt><trkpt lat="14.618171258478569" lon="121.0020558104486"><ele>16.833333333333336</ele><time>2026-04-10T13:27:29.001Z</time></trkpt><trkpt lat="14.618120377431444" lon="121.00200226693906"><ele>17.0</ele><time>2026-04-10T13:27:31.001Z</time></trkpt><trkpt lat="14.618069278576069" lon="121.00194492540354"><ele>17.0</ele><time>2026-04-10T13:27:34.001Z</time></trkpt><trkpt lat="14.618043568731249" lon="121.00188055806932"><ele>17.0</ele><time>2026-04-10T13:27:39.001Z</time></trkpt><trkpt lat="14.618017284350593" lon="121.00181679486816"><ele>17.0</ele><time>2026-04-10T13:27:42.001Z</time></trkpt><trkpt lat="14.617976145164937" lon="121.00172792738002"><ele>17.0</ele><time>2026-04-10T13:27:44.001Z</time></trkpt><trkpt lat="14.617919482194218" lon="121.00163523237711"><ele>17.0</ele><time>2026-04-10T13:27:46.001Z</time></trkpt><trkpt lat="14.61787451062422" lon="121.00155233341981"><ele>17.0</ele><time>2026-04-10T13:27:48.001Z</time></trkpt><trkpt lat="14.617793209373538" lon="121.00150339952958"><ele>17.4</ele><time>2026-04-10T13:27:52.001Z</time></trkpt><trkpt lat="14.617709539666528" lon="121.00150809032102"><ele>17.799999999999997</ele><time>2026-04-10T13:27:53.001Z</time></trkpt><trkpt lat="14.617627066568646" lon="121.00147967401972"><ele>18.2</ele><time>2026-04-10T13:27:54.001Z</time></trkpt><trkpt lat="14.61755149714307" lon="121.00143557060294"><ele>18.599999999999998</ele><time>2026-04-10T13:27:55.001Z</time></trkpt><trkpt lat="14.617475037816277" lon="121.00137190858331"><ele>19.0</ele><time>2026-04-10T13:27:56.001Z</time></trkpt><trkpt lat="14.617401185424907" lon="121.00129161064324"><ele>19.0</ele><time>2026-04-10T13:27:57.001Z</time></trkpt><trkpt lat="14.617325861477715" lon="121.00120265724145"><ele>19.0</ele><time>2026-04-10T13:27:58.001Z</time></trkpt><trkpt lat="14.617244797831244" lon="121.00110621617989"><ele>19.0</ele><time>2026-04-10T13:27:59.001Z</time></trkpt><trkpt lat="14.617163923796758" lon="121.00101031515493"><ele>19.0</ele><time>2026-04-10T13:28:00Z</time></trkpt><trkpt lat="14.617081000376785" lon="121.0009094728198"><ele>19.75</ele><time>2026-04-10T13:28:01Z</time></trkpt><trkpt lat="14.616998062109658" lon="121.00081526378182"><ele>20.5</ele><time>2026-04-10T13:28:02Z</time></trkpt><trkpt lat="14.61691809323857" lon="121.00072188100047"><ele>21.25</ele><time>2026-04-10T13:28:03Z</time></trkpt><trkpt lat="14.616837584163083" lon="121.00062866234272"><ele>22.0</ele><time>2026-04-10T13:28:04Z</time></trkpt><trkpt lat="14.616754398232015" lon="121.00053099834653"><ele>22.0</ele><time>2026-04-10T13:28:05Z</time></trkpt><trkpt lat="14.616667609029186" lon="121.00043610031365"><ele>22.0</ele><time>2026-04-10T13:28:06Z</time></trkpt><trkpt lat="14.616583068349172" lon="121.0003488196303"><ele>22.0</ele><time>2026-04-10T13:28:07Z</time></trkpt><trkpt lat="14.616503291911528" lon="121.00025928908488"><ele>22.0</ele><time>2026-04-10T13:28:08Z</time></trkpt><trkpt lat="14.61642133549207" lon="121.0001635070544"><ele>22.0</ele><time>2026-04-10T13:28:09Z</time></trkpt><trkpt lat="14.616332947225926" lon="121.00006574938143"><ele>22.0</ele><time>2026-04-10T13:28:10Z</time></trkpt><trkpt lat="14.616245986686781" lon="120.99997063920817"><ele>22.0</ele><time>2026-04-10T13:28:11Z</time></trkpt><trkpt lat="14.616158560360969" lon="120.99987442276041"><ele>22.0</ele><time>2026-04-10T13:28:12Z</time></trkpt><trkpt lat="14.616078269777702" lon="120.99978164685247"><ele>20.0</ele><time>2026-04-10T13:28:13Z</time></trkpt><trkpt lat="14.616005032837379" lon="120.99969273330524"><ele>18.0</ele><time>2026-04-10T13:28:14Z</time></trkpt><trkpt lat="14.61593068049047" lon="120.99960838870305"><ele>16.0</ele><time>2026-04-10T13:28:15Z</time></trkpt><trkpt lat="14.615861726827065" lon="120.99953366750046"><ele>14.0</ele><time>2026-04-10T13:28:16Z</time></trkpt><trkpt lat="14.61580077080056" lon="120.99945766382272"><ele>12.0</ele><time>2026-04-10T13:28:17Z</time></trkpt><trkpt lat="14.615741546796496" lon="120.99938182162153"><ele>12.0</ele><time>2026-04-10T13:28:18Z</time></trkpt><trkpt lat="14.615685132868517" lon="120.9993152930373"><ele>12.0</ele><time>2026-04-10T13:28:19Z</time></trkpt><trkpt lat="14.615629305228076" lon="120.99925590553181"><ele>12.0</ele><time>2026-04-10T13:28:20Z</time></trkpt><trkpt lat="14.615581563448767" lon="120.99920167299156"><ele>12.0</ele><time>2026-04-10T13:28:21Z</time></trkpt><trkpt lat="14.615525892811462" lon="120.9991440469974"><ele>12.0</ele><time>2026-04-10T13:28:22Z</time></trkpt><trkpt lat="14.615467574631605" lon="120.99908249844553"><ele>12.0</ele><time>2026-04-10T13:28:23Z</time></trkpt><trkpt lat="14.615396888838843" lon="120.99901581409986"><ele>11.2</ele><time>2026-04-10T13:28:24Z</time></trkpt><trkpt lat="14.615323750611893" lon="120.99893778601282"><ele>10.399999999999999</ele><time>2026-04-10T13:28:25Z</time></trkpt><trkpt lat="14.615248726056182" lon="120.99885997603758"><ele>9.600000000000001</ele><time>2026-04-10T13:28:26Z</time></trkpt><trkpt lat="14.615168296626656" lon="120.99877202167923"><ele>8.8</ele><time>2026-04-10T13:28:27Z</time></trkpt><trkpt lat="14.615086516944645" lon="120.99868206094203"><ele>8.0</ele><time>2026-04-10T13:28:28Z</time></trkpt><trkpt lat="14.615004582527966" lon="120.99859120215304"><ele>8.0</ele><time>2026-04-10T13:28:29Z</time></trkpt><trkpt lat="14.614922522927346" lon="120.9985001365421"><ele>8.0</ele><time>2026-04-10T13:28:30Z</time></trkpt><trkpt lat="14.614833724409504" lon="120.99840896481948"><ele>8.0</ele><time>2026-04-10T13:28:31Z</time></trkpt><trkpt lat="14.614751572478642" lon="120.99831604890402"><ele>8.0</ele><time>2026-04-10T13:28:32Z</time></trkpt><trkpt lat="14.614668602772182" lon="120.9982229565152"><ele>8.0</ele><time>2026-04-10T13:28:33Z</time></trkpt><trkpt lat="14.614583754953795" lon="120.99812852294625"><ele>8.0</ele><time>2026-04-10T13:28:34Z</time></trkpt><trkpt lat="14.614503398295335" lon="120.99803849368875"><ele>8.0</ele><time>2026-04-10T13:28:35Z</time></trkpt><trkpt lat="14.614428772985532" lon="120.99795642562474"><ele>8.0</ele><time>2026-04-10T13:28:36Z</time></trkpt><trkpt lat="14.614358471283719" lon="120.99788287424924"><ele>8.0</ele><time>2026-04-10T13:28:37Z</time></trkpt><trkpt lat="14.61429286741939" lon="120.99780463436208"><ele>8.0</ele><time>2026-04-10T13:28:38Z</time></trkpt><trkpt lat="14.614216982488157" lon="120.99772870207552"><ele>8.0</ele><time>2026-04-10T13:28:39Z</time></trkpt><trkpt lat="14.614154815113709" lon="120.99766101593177"><ele>8.0</ele><time>2026-04-10T13:28:40Z</time></trkpt><trkpt lat="14.614094766523662" lon="120.99759880013379"><ele>8.0</ele><time>2026-04-10T13:28:41Z</time></trkpt><trkpt lat="14.614049745357946" lon="120.99754141754553"><ele>7.999999999999999</ele><time>2026-04-10T13:28:42Z</time></trkpt><trkpt lat="14.613992823057051" lon="120.99748443938098"><ele>8.0</ele><time>2026-04-10T13:28:43Z</time></trkpt><trkpt lat="14.613943596758602" lon="120.99742710256054"><ele>8.0</ele><time>2026-04-10T13:28:44Z</time></trkpt><trkpt lat="14.613881562185593" lon="120.99736370577813"><ele>8.0</ele><time>2026-04-10T13:28:45Z</time></trkpt><trkpt lat="14.613831486609532" lon="120.99730797296314"><ele>7.999999999999999</ele><time>2026-04-10T13:28:46Z</time></trkpt><trkpt lat="14.613781589860677" lon="120.99724706791348"><ele>8.0</ele><time>2026-04-10T13:28:47Z</time></trkpt><trkpt lat="14.613727842140499" lon="120.99718146374686"><ele>8.0</ele><time>2026-04-10T13:28:48Z</time></trkpt><trkpt lat="14.613669876772628" lon="120.9971119297538"><ele>8.0</ele><time>2026-04-10T13:28:49Z</time></trkpt><trkpt lat="14.61360947713003" lon="120.99704109559873"><ele>8.0</ele><time>2026-04-10T13:28:50Z</time></trkpt><trkpt lat="14.613541580381083" lon="120.99696779265493"><ele>8.0</ele><time>2026-04-10T13:28:51Z</time></trkpt><trkpt lat="14.613475291945978" lon="120.99689445579365"><ele>8.0</ele><time>2026-04-10T13:28:52Z</time></trkpt><trkpt lat="14.613406566797739" lon="120.99681588696335"><ele>8.0</ele><time>2026-04-10T13:28:53Z</time></trkpt><trkpt lat="14.613341103838264" lon="120.99674166927879"><ele>8.0</ele><time>2026-04-10T13:28:54Z</time></trkpt><trkpt lat="14.61326482600445" lon="120.99666467970316"><ele>8.0</ele><time>2026-04-10T13:28:55Z</time></trkpt><trkpt lat="14.613184663708019" lon="120.99658254992991"><ele>8.0</ele><time>2026-04-10T13:28:56Z</time></trkpt><trkpt lat="14.613111810314969" lon="120.99651107817277"><ele>8.0</ele><time>2026-04-10T13:28:57Z</time></trkpt><trkpt lat="14.61304384118283" lon="120.99644305447087"><ele>7.666666666666666</ele><time>2026-04-10T13:28:58Z</time></trkpt><trkpt lat="14.612990095172036" lon="120.99638205605521"><ele>7.333333333333333</ele><time>2026-04-10T13:28:59Z</time></trkpt><trkpt lat="14.612934183378918" lon="120.99632801958475"><ele>7.0</ele><time>2026-04-10T13:29:00Z</time></trkpt><trkpt lat="14.612882280281713" lon="120.99628314092465"><ele>6.666666666666666</ele><time>2026-04-10T13:29:01Z</time></trkpt><trkpt lat="14.612816413338335" lon="120.99621165875391"><ele>6.333333333333333</ele><time>2026-04-10T13:29:03Z</time></trkpt><trkpt lat="14.612766815858864" lon="120.9961591033229"><ele>6.0</ele><time>2026-04-10T13:29:04Z</time></trkpt><trkpt lat="14.612716357003904" lon="120.99609931253097"><ele>6.0</ele><time>2026-04-10T13:29:05Z</time></trkpt><trkpt lat="14.612663233030219" lon="120.9960413998943"><ele>6.0</ele><time>2026-04-10T13:29:06Z</time></trkpt><trkpt lat="14.612604893334138" lon="120.99597803346983"><ele>6.0</ele><time>2026-04-10T13:29:07Z</time></trkpt><trkpt lat="14.612540292145436" lon="120.9959047580255"><ele>6.0</ele><time>2026-04-10T13:29:08Z</time></trkpt><trkpt lat="14.612483951688937" lon="120.99583078057772"><ele>6.0</ele><time>2026-04-10T13:29:09Z</time></trkpt><trkpt lat="14.612421392393717" lon="120.99576421113488"><ele>6.0</ele><time>2026-04-10T13:29:10Z</time></trkpt><trkpt lat="14.612365241966678" lon="120.99571209976952"><ele>6.333333333333333</ele><time>2026-04-10T13:29:11Z</time></trkpt><trkpt lat="14.612313522381434" lon="120.99565152969846"><ele>6.666666666666666</ele><time>2026-04-10T13:29:12Z</time></trkpt><trkpt lat="14.61226153768871" lon="120.99559261370892"><ele>7.0</ele><time>2026-04-10T13:29:13Z</time></trkpt><trkpt lat="14.61221685214958" lon="120.99554096188699"><ele>7.333333333333333</ele><time>2026-04-10T13:29:14Z</time></trkpt><trkpt lat="14.612175264549297" lon="120.99549104563492"><ele>7.666666666666666</ele><time>2026-04-10T13:29:15Z</time></trkpt><trkpt lat="14.612109477466714" lon="120.9954197180242"><ele>8.0</ele><time>2026-04-10T13:29:17Z</time></trkpt><trkpt lat="14.612061252136279" lon="120.99536810664954"><ele>7.999999999999999</ele><time>2026-04-10T13:29:21Z</time></trkpt><trkpt lat="14.611995534681101" lon="120.99531283749376"><ele>8.0</ele><time>2026-04-10T13:29:53Z</time></trkpt><trkpt lat="14.61193836891238" lon="120.99525369254314"><ele>8.0</ele><time>2026-04-10T13:29:56Z</time></trkpt><trkpt lat="14.611884835615554" lon="120.99517505384378"><ele>8.0</ele><time>2026-04-10T13:29:59Z</time></trkpt><trkpt lat="14.611840305996617" lon="120.99512562967685"><ele>7.999999999999999</ele><time>2026-04-10T13:30:01Z</time></trkpt><trkpt lat="14.61178528936752" lon="120.99506536280953"><ele>8.0</ele><time>2026-04-10T13:30:03Z</time></trkpt><trkpt lat="14.611730579367986" lon="120.99500551018112"><ele>7.4</ele><time>2026-04-10T13:30:05Z</time></trkpt><trkpt lat="14.611655177862838" lon="120.99492149758784"><ele>6.800000000000001</ele><time>2026-04-10T13:30:07Z</time></trkpt><trkpt lat="14.61161088360019" lon="120.9948733506841"><ele>6.2</ele><time>2026-04-10T13:30:08Z</time></trkpt><trkpt lat="14.6115656947213" lon="120.99482423136001"><ele>5.6</ele><time>2026-04-10T13:30:09Z</time></trkpt><trkpt lat="14.611489612606274" lon="120.99474197464748"><ele>5.0</ele><time>2026-04-10T13:30:11Z</time></trkpt><trkpt lat="14.611411017471914" lon="120.99465567908521"><ele>5.0</ele><time>2026-04-10T13:30:13Z</time></trkpt><trkpt lat="14.611367088533774" lon="120.99460744650129"><ele>5.0</ele><time>2026-04-10T13:30:14Z</time></trkpt><trkpt lat="14.611284644507704" lon="120.9945181538027"><ele>5.0</ele><time>2026-04-10T13:30:16Z</time></trkpt><trkpt lat="14.61121841501277" lon="120.99444767029578"><ele>5.0</ele><time>2026-04-10T13:30:18Z</time></trkpt><trkpt lat="14.611146091135772" lon="120.99437006677788"><ele>5.0</ele><time>2026-04-10T13:30:20Z</time></trkpt><trkpt lat="14.611055380245661" lon="120.9942727260286"><ele>5.5</ele><time>2026-04-10T13:30:22Z</time></trkpt><trkpt lat="14.611004694406441" lon="120.99421833413328"><ele>6.0</ele><time>2026-04-10T13:30:23Z</time></trkpt><trkpt lat="14.610949957889542" lon="120.9941580051871"><ele>6.5</ele><time>2026-04-10T13:30:24Z</time></trkpt><trkpt lat="14.610893511023027" lon="120.9940961333002"><ele>7.0</ele><time>2026-04-10T13:30:25Z</time></trkpt><trkpt lat="14.610834014599435" lon="120.99403091870414"><ele>7.499999999999999</ele><time>2026-04-10T13:30:26Z</time></trkpt><trkpt lat="14.610771479276925" lon="120.9939623731885"><ele>8.0</ele><time>2026-04-10T13:30:27Z</time></trkpt><trkpt lat="14.610704382351445" lon="120.99388740106892"><ele>8.200000000000001</ele><time>2026-04-10T13:30:28Z</time></trkpt><trkpt lat="14.610641134622583" lon="120.99381650511094"><ele>8.4</ele><time>2026-04-10T13:30:29Z</time></trkpt><trkpt lat="14.610569664550745" lon="120.99373639291868"><ele>8.600000000000001</ele><time>2026-04-10T13:30:30Z</time></trkpt><trkpt lat="14.610503683006728" lon="120.99365991554103"><ele>8.8</ele><time>2026-04-10T13:30:31Z</time></trkpt><trkpt lat="14.61043696569693" lon="120.99358790446735"><ele>9.0</ele><time>2026-04-10T13:30:32Z</time></trkpt><trkpt lat="14.610367892734025" lon="120.99351135642827"><ele>8.666666666666666</ele><time>2026-04-10T13:30:33Z</time></trkpt><trkpt lat="14.610305069252165" lon="120.99344227113198"><ele>8.333333333333334</ele><time>2026-04-10T13:30:34Z</time></trkpt><trkpt lat="14.610244671843242" lon="120.99337646049074"><ele>8.0</ele><time>2026-04-10T13:30:35Z</time></trkpt><trkpt lat="14.610188674773317" lon="120.99331161571841"><ele>7.666666666666667</ele><time>2026-04-10T13:30:36Z</time></trkpt><trkpt lat="14.610133341832132" lon="120.99324897926311"><ele>7.333333333333334</ele><time>2026-04-10T13:30:37Z</time></trkpt><trkpt lat="14.610073614698425" lon="120.99318135243008"><ele>7.0</ele><time>2026-04-10T13:30:38Z</time></trkpt><trkpt lat="14.610019825069752" lon="120.99311982329236"><ele>6.666666666666667</ele><time>2026-04-10T13:30:39Z</time></trkpt><trkpt lat="14.609974062169615" lon="120.99306742603682"><ele>6.333333333333334</ele><time>2026-04-10T13:30:40Z</time></trkpt><trkpt lat="14.60992997474534" lon="120.99301636536535"><ele>6.0</ele><time>2026-04-10T13:30:41Z</time></trkpt><trkpt lat="14.609885390982488" lon="120.9929647298418"><ele>5.666666666666667</ele><time>2026-04-10T13:30:42Z</time></trkpt><trkpt lat="14.609804472436775" lon="120.99287214912673"><ele>5.333333333333334</ele><time>2026-04-10T13:30:44Z</time></trkpt><trkpt lat="14.609738553191496" lon="120.99279960533711"><ele>5.0</ele><time>2026-04-10T13:30:46Z</time></trkpt><trkpt lat="14.609539945906711" lon="120.9928946389419"><ele>5.0</ele><time>2026-04-10T13:30:49Z</time></trkpt><trkpt lat="14.609464293659245" lon="120.99294914096492"><ele>5.0</ele><time>2026-04-10T13:30:51Z</time></trkpt><trkpt lat="14.609378767546666" lon="120.99303157540629"><ele>5.0</ele><time>2026-04-10T13:30:53Z</time></trkpt><trkpt lat="14.609330457562749" lon="120.9930752806956"><ele>5.0</ele><time>2026-04-10T13:30:54Z</time></trkpt><trkpt lat="14.609279606473004" lon="120.99312435253499"><ele>5.0</ele><time>2026-04-10T13:30:55Z</time></trkpt><trkpt lat="14.609185489856126" lon="120.99321717152671"><ele>5.0</ele><time>2026-04-10T13:30:57Z</time></trkpt><trkpt lat="14.60912965761037" lon="120.99326896036045"><ele>5.0</ele><time>2026-04-10T13:30:58Z</time></trkpt><trkpt lat="14.609070891118193" lon="120.99332524773776"><ele>5.0</ele><time>2026-04-10T13:30:59Z</time></trkpt><trkpt lat="14.609006107021173" lon="120.99338673152998"><ele>5.0</ele><time>2026-04-10T13:31:00Z</time></trkpt><trkpt lat="14.608950005619725" lon="120.99345911579023"><ele>5.0</ele><time>2026-04-10T13:31:01Z</time></trkpt><trkpt lat="14.608879507040394" lon="120.9935255016747"><ele>5.0</ele><time>2026-04-10T13:31:02Z</time></trkpt><trkpt lat="14.608810429108873" lon="120.99358780923231"><ele>4.833333333333334</ele><time>2026-04-10T13:31:03Z</time></trkpt><trkpt lat="14.608755049347035" lon="120.99364007124399"><ele>4.666666666666667</ele><time>2026-04-10T13:31:04Z</time></trkpt><trkpt lat="14.60868628536655" lon="120.99369068588207"><ele>4.5</ele><time>2026-04-10T13:31:06Z</time></trkpt><trkpt lat="14.608625803593684" lon="120.99375333763956"><ele>4.333333333333333</ele><time>2026-04-10T13:31:08Z</time></trkpt><trkpt lat="14.608554217160359" lon="120.99380752759414"><ele>4.166666666666666</ele><time>2026-04-10T13:32:18Z</time></trkpt><trkpt lat="14.608494627730293" lon="120.9938785559107"><ele>4.0</ele><time>2026-04-10T13:32:20Z</time></trkpt><trkpt lat="14.608393433194761" lon="120.99398079552076"><ele>4.4</ele><time>2026-04-10T13:32:22Z</time></trkpt><trkpt lat="14.608329215103225" lon="120.9940412281492"><ele>4.800000000000001</ele><time>2026-04-10T13:32:23Z</time></trkpt><trkpt lat="14.608260433246196" lon="120.9941086215444"><ele>5.199999999999999</ele><time>2026-04-10T13:32:24Z</time></trkpt><trkpt lat="14.608198989977742" lon="120.99416954611948"><ele>5.6</ele><time>2026-04-10T13:32:25Z</time></trkpt><trkpt lat="14.608120067238357" lon="120.99425312724792"><ele>6.0</ele><time>2026-04-10T13:32:26Z</time></trkpt><trkpt lat="14.608039082816" lon="120.99432611756072"><ele>6.0</ele><time>2026-04-10T13:32:27Z</time></trkpt><trkpt lat="14.607963212721733" lon="120.99439709993635"><ele>6.0</ele><time>2026-04-10T13:32:28Z</time></trkpt><trkpt lat="14.6078925011525" lon="120.99446680636987"><ele>6.0</ele><time>2026-04-10T13:32:29Z</time></trkpt><trkpt lat="14.607820050409353" lon="120.99453777603166"><ele>6.0</ele><time>2026-04-10T13:32:30Z</time></trkpt><trkpt lat="14.607753588919993" lon="120.99460094749625"><ele>6.0</ele><time>2026-04-10T13:32:31Z</time></trkpt><trkpt lat="14.60769231230102" lon="120.99466018193193"><ele>6.4</ele><time>2026-04-10T13:32:32Z</time></trkpt><trkpt lat="14.607633657797324" lon="120.99471367084378"><ele>6.8</ele><time>2026-04-10T13:32:33Z</time></trkpt><trkpt lat="14.607587904361742" lon="120.99476165903454"><ele>7.200000000000001</ele><time>2026-04-10T13:32:34Z</time></trkpt><trkpt lat="14.607505034413416" lon="120.99484120661515"><ele>7.6000000000000005</ele><time>2026-04-10T13:32:36Z</time></trkpt><trkpt lat="14.60740431975675" lon="120.99492683968518"><ele>8.0</ele><time>2026-04-10T13:32:38Z</time></trkpt><trkpt lat="14.607353467573205" lon="120.9949778410842"><ele>7.571428571428571</ele><time>2026-04-10T13:32:39Z</time></trkpt><trkpt lat="14.607296921955934" lon="120.99502598582185"><ele>7.142857142857142</ele><time>2026-04-10T13:32:40Z</time></trkpt><trkpt lat="14.607248901397702" lon="120.99507489045932"><ele>6.7142857142857135</ele><time>2026-04-10T13:32:41Z</time></trkpt><trkpt lat="14.607199393871667" lon="120.9951234475252"><ele>6.285714285714286</ele><time>2026-04-10T13:32:42Z</time></trkpt><trkpt lat="14.607149538506953" lon="120.99516796471629"><ele>5.857142857142858</ele><time>2026-04-10T13:32:43Z</time></trkpt><trkpt lat="14.607102644251112" lon="120.99521543634789"><ele>5.428571428571429</ele><time>2026-04-10T13:32:44Z</time></trkpt><trkpt lat="14.607053764940696" lon="120.99526596722215"><ele>5.0</ele><time>2026-04-10T13:32:45Z</time></trkpt><trkpt lat="14.606996566958378" lon="120.99531780722263"><ele>5.333333333333334</ele><time>2026-04-10T13:32:46Z</time></trkpt><trkpt lat="14.60693634449652" lon="120.99537305430383"><ele>5.666666666666667</ele><time>2026-04-10T13:32:47Z</time></trkpt><trkpt lat="14.606875723703322" lon="120.99543855661565"><ele>6.0</ele><time>2026-04-10T13:32:48Z</time></trkpt><trkpt lat="14.606811096656735" lon="120.99549768579462"><ele>6.333333333333334</ele><time>2026-04-10T13:32:49Z</time></trkpt><trkpt lat="14.606749844647187" lon="120.99556388400973"><ele>6.666666666666667</ele><time>2026-04-10T13:32:50Z</time></trkpt><trkpt lat="14.606689601820172" lon="120.9956171370557"><ele>7.0</ele><time>2026-04-10T13:32:51Z</time></trkpt><trkpt lat="14.60662621928934" lon="120.99568799133748"><ele>7.000000000000001</ele><time>2026-04-10T13:32:52Z</time></trkpt><trkpt lat="14.606557409451788" lon="120.99575278726502"><ele>7.0</ele><time>2026-04-10T13:32:53Z</time></trkpt><trkpt lat="14.606485531367888" lon="120.99582041477447"><ele>7.0</ele><time>2026-04-10T13:32:54Z</time></trkpt><trkpt lat="14.606414635433781" lon="120.99588278363771"><ele>7.0</ele><time>2026-04-10T13:32:55Z</time></trkpt><trkpt lat="14.606350037165063" lon="120.99594460329348"><ele>7.000000000000001</ele><time>2026-04-10T13:32:56Z</time></trkpt><trkpt lat="14.606295415083673" lon="120.99600167893357"><ele>7.0</ele><time>2026-04-10T13:32:57Z</time></trkpt><trkpt lat="14.606231506701592" lon="120.99605741118924"><ele>6.8</ele><time>2026-04-10T13:32:58Z</time></trkpt><trkpt lat="14.606168775947419" lon="120.99611555273711"><ele>6.6</ele><time>2026-04-10T13:32:59Z</time></trkpt><trkpt lat="14.606104410649811" lon="120.99617783005691"><ele>6.3999999999999995</ele><time>2026-04-10T13:33:00Z</time></trkpt><trkpt lat="14.606041487333565" lon="120.99624170614128"><ele>6.199999999999999</ele><time>2026-04-10T13:33:01Z</time></trkpt><trkpt lat="14.605969499633497" lon="120.99630653671564"><ele>6.0</ele><time>2026-04-10T13:33:02Z</time></trkpt><trkpt lat="14.605899707799045" lon="120.99637255769521"><ele>6.4</ele><time>2026-04-10T13:33:03Z</time></trkpt><trkpt lat="14.605829418792565" lon="120.99645007495955"><ele>6.8</ele><time>2026-04-10T13:33:04Z</time></trkpt><trkpt lat="14.6057590212361" lon="120.99653042045931"><ele>7.200000000000001</ele><time>2026-04-10T13:33:05Z</time></trkpt><trkpt lat="14.60568627156755" lon="120.99660813671721"><ele>7.6000000000000005</ele><time>2026-04-10T13:33:06Z</time></trkpt><trkpt lat="14.605604649081688" lon="120.99668796444205"><ele>8.0</ele><time>2026-04-10T13:33:07Z</time></trkpt><trkpt lat="14.605525327491728" lon="120.9967712390878"><ele>8.0</ele><time>2026-04-10T13:33:08Z</time></trkpt><trkpt lat="14.605440367623187" lon="120.99683872256128"><ele>8.0</ele><time>2026-04-10T13:33:09Z</time></trkpt><trkpt lat="14.605368298494128" lon="120.99689860810967"><ele>8.0</ele><time>2026-04-10T13:33:10Z</time></trkpt><trkpt lat="14.60529675617291" lon="120.99696853044271"><ele>8.0</ele><time>2026-04-10T13:33:11Z</time></trkpt><trkpt lat="14.605242803609462" lon="120.9970232274482"><ele>8.0</ele><time>2026-04-10T13:33:12Z</time></trkpt><trkpt lat="14.60517356772623" lon="120.99707814247509"><ele>7.999999999999999</ele><time>2026-04-10T13:33:13Z</time></trkpt><trkpt lat="14.605111202131718" lon="120.99713196004451"><ele>8.0</ele><time>2026-04-10T13:33:14Z</time></trkpt><trkpt lat="14.605049404839924" lon="120.997180426562"><ele>8.0</ele><time>2026-04-10T13:33:15Z</time></trkpt><trkpt lat="14.60498483294533" lon="120.99723433238009"><ele>8.0</ele><time>2026-04-10T13:33:16Z</time></trkpt><trkpt lat="14.604920969598627" lon="120.99729687925691"><ele>7.999999999999999</ele><time>2026-04-10T13:33:17Z</time></trkpt><trkpt lat="14.604845779794974" lon="120.99735976457806"><ele>8.0</ele><time>2026-04-10T13:33:18Z</time></trkpt><trkpt lat="14.60477139206146" lon="120.99741292180123"><ele>8.0</ele><time>2026-04-10T13:33:19Z</time></trkpt><trkpt lat="14.604708030132382" lon="120.99745719970441"><ele>8.0</ele><time>2026-04-10T13:33:20Z</time></trkpt><trkpt lat="14.604599778729344" lon="120.99750499780167"><ele>8.0</ele><time>2026-04-10T13:33:22Z</time></trkpt><trkpt lat="14.604491607725627" lon="120.9975689860967"><ele>8.0</ele><time>2026-04-10T13:33:24Z</time></trkpt><trkpt lat="14.60442706793889" lon="120.99760716443296"><ele>8.0</ele><time>2026-04-10T13:33:25Z</time></trkpt><trkpt lat="14.604355318772066" lon="120.99764960748935"><ele>7.333333333333333</ele><time>2026-04-10T13:33:26Z</time></trkpt><trkpt lat="14.60429517158504" lon="120.99770013466616"><ele>6.666666666666666</ele><time>2026-04-10T13:33:27Z</time></trkpt><trkpt lat="14.604228189988632" lon="120.99772213047704"><ele>6.0</ele><time>2026-04-10T13:33:28Z</time></trkpt><trkpt lat="14.604112057093618" lon="120.99778999115092"><ele>5.333333333333333</ele><time>2026-04-10T13:33:29Z</time></trkpt><trkpt lat="14.604036544763822" lon="120.99782781982195"><ele>4.666666666666666</ele><time>2026-04-10T13:33:30Z</time></trkpt><trkpt lat="14.603971111403682" lon="120.99786019717497"><ele>4.0</ele><time>2026-04-10T13:33:31Z</time></trkpt><trkpt lat="14.603854797082729" lon="120.99791688253721"><ele>3.9999999999999996</ele><time>2026-04-10T13:33:33Z</time></trkpt><trkpt lat="14.603785027137498" lon="120.99795021900157"><ele>4.0</ele><time>2026-04-10T13:33:34Z</time></trkpt><trkpt lat="14.603714129927042" lon="120.99798702477973"><ele>4.0</ele><time>2026-04-10T13:33:35Z</time></trkpt><trkpt lat="14.603641621371361" lon="120.99802893226816"><ele>4.0</ele><time>2026-04-10T13:33:36Z</time></trkpt><trkpt lat="14.60356347903606" lon="120.99807053737663"><ele>3.9999999999999996</ele><time>2026-04-10T13:33:37Z</time></trkpt><trkpt lat="14.603484273132276" lon="120.99810946266166"><ele>4.0</ele><time>2026-04-10T13:33:38Z</time></trkpt><trkpt lat="14.603400614192298" lon="120.9981449490638"><ele>4.0</ele><time>2026-04-10T13:33:39Z</time></trkpt><trkpt lat="14.603308678487645" lon="120.99819723840949"><ele>4.0</ele><time>2026-04-10T13:33:40Z</time></trkpt><trkpt lat="14.60322488326003" lon="120.99824024437443"><ele>4.0</ele><time>2026-04-10T13:33:41Z</time></trkpt><trkpt lat="14.603136594691705" lon="120.99828354332499"><ele>4.0</ele><time>2026-04-10T13:33:42Z</time></trkpt><trkpt lat="14.60305073648266" lon="120.99832562254002"><ele>4.0</ele><time>2026-04-10T13:33:43Z</time></trkpt><trkpt lat="14.602963621417075" lon="120.99837581582929"><ele>4.800000000000001</ele><time>2026-04-10T13:33:44Z</time></trkpt><trkpt lat="14.602882994612276" lon="120.9984197904396"><ele>5.6000000000000005</ele><time>2026-04-10T13:33:45Z</time></trkpt><trkpt lat="14.602800581323821" lon="120.99846738783543"><ele>6.4</ele><time>2026-04-10T13:33:46Z</time></trkpt><trkpt lat="14.602730431924106" lon="120.99849741820957"><ele>7.2</ele><time>2026-04-10T13:33:47Z</time></trkpt><trkpt lat="14.602572448723938" lon="120.99853256274315"><ele>8.0</ele><time>2026-04-10T13:33:49Z</time></trkpt><trkpt lat="14.60247868298932" lon="120.99862466067114"><ele>8.0</ele><time>2026-04-10T13:33:50Z</time></trkpt><trkpt lat="14.602394005829387" lon="120.99866803792486"><ele>8.0</ele><time>2026-04-10T13:33:51Z</time></trkpt><trkpt lat="14.602304990249829" lon="120.9987087276637"><ele>8.0</ele><time>2026-04-10T13:33:52Z</time></trkpt><trkpt lat="14.602218841382934" lon="120.99875542880159"><ele>8.0</ele><time>2026-04-10T13:33:53Z</time></trkpt><trkpt lat="14.60212961206456" lon="120.99879839535525"><ele>8.0</ele><time>2026-04-10T13:33:54Z</time></trkpt><trkpt lat="14.60204257422225" lon="120.9988443941125"><ele>7.6000000000000005</ele><time>2026-04-10T13:33:55Z</time></trkpt><trkpt lat="14.60195602750411" lon="120.99888845303256"><ele>7.200000000000001</ele><time>2026-04-10T13:33:56Z</time></trkpt><trkpt lat="14.601879498289447" lon="120.99892665343052"><ele>6.8</ele><time>2026-04-10T13:33:57Z</time></trkpt><trkpt lat="14.60179824860643" lon="120.9989695305841"><ele>6.4</ele><time>2026-04-10T13:33:58Z</time></trkpt><trkpt lat="14.60171419205307" lon="120.9990139009084"><ele>6.0</ele><time>2026-04-10T13:33:59Z</time></trkpt><trkpt lat="14.601630281355567" lon="120.99905455664364"><ele>6.0</ele><time>2026-04-10T13:34:00Z</time></trkpt><trkpt lat="14.601549216373806" lon="120.99909490362175"><ele>6.0</ele><time>2026-04-10T13:34:01Z</time></trkpt><trkpt lat="14.601466810585558" lon="120.99913450889531"><ele>6.0</ele><time>2026-04-10T13:34:02Z</time></trkpt><trkpt lat="14.601393393343631" lon="120.99917312319735"><ele>6.0</ele><time>2026-04-10T13:34:03Z</time></trkpt><trkpt lat="14.601322564285773" lon="120.99920900397211"><ele>6.0</ele><time>2026-04-10T13:34:04Z</time></trkpt><trkpt lat="14.601235968086238" lon="120.99925140972518"><ele>6.0</ele><time>2026-04-10T13:34:05Z</time></trkpt><trkpt lat="14.601148367093987" lon="120.99929589790035"><ele>6.75</ele><time>2026-04-10T13:34:06Z</time></trkpt><trkpt lat="14.601048328649869" lon="120.99934703427614"><ele>7.5</ele><time>2026-04-10T13:34:07Z</time></trkpt><trkpt lat="14.600952647851955" lon="120.99940108625046"><ele>8.25</ele><time>2026-04-10T13:34:08Z</time></trkpt><trkpt lat="14.600846813424287" lon="120.99946342736938"><ele>9.0</ele><time>2026-04-10T13:34:09Z</time></trkpt><trkpt lat="14.600738206442655" lon="120.99952691859845"><ele>9.0</ele><time>2026-04-10T13:34:10Z</time></trkpt><trkpt lat="14.600614950324573" lon="120.99959388722799"><ele>9.0</ele><time>2026-04-10T13:34:11Z</time></trkpt><trkpt lat="14.600489520831454" lon="120.99965785719546"><ele>9.0</ele><time>2026-04-10T13:34:12Z</time></trkpt><trkpt lat="14.60037137575098" lon="120.99972336102225"><ele>9.0</ele><time>2026-04-10T13:34:13Z</time></trkpt><trkpt lat="14.600254436761738" lon="120.99978119935768"><ele>7.75</ele><time>2026-04-10T13:34:14Z</time></trkpt><trkpt lat="14.600150374645386" lon="120.99983968965843"><ele>6.5</ele><time>2026-04-10T13:34:15Z</time></trkpt><trkpt lat="14.600040565995538" lon="120.9999027674993"><ele>5.25</ele><time>2026-04-10T13:34:16Z</time></trkpt><trkpt lat="14.59992599022927" lon="120.99996103113412"><ele>4.0</ele><time>2026-04-10T13:34:17Z</time></trkpt><trkpt lat="14.599803153495214" lon="121.0000159318342"><ele>4.0</ele><time>2026-04-10T13:34:18Z</time></trkpt><trkpt lat="14.599684160668472" lon="121.00008297590081"><ele>4.0</ele><time>2026-04-10T13:34:19Z</time></trkpt><trkpt lat="14.599555390811378" lon="121.00014106994729"><ele>4.0</ele><time>2026-04-10T13:34:20Z</time></trkpt><trkpt lat="14.599428685984904" lon="121.00019846444208"><ele>4.0</ele><time>2026-04-10T13:34:21Z</time></trkpt><trkpt lat="14.599310988189423" lon="121.00025696733373"><ele>4.25</ele><time>2026-04-10T13:34:22Z</time></trkpt><trkpt lat="14.59919069058517" lon="121.00031677729335"><ele>4.5</ele><time>2026-04-10T13:34:23Z</time></trkpt><trkpt lat="14.5990697648053" lon="121.00037789012464"><ele>4.75</ele><time>2026-04-10T13:34:24Z</time></trkpt><trkpt lat="14.598944122833979" lon="121.00043944789768"><ele>5.0</ele><time>2026-04-10T13:34:25Z</time></trkpt><trkpt lat="14.598820530270666" lon="121.00050227286387"><ele>5.0</ele><time>2026-04-10T13:34:26Z</time></trkpt><trkpt lat="14.598707310478945" lon="121.00056317983524"><ele>5.0</ele><time>2026-04-10T13:34:27Z</time></trkpt><trkpt lat="14.598579668361468" lon="121.000626849216"><ele>5.0</ele><time>2026-04-10T13:34:28Z</time></trkpt><trkpt lat="14.598460593433016" lon="121.00069327237524"><ele>5.0</ele><time>2026-04-10T13:34:29Z</time></trkpt><trkpt lat="14.59833737087182" lon="121.00076374648411"><ele>5.5</ele><time>2026-04-10T13:34:30Z</time></trkpt><trkpt lat="14.598210523873764" lon="121.0008316331088"><ele>6.0</ele><time>2026-04-10T13:34:31Z</time></trkpt><trkpt lat="14.598081027343206" lon="121.00089721859834"><ele>6.5</ele><time>2026-04-10T13:34:32Z</time></trkpt><trkpt lat="14.597952873581074" lon="121.0009591562286"><ele>7.0</ele><time>2026-04-10T13:34:33Z</time></trkpt><trkpt lat="14.597820758467373" lon="121.00102315400356"><ele>7.0</ele><time>2026-04-10T13:34:34Z</time></trkpt><trkpt lat="14.597690274893852" lon="121.00108179387996"><ele>7.0</ele><time>2026-04-10T13:34:35Z</time></trkpt><trkpt lat="14.597555125370487" lon="121.00114064018331"><ele>7.0</ele><time>2026-04-10T13:34:36Z</time></trkpt><trkpt lat="14.597413238637301" lon="121.00119275180279"><ele>7.0</ele><time>2026-04-10T13:34:37Z</time></trkpt><trkpt lat="14.597265993481672" lon="121.0012346031073"><ele>7.0</ele><time>2026-04-10T13:34:38Z</time></trkpt><trkpt lat="14.59711708952464" lon="121.00127275814917"><ele>7.0</ele><time>2026-04-10T13:34:39Z</time></trkpt><trkpt lat="14.596962307087267" lon="121.00130517352054"><ele>7.0</ele><time>2026-04-10T13:34:40Z</time></trkpt><trkpt lat="14.596810139597585" lon="121.00133312749995"><ele>5.666666666666667</ele><time>2026-04-10T13:34:41Z</time></trkpt><trkpt lat="14.596648307159178" lon="121.00134842769414"><ele>4.333333333333334</ele><time>2026-04-10T13:34:42Z</time></trkpt><trkpt lat="14.59648523600047" lon="121.00135486094301"><ele>3.0</ele><time>2026-04-10T13:34:43Z</time></trkpt><trkpt lat="14.596330276665066" lon="121.0013641907046"><ele>3.0</ele><time>2026-04-10T13:34:44Z</time></trkpt><trkpt lat="14.596181326178897" lon="121.00137199328653"><ele>3.0</ele><time>2026-04-10T13:34:45Z</time></trkpt><trkpt lat="14.596041643784536" lon="121.00137935518107"><ele>3.0</ele><time>2026-04-10T13:34:46Z</time></trkpt><trkpt lat="14.59591024554701" lon="121.0013847733016"><ele>3.0</ele><time>2026-04-10T13:34:47Z</time></trkpt><trkpt lat="14.59578977836886" lon="121.0013912803708"><ele>3.4</ele><time>2026-04-10T13:34:48Z</time></trkpt><trkpt lat="14.595672651759886" lon="121.0013974007974"><ele>3.8</ele><time>2026-04-10T13:34:49Z</time></trkpt><trkpt lat="14.595569721104667" lon="121.00140331550716"><ele>4.2</ele><time>2026-04-10T13:34:50Z</time></trkpt><trkpt lat="14.595477943764138" lon="121.00140990876002"><ele>4.6</ele><time>2026-04-10T13:34:51Z</time></trkpt><trkpt lat="14.595388857251569" lon="121.00140755437523"><ele>5.0</ele><time>2026-04-10T13:34:52Z</time></trkpt><trkpt lat="14.595300536968665" lon="121.0014047946763"><ele>6.0</ele><time>2026-04-10T13:34:53Z</time></trkpt><trkpt lat="14.595206924332734" lon="121.00140927719117"><ele>7.0</ele><time>2026-04-10T13:34:54Z</time></trkpt><trkpt lat="14.595113140335783" lon="121.00141253670297"><ele>8.0</ele><time>2026-04-10T13:34:55Z</time></trkpt><trkpt lat="14.595017935074132" lon="121.00141509953914"><ele>9.0</ele><time>2026-04-10T13:34:56Z</time></trkpt><trkpt lat="14.5949258728081" lon="121.00142484933762"><ele>10.0</ele><time>2026-04-10T13:34:57Z</time></trkpt><trkpt lat="14.594834596897796" lon="121.00143333330399"><ele>10.0</ele><time>2026-04-10T13:34:58Z</time></trkpt><trkpt lat="14.594752136819976" lon="121.00143949158482"><ele>10.0</ele><time>2026-04-10T13:34:59Z</time></trkpt><trkpt lat="14.594673877916502" lon="121.00144407569223"><ele>10.0</ele><time>2026-04-10T13:35:00Z</time></trkpt><trkpt lat="14.594598111609864" lon="121.00145052887221"><ele>10.0</ele><time>2026-04-10T13:35:01Z</time></trkpt><trkpt lat="14.594519774044363" lon="121.00145723453771"><ele>10.0</ele><time>2026-04-10T13:35:02Z</time></trkpt><trkpt lat="14.594436625500185" lon="121.00146266106239"><ele>10.0</ele><time>2026-04-10T13:35:03Z</time></trkpt><trkpt lat="14.594360914508822" lon="121.00146831860485"><ele>9.166666666666668</ele><time>2026-04-10T13:35:04Z</time></trkpt><trkpt lat="14.594283145616913" lon="121.0014749627323"><ele>8.333333333333334</ele><time>2026-04-10T13:35:05Z</time></trkpt><trkpt lat="14.59420407566348" lon="121.00147935526839"><ele>7.5</ele><time>2026-04-10T13:35:06Z</time></trkpt><trkpt lat="14.59412676471893" lon="121.00148436642404"><ele>6.666666666666667</ele><time>2026-04-10T13:35:07Z</time></trkpt><trkpt lat="14.59404523366474" lon="121.00148909371495"><ele>5.833333333333334</ele><time>2026-04-10T13:35:08Z</time></trkpt><trkpt lat="14.59396595294156" lon="121.00149453440905"><ele>5.0</ele><time>2026-04-10T13:35:09Z</time></trkpt><trkpt lat="14.593893647111898" lon="121.00149885126928"><ele>5.0</ele><time>2026-04-10T13:35:10Z</time></trkpt><trkpt lat="14.593819536298964" lon="121.00150548243857"><ele>5.0</ele><time>2026-04-10T13:35:11Z</time></trkpt><trkpt lat="14.593746621535082" lon="121.00150955021219"><ele>5.0</ele><time>2026-04-10T13:35:12Z</time></trkpt><trkpt lat="14.593670472856042" lon="121.00151593605939"><ele>5.0</ele><time>2026-04-10T13:35:13Z</time></trkpt><trkpt lat="14.593600747704915" lon="121.00151794561094"><ele>5.0</ele><time>2026-04-10T13:35:14Z</time></trkpt><trkpt lat="14.593526940785935" lon="121.00152251960016"><ele>5.0</ele><time>2026-04-10T13:35:15Z</time></trkpt><trkpt lat="14.593453038275674" lon="121.00152896924281"><ele>5.0</ele><time>2026-04-10T13:35:16Z</time></trkpt><trkpt lat="14.593383016384731" lon="121.00153066225519"><ele>6.0</ele><time>2026-04-10T13:35:17Z</time></trkpt><trkpt lat="14.59327359854599" lon="121.00153861344387"><ele>7.0</ele><time>2026-04-10T13:35:19Z</time></trkpt><trkpt lat="14.593203132241667" lon="121.00154696555433"><ele>8.0</ele><time>2026-04-10T13:35:21Z</time></trkpt><trkpt lat="14.593124220098355" lon="121.00156367996496"><ele>9.0</ele><time>2026-04-10T13:36:08Z</time></trkpt><trkpt lat="14.593005621196856" lon="121.00156150037267"><ele>10.0</ele><time>2026-04-10T13:36:10Z</time></trkpt><trkpt lat="14.592883086937386" lon="121.0015632754064"><ele>8.6</ele><time>2026-04-10T13:36:12Z</time></trkpt><trkpt lat="14.592793190859911" lon="121.00156318347587"><ele>7.2</ele><time>2026-04-10T13:36:13Z</time></trkpt><trkpt lat="14.5926404952215" lon="121.00157253391116"><ele>5.8</ele><time>2026-04-10T13:36:15Z</time></trkpt><trkpt lat="14.592539763339262" lon="121.00157520029067"><ele>4.4</ele><time>2026-04-10T13:36:16Z</time></trkpt><trkpt lat="14.592443526139139" lon="121.00158357739762"><ele>3.0</ele><time>2026-04-10T13:36:17Z</time></trkpt><trkpt lat="14.592347120477715" lon="121.00159193504832"><ele>3.0</ele><time>2026-04-10T13:36:18Z</time></trkpt><trkpt lat="14.592249923883452" lon="121.00159758362673"><ele>3.0</ele><time>2026-04-10T13:36:19Z</time></trkpt><trkpt lat="14.592153804902841" lon="121.00160057097317"><ele>3.0</ele><time>2026-04-10T13:36:20Z</time></trkpt><trkpt lat="14.59205477576908" lon="121.00160494753506"><ele>3.0</ele><time>2026-04-10T13:36:21Z</time></trkpt><trkpt lat="14.591944449299119" lon="121.00161304361893"><ele>3.0</ele><time>2026-04-10T13:36:22Z</time></trkpt><trkpt lat="14.591827304805154" lon="121.0016212554458"><ele>3.0</ele><time>2026-04-10T13:36:23Z</time></trkpt><trkpt lat="14.591707007473424" lon="121.00163711675097"><ele>3.0</ele><time>2026-04-10T13:36:24Z</time></trkpt><trkpt lat="14.591582137066482" lon="121.00164935293036"><ele>3.0</ele><time>2026-04-10T13:36:25Z</time></trkpt><trkpt lat="14.591456241714067" lon="121.00166181555787"><ele>3.0</ele><time>2026-04-10T13:36:26Z</time></trkpt><trkpt lat="14.591329577125695" lon="121.0016726249289"><ele>3.25</ele><time>2026-04-10T13:36:27Z</time></trkpt><trkpt lat="14.591200700205711" lon="121.00168521916439"><ele>3.5</ele><time>2026-04-10T13:36:28Z</time></trkpt><trkpt lat="14.59106931860487" lon="121.0016978635219"><ele>3.75</ele><time>2026-04-10T13:36:29Z</time></trkpt><trkpt lat="14.590935754862432" lon="121.0017095462182"><ele>4.0</ele><time>2026-04-10T13:36:30Z</time></trkpt><trkpt lat="14.5908020319808" lon="121.00171950434189"><ele>4.25</ele><time>2026-04-10T13:36:31Z</time></trkpt><trkpt lat="14.590674540610207" lon="121.00172853327439"><ele>4.5</ele><time>2026-04-10T13:36:32Z</time></trkpt><trkpt lat="14.590545985887656" lon="121.00172119778765"><ele>4.75</ele><time>2026-04-10T13:36:33Z</time></trkpt><trkpt lat="14.590422647031115" lon="121.00172770838155"><ele>5.0</ele><time>2026-04-10T13:36:34Z</time></trkpt><trkpt lat="14.590293035311083" lon="121.00173409536221"><ele>5.25</ele><time>2026-04-10T13:36:35Z</time></trkpt><trkpt lat="14.590167615240015" lon="121.00174027579172"><ele>5.5</ele><time>2026-04-10T13:36:36Z</time></trkpt><trkpt lat="14.590037786851909" lon="121.00175233097247"><ele>5.75</ele><time>2026-04-10T13:36:37Z</time></trkpt><trkpt lat="14.58992082520846" lon="121.00177701292968"><ele>6.0</ele><time>2026-04-10T13:36:38Z</time></trkpt><trkpt lat="14.589797076059115" lon="121.00178219449786"><ele>6.0</ele><time>2026-04-10T13:36:39Z</time></trkpt><trkpt lat="14.589669380678783" lon="121.00179286324288"><ele>6.0</ele><time>2026-04-10T13:36:40Z</time></trkpt><trkpt lat="14.589537372639303" lon="121.00180387787987"><ele>6.0</ele><time>2026-04-10T13:36:41Z</time></trkpt><trkpt lat="14.589406321742079" lon="121.00180120759192"><ele>6.0</ele><time>2026-04-10T13:36:42Z</time></trkpt><trkpt lat="14.589275031199255" lon="121.00181306467755"><ele>6.0</ele><time>2026-04-10T13:36:43Z</time></trkpt><trkpt lat="14.58914005199495" lon="121.00182371902119"><ele>6.0</ele><time>2026-04-10T13:36:44Z</time></trkpt><trkpt lat="14.589021595030388" lon="121.00182154824975"><ele>6.0</ele><time>2026-04-10T13:36:45Z</time></trkpt><trkpt lat="14.588923971902474" lon="121.00180830007248"><ele>6.0</ele><time>2026-04-10T13:36:46Z</time></trkpt><trkpt lat="14.588770343162587" lon="121.00183882510778"><ele>6.0</ele><time>2026-04-10T13:36:47Z</time></trkpt><trkpt lat="14.58864738374706" lon="121.00184256300216"><ele>6.0</ele><time>2026-04-10T13:36:48Z</time></trkpt><trkpt lat="14.588552812742972" lon="121.0018486188543"><ele>6.0</ele><time>2026-04-10T13:36:49Z</time></trkpt><trkpt lat="14.588461309207622" lon="121.00185268135614"><ele>6.0</ele><time>2026-04-10T13:36:50Z</time></trkpt><trkpt lat="14.588342139807175" lon="121.00185744338523"><ele>6.0</ele><time>2026-04-10T13:36:51Z</time></trkpt><trkpt lat="14.5882112948905" lon="121.00186242084227"><ele>6.0</ele><time>2026-04-10T13:36:52Z</time></trkpt><trkpt lat="14.588107553610822" lon="121.00186668370719"><ele>6.0</ele><time>2026-04-10T13:36:53Z</time></trkpt><trkpt lat="14.588014598181985" lon="121.00186396917175"><ele>6.0</ele><time>2026-04-10T13:36:54Z</time></trkpt><trkpt lat="14.587883238864881" lon="121.00189133781409"><ele>6.0</ele><time>2026-04-10T13:36:56Z</time></trkpt><trkpt lat="14.587750766491352" lon="121.00188362154906"><ele>6.8</ele><time>2026-04-10T13:36:57Z</time></trkpt><trkpt lat="14.587659920390648" lon="121.00188437772081"><ele>7.6</ele><time>2026-04-10T13:36:58Z</time></trkpt><trkpt lat="14.587562737679297" lon="121.00188884722417"><ele>8.4</ele><time>2026-04-10T13:36:59Z</time></trkpt><trkpt lat="14.587462779652832" lon="121.00189034375485"><ele>9.2</ele><time>2026-04-10T13:37:00Z</time></trkpt><trkpt lat="14.587354689592784" lon="121.0018951761053"><ele>10.0</ele><time>2026-04-10T13:37:01Z</time></trkpt><trkpt lat="14.587241359477742" lon="121.00190375900652"><ele>10.0</ele><time>2026-04-10T13:37:02Z</time></trkpt><trkpt lat="14.587124788442061" lon="121.00191149209506"><ele>10.0</ele><time>2026-04-10T13:37:03Z</time></trkpt><trkpt lat="14.587001502319467" lon="121.00192170465046"><ele>10.0</ele><time>2026-04-10T13:37:04Z</time></trkpt><trkpt lat="14.586888221638505" lon="121.00192891974814"><ele>10.0</ele><time>2026-04-10T13:37:05Z</time></trkpt><trkpt lat="14.586773173590975" lon="121.00193656443528"><ele>10.0</ele><time>2026-04-10T13:37:06Z</time></trkpt><trkpt lat="14.586652078073767" lon="121.00193945930661"><ele>10.0</ele><time>2026-04-10T13:37:07Z</time></trkpt><trkpt lat="14.586525890611993" lon="121.00193781680517"><ele>10.0</ele><time>2026-04-10T13:37:08Z</time></trkpt><trkpt lat="14.586402701907273" lon="121.00193421916423"><ele>10.0</ele><time>2026-04-10T13:37:09Z</time></trkpt><trkpt lat="14.586291870668536" lon="121.00193746042208"><ele>10.0</ele><time>2026-04-10T13:37:10Z</time></trkpt><trkpt lat="14.586184124420344" lon="121.00193876170064"><ele>10.0</ele><time>2026-04-10T13:37:11Z</time></trkpt><trkpt lat="14.586080148803358" lon="121.0019419174827"><ele>10.0</ele><time>2026-04-10T13:37:12Z</time></trkpt><trkpt lat="14.586000802040589" lon="121.00194834314581"><ele>10.0</ele><time>2026-04-10T13:37:13Z</time></trkpt><trkpt lat="14.585911142488905" lon="121.00195280236257"><ele>10.0</ele><time>2026-04-10T13:37:14Z</time></trkpt><trkpt lat="14.585817364860942" lon="121.00196329634363"><ele>9.6</ele><time>2026-04-10T13:37:15Z</time></trkpt><trkpt lat="14.585707209843637" lon="121.00197007001175"><ele>9.2</ele><time>2026-04-10T13:37:16Z</time></trkpt><trkpt lat="14.585596850647109" lon="121.00197483935088"><ele>8.8</ele><time>2026-04-10T13:37:17Z</time></trkpt><trkpt lat="14.585505821085501" lon="121.00196856607698"><ele>8.4</ele><time>2026-04-10T13:37:18Z</time></trkpt><trkpt lat="14.585416927786266" lon="121.0019611962843"><ele>8.0</ele><time>2026-04-10T13:37:19Z</time></trkpt><trkpt lat="14.585287674083514" lon="121.0019884573395"><ele>8.0</ele><time>2026-04-10T13:37:20Z</time></trkpt><trkpt lat="14.585186408623311" lon="121.00199347274652"><ele>8.0</ele><time>2026-04-10T13:37:21Z</time></trkpt><trkpt lat="14.585077712047076" lon="121.00200477882433"><ele>8.0</ele><time>2026-04-10T13:37:22Z</time></trkpt><trkpt lat="14.584966498058488" lon="121.00201772783919"><ele>8.0</ele><time>2026-04-10T13:37:23Z</time></trkpt><trkpt lat="14.584841915397027" lon="121.00202836211677"><ele>8.0</ele><time>2026-04-10T13:37:24Z</time></trkpt><trkpt lat="14.584711001405475" lon="121.002032374958"><ele>8.0</ele><time>2026-04-10T13:37:25Z</time></trkpt><trkpt lat="14.584578326440724" lon="121.00204206763958"><ele>8.0</ele><time>2026-04-10T13:37:26Z</time></trkpt><trkpt lat="14.584442346728315" lon="121.00204435084805"><ele>8.0</ele><time>2026-04-10T13:37:27Z</time></trkpt><trkpt lat="14.584305764126913" lon="121.00205540348948"><ele>8.0</ele><time>2026-04-10T13:37:28Z</time></trkpt><trkpt lat="14.584160045729508" lon="121.00206273147212"><ele>8.0</ele><time>2026-04-10T13:37:29Z</time></trkpt><trkpt lat="14.584018947722237" lon="121.00206935923151"><ele>8.0</ele><time>2026-04-10T13:37:30Z</time></trkpt><trkpt lat="14.58387695946577" lon="121.00208073138467"><ele>8.0</ele><time>2026-04-10T13:37:31Z</time></trkpt><trkpt lat="14.583747557251856" lon="121.00209043327203"><ele>8.0</ele><time>2026-04-10T13:37:32Z</time></trkpt><trkpt lat="14.583622598734147" lon="121.00209507439642"><ele>8.0</ele><time>2026-04-10T13:37:33Z</time></trkpt><trkpt lat="14.58350330554633" lon="121.00209896254002"><ele>8.0</ele><time>2026-04-10T13:37:34Z</time></trkpt><trkpt lat="14.583385715871774" lon="121.00209572697983"><ele>8.0</ele><time>2026-04-10T13:37:35Z</time></trkpt><trkpt lat="14.583269585432861" lon="121.00207392625404"><ele>8.0</ele><time>2026-04-10T13:37:36Z</time></trkpt><trkpt lat="14.583176880268788" lon="121.0020147409536"><ele>8.0</ele><time>2026-04-10T13:37:37Z</time></trkpt><trkpt lat="14.583083762990801" lon="121.00197916597668"><ele>8.0</ele><time>2026-04-10T13:37:38Z</time></trkpt><trkpt lat="14.583009991821116" lon="121.00188007635325"><ele>8.0</ele><time>2026-04-10T13:37:39Z</time></trkpt><trkpt lat="14.582921898611762" lon="121.0017932555158"><ele>8.0</ele><time>2026-04-10T13:37:40Z</time></trkpt><trkpt lat="14.582841696535437" lon="121.00173846665317"><ele>8.0</ele><time>2026-04-10T13:37:41Z</time></trkpt><trkpt lat="14.58276530561993" lon="121.00167010214749"><ele>8.200000000000001</ele><time>2026-04-10T13:37:42Z</time></trkpt><trkpt lat="14.582674338483" lon="121.00159819045282"><ele>8.4</ele><time>2026-04-10T13:37:43Z</time></trkpt><trkpt lat="14.582614639539884" lon="121.00152982268331"><ele>8.600000000000001</ele><time>2026-04-10T13:37:44Z</time></trkpt><trkpt lat="14.58255535742692" lon="121.0014564231421"><ele>8.8</ele><time>2026-04-10T13:37:45Z</time></trkpt><trkpt lat="14.58250982487181" lon="121.00139512276002"><ele>9.0</ele><time>2026-04-10T13:37:46Z</time></trkpt><trkpt lat="14.582425926963596" lon="121.0013211851053"><ele>9.0</ele><time>2026-04-10T13:37:47Z</time></trkpt><trkpt lat="14.58235680369051" lon="121.00124163322066"><ele>9.0</ele><time>2026-04-10T13:37:48Z</time></trkpt><trkpt lat="14.582282071199467" lon="121.00116718986956"><ele>9.0</ele><time>2026-04-10T13:37:49Z</time></trkpt><trkpt lat="14.58220764161464" lon="121.0010943405569"><ele>9.0</ele><time>2026-04-10T13:37:50Z</time></trkpt><trkpt lat="14.582145719673683" lon="121.00103626640339"><ele>9.0</ele><time>2026-04-10T13:37:51Z</time></trkpt><trkpt lat="14.582070572585616" lon="121.00096177435397"><ele>8.75</ele><time>2026-04-10T13:37:52Z</time></trkpt><trkpt lat="14.581991587656569" lon="121.00088489014657"><ele>8.5</ele><time>2026-04-10T13:37:53Z</time></trkpt><trkpt lat="14.58190858257074" lon="121.00080911248902"><ele>8.25</ele><time>2026-04-10T13:37:54Z</time></trkpt><trkpt lat="14.581819514172468" lon="121.00072174594878"><ele>8.0</ele><time>2026-04-10T13:37:55Z</time></trkpt><trkpt lat="14.581731976683644" lon="121.0006395483969"><ele>8.0</ele><time>2026-04-10T13:37:56Z</time></trkpt><trkpt lat="14.581650608770126" lon="121.00058031057067"><ele>8.0</ele><time>2026-04-10T13:37:57Z</time></trkpt><trkpt lat="14.581566145904889" lon="121.00051706179725"><ele>8.0</ele><time>2026-04-10T13:37:58Z</time></trkpt><trkpt lat="14.581477893237432" lon="121.00044464283782"><ele>8.0</ele><time>2026-04-10T13:37:59Z</time></trkpt><trkpt lat="14.581392756290924" lon="121.00037071375561"><ele>8.0</ele><time>2026-04-10T13:38:00Z</time></trkpt><trkpt lat="14.581299083503389" lon="121.0002757643836"><ele>8.0</ele><time>2026-04-10T13:38:01Z</time></trkpt><trkpt lat="14.581196048450266" lon="121.00018450052907"><ele>8.0</ele><time>2026-04-10T13:38:02Z</time></trkpt><trkpt lat="14.581123535979337" lon="121.00013440797468"><ele>8.0</ele><time>2026-04-10T13:38:03Z</time></trkpt><trkpt lat="14.581069626328732" lon="121.00008890017962"><ele>8.0</ele><time>2026-04-10T13:38:04Z</time></trkpt><trkpt lat="14.581021695356108" lon="121.00003049639675"><ele>8.0</ele><time>2026-04-10T13:38:10Z</time></trkpt><trkpt lat="14.580936917208964" lon="120.9999831717003"><ele>8.0</ele><time>2026-04-10T13:38:13Z</time></trkpt><trkpt lat="14.580889407932244" lon="120.99993282434114"><ele>8.0</ele><time>2026-04-10T13:38:14Z</time></trkpt><trkpt lat="14.580825812240835" lon="120.99987970341385"><ele>8.0</ele><time>2026-04-10T13:38:15Z</time></trkpt><trkpt lat="14.580741253424097" lon="120.9998152502253"><ele>8.0</ele><time>2026-04-10T13:38:16Z</time></trkpt><trkpt lat="14.580640446119556" lon="120.99973328248518"><ele>8.0</ele><time>2026-04-10T13:38:17Z</time></trkpt><trkpt lat="14.580537073166493" lon="120.99964277281877"><ele>8.0</ele><time>2026-04-10T13:38:18Z</time></trkpt><trkpt lat="14.580420817213664" lon="120.99956156089176"><ele>8.0</ele><time>2026-04-10T13:38:19Z</time></trkpt><trkpt lat="14.580300537469943" lon="120.99947890670467"><ele>8.0</ele><time>2026-04-10T13:38:20Z</time></trkpt><trkpt lat="14.5801801755871" lon="120.99938779919113"><ele>8.0</ele><time>2026-04-10T13:38:21Z</time></trkpt><trkpt lat="14.580061100050507" lon="120.99929096047059"><ele>8.0</ele><time>2026-04-10T13:38:22Z</time></trkpt><trkpt lat="14.579939308468946" lon="120.99919080155847"><ele>8.0</ele><time>2026-04-10T13:38:23Z</time></trkpt><trkpt lat="14.579815494697744" lon="120.99909437497202"><ele>8.0</ele><time>2026-04-10T13:38:24Z</time></trkpt><trkpt lat="14.579678036535622" lon="120.99899232647756"><ele>8.0</ele><time>2026-04-10T13:38:25Z</time></trkpt><trkpt lat="14.579544007847907" lon="120.99888859015165"><ele>8.0</ele><time>2026-04-10T13:38:26Z</time></trkpt><trkpt lat="14.579412757860727" lon="120.99879618981103"><ele>8.0</ele><time>2026-04-10T13:38:27Z</time></trkpt><trkpt lat="14.579271486904556" lon="120.99870700706391"><ele>7.666666666666666</ele><time>2026-04-10T13:38:28Z</time></trkpt><trkpt lat="14.57919049522906" lon="120.99865515876755"><ele>7.333333333333333</ele><time>2026-04-10T13:38:29Z</time></trkpt><trkpt lat="14.57911978353906" lon="120.99861891035287"><ele>7.0</ele><time>2026-04-10T13:38:30Z</time></trkpt><trkpt lat="14.579054809287959" lon="120.99854159120447"><ele>6.666666666666666</ele><time>2026-04-10T13:38:31Z</time></trkpt><trkpt lat="14.579004510371313" lon="120.99849802078296"><ele>6.333333333333333</ele><time>2026-04-10T13:38:32Z</time></trkpt><trkpt lat="14.578947137230703" lon="120.99844004970713"><ele>6.0</ele><time>2026-04-10T13:38:34Z</time></trkpt><trkpt lat="14.578879230851909" lon="120.99838516991353"><ele>6.0</ele><time>2026-04-10T13:38:37Z</time></trkpt><trkpt lat="14.578819637753154" lon="120.9983600250322"><ele>6.0</ele><time>2026-04-10T13:38:43Z</time></trkpt><trkpt lat="14.578759681101442" lon="120.99831663400934"><ele>6.0</ele><time>2026-04-10T13:39:08Z</time></trkpt><trkpt lat="14.578669711625949" lon="120.99823830351474"><ele>6.0</ele><time>2026-04-10T13:39:10Z</time></trkpt><trkpt lat="14.578609269503351" lon="120.99818017982773"><ele>6.0</ele><time>2026-04-10T13:39:11Z</time></trkpt><trkpt lat="14.578547556947711" lon="120.99811407668425"><ele>6.0</ele><time>2026-04-10T13:39:12Z</time></trkpt><trkpt lat="14.578464843431355" lon="120.99805944070322"><ele>6.0</ele><time>2026-04-10T13:39:13Z</time></trkpt><trkpt lat="14.578397777713102" lon="120.99800168644832"><ele>6.0</ele><time>2026-04-10T13:39:14Z</time></trkpt><trkpt lat="14.578335327859204" lon="120.99796007613487"><ele>6.0</ele><time>2026-04-10T13:39:15Z</time></trkpt><trkpt lat="14.578272443878442" lon="120.99792118338259"><ele>6.0</ele><time>2026-04-10T13:39:16Z</time></trkpt><trkpt lat="14.578220998231163" lon="120.99788013323852"><ele>6.0</ele><time>2026-04-10T13:39:17Z</time></trkpt><trkpt lat="14.578137689348921" lon="120.99781054989975"><ele>6.0</ele><time>2026-04-10T13:39:19Z</time></trkpt><trkpt lat="14.578090748029743" lon="120.99776346679069"><ele>6.0</ele><time>2026-04-10T13:39:22Z</time></trkpt><trkpt lat="14.57801730967404" lon="120.99775305979544"><ele>6.0</ele><time>2026-04-10T13:39:47Z</time></trkpt><trkpt lat="14.57795914210042" lon="120.99770227339297"><ele>6.0</ele><time>2026-04-10T13:39:51Z</time></trkpt><trkpt lat="14.57791555993509" lon="120.99765398330445"><ele>6.0</ele><time>2026-04-10T13:39:53Z</time></trkpt><trkpt lat="14.577853241662964" lon="120.99759982644329"><ele>6.0</ele><time>2026-04-10T13:39:55Z</time></trkpt><trkpt lat="14.577790425833971" lon="120.99756684805152"><ele>6.0</ele><time>2026-04-10T13:39:58Z</time></trkpt><trkpt lat="14.57772338175841" lon="120.99751485270271"><ele>5.8</ele><time>2026-04-10T13:40:00Z</time></trkpt><trkpt lat="14.577648837830429" lon="120.99745701030324"><ele>5.6</ele><time>2026-04-10T13:40:02Z</time></trkpt><trkpt lat="14.57756693707238" lon="120.99739425219622"><ele>5.4</ele><time>2026-04-10T13:40:04Z</time></trkpt><trkpt lat="14.577489923100586" lon="120.99733193003038"><ele>5.2</ele><time>2026-04-10T13:40:06Z</time></trkpt><trkpt lat="14.5773886587339" lon="120.99725082833282"><ele>5.0</ele><time>2026-04-10T13:40:08Z</time></trkpt><trkpt lat="14.57733302168166" lon="120.99720710176902"><ele>5.0</ele><time>2026-04-10T13:40:09Z</time></trkpt><trkpt lat="14.577274187093762" lon="120.99715513628965"><ele>5.0</ele><time>2026-04-10T13:40:10Z</time></trkpt><trkpt lat="14.577201062394458" lon="120.99709827187846"><ele>5.0</ele><time>2026-04-10T13:40:11Z</time></trkpt><trkpt lat="14.577125096410922" lon="120.99703188251614"><ele>5.0</ele><time>2026-04-10T13:40:12Z</time></trkpt><trkpt lat="14.577041941628961" lon="120.99696047283591"><ele>5.0</ele><time>2026-04-10T13:40:13Z</time></trkpt><trkpt lat="14.57695334854972" lon="120.99689603713107"><ele>5.6</ele><time>2026-04-10T13:40:14Z</time></trkpt><trkpt lat="14.576870517129183" lon="120.9968300424965"><ele>6.2</ele><time>2026-04-10T13:40:15Z</time></trkpt><trkpt lat="14.576777246572552" lon="120.99675777121493"><ele>6.800000000000001</ele><time>2026-04-10T13:40:16Z</time></trkpt><trkpt lat="14.576686864337566" lon="120.99668004323141"><ele>7.4</ele><time>2026-04-10T13:40:17Z</time></trkpt><trkpt lat="14.57660275599664" lon="120.99660963580538"><ele>8.0</ele><time>2026-04-10T13:40:18Z</time></trkpt><trkpt lat="14.576503039313334" lon="120.99653294930775"><ele>8.0</ele><time>2026-04-10T13:40:19Z</time></trkpt><trkpt lat="14.576422758510285" lon="120.99645251318223"><ele>8.0</ele><time>2026-04-10T13:40:20Z</time></trkpt><trkpt lat="14.576332722158718" lon="120.9963741526098"><ele>8.0</ele><time>2026-04-10T13:40:21Z</time></trkpt><trkpt lat="14.576239296468355" lon="120.99629288749925"><ele>8.0</ele><time>2026-04-10T13:40:22Z</time></trkpt><trkpt lat="14.576144778988425" lon="120.99621505041077"><ele>8.0</ele><time>2026-04-10T13:40:23Z</time></trkpt><trkpt lat="14.576041278782844" lon="120.99613805045192"><ele>8.0</ele><time>2026-04-10T13:40:24Z</time></trkpt><trkpt lat="14.575941634336619" lon="120.9960548157324"><ele>8.0</ele><time>2026-04-10T13:40:25Z</time></trkpt><trkpt lat="14.575834666084054" lon="120.99596933693849"><ele>8.0</ele><time>2026-04-10T13:40:26Z</time></trkpt><trkpt lat="14.575729315113735" lon="120.99588403753214"><ele>7.0</ele><time>2026-04-10T13:40:27Z</time></trkpt><trkpt lat="14.575629003067078" lon="120.99580361371893"><ele>6.0</ele><time>2026-04-10T13:40:28Z</time></trkpt><trkpt lat="14.57552405435558" lon="120.99571638121924"><ele>5.0</ele><time>2026-04-10T13:40:29Z</time></trkpt><trkpt lat="14.575421244984707" lon="120.99563132989144"><ele>4.0</ele><time>2026-04-10T13:40:30Z</time></trkpt><trkpt lat="14.575322604598863" lon="120.99555148331297"><ele>4.0</ele><time>2026-04-10T13:40:31Z</time></trkpt><trkpt lat="14.57522917940716" lon="120.99546812748956"><ele>4.0</ele><time>2026-04-10T13:40:32Z</time></trkpt><trkpt lat="14.575137402567588" lon="120.99539025631843"><ele>4.0</ele><time>2026-04-10T13:40:33Z</time></trkpt><trkpt lat="14.575060597149283" lon="120.9953269263538"><ele>4.0</ele><time>2026-04-10T13:40:34Z</time></trkpt><trkpt lat="14.574983046240924" lon="120.99525643711816"><ele>4.0</ele><time>2026-04-10T13:40:35Z</time></trkpt><trkpt lat="14.574898966765423" lon="120.99518703066205"><ele>4.0</ele><time>2026-04-10T13:40:36Z</time></trkpt><trkpt lat="14.574812860624329" lon="120.99511368832981"><ele>4.0</ele><time>2026-04-10T13:40:37Z</time></trkpt><trkpt lat="14.574721026226737" lon="120.99503880051243"><ele>4.0</ele><time>2026-04-10T13:40:38Z</time></trkpt><trkpt lat="14.57464145418654" lon="120.99496978682349"><ele>4.0</ele><time>2026-04-10T13:40:39Z</time></trkpt><trkpt lat="14.57456011846093" lon="120.99490448966095"><ele>4.0</ele><time>2026-04-10T13:40:40Z</time></trkpt><trkpt lat="14.574487192718912" lon="120.99484289236982"><ele>4.4</ele><time>2026-04-10T13:40:41Z</time></trkpt><trkpt lat="14.574430166400598" lon="120.99478111239203"><ele>4.800000000000001</ele><time>2026-04-10T13:40:42Z</time></trkpt><trkpt lat="14.574337848683744" lon="120.99472274523393"><ele>5.199999999999999</ele><time>2026-04-10T13:40:44Z</time></trkpt><trkpt lat="14.574253040066651" lon="120.99464512889661"><ele>5.6</ele><time>2026-04-10T13:40:46Z</time></trkpt><trkpt lat="14.574199187407757" lon="120.99459636805233"><ele>6.0</ele><time>2026-04-10T13:40:47Z</time></trkpt><trkpt lat="14.574141066018205" lon="120.9945437799355"><ele>6.0</ele><time>2026-04-10T13:40:48Z</time></trkpt><trkpt lat="14.574073768448274" lon="120.99449178129558"><ele>6.0</ele><time>2026-04-10T13:40:49Z</time></trkpt><trkpt lat="14.574012090286677" lon="120.99443501478711"><ele>6.0</ele><time>2026-04-10T13:40:50Z</time></trkpt><trkpt lat="14.573941202443809" lon="120.99437625308425"><ele>6.0</ele><time>2026-04-10T13:40:51Z</time></trkpt><trkpt lat="14.573859571927564" lon="120.9943104533456"><ele>6.0</ele><time>2026-04-10T13:40:52Z</time></trkpt><trkpt lat="14.573770782589861" lon="120.99424196133202"><ele>6.199999999999999</ele><time>2026-04-10T13:40:53Z</time></trkpt><trkpt lat="14.573681966379109" lon="120.99417583918864"><ele>6.3999999999999995</ele><time>2026-04-10T13:40:54Z</time></trkpt><trkpt lat="14.573593083111332" lon="120.99410590450826"><ele>6.6</ele><time>2026-04-10T13:40:55Z</time></trkpt><trkpt lat="14.573504782545701" lon="120.99403731752606"><ele>6.8</ele><time>2026-04-10T13:40:56Z</time></trkpt><trkpt lat="14.573415779694407" lon="120.99397630819904"><ele>7.0</ele><time>2026-04-10T13:40:57Z</time></trkpt><trkpt lat="14.573341965848151" lon="120.99391469414368"><ele>7.0</ele><time>2026-04-10T13:40:58Z</time></trkpt><trkpt lat="14.573269388406326" lon="120.99385137354535"><ele>6.999999999999999</ele><time>2026-04-10T13:40:59Z</time></trkpt><trkpt lat="14.573198776514909" lon="120.99379695103656"><ele>6.999999999999999</ele><time>2026-04-10T13:41:00Z</time></trkpt><trkpt lat="14.573123180194445" lon="120.99373397953525"><ele>7.0</ele><time>2026-04-10T13:41:01Z</time></trkpt><trkpt lat="14.5730451722888" lon="120.99367417832477"><ele>7.0</ele><time>2026-04-10T13:41:02Z</time></trkpt><trkpt lat="14.572982360606138" lon="120.99362548683635"><ele>7.000000000000001</ele><time>2026-04-10T13:41:03Z</time></trkpt><trkpt lat="14.572918258112688" lon="120.99357839193365"><ele>7.0</ele><time>2026-04-10T13:41:04Z</time></trkpt><trkpt lat="14.572823261383268" lon="120.99352080320182"><ele>7.0</ele><time>2026-04-10T13:41:06Z</time></trkpt><trkpt lat="14.572762166233556" lon="120.99349211865743"><ele>7.0</ele><time>2026-04-10T13:41:08Z</time></trkpt><trkpt lat="14.572682993998281" lon="120.99346951162222"><ele>7.000000000000001</ele><time>2026-04-10T13:41:10Z</time></trkpt><trkpt lat="14.572603048904766" lon="120.99341016267775"><ele>7.0</ele><time>2026-04-10T13:41:12Z</time></trkpt><trkpt lat="14.572506796949012" lon="120.99333447968793"><ele>7.000000000000001</ele><time>2026-04-10T13:41:14Z</time></trkpt><trkpt lat="14.57245609703277" lon="120.99327963952855"><ele>7.0</ele><time>2026-04-10T13:41:16Z</time></trkpt><trkpt lat="14.57239523511636" lon="120.99322886875916"><ele>7.0</ele><time>2026-04-10T13:41:35Z</time></trkpt><trkpt lat="14.572306633728994" lon="120.99315495775843"><ele>7.0</ele><time>2026-04-10T13:41:37Z</time></trkpt><trkpt lat="14.572243517777958" lon="120.99310230694292"><ele>7.000000000000001</ele><time>2026-04-10T13:41:38Z</time></trkpt><trkpt lat="14.572169004109075" lon="120.99304423805712"><ele>7.0</ele><time>2026-04-10T13:41:39Z</time></trkpt><trkpt lat="14.572070772095785" lon="120.99298201948092"><ele>6.8</ele><time>2026-04-10T13:41:40Z</time></trkpt><trkpt lat="14.57196794015152" lon="120.99290018250137"><ele>6.6</ele><time>2026-04-10T13:41:41Z</time></trkpt><trkpt lat="14.571884250365027" lon="120.9928334352208"><ele>6.3999999999999995</ele><time>2026-04-10T13:41:42Z</time></trkpt><trkpt lat="14.571834085771155" lon="120.99277222305003"><ele>6.199999999999999</ele><time>2026-04-10T13:41:43Z</time></trkpt><trkpt lat="14.571770129268243" lon="120.99271941713734"><ele>6.0</ele><time>2026-04-10T13:41:44Z</time></trkpt><trkpt lat="14.571670724345978" lon="120.99263734322591"><ele>6.0</ele><time>2026-04-10T13:41:45Z</time></trkpt><trkpt lat="14.571584047968175" lon="120.99256482372405"><ele>6.0</ele><time>2026-04-10T13:41:46Z</time></trkpt><trkpt lat="14.571505020358346" lon="120.99249883551964"><ele>6.0</ele><time>2026-04-10T13:41:47Z</time></trkpt><trkpt lat="14.571435609082402" lon="120.99244066981393"><ele>6.0</ele><time>2026-04-10T13:41:48Z</time></trkpt><trkpt lat="14.571376456488277" lon="120.99239068587552"><ele>6.0</ele><time>2026-04-10T13:41:49Z</time></trkpt><trkpt lat="14.571325109955048" lon="120.99234729824289"><ele>6.0</ele><time>2026-04-10T13:41:50Z</time></trkpt><trkpt lat="14.571265522582788" lon="120.99230205204721"><ele>6.166666666666667</ele><time>2026-04-10T13:41:52Z</time></trkpt><trkpt lat="14.571207693371795" lon="120.99225642507407"><ele>6.333333333333334</ele><time>2026-04-10T13:42:00Z</time></trkpt><trkpt lat="14.571149729054499" lon="120.99221069149306"><ele>6.5</ele><time>2026-04-10T13:42:35Z</time></trkpt><trkpt lat="14.571067981387209" lon="120.99214535856117"><ele>6.666666666666667</ele><time>2026-04-10T13:42:37Z</time></trkpt><trkpt lat="14.571009510538167" lon="120.99209921596173"><ele>6.833333333333334</ele><time>2026-04-10T13:42:38Z</time></trkpt><trkpt lat="14.570934362519784" lon="120.9920386683728"><ele>7.0</ele><time>2026-04-10T13:42:39Z</time></trkpt><trkpt lat="14.570867021411704" lon="120.99198819180461"><ele>7.0</ele><time>2026-04-10T13:42:40Z</time></trkpt><trkpt lat="14.570791700494427" lon="120.99192742722259"><ele>6.999999999999999</ele><time>2026-04-10T13:42:41Z</time></trkpt><trkpt lat="14.57071411798977" lon="120.99186476747015"><ele>6.999999999999999</ele><time>2026-04-10T13:42:42Z</time></trkpt><trkpt lat="14.570608799801345" lon="120.99178189445182"><ele>7.0</ele><time>2026-04-10T13:42:44Z</time></trkpt><trkpt lat="14.570520819668074" lon="120.99171402784334"><ele>7.0</ele><time>2026-04-10T13:42:46Z</time></trkpt><trkpt lat="14.570455658176252" lon="120.9916637632682"><ele>7.5</ele><time>2026-04-10T13:42:48Z</time></trkpt><trkpt lat="14.570383586007292" lon="120.99160505006242"><ele>8.0</ele><time>2026-04-10T13:42:55Z</time></trkpt><trkpt lat="14.570299551168524" lon="120.99153763162268"><ele>8.5</ele><time>2026-04-10T13:42:57Z</time></trkpt><trkpt lat="14.570248089473433" lon="120.99149641121468"><ele>9.0</ele><time>2026-04-10T13:42:58Z</time></trkpt><trkpt lat="14.570071959839847" lon="120.99165247736012"><ele>9.0</ele><time>2026-04-10T13:42:59Z</time></trkpt><trkpt lat="14.569999300475232" lon="120.99166480024692"><ele>9.0</ele><time>2026-04-10T13:43:00Z</time></trkpt><trkpt lat="14.56992235826912" lon="120.99168406282674"><ele>9.0</ele><time>2026-04-10T13:43:01Z</time></trkpt><trkpt lat="14.569838546706036" lon="120.99171983324302"><ele>9.0</ele><time>2026-04-10T13:43:02Z</time></trkpt><trkpt lat="14.569699331184689" lon="120.99179466729599"><ele>9.0</ele><time>2026-04-10T13:43:04Z</time></trkpt><trkpt lat="14.569587711847896" lon="120.99185689006791"><ele>8.75</ele><time>2026-04-10T13:43:05Z</time></trkpt><trkpt lat="14.569480465476653" lon="120.99189700678693"><ele>8.5</ele><time>2026-04-10T13:43:06Z</time></trkpt><trkpt lat="14.569368900562177" lon="120.99194789670419"><ele>8.25</ele><time>2026-04-10T13:43:07Z</time></trkpt><trkpt lat="14.569254704636126" lon="120.9920027677371"><ele>8.0</ele><time>2026-04-10T13:43:08Z</time></trkpt><trkpt lat="14.569142476091999" lon="120.99205964662654"><ele>8.0</ele><time>2026-04-10T13:43:09Z</time></trkpt><trkpt lat="14.569025173167619" lon="120.99211348107927"><ele>8.0</ele><time>2026-04-10T13:43:10Z</time></trkpt><trkpt lat="14.568908228680131" lon="120.9921684116108"><ele>8.0</ele><time>2026-04-10T13:43:11Z</time></trkpt><trkpt lat="14.568787384781244" lon="120.99222024439761"><ele>8.0</ele><time>2026-04-10T13:43:12Z</time></trkpt><trkpt lat="14.568679550353345" lon="120.99227172749771"><ele>8.0</ele><time>2026-04-10T13:43:13Z</time></trkpt><trkpt lat="14.568572558372091" lon="120.99232531959767"><ele>8.0</ele><time>2026-04-10T13:43:14Z</time></trkpt><trkpt lat="14.56846151861182" lon="120.99236684414511"><ele>8.0</ele><time>2026-04-10T13:43:15Z</time></trkpt><trkpt lat="14.568354449236997" lon="120.99241907901343"><ele>8.0</ele><time>2026-04-10T13:43:16Z</time></trkpt><trkpt lat="14.568247477887306" lon="120.99246494360305"><ele>8.0</ele><time>2026-04-10T13:43:17Z</time></trkpt><trkpt lat="14.56813245808043" lon="120.99251853718613"><ele>8.0</ele><time>2026-04-10T13:43:18Z</time></trkpt><trkpt lat="14.568014386682895" lon="120.99257359835185"><ele>8.0</ele><time>2026-04-10T13:43:19Z</time></trkpt><trkpt lat="14.56790878043632" lon="120.99262832645543"><ele>8.0</ele><time>2026-04-10T13:43:20Z</time></trkpt><trkpt lat="14.567804360924027" lon="120.99267282487216"><ele>8.833333333333332</ele><time>2026-04-10T13:43:21Z</time></trkpt><trkpt lat="14.567713294822948" lon="120.99271352090778"><ele>9.666666666666666</ele><time>2026-04-10T13:43:22Z</time></trkpt><trkpt lat="14.56762866874443" lon="120.99275371828234"><ele>10.5</ele><time>2026-04-10T13:43:23Z</time></trkpt><trkpt lat="14.567561938667062" lon="120.992784954378"><ele>11.333333333333332</ele><time>2026-04-10T13:43:24Z</time></trkpt><trkpt lat="14.567492162145792" lon="120.99281589725648"><ele>12.166666666666666</ele><time>2026-04-10T13:43:25Z</time></trkpt><trkpt lat="14.567426719179837" lon="120.99285292189796"><ele>13.0</ele><time>2026-04-10T13:43:26Z</time></trkpt><trkpt lat="14.567357750753013" lon="120.99288691956558"><ele>13.0</ele><time>2026-04-10T13:43:27Z</time></trkpt><trkpt lat="14.56728425256135" lon="120.99291604997943"><ele>13.0</ele><time>2026-04-10T13:43:28Z</time></trkpt><trkpt lat="14.567206609587647" lon="120.99294489313364"><ele>13.0</ele><time>2026-04-10T13:43:29Z</time></trkpt><trkpt lat="14.567134163570428" lon="120.99297493090594"><ele>13.0</ele><time>2026-04-10T13:43:30Z</time></trkpt><trkpt lat="14.567060844768504" lon="120.992997505514"><ele>13.0</ele><time>2026-04-10T13:43:31Z</time></trkpt><trkpt lat="14.566998021471537" lon="120.99300903769657"><ele>13.0</ele><time>2026-04-10T13:43:32Z</time></trkpt><trkpt lat="14.56693867288151" lon="120.99303273728849"><ele>13.0</ele><time>2026-04-10T13:43:33Z</time></trkpt><trkpt lat="14.56687969271579" lon="120.9930565854507"><ele>12.499999999999998</ele><time>2026-04-10T13:43:34Z</time></trkpt><trkpt lat="14.566796689676279" lon="120.99308724731492"><ele>12.0</ele><time>2026-04-10T13:43:36Z</time></trkpt><trkpt lat="14.56673643154648" lon="120.99312634994715"><ele>11.5</ele><time>2026-04-10T13:43:40Z</time></trkpt><trkpt lat="14.56664972916452" lon="120.99317369315035"><ele>11.0</ele><time>2026-04-10T13:43:53Z</time></trkpt><trkpt lat="14.566594045238348" lon="120.99320522723542"><ele>10.5</ele><time>2026-04-10T13:43:54Z</time></trkpt><trkpt lat="14.566523708972014" lon="120.99323140129519"><ele>10.0</ele><time>2026-04-10T13:43:55Z</time></trkpt><trkpt lat="14.56644671205726" lon="120.99329177146254"><ele>10.0</ele><time>2026-04-10T13:43:56Z</time></trkpt><trkpt lat="14.56636901107793" lon="120.99333724402436"><ele>10.0</ele><time>2026-04-10T13:43:57Z</time></trkpt><trkpt lat="14.566282810188005" lon="120.99337663578247"><ele>10.0</ele><time>2026-04-10T13:43:58Z</time></trkpt><trkpt lat="14.56619842717477" lon="120.99341288306886"><ele>10.0</ele><time>2026-04-10T13:43:59Z</time></trkpt><trkpt lat="14.566125923265746" lon="120.99344631245283"><ele>10.0</ele><time>2026-04-10T13:44:00Z</time></trkpt><trkpt lat="14.566062302981692" lon="120.9934857654092"><ele>10.0</ele><time>2026-04-10T13:44:01Z</time></trkpt><trkpt lat="14.565977422122755" lon="120.99352862304647"><ele>9.8</ele><time>2026-04-10T13:44:02Z</time></trkpt><trkpt lat="14.565888116146864" lon="120.99356333346711"><ele>9.6</ele><time>2026-04-10T13:44:03Z</time></trkpt><trkpt lat="14.56580251766044" lon="120.99360406349214"><ele>9.4</ele><time>2026-04-10T13:44:04Z</time></trkpt><trkpt lat="14.565712966687363" lon="120.99364420945656"><ele>9.2</ele><time>2026-04-10T13:44:05Z</time></trkpt><trkpt lat="14.565616528337586" lon="120.99369909530654"><ele>9.0</ele><time>2026-04-10T13:44:06Z</time></trkpt><trkpt lat="14.565515759708322" lon="120.9937459796342"><ele>9.0</ele><time>2026-04-10T13:44:07Z</time></trkpt><trkpt lat="14.565422458522496" lon="120.99378877405186"><ele>9.0</ele><time>2026-04-10T13:44:08Z</time></trkpt><trkpt lat="14.565344581866688" lon="120.99382238221611"><ele>9.0</ele><time>2026-04-10T13:44:09Z</time></trkpt><trkpt lat="14.565274239632974" lon="120.99385034352022"><ele>9.0</ele><time>2026-04-10T13:44:10Z</time></trkpt><trkpt lat="14.565212956495225" lon="120.9938846749093"><ele>9.0</ele><time>2026-04-10T13:44:11Z</time></trkpt><trkpt lat="14.565099913062339" lon="120.99393715647957"><ele>9.2</ele><time>2026-04-10T13:44:13Z</time></trkpt><trkpt lat="14.565037160305694" lon="120.99397956280184"><ele>9.4</ele><time>2026-04-10T13:44:14Z</time></trkpt><trkpt lat="14.56497620803611" lon="120.9940258639785"><ele>9.6</ele><time>2026-04-10T13:44:15Z</time></trkpt><trkpt lat="14.564878235555858" lon="120.99405476086368"><ele>9.8</ele><time>2026-04-10T13:44:16Z</time></trkpt><trkpt lat="14.564789625384394" lon="120.99408888877915"><ele>10.0</ele><time>2026-04-10T13:44:17Z</time></trkpt><trkpt lat="14.564697557396286" lon="120.9941437894146"><ele>9.8</ele><time>2026-04-10T13:44:18Z</time></trkpt><trkpt lat="14.564599652850331" lon="120.99417999941222"><ele>9.6</ele><time>2026-04-10T13:44:19Z</time></trkpt><trkpt lat="14.5645045109673" lon="120.99422530416122"><ele>9.4</ele><time>2026-04-10T13:44:20Z</time></trkpt><trkpt lat="14.56441075393774" lon="120.9942678681102"><ele>9.2</ele><time>2026-04-10T13:44:21Z</time></trkpt><trkpt lat="14.564314462281974" lon="120.9943106892132"><ele>9.0</ele><time>2026-04-10T13:44:22Z</time></trkpt><trkpt lat="14.564216344624743" lon="120.99435265760539"><ele>10.2</ele><time>2026-04-10T13:44:23Z</time></trkpt><trkpt lat="14.564122519158571" lon="120.99439144423278"><ele>11.4</ele><time>2026-04-10T13:44:24Z</time></trkpt><trkpt lat="14.56402750651011" lon="120.9944336921002"><ele>12.6</ele><time>2026-04-10T13:44:25Z</time></trkpt><trkpt lat="14.563933110683767" lon="120.99448385138889"><ele>13.8</ele><time>2026-04-10T13:44:26Z</time></trkpt><trkpt lat="14.563846706694424" lon="120.99452861401859"><ele>15.0</ele><time>2026-04-10T13:44:27Z</time></trkpt><trkpt lat="14.563772235824903" lon="120.99456483889917"><ele>15.0</ele><time>2026-04-10T13:44:28Z</time></trkpt><trkpt lat="14.56370267951328" lon="120.99461874094985"><ele>15.0</ele><time>2026-04-10T13:44:29Z</time></trkpt><trkpt lat="14.563626704848158" lon="120.99465822019444"><ele>15.0</ele><time>2026-04-10T13:44:30Z</time></trkpt><trkpt lat="14.563550325607663" lon="120.99467164002854"><ele>15.0</ele><time>2026-04-10T13:44:31Z</time></trkpt><trkpt lat="14.563480527232104" lon="120.9947076097334"><ele>15.0</ele><time>2026-04-10T13:44:32Z</time></trkpt><trkpt lat="14.563407942184945" lon="120.99473256380656"><ele>15.0</ele><time>2026-04-10T13:44:33Z</time></trkpt><trkpt lat="14.563313833516403" lon="120.99475932902237"><ele>14.25</ele><time>2026-04-10T13:44:34Z</time></trkpt><trkpt lat="14.563202664516327" lon="120.9947740550853"><ele>13.5</ele><time>2026-04-10T13:44:36Z</time></trkpt><trkpt lat="14.563055714691957" lon="120.99482774489296"><ele>12.75</ele><time>2026-04-10T13:44:38Z</time></trkpt><trkpt lat="14.562972150366852" lon="120.99490583616087"><ele>12.0</ele><time>2026-04-10T13:44:40Z</time></trkpt><trkpt lat="14.56288204160052" lon="120.99494861539186"><ele>11.666666666666666</ele><time>2026-04-10T13:44:42Z</time></trkpt><trkpt lat="14.56282239309555" lon="120.9949745070358"><ele>11.333333333333334</ele><time>2026-04-10T13:44:44Z</time></trkpt><trkpt lat="14.562762989714093" lon="120.99501239226687"><ele>11.0</ele><time>2026-04-10T13:44:55Z</time></trkpt><trkpt lat="14.562673532408905" lon="120.9950453411605"><ele>10.666666666666668</ele><time>2026-04-10T13:45:00Z</time></trkpt><trkpt lat="14.562586843933888" lon="120.99508023240216"><ele>10.333333333333334</ele><time>2026-04-10T13:45:02Z</time></trkpt><trkpt lat="14.562512716519116" lon="120.99514439658368"><ele>10.0</ele><time>2026-04-10T13:45:04Z</time></trkpt><trkpt lat="14.562415479630328" lon="120.99517950590878"><ele>10.0</ele><time>2026-04-10T13:45:06Z</time></trkpt><trkpt lat="14.562320706045343" lon="120.99520016371694"><ele>10.0</ele><time>2026-04-10T13:45:08Z</time></trkpt><trkpt lat="14.562257599730254" lon="120.99523367777138"><ele>10.0</ele><time>2026-04-10T13:45:09Z</time></trkpt><trkpt lat="14.56214031529716" lon="120.99526284928395"><ele>10.0</ele><time>2026-04-10T13:45:11Z</time></trkpt><trkpt lat="14.5620564889839" lon="120.99528242654507"><ele>10.0</ele><time>2026-04-10T13:45:12Z</time></trkpt><trkpt lat="14.56196860456552" lon="120.99529844362523"><ele>9.8</ele><time>2026-04-10T13:45:13Z</time></trkpt><trkpt lat="14.561870320100807" lon="120.99531367414566"><ele>9.6</ele><time>2026-04-10T13:45:14Z</time></trkpt><trkpt lat="14.561783520858416" lon="120.99532828112811"><ele>9.4</ele><time>2026-04-10T13:45:15Z</time></trkpt><trkpt lat="14.561707990544098" lon="120.99535607099232"><ele>9.2</ele><time>2026-04-10T13:45:16Z</time></trkpt><trkpt lat="14.561594906437675" lon="120.99537536658161"><ele>9.0</ele><time>2026-04-10T13:45:17Z</time></trkpt><trkpt lat="14.561492740053817" lon="120.99539793280088"><ele>9.0</ele><time>2026-04-10T13:45:18Z</time></trkpt><trkpt lat="14.56137861950149" lon="120.99542602421289"><ele>9.0</ele><time>2026-04-10T13:45:19Z</time></trkpt><trkpt lat="14.561266285654964" lon="120.99545927457058"><ele>9.0</ele><time>2026-04-10T13:45:20Z</time></trkpt><trkpt lat="14.5611546704579" lon="120.99548968230206"><ele>9.0</ele><time>2026-04-10T13:45:21Z</time></trkpt><trkpt lat="14.561034137811875" lon="120.99551162645304"><ele>8.6</ele><time>2026-04-10T13:45:22Z</time></trkpt><trkpt lat="14.560929055452732" lon="120.99553899297901"><ele>8.2</ele><time>2026-04-10T13:45:23Z</time></trkpt><trkpt lat="14.560821631603865" lon="120.99556458273922"><ele>7.799999999999999</ele><time>2026-04-10T13:45:24Z</time></trkpt><trkpt lat="14.560714375712303" lon="120.99558743785677"><ele>7.3999999999999995</ele><time>2026-04-10T13:45:25Z</time></trkpt><trkpt lat="14.560607237299598" lon="120.99561527507245"><ele>7.0</ele><time>2026-04-10T13:45:26Z</time></trkpt><trkpt lat="14.560494045040285" lon="120.99564385537174"><ele>7.0</ele><time>2026-04-10T13:45:27Z</time></trkpt><trkpt lat="14.56039454482113" lon="120.99567845958727"><ele>6.999999999999999</ele><time>2026-04-10T13:45:28Z</time></trkpt><trkpt lat="14.560286493530288" lon="120.99569648702942"><ele>6.999999999999999</ele><time>2026-04-10T13:45:29Z</time></trkpt><trkpt lat="14.560200617859396" lon="120.99571462646345"><ele>7.0</ele><time>2026-04-10T13:45:30Z</time></trkpt><trkpt lat="14.560124938335251" lon="120.99573143568286"><ele>7.0</ele><time>2026-04-10T13:45:31Z</time></trkpt><trkpt lat="14.560031663024315" lon="120.99575664081257"><ele>7.199999999999999</ele><time>2026-04-10T13:45:32Z</time></trkpt><trkpt lat="14.559945371222199" lon="120.9957836401091"><ele>7.3999999999999995</ele><time>2026-04-10T13:45:33Z</time></trkpt><trkpt lat="14.559856758408461" lon="120.99580843796029"><ele>7.6000000000000005</ele><time>2026-04-10T13:45:34Z</time></trkpt><trkpt lat="14.559759667413184" lon="120.99582754066317"><ele>7.800000000000001</ele><time>2026-04-10T13:45:35Z</time></trkpt><trkpt lat="14.559666537396271" lon="120.9958420124834"><ele>8.0</ele><time>2026-04-10T13:45:36Z</time></trkpt><trkpt lat="14.559571838321252" lon="120.99585809550662"><ele>8.200000000000001</ele><time>2026-04-10T13:45:37Z</time></trkpt><trkpt lat="14.55948158355327" lon="120.99588001827384"><ele>8.4</ele><time>2026-04-10T13:45:38Z</time></trkpt><trkpt lat="14.559391749057522" lon="120.99590226245748"><ele>8.600000000000001</ele><time>2026-04-10T13:45:39Z</time></trkpt><trkpt lat="14.559305868472324" lon="120.99592456886464"><ele>8.8</ele><time>2026-04-10T13:45:40Z</time></trkpt><trkpt lat="14.559222144545215" lon="120.99594379497513"><ele>9.0</ele><time>2026-04-10T13:45:41Z</time></trkpt><trkpt lat="14.559132959024444" lon="120.99596292234503"><ele>9.0</ele><time>2026-04-10T13:45:42Z</time></trkpt><trkpt lat="14.5590492397282" lon="120.99598908003573"><ele>9.0</ele><time>2026-04-10T13:45:43Z</time></trkpt><trkpt lat="14.558954576282432" lon="120.99600527163342"><ele>9.0</ele><time>2026-04-10T13:45:44Z</time></trkpt><trkpt lat="14.558862868957103" lon="120.99602512262625"><ele>9.0</ele><time>2026-04-10T13:45:45Z</time></trkpt><trkpt lat="14.558778551235491" lon="120.99604738374677"><ele>9.0</ele><time>2026-04-10T13:45:46Z</time></trkpt><trkpt lat="14.55871141016484" lon="120.99607155290515"><ele>9.0</ele><time>2026-04-10T13:45:47Z</time></trkpt><trkpt lat="14.5586335734526" lon="120.99607690854715"><ele>9.0</ele><time>2026-04-10T13:45:48Z</time></trkpt><trkpt lat="14.558558903630207" lon="120.99609074525546"><ele>9.0</ele><time>2026-04-10T13:45:49Z</time></trkpt><trkpt lat="14.558484392908632" lon="120.99610390925933"><ele>9.0</ele><time>2026-04-10T13:45:50Z</time></trkpt><trkpt lat="14.558397694304198" lon="120.99612265528947"><ele>9.0</ele><time>2026-04-10T13:45:51Z</time></trkpt><trkpt lat="14.558314822655593" lon="120.99614564986248"><ele>9.0</ele><time>2026-04-10T13:45:52Z</time></trkpt><trkpt lat="14.55824866221453" lon="120.99616103228873"><ele>9.0</ele><time>2026-04-10T13:45:53Z</time></trkpt><trkpt lat="14.558175095706298" lon="120.9961709626665"><ele>9.0</ele><time>2026-04-10T13:45:55Z</time></trkpt><trkpt lat="14.558122694365071" lon="120.99604251358262"><ele>9.0</ele><time>2026-04-10T13:46:06Z</time></trkpt><trkpt lat="14.558066350928193" lon="120.99596095996283"><ele>9.0</ele><time>2026-04-10T13:46:08Z</time></trkpt><trkpt lat="14.558071523741608" lon="120.99586140639155"><ele>9.0</ele><time>2026-04-10T13:46:10Z</time></trkpt><trkpt lat="14.558061125999357" lon="120.99578062429444"><ele>9.0</ele><time>2026-04-10T13:46:12Z</time></trkpt><trkpt lat="14.55819251484563" lon="120.9957826292899"><ele>9.0</ele><time>2026-04-10T13:46:14Z</time></trkpt><trkpt lat="14.558260956665498" lon="120.99573611166431"><ele>9.0</ele><time>2026-04-10T13:46:20Z</time></trkpt><trkpt lat="14.558242060595605" lon="120.99566763848543"><ele>9.0</ele><time>2026-04-10T13:46:21.076Z</time></trkpt><trkpt lat="14.55798915290802" lon="120.99466752578348"><ele>9.0</ele><time>2026-04-10T13:46:37.304Z</time></trkpt><trkpt lat="14.562765694598925" lon="120.99658224327378"><ele>9.0</ele><time>2026-04-10T13:48:42Z</time></trkpt><trkpt lat="14.562898625304646" lon="120.99665077374826"><ele>9.0</ele><time>2026-04-10T13:48:43Z</time></trkpt><trkpt lat="14.562659551121872" lon="120.99661367525928"><ele>9.0</ele><time>2026-04-10T13:49:03Z</time></trkpt><trkpt lat="14.562497617214213" lon="120.99657669521791"><ele>9.0</ele><time>2026-04-10T13:49:45Z</time></trkpt><trkpt lat="14.562239397507339" lon="120.9965067328253"><ele>9.0</ele><time>2026-04-10T13:49:47Z</time></trkpt><trkpt lat="14.562179881740178" lon="120.99654843548113"><ele>9.0</ele><time>2026-04-10T13:49:51Z</time></trkpt><trkpt lat="14.562117205139874" lon="120.9965713060427"><ele>9.0</ele><time>2026-04-10T13:50:01Z</time></trkpt><trkpt lat="14.562057421025731" lon="120.99663142424329"><ele>8.833333333333334</ele><time>2026-04-10T13:50:14Z</time></trkpt><trkpt lat="14.561992409522603" lon="120.99660938149438"><ele>8.666666666666666</ele><time>2026-04-10T13:50:16Z</time></trkpt><trkpt lat="14.561936710069808" lon="120.9966429779794"><ele>8.5</ele><time>2026-04-10T13:50:22Z</time></trkpt><trkpt lat="14.56185831860449" lon="120.99664205824543"><ele>8.333333333333332</ele><time>2026-04-10T13:50:26Z</time></trkpt><trkpt lat="14.561771185211596" lon="120.99658065452469"><ele>8.166666666666666</ele><time>2026-04-10T13:50:32Z</time></trkpt><trkpt lat="14.561694006305498" lon="120.99655638722844"><ele>8.0</ele><time>2026-04-10T13:50:34Z</time></trkpt><trkpt lat="14.561607856366278" lon="120.99653464565422"><ele>7.999999999999999</ele><time>2026-04-10T13:50:36Z</time></trkpt><trkpt lat="14.561536348824513" lon="120.99651024841816"><ele>8.0</ele><time>2026-04-10T13:50:37Z</time></trkpt><trkpt lat="14.561464199435887" lon="120.99647168835702"><ele>8.0</ele><time>2026-04-10T13:50:39Z</time></trkpt><trkpt lat="14.561380077555091" lon="120.99646267430748"><ele>8.0</ele><time>2026-04-10T13:50:45Z</time></trkpt><trkpt lat="14.561306817519247" lon="120.99644484805434"><ele>7.999999999999999</ele><time>2026-04-10T13:50:49Z</time></trkpt><trkpt lat="14.561246294324791" lon="120.99641740788691"><ele>8.0</ele><time>2026-04-10T13:50:52Z</time></trkpt><trkpt lat="14.561168701442618" lon="120.99637099370506"><ele>8.166666666666666</ele><time>2026-04-10T13:51:00Z</time></trkpt><trkpt lat="14.56106176536622" lon="120.99635333432887"><ele>8.333333333333332</ele><time>2026-04-10T13:51:02Z</time></trkpt><trkpt lat="14.560980565010281" lon="120.99630999720897"><ele>8.5</ele><time>2026-04-10T13:51:04Z</time></trkpt><trkpt lat="14.560905837606919" lon="120.99628096178536"><ele>8.666666666666666</ele><time>2026-04-10T13:51:05Z</time></trkpt><trkpt lat="14.560824634242172" lon="120.9962466396887"><ele>8.833333333333334</ele><time>2026-04-10T13:51:06Z</time></trkpt><trkpt lat="14.560755104390807" lon="120.99621754407501"><ele>9.0</ele><time>2026-04-10T13:51:07Z</time></trkpt><trkpt lat="14.563241469051635" lon="120.99717905358578"><ele>9.0</ele><time>2026-04-10T13:51:08Z</time></trkpt><trkpt lat="14.563185652321605" lon="120.99712623132334"><ele>9.0</ele><time>2026-04-10T13:51:15Z</time></trkpt><trkpt lat="14.560695588125963" lon="120.99613047160304"><ele>9.0</ele><time>2026-04-10T13:51:24Z</time></trkpt><trkpt lat="14.560619118078133" lon="120.99611007374222"><ele>9.0</ele><time>2026-04-10T13:51:25Z</time></trkpt><trkpt lat="14.560210942134574" lon="120.99596100542637"><ele>9.0</ele><time>2026-04-10T13:51:26Z</time></trkpt><trkpt lat="14.559834483896038" lon="120.99583182210205"><ele>9.0</ele><time>2026-04-10T13:51:27Z</time></trkpt><trkpt lat="14.558971337939145" lon="120.99555871524647"><ele>9.0</ele><time>2026-04-10T13:51:28Z</time></trkpt><trkpt lat="14.558730899028351" lon="120.99546763157373"><ele>9.0</ele><time>2026-04-10T13:51:29Z</time></trkpt><trkpt lat="14.55857697639244" lon="120.99539676163633"><ele>9.0</ele><time>2026-04-10T13:51:30Z</time></trkpt><trkpt lat="14.558498355107476" lon="120.99536426759965"><ele>9.0</ele><time>2026-04-10T13:51:31Z</time></trkpt><trkpt lat="14.558406578906636" lon="120.99532562023839"><ele>9.0</ele><time>2026-04-10T13:51:32Z</time></trkpt><trkpt lat="14.558470924374063" lon="120.99534160550382"><ele>9.0</ele><time>2026-04-10T13:51:33Z</time></trkpt><trkpt lat="14.558370225860491" lon="120.99532387768079"><ele>9.0</ele><time>2026-04-10T13:51:34Z</time></trkpt><trkpt lat="14.558314589212685" lon="120.99536131292115"><ele>9.0</ele><time>2026-04-10T13:51:42Z</time></trkpt></trkseg></trk></gpx>